<?xml version="1.0" encoding="UTF-8" standalone="no" ?>
<gpx xmlns="http://www.topografix.com/GPX/1/1" xmlns:xsi="http://www.w3.org/2001/XMLSchema-instance" xsi:schemaLocation="http://www.topografix.com/GPX/1/1 http://www.topografix.com/GPX/1/1/gpx.xsd" version="1.1" creator="VisuGPX - https://www.visugpx.com">
  <metadata>
    <name>torfou</name>
    <desc><![CDATA[rando torfou]]></desc>
  </metadata>
  <trk>
    <name><![CDATA[2011-11-27 08:16 Torfou]]></name>
    <desc><![CDATA[]]></desc>
    <trkseg>
      <trkpt lat="47.03715" lon="-1.11679">
        <ele>126.4</ele>
        <time>2011-11-27T07:16:20Z</time>
      </trkpt>
      <trkpt lat="47.03712" lon="-1.11686">
        <ele>137.3</ele>
        <time>2011-11-27T07:16:50Z</time>
      </trkpt>
      <trkpt lat="47.03708" lon="-1.11683">
        <ele>137.6</ele>
        <time>2011-11-27T07:16:54Z</time>
      </trkpt>
      <trkpt lat="47.03704" lon="-1.11678">
        <ele>137.5</ele>
        <time>2011-11-27T07:16:56Z</time>
      </trkpt>
      <trkpt lat="47.037" lon="-1.11675">
        <ele>137.4</ele>
        <time>2011-11-27T07:16:58Z</time>
      </trkpt>
      <trkpt lat="47.03695" lon="-1.11673">
        <ele>137.8</ele>
        <time>2011-11-27T07:16:59Z</time>
      </trkpt>
      <trkpt lat="47.03686" lon="-1.11674">
        <ele>136.7</ele>
        <time>2011-11-27T07:17:02Z</time>
      </trkpt>
      <trkpt lat="47.03684" lon="-1.11667">
        <ele>137.6</ele>
        <time>2011-11-27T07:17:05Z</time>
      </trkpt>
      <trkpt lat="47.03678" lon="-1.11659">
        <ele>137.8</ele>
        <time>2011-11-27T07:17:16Z</time>
      </trkpt>
      <trkpt lat="47.03681" lon="-1.11647">
        <ele>139.1</ele>
        <time>2011-11-27T07:17:17Z</time>
      </trkpt>
      <trkpt lat="47.03683" lon="-1.11641">
        <ele>139.2</ele>
        <time>2011-11-27T07:17:18Z</time>
      </trkpt>
      <trkpt lat="47.03686" lon="-1.11635">
        <ele>139.4</ele>
        <time>2011-11-27T07:17:19Z</time>
      </trkpt>
      <trkpt lat="47.03689" lon="-1.11625">
        <ele>139.6</ele>
        <time>2011-11-27T07:17:21Z</time>
      </trkpt>
      <trkpt lat="47.03693" lon="-1.11618">
        <ele>140.1</ele>
        <time>2011-11-27T07:17:23Z</time>
      </trkpt>
      <trkpt lat="47.03698" lon="-1.11611">
        <ele>139.8</ele>
        <time>2011-11-27T07:17:25Z</time>
      </trkpt>
      <trkpt lat="47.03704" lon="-1.11605">
        <ele>139.7</ele>
        <time>2011-11-27T07:17:27Z</time>
      </trkpt>
      <trkpt lat="47.03709" lon="-1.116">
        <ele>140</ele>
        <time>2011-11-27T07:17:29Z</time>
      </trkpt>
      <trkpt lat="47.03712" lon="-1.11594">
        <ele>140.5</ele>
        <time>2011-11-27T07:17:31Z</time>
      </trkpt>
      <trkpt lat="47.03717" lon="-1.11586">
        <ele>140.5</ele>
        <time>2011-11-27T07:17:34Z</time>
      </trkpt>
      <trkpt lat="47.03719" lon="-1.11574">
        <ele>140</ele>
        <time>2011-11-27T07:17:37Z</time>
      </trkpt>
      <trkpt lat="47.03721" lon="-1.11566">
        <ele>140.8</ele>
        <time>2011-11-27T07:17:39Z</time>
      </trkpt>
      <trkpt lat="47.03718" lon="-1.11559">
        <ele>141.8</ele>
        <time>2011-11-27T07:17:41Z</time>
      </trkpt>
      <trkpt lat="47.03729" lon="-1.11552">
        <ele>141.7</ele>
        <time>2011-11-27T07:17:44Z</time>
      </trkpt>
      <trkpt lat="47.03733" lon="-1.11547">
        <ele>142.4</ele>
        <time>2011-11-27T07:17:45Z</time>
      </trkpt>
      <trkpt lat="47.03739" lon="-1.11537">
        <ele>143.3</ele>
        <time>2011-11-27T07:17:47Z</time>
      </trkpt>
      <trkpt lat="47.03743" lon="-1.11531">
        <ele>142.9</ele>
        <time>2011-11-27T07:17:49Z</time>
      </trkpt>
      <trkpt lat="47.03749" lon="-1.1153">
        <ele>144.9</ele>
        <time>2011-11-27T07:17:51Z</time>
      </trkpt>
      <trkpt lat="47.03756" lon="-1.11535">
        <ele>146.6</ele>
        <time>2011-11-27T07:17:53Z</time>
      </trkpt>
      <trkpt lat="47.0376" lon="-1.11545">
        <ele>147.3</ele>
        <time>2011-11-27T07:17:55Z</time>
      </trkpt>
      <trkpt lat="47.03765" lon="-1.11558">
        <ele>147.1</ele>
        <time>2011-11-27T07:17:57Z</time>
      </trkpt>
      <trkpt lat="47.03767" lon="-1.11563">
        <ele>147.1</ele>
        <time>2011-11-27T07:17:58Z</time>
      </trkpt>
      <trkpt lat="47.0377" lon="-1.11572">
        <ele>147.3</ele>
        <time>2011-11-27T07:17:59Z</time>
      </trkpt>
      <trkpt lat="47.03773" lon="-1.11584">
        <ele>147.3</ele>
        <time>2011-11-27T07:18:01Z</time>
      </trkpt>
      <trkpt lat="47.03775" lon="-1.11594">
        <ele>150.9</ele>
        <time>2011-11-27T07:18:03Z</time>
      </trkpt>
      <trkpt lat="47.03777" lon="-1.11601">
        <ele>151.3</ele>
        <time>2011-11-27T07:18:04Z</time>
      </trkpt>
      <trkpt lat="47.0378" lon="-1.11607">
        <ele>151.5</ele>
        <time>2011-11-27T07:18:05Z</time>
      </trkpt>
      <trkpt lat="47.03783" lon="-1.11614">
        <ele>151.9</ele>
        <time>2011-11-27T07:18:06Z</time>
      </trkpt>
      <trkpt lat="47.03785" lon="-1.11623">
        <ele>152.1</ele>
        <time>2011-11-27T07:18:07Z</time>
      </trkpt>
      <trkpt lat="47.03786" lon="-1.11632">
        <ele>152</ele>
        <time>2011-11-27T07:18:08Z</time>
      </trkpt>
      <trkpt lat="47.03788" lon="-1.1164">
        <ele>152.2</ele>
        <time>2011-11-27T07:18:09Z</time>
      </trkpt>
      <trkpt lat="47.03791" lon="-1.11649">
        <ele>152.3</ele>
        <time>2011-11-27T07:18:10Z</time>
      </trkpt>
      <trkpt lat="47.03793" lon="-1.11658">
        <ele>152.4</ele>
        <time>2011-11-27T07:18:11Z</time>
      </trkpt>
      <trkpt lat="47.03796" lon="-1.11666">
        <ele>152.6</ele>
        <time>2011-11-27T07:18:12Z</time>
      </trkpt>
      <trkpt lat="47.03798" lon="-1.11675">
        <ele>152.4</ele>
        <time>2011-11-27T07:18:13Z</time>
      </trkpt>
      <trkpt lat="47.03801" lon="-1.11684">
        <ele>152.5</ele>
        <time>2011-11-27T07:18:14Z</time>
      </trkpt>
      <trkpt lat="47.03804" lon="-1.11693">
        <ele>152.7</ele>
        <time>2011-11-27T07:18:15Z</time>
      </trkpt>
      <trkpt lat="47.03806" lon="-1.11702">
        <ele>152.7</ele>
        <time>2011-11-27T07:18:16Z</time>
      </trkpt>
      <trkpt lat="47.03806" lon="-1.11708">
        <ele>152.6</ele>
        <time>2011-11-27T07:18:17Z</time>
      </trkpt>
      <trkpt lat="47.03809" lon="-1.11716">
        <ele>152.6</ele>
        <time>2011-11-27T07:18:18Z</time>
      </trkpt>
      <trkpt lat="47.03809" lon="-1.11724">
        <ele>152.7</ele>
        <time>2011-11-27T07:18:19Z</time>
      </trkpt>
      <trkpt lat="47.03811" lon="-1.11736">
        <ele>153.1</ele>
        <time>2011-11-27T07:18:21Z</time>
      </trkpt>
      <trkpt lat="47.03814" lon="-1.11744">
        <ele>152.9</ele>
        <time>2011-11-27T07:18:23Z</time>
      </trkpt>
      <trkpt lat="47.03821" lon="-1.11748">
        <ele>151.1</ele>
        <time>2011-11-27T07:18:25Z</time>
      </trkpt>
      <trkpt lat="47.03824" lon="-1.11744">
        <ele>152</ele>
        <time>2011-11-27T07:18:27Z</time>
      </trkpt>
      <trkpt lat="47.03829" lon="-1.11742">
        <ele>152.7</ele>
        <time>2011-11-27T07:18:29Z</time>
      </trkpt>
      <trkpt lat="47.03836" lon="-1.1174">
        <ele>152.6</ele>
        <time>2011-11-27T07:18:30Z</time>
      </trkpt>
      <trkpt lat="47.03844" lon="-1.11734">
        <ele>151.7</ele>
        <time>2011-11-27T07:18:32Z</time>
      </trkpt>
      <trkpt lat="47.03851" lon="-1.11732">
        <ele>152.6</ele>
        <time>2011-11-27T07:18:34Z</time>
      </trkpt>
      <trkpt lat="47.03863" lon="-1.11727">
        <ele>155.2</ele>
        <time>2011-11-27T07:18:36Z</time>
      </trkpt>
      <trkpt lat="47.03876" lon="-1.1173">
        <ele>155.7</ele>
        <time>2011-11-27T07:18:39Z</time>
      </trkpt>
      <trkpt lat="47.03887" lon="-1.11739">
        <ele>156.1</ele>
        <time>2011-11-27T07:18:41Z</time>
      </trkpt>
      <trkpt lat="47.03894" lon="-1.1175">
        <ele>156</ele>
        <time>2011-11-27T07:18:44Z</time>
      </trkpt>
      <trkpt lat="47.03898" lon="-1.11756">
        <ele>156.2</ele>
        <time>2011-11-27T07:18:45Z</time>
      </trkpt>
      <trkpt lat="47.03904" lon="-1.11763">
        <ele>156.5</ele>
        <time>2011-11-27T07:18:47Z</time>
      </trkpt>
      <trkpt lat="47.03911" lon="-1.11771">
        <ele>151.9</ele>
        <time>2011-11-27T07:18:48Z</time>
      </trkpt>
      <trkpt lat="47.03917" lon="-1.1177">
        <ele>150</ele>
        <time>2011-11-27T07:18:50Z</time>
      </trkpt>
      <trkpt lat="47.03924" lon="-1.11765">
        <ele>148.7</ele>
        <time>2011-11-27T07:18:52Z</time>
      </trkpt>
      <trkpt lat="47.03928" lon="-1.11751">
        <ele>149.2</ele>
        <time>2011-11-27T07:18:53Z</time>
      </trkpt>
      <trkpt lat="47.03931" lon="-1.11745">
        <ele>148.1</ele>
        <time>2011-11-27T07:18:54Z</time>
      </trkpt>
      <trkpt lat="47.03934" lon="-1.11738">
        <ele>144.6</ele>
        <time>2011-11-27T07:18:56Z</time>
      </trkpt>
      <trkpt lat="47.03937" lon="-1.11729">
        <ele>142.9</ele>
        <time>2011-11-27T07:18:58Z</time>
      </trkpt>
      <trkpt lat="47.03939" lon="-1.11723">
        <ele>141.8</ele>
        <time>2011-11-27T07:18:59Z</time>
      </trkpt>
      <trkpt lat="47.03942" lon="-1.11716">
        <ele>141.1</ele>
        <time>2011-11-27T07:19:00Z</time>
      </trkpt>
      <trkpt lat="47.03946" lon="-1.11709">
        <ele>141.1</ele>
        <time>2011-11-27T07:19:01Z</time>
      </trkpt>
      <trkpt lat="47.03949" lon="-1.11703">
        <ele>141.2</ele>
        <time>2011-11-27T07:19:02Z</time>
      </trkpt>
      <trkpt lat="47.03952" lon="-1.11695">
        <ele>141.5</ele>
        <time>2011-11-27T07:19:03Z</time>
      </trkpt>
      <trkpt lat="47.03957" lon="-1.11688">
        <ele>141.9</ele>
        <time>2011-11-27T07:19:04Z</time>
      </trkpt>
      <trkpt lat="47.0396" lon="-1.11682">
        <ele>142</ele>
        <time>2011-11-27T07:19:05Z</time>
      </trkpt>
      <trkpt lat="47.03964" lon="-1.11675">
        <ele>142.2</ele>
        <time>2011-11-27T07:19:06Z</time>
      </trkpt>
      <trkpt lat="47.03968" lon="-1.11668">
        <ele>142.5</ele>
        <time>2011-11-27T07:19:07Z</time>
      </trkpt>
      <trkpt lat="47.03972" lon="-1.11662">
        <ele>142.1</ele>
        <time>2011-11-27T07:19:08Z</time>
      </trkpt>
      <trkpt lat="47.03975" lon="-1.11657">
        <ele>142</ele>
        <time>2011-11-27T07:19:09Z</time>
      </trkpt>
      <trkpt lat="47.03979" lon="-1.11651">
        <ele>141.8</ele>
        <time>2011-11-27T07:19:10Z</time>
      </trkpt>
      <trkpt lat="47.03982" lon="-1.11647">
        <ele>141.7</ele>
        <time>2011-11-27T07:19:11Z</time>
      </trkpt>
      <trkpt lat="47.03985" lon="-1.11641">
        <ele>141.3</ele>
        <time>2011-11-27T07:19:12Z</time>
      </trkpt>
      <trkpt lat="47.03988" lon="-1.11636">
        <ele>140.9</ele>
        <time>2011-11-27T07:19:13Z</time>
      </trkpt>
      <trkpt lat="47.03993" lon="-1.11627">
        <ele>141.4</ele>
        <time>2011-11-27T07:19:15Z</time>
      </trkpt>
      <trkpt lat="47.03996" lon="-1.11619">
        <ele>140.7</ele>
        <time>2011-11-27T07:19:17Z</time>
      </trkpt>
      <trkpt lat="47.03998" lon="-1.1161">
        <ele>140</ele>
        <time>2011-11-27T07:19:19Z</time>
      </trkpt>
      <trkpt lat="47.04004" lon="-1.11606">
        <ele>142.1</ele>
        <time>2011-11-27T07:19:21Z</time>
      </trkpt>
      <trkpt lat="47.04014" lon="-1.11605">
        <ele>141</ele>
        <time>2011-11-27T07:19:23Z</time>
      </trkpt>
      <trkpt lat="47.04022" lon="-1.11605">
        <ele>140</ele>
        <time>2011-11-27T07:19:25Z</time>
      </trkpt>
      <trkpt lat="47.04029" lon="-1.11611">
        <ele>139.9</ele>
        <time>2011-11-27T07:19:27Z</time>
      </trkpt>
      <trkpt lat="47.04034" lon="-1.11617">
        <ele>140.3</ele>
        <time>2011-11-27T07:19:28Z</time>
      </trkpt>
      <trkpt lat="47.04042" lon="-1.11625">
        <ele>141.1</ele>
        <time>2011-11-27T07:19:29Z</time>
      </trkpt>
      <trkpt lat="47.04048" lon="-1.11633">
        <ele>141.7</ele>
        <time>2011-11-27T07:19:30Z</time>
      </trkpt>
      <trkpt lat="47.04052" lon="-1.11644">
        <ele>142.3</ele>
        <time>2011-11-27T07:19:31Z</time>
      </trkpt>
      <trkpt lat="47.04057" lon="-1.11652">
        <ele>142.5</ele>
        <time>2011-11-27T07:19:32Z</time>
      </trkpt>
      <trkpt lat="47.04061" lon="-1.11659">
        <ele>142.3</ele>
        <time>2011-11-27T07:19:33Z</time>
      </trkpt>
      <trkpt lat="47.04064" lon="-1.11665">
        <ele>142.2</ele>
        <time>2011-11-27T07:19:34Z</time>
      </trkpt>
      <trkpt lat="47.04067" lon="-1.11671">
        <ele>142.5</ele>
        <time>2011-11-27T07:19:35Z</time>
      </trkpt>
      <trkpt lat="47.04075" lon="-1.11674">
        <ele>143</ele>
        <time>2011-11-27T07:19:37Z</time>
      </trkpt>
      <trkpt lat="47.04079" lon="-1.11672">
        <ele>143.1</ele>
        <time>2011-11-27T07:19:38Z</time>
      </trkpt>
      <trkpt lat="47.04086" lon="-1.1167">
        <ele>143.2</ele>
        <time>2011-11-27T07:19:40Z</time>
      </trkpt>
      <trkpt lat="47.04091" lon="-1.11668">
        <ele>143.3</ele>
        <time>2011-11-27T07:19:41Z</time>
      </trkpt>
      <trkpt lat="47.04097" lon="-1.11668">
        <ele>143.3</ele>
        <time>2011-11-27T07:19:42Z</time>
      </trkpt>
      <trkpt lat="47.04102" lon="-1.11663">
        <ele>143.8</ele>
        <time>2011-11-27T07:19:43Z</time>
      </trkpt>
      <trkpt lat="47.04109" lon="-1.1166">
        <ele>143.7</ele>
        <time>2011-11-27T07:19:44Z</time>
      </trkpt>
      <trkpt lat="47.04115" lon="-1.11658">
        <ele>143.6</ele>
        <time>2011-11-27T07:19:45Z</time>
      </trkpt>
      <trkpt lat="47.0412" lon="-1.11654">
        <ele>142.4</ele>
        <time>2011-11-27T07:19:46Z</time>
      </trkpt>
      <trkpt lat="47.04124" lon="-1.1165">
        <ele>140.7</ele>
        <time>2011-11-27T07:19:47Z</time>
      </trkpt>
      <trkpt lat="47.04127" lon="-1.11639">
        <ele>139.5</ele>
        <time>2011-11-27T07:19:49Z</time>
      </trkpt>
      <trkpt lat="47.04126" lon="-1.11632">
        <ele>138.1</ele>
        <time>2011-11-27T07:19:50Z</time>
      </trkpt>
      <trkpt lat="47.04124" lon="-1.11616">
        <ele>134.1</ele>
        <time>2011-11-27T07:19:53Z</time>
      </trkpt>
      <trkpt lat="47.04124" lon="-1.11609">
        <ele>133.1</ele>
        <time>2011-11-27T07:19:54Z</time>
      </trkpt>
      <trkpt lat="47.04121" lon="-1.11601">
        <ele>134.5</ele>
        <time>2011-11-27T07:19:55Z</time>
      </trkpt>
      <trkpt lat="47.04122" lon="-1.1159">
        <ele>133.8</ele>
        <time>2011-11-27T07:19:56Z</time>
      </trkpt>
      <trkpt lat="47.04123" lon="-1.11575">
        <ele>133.1</ele>
        <time>2011-11-27T07:19:59Z</time>
      </trkpt>
      <trkpt lat="47.04126" lon="-1.11561">
        <ele>132.4</ele>
        <time>2011-11-27T07:20:01Z</time>
      </trkpt>
      <trkpt lat="47.0413" lon="-1.11539">
        <ele>132.7</ele>
        <time>2011-11-27T07:20:04Z</time>
      </trkpt>
      <trkpt lat="47.04134" lon="-1.11528">
        <ele>130.5</ele>
        <time>2011-11-27T07:20:05Z</time>
      </trkpt>
      <trkpt lat="47.04142" lon="-1.11517">
        <ele>131</ele>
        <time>2011-11-27T07:20:08Z</time>
      </trkpt>
      <trkpt lat="47.04147" lon="-1.11513">
        <ele>130.8</ele>
        <time>2011-11-27T07:20:09Z</time>
      </trkpt>
      <trkpt lat="47.04153" lon="-1.1151">
        <ele>130.8</ele>
        <time>2011-11-27T07:20:10Z</time>
      </trkpt>
      <trkpt lat="47.04158" lon="-1.11506">
        <ele>130.7</ele>
        <time>2011-11-27T07:20:11Z</time>
      </trkpt>
      <trkpt lat="47.04163" lon="-1.11504">
        <ele>130.6</ele>
        <time>2011-11-27T07:20:12Z</time>
      </trkpt>
      <trkpt lat="47.04168" lon="-1.11502">
        <ele>130.7</ele>
        <time>2011-11-27T07:20:13Z</time>
      </trkpt>
      <trkpt lat="47.04182" lon="-1.11493">
        <ele>131.2</ele>
        <time>2011-11-27T07:20:16Z</time>
      </trkpt>
      <trkpt lat="47.0419" lon="-1.11487">
        <ele>131</ele>
        <time>2011-11-27T07:20:18Z</time>
      </trkpt>
      <trkpt lat="47.04192" lon="-1.1148">
        <ele>130.5</ele>
        <time>2011-11-27T07:20:19Z</time>
      </trkpt>
      <trkpt lat="47.04197" lon="-1.11474">
        <ele>130.8</ele>
        <time>2011-11-27T07:20:20Z</time>
      </trkpt>
      <trkpt lat="47.04201" lon="-1.11468">
        <ele>130.5</ele>
        <time>2011-11-27T07:20:22Z</time>
      </trkpt>
      <trkpt lat="47.04202" lon="-1.11461">
        <ele>130.2</ele>
        <time>2011-11-27T07:20:23Z</time>
      </trkpt>
      <trkpt lat="47.04207" lon="-1.11452">
        <ele>129.2</ele>
        <time>2011-11-27T07:20:24Z</time>
      </trkpt>
      <trkpt lat="47.04207" lon="-1.11444">
        <ele>129</ele>
        <time>2011-11-27T07:20:26Z</time>
      </trkpt>
      <trkpt lat="47.04212" lon="-1.1143">
        <ele>128.7</ele>
        <time>2011-11-27T07:20:29Z</time>
      </trkpt>
      <trkpt lat="47.04218" lon="-1.11421">
        <ele>128.2</ele>
        <time>2011-11-27T07:20:31Z</time>
      </trkpt>
      <trkpt lat="47.04219" lon="-1.11414">
        <ele>127.8</ele>
        <time>2011-11-27T07:20:33Z</time>
      </trkpt>
      <trkpt lat="47.04222" lon="-1.11408">
        <ele>127.9</ele>
        <time>2011-11-27T07:20:34Z</time>
      </trkpt>
      <trkpt lat="47.04223" lon="-1.11401">
        <ele>128.3</ele>
        <time>2011-11-27T07:20:35Z</time>
      </trkpt>
      <trkpt lat="47.04223" lon="-1.11394">
        <ele>128.3</ele>
        <time>2011-11-27T07:20:36Z</time>
      </trkpt>
      <trkpt lat="47.04224" lon="-1.11377">
        <ele>129.1</ele>
        <time>2011-11-27T07:20:37Z</time>
      </trkpt>
      <trkpt lat="47.04227" lon="-1.11367">
        <ele>130</ele>
        <time>2011-11-27T07:20:39Z</time>
      </trkpt>
      <trkpt lat="47.04232" lon="-1.11358">
        <ele>127.5</ele>
        <time>2011-11-27T07:20:41Z</time>
      </trkpt>
      <trkpt lat="47.04234" lon="-1.11351">
        <ele>126.3</ele>
        <time>2011-11-27T07:20:43Z</time>
      </trkpt>
      <trkpt lat="47.04236" lon="-1.11344">
        <ele>126.7</ele>
        <time>2011-11-27T07:20:45Z</time>
      </trkpt>
      <trkpt lat="47.0424" lon="-1.11337">
        <ele>127</ele>
        <time>2011-11-27T07:20:47Z</time>
      </trkpt>
      <trkpt lat="47.0424" lon="-1.11327">
        <ele>127.4</ele>
        <time>2011-11-27T07:20:49Z</time>
      </trkpt>
      <trkpt lat="47.0424" lon="-1.1132">
        <ele>128.2</ele>
        <time>2011-11-27T07:20:51Z</time>
      </trkpt>
      <trkpt lat="47.04241" lon="-1.11311">
        <ele>128</ele>
        <time>2011-11-27T07:20:53Z</time>
      </trkpt>
      <trkpt lat="47.04244" lon="-1.113">
        <ele>128.2</ele>
        <time>2011-11-27T07:20:55Z</time>
      </trkpt>
      <trkpt lat="47.04247" lon="-1.11286">
        <ele>128.9</ele>
        <time>2011-11-27T07:20:57Z</time>
      </trkpt>
      <trkpt lat="47.04251" lon="-1.11275">
        <ele>129</ele>
        <time>2011-11-27T07:20:58Z</time>
      </trkpt>
      <trkpt lat="47.04254" lon="-1.11266">
        <ele>129.7</ele>
        <time>2011-11-27T07:21:00Z</time>
      </trkpt>
      <trkpt lat="47.04258" lon="-1.11261">
        <ele>130.4</ele>
        <time>2011-11-27T07:21:02Z</time>
      </trkpt>
      <trkpt lat="47.04263" lon="-1.11257">
        <ele>130</ele>
        <time>2011-11-27T07:21:03Z</time>
      </trkpt>
      <trkpt lat="47.04264" lon="-1.11249">
        <ele>131.5</ele>
        <time>2011-11-27T07:21:05Z</time>
      </trkpt>
      <trkpt lat="47.04268" lon="-1.1124">
        <ele>130.7</ele>
        <time>2011-11-27T07:21:07Z</time>
      </trkpt>
      <trkpt lat="47.04265" lon="-1.11232">
        <ele>128.6</ele>
        <time>2011-11-27T07:21:10Z</time>
      </trkpt>
      <trkpt lat="47.04266" lon="-1.11223">
        <ele>127.9</ele>
        <time>2011-11-27T07:21:11Z</time>
      </trkpt>
      <trkpt lat="47.04272" lon="-1.11208">
        <ele>128.3</ele>
        <time>2011-11-27T07:21:12Z</time>
      </trkpt>
      <trkpt lat="47.04275" lon="-1.11201">
        <ele>127.9</ele>
        <time>2011-11-27T07:21:13Z</time>
      </trkpt>
      <trkpt lat="47.04275" lon="-1.1119">
        <ele>128.6</ele>
        <time>2011-11-27T07:21:16Z</time>
      </trkpt>
      <trkpt lat="47.04279" lon="-1.11188">
        <ele>128.1</ele>
        <time>2011-11-27T07:21:17Z</time>
      </trkpt>
      <trkpt lat="47.04285" lon="-1.11181">
        <ele>128</ele>
        <time>2011-11-27T07:21:18Z</time>
      </trkpt>
      <trkpt lat="47.0429" lon="-1.1117">
        <ele>127.8</ele>
        <time>2011-11-27T07:21:21Z</time>
      </trkpt>
      <trkpt lat="47.04294" lon="-1.11166">
        <ele>127.4</ele>
        <time>2011-11-27T07:21:23Z</time>
      </trkpt>
      <trkpt lat="47.04301" lon="-1.11164">
        <ele>127.6</ele>
        <time>2011-11-27T07:21:26Z</time>
      </trkpt>
      <trkpt lat="47.04305" lon="-1.11167">
        <ele>127.8</ele>
        <time>2011-11-27T07:21:27Z</time>
      </trkpt>
      <trkpt lat="47.0431" lon="-1.11172">
        <ele>128.1</ele>
        <time>2011-11-27T07:21:29Z</time>
      </trkpt>
      <trkpt lat="47.04314" lon="-1.11174">
        <ele>128.3</ele>
        <time>2011-11-27T07:21:31Z</time>
      </trkpt>
      <trkpt lat="47.0432" lon="-1.1118">
        <ele>128.4</ele>
        <time>2011-11-27T07:21:33Z</time>
      </trkpt>
      <trkpt lat="47.04322" lon="-1.11187">
        <ele>129</ele>
        <time>2011-11-27T07:21:37Z</time>
      </trkpt>
      <trkpt lat="47.04328" lon="-1.11188">
        <ele>129.4</ele>
        <time>2011-11-27T07:21:40Z</time>
      </trkpt>
      <trkpt lat="47.04333" lon="-1.11193">
        <ele>130.1</ele>
        <time>2011-11-27T07:21:43Z</time>
      </trkpt>
      <trkpt lat="47.04338" lon="-1.11192">
        <ele>131</ele>
        <time>2011-11-27T07:21:47Z</time>
      </trkpt>
      <trkpt lat="47.04341" lon="-1.11197">
        <ele>131.1</ele>
        <time>2011-11-27T07:21:48Z</time>
      </trkpt>
      <trkpt lat="47.04344" lon="-1.11202">
        <ele>131.2</ele>
        <time>2011-11-27T07:21:49Z</time>
      </trkpt>
      <trkpt lat="47.0435" lon="-1.11206">
        <ele>131.2</ele>
        <time>2011-11-27T07:21:50Z</time>
      </trkpt>
      <trkpt lat="47.04357" lon="-1.11216">
        <ele>130.6</ele>
        <time>2011-11-27T07:21:52Z</time>
      </trkpt>
      <trkpt lat="47.04361" lon="-1.11219">
        <ele>130.7</ele>
        <time>2011-11-27T07:21:53Z</time>
      </trkpt>
      <trkpt lat="47.04372" lon="-1.11226">
        <ele>129.3</ele>
        <time>2011-11-27T07:21:55Z</time>
      </trkpt>
      <trkpt lat="47.04378" lon="-1.11231">
        <ele>127.5</ele>
        <time>2011-11-27T07:21:56Z</time>
      </trkpt>
      <trkpt lat="47.04385" lon="-1.11232">
        <ele>126.8</ele>
        <time>2011-11-27T07:21:58Z</time>
      </trkpt>
      <trkpt lat="47.04391" lon="-1.11224">
        <ele>130.8</ele>
        <time>2011-11-27T07:22:00Z</time>
      </trkpt>
      <trkpt lat="47.04394" lon="-1.11218">
        <ele>130.5</ele>
        <time>2011-11-27T07:22:01Z</time>
      </trkpt>
      <trkpt lat="47.04399" lon="-1.11205">
        <ele>132.3</ele>
        <time>2011-11-27T07:22:03Z</time>
      </trkpt>
      <trkpt lat="47.04402" lon="-1.11199">
        <ele>133</ele>
        <time>2011-11-27T07:22:04Z</time>
      </trkpt>
      <trkpt lat="47.04405" lon="-1.11191">
        <ele>133</ele>
        <time>2011-11-27T07:22:06Z</time>
      </trkpt>
      <trkpt lat="47.04411" lon="-1.11184">
        <ele>133.1</ele>
        <time>2011-11-27T07:22:08Z</time>
      </trkpt>
      <trkpt lat="47.04421" lon="-1.1117">
        <ele>131.9</ele>
        <time>2011-11-27T07:22:11Z</time>
      </trkpt>
      <trkpt lat="47.04427" lon="-1.11167">
        <ele>131.2</ele>
        <time>2011-11-27T07:22:13Z</time>
      </trkpt>
      <trkpt lat="47.04429" lon="-1.1116">
        <ele>129.6</ele>
        <time>2011-11-27T07:22:17Z</time>
      </trkpt>
      <trkpt lat="47.04432" lon="-1.11153">
        <ele>128.6</ele>
        <time>2011-11-27T07:22:22Z</time>
      </trkpt>
      <trkpt lat="47.04436" lon="-1.11142">
        <ele>128.5</ele>
        <time>2011-11-27T07:22:25Z</time>
      </trkpt>
      <trkpt lat="47.04439" lon="-1.11134">
        <ele>129.5</ele>
        <time>2011-11-27T07:22:27Z</time>
      </trkpt>
      <trkpt lat="47.04443" lon="-1.11126">
        <ele>129.9</ele>
        <time>2011-11-27T07:22:29Z</time>
      </trkpt>
      <trkpt lat="47.04449" lon="-1.11113">
        <ele>129.2</ele>
        <time>2011-11-27T07:22:31Z</time>
      </trkpt>
      <trkpt lat="47.04452" lon="-1.11107">
        <ele>129</ele>
        <time>2011-11-27T07:22:32Z</time>
      </trkpt>
      <trkpt lat="47.04458" lon="-1.11095">
        <ele>129.4</ele>
        <time>2011-11-27T07:22:34Z</time>
      </trkpt>
      <trkpt lat="47.04465" lon="-1.11083">
        <ele>129.3</ele>
        <time>2011-11-27T07:22:35Z</time>
      </trkpt>
      <trkpt lat="47.0447" lon="-1.11074">
        <ele>129</ele>
        <time>2011-11-27T07:22:37Z</time>
      </trkpt>
      <trkpt lat="47.04475" lon="-1.11064">
        <ele>128.3</ele>
        <time>2011-11-27T07:22:39Z</time>
      </trkpt>
      <trkpt lat="47.04477" lon="-1.11055">
        <ele>128.7</ele>
        <time>2011-11-27T07:22:41Z</time>
      </trkpt>
      <trkpt lat="47.0448" lon="-1.11048">
        <ele>128.7</ele>
        <time>2011-11-27T07:22:42Z</time>
      </trkpt>
      <trkpt lat="47.04483" lon="-1.11038">
        <ele>128.9</ele>
        <time>2011-11-27T07:22:44Z</time>
      </trkpt>
      <trkpt lat="47.04485" lon="-1.11032">
        <ele>128.8</ele>
        <time>2011-11-27T07:22:45Z</time>
      </trkpt>
      <trkpt lat="47.04489" lon="-1.11024">
        <ele>128.6</ele>
        <time>2011-11-27T07:22:47Z</time>
      </trkpt>
      <trkpt lat="47.04494" lon="-1.11014">
        <ele>128.5</ele>
        <time>2011-11-27T07:22:49Z</time>
      </trkpt>
      <trkpt lat="47.04499" lon="-1.11007">
        <ele>127.2</ele>
        <time>2011-11-27T07:22:51Z</time>
      </trkpt>
      <trkpt lat="47.04502" lon="-1.10998">
        <ele>127.4</ele>
        <time>2011-11-27T07:22:53Z</time>
      </trkpt>
      <trkpt lat="47.04507" lon="-1.1099">
        <ele>127.1</ele>
        <time>2011-11-27T07:22:55Z</time>
      </trkpt>
      <trkpt lat="47.04512" lon="-1.10987">
        <ele>127.2</ele>
        <time>2011-11-27T07:22:56Z</time>
      </trkpt>
      <trkpt lat="47.04519" lon="-1.10981">
        <ele>127.3</ele>
        <time>2011-11-27T07:22:58Z</time>
      </trkpt>
      <trkpt lat="47.04524" lon="-1.10978">
        <ele>127.6</ele>
        <time>2011-11-27T07:23:00Z</time>
      </trkpt>
      <trkpt lat="47.04531" lon="-1.10976">
        <ele>128.2</ele>
        <time>2011-11-27T07:23:02Z</time>
      </trkpt>
      <trkpt lat="47.04536" lon="-1.10977">
        <ele>127</ele>
        <time>2011-11-27T07:23:06Z</time>
      </trkpt>
      <trkpt lat="47.0454" lon="-1.10973">
        <ele>130.5</ele>
        <time>2011-11-27T07:23:11Z</time>
      </trkpt>
      <trkpt lat="47.04543" lon="-1.1098">
        <ele>130.2</ele>
        <time>2011-11-27T07:23:19Z</time>
      </trkpt>
      <trkpt lat="47.04539" lon="-1.10986">
        <ele>129.6</ele>
        <time>2011-11-27T07:23:23Z</time>
      </trkpt>
      <trkpt lat="47.04544" lon="-1.10989">
        <ele>135.5</ele>
        <time>2011-11-27T07:23:48Z</time>
      </trkpt>
      <trkpt lat="47.04548" lon="-1.10993">
        <ele>135.8</ele>
        <time>2011-11-27T07:23:50Z</time>
      </trkpt>
      <trkpt lat="47.04553" lon="-1.10997">
        <ele>136</ele>
        <time>2011-11-27T07:23:53Z</time>
      </trkpt>
      <trkpt lat="47.04556" lon="-1.11003">
        <ele>135.1</ele>
        <time>2011-11-27T07:23:55Z</time>
      </trkpt>
      <trkpt lat="47.04559" lon="-1.10998">
        <ele>139.8</ele>
        <time>2011-11-27T07:24:05Z</time>
      </trkpt>
      <trkpt lat="47.04564" lon="-1.11004">
        <ele>141.7</ele>
        <time>2011-11-27T07:24:09Z</time>
      </trkpt>
      <trkpt lat="47.04568" lon="-1.11011">
        <ele>142.7</ele>
        <time>2011-11-27T07:24:11Z</time>
      </trkpt>
      <trkpt lat="47.04572" lon="-1.11014">
        <ele>140.7</ele>
        <time>2011-11-27T07:24:13Z</time>
      </trkpt>
      <trkpt lat="47.04577" lon="-1.11019">
        <ele>141.6</ele>
        <time>2011-11-27T07:24:20Z</time>
      </trkpt>
      <trkpt lat="47.04581" lon="-1.11025">
        <ele>141.5</ele>
        <time>2011-11-27T07:24:25Z</time>
      </trkpt>
      <trkpt lat="47.04587" lon="-1.11021">
        <ele>143.2</ele>
        <time>2011-11-27T07:24:32Z</time>
      </trkpt>
      <trkpt lat="47.04598" lon="-1.11028">
        <ele>143.5</ele>
        <time>2011-11-27T07:24:34Z</time>
      </trkpt>
      <trkpt lat="47.04602" lon="-1.11037">
        <ele>143.4</ele>
        <time>2011-11-27T07:24:35Z</time>
      </trkpt>
      <trkpt lat="47.04608" lon="-1.11037">
        <ele>143.4</ele>
        <time>2011-11-27T07:24:37Z</time>
      </trkpt>
      <trkpt lat="47.04614" lon="-1.11045">
        <ele>143</ele>
        <time>2011-11-27T07:24:38Z</time>
      </trkpt>
      <trkpt lat="47.04618" lon="-1.11048">
        <ele>143</ele>
        <time>2011-11-27T07:24:39Z</time>
      </trkpt>
      <trkpt lat="47.04625" lon="-1.11053">
        <ele>144.6</ele>
        <time>2011-11-27T07:24:41Z</time>
      </trkpt>
      <trkpt lat="47.0463" lon="-1.11058">
        <ele>144</ele>
        <time>2011-11-27T07:24:42Z</time>
      </trkpt>
      <trkpt lat="47.04633" lon="-1.11061">
        <ele>144</ele>
        <time>2011-11-27T07:24:43Z</time>
      </trkpt>
      <trkpt lat="47.04638" lon="-1.11064">
        <ele>143.8</ele>
        <time>2011-11-27T07:24:44Z</time>
      </trkpt>
      <trkpt lat="47.04643" lon="-1.11066">
        <ele>143.7</ele>
        <time>2011-11-27T07:24:45Z</time>
      </trkpt>
      <trkpt lat="47.04648" lon="-1.11065">
        <ele>144.7</ele>
        <time>2011-11-27T07:24:47Z</time>
      </trkpt>
      <trkpt lat="47.04652" lon="-1.11066">
        <ele>144.6</ele>
        <time>2011-11-27T07:24:48Z</time>
      </trkpt>
      <trkpt lat="47.0466" lon="-1.11066">
        <ele>145</ele>
        <time>2011-11-27T07:24:51Z</time>
      </trkpt>
      <trkpt lat="47.04666" lon="-1.11068">
        <ele>145</ele>
        <time>2011-11-27T07:24:53Z</time>
      </trkpt>
      <trkpt lat="47.04672" lon="-1.11069">
        <ele>144.6</ele>
        <time>2011-11-27T07:24:55Z</time>
      </trkpt>
      <trkpt lat="47.04677" lon="-1.11068">
        <ele>144.4</ele>
        <time>2011-11-27T07:24:57Z</time>
      </trkpt>
      <trkpt lat="47.04683" lon="-1.11065">
        <ele>143.8</ele>
        <time>2011-11-27T07:24:59Z</time>
      </trkpt>
      <trkpt lat="47.04684" lon="-1.11055">
        <ele>141.6</ele>
        <time>2011-11-27T07:25:01Z</time>
      </trkpt>
      <trkpt lat="47.04685" lon="-1.11044">
        <ele>142.4</ele>
        <time>2011-11-27T07:25:03Z</time>
      </trkpt>
      <trkpt lat="47.04686" lon="-1.11032">
        <ele>142.4</ele>
        <time>2011-11-27T07:25:05Z</time>
      </trkpt>
      <trkpt lat="47.04686" lon="-1.11022">
        <ele>142.6</ele>
        <time>2011-11-27T07:25:07Z</time>
      </trkpt>
      <trkpt lat="47.04686" lon="-1.11011">
        <ele>142.7</ele>
        <time>2011-11-27T07:25:09Z</time>
      </trkpt>
      <trkpt lat="47.04687" lon="-1.10999">
        <ele>143.1</ele>
        <time>2011-11-27T07:25:11Z</time>
      </trkpt>
      <trkpt lat="47.04687" lon="-1.10987">
        <ele>142.9</ele>
        <time>2011-11-27T07:25:13Z</time>
      </trkpt>
      <trkpt lat="47.04687" lon="-1.1098">
        <ele>142.8</ele>
        <time>2011-11-27T07:25:14Z</time>
      </trkpt>
      <trkpt lat="47.04689" lon="-1.10964">
        <ele>143.5</ele>
        <time>2011-11-27T07:25:16Z</time>
      </trkpt>
      <trkpt lat="47.0469" lon="-1.10958">
        <ele>143.3</ele>
        <time>2011-11-27T07:25:17Z</time>
      </trkpt>
      <trkpt lat="47.04691" lon="-1.10951">
        <ele>144.1</ele>
        <time>2011-11-27T07:25:18Z</time>
      </trkpt>
      <trkpt lat="47.04693" lon="-1.10938">
        <ele>144.9</ele>
        <time>2011-11-27T07:25:20Z</time>
      </trkpt>
      <trkpt lat="47.04694" lon="-1.10931">
        <ele>144.8</ele>
        <time>2011-11-27T07:25:21Z</time>
      </trkpt>
      <trkpt lat="47.04695" lon="-1.10919">
        <ele>144.7</ele>
        <time>2011-11-27T07:25:23Z</time>
      </trkpt>
      <trkpt lat="47.04694" lon="-1.10909">
        <ele>145.7</ele>
        <time>2011-11-27T07:25:25Z</time>
      </trkpt>
      <trkpt lat="47.04695" lon="-1.10898">
        <ele>145.5</ele>
        <time>2011-11-27T07:25:27Z</time>
      </trkpt>
      <trkpt lat="47.04697" lon="-1.10888">
        <ele>145.6</ele>
        <time>2011-11-27T07:25:29Z</time>
      </trkpt>
      <trkpt lat="47.047" lon="-1.10876">
        <ele>145</ele>
        <time>2011-11-27T07:25:31Z</time>
      </trkpt>
      <trkpt lat="47.04701" lon="-1.10867">
        <ele>145.8</ele>
        <time>2011-11-27T07:25:32Z</time>
      </trkpt>
      <trkpt lat="47.04703" lon="-1.10856">
        <ele>144.8</ele>
        <time>2011-11-27T07:25:34Z</time>
      </trkpt>
      <trkpt lat="47.04704" lon="-1.10845">
        <ele>145.2</ele>
        <time>2011-11-27T07:25:36Z</time>
      </trkpt>
      <trkpt lat="47.04704" lon="-1.10834">
        <ele>145.3</ele>
        <time>2011-11-27T07:25:38Z</time>
      </trkpt>
      <trkpt lat="47.04705" lon="-1.10827">
        <ele>145.2</ele>
        <time>2011-11-27T07:25:39Z</time>
      </trkpt>
      <trkpt lat="47.04705" lon="-1.1082">
        <ele>144.9</ele>
        <time>2011-11-27T07:25:40Z</time>
      </trkpt>
      <trkpt lat="47.04707" lon="-1.10814">
        <ele>144.8</ele>
        <time>2011-11-27T07:25:41Z</time>
      </trkpt>
      <trkpt lat="47.04708" lon="-1.10801">
        <ele>144.7</ele>
        <time>2011-11-27T07:25:43Z</time>
      </trkpt>
      <trkpt lat="47.04707" lon="-1.10792">
        <ele>144.1</ele>
        <time>2011-11-27T07:25:44Z</time>
      </trkpt>
      <trkpt lat="47.04707" lon="-1.10784">
        <ele>143.6</ele>
        <time>2011-11-27T07:25:45Z</time>
      </trkpt>
      <trkpt lat="47.04707" lon="-1.10776">
        <ele>143.3</ele>
        <time>2011-11-27T07:25:46Z</time>
      </trkpt>
      <trkpt lat="47.04707" lon="-1.10769">
        <ele>143.4</ele>
        <time>2011-11-27T07:25:47Z</time>
      </trkpt>
      <trkpt lat="47.04708" lon="-1.1076">
        <ele>143.6</ele>
        <time>2011-11-27T07:25:48Z</time>
      </trkpt>
      <trkpt lat="47.04708" lon="-1.10753">
        <ele>143.4</ele>
        <time>2011-11-27T07:25:49Z</time>
      </trkpt>
      <trkpt lat="47.04708" lon="-1.1074">
        <ele>143.4</ele>
        <time>2011-11-27T07:25:51Z</time>
      </trkpt>
      <trkpt lat="47.04707" lon="-1.10732">
        <ele>143.6</ele>
        <time>2011-11-27T07:25:52Z</time>
      </trkpt>
      <trkpt lat="47.04708" lon="-1.10725">
        <ele>143.9</ele>
        <time>2011-11-27T07:25:53Z</time>
      </trkpt>
      <trkpt lat="47.04709" lon="-1.10712">
        <ele>143.5</ele>
        <time>2011-11-27T07:25:55Z</time>
      </trkpt>
      <trkpt lat="47.0471" lon="-1.10701">
        <ele>143.8</ele>
        <time>2011-11-27T07:25:57Z</time>
      </trkpt>
      <trkpt lat="47.04711" lon="-1.10694">
        <ele>143.4</ele>
        <time>2011-11-27T07:25:58Z</time>
      </trkpt>
      <trkpt lat="47.04714" lon="-1.10684">
        <ele>143.3</ele>
        <time>2011-11-27T07:26:00Z</time>
      </trkpt>
      <trkpt lat="47.04716" lon="-1.10674">
        <ele>143.3</ele>
        <time>2011-11-27T07:26:02Z</time>
      </trkpt>
      <trkpt lat="47.04721" lon="-1.10664">
        <ele>142.6</ele>
        <time>2011-11-27T07:26:04Z</time>
      </trkpt>
      <trkpt lat="47.04724" lon="-1.10656">
        <ele>142.2</ele>
        <time>2011-11-27T07:26:06Z</time>
      </trkpt>
      <trkpt lat="47.04726" lon="-1.10648">
        <ele>142</ele>
        <time>2011-11-27T07:26:08Z</time>
      </trkpt>
      <trkpt lat="47.04727" lon="-1.1064">
        <ele>143</ele>
        <time>2011-11-27T07:26:10Z</time>
      </trkpt>
      <trkpt lat="47.0473" lon="-1.1063">
        <ele>142.5</ele>
        <time>2011-11-27T07:26:12Z</time>
      </trkpt>
      <trkpt lat="47.04733" lon="-1.10621">
        <ele>144.1</ele>
        <time>2011-11-27T07:26:14Z</time>
      </trkpt>
      <trkpt lat="47.04735" lon="-1.10611">
        <ele>143.6</ele>
        <time>2011-11-27T07:26:16Z</time>
      </trkpt>
      <trkpt lat="47.04737" lon="-1.10602">
        <ele>143.7</ele>
        <time>2011-11-27T07:26:18Z</time>
      </trkpt>
      <trkpt lat="47.04739" lon="-1.10595">
        <ele>143.5</ele>
        <time>2011-11-27T07:26:20Z</time>
      </trkpt>
      <trkpt lat="47.04742" lon="-1.10584">
        <ele>143.2</ele>
        <time>2011-11-27T07:26:22Z</time>
      </trkpt>
      <trkpt lat="47.04744" lon="-1.10575">
        <ele>143.7</ele>
        <time>2011-11-27T07:26:24Z</time>
      </trkpt>
      <trkpt lat="47.04747" lon="-1.10565">
        <ele>143.8</ele>
        <time>2011-11-27T07:26:26Z</time>
      </trkpt>
      <trkpt lat="47.04751" lon="-1.10558">
        <ele>143.7</ele>
        <time>2011-11-27T07:26:27Z</time>
      </trkpt>
      <trkpt lat="47.04754" lon="-1.10551">
        <ele>143.3</ele>
        <time>2011-11-27T07:26:28Z</time>
      </trkpt>
      <trkpt lat="47.04758" lon="-1.10542">
        <ele>144.3</ele>
        <time>2011-11-27T07:26:30Z</time>
      </trkpt>
      <trkpt lat="47.04758" lon="-1.10532">
        <ele>144.5</ele>
        <time>2011-11-27T07:26:32Z</time>
      </trkpt>
      <trkpt lat="47.04763" lon="-1.10524">
        <ele>144.1</ele>
        <time>2011-11-27T07:26:34Z</time>
      </trkpt>
      <trkpt lat="47.04764" lon="-1.10516">
        <ele>143.3</ele>
        <time>2011-11-27T07:26:35Z</time>
      </trkpt>
      <trkpt lat="47.04766" lon="-1.1051">
        <ele>143</ele>
        <time>2011-11-27T07:26:36Z</time>
      </trkpt>
      <trkpt lat="47.0477" lon="-1.10502">
        <ele>143</ele>
        <time>2011-11-27T07:26:38Z</time>
      </trkpt>
      <trkpt lat="47.04774" lon="-1.10492">
        <ele>143.5</ele>
        <time>2011-11-27T07:26:40Z</time>
      </trkpt>
      <trkpt lat="47.04775" lon="-1.1048">
        <ele>142.4</ele>
        <time>2011-11-27T07:26:42Z</time>
      </trkpt>
      <trkpt lat="47.04777" lon="-1.10472">
        <ele>142.5</ele>
        <time>2011-11-27T07:26:44Z</time>
      </trkpt>
      <trkpt lat="47.0478" lon="-1.10462">
        <ele>142.8</ele>
        <time>2011-11-27T07:26:46Z</time>
      </trkpt>
      <trkpt lat="47.04782" lon="-1.10453">
        <ele>144.9</ele>
        <time>2011-11-27T07:26:47Z</time>
      </trkpt>
      <trkpt lat="47.04786" lon="-1.10442">
        <ele>144.7</ele>
        <time>2011-11-27T07:26:49Z</time>
      </trkpt>
      <trkpt lat="47.0479" lon="-1.10432">
        <ele>145.5</ele>
        <time>2011-11-27T07:26:51Z</time>
      </trkpt>
      <trkpt lat="47.04796" lon="-1.10423">
        <ele>145</ele>
        <time>2011-11-27T07:26:53Z</time>
      </trkpt>
      <trkpt lat="47.048" lon="-1.10418">
        <ele>144.5</ele>
        <time>2011-11-27T07:26:54Z</time>
      </trkpt>
      <trkpt lat="47.04804" lon="-1.10414">
        <ele>145.4</ele>
        <time>2011-11-27T07:26:55Z</time>
      </trkpt>
      <trkpt lat="47.04808" lon="-1.1041">
        <ele>145.3</ele>
        <time>2011-11-27T07:26:56Z</time>
      </trkpt>
      <trkpt lat="47.04812" lon="-1.10406">
        <ele>145.4</ele>
        <time>2011-11-27T07:26:57Z</time>
      </trkpt>
      <trkpt lat="47.04819" lon="-1.10397">
        <ele>145.5</ele>
        <time>2011-11-27T07:26:59Z</time>
      </trkpt>
      <trkpt lat="47.04824" lon="-1.10393">
        <ele>145.4</ele>
        <time>2011-11-27T07:27:00Z</time>
      </trkpt>
      <trkpt lat="47.04831" lon="-1.10385">
        <ele>145.7</ele>
        <time>2011-11-27T07:27:02Z</time>
      </trkpt>
      <trkpt lat="47.04835" lon="-1.1038">
        <ele>145.7</ele>
        <time>2011-11-27T07:27:03Z</time>
      </trkpt>
      <trkpt lat="47.04842" lon="-1.10373">
        <ele>145.7</ele>
        <time>2011-11-27T07:27:05Z</time>
      </trkpt>
      <trkpt lat="47.04846" lon="-1.10369">
        <ele>145.7</ele>
        <time>2011-11-27T07:27:06Z</time>
      </trkpt>
      <trkpt lat="47.04852" lon="-1.10367">
        <ele>145.8</ele>
        <time>2011-11-27T07:27:07Z</time>
      </trkpt>
      <trkpt lat="47.04858" lon="-1.10359">
        <ele>145.9</ele>
        <time>2011-11-27T07:27:09Z</time>
      </trkpt>
      <trkpt lat="47.04865" lon="-1.10353">
        <ele>145.9</ele>
        <time>2011-11-27T07:27:11Z</time>
      </trkpt>
      <trkpt lat="47.04874" lon="-1.1035">
        <ele>145.3</ele>
        <time>2011-11-27T07:27:13Z</time>
      </trkpt>
      <trkpt lat="47.04879" lon="-1.1035">
        <ele>145</ele>
        <time>2011-11-27T07:27:14Z</time>
      </trkpt>
      <trkpt lat="47.04884" lon="-1.10348">
        <ele>144.7</ele>
        <time>2011-11-27T07:27:15Z</time>
      </trkpt>
      <trkpt lat="47.0489" lon="-1.1035">
        <ele>144.3</ele>
        <time>2011-11-27T07:27:16Z</time>
      </trkpt>
      <trkpt lat="47.04897" lon="-1.10346">
        <ele>144.5</ele>
        <time>2011-11-27T07:27:18Z</time>
      </trkpt>
      <trkpt lat="47.04907" lon="-1.10345">
        <ele>144.5</ele>
        <time>2011-11-27T07:27:20Z</time>
      </trkpt>
      <trkpt lat="47.04915" lon="-1.10344">
        <ele>144.6</ele>
        <time>2011-11-27T07:27:22Z</time>
      </trkpt>
      <trkpt lat="47.0492" lon="-1.10343">
        <ele>144.5</ele>
        <time>2011-11-27T07:27:23Z</time>
      </trkpt>
      <trkpt lat="47.04926" lon="-1.10344">
        <ele>144.6</ele>
        <time>2011-11-27T07:27:24Z</time>
      </trkpt>
      <trkpt lat="47.04931" lon="-1.10346">
        <ele>144.7</ele>
        <time>2011-11-27T07:27:25Z</time>
      </trkpt>
      <trkpt lat="47.04939" lon="-1.10345">
        <ele>143.8</ele>
        <time>2011-11-27T07:27:27Z</time>
      </trkpt>
      <trkpt lat="47.04943" lon="-1.10342">
        <ele>144</ele>
        <time>2011-11-27T07:27:28Z</time>
      </trkpt>
      <trkpt lat="47.04948" lon="-1.10342">
        <ele>145</ele>
        <time>2011-11-27T07:27:29Z</time>
      </trkpt>
      <trkpt lat="47.04952" lon="-1.10335">
        <ele>144.1</ele>
        <time>2011-11-27T07:27:31Z</time>
      </trkpt>
      <trkpt lat="47.04962" lon="-1.10332">
        <ele>146.2</ele>
        <time>2011-11-27T07:27:33Z</time>
      </trkpt>
      <trkpt lat="47.0497" lon="-1.10328">
        <ele>145.4</ele>
        <time>2011-11-27T07:27:35Z</time>
      </trkpt>
      <trkpt lat="47.04976" lon="-1.10328">
        <ele>146.1</ele>
        <time>2011-11-27T07:27:36Z</time>
      </trkpt>
      <trkpt lat="47.04986" lon="-1.10329">
        <ele>145.2</ele>
        <time>2011-11-27T07:27:38Z</time>
      </trkpt>
      <trkpt lat="47.04992" lon="-1.10322">
        <ele>144.8</ele>
        <time>2011-11-27T07:27:40Z</time>
      </trkpt>
      <trkpt lat="47.04997" lon="-1.10323">
        <ele>145.4</ele>
        <time>2011-11-27T07:27:41Z</time>
      </trkpt>
      <trkpt lat="47.05003" lon="-1.10323">
        <ele>146.6</ele>
        <time>2011-11-27T07:27:42Z</time>
      </trkpt>
      <trkpt lat="47.05008" lon="-1.10325">
        <ele>147.3</ele>
        <time>2011-11-27T07:27:43Z</time>
      </trkpt>
      <trkpt lat="47.05019" lon="-1.10329">
        <ele>148.2</ele>
        <time>2011-11-27T07:27:45Z</time>
      </trkpt>
      <trkpt lat="47.05023" lon="-1.1033">
        <ele>148.2</ele>
        <time>2011-11-27T07:27:46Z</time>
      </trkpt>
      <trkpt lat="47.05028" lon="-1.1033">
        <ele>148.3</ele>
        <time>2011-11-27T07:27:47Z</time>
      </trkpt>
      <trkpt lat="47.05033" lon="-1.1033">
        <ele>148.4</ele>
        <time>2011-11-27T07:27:48Z</time>
      </trkpt>
      <trkpt lat="47.05039" lon="-1.10331">
        <ele>148.8</ele>
        <time>2011-11-27T07:27:49Z</time>
      </trkpt>
      <trkpt lat="47.05049" lon="-1.1033">
        <ele>149.1</ele>
        <time>2011-11-27T07:27:50Z</time>
      </trkpt>
      <trkpt lat="47.05055" lon="-1.10322">
        <ele>150.1</ele>
        <time>2011-11-27T07:27:52Z</time>
      </trkpt>
      <trkpt lat="47.05061" lon="-1.10321">
        <ele>150</ele>
        <time>2011-11-27T07:27:54Z</time>
      </trkpt>
      <trkpt lat="47.05066" lon="-1.1032">
        <ele>149.6</ele>
        <time>2011-11-27T07:27:55Z</time>
      </trkpt>
      <trkpt lat="47.05071" lon="-1.10319">
        <ele>149.5</ele>
        <time>2011-11-27T07:27:56Z</time>
      </trkpt>
      <trkpt lat="47.05076" lon="-1.10318">
        <ele>149.4</ele>
        <time>2011-11-27T07:27:57Z</time>
      </trkpt>
      <trkpt lat="47.05081" lon="-1.10317">
        <ele>149.4</ele>
        <time>2011-11-27T07:27:58Z</time>
      </trkpt>
      <trkpt lat="47.05085" lon="-1.10317">
        <ele>149.3</ele>
        <time>2011-11-27T07:27:59Z</time>
      </trkpt>
      <trkpt lat="47.05095" lon="-1.1032">
        <ele>149.4</ele>
        <time>2011-11-27T07:28:01Z</time>
      </trkpt>
      <trkpt lat="47.05102" lon="-1.10308">
        <ele>148.3</ele>
        <time>2011-11-27T07:28:04Z</time>
      </trkpt>
      <trkpt lat="47.05107" lon="-1.10308">
        <ele>148</ele>
        <time>2011-11-27T07:28:05Z</time>
      </trkpt>
      <trkpt lat="47.05113" lon="-1.10309">
        <ele>147.4</ele>
        <time>2011-11-27T07:28:06Z</time>
      </trkpt>
      <trkpt lat="47.05117" lon="-1.10308">
        <ele>147.3</ele>
        <time>2011-11-27T07:28:07Z</time>
      </trkpt>
      <trkpt lat="47.05126" lon="-1.10306">
        <ele>147.2</ele>
        <time>2011-11-27T07:28:09Z</time>
      </trkpt>
      <trkpt lat="47.05132" lon="-1.10306">
        <ele>147</ele>
        <time>2011-11-27T07:28:10Z</time>
      </trkpt>
      <trkpt lat="47.05142" lon="-1.10303">
        <ele>146.7</ele>
        <time>2011-11-27T07:28:12Z</time>
      </trkpt>
      <trkpt lat="47.05147" lon="-1.10302">
        <ele>146.8</ele>
        <time>2011-11-27T07:28:13Z</time>
      </trkpt>
      <trkpt lat="47.05155" lon="-1.1029">
        <ele>146.7</ele>
        <time>2011-11-27T07:28:15Z</time>
      </trkpt>
      <trkpt lat="47.05166" lon="-1.10293">
        <ele>146.6</ele>
        <time>2011-11-27T07:28:17Z</time>
      </trkpt>
      <trkpt lat="47.05174" lon="-1.10294">
        <ele>146.7</ele>
        <time>2011-11-27T07:28:19Z</time>
      </trkpt>
      <trkpt lat="47.0518" lon="-1.10293">
        <ele>148</ele>
        <time>2011-11-27T07:28:22Z</time>
      </trkpt>
      <trkpt lat="47.05174" lon="-1.10291">
        <ele>153.9</ele>
        <time>2011-11-27T07:28:28Z</time>
      </trkpt>
      <trkpt lat="47.05168" lon="-1.10272">
        <ele>153.7</ele>
        <time>2011-11-27T07:28:30Z</time>
      </trkpt>
      <trkpt lat="47.05165" lon="-1.10266">
        <ele>153.6</ele>
        <time>2011-11-27T07:28:31Z</time>
      </trkpt>
      <trkpt lat="47.05161" lon="-1.10258">
        <ele>152.8</ele>
        <time>2011-11-27T07:28:32Z</time>
      </trkpt>
      <trkpt lat="47.05157" lon="-1.1025">
        <ele>152.3</ele>
        <time>2011-11-27T07:28:33Z</time>
      </trkpt>
      <trkpt lat="47.05154" lon="-1.10242">
        <ele>151.8</ele>
        <time>2011-11-27T07:28:34Z</time>
      </trkpt>
      <trkpt lat="47.05149" lon="-1.10236">
        <ele>152</ele>
        <time>2011-11-27T07:28:35Z</time>
      </trkpt>
      <trkpt lat="47.05147" lon="-1.1023">
        <ele>151.5</ele>
        <time>2011-11-27T07:28:36Z</time>
      </trkpt>
      <trkpt lat="47.05143" lon="-1.10216">
        <ele>149.9</ele>
        <time>2011-11-27T07:28:38Z</time>
      </trkpt>
      <trkpt lat="47.0514" lon="-1.1021">
        <ele>149.7</ele>
        <time>2011-11-27T07:28:40Z</time>
      </trkpt>
      <trkpt lat="47.05139" lon="-1.10198">
        <ele>148.9</ele>
        <time>2011-11-27T07:28:42Z</time>
      </trkpt>
      <trkpt lat="47.05134" lon="-1.1019">
        <ele>148.3</ele>
        <time>2011-11-27T07:28:46Z</time>
      </trkpt>
      <trkpt lat="47.05129" lon="-1.10184">
        <ele>145.9</ele>
        <time>2011-11-27T07:28:47Z</time>
      </trkpt>
      <trkpt lat="47.05123" lon="-1.10176">
        <ele>145.9</ele>
        <time>2011-11-27T07:28:48Z</time>
      </trkpt>
      <trkpt lat="47.05117" lon="-1.10173">
        <ele>145.4</ele>
        <time>2011-11-27T07:28:49Z</time>
      </trkpt>
      <trkpt lat="47.05112" lon="-1.10168">
        <ele>145.3</ele>
        <time>2011-11-27T07:28:53Z</time>
      </trkpt>
      <trkpt lat="47.05105" lon="-1.10156">
        <ele>145.1</ele>
        <time>2011-11-27T07:28:55Z</time>
      </trkpt>
      <trkpt lat="47.05099" lon="-1.1015">
        <ele>145.3</ele>
        <time>2011-11-27T07:28:58Z</time>
      </trkpt>
      <trkpt lat="47.05091" lon="-1.10145">
        <ele>146.2</ele>
        <time>2011-11-27T07:29:00Z</time>
      </trkpt>
      <trkpt lat="47.05086" lon="-1.10127">
        <ele>149.4</ele>
        <time>2011-11-27T07:29:02Z</time>
      </trkpt>
      <trkpt lat="47.05082" lon="-1.10118">
        <ele>149</ele>
        <time>2011-11-27T07:29:04Z</time>
      </trkpt>
      <trkpt lat="47.05078" lon="-1.10108">
        <ele>149.1</ele>
        <time>2011-11-27T07:29:06Z</time>
      </trkpt>
      <trkpt lat="47.05074" lon="-1.10097">
        <ele>148.6</ele>
        <time>2011-11-27T07:29:08Z</time>
      </trkpt>
      <trkpt lat="47.05068" lon="-1.10088">
        <ele>149</ele>
        <time>2011-11-27T07:29:10Z</time>
      </trkpt>
      <trkpt lat="47.05066" lon="-1.10078">
        <ele>149.5</ele>
        <time>2011-11-27T07:29:12Z</time>
      </trkpt>
      <trkpt lat="47.05062" lon="-1.1007">
        <ele>150.2</ele>
        <time>2011-11-27T07:29:14Z</time>
      </trkpt>
      <trkpt lat="47.05059" lon="-1.10063">
        <ele>150</ele>
        <time>2011-11-27T07:29:16Z</time>
      </trkpt>
      <trkpt lat="47.05056" lon="-1.10056">
        <ele>150</ele>
        <time>2011-11-27T07:29:18Z</time>
      </trkpt>
      <trkpt lat="47.05053" lon="-1.10049">
        <ele>149.8</ele>
        <time>2011-11-27T07:29:20Z</time>
      </trkpt>
      <trkpt lat="47.05048" lon="-1.1004">
        <ele>150</ele>
        <time>2011-11-27T07:29:22Z</time>
      </trkpt>
      <trkpt lat="47.05046" lon="-1.10033">
        <ele>150.2</ele>
        <time>2011-11-27T07:29:24Z</time>
      </trkpt>
      <trkpt lat="47.05043" lon="-1.10026">
        <ele>150.5</ele>
        <time>2011-11-27T07:29:26Z</time>
      </trkpt>
      <trkpt lat="47.05039" lon="-1.10021">
        <ele>150.4</ele>
        <time>2011-11-27T07:29:28Z</time>
      </trkpt>
      <trkpt lat="47.05036" lon="-1.10015">
        <ele>150.9</ele>
        <time>2011-11-27T07:29:30Z</time>
      </trkpt>
      <trkpt lat="47.05034" lon="-1.10007">
        <ele>151.1</ele>
        <time>2011-11-27T07:29:32Z</time>
      </trkpt>
      <trkpt lat="47.05032" lon="-1.09999">
        <ele>151.2</ele>
        <time>2011-11-27T07:29:34Z</time>
      </trkpt>
      <trkpt lat="47.05029" lon="-1.09991">
        <ele>151.2</ele>
        <time>2011-11-27T07:29:36Z</time>
      </trkpt>
      <trkpt lat="47.05023" lon="-1.09986">
        <ele>151.7</ele>
        <time>2011-11-27T07:29:38Z</time>
      </trkpt>
      <trkpt lat="47.05018" lon="-1.0998">
        <ele>151.6</ele>
        <time>2011-11-27T07:29:40Z</time>
      </trkpt>
      <trkpt lat="47.05013" lon="-1.09974">
        <ele>151.9</ele>
        <time>2011-11-27T07:29:42Z</time>
      </trkpt>
      <trkpt lat="47.05008" lon="-1.09968">
        <ele>152.2</ele>
        <time>2011-11-27T07:29:44Z</time>
      </trkpt>
      <trkpt lat="47.05005" lon="-1.09963">
        <ele>154</ele>
        <time>2011-11-27T07:29:46Z</time>
      </trkpt>
      <trkpt lat="47.05001" lon="-1.09957">
        <ele>154.3</ele>
        <time>2011-11-27T07:29:48Z</time>
      </trkpt>
      <trkpt lat="47.04997" lon="-1.09951">
        <ele>155.4</ele>
        <time>2011-11-27T07:29:50Z</time>
      </trkpt>
      <trkpt lat="47.04993" lon="-1.09943">
        <ele>155.8</ele>
        <time>2011-11-27T07:29:52Z</time>
      </trkpt>
      <trkpt lat="47.04989" lon="-1.09935">
        <ele>155.9</ele>
        <time>2011-11-27T07:29:54Z</time>
      </trkpt>
      <trkpt lat="47.04985" lon="-1.09928">
        <ele>156</ele>
        <time>2011-11-27T07:29:56Z</time>
      </trkpt>
      <trkpt lat="47.0498" lon="-1.09923">
        <ele>156.1</ele>
        <time>2011-11-27T07:29:58Z</time>
      </trkpt>
      <trkpt lat="47.04976" lon="-1.09912">
        <ele>156.2</ele>
        <time>2011-11-27T07:30:00Z</time>
      </trkpt>
      <trkpt lat="47.04973" lon="-1.09903">
        <ele>156.1</ele>
        <time>2011-11-27T07:30:02Z</time>
      </trkpt>
      <trkpt lat="47.0497" lon="-1.09894">
        <ele>155.8</ele>
        <time>2011-11-27T07:30:04Z</time>
      </trkpt>
      <trkpt lat="47.04967" lon="-1.09883">
        <ele>156.1</ele>
        <time>2011-11-27T07:30:06Z</time>
      </trkpt>
      <trkpt lat="47.04961" lon="-1.09872">
        <ele>157.7</ele>
        <time>2011-11-27T07:30:09Z</time>
      </trkpt>
      <trkpt lat="47.04953" lon="-1.09862">
        <ele>159</ele>
        <time>2011-11-27T07:30:13Z</time>
      </trkpt>
      <trkpt lat="47.04951" lon="-1.09854">
        <ele>160.2</ele>
        <time>2011-11-27T07:30:14Z</time>
      </trkpt>
      <trkpt lat="47.04948" lon="-1.09847">
        <ele>160.1</ele>
        <time>2011-11-27T07:30:16Z</time>
      </trkpt>
      <trkpt lat="47.04944" lon="-1.09834">
        <ele>159.8</ele>
        <time>2011-11-27T07:30:18Z</time>
      </trkpt>
      <trkpt lat="47.04937" lon="-1.09826">
        <ele>158.8</ele>
        <time>2011-11-27T07:30:20Z</time>
      </trkpt>
      <trkpt lat="47.04937" lon="-1.09819">
        <ele>159</ele>
        <time>2011-11-27T07:30:21Z</time>
      </trkpt>
      <trkpt lat="47.04934" lon="-1.09814">
        <ele>158.8</ele>
        <time>2011-11-27T07:30:22Z</time>
      </trkpt>
      <trkpt lat="47.04931" lon="-1.09808">
        <ele>160.1</ele>
        <time>2011-11-27T07:30:23Z</time>
      </trkpt>
      <trkpt lat="47.04925" lon="-1.09805">
        <ele>160.1</ele>
        <time>2011-11-27T07:30:28Z</time>
      </trkpt>
      <trkpt lat="47.04919" lon="-1.09802">
        <ele>157.3</ele>
        <time>2011-11-27T07:30:30Z</time>
      </trkpt>
      <trkpt lat="47.04913" lon="-1.09809">
        <ele>156.1</ele>
        <time>2011-11-27T07:30:32Z</time>
      </trkpt>
      <trkpt lat="47.04906" lon="-1.09816">
        <ele>156.9</ele>
        <time>2011-11-27T07:30:34Z</time>
      </trkpt>
      <trkpt lat="47.049" lon="-1.09824">
        <ele>157.3</ele>
        <time>2011-11-27T07:30:36Z</time>
      </trkpt>
      <trkpt lat="47.04894" lon="-1.0983">
        <ele>157.8</ele>
        <time>2011-11-27T07:30:37Z</time>
      </trkpt>
      <trkpt lat="47.04888" lon="-1.09836">
        <ele>156</ele>
        <time>2011-11-27T07:30:39Z</time>
      </trkpt>
      <trkpt lat="47.04881" lon="-1.09841">
        <ele>155.2</ele>
        <time>2011-11-27T07:30:41Z</time>
      </trkpt>
      <trkpt lat="47.04878" lon="-1.09846">
        <ele>154.9</ele>
        <time>2011-11-27T07:30:42Z</time>
      </trkpt>
      <trkpt lat="47.04872" lon="-1.0985">
        <ele>154.7</ele>
        <time>2011-11-27T07:30:43Z</time>
      </trkpt>
      <trkpt lat="47.04866" lon="-1.09857">
        <ele>154.5</ele>
        <time>2011-11-27T07:30:45Z</time>
      </trkpt>
      <trkpt lat="47.0486" lon="-1.09863">
        <ele>154.3</ele>
        <time>2011-11-27T07:30:47Z</time>
      </trkpt>
      <trkpt lat="47.04852" lon="-1.09871">
        <ele>154.1</ele>
        <time>2011-11-27T07:30:50Z</time>
      </trkpt>
      <trkpt lat="47.04845" lon="-1.09874">
        <ele>153.5</ele>
        <time>2011-11-27T07:30:52Z</time>
      </trkpt>
      <trkpt lat="47.0484" lon="-1.09875">
        <ele>152.8</ele>
        <time>2011-11-27T07:30:53Z</time>
      </trkpt>
      <trkpt lat="47.04835" lon="-1.09876">
        <ele>152.5</ele>
        <time>2011-11-27T07:30:54Z</time>
      </trkpt>
      <trkpt lat="47.0483" lon="-1.09877">
        <ele>152.7</ele>
        <time>2011-11-27T07:30:55Z</time>
      </trkpt>
      <trkpt lat="47.04826" lon="-1.09878">
        <ele>152.5</ele>
        <time>2011-11-27T07:30:56Z</time>
      </trkpt>
      <trkpt lat="47.04818" lon="-1.09882">
        <ele>152.6</ele>
        <time>2011-11-27T07:30:58Z</time>
      </trkpt>
      <trkpt lat="47.04813" lon="-1.09885">
        <ele>153.7</ele>
        <time>2011-11-27T07:31:00Z</time>
      </trkpt>
      <trkpt lat="47.04803" lon="-1.09889">
        <ele>153.8</ele>
        <time>2011-11-27T07:31:01Z</time>
      </trkpt>
      <trkpt lat="47.04798" lon="-1.09891">
        <ele>154.3</ele>
        <time>2011-11-27T07:31:02Z</time>
      </trkpt>
      <trkpt lat="47.04792" lon="-1.09893">
        <ele>154.1</ele>
        <time>2011-11-27T07:31:03Z</time>
      </trkpt>
      <trkpt lat="47.04785" lon="-1.09897">
        <ele>154.5</ele>
        <time>2011-11-27T07:31:04Z</time>
      </trkpt>
      <trkpt lat="47.04778" lon="-1.099">
        <ele>154.7</ele>
        <time>2011-11-27T07:31:06Z</time>
      </trkpt>
      <trkpt lat="47.04761" lon="-1.09912">
        <ele>155</ele>
        <time>2011-11-27T07:31:09Z</time>
      </trkpt>
      <trkpt lat="47.04754" lon="-1.09918">
        <ele>154.9</ele>
        <time>2011-11-27T07:31:10Z</time>
      </trkpt>
      <trkpt lat="47.04746" lon="-1.09928">
        <ele>155</ele>
        <time>2011-11-27T07:31:12Z</time>
      </trkpt>
      <trkpt lat="47.0474" lon="-1.09931">
        <ele>155.7</ele>
        <time>2011-11-27T07:31:13Z</time>
      </trkpt>
      <trkpt lat="47.0473" lon="-1.09935">
        <ele>155.8</ele>
        <time>2011-11-27T07:31:14Z</time>
      </trkpt>
      <trkpt lat="47.04723" lon="-1.09939">
        <ele>155.8</ele>
        <time>2011-11-27T07:31:15Z</time>
      </trkpt>
      <trkpt lat="47.04718" lon="-1.09943">
        <ele>155.9</ele>
        <time>2011-11-27T07:31:16Z</time>
      </trkpt>
      <trkpt lat="47.04712" lon="-1.09951">
        <ele>155.8</ele>
        <time>2011-11-27T07:31:20Z</time>
      </trkpt>
      <trkpt lat="47.04707" lon="-1.09956">
        <ele>155.7</ele>
        <time>2011-11-27T07:31:21Z</time>
      </trkpt>
      <trkpt lat="47.04702" lon="-1.0996">
        <ele>155.7</ele>
        <time>2011-11-27T07:31:22Z</time>
      </trkpt>
      <trkpt lat="47.04696" lon="-1.09964">
        <ele>155.6</ele>
        <time>2011-11-27T07:31:23Z</time>
      </trkpt>
      <trkpt lat="47.04691" lon="-1.09968">
        <ele>155.8</ele>
        <time>2011-11-27T07:31:24Z</time>
      </trkpt>
      <trkpt lat="47.04684" lon="-1.09974">
        <ele>155.2</ele>
        <time>2011-11-27T07:31:25Z</time>
      </trkpt>
      <trkpt lat="47.04671" lon="-1.09979">
        <ele>154.3</ele>
        <time>2011-11-27T07:31:26Z</time>
      </trkpt>
      <trkpt lat="47.04665" lon="-1.09981">
        <ele>154.7</ele>
        <time>2011-11-27T07:31:27Z</time>
      </trkpt>
      <trkpt lat="47.04648" lon="-1.09986">
        <ele>153</ele>
        <time>2011-11-27T07:31:29Z</time>
      </trkpt>
      <trkpt lat="47.04643" lon="-1.09988">
        <ele>153</ele>
        <time>2011-11-27T07:31:31Z</time>
      </trkpt>
      <trkpt lat="47.04638" lon="-1.09985">
        <ele>153.1</ele>
        <time>2011-11-27T07:31:32Z</time>
      </trkpt>
      <trkpt lat="47.04637" lon="-1.09974">
        <ele>151.3</ele>
        <time>2011-11-27T07:31:34Z</time>
      </trkpt>
      <trkpt lat="47.0464" lon="-1.09956">
        <ele>151.7</ele>
        <time>2011-11-27T07:31:36Z</time>
      </trkpt>
      <trkpt lat="47.04644" lon="-1.09946">
        <ele>151.7</ele>
        <time>2011-11-27T07:31:38Z</time>
      </trkpt>
      <trkpt lat="47.04646" lon="-1.09933">
        <ele>152.3</ele>
        <time>2011-11-27T07:31:40Z</time>
      </trkpt>
      <trkpt lat="47.04648" lon="-1.09925">
        <ele>152.4</ele>
        <time>2011-11-27T07:31:41Z</time>
      </trkpt>
      <trkpt lat="47.04652" lon="-1.0992">
        <ele>153.1</ele>
        <time>2011-11-27T07:31:42Z</time>
      </trkpt>
      <trkpt lat="47.04654" lon="-1.09911">
        <ele>154.1</ele>
        <time>2011-11-27T07:31:44Z</time>
      </trkpt>
      <trkpt lat="47.04656" lon="-1.09903">
        <ele>154.2</ele>
        <time>2011-11-27T07:31:45Z</time>
      </trkpt>
      <trkpt lat="47.04657" lon="-1.09895">
        <ele>154.3</ele>
        <time>2011-11-27T07:31:46Z</time>
      </trkpt>
      <trkpt lat="47.0466" lon="-1.09887">
        <ele>155.6</ele>
        <time>2011-11-27T07:31:48Z</time>
      </trkpt>
      <trkpt lat="47.04663" lon="-1.09879">
        <ele>154.9</ele>
        <time>2011-11-27T07:31:49Z</time>
      </trkpt>
      <trkpt lat="47.04665" lon="-1.09873">
        <ele>154.8</ele>
        <time>2011-11-27T07:31:50Z</time>
      </trkpt>
      <trkpt lat="47.04665" lon="-1.09862">
        <ele>153.7</ele>
        <time>2011-11-27T07:31:53Z</time>
      </trkpt>
      <trkpt lat="47.04668" lon="-1.09856">
        <ele>153.8</ele>
        <time>2011-11-27T07:31:54Z</time>
      </trkpt>
      <trkpt lat="47.04669" lon="-1.09846">
        <ele>156.5</ele>
        <time>2011-11-27T07:31:56Z</time>
      </trkpt>
      <trkpt lat="47.0467" lon="-1.09835">
        <ele>157.3</ele>
        <time>2011-11-27T07:31:58Z</time>
      </trkpt>
      <trkpt lat="47.0467" lon="-1.09828">
        <ele>158.2</ele>
        <time>2011-11-27T07:31:59Z</time>
      </trkpt>
      <trkpt lat="47.04669" lon="-1.0982">
        <ele>157.8</ele>
        <time>2011-11-27T07:32:01Z</time>
      </trkpt>
      <trkpt lat="47.04671" lon="-1.0981">
        <ele>158.4</ele>
        <time>2011-11-27T07:32:02Z</time>
      </trkpt>
      <trkpt lat="47.04672" lon="-1.09799">
        <ele>161.2</ele>
        <time>2011-11-27T07:32:04Z</time>
      </trkpt>
      <trkpt lat="47.04674" lon="-1.09783">
        <ele>159.4</ele>
        <time>2011-11-27T07:32:06Z</time>
      </trkpt>
      <trkpt lat="47.04672" lon="-1.09776">
        <ele>159</ele>
        <time>2011-11-27T07:32:07Z</time>
      </trkpt>
      <trkpt lat="47.0467" lon="-1.09766">
        <ele>161.7</ele>
        <time>2011-11-27T07:32:09Z</time>
      </trkpt>
      <trkpt lat="47.0467" lon="-1.09759">
        <ele>160.6</ele>
        <time>2011-11-27T07:32:10Z</time>
      </trkpt>
      <trkpt lat="47.0467" lon="-1.09752">
        <ele>161.3</ele>
        <time>2011-11-27T07:32:11Z</time>
      </trkpt>
      <trkpt lat="47.04671" lon="-1.09744">
        <ele>159.5</ele>
        <time>2011-11-27T07:32:12Z</time>
      </trkpt>
      <trkpt lat="47.04668" lon="-1.09734">
        <ele>159.7</ele>
        <time>2011-11-27T07:32:14Z</time>
      </trkpt>
      <trkpt lat="47.04666" lon="-1.09727">
        <ele>159.7</ele>
        <time>2011-11-27T07:32:15Z</time>
      </trkpt>
      <trkpt lat="47.04667" lon="-1.09717">
        <ele>159.9</ele>
        <time>2011-11-27T07:32:17Z</time>
      </trkpt>
      <trkpt lat="47.0467" lon="-1.097">
        <ele>160</ele>
        <time>2011-11-27T07:32:19Z</time>
      </trkpt>
      <trkpt lat="47.04668" lon="-1.09694">
        <ele>159.6</ele>
        <time>2011-11-27T07:32:20Z</time>
      </trkpt>
      <trkpt lat="47.04668" lon="-1.09686">
        <ele>159.4</ele>
        <time>2011-11-27T07:32:22Z</time>
      </trkpt>
      <trkpt lat="47.04667" lon="-1.09672">
        <ele>154.8</ele>
        <time>2011-11-27T07:32:25Z</time>
      </trkpt>
      <trkpt lat="47.04667" lon="-1.09657">
        <ele>155.4</ele>
        <time>2011-11-27T07:32:27Z</time>
      </trkpt>
      <trkpt lat="47.04667" lon="-1.09644">
        <ele>154.8</ele>
        <time>2011-11-27T07:32:29Z</time>
      </trkpt>
      <trkpt lat="47.04667" lon="-1.09637">
        <ele>154.7</ele>
        <time>2011-11-27T07:32:30Z</time>
      </trkpt>
      <trkpt lat="47.04665" lon="-1.09624">
        <ele>155.5</ele>
        <time>2011-11-27T07:32:32Z</time>
      </trkpt>
      <trkpt lat="47.04666" lon="-1.09613">
        <ele>158.4</ele>
        <time>2011-11-27T07:32:34Z</time>
      </trkpt>
      <trkpt lat="47.04667" lon="-1.09606">
        <ele>159</ele>
        <time>2011-11-27T07:32:35Z</time>
      </trkpt>
      <trkpt lat="47.04666" lon="-1.09598">
        <ele>159.8</ele>
        <time>2011-11-27T07:32:37Z</time>
      </trkpt>
      <trkpt lat="47.04668" lon="-1.09589">
        <ele>157.8</ele>
        <time>2011-11-27T07:32:39Z</time>
      </trkpt>
      <trkpt lat="47.04667" lon="-1.09577">
        <ele>156.7</ele>
        <time>2011-11-27T07:32:41Z</time>
      </trkpt>
      <trkpt lat="47.04668" lon="-1.09569">
        <ele>156.4</ele>
        <time>2011-11-27T07:32:42Z</time>
      </trkpt>
      <trkpt lat="47.04667" lon="-1.09561">
        <ele>157</ele>
        <time>2011-11-27T07:32:44Z</time>
      </trkpt>
      <trkpt lat="47.04666" lon="-1.09547">
        <ele>157.5</ele>
        <time>2011-11-27T07:32:47Z</time>
      </trkpt>
      <trkpt lat="47.04665" lon="-1.0953">
        <ele>159.3</ele>
        <time>2011-11-27T07:32:49Z</time>
      </trkpt>
      <trkpt lat="47.04666" lon="-1.09522">
        <ele>158.3</ele>
        <time>2011-11-27T07:32:50Z</time>
      </trkpt>
      <trkpt lat="47.04666" lon="-1.09514">
        <ele>158.9</ele>
        <time>2011-11-27T07:32:52Z</time>
      </trkpt>
      <trkpt lat="47.04663" lon="-1.09494">
        <ele>158.4</ele>
        <time>2011-11-27T07:32:54Z</time>
      </trkpt>
      <trkpt lat="47.04662" lon="-1.09488">
        <ele>159.1</ele>
        <time>2011-11-27T07:32:56Z</time>
      </trkpt>
      <trkpt lat="47.04659" lon="-1.09478">
        <ele>158.1</ele>
        <time>2011-11-27T07:32:58Z</time>
      </trkpt>
      <trkpt lat="47.04656" lon="-1.0947">
        <ele>158.2</ele>
        <time>2011-11-27T07:33:00Z</time>
      </trkpt>
      <trkpt lat="47.04654" lon="-1.09457">
        <ele>158.6</ele>
        <time>2011-11-27T07:33:03Z</time>
      </trkpt>
      <trkpt lat="47.04653" lon="-1.0945">
        <ele>158.5</ele>
        <time>2011-11-27T07:33:04Z</time>
      </trkpt>
      <trkpt lat="47.04651" lon="-1.09437">
        <ele>161.7</ele>
        <time>2011-11-27T07:33:05Z</time>
      </trkpt>
      <trkpt lat="47.04653" lon="-1.09426">
        <ele>161.4</ele>
        <time>2011-11-27T07:33:06Z</time>
      </trkpt>
      <trkpt lat="47.04655" lon="-1.0941">
        <ele>162.7</ele>
        <time>2011-11-27T07:33:08Z</time>
      </trkpt>
      <trkpt lat="47.04657" lon="-1.09397">
        <ele>163.1</ele>
        <time>2011-11-27T07:33:10Z</time>
      </trkpt>
      <trkpt lat="47.04655" lon="-1.09389">
        <ele>163.7</ele>
        <time>2011-11-27T07:33:12Z</time>
      </trkpt>
      <trkpt lat="47.04654" lon="-1.09382">
        <ele>163</ele>
        <time>2011-11-27T07:33:14Z</time>
      </trkpt>
      <trkpt lat="47.04651" lon="-1.09372">
        <ele>163.3</ele>
        <time>2011-11-27T07:33:16Z</time>
      </trkpt>
      <trkpt lat="47.04651" lon="-1.0936">
        <ele>164.6</ele>
        <time>2011-11-27T07:33:18Z</time>
      </trkpt>
      <trkpt lat="47.04653" lon="-1.0935">
        <ele>165.4</ele>
        <time>2011-11-27T07:33:20Z</time>
      </trkpt>
      <trkpt lat="47.04652" lon="-1.09339">
        <ele>165.1</ele>
        <time>2011-11-27T07:33:22Z</time>
      </trkpt>
      <trkpt lat="47.04648" lon="-1.0933">
        <ele>167.6</ele>
        <time>2011-11-27T07:33:24Z</time>
      </trkpt>
      <trkpt lat="47.04642" lon="-1.09323">
        <ele>167.9</ele>
        <time>2011-11-27T07:33:26Z</time>
      </trkpt>
      <trkpt lat="47.04639" lon="-1.09315">
        <ele>168</ele>
        <time>2011-11-27T07:33:28Z</time>
      </trkpt>
      <trkpt lat="47.04636" lon="-1.09309">
        <ele>167.1</ele>
        <time>2011-11-27T07:33:29Z</time>
      </trkpt>
      <trkpt lat="47.0463" lon="-1.09296">
        <ele>167</ele>
        <time>2011-11-27T07:33:31Z</time>
      </trkpt>
      <trkpt lat="47.04626" lon="-1.09291">
        <ele>167</ele>
        <time>2011-11-27T07:33:32Z</time>
      </trkpt>
      <trkpt lat="47.04621" lon="-1.09282">
        <ele>166.6</ele>
        <time>2011-11-27T07:33:33Z</time>
      </trkpt>
      <trkpt lat="47.04618" lon="-1.09277">
        <ele>166.8</ele>
        <time>2011-11-27T07:33:34Z</time>
      </trkpt>
      <trkpt lat="47.04614" lon="-1.0927">
        <ele>166.5</ele>
        <time>2011-11-27T07:33:36Z</time>
      </trkpt>
      <trkpt lat="47.04609" lon="-1.09262">
        <ele>166.8</ele>
        <time>2011-11-27T07:33:38Z</time>
      </trkpt>
      <trkpt lat="47.04602" lon="-1.0925">
        <ele>165.9</ele>
        <time>2011-11-27T07:33:40Z</time>
      </trkpt>
      <trkpt lat="47.04598" lon="-1.09241">
        <ele>165</ele>
        <time>2011-11-27T07:33:41Z</time>
      </trkpt>
      <trkpt lat="47.04592" lon="-1.09231">
        <ele>165.9</ele>
        <time>2011-11-27T07:33:43Z</time>
      </trkpt>
      <trkpt lat="47.04587" lon="-1.09227">
        <ele>166.2</ele>
        <time>2011-11-27T07:33:44Z</time>
      </trkpt>
      <trkpt lat="47.04582" lon="-1.09216">
        <ele>165.5</ele>
        <time>2011-11-27T07:33:46Z</time>
      </trkpt>
      <trkpt lat="47.04577" lon="-1.09206">
        <ele>165.8</ele>
        <time>2011-11-27T07:33:48Z</time>
      </trkpt>
      <trkpt lat="47.04572" lon="-1.092">
        <ele>165.3</ele>
        <time>2011-11-27T07:33:49Z</time>
      </trkpt>
      <trkpt lat="47.04566" lon="-1.0919">
        <ele>166</ele>
        <time>2011-11-27T07:33:51Z</time>
      </trkpt>
      <trkpt lat="47.04564" lon="-1.09181">
        <ele>163.6</ele>
        <time>2011-11-27T07:33:53Z</time>
      </trkpt>
      <trkpt lat="47.0456" lon="-1.09175">
        <ele>165.1</ele>
        <time>2011-11-27T07:33:54Z</time>
      </trkpt>
      <trkpt lat="47.04559" lon="-1.09167">
        <ele>167.3</ele>
        <time>2011-11-27T07:33:56Z</time>
      </trkpt>
      <trkpt lat="47.04552" lon="-1.0916">
        <ele>167.9</ele>
        <time>2011-11-27T07:33:59Z</time>
      </trkpt>
      <trkpt lat="47.04544" lon="-1.0915">
        <ele>168.3</ele>
        <time>2011-11-27T07:34:01Z</time>
      </trkpt>
      <trkpt lat="47.04539" lon="-1.09136">
        <ele>167.2</ele>
        <time>2011-11-27T07:34:03Z</time>
      </trkpt>
      <trkpt lat="47.04534" lon="-1.09127">
        <ele>166.5</ele>
        <time>2011-11-27T07:34:05Z</time>
      </trkpt>
      <trkpt lat="47.04528" lon="-1.09119">
        <ele>168.1</ele>
        <time>2011-11-27T07:34:08Z</time>
      </trkpt>
      <trkpt lat="47.04524" lon="-1.09113">
        <ele>167.6</ele>
        <time>2011-11-27T07:34:09Z</time>
      </trkpt>
      <trkpt lat="47.04521" lon="-1.09107">
        <ele>167.9</ele>
        <time>2011-11-27T07:34:10Z</time>
      </trkpt>
      <trkpt lat="47.04513" lon="-1.09094">
        <ele>167.2</ele>
        <time>2011-11-27T07:34:11Z</time>
      </trkpt>
      <trkpt lat="47.04509" lon="-1.09088">
        <ele>169.3</ele>
        <time>2011-11-27T07:34:12Z</time>
      </trkpt>
      <trkpt lat="47.04506" lon="-1.09081">
        <ele>168.9</ele>
        <time>2011-11-27T07:34:13Z</time>
      </trkpt>
      <trkpt lat="47.04504" lon="-1.09074">
        <ele>168.9</ele>
        <time>2011-11-27T07:34:14Z</time>
      </trkpt>
      <trkpt lat="47.045" lon="-1.09065">
        <ele>168.4</ele>
        <time>2011-11-27T07:34:16Z</time>
      </trkpt>
      <trkpt lat="47.04502" lon="-1.09053">
        <ele>166.5</ele>
        <time>2011-11-27T07:34:18Z</time>
      </trkpt>
      <trkpt lat="47.04496" lon="-1.0905">
        <ele>167.7</ele>
        <time>2011-11-27T07:34:19Z</time>
      </trkpt>
      <trkpt lat="47.04495" lon="-1.09043">
        <ele>166</ele>
        <time>2011-11-27T07:34:20Z</time>
      </trkpt>
      <trkpt lat="47.04492" lon="-1.09034">
        <ele>165.3</ele>
        <time>2011-11-27T07:34:22Z</time>
      </trkpt>
      <trkpt lat="47.04489" lon="-1.09015">
        <ele>164.9</ele>
        <time>2011-11-27T07:34:24Z</time>
      </trkpt>
      <trkpt lat="47.04485" lon="-1.09009">
        <ele>164.9</ele>
        <time>2011-11-27T07:34:25Z</time>
      </trkpt>
      <trkpt lat="47.04479" lon="-1.09001">
        <ele>165.5</ele>
        <time>2011-11-27T07:34:27Z</time>
      </trkpt>
      <trkpt lat="47.04475" lon="-1.08992">
        <ele>166.5</ele>
        <time>2011-11-27T07:34:28Z</time>
      </trkpt>
      <trkpt lat="47.04469" lon="-1.08985">
        <ele>165.8</ele>
        <time>2011-11-27T07:34:30Z</time>
      </trkpt>
      <trkpt lat="47.04469" lon="-1.08978">
        <ele>166</ele>
        <time>2011-11-27T07:34:31Z</time>
      </trkpt>
      <trkpt lat="47.04469" lon="-1.08969">
        <ele>165.7</ele>
        <time>2011-11-27T07:34:33Z</time>
      </trkpt>
      <trkpt lat="47.04466" lon="-1.08963">
        <ele>165.3</ele>
        <time>2011-11-27T07:34:34Z</time>
      </trkpt>
      <trkpt lat="47.04462" lon="-1.08952">
        <ele>163.5</ele>
        <time>2011-11-27T07:34:35Z</time>
      </trkpt>
      <trkpt lat="47.04462" lon="-1.08945">
        <ele>163.2</ele>
        <time>2011-11-27T07:34:36Z</time>
      </trkpt>
      <trkpt lat="47.04456" lon="-1.08932">
        <ele>164.7</ele>
        <time>2011-11-27T07:34:38Z</time>
      </trkpt>
      <trkpt lat="47.0445" lon="-1.08919">
        <ele>164.8</ele>
        <time>2011-11-27T07:34:41Z</time>
      </trkpt>
      <trkpt lat="47.04445" lon="-1.08911">
        <ele>164.1</ele>
        <time>2011-11-27T07:34:43Z</time>
      </trkpt>
      <trkpt lat="47.0444" lon="-1.08904">
        <ele>162.4</ele>
        <time>2011-11-27T07:34:44Z</time>
      </trkpt>
      <trkpt lat="47.04437" lon="-1.08893">
        <ele>164.3</ele>
        <time>2011-11-27T07:34:46Z</time>
      </trkpt>
      <trkpt lat="47.04432" lon="-1.08878">
        <ele>162.9</ele>
        <time>2011-11-27T07:34:49Z</time>
      </trkpt>
      <trkpt lat="47.04428" lon="-1.08872">
        <ele>163.3</ele>
        <time>2011-11-27T07:34:50Z</time>
      </trkpt>
      <trkpt lat="47.04422" lon="-1.0886">
        <ele>164.9</ele>
        <time>2011-11-27T07:34:52Z</time>
      </trkpt>
      <trkpt lat="47.04416" lon="-1.08852">
        <ele>164.6</ele>
        <time>2011-11-27T07:34:54Z</time>
      </trkpt>
      <trkpt lat="47.0441" lon="-1.08844">
        <ele>164</ele>
        <time>2011-11-27T07:34:56Z</time>
      </trkpt>
      <trkpt lat="47.04401" lon="-1.08834">
        <ele>165.4</ele>
        <time>2011-11-27T07:34:58Z</time>
      </trkpt>
      <trkpt lat="47.04392" lon="-1.08825">
        <ele>164.9</ele>
        <time>2011-11-27T07:35:00Z</time>
      </trkpt>
      <trkpt lat="47.04384" lon="-1.08819">
        <ele>165.9</ele>
        <time>2011-11-27T07:35:02Z</time>
      </trkpt>
      <trkpt lat="47.04373" lon="-1.08814">
        <ele>165.8</ele>
        <time>2011-11-27T07:35:04Z</time>
      </trkpt>
      <trkpt lat="47.04367" lon="-1.08807">
        <ele>163.6</ele>
        <time>2011-11-27T07:35:06Z</time>
      </trkpt>
      <trkpt lat="47.04357" lon="-1.08796">
        <ele>160.6</ele>
        <time>2011-11-27T07:35:08Z</time>
      </trkpt>
      <trkpt lat="47.04352" lon="-1.08789">
        <ele>160.6</ele>
        <time>2011-11-27T07:35:10Z</time>
      </trkpt>
      <trkpt lat="47.04343" lon="-1.08782">
        <ele>162.1</ele>
        <time>2011-11-27T07:35:12Z</time>
      </trkpt>
      <trkpt lat="47.0434" lon="-1.08773">
        <ele>163.4</ele>
        <time>2011-11-27T07:35:14Z</time>
      </trkpt>
      <trkpt lat="47.04335" lon="-1.08768">
        <ele>164</ele>
        <time>2011-11-27T07:35:16Z</time>
      </trkpt>
      <trkpt lat="47.04327" lon="-1.08754">
        <ele>164.6</ele>
        <time>2011-11-27T07:35:18Z</time>
      </trkpt>
      <trkpt lat="47.04318" lon="-1.08745">
        <ele>165</ele>
        <time>2011-11-27T07:35:20Z</time>
      </trkpt>
      <trkpt lat="47.04311" lon="-1.08736">
        <ele>164.4</ele>
        <time>2011-11-27T07:35:22Z</time>
      </trkpt>
      <trkpt lat="47.04306" lon="-1.08733">
        <ele>165</ele>
        <time>2011-11-27T07:35:24Z</time>
      </trkpt>
      <trkpt lat="47.04297" lon="-1.0872">
        <ele>166.7</ele>
        <time>2011-11-27T07:35:26Z</time>
      </trkpt>
      <trkpt lat="47.04291" lon="-1.08712">
        <ele>164.7</ele>
        <time>2011-11-27T07:35:28Z</time>
      </trkpt>
      <trkpt lat="47.04282" lon="-1.08705">
        <ele>164.4</ele>
        <time>2011-11-27T07:35:30Z</time>
      </trkpt>
      <trkpt lat="47.04275" lon="-1.08696">
        <ele>165</ele>
        <time>2011-11-27T07:35:32Z</time>
      </trkpt>
      <trkpt lat="47.04264" lon="-1.08691">
        <ele>165.3</ele>
        <time>2011-11-27T07:35:34Z</time>
      </trkpt>
      <trkpt lat="47.04257" lon="-1.08675">
        <ele>165.7</ele>
        <time>2011-11-27T07:35:38Z</time>
      </trkpt>
      <trkpt lat="47.04252" lon="-1.08665">
        <ele>164.7</ele>
        <time>2011-11-27T07:35:40Z</time>
      </trkpt>
      <trkpt lat="47.04245" lon="-1.08657">
        <ele>165</ele>
        <time>2011-11-27T07:35:42Z</time>
      </trkpt>
      <trkpt lat="47.04238" lon="-1.08653">
        <ele>164.5</ele>
        <time>2011-11-27T07:35:44Z</time>
      </trkpt>
      <trkpt lat="47.0423" lon="-1.08646">
        <ele>165.1</ele>
        <time>2011-11-27T07:35:46Z</time>
      </trkpt>
      <trkpt lat="47.04222" lon="-1.08634">
        <ele>164.3</ele>
        <time>2011-11-27T07:35:48Z</time>
      </trkpt>
      <trkpt lat="47.04215" lon="-1.08628">
        <ele>164.3</ele>
        <time>2011-11-27T07:35:51Z</time>
      </trkpt>
      <trkpt lat="47.04206" lon="-1.08622">
        <ele>166.3</ele>
        <time>2011-11-27T07:35:53Z</time>
      </trkpt>
      <trkpt lat="47.04198" lon="-1.08617">
        <ele>165.7</ele>
        <time>2011-11-27T07:35:55Z</time>
      </trkpt>
      <trkpt lat="47.04194" lon="-1.08595">
        <ele>166</ele>
        <time>2011-11-27T07:35:57Z</time>
      </trkpt>
      <trkpt lat="47.04187" lon="-1.08592">
        <ele>163.4</ele>
        <time>2011-11-27T07:35:59Z</time>
      </trkpt>
      <trkpt lat="47.04182" lon="-1.08581">
        <ele>162.3</ele>
        <time>2011-11-27T07:36:02Z</time>
      </trkpt>
      <trkpt lat="47.04174" lon="-1.08571">
        <ele>161.8</ele>
        <time>2011-11-27T07:36:04Z</time>
      </trkpt>
      <trkpt lat="47.04167" lon="-1.08561">
        <ele>161.7</ele>
        <time>2011-11-27T07:36:07Z</time>
      </trkpt>
      <trkpt lat="47.04161" lon="-1.08558">
        <ele>161.6</ele>
        <time>2011-11-27T07:36:09Z</time>
      </trkpt>
      <trkpt lat="47.04155" lon="-1.08546">
        <ele>161</ele>
        <time>2011-11-27T07:36:11Z</time>
      </trkpt>
      <trkpt lat="47.04146" lon="-1.08531">
        <ele>159.8</ele>
        <time>2011-11-27T07:36:14Z</time>
      </trkpt>
      <trkpt lat="47.04141" lon="-1.08525">
        <ele>160.6</ele>
        <time>2011-11-27T07:36:15Z</time>
      </trkpt>
      <trkpt lat="47.04134" lon="-1.08517">
        <ele>160.5</ele>
        <time>2011-11-27T07:36:18Z</time>
      </trkpt>
      <trkpt lat="47.04126" lon="-1.0851">
        <ele>161.1</ele>
        <time>2011-11-27T07:36:21Z</time>
      </trkpt>
      <trkpt lat="47.04119" lon="-1.08501">
        <ele>161.8</ele>
        <time>2011-11-27T07:36:23Z</time>
      </trkpt>
      <trkpt lat="47.04117" lon="-1.08495">
        <ele>162.4</ele>
        <time>2011-11-27T07:36:24Z</time>
      </trkpt>
      <trkpt lat="47.04112" lon="-1.08487">
        <ele>162.4</ele>
        <time>2011-11-27T07:36:26Z</time>
      </trkpt>
      <trkpt lat="47.04107" lon="-1.08479">
        <ele>162.4</ele>
        <time>2011-11-27T07:36:28Z</time>
      </trkpt>
      <trkpt lat="47.04104" lon="-1.08473">
        <ele>162.3</ele>
        <time>2011-11-27T07:36:29Z</time>
      </trkpt>
      <trkpt lat="47.04103" lon="-1.08466">
        <ele>162.3</ele>
        <time>2011-11-27T07:36:30Z</time>
      </trkpt>
      <trkpt lat="47.04095" lon="-1.08458">
        <ele>161.1</ele>
        <time>2011-11-27T07:36:32Z</time>
      </trkpt>
      <trkpt lat="47.04087" lon="-1.0845">
        <ele>164.3</ele>
        <time>2011-11-27T07:36:34Z</time>
      </trkpt>
      <trkpt lat="47.04082" lon="-1.08441">
        <ele>164</ele>
        <time>2011-11-27T07:36:36Z</time>
      </trkpt>
      <trkpt lat="47.04072" lon="-1.08428">
        <ele>166.6</ele>
        <time>2011-11-27T07:36:40Z</time>
      </trkpt>
      <trkpt lat="47.04066" lon="-1.0842">
        <ele>166.9</ele>
        <time>2011-11-27T07:36:42Z</time>
      </trkpt>
      <trkpt lat="47.04059" lon="-1.08415">
        <ele>166.8</ele>
        <time>2011-11-27T07:36:44Z</time>
      </trkpt>
      <trkpt lat="47.04054" lon="-1.08405">
        <ele>165.7</ele>
        <time>2011-11-27T07:36:46Z</time>
      </trkpt>
      <trkpt lat="47.04049" lon="-1.08402">
        <ele>166.5</ele>
        <time>2011-11-27T07:36:48Z</time>
      </trkpt>
      <trkpt lat="47.04045" lon="-1.08393">
        <ele>166.8</ele>
        <time>2011-11-27T07:36:50Z</time>
      </trkpt>
      <trkpt lat="47.0404" lon="-1.08384">
        <ele>168.7</ele>
        <time>2011-11-27T07:36:52Z</time>
      </trkpt>
      <trkpt lat="47.04034" lon="-1.08376">
        <ele>170.4</ele>
        <time>2011-11-27T07:36:54Z</time>
      </trkpt>
      <trkpt lat="47.04027" lon="-1.08364">
        <ele>169</ele>
        <time>2011-11-27T07:36:56Z</time>
      </trkpt>
      <trkpt lat="47.0402" lon="-1.08354">
        <ele>167.3</ele>
        <time>2011-11-27T07:36:58Z</time>
      </trkpt>
      <trkpt lat="47.04014" lon="-1.08347">
        <ele>167.7</ele>
        <time>2011-11-27T07:37:00Z</time>
      </trkpt>
      <trkpt lat="47.0401" lon="-1.08338">
        <ele>168.1</ele>
        <time>2011-11-27T07:37:03Z</time>
      </trkpt>
      <trkpt lat="47.04004" lon="-1.08334">
        <ele>167.6</ele>
        <time>2011-11-27T07:37:05Z</time>
      </trkpt>
      <trkpt lat="47.03991" lon="-1.08321">
        <ele>168</ele>
        <time>2011-11-27T07:37:08Z</time>
      </trkpt>
      <trkpt lat="47.03989" lon="-1.08309">
        <ele>167.1</ele>
        <time>2011-11-27T07:37:10Z</time>
      </trkpt>
      <trkpt lat="47.03984" lon="-1.08301">
        <ele>166.5</ele>
        <time>2011-11-27T07:37:12Z</time>
      </trkpt>
      <trkpt lat="47.03979" lon="-1.08295">
        <ele>166.6</ele>
        <time>2011-11-27T07:37:14Z</time>
      </trkpt>
      <trkpt lat="47.03975" lon="-1.0829">
        <ele>163.8</ele>
        <time>2011-11-27T07:37:16Z</time>
      </trkpt>
      <trkpt lat="47.03968" lon="-1.08279">
        <ele>164.1</ele>
        <time>2011-11-27T07:37:19Z</time>
      </trkpt>
      <trkpt lat="47.03962" lon="-1.08269">
        <ele>164.1</ele>
        <time>2011-11-27T07:37:21Z</time>
      </trkpt>
      <trkpt lat="47.03956" lon="-1.08264">
        <ele>164.8</ele>
        <time>2011-11-27T07:37:23Z</time>
      </trkpt>
      <trkpt lat="47.03951" lon="-1.08257">
        <ele>166</ele>
        <time>2011-11-27T07:37:26Z</time>
      </trkpt>
      <trkpt lat="47.03942" lon="-1.08248">
        <ele>167.9</ele>
        <time>2011-11-27T07:37:28Z</time>
      </trkpt>
      <trkpt lat="47.03938" lon="-1.08243">
        <ele>168.6</ele>
        <time>2011-11-27T07:37:30Z</time>
      </trkpt>
      <trkpt lat="47.03934" lon="-1.08234">
        <ele>168.9</ele>
        <time>2011-11-27T07:37:33Z</time>
      </trkpt>
      <trkpt lat="47.03927" lon="-1.08226">
        <ele>170.2</ele>
        <time>2011-11-27T07:37:35Z</time>
      </trkpt>
      <trkpt lat="47.03922" lon="-1.08219">
        <ele>170.2</ele>
        <time>2011-11-27T07:37:37Z</time>
      </trkpt>
      <trkpt lat="47.03915" lon="-1.08209">
        <ele>171.3</ele>
        <time>2011-11-27T07:37:39Z</time>
      </trkpt>
      <trkpt lat="47.03909" lon="-1.08203">
        <ele>171.8</ele>
        <time>2011-11-27T07:37:41Z</time>
      </trkpt>
      <trkpt lat="47.03903" lon="-1.08196">
        <ele>172.9</ele>
        <time>2011-11-27T07:37:43Z</time>
      </trkpt>
      <trkpt lat="47.03896" lon="-1.08188">
        <ele>176.9</ele>
        <time>2011-11-27T07:37:46Z</time>
      </trkpt>
      <trkpt lat="47.03892" lon="-1.08183">
        <ele>177.8</ele>
        <time>2011-11-27T07:37:48Z</time>
      </trkpt>
      <trkpt lat="47.03886" lon="-1.08178">
        <ele>178.5</ele>
        <time>2011-11-27T07:37:50Z</time>
      </trkpt>
      <trkpt lat="47.0388" lon="-1.08171">
        <ele>177.9</ele>
        <time>2011-11-27T07:37:52Z</time>
      </trkpt>
      <trkpt lat="47.03876" lon="-1.08164">
        <ele>178.7</ele>
        <time>2011-11-27T07:37:54Z</time>
      </trkpt>
      <trkpt lat="47.03872" lon="-1.08152">
        <ele>176.1</ele>
        <time>2011-11-27T07:37:56Z</time>
      </trkpt>
      <trkpt lat="47.03864" lon="-1.0816">
        <ele>175.3</ele>
        <time>2011-11-27T07:38:02Z</time>
      </trkpt>
      <trkpt lat="47.03855" lon="-1.0817">
        <ele>175.9</ele>
        <time>2011-11-27T07:38:04Z</time>
      </trkpt>
      <trkpt lat="47.0385" lon="-1.08182">
        <ele>176.4</ele>
        <time>2011-11-27T07:38:06Z</time>
      </trkpt>
      <trkpt lat="47.03846" lon="-1.0819">
        <ele>173.7</ele>
        <time>2011-11-27T07:38:08Z</time>
      </trkpt>
      <trkpt lat="47.03842" lon="-1.08199">
        <ele>173.9</ele>
        <time>2011-11-27T07:38:10Z</time>
      </trkpt>
      <trkpt lat="47.03838" lon="-1.08206">
        <ele>174.1</ele>
        <time>2011-11-27T07:38:12Z</time>
      </trkpt>
      <trkpt lat="47.03836" lon="-1.08212">
        <ele>173.7</ele>
        <time>2011-11-27T07:38:13Z</time>
      </trkpt>
      <trkpt lat="47.0383" lon="-1.08221">
        <ele>174</ele>
        <time>2011-11-27T07:38:14Z</time>
      </trkpt>
      <trkpt lat="47.03821" lon="-1.0823">
        <ele>172.1</ele>
        <time>2011-11-27T07:38:16Z</time>
      </trkpt>
      <trkpt lat="47.03815" lon="-1.08239">
        <ele>173.2</ele>
        <time>2011-11-27T07:38:18Z</time>
      </trkpt>
      <trkpt lat="47.03807" lon="-1.08248">
        <ele>172.5</ele>
        <time>2011-11-27T07:38:21Z</time>
      </trkpt>
      <trkpt lat="47.03803" lon="-1.08254">
        <ele>173.1</ele>
        <time>2011-11-27T07:38:22Z</time>
      </trkpt>
      <trkpt lat="47.03801" lon="-1.08264">
        <ele>172.7</ele>
        <time>2011-11-27T07:38:23Z</time>
      </trkpt>
      <trkpt lat="47.03792" lon="-1.08272">
        <ele>172.4</ele>
        <time>2011-11-27T07:38:26Z</time>
      </trkpt>
      <trkpt lat="47.03791" lon="-1.08279">
        <ele>171.6</ele>
        <time>2011-11-27T07:38:27Z</time>
      </trkpt>
      <trkpt lat="47.03787" lon="-1.08284">
        <ele>172.5</ele>
        <time>2011-11-27T07:38:28Z</time>
      </trkpt>
      <trkpt lat="47.03783" lon="-1.08291">
        <ele>172.1</ele>
        <time>2011-11-27T07:38:29Z</time>
      </trkpt>
      <trkpt lat="47.0378" lon="-1.08297">
        <ele>171.2</ele>
        <time>2011-11-27T07:38:30Z</time>
      </trkpt>
      <trkpt lat="47.03774" lon="-1.08302">
        <ele>171.6</ele>
        <time>2011-11-27T07:38:31Z</time>
      </trkpt>
      <trkpt lat="47.03768" lon="-1.08312">
        <ele>171.6</ele>
        <time>2011-11-27T07:38:33Z</time>
      </trkpt>
      <trkpt lat="47.03764" lon="-1.08318">
        <ele>171.4</ele>
        <time>2011-11-27T07:38:34Z</time>
      </trkpt>
      <trkpt lat="47.03757" lon="-1.08328">
        <ele>171.2</ele>
        <time>2011-11-27T07:38:36Z</time>
      </trkpt>
      <trkpt lat="47.03754" lon="-1.08334">
        <ele>169.9</ele>
        <time>2011-11-27T07:38:37Z</time>
      </trkpt>
      <trkpt lat="47.03748" lon="-1.08344">
        <ele>169.8</ele>
        <time>2011-11-27T07:38:39Z</time>
      </trkpt>
      <trkpt lat="47.03744" lon="-1.08349">
        <ele>169.5</ele>
        <time>2011-11-27T07:38:40Z</time>
      </trkpt>
      <trkpt lat="47.03738" lon="-1.08358">
        <ele>169.9</ele>
        <time>2011-11-27T07:38:42Z</time>
      </trkpt>
      <trkpt lat="47.03731" lon="-1.08368">
        <ele>169.5</ele>
        <time>2011-11-27T07:38:44Z</time>
      </trkpt>
      <trkpt lat="47.03728" lon="-1.08378">
        <ele>169.4</ele>
        <time>2011-11-27T07:38:46Z</time>
      </trkpt>
      <trkpt lat="47.03731" lon="-1.08385">
        <ele>169.8</ele>
        <time>2011-11-27T07:38:48Z</time>
      </trkpt>
      <trkpt lat="47.03736" lon="-1.08394">
        <ele>170.2</ele>
        <time>2011-11-27T07:38:50Z</time>
      </trkpt>
      <trkpt lat="47.03743" lon="-1.08401">
        <ele>170</ele>
        <time>2011-11-27T07:38:52Z</time>
      </trkpt>
      <trkpt lat="47.03746" lon="-1.08406">
        <ele>169.5</ele>
        <time>2011-11-27T07:38:53Z</time>
      </trkpt>
      <trkpt lat="47.0375" lon="-1.0841">
        <ele>169.4</ele>
        <time>2011-11-27T07:38:54Z</time>
      </trkpt>
      <trkpt lat="47.03757" lon="-1.08414">
        <ele>169</ele>
        <time>2011-11-27T07:38:55Z</time>
      </trkpt>
      <trkpt lat="47.03764" lon="-1.0842">
        <ele>167.7</ele>
        <time>2011-11-27T07:38:57Z</time>
      </trkpt>
      <trkpt lat="47.03768" lon="-1.08424">
        <ele>169.5</ele>
        <time>2011-11-27T07:38:59Z</time>
      </trkpt>
      <trkpt lat="47.03775" lon="-1.08431">
        <ele>169.8</ele>
        <time>2011-11-27T07:39:01Z</time>
      </trkpt>
      <trkpt lat="47.0378" lon="-1.08439">
        <ele>167.9</ele>
        <time>2011-11-27T07:39:02Z</time>
      </trkpt>
      <trkpt lat="47.03778" lon="-1.08452">
        <ele>169.2</ele>
        <time>2011-11-27T07:39:05Z</time>
      </trkpt>
      <trkpt lat="47.03772" lon="-1.08459">
        <ele>168.2</ele>
        <time>2011-11-27T07:39:06Z</time>
      </trkpt>
      <trkpt lat="47.0377" lon="-1.0847">
        <ele>168.6</ele>
        <time>2011-11-27T07:39:07Z</time>
      </trkpt>
      <trkpt lat="47.03767" lon="-1.08476">
        <ele>168.7</ele>
        <time>2011-11-27T07:39:09Z</time>
      </trkpt>
      <trkpt lat="47.03763" lon="-1.08486">
        <ele>168.5</ele>
        <time>2011-11-27T07:39:10Z</time>
      </trkpt>
      <trkpt lat="47.03762" lon="-1.08493">
        <ele>168.7</ele>
        <time>2011-11-27T07:39:12Z</time>
      </trkpt>
      <trkpt lat="47.0376" lon="-1.08504">
        <ele>169.9</ele>
        <time>2011-11-27T07:39:14Z</time>
      </trkpt>
      <trkpt lat="47.03758" lon="-1.0851">
        <ele>170.5</ele>
        <time>2011-11-27T07:39:15Z</time>
      </trkpt>
      <trkpt lat="47.03757" lon="-1.08517">
        <ele>170.3</ele>
        <time>2011-11-27T07:39:16Z</time>
      </trkpt>
      <trkpt lat="47.03755" lon="-1.08523">
        <ele>170.1</ele>
        <time>2011-11-27T07:39:17Z</time>
      </trkpt>
      <trkpt lat="47.03753" lon="-1.08531">
        <ele>169.9</ele>
        <time>2011-11-27T07:39:18Z</time>
      </trkpt>
      <trkpt lat="47.0375" lon="-1.08545">
        <ele>169.6</ele>
        <time>2011-11-27T07:39:19Z</time>
      </trkpt>
      <trkpt lat="47.03746" lon="-1.08553">
        <ele>168.4</ele>
        <time>2011-11-27T07:39:21Z</time>
      </trkpt>
      <trkpt lat="47.03746" lon="-1.08562">
        <ele>168.8</ele>
        <time>2011-11-27T07:39:23Z</time>
      </trkpt>
      <trkpt lat="47.03746" lon="-1.08574">
        <ele>168.5</ele>
        <time>2011-11-27T07:39:25Z</time>
      </trkpt>
      <trkpt lat="47.03744" lon="-1.0858">
        <ele>168.5</ele>
        <time>2011-11-27T07:39:26Z</time>
      </trkpt>
      <trkpt lat="47.03742" lon="-1.08587">
        <ele>168.1</ele>
        <time>2011-11-27T07:39:27Z</time>
      </trkpt>
      <trkpt lat="47.03741" lon="-1.08594">
        <ele>168</ele>
        <time>2011-11-27T07:39:28Z</time>
      </trkpt>
      <trkpt lat="47.03738" lon="-1.086">
        <ele>168.2</ele>
        <time>2011-11-27T07:39:29Z</time>
      </trkpt>
      <trkpt lat="47.03736" lon="-1.08612">
        <ele>167.5</ele>
        <time>2011-11-27T07:39:31Z</time>
      </trkpt>
      <trkpt lat="47.03735" lon="-1.08619">
        <ele>167.6</ele>
        <time>2011-11-27T07:39:32Z</time>
      </trkpt>
      <trkpt lat="47.03732" lon="-1.08626">
        <ele>167.1</ele>
        <time>2011-11-27T07:39:33Z</time>
      </trkpt>
      <trkpt lat="47.03729" lon="-1.08638">
        <ele>167.3</ele>
        <time>2011-11-27T07:39:35Z</time>
      </trkpt>
      <trkpt lat="47.03726" lon="-1.08645">
        <ele>167.4</ele>
        <time>2011-11-27T07:39:36Z</time>
      </trkpt>
      <trkpt lat="47.03723" lon="-1.08655">
        <ele>166.9</ele>
        <time>2011-11-27T07:39:38Z</time>
      </trkpt>
      <trkpt lat="47.0372" lon="-1.08662">
        <ele>166.4</ele>
        <time>2011-11-27T07:39:39Z</time>
      </trkpt>
      <trkpt lat="47.03718" lon="-1.08668">
        <ele>166.2</ele>
        <time>2011-11-27T07:39:40Z</time>
      </trkpt>
      <trkpt lat="47.03714" lon="-1.08678">
        <ele>166.4</ele>
        <time>2011-11-27T07:39:42Z</time>
      </trkpt>
      <trkpt lat="47.03708" lon="-1.08693">
        <ele>167.6</ele>
        <time>2011-11-27T07:39:44Z</time>
      </trkpt>
      <trkpt lat="47.03705" lon="-1.08698">
        <ele>168.7</ele>
        <time>2011-11-27T07:39:45Z</time>
      </trkpt>
      <trkpt lat="47.03701" lon="-1.08704">
        <ele>169.2</ele>
        <time>2011-11-27T07:39:46Z</time>
      </trkpt>
      <trkpt lat="47.03699" lon="-1.08711">
        <ele>170.2</ele>
        <time>2011-11-27T07:39:47Z</time>
      </trkpt>
      <trkpt lat="47.03695" lon="-1.08718">
        <ele>170.2</ele>
        <time>2011-11-27T07:39:48Z</time>
      </trkpt>
      <trkpt lat="47.03691" lon="-1.08725">
        <ele>170.3</ele>
        <time>2011-11-27T07:39:49Z</time>
      </trkpt>
      <trkpt lat="47.0369" lon="-1.08733">
        <ele>171.9</ele>
        <time>2011-11-27T07:39:51Z</time>
      </trkpt>
      <trkpt lat="47.03687" lon="-1.0874">
        <ele>172</ele>
        <time>2011-11-27T07:39:53Z</time>
      </trkpt>
      <trkpt lat="47.03679" lon="-1.08757">
        <ele>173.1</ele>
        <time>2011-11-27T07:39:56Z</time>
      </trkpt>
      <trkpt lat="47.03674" lon="-1.08765">
        <ele>172.1</ele>
        <time>2011-11-27T07:39:57Z</time>
      </trkpt>
      <trkpt lat="47.03671" lon="-1.0877">
        <ele>172</ele>
        <time>2011-11-27T07:39:58Z</time>
      </trkpt>
      <trkpt lat="47.03665" lon="-1.0878">
        <ele>171.1</ele>
        <time>2011-11-27T07:39:59Z</time>
      </trkpt>
      <trkpt lat="47.0366" lon="-1.08785">
        <ele>171</ele>
        <time>2011-11-27T07:40:00Z</time>
      </trkpt>
      <trkpt lat="47.03656" lon="-1.08795">
        <ele>171.4</ele>
        <time>2011-11-27T07:40:02Z</time>
      </trkpt>
      <trkpt lat="47.03653" lon="-1.088">
        <ele>171.7</ele>
        <time>2011-11-27T07:40:03Z</time>
      </trkpt>
      <trkpt lat="47.03647" lon="-1.08808">
        <ele>172.6</ele>
        <time>2011-11-27T07:40:05Z</time>
      </trkpt>
      <trkpt lat="47.0364" lon="-1.08817">
        <ele>172.1</ele>
        <time>2011-11-27T07:40:07Z</time>
      </trkpt>
      <trkpt lat="47.03634" lon="-1.08826">
        <ele>171.1</ele>
        <time>2011-11-27T07:40:09Z</time>
      </trkpt>
      <trkpt lat="47.03633" lon="-1.08832">
        <ele>171.5</ele>
        <time>2011-11-27T07:40:10Z</time>
      </trkpt>
      <trkpt lat="47.0363" lon="-1.08839">
        <ele>171.8</ele>
        <time>2011-11-27T07:40:11Z</time>
      </trkpt>
      <trkpt lat="47.03625" lon="-1.08843">
        <ele>170.5</ele>
        <time>2011-11-27T07:40:13Z</time>
      </trkpt>
      <trkpt lat="47.03619" lon="-1.08852">
        <ele>170.2</ele>
        <time>2011-11-27T07:40:15Z</time>
      </trkpt>
      <trkpt lat="47.03613" lon="-1.0886">
        <ele>169</ele>
        <time>2011-11-27T07:40:17Z</time>
      </trkpt>
      <trkpt lat="47.03607" lon="-1.0887">
        <ele>168.6</ele>
        <time>2011-11-27T07:40:19Z</time>
      </trkpt>
      <trkpt lat="47.03604" lon="-1.08875">
        <ele>168.3</ele>
        <time>2011-11-27T07:40:20Z</time>
      </trkpt>
      <trkpt lat="47.03599" lon="-1.08881">
        <ele>168.6</ele>
        <time>2011-11-27T07:40:21Z</time>
      </trkpt>
      <trkpt lat="47.03595" lon="-1.08892">
        <ele>168.4</ele>
        <time>2011-11-27T07:40:23Z</time>
      </trkpt>
      <trkpt lat="47.03591" lon="-1.08898">
        <ele>168.4</ele>
        <time>2011-11-27T07:40:24Z</time>
      </trkpt>
      <trkpt lat="47.03587" lon="-1.08903">
        <ele>169.1</ele>
        <time>2011-11-27T07:40:25Z</time>
      </trkpt>
      <trkpt lat="47.03584" lon="-1.08908">
        <ele>169.5</ele>
        <time>2011-11-27T07:40:26Z</time>
      </trkpt>
      <trkpt lat="47.0358" lon="-1.08913">
        <ele>169.3</ele>
        <time>2011-11-27T07:40:27Z</time>
      </trkpt>
      <trkpt lat="47.03575" lon="-1.08922">
        <ele>168.7</ele>
        <time>2011-11-27T07:40:29Z</time>
      </trkpt>
      <trkpt lat="47.03572" lon="-1.08926">
        <ele>169.3</ele>
        <time>2011-11-27T07:40:30Z</time>
      </trkpt>
      <trkpt lat="47.03564" lon="-1.08938">
        <ele>168.7</ele>
        <time>2011-11-27T07:40:32Z</time>
      </trkpt>
      <trkpt lat="47.03561" lon="-1.08944">
        <ele>167.9</ele>
        <time>2011-11-27T07:40:33Z</time>
      </trkpt>
      <trkpt lat="47.03558" lon="-1.08949">
        <ele>168.1</ele>
        <time>2011-11-27T07:40:34Z</time>
      </trkpt>
      <trkpt lat="47.03554" lon="-1.08955">
        <ele>167.7</ele>
        <time>2011-11-27T07:40:35Z</time>
      </trkpt>
      <trkpt lat="47.03551" lon="-1.08961">
        <ele>167.7</ele>
        <time>2011-11-27T07:40:36Z</time>
      </trkpt>
      <trkpt lat="47.03545" lon="-1.08972">
        <ele>168.6</ele>
        <time>2011-11-27T07:40:37Z</time>
      </trkpt>
      <trkpt lat="47.03544" lon="-1.08979">
        <ele>168.7</ele>
        <time>2011-11-27T07:40:39Z</time>
      </trkpt>
      <trkpt lat="47.03549" lon="-1.08984">
        <ele>168.5</ele>
        <time>2011-11-27T07:40:40Z</time>
      </trkpt>
      <trkpt lat="47.03557" lon="-1.08985">
        <ele>167.2</ele>
        <time>2011-11-27T07:40:42Z</time>
      </trkpt>
      <trkpt lat="47.03562" lon="-1.08988">
        <ele>166.9</ele>
        <time>2011-11-27T07:40:43Z</time>
      </trkpt>
      <trkpt lat="47.0357" lon="-1.08997">
        <ele>167.2</ele>
        <time>2011-11-27T07:40:45Z</time>
      </trkpt>
      <trkpt lat="47.03575" lon="-1.09">
        <ele>167.8</ele>
        <time>2011-11-27T07:40:46Z</time>
      </trkpt>
      <trkpt lat="47.03584" lon="-1.09004">
        <ele>167.7</ele>
        <time>2011-11-27T07:40:48Z</time>
      </trkpt>
      <trkpt lat="47.03592" lon="-1.09006">
        <ele>168.4</ele>
        <time>2011-11-27T07:40:49Z</time>
      </trkpt>
      <trkpt lat="47.03599" lon="-1.0901">
        <ele>169.1</ele>
        <time>2011-11-27T07:40:50Z</time>
      </trkpt>
      <trkpt lat="47.03605" lon="-1.09013">
        <ele>168.4</ele>
        <time>2011-11-27T07:40:51Z</time>
      </trkpt>
      <trkpt lat="47.0361" lon="-1.09018">
        <ele>167.9</ele>
        <time>2011-11-27T07:40:52Z</time>
      </trkpt>
      <trkpt lat="47.03616" lon="-1.09022">
        <ele>167.3</ele>
        <time>2011-11-27T07:40:53Z</time>
      </trkpt>
      <trkpt lat="47.0362" lon="-1.09025">
        <ele>166.9</ele>
        <time>2011-11-27T07:40:54Z</time>
      </trkpt>
      <trkpt lat="47.03626" lon="-1.09028">
        <ele>166.9</ele>
        <time>2011-11-27T07:40:55Z</time>
      </trkpt>
      <trkpt lat="47.03631" lon="-1.09028">
        <ele>167.7</ele>
        <time>2011-11-27T07:40:56Z</time>
      </trkpt>
      <trkpt lat="47.0364" lon="-1.09032">
        <ele>168.2</ele>
        <time>2011-11-27T07:40:58Z</time>
      </trkpt>
      <trkpt lat="47.03648" lon="-1.09038">
        <ele>170</ele>
        <time>2011-11-27T07:40:59Z</time>
      </trkpt>
      <trkpt lat="47.03655" lon="-1.09041">
        <ele>170.4</ele>
        <time>2011-11-27T07:41:00Z</time>
      </trkpt>
      <trkpt lat="47.0366" lon="-1.09044">
        <ele>171.1</ele>
        <time>2011-11-27T07:41:01Z</time>
      </trkpt>
      <trkpt lat="47.03664" lon="-1.09048">
        <ele>170.4</ele>
        <time>2011-11-27T07:41:02Z</time>
      </trkpt>
      <trkpt lat="47.03672" lon="-1.09053">
        <ele>170.5</ele>
        <time>2011-11-27T07:41:04Z</time>
      </trkpt>
      <trkpt lat="47.0368" lon="-1.09057">
        <ele>170.5</ele>
        <time>2011-11-27T07:41:05Z</time>
      </trkpt>
      <trkpt lat="47.03686" lon="-1.09061">
        <ele>170.3</ele>
        <time>2011-11-27T07:41:06Z</time>
      </trkpt>
      <trkpt lat="47.03693" lon="-1.09066">
        <ele>170.7</ele>
        <time>2011-11-27T07:41:07Z</time>
      </trkpt>
      <trkpt lat="47.03703" lon="-1.09069">
        <ele>171.4</ele>
        <time>2011-11-27T07:41:09Z</time>
      </trkpt>
      <trkpt lat="47.03708" lon="-1.09073">
        <ele>171</ele>
        <time>2011-11-27T07:41:10Z</time>
      </trkpt>
      <trkpt lat="47.03714" lon="-1.09077">
        <ele>171.1</ele>
        <time>2011-11-27T07:41:11Z</time>
      </trkpt>
      <trkpt lat="47.03719" lon="-1.09076">
        <ele>170.9</ele>
        <time>2011-11-27T07:41:12Z</time>
      </trkpt>
      <trkpt lat="47.03725" lon="-1.0908">
        <ele>170.9</ele>
        <time>2011-11-27T07:41:13Z</time>
      </trkpt>
      <trkpt lat="47.0373" lon="-1.09082">
        <ele>170.8</ele>
        <time>2011-11-27T07:41:14Z</time>
      </trkpt>
      <trkpt lat="47.03738" lon="-1.09085">
        <ele>170.7</ele>
        <time>2011-11-27T07:41:16Z</time>
      </trkpt>
      <trkpt lat="47.03741" lon="-1.0909">
        <ele>170.7</ele>
        <time>2011-11-27T07:41:17Z</time>
      </trkpt>
      <trkpt lat="47.03747" lon="-1.09094">
        <ele>170.6</ele>
        <time>2011-11-27T07:41:18Z</time>
      </trkpt>
      <trkpt lat="47.03755" lon="-1.09099">
        <ele>171.4</ele>
        <time>2011-11-27T07:41:19Z</time>
      </trkpt>
      <trkpt lat="47.03763" lon="-1.09101">
        <ele>171.6</ele>
        <time>2011-11-27T07:41:20Z</time>
      </trkpt>
      <trkpt lat="47.03772" lon="-1.09103">
        <ele>171.5</ele>
        <time>2011-11-27T07:41:22Z</time>
      </trkpt>
      <trkpt lat="47.03778" lon="-1.09107">
        <ele>171.5</ele>
        <time>2011-11-27T07:41:23Z</time>
      </trkpt>
      <trkpt lat="47.03788" lon="-1.09108">
        <ele>172.1</ele>
        <time>2011-11-27T07:41:25Z</time>
      </trkpt>
      <trkpt lat="47.03793" lon="-1.09106">
        <ele>171.9</ele>
        <time>2011-11-27T07:41:26Z</time>
      </trkpt>
      <trkpt lat="47.03799" lon="-1.09107">
        <ele>171.5</ele>
        <time>2011-11-27T07:41:27Z</time>
      </trkpt>
      <trkpt lat="47.03806" lon="-1.09108">
        <ele>170.7</ele>
        <time>2011-11-27T07:41:28Z</time>
      </trkpt>
      <trkpt lat="47.03816" lon="-1.09104">
        <ele>170.3</ele>
        <time>2011-11-27T07:41:29Z</time>
      </trkpt>
      <trkpt lat="47.03822" lon="-1.09104">
        <ele>170.3</ele>
        <time>2011-11-27T07:41:30Z</time>
      </trkpt>
      <trkpt lat="47.03829" lon="-1.09104">
        <ele>170</ele>
        <time>2011-11-27T07:41:31Z</time>
      </trkpt>
      <trkpt lat="47.03837" lon="-1.09108">
        <ele>170.2</ele>
        <time>2011-11-27T07:41:32Z</time>
      </trkpt>
      <trkpt lat="47.03842" lon="-1.09108">
        <ele>171</ele>
        <time>2011-11-27T07:41:33Z</time>
      </trkpt>
      <trkpt lat="47.03848" lon="-1.09109">
        <ele>172.1</ele>
        <time>2011-11-27T07:41:34Z</time>
      </trkpt>
      <trkpt lat="47.03855" lon="-1.09109">
        <ele>173.8</ele>
        <time>2011-11-27T07:41:35Z</time>
      </trkpt>
      <trkpt lat="47.0386" lon="-1.09107">
        <ele>173.5</ele>
        <time>2011-11-27T07:41:36Z</time>
      </trkpt>
      <trkpt lat="47.03868" lon="-1.09107">
        <ele>174.3</ele>
        <time>2011-11-27T07:41:38Z</time>
      </trkpt>
      <trkpt lat="47.03875" lon="-1.0911">
        <ele>174.2</ele>
        <time>2011-11-27T07:41:39Z</time>
      </trkpt>
      <trkpt lat="47.03879" lon="-1.09114">
        <ele>174.3</ele>
        <time>2011-11-27T07:41:40Z</time>
      </trkpt>
      <trkpt lat="47.03884" lon="-1.0912">
        <ele>174.7</ele>
        <time>2011-11-27T07:41:41Z</time>
      </trkpt>
      <trkpt lat="47.03887" lon="-1.09128">
        <ele>173.7</ele>
        <time>2011-11-27T07:41:42Z</time>
      </trkpt>
      <trkpt lat="47.03889" lon="-1.09135">
        <ele>173.6</ele>
        <time>2011-11-27T07:41:43Z</time>
      </trkpt>
      <trkpt lat="47.0389" lon="-1.09143">
        <ele>172.3</ele>
        <time>2011-11-27T07:41:44Z</time>
      </trkpt>
      <trkpt lat="47.03892" lon="-1.09151">
        <ele>169.6</ele>
        <time>2011-11-27T07:41:45Z</time>
      </trkpt>
      <trkpt lat="47.03891" lon="-1.09161">
        <ele>169.1</ele>
        <time>2011-11-27T07:41:46Z</time>
      </trkpt>
      <trkpt lat="47.03892" lon="-1.0918">
        <ele>168.5</ele>
        <time>2011-11-27T07:41:47Z</time>
      </trkpt>
      <trkpt lat="47.0389" lon="-1.09187">
        <ele>167.6</ele>
        <time>2011-11-27T07:41:48Z</time>
      </trkpt>
      <trkpt lat="47.03892" lon="-1.09195">
        <ele>165.6</ele>
        <time>2011-11-27T07:41:50Z</time>
      </trkpt>
      <trkpt lat="47.03895" lon="-1.09203">
        <ele>164.2</ele>
        <time>2011-11-27T07:41:51Z</time>
      </trkpt>
      <trkpt lat="47.03898" lon="-1.09218">
        <ele>165.2</ele>
        <time>2011-11-27T07:41:52Z</time>
      </trkpt>
      <trkpt lat="47.03896" lon="-1.0923">
        <ele>165.3</ele>
        <time>2011-11-27T07:41:54Z</time>
      </trkpt>
      <trkpt lat="47.03895" lon="-1.09248">
        <ele>166.2</ele>
        <time>2011-11-27T07:41:55Z</time>
      </trkpt>
      <trkpt lat="47.03895" lon="-1.09257">
        <ele>164.7</ele>
        <time>2011-11-27T07:41:56Z</time>
      </trkpt>
      <trkpt lat="47.03892" lon="-1.09265">
        <ele>164.7</ele>
        <time>2011-11-27T07:41:58Z</time>
      </trkpt>
      <trkpt lat="47.03889" lon="-1.09271">
        <ele>164.7</ele>
        <time>2011-11-27T07:41:59Z</time>
      </trkpt>
      <trkpt lat="47.03889" lon="-1.09284">
        <ele>164.9</ele>
        <time>2011-11-27T07:42:01Z</time>
      </trkpt>
      <trkpt lat="47.03885" lon="-1.09306">
        <ele>163.4</ele>
        <time>2011-11-27T07:42:03Z</time>
      </trkpt>
      <trkpt lat="47.03885" lon="-1.09312">
        <ele>162.2</ele>
        <time>2011-11-27T07:42:04Z</time>
      </trkpt>
      <trkpt lat="47.03883" lon="-1.09326">
        <ele>160.7</ele>
        <time>2011-11-27T07:42:06Z</time>
      </trkpt>
      <trkpt lat="47.0388" lon="-1.09333">
        <ele>162.1</ele>
        <time>2011-11-27T07:42:08Z</time>
      </trkpt>
      <trkpt lat="47.03876" lon="-1.09336">
        <ele>162.2</ele>
        <time>2011-11-27T07:42:09Z</time>
      </trkpt>
      <trkpt lat="47.03872" lon="-1.09344">
        <ele>163.4</ele>
        <time>2011-11-27T07:42:12Z</time>
      </trkpt>
      <trkpt lat="47.03869" lon="-1.09352">
        <ele>164.4</ele>
        <time>2011-11-27T07:42:14Z</time>
      </trkpt>
      <trkpt lat="47.03865" lon="-1.09362">
        <ele>164.8</ele>
        <time>2011-11-27T07:42:16Z</time>
      </trkpt>
      <trkpt lat="47.03862" lon="-1.0937">
        <ele>165.8</ele>
        <time>2011-11-27T07:42:18Z</time>
      </trkpt>
      <trkpt lat="47.0386" lon="-1.09381">
        <ele>164.9</ele>
        <time>2011-11-27T07:42:20Z</time>
      </trkpt>
      <trkpt lat="47.03856" lon="-1.0939">
        <ele>164</ele>
        <time>2011-11-27T07:42:22Z</time>
      </trkpt>
      <trkpt lat="47.03849" lon="-1.09401">
        <ele>163.2</ele>
        <time>2011-11-27T07:42:24Z</time>
      </trkpt>
      <trkpt lat="47.03846" lon="-1.09406">
        <ele>164.3</ele>
        <time>2011-11-27T07:42:25Z</time>
      </trkpt>
      <trkpt lat="47.03843" lon="-1.09414">
        <ele>165.5</ele>
        <time>2011-11-27T07:42:27Z</time>
      </trkpt>
      <trkpt lat="47.03839" lon="-1.09423">
        <ele>165.6</ele>
        <time>2011-11-27T07:42:29Z</time>
      </trkpt>
      <trkpt lat="47.03835" lon="-1.09433">
        <ele>165.4</ele>
        <time>2011-11-27T07:42:31Z</time>
      </trkpt>
      <trkpt lat="47.03832" lon="-1.09439">
        <ele>165</ele>
        <time>2011-11-27T07:42:32Z</time>
      </trkpt>
      <trkpt lat="47.03829" lon="-1.09445">
        <ele>164.9</ele>
        <time>2011-11-27T07:42:33Z</time>
      </trkpt>
      <trkpt lat="47.03825" lon="-1.0945">
        <ele>166.1</ele>
        <time>2011-11-27T07:42:34Z</time>
      </trkpt>
      <trkpt lat="47.03823" lon="-1.0946">
        <ele>166.2</ele>
        <time>2011-11-27T07:42:35Z</time>
      </trkpt>
      <trkpt lat="47.03818" lon="-1.09467">
        <ele>166.3</ele>
        <time>2011-11-27T07:42:37Z</time>
      </trkpt>
      <trkpt lat="47.03815" lon="-1.09472">
        <ele>167.1</ele>
        <time>2011-11-27T07:42:38Z</time>
      </trkpt>
      <trkpt lat="47.03806" lon="-1.09483">
        <ele>166.4</ele>
        <time>2011-11-27T07:42:40Z</time>
      </trkpt>
      <trkpt lat="47.03803" lon="-1.09488">
        <ele>166.5</ele>
        <time>2011-11-27T07:42:41Z</time>
      </trkpt>
      <trkpt lat="47.038" lon="-1.09495">
        <ele>167.4</ele>
        <time>2011-11-27T07:42:42Z</time>
      </trkpt>
      <trkpt lat="47.03797" lon="-1.09501">
        <ele>168.2</ele>
        <time>2011-11-27T07:42:43Z</time>
      </trkpt>
      <trkpt lat="47.03791" lon="-1.09506">
        <ele>169.4</ele>
        <time>2011-11-27T07:42:44Z</time>
      </trkpt>
      <trkpt lat="47.03786" lon="-1.09512">
        <ele>169.8</ele>
        <time>2011-11-27T07:42:45Z</time>
      </trkpt>
      <trkpt lat="47.03783" lon="-1.09516">
        <ele>169.7</ele>
        <time>2011-11-27T07:42:46Z</time>
      </trkpt>
      <trkpt lat="47.03779" lon="-1.09523">
        <ele>170.7</ele>
        <time>2011-11-27T07:42:47Z</time>
      </trkpt>
      <trkpt lat="47.03773" lon="-1.0953">
        <ele>170.3</ele>
        <time>2011-11-27T07:42:48Z</time>
      </trkpt>
      <trkpt lat="47.03768" lon="-1.09538">
        <ele>170.4</ele>
        <time>2011-11-27T07:42:49Z</time>
      </trkpt>
      <trkpt lat="47.03764" lon="-1.09545">
        <ele>171</ele>
        <time>2011-11-27T07:42:50Z</time>
      </trkpt>
      <trkpt lat="47.03759" lon="-1.09551">
        <ele>171</ele>
        <time>2011-11-27T07:42:51Z</time>
      </trkpt>
      <trkpt lat="47.03755" lon="-1.09559">
        <ele>171.6</ele>
        <time>2011-11-27T07:42:52Z</time>
      </trkpt>
      <trkpt lat="47.0375" lon="-1.09567">
        <ele>172.4</ele>
        <time>2011-11-27T07:42:53Z</time>
      </trkpt>
      <trkpt lat="47.03746" lon="-1.09575">
        <ele>172.4</ele>
        <time>2011-11-27T07:42:54Z</time>
      </trkpt>
      <trkpt lat="47.03738" lon="-1.0959">
        <ele>172.4</ele>
        <time>2011-11-27T07:42:56Z</time>
      </trkpt>
      <trkpt lat="47.03732" lon="-1.09601">
        <ele>173.1</ele>
        <time>2011-11-27T07:42:58Z</time>
      </trkpt>
      <trkpt lat="47.03726" lon="-1.09609">
        <ele>172.2</ele>
        <time>2011-11-27T07:42:59Z</time>
      </trkpt>
      <trkpt lat="47.03715" lon="-1.0962">
        <ele>171.5</ele>
        <time>2011-11-27T07:43:00Z</time>
      </trkpt>
      <trkpt lat="47.03712" lon="-1.09628">
        <ele>172</ele>
        <time>2011-11-27T07:43:01Z</time>
      </trkpt>
      <trkpt lat="47.03706" lon="-1.09634">
        <ele>172.4</ele>
        <time>2011-11-27T07:43:02Z</time>
      </trkpt>
      <trkpt lat="47.03702" lon="-1.0964">
        <ele>172.9</ele>
        <time>2011-11-27T07:43:03Z</time>
      </trkpt>
      <trkpt lat="47.03699" lon="-1.09647">
        <ele>173.3</ele>
        <time>2011-11-27T07:43:05Z</time>
      </trkpt>
      <trkpt lat="47.03695" lon="-1.09659">
        <ele>173.7</ele>
        <time>2011-11-27T07:43:07Z</time>
      </trkpt>
      <trkpt lat="47.03692" lon="-1.09665">
        <ele>174.8</ele>
        <time>2011-11-27T07:43:08Z</time>
      </trkpt>
      <trkpt lat="47.0369" lon="-1.09673">
        <ele>175.5</ele>
        <time>2011-11-27T07:43:09Z</time>
      </trkpt>
      <trkpt lat="47.03686" lon="-1.09685">
        <ele>176.3</ele>
        <time>2011-11-27T07:43:11Z</time>
      </trkpt>
      <trkpt lat="47.03683" lon="-1.09691">
        <ele>175.6</ele>
        <time>2011-11-27T07:43:12Z</time>
      </trkpt>
      <trkpt lat="47.0368" lon="-1.097">
        <ele>175.8</ele>
        <time>2011-11-27T07:43:13Z</time>
      </trkpt>
      <trkpt lat="47.03677" lon="-1.09706">
        <ele>175.7</ele>
        <time>2011-11-27T07:43:14Z</time>
      </trkpt>
      <trkpt lat="47.03673" lon="-1.09712">
        <ele>176</ele>
        <time>2011-11-27T07:43:15Z</time>
      </trkpt>
      <trkpt lat="47.0367" lon="-1.0972">
        <ele>175.7</ele>
        <time>2011-11-27T07:43:16Z</time>
      </trkpt>
      <trkpt lat="47.03668" lon="-1.09729">
        <ele>175.6</ele>
        <time>2011-11-27T07:43:17Z</time>
      </trkpt>
      <trkpt lat="47.03664" lon="-1.09737">
        <ele>174.3</ele>
        <time>2011-11-27T07:43:18Z</time>
      </trkpt>
      <trkpt lat="47.0366" lon="-1.09746">
        <ele>173.5</ele>
        <time>2011-11-27T07:43:19Z</time>
      </trkpt>
      <trkpt lat="47.03657" lon="-1.09756">
        <ele>173</ele>
        <time>2011-11-27T07:43:20Z</time>
      </trkpt>
      <trkpt lat="47.03655" lon="-1.09765">
        <ele>172.9</ele>
        <time>2011-11-27T07:43:21Z</time>
      </trkpt>
      <trkpt lat="47.03652" lon="-1.09774">
        <ele>172.8</ele>
        <time>2011-11-27T07:43:22Z</time>
      </trkpt>
      <trkpt lat="47.03647" lon="-1.09782">
        <ele>171.9</ele>
        <time>2011-11-27T07:43:23Z</time>
      </trkpt>
      <trkpt lat="47.03642" lon="-1.0979">
        <ele>171</ele>
        <time>2011-11-27T07:43:24Z</time>
      </trkpt>
      <trkpt lat="47.0364" lon="-1.09797">
        <ele>170</ele>
        <time>2011-11-27T07:43:25Z</time>
      </trkpt>
      <trkpt lat="47.03636" lon="-1.09806">
        <ele>169.3</ele>
        <time>2011-11-27T07:43:26Z</time>
      </trkpt>
      <trkpt lat="47.03629" lon="-1.09814">
        <ele>168.5</ele>
        <time>2011-11-27T07:43:27Z</time>
      </trkpt>
      <trkpt lat="47.03624" lon="-1.09822">
        <ele>167.7</ele>
        <time>2011-11-27T07:43:28Z</time>
      </trkpt>
      <trkpt lat="47.0362" lon="-1.0983">
        <ele>167.2</ele>
        <time>2011-11-27T07:43:29Z</time>
      </trkpt>
      <trkpt lat="47.03611" lon="-1.0984">
        <ele>164.6</ele>
        <time>2011-11-27T07:43:30Z</time>
      </trkpt>
      <trkpt lat="47.03605" lon="-1.09849">
        <ele>165.1</ele>
        <time>2011-11-27T07:43:31Z</time>
      </trkpt>
      <trkpt lat="47.036" lon="-1.09858">
        <ele>164.8</ele>
        <time>2011-11-27T07:43:33Z</time>
      </trkpt>
      <trkpt lat="47.03594" lon="-1.09867">
        <ele>163.7</ele>
        <time>2011-11-27T07:43:34Z</time>
      </trkpt>
      <trkpt lat="47.03586" lon="-1.09881">
        <ele>165</ele>
        <time>2011-11-27T07:43:36Z</time>
      </trkpt>
      <trkpt lat="47.03584" lon="-1.09889">
        <ele>163.7</ele>
        <time>2011-11-27T07:43:37Z</time>
      </trkpt>
      <trkpt lat="47.03574" lon="-1.099">
        <ele>160.8</ele>
        <time>2011-11-27T07:43:39Z</time>
      </trkpt>
      <trkpt lat="47.03567" lon="-1.09906">
        <ele>159.4</ele>
        <time>2011-11-27T07:43:40Z</time>
      </trkpt>
      <trkpt lat="47.03562" lon="-1.0991">
        <ele>158.5</ele>
        <time>2011-11-27T07:43:41Z</time>
      </trkpt>
      <trkpt lat="47.0354" lon="-1.09922">
        <ele>159.8</ele>
        <time>2011-11-27T07:43:43Z</time>
      </trkpt>
      <trkpt lat="47.03535" lon="-1.09926">
        <ele>160.6</ele>
        <time>2011-11-27T07:43:44Z</time>
      </trkpt>
      <trkpt lat="47.0353" lon="-1.0993">
        <ele>161.1</ele>
        <time>2011-11-27T07:43:45Z</time>
      </trkpt>
      <trkpt lat="47.03523" lon="-1.09937">
        <ele>162.8</ele>
        <time>2011-11-27T07:43:47Z</time>
      </trkpt>
      <trkpt lat="47.03519" lon="-1.09942">
        <ele>165.2</ele>
        <time>2011-11-27T07:43:49Z</time>
      </trkpt>
      <trkpt lat="47.03516" lon="-1.09947">
        <ele>166.7</ele>
        <time>2011-11-27T07:43:51Z</time>
      </trkpt>
      <trkpt lat="47.03515" lon="-1.09954">
        <ele>168.3</ele>
        <time>2011-11-27T07:43:53Z</time>
      </trkpt>
      <trkpt lat="47.03514" lon="-1.09965">
        <ele>167.1</ele>
        <time>2011-11-27T07:43:56Z</time>
      </trkpt>
      <trkpt lat="47.03515" lon="-1.09973">
        <ele>164.2</ele>
        <time>2011-11-27T07:43:57Z</time>
      </trkpt>
      <trkpt lat="47.0352" lon="-1.09983">
        <ele>161.2</ele>
        <time>2011-11-27T07:43:58Z</time>
      </trkpt>
      <trkpt lat="47.03527" lon="-1.0999">
        <ele>156.6</ele>
        <time>2011-11-27T07:43:59Z</time>
      </trkpt>
      <trkpt lat="47.03526" lon="-1.10004">
        <ele>155</ele>
        <time>2011-11-27T07:44:02Z</time>
      </trkpt>
      <trkpt lat="47.03528" lon="-1.1001">
        <ele>153.1</ele>
        <time>2011-11-27T07:44:03Z</time>
      </trkpt>
      <trkpt lat="47.0353" lon="-1.10022">
        <ele>150.9</ele>
        <time>2011-11-27T07:44:05Z</time>
      </trkpt>
      <trkpt lat="47.03531" lon="-1.1003">
        <ele>149.7</ele>
        <time>2011-11-27T07:44:06Z</time>
      </trkpt>
      <trkpt lat="47.03529" lon="-1.1004">
        <ele>150.4</ele>
        <time>2011-11-27T07:44:07Z</time>
      </trkpt>
      <trkpt lat="47.03526" lon="-1.1005">
        <ele>151.8</ele>
        <time>2011-11-27T07:44:08Z</time>
      </trkpt>
      <trkpt lat="47.03522" lon="-1.10061">
        <ele>152.3</ele>
        <time>2011-11-27T07:44:09Z</time>
      </trkpt>
      <trkpt lat="47.0352" lon="-1.1007">
        <ele>153.1</ele>
        <time>2011-11-27T07:44:10Z</time>
      </trkpt>
      <trkpt lat="47.03514" lon="-1.10081">
        <ele>152.9</ele>
        <time>2011-11-27T07:44:11Z</time>
      </trkpt>
      <trkpt lat="47.03512" lon="-1.1009">
        <ele>153.9</ele>
        <time>2011-11-27T07:44:12Z</time>
      </trkpt>
      <trkpt lat="47.03507" lon="-1.10101">
        <ele>155.2</ele>
        <time>2011-11-27T07:44:13Z</time>
      </trkpt>
      <trkpt lat="47.03503" lon="-1.1011">
        <ele>155.8</ele>
        <time>2011-11-27T07:44:14Z</time>
      </trkpt>
      <trkpt lat="47.035" lon="-1.1012">
        <ele>156.7</ele>
        <time>2011-11-27T07:44:15Z</time>
      </trkpt>
      <trkpt lat="47.03499" lon="-1.10127">
        <ele>157</ele>
        <time>2011-11-27T07:44:16Z</time>
      </trkpt>
      <trkpt lat="47.03498" lon="-1.10134">
        <ele>157</ele>
        <time>2011-11-27T07:44:17Z</time>
      </trkpt>
      <trkpt lat="47.03496" lon="-1.10143">
        <ele>157.7</ele>
        <time>2011-11-27T07:44:18Z</time>
      </trkpt>
      <trkpt lat="47.03495" lon="-1.10151">
        <ele>158.1</ele>
        <time>2011-11-27T07:44:19Z</time>
      </trkpt>
      <trkpt lat="47.03493" lon="-1.10158">
        <ele>158.1</ele>
        <time>2011-11-27T07:44:20Z</time>
      </trkpt>
      <trkpt lat="47.03492" lon="-1.10166">
        <ele>158</ele>
        <time>2011-11-27T07:44:21Z</time>
      </trkpt>
      <trkpt lat="47.0349" lon="-1.10179">
        <ele>158.1</ele>
        <time>2011-11-27T07:44:22Z</time>
      </trkpt>
      <trkpt lat="47.03487" lon="-1.10187">
        <ele>157.8</ele>
        <time>2011-11-27T07:44:24Z</time>
      </trkpt>
      <trkpt lat="47.03485" lon="-1.10193">
        <ele>157.9</ele>
        <time>2011-11-27T07:44:25Z</time>
      </trkpt>
      <trkpt lat="47.03484" lon="-1.102">
        <ele>158.1</ele>
        <time>2011-11-27T07:44:26Z</time>
      </trkpt>
      <trkpt lat="47.03482" lon="-1.10207">
        <ele>158.3</ele>
        <time>2011-11-27T07:44:27Z</time>
      </trkpt>
      <trkpt lat="47.03481" lon="-1.10218">
        <ele>158.2</ele>
        <time>2011-11-27T07:44:29Z</time>
      </trkpt>
      <trkpt lat="47.03481" lon="-1.10225">
        <ele>157.8</ele>
        <time>2011-11-27T07:44:30Z</time>
      </trkpt>
      <trkpt lat="47.0348" lon="-1.10231">
        <ele>157.7</ele>
        <time>2011-11-27T07:44:31Z</time>
      </trkpt>
      <trkpt lat="47.03477" lon="-1.10238">
        <ele>157.7</ele>
        <time>2011-11-27T07:44:32Z</time>
      </trkpt>
      <trkpt lat="47.03474" lon="-1.1025">
        <ele>157.7</ele>
        <time>2011-11-27T07:44:34Z</time>
      </trkpt>
      <trkpt lat="47.03471" lon="-1.10257">
        <ele>157.6</ele>
        <time>2011-11-27T07:44:35Z</time>
      </trkpt>
      <trkpt lat="47.03465" lon="-1.10267">
        <ele>158</ele>
        <time>2011-11-27T07:44:37Z</time>
      </trkpt>
      <trkpt lat="47.0346" lon="-1.10277">
        <ele>157.6</ele>
        <time>2011-11-27T07:44:39Z</time>
      </trkpt>
      <trkpt lat="47.03451" lon="-1.10284">
        <ele>157.6</ele>
        <time>2011-11-27T07:44:41Z</time>
      </trkpt>
      <trkpt lat="47.03445" lon="-1.1029">
        <ele>157.5</ele>
        <time>2011-11-27T07:44:42Z</time>
      </trkpt>
      <trkpt lat="47.0344" lon="-1.10297">
        <ele>157.6</ele>
        <time>2011-11-27T07:44:43Z</time>
      </trkpt>
      <trkpt lat="47.03429" lon="-1.10306">
        <ele>156.4</ele>
        <time>2011-11-27T07:44:45Z</time>
      </trkpt>
      <trkpt lat="47.03425" lon="-1.10312">
        <ele>156.6</ele>
        <time>2011-11-27T07:44:46Z</time>
      </trkpt>
      <trkpt lat="47.03423" lon="-1.10318">
        <ele>157</ele>
        <time>2011-11-27T07:44:47Z</time>
      </trkpt>
      <trkpt lat="47.03422" lon="-1.10329">
        <ele>156.8</ele>
        <time>2011-11-27T07:44:49Z</time>
      </trkpt>
      <trkpt lat="47.03424" lon="-1.10338">
        <ele>157.6</ele>
        <time>2011-11-27T07:44:51Z</time>
      </trkpt>
      <trkpt lat="47.03426" lon="-1.1035">
        <ele>158.2</ele>
        <time>2011-11-27T07:44:53Z</time>
      </trkpt>
      <trkpt lat="47.03429" lon="-1.10358">
        <ele>159</ele>
        <time>2011-11-27T07:44:55Z</time>
      </trkpt>
      <trkpt lat="47.03432" lon="-1.10372">
        <ele>158.5</ele>
        <time>2011-11-27T07:44:57Z</time>
      </trkpt>
      <trkpt lat="47.03434" lon="-1.10378">
        <ele>158</ele>
        <time>2011-11-27T07:44:58Z</time>
      </trkpt>
      <trkpt lat="47.03435" lon="-1.10385">
        <ele>158.2</ele>
        <time>2011-11-27T07:44:59Z</time>
      </trkpt>
      <trkpt lat="47.03437" lon="-1.10391">
        <ele>158.3</ele>
        <time>2011-11-27T07:45:00Z</time>
      </trkpt>
      <trkpt lat="47.03438" lon="-1.10398">
        <ele>158.3</ele>
        <time>2011-11-27T07:45:01Z</time>
      </trkpt>
      <trkpt lat="47.0344" lon="-1.10404">
        <ele>158.6</ele>
        <time>2011-11-27T07:45:02Z</time>
      </trkpt>
      <trkpt lat="47.03441" lon="-1.10411">
        <ele>158.7</ele>
        <time>2011-11-27T07:45:03Z</time>
      </trkpt>
      <trkpt lat="47.03443" lon="-1.10418">
        <ele>158.9</ele>
        <time>2011-11-27T07:45:04Z</time>
      </trkpt>
      <trkpt lat="47.03445" lon="-1.10425">
        <ele>159</ele>
        <time>2011-11-27T07:45:05Z</time>
      </trkpt>
      <trkpt lat="47.03447" lon="-1.10433">
        <ele>158.9</ele>
        <time>2011-11-27T07:45:06Z</time>
      </trkpt>
      <trkpt lat="47.03449" lon="-1.10439">
        <ele>159</ele>
        <time>2011-11-27T07:45:07Z</time>
      </trkpt>
      <trkpt lat="47.03453" lon="-1.10443">
        <ele>160.9</ele>
        <time>2011-11-27T07:45:09Z</time>
      </trkpt>
      <trkpt lat="47.03455" lon="-1.10449">
        <ele>160.6</ele>
        <time>2011-11-27T07:45:10Z</time>
      </trkpt>
      <trkpt lat="47.03456" lon="-1.10456">
        <ele>162.7</ele>
        <time>2011-11-27T07:45:11Z</time>
      </trkpt>
      <trkpt lat="47.03456" lon="-1.10464">
        <ele>162.4</ele>
        <time>2011-11-27T07:45:12Z</time>
      </trkpt>
      <trkpt lat="47.03458" lon="-1.10474">
        <ele>161.6</ele>
        <time>2011-11-27T07:45:13Z</time>
      </trkpt>
      <trkpt lat="47.03454" lon="-1.1049">
        <ele>160.9</ele>
        <time>2011-11-27T07:45:16Z</time>
      </trkpt>
      <trkpt lat="47.03452" lon="-1.10497">
        <ele>160.7</ele>
        <time>2011-11-27T07:45:17Z</time>
      </trkpt>
      <trkpt lat="47.03449" lon="-1.10502">
        <ele>160.1</ele>
        <time>2011-11-27T07:45:18Z</time>
      </trkpt>
      <trkpt lat="47.03442" lon="-1.10512">
        <ele>159.5</ele>
        <time>2011-11-27T07:45:20Z</time>
      </trkpt>
      <trkpt lat="47.03438" lon="-1.10518">
        <ele>158.9</ele>
        <time>2011-11-27T07:45:21Z</time>
      </trkpt>
      <trkpt lat="47.03433" lon="-1.10523">
        <ele>158.8</ele>
        <time>2011-11-27T07:45:22Z</time>
      </trkpt>
      <trkpt lat="47.03429" lon="-1.10528">
        <ele>158.6</ele>
        <time>2011-11-27T07:45:23Z</time>
      </trkpt>
      <trkpt lat="47.03424" lon="-1.10534">
        <ele>158.3</ele>
        <time>2011-11-27T07:45:24Z</time>
      </trkpt>
      <trkpt lat="47.0342" lon="-1.1054">
        <ele>158.1</ele>
        <time>2011-11-27T07:45:25Z</time>
      </trkpt>
      <trkpt lat="47.03415" lon="-1.10545">
        <ele>158.1</ele>
        <time>2011-11-27T07:45:26Z</time>
      </trkpt>
      <trkpt lat="47.03411" lon="-1.10551">
        <ele>158</ele>
        <time>2011-11-27T07:45:27Z</time>
      </trkpt>
      <trkpt lat="47.03407" lon="-1.10556">
        <ele>158.1</ele>
        <time>2011-11-27T07:45:28Z</time>
      </trkpt>
      <trkpt lat="47.03403" lon="-1.10562">
        <ele>157.9</ele>
        <time>2011-11-27T07:45:29Z</time>
      </trkpt>
      <trkpt lat="47.03399" lon="-1.10568">
        <ele>157.6</ele>
        <time>2011-11-27T07:45:30Z</time>
      </trkpt>
      <trkpt lat="47.03395" lon="-1.10572">
        <ele>157.6</ele>
        <time>2011-11-27T07:45:31Z</time>
      </trkpt>
      <trkpt lat="47.03391" lon="-1.10578">
        <ele>157.6</ele>
        <time>2011-11-27T07:45:32Z</time>
      </trkpt>
      <trkpt lat="47.03386" lon="-1.10582">
        <ele>157.6</ele>
        <time>2011-11-27T07:45:33Z</time>
      </trkpt>
      <trkpt lat="47.03382" lon="-1.10587">
        <ele>157.5</ele>
        <time>2011-11-27T07:45:34Z</time>
      </trkpt>
      <trkpt lat="47.03377" lon="-1.10591">
        <ele>157.7</ele>
        <time>2011-11-27T07:45:35Z</time>
      </trkpt>
      <trkpt lat="47.03373" lon="-1.10586">
        <ele>157.2</ele>
        <time>2011-11-27T07:45:36Z</time>
      </trkpt>
      <trkpt lat="47.0336" lon="-1.10582">
        <ele>157.6</ele>
        <time>2011-11-27T07:45:39Z</time>
      </trkpt>
      <trkpt lat="47.03355" lon="-1.10581">
        <ele>158.2</ele>
        <time>2011-11-27T07:45:40Z</time>
      </trkpt>
      <trkpt lat="47.0335" lon="-1.1058">
        <ele>158.3</ele>
        <time>2011-11-27T07:45:41Z</time>
      </trkpt>
      <trkpt lat="47.0334" lon="-1.10579">
        <ele>157.8</ele>
        <time>2011-11-27T07:45:43Z</time>
      </trkpt>
      <trkpt lat="47.03332" lon="-1.10578">
        <ele>157.3</ele>
        <time>2011-11-27T07:45:45Z</time>
      </trkpt>
      <trkpt lat="47.03326" lon="-1.1058">
        <ele>156.8</ele>
        <time>2011-11-27T07:45:46Z</time>
      </trkpt>
      <trkpt lat="47.03319" lon="-1.10582">
        <ele>156</ele>
        <time>2011-11-27T07:45:47Z</time>
      </trkpt>
      <trkpt lat="47.03313" lon="-1.10585">
        <ele>156.1</ele>
        <time>2011-11-27T07:45:48Z</time>
      </trkpt>
      <trkpt lat="47.03307" lon="-1.10586">
        <ele>155.7</ele>
        <time>2011-11-27T07:45:49Z</time>
      </trkpt>
      <trkpt lat="47.033" lon="-1.10587">
        <ele>155.3</ele>
        <time>2011-11-27T07:45:50Z</time>
      </trkpt>
      <trkpt lat="47.03292" lon="-1.10591">
        <ele>155</ele>
        <time>2011-11-27T07:45:51Z</time>
      </trkpt>
      <trkpt lat="47.03285" lon="-1.10592">
        <ele>154.8</ele>
        <time>2011-11-27T07:45:52Z</time>
      </trkpt>
      <trkpt lat="47.03278" lon="-1.10595">
        <ele>155.1</ele>
        <time>2011-11-27T07:45:53Z</time>
      </trkpt>
      <trkpt lat="47.03271" lon="-1.10598">
        <ele>154.7</ele>
        <time>2011-11-27T07:45:54Z</time>
      </trkpt>
      <trkpt lat="47.03264" lon="-1.106">
        <ele>154.3</ele>
        <time>2011-11-27T07:45:55Z</time>
      </trkpt>
      <trkpt lat="47.03256" lon="-1.10602">
        <ele>154.2</ele>
        <time>2011-11-27T07:45:56Z</time>
      </trkpt>
      <trkpt lat="47.03249" lon="-1.10604">
        <ele>154.2</ele>
        <time>2011-11-27T07:45:57Z</time>
      </trkpt>
      <trkpt lat="47.03242" lon="-1.10606">
        <ele>154.3</ele>
        <time>2011-11-27T07:45:58Z</time>
      </trkpt>
      <trkpt lat="47.03235" lon="-1.10607">
        <ele>154.4</ele>
        <time>2011-11-27T07:45:59Z</time>
      </trkpt>
      <trkpt lat="47.03228" lon="-1.1061">
        <ele>154.4</ele>
        <time>2011-11-27T07:46:00Z</time>
      </trkpt>
      <trkpt lat="47.03221" lon="-1.10612">
        <ele>154.1</ele>
        <time>2011-11-27T07:46:01Z</time>
      </trkpt>
      <trkpt lat="47.03214" lon="-1.10614">
        <ele>153.7</ele>
        <time>2011-11-27T07:46:02Z</time>
      </trkpt>
      <trkpt lat="47.03207" lon="-1.10616">
        <ele>153.7</ele>
        <time>2011-11-27T07:46:03Z</time>
      </trkpt>
      <trkpt lat="47.03201" lon="-1.10618">
        <ele>153.7</ele>
        <time>2011-11-27T07:46:04Z</time>
      </trkpt>
      <trkpt lat="47.03195" lon="-1.1062">
        <ele>153.6</ele>
        <time>2011-11-27T07:46:05Z</time>
      </trkpt>
      <trkpt lat="47.03188" lon="-1.10623">
        <ele>153.6</ele>
        <time>2011-11-27T07:46:06Z</time>
      </trkpt>
      <trkpt lat="47.03182" lon="-1.10626">
        <ele>153.2</ele>
        <time>2011-11-27T07:46:07Z</time>
      </trkpt>
      <trkpt lat="47.03176" lon="-1.10628">
        <ele>152.6</ele>
        <time>2011-11-27T07:46:08Z</time>
      </trkpt>
      <trkpt lat="47.0317" lon="-1.1063">
        <ele>152.1</ele>
        <time>2011-11-27T07:46:09Z</time>
      </trkpt>
      <trkpt lat="47.03163" lon="-1.10633">
        <ele>151.9</ele>
        <time>2011-11-27T07:46:10Z</time>
      </trkpt>
      <trkpt lat="47.03157" lon="-1.10636">
        <ele>151.5</ele>
        <time>2011-11-27T07:46:11Z</time>
      </trkpt>
      <trkpt lat="47.0315" lon="-1.10639">
        <ele>151.1</ele>
        <time>2011-11-27T07:46:12Z</time>
      </trkpt>
      <trkpt lat="47.03144" lon="-1.10642">
        <ele>150.9</ele>
        <time>2011-11-27T07:46:13Z</time>
      </trkpt>
      <trkpt lat="47.03137" lon="-1.10645">
        <ele>150.9</ele>
        <time>2011-11-27T07:46:14Z</time>
      </trkpt>
      <trkpt lat="47.0313" lon="-1.10649">
        <ele>150.8</ele>
        <time>2011-11-27T07:46:15Z</time>
      </trkpt>
      <trkpt lat="47.03124" lon="-1.10653">
        <ele>150.6</ele>
        <time>2011-11-27T07:46:16Z</time>
      </trkpt>
      <trkpt lat="47.03118" lon="-1.10654">
        <ele>150.2</ele>
        <time>2011-11-27T07:46:17Z</time>
      </trkpt>
      <trkpt lat="47.03111" lon="-1.10658">
        <ele>150.1</ele>
        <time>2011-11-27T07:46:18Z</time>
      </trkpt>
      <trkpt lat="47.03105" lon="-1.10662">
        <ele>149.4</ele>
        <time>2011-11-27T07:46:19Z</time>
      </trkpt>
      <trkpt lat="47.03099" lon="-1.10665">
        <ele>148.5</ele>
        <time>2011-11-27T07:46:20Z</time>
      </trkpt>
      <trkpt lat="47.03092" lon="-1.10669">
        <ele>148</ele>
        <time>2011-11-27T07:46:21Z</time>
      </trkpt>
      <trkpt lat="47.03088" lon="-1.10672">
        <ele>147.6</ele>
        <time>2011-11-27T07:46:22Z</time>
      </trkpt>
      <trkpt lat="47.03082" lon="-1.10676">
        <ele>148</ele>
        <time>2011-11-27T07:46:23Z</time>
      </trkpt>
      <trkpt lat="47.03076" lon="-1.1068">
        <ele>147.9</ele>
        <time>2011-11-27T07:46:24Z</time>
      </trkpt>
      <trkpt lat="47.03069" lon="-1.10683">
        <ele>148.1</ele>
        <time>2011-11-27T07:46:25Z</time>
      </trkpt>
      <trkpt lat="47.03063" lon="-1.10687">
        <ele>147.9</ele>
        <time>2011-11-27T07:46:26Z</time>
      </trkpt>
      <trkpt lat="47.03056" lon="-1.10691">
        <ele>147.9</ele>
        <time>2011-11-27T07:46:27Z</time>
      </trkpt>
      <trkpt lat="47.03051" lon="-1.10695">
        <ele>147.9</ele>
        <time>2011-11-27T07:46:28Z</time>
      </trkpt>
      <trkpt lat="47.03045" lon="-1.10699">
        <ele>147.8</ele>
        <time>2011-11-27T07:46:29Z</time>
      </trkpt>
      <trkpt lat="47.03039" lon="-1.10702">
        <ele>147.6</ele>
        <time>2011-11-27T07:46:30Z</time>
      </trkpt>
      <trkpt lat="47.03033" lon="-1.10706">
        <ele>147.7</ele>
        <time>2011-11-27T07:46:31Z</time>
      </trkpt>
      <trkpt lat="47.03027" lon="-1.10709">
        <ele>148.2</ele>
        <time>2011-11-27T07:46:32Z</time>
      </trkpt>
      <trkpt lat="47.03022" lon="-1.10711">
        <ele>148.7</ele>
        <time>2011-11-27T07:46:33Z</time>
      </trkpt>
      <trkpt lat="47.03015" lon="-1.10714">
        <ele>148.7</ele>
        <time>2011-11-27T07:46:34Z</time>
      </trkpt>
      <trkpt lat="47.0301" lon="-1.10715">
        <ele>149.2</ele>
        <time>2011-11-27T07:46:35Z</time>
      </trkpt>
      <trkpt lat="47.03004" lon="-1.10716">
        <ele>149.2</ele>
        <time>2011-11-27T07:46:36Z</time>
      </trkpt>
      <trkpt lat="47.02996" lon="-1.10718">
        <ele>148.9</ele>
        <time>2011-11-27T07:46:37Z</time>
      </trkpt>
      <trkpt lat="47.0299" lon="-1.1072">
        <ele>149.2</ele>
        <time>2011-11-27T07:46:38Z</time>
      </trkpt>
      <trkpt lat="47.02983" lon="-1.10719">
        <ele>148.4</ele>
        <time>2011-11-27T07:46:39Z</time>
      </trkpt>
      <trkpt lat="47.02977" lon="-1.1072">
        <ele>148</ele>
        <time>2011-11-27T07:46:40Z</time>
      </trkpt>
      <trkpt lat="47.02971" lon="-1.10722">
        <ele>147.9</ele>
        <time>2011-11-27T07:46:41Z</time>
      </trkpt>
      <trkpt lat="47.02966" lon="-1.10724">
        <ele>147.8</ele>
        <time>2011-11-27T07:46:42Z</time>
      </trkpt>
      <trkpt lat="47.0296" lon="-1.10726">
        <ele>147.9</ele>
        <time>2011-11-27T07:46:43Z</time>
      </trkpt>
      <trkpt lat="47.02954" lon="-1.10727">
        <ele>147.5</ele>
        <time>2011-11-27T07:46:44Z</time>
      </trkpt>
      <trkpt lat="47.02946" lon="-1.10727">
        <ele>147.6</ele>
        <time>2011-11-27T07:46:45Z</time>
      </trkpt>
      <trkpt lat="47.0294" lon="-1.1073">
        <ele>146.9</ele>
        <time>2011-11-27T07:46:46Z</time>
      </trkpt>
      <trkpt lat="47.02934" lon="-1.10732">
        <ele>147</ele>
        <time>2011-11-27T07:46:47Z</time>
      </trkpt>
      <trkpt lat="47.02928" lon="-1.10734">
        <ele>147</ele>
        <time>2011-11-27T07:46:48Z</time>
      </trkpt>
      <trkpt lat="47.02922" lon="-1.10737">
        <ele>147.2</ele>
        <time>2011-11-27T07:46:49Z</time>
      </trkpt>
      <trkpt lat="47.02916" lon="-1.1074">
        <ele>147.2</ele>
        <time>2011-11-27T07:46:50Z</time>
      </trkpt>
      <trkpt lat="47.0291" lon="-1.10742">
        <ele>147.1</ele>
        <time>2011-11-27T07:46:51Z</time>
      </trkpt>
      <trkpt lat="47.02905" lon="-1.10745">
        <ele>147</ele>
        <time>2011-11-27T07:46:52Z</time>
      </trkpt>
      <trkpt lat="47.02899" lon="-1.10747">
        <ele>146.5</ele>
        <time>2011-11-27T07:46:53Z</time>
      </trkpt>
      <trkpt lat="47.02892" lon="-1.1075">
        <ele>146.4</ele>
        <time>2011-11-27T07:46:54Z</time>
      </trkpt>
      <trkpt lat="47.02887" lon="-1.10753">
        <ele>146.3</ele>
        <time>2011-11-27T07:46:55Z</time>
      </trkpt>
      <trkpt lat="47.02881" lon="-1.10756">
        <ele>145.8</ele>
        <time>2011-11-27T07:46:56Z</time>
      </trkpt>
      <trkpt lat="47.02875" lon="-1.10758">
        <ele>145.7</ele>
        <time>2011-11-27T07:46:57Z</time>
      </trkpt>
      <trkpt lat="47.02869" lon="-1.10762">
        <ele>145.5</ele>
        <time>2011-11-27T07:46:58Z</time>
      </trkpt>
      <trkpt lat="47.02863" lon="-1.10765">
        <ele>145.7</ele>
        <time>2011-11-27T07:46:59Z</time>
      </trkpt>
      <trkpt lat="47.02857" lon="-1.10768">
        <ele>145.8</ele>
        <time>2011-11-27T07:47:00Z</time>
      </trkpt>
      <trkpt lat="47.02852" lon="-1.10772">
        <ele>146.3</ele>
        <time>2011-11-27T07:47:01Z</time>
      </trkpt>
      <trkpt lat="47.02846" lon="-1.10776">
        <ele>147</ele>
        <time>2011-11-27T07:47:02Z</time>
      </trkpt>
      <trkpt lat="47.02841" lon="-1.10781">
        <ele>146.8</ele>
        <time>2011-11-27T07:47:03Z</time>
      </trkpt>
      <trkpt lat="47.02836" lon="-1.10786">
        <ele>146.3</ele>
        <time>2011-11-27T07:47:04Z</time>
      </trkpt>
      <trkpt lat="47.02831" lon="-1.10791">
        <ele>145.5</ele>
        <time>2011-11-27T07:47:05Z</time>
      </trkpt>
      <trkpt lat="47.02827" lon="-1.10796">
        <ele>145.4</ele>
        <time>2011-11-27T07:47:06Z</time>
      </trkpt>
      <trkpt lat="47.02822" lon="-1.10801">
        <ele>145.4</ele>
        <time>2011-11-27T07:47:07Z</time>
      </trkpt>
      <trkpt lat="47.02817" lon="-1.10806">
        <ele>145.2</ele>
        <time>2011-11-27T07:47:08Z</time>
      </trkpt>
      <trkpt lat="47.02812" lon="-1.10811">
        <ele>145</ele>
        <time>2011-11-27T07:47:09Z</time>
      </trkpt>
      <trkpt lat="47.02806" lon="-1.10816">
        <ele>144.8</ele>
        <time>2011-11-27T07:47:10Z</time>
      </trkpt>
      <trkpt lat="47.02801" lon="-1.1082">
        <ele>144.6</ele>
        <time>2011-11-27T07:47:11Z</time>
      </trkpt>
      <trkpt lat="47.02795" lon="-1.10825">
        <ele>144.4</ele>
        <time>2011-11-27T07:47:12Z</time>
      </trkpt>
      <trkpt lat="47.02789" lon="-1.10829">
        <ele>144.4</ele>
        <time>2011-11-27T07:47:13Z</time>
      </trkpt>
      <trkpt lat="47.0278" lon="-1.10834">
        <ele>144.1</ele>
        <time>2011-11-27T07:47:14Z</time>
      </trkpt>
      <trkpt lat="47.02773" lon="-1.10839">
        <ele>144.1</ele>
        <time>2011-11-27T07:47:15Z</time>
      </trkpt>
      <trkpt lat="47.02765" lon="-1.10842">
        <ele>143.9</ele>
        <time>2011-11-27T07:47:16Z</time>
      </trkpt>
      <trkpt lat="47.02756" lon="-1.10846">
        <ele>143.5</ele>
        <time>2011-11-27T07:47:17Z</time>
      </trkpt>
      <trkpt lat="47.02749" lon="-1.10849">
        <ele>143.6</ele>
        <time>2011-11-27T07:47:18Z</time>
      </trkpt>
      <trkpt lat="47.02741" lon="-1.10853">
        <ele>143.8</ele>
        <time>2011-11-27T07:47:19Z</time>
      </trkpt>
      <trkpt lat="47.02735" lon="-1.10857">
        <ele>143.4</ele>
        <time>2011-11-27T07:47:20Z</time>
      </trkpt>
      <trkpt lat="47.02727" lon="-1.10861">
        <ele>143.4</ele>
        <time>2011-11-27T07:47:21Z</time>
      </trkpt>
      <trkpt lat="47.0272" lon="-1.10866">
        <ele>143.7</ele>
        <time>2011-11-27T07:47:22Z</time>
      </trkpt>
      <trkpt lat="47.02714" lon="-1.10868">
        <ele>143.2</ele>
        <time>2011-11-27T07:47:23Z</time>
      </trkpt>
      <trkpt lat="47.02708" lon="-1.10871">
        <ele>143.1</ele>
        <time>2011-11-27T07:47:24Z</time>
      </trkpt>
      <trkpt lat="47.02701" lon="-1.10873">
        <ele>141.9</ele>
        <time>2011-11-27T07:47:25Z</time>
      </trkpt>
      <trkpt lat="47.02695" lon="-1.10874">
        <ele>141.7</ele>
        <time>2011-11-27T07:47:26Z</time>
      </trkpt>
      <trkpt lat="47.0269" lon="-1.10874">
        <ele>140.8</ele>
        <time>2011-11-27T07:47:27Z</time>
      </trkpt>
      <trkpt lat="47.02684" lon="-1.10877">
        <ele>140.4</ele>
        <time>2011-11-27T07:47:28Z</time>
      </trkpt>
      <trkpt lat="47.02678" lon="-1.1088">
        <ele>140.2</ele>
        <time>2011-11-27T07:47:29Z</time>
      </trkpt>
      <trkpt lat="47.02672" lon="-1.10882">
        <ele>140.1</ele>
        <time>2011-11-27T07:47:30Z</time>
      </trkpt>
      <trkpt lat="47.02664" lon="-1.10882">
        <ele>140</ele>
        <time>2011-11-27T07:47:31Z</time>
      </trkpt>
      <trkpt lat="47.02658" lon="-1.10882">
        <ele>140.1</ele>
        <time>2011-11-27T07:47:32Z</time>
      </trkpt>
      <trkpt lat="47.0265" lon="-1.10883">
        <ele>140.3</ele>
        <time>2011-11-27T07:47:33Z</time>
      </trkpt>
      <trkpt lat="47.02643" lon="-1.10884">
        <ele>139.7</ele>
        <time>2011-11-27T07:47:34Z</time>
      </trkpt>
      <trkpt lat="47.02637" lon="-1.10885">
        <ele>139.1</ele>
        <time>2011-11-27T07:47:35Z</time>
      </trkpt>
      <trkpt lat="47.02631" lon="-1.10887">
        <ele>139.1</ele>
        <time>2011-11-27T07:47:36Z</time>
      </trkpt>
      <trkpt lat="47.02624" lon="-1.10889">
        <ele>138.9</ele>
        <time>2011-11-27T07:47:37Z</time>
      </trkpt>
      <trkpt lat="47.02618" lon="-1.10891">
        <ele>139.2</ele>
        <time>2011-11-27T07:47:38Z</time>
      </trkpt>
      <trkpt lat="47.02612" lon="-1.10895">
        <ele>139.6</ele>
        <time>2011-11-27T07:47:39Z</time>
      </trkpt>
      <trkpt lat="47.02604" lon="-1.10897">
        <ele>139</ele>
        <time>2011-11-27T07:47:40Z</time>
      </trkpt>
      <trkpt lat="47.02596" lon="-1.109">
        <ele>139.2</ele>
        <time>2011-11-27T07:47:41Z</time>
      </trkpt>
      <trkpt lat="47.02588" lon="-1.10903">
        <ele>138.7</ele>
        <time>2011-11-27T07:47:42Z</time>
      </trkpt>
      <trkpt lat="47.02581" lon="-1.10905">
        <ele>138.2</ele>
        <time>2011-11-27T07:47:43Z</time>
      </trkpt>
      <trkpt lat="47.02572" lon="-1.10908">
        <ele>137.7</ele>
        <time>2011-11-27T07:47:44Z</time>
      </trkpt>
      <trkpt lat="47.02565" lon="-1.10913">
        <ele>137.7</ele>
        <time>2011-11-27T07:47:45Z</time>
      </trkpt>
      <trkpt lat="47.02557" lon="-1.10916">
        <ele>137.3</ele>
        <time>2011-11-27T07:47:46Z</time>
      </trkpt>
      <trkpt lat="47.02548" lon="-1.1092">
        <ele>137</ele>
        <time>2011-11-27T07:47:47Z</time>
      </trkpt>
      <trkpt lat="47.0254" lon="-1.10923">
        <ele>136.1</ele>
        <time>2011-11-27T07:47:48Z</time>
      </trkpt>
      <trkpt lat="47.02532" lon="-1.10928">
        <ele>135.3</ele>
        <time>2011-11-27T07:47:49Z</time>
      </trkpt>
      <trkpt lat="47.02524" lon="-1.10932">
        <ele>134.8</ele>
        <time>2011-11-27T07:47:50Z</time>
      </trkpt>
      <trkpt lat="47.02515" lon="-1.10937">
        <ele>134.7</ele>
        <time>2011-11-27T07:47:51Z</time>
      </trkpt>
      <trkpt lat="47.02506" lon="-1.10941">
        <ele>134.7</ele>
        <time>2011-11-27T07:47:52Z</time>
      </trkpt>
      <trkpt lat="47.02498" lon="-1.10944">
        <ele>134.5</ele>
        <time>2011-11-27T07:47:53Z</time>
      </trkpt>
      <trkpt lat="47.02488" lon="-1.10946">
        <ele>134.5</ele>
        <time>2011-11-27T07:47:54Z</time>
      </trkpt>
      <trkpt lat="47.0248" lon="-1.10948">
        <ele>134.5</ele>
        <time>2011-11-27T07:47:55Z</time>
      </trkpt>
      <trkpt lat="47.02472" lon="-1.10951">
        <ele>134</ele>
        <time>2011-11-27T07:47:56Z</time>
      </trkpt>
      <trkpt lat="47.02464" lon="-1.10956">
        <ele>134.1</ele>
        <time>2011-11-27T07:47:57Z</time>
      </trkpt>
      <trkpt lat="47.02456" lon="-1.1096">
        <ele>133.9</ele>
        <time>2011-11-27T07:47:58Z</time>
      </trkpt>
      <trkpt lat="47.02448" lon="-1.10965">
        <ele>133.6</ele>
        <time>2011-11-27T07:47:59Z</time>
      </trkpt>
      <trkpt lat="47.02442" lon="-1.10969">
        <ele>133.6</ele>
        <time>2011-11-27T07:48:00Z</time>
      </trkpt>
      <trkpt lat="47.02435" lon="-1.10974">
        <ele>133.8</ele>
        <time>2011-11-27T07:48:01Z</time>
      </trkpt>
      <trkpt lat="47.02428" lon="-1.10978">
        <ele>133.6</ele>
        <time>2011-11-27T07:48:02Z</time>
      </trkpt>
      <trkpt lat="47.02421" lon="-1.10983">
        <ele>133.4</ele>
        <time>2011-11-27T07:48:03Z</time>
      </trkpt>
      <trkpt lat="47.02414" lon="-1.10988">
        <ele>133.4</ele>
        <time>2011-11-27T07:48:04Z</time>
      </trkpt>
      <trkpt lat="47.02401" lon="-1.10995">
        <ele>133.9</ele>
        <time>2011-11-27T07:48:06Z</time>
      </trkpt>
      <trkpt lat="47.02395" lon="-1.10998">
        <ele>134.1</ele>
        <time>2011-11-27T07:48:07Z</time>
      </trkpt>
      <trkpt lat="47.0239" lon="-1.11002">
        <ele>134</ele>
        <time>2011-11-27T07:48:08Z</time>
      </trkpt>
      <trkpt lat="47.02385" lon="-1.11006">
        <ele>133.9</ele>
        <time>2011-11-27T07:48:09Z</time>
      </trkpt>
      <trkpt lat="47.02381" lon="-1.11009">
        <ele>134.3</ele>
        <time>2011-11-27T07:48:10Z</time>
      </trkpt>
      <trkpt lat="47.02376" lon="-1.1101">
        <ele>135.1</ele>
        <time>2011-11-27T07:48:12Z</time>
      </trkpt>
      <trkpt lat="47.0237" lon="-1.11008">
        <ele>136.2</ele>
        <time>2011-11-27T07:48:14Z</time>
      </trkpt>
      <trkpt lat="47.02365" lon="-1.11003">
        <ele>137.2</ele>
        <time>2011-11-27T07:48:16Z</time>
      </trkpt>
      <trkpt lat="47.02359" lon="-1.10998">
        <ele>138</ele>
        <time>2011-11-27T07:48:18Z</time>
      </trkpt>
      <trkpt lat="47.02353" lon="-1.10992">
        <ele>138.1</ele>
        <time>2011-11-27T07:48:20Z</time>
      </trkpt>
      <trkpt lat="47.02349" lon="-1.10989">
        <ele>138.4</ele>
        <time>2011-11-27T07:48:21Z</time>
      </trkpt>
      <trkpt lat="47.02344" lon="-1.10986">
        <ele>137.9</ele>
        <time>2011-11-27T07:48:23Z</time>
      </trkpt>
      <trkpt lat="47.02339" lon="-1.1098">
        <ele>137.5</ele>
        <time>2011-11-27T07:48:25Z</time>
      </trkpt>
      <trkpt lat="47.02333" lon="-1.10968">
        <ele>138.2</ele>
        <time>2011-11-27T07:48:27Z</time>
      </trkpt>
      <trkpt lat="47.02328" lon="-1.10966">
        <ele>138.8</ele>
        <time>2011-11-27T07:48:28Z</time>
      </trkpt>
      <trkpt lat="47.02319" lon="-1.10957">
        <ele>138.7</ele>
        <time>2011-11-27T07:48:30Z</time>
      </trkpt>
      <trkpt lat="47.02318" lon="-1.1095">
        <ele>137.6</ele>
        <time>2011-11-27T07:48:31Z</time>
      </trkpt>
      <trkpt lat="47.02313" lon="-1.10962">
        <ele>139.9</ele>
        <time>2011-11-27T07:48:33Z</time>
      </trkpt>
      <trkpt lat="47.02309" lon="-1.10969">
        <ele>141</ele>
        <time>2011-11-27T07:48:34Z</time>
      </trkpt>
      <trkpt lat="47.02305" lon="-1.10975">
        <ele>141</ele>
        <time>2011-11-27T07:48:36Z</time>
      </trkpt>
      <trkpt lat="47.023" lon="-1.10981">
        <ele>141.1</ele>
        <time>2011-11-27T07:48:37Z</time>
      </trkpt>
      <trkpt lat="47.02295" lon="-1.10986">
        <ele>141.3</ele>
        <time>2011-11-27T07:48:39Z</time>
      </trkpt>
      <trkpt lat="47.0229" lon="-1.10994">
        <ele>140.9</ele>
        <time>2011-11-27T07:48:41Z</time>
      </trkpt>
      <trkpt lat="47.02279" lon="-1.11001">
        <ele>139.8</ele>
        <time>2011-11-27T07:48:44Z</time>
      </trkpt>
      <trkpt lat="47.02274" lon="-1.11007">
        <ele>140.5</ele>
        <time>2011-11-27T07:48:45Z</time>
      </trkpt>
      <trkpt lat="47.02267" lon="-1.11015">
        <ele>140.7</ele>
        <time>2011-11-27T07:48:47Z</time>
      </trkpt>
      <trkpt lat="47.02261" lon="-1.11026">
        <ele>140.5</ele>
        <time>2011-11-27T07:48:50Z</time>
      </trkpt>
      <trkpt lat="47.02256" lon="-1.1103">
        <ele>140.7</ele>
        <time>2011-11-27T07:48:51Z</time>
      </trkpt>
      <trkpt lat="47.02252" lon="-1.11035">
        <ele>141.1</ele>
        <time>2011-11-27T07:48:52Z</time>
      </trkpt>
      <trkpt lat="47.02248" lon="-1.11042">
        <ele>141.3</ele>
        <time>2011-11-27T07:48:55Z</time>
      </trkpt>
      <trkpt lat="47.02242" lon="-1.11048">
        <ele>140.1</ele>
        <time>2011-11-27T07:48:57Z</time>
      </trkpt>
      <trkpt lat="47.02235" lon="-1.11056">
        <ele>140.6</ele>
        <time>2011-11-27T07:48:58Z</time>
      </trkpt>
      <trkpt lat="47.0223" lon="-1.11058">
        <ele>140.3</ele>
        <time>2011-11-27T07:49:00Z</time>
      </trkpt>
      <trkpt lat="47.02226" lon="-1.11063">
        <ele>141.4</ele>
        <time>2011-11-27T07:49:01Z</time>
      </trkpt>
      <trkpt lat="47.02222" lon="-1.11067">
        <ele>142.6</ele>
        <time>2011-11-27T07:49:02Z</time>
      </trkpt>
      <trkpt lat="47.02213" lon="-1.11074">
        <ele>143.2</ele>
        <time>2011-11-27T07:49:04Z</time>
      </trkpt>
      <trkpt lat="47.02209" lon="-1.1108">
        <ele>143.1</ele>
        <time>2011-11-27T07:49:06Z</time>
      </trkpt>
      <trkpt lat="47.02204" lon="-1.11086">
        <ele>141.3</ele>
        <time>2011-11-27T07:49:08Z</time>
      </trkpt>
      <trkpt lat="47.02198" lon="-1.11089">
        <ele>141.5</ele>
        <time>2011-11-27T07:49:10Z</time>
      </trkpt>
      <trkpt lat="47.02192" lon="-1.11091">
        <ele>143</ele>
        <time>2011-11-27T07:49:13Z</time>
      </trkpt>
      <trkpt lat="47.02187" lon="-1.11089">
        <ele>143.2</ele>
        <time>2011-11-27T07:49:15Z</time>
      </trkpt>
      <trkpt lat="47.02183" lon="-1.1109">
        <ele>143.4</ele>
        <time>2011-11-27T07:49:17Z</time>
      </trkpt>
      <trkpt lat="47.02178" lon="-1.11089">
        <ele>144.8</ele>
        <time>2011-11-27T07:49:18Z</time>
      </trkpt>
      <trkpt lat="47.02167" lon="-1.11093">
        <ele>145.3</ele>
        <time>2011-11-27T07:49:21Z</time>
      </trkpt>
      <trkpt lat="47.02162" lon="-1.11092">
        <ele>146.1</ele>
        <time>2011-11-27T07:49:22Z</time>
      </trkpt>
      <trkpt lat="47.02158" lon="-1.11094">
        <ele>145.8</ele>
        <time>2011-11-27T07:49:23Z</time>
      </trkpt>
      <trkpt lat="47.02151" lon="-1.11095">
        <ele>145.6</ele>
        <time>2011-11-27T07:49:25Z</time>
      </trkpt>
      <trkpt lat="47.02144" lon="-1.11094">
        <ele>147</ele>
        <time>2011-11-27T07:49:26Z</time>
      </trkpt>
      <trkpt lat="47.02139" lon="-1.11096">
        <ele>147.6</ele>
        <time>2011-11-27T07:49:28Z</time>
      </trkpt>
      <trkpt lat="47.02132" lon="-1.11097">
        <ele>147.6</ele>
        <time>2011-11-27T07:49:30Z</time>
      </trkpt>
      <trkpt lat="47.02124" lon="-1.11098">
        <ele>148.6</ele>
        <time>2011-11-27T07:49:31Z</time>
      </trkpt>
      <trkpt lat="47.02117" lon="-1.11096">
        <ele>149.4</ele>
        <time>2011-11-27T07:49:33Z</time>
      </trkpt>
      <trkpt lat="47.02107" lon="-1.11098">
        <ele>148.7</ele>
        <time>2011-11-27T07:49:35Z</time>
      </trkpt>
      <trkpt lat="47.02096" lon="-1.11094">
        <ele>148.2</ele>
        <time>2011-11-27T07:49:37Z</time>
      </trkpt>
      <trkpt lat="47.02089" lon="-1.11094">
        <ele>147.2</ele>
        <time>2011-11-27T07:49:38Z</time>
      </trkpt>
      <trkpt lat="47.02081" lon="-1.11091">
        <ele>146</ele>
        <time>2011-11-27T07:49:39Z</time>
      </trkpt>
      <trkpt lat="47.02076" lon="-1.11092">
        <ele>144.5</ele>
        <time>2011-11-27T07:49:40Z</time>
      </trkpt>
      <trkpt lat="47.02071" lon="-1.11092">
        <ele>144.1</ele>
        <time>2011-11-27T07:49:41Z</time>
      </trkpt>
      <trkpt lat="47.02066" lon="-1.11092">
        <ele>144.3</ele>
        <time>2011-11-27T07:49:42Z</time>
      </trkpt>
      <trkpt lat="47.02058" lon="-1.1109">
        <ele>144.4</ele>
        <time>2011-11-27T07:49:43Z</time>
      </trkpt>
      <trkpt lat="47.02051" lon="-1.11084">
        <ele>143.7</ele>
        <time>2011-11-27T07:49:44Z</time>
      </trkpt>
      <trkpt lat="47.02044" lon="-1.11086">
        <ele>143.3</ele>
        <time>2011-11-27T07:49:46Z</time>
      </trkpt>
      <trkpt lat="47.02039" lon="-1.11085">
        <ele>142.3</ele>
        <time>2011-11-27T07:49:47Z</time>
      </trkpt>
      <trkpt lat="47.02033" lon="-1.11085">
        <ele>141.8</ele>
        <time>2011-11-27T07:49:48Z</time>
      </trkpt>
      <trkpt lat="47.02024" lon="-1.11084">
        <ele>141.5</ele>
        <time>2011-11-27T07:49:49Z</time>
      </trkpt>
      <trkpt lat="47.02018" lon="-1.11083">
        <ele>141.5</ele>
        <time>2011-11-27T07:49:50Z</time>
      </trkpt>
      <trkpt lat="47.02012" lon="-1.1108">
        <ele>142</ele>
        <time>2011-11-27T07:49:52Z</time>
      </trkpt>
      <trkpt lat="47.02006" lon="-1.11076">
        <ele>141.9</ele>
        <time>2011-11-27T07:49:53Z</time>
      </trkpt>
      <trkpt lat="47.01999" lon="-1.11078">
        <ele>142.2</ele>
        <time>2011-11-27T07:49:54Z</time>
      </trkpt>
      <trkpt lat="47.01992" lon="-1.11077">
        <ele>141.2</ele>
        <time>2011-11-27T07:49:55Z</time>
      </trkpt>
      <trkpt lat="47.01981" lon="-1.11076">
        <ele>141.2</ele>
        <time>2011-11-27T07:49:57Z</time>
      </trkpt>
      <trkpt lat="47.01974" lon="-1.11078">
        <ele>142.1</ele>
        <time>2011-11-27T07:49:58Z</time>
      </trkpt>
      <trkpt lat="47.01965" lon="-1.11069">
        <ele>140.3</ele>
        <time>2011-11-27T07:50:00Z</time>
      </trkpt>
      <trkpt lat="47.01959" lon="-1.11064">
        <ele>140.1</ele>
        <time>2011-11-27T07:50:01Z</time>
      </trkpt>
      <trkpt lat="47.01953" lon="-1.11057">
        <ele>139.3</ele>
        <time>2011-11-27T07:50:02Z</time>
      </trkpt>
      <trkpt lat="47.01947" lon="-1.11055">
        <ele>139.7</ele>
        <time>2011-11-27T07:50:03Z</time>
      </trkpt>
      <trkpt lat="47.01941" lon="-1.11053">
        <ele>138.1</ele>
        <time>2011-11-27T07:50:04Z</time>
      </trkpt>
      <trkpt lat="47.01934" lon="-1.11046">
        <ele>137.6</ele>
        <time>2011-11-27T07:50:05Z</time>
      </trkpt>
      <trkpt lat="47.01928" lon="-1.11043">
        <ele>136.4</ele>
        <time>2011-11-27T07:50:06Z</time>
      </trkpt>
      <trkpt lat="47.01921" lon="-1.11038">
        <ele>136.1</ele>
        <time>2011-11-27T07:50:07Z</time>
      </trkpt>
      <trkpt lat="47.01915" lon="-1.11031">
        <ele>136</ele>
        <time>2011-11-27T07:50:08Z</time>
      </trkpt>
      <trkpt lat="47.01907" lon="-1.11025">
        <ele>136.6</ele>
        <time>2011-11-27T07:50:09Z</time>
      </trkpt>
      <trkpt lat="47.01902" lon="-1.11018">
        <ele>137.3</ele>
        <time>2011-11-27T07:50:10Z</time>
      </trkpt>
      <trkpt lat="47.01896" lon="-1.11011">
        <ele>137.8</ele>
        <time>2011-11-27T07:50:11Z</time>
      </trkpt>
      <trkpt lat="47.01888" lon="-1.11006">
        <ele>137.3</ele>
        <time>2011-11-27T07:50:12Z</time>
      </trkpt>
      <trkpt lat="47.01881" lon="-1.11002">
        <ele>137.4</ele>
        <time>2011-11-27T07:50:13Z</time>
      </trkpt>
      <trkpt lat="47.01875" lon="-1.10997">
        <ele>137.8</ele>
        <time>2011-11-27T07:50:14Z</time>
      </trkpt>
      <trkpt lat="47.01869" lon="-1.1099">
        <ele>137.6</ele>
        <time>2011-11-27T07:50:16Z</time>
      </trkpt>
      <trkpt lat="47.01859" lon="-1.10984">
        <ele>138</ele>
        <time>2011-11-27T07:50:18Z</time>
      </trkpt>
      <trkpt lat="47.01852" lon="-1.10989">
        <ele>138.3</ele>
        <time>2011-11-27T07:50:20Z</time>
      </trkpt>
      <trkpt lat="47.01848" lon="-1.10993">
        <ele>138.6</ele>
        <time>2011-11-27T07:50:21Z</time>
      </trkpt>
      <trkpt lat="47.01839" lon="-1.10998">
        <ele>139.5</ele>
        <time>2011-11-27T07:50:23Z</time>
      </trkpt>
      <trkpt lat="47.01829" lon="-1.11004">
        <ele>140.3</ele>
        <time>2011-11-27T07:50:25Z</time>
      </trkpt>
      <trkpt lat="47.01822" lon="-1.1101">
        <ele>139.8</ele>
        <time>2011-11-27T07:50:27Z</time>
      </trkpt>
      <trkpt lat="47.01818" lon="-1.11015">
        <ele>139.5</ele>
        <time>2011-11-27T07:50:28Z</time>
      </trkpt>
      <trkpt lat="47.01809" lon="-1.11015">
        <ele>139.7</ele>
        <time>2011-11-27T07:50:29Z</time>
      </trkpt>
      <trkpt lat="47.01797" lon="-1.1102">
        <ele>139.9</ele>
        <time>2011-11-27T07:50:30Z</time>
      </trkpt>
      <trkpt lat="47.01782" lon="-1.11015">
        <ele>139.6</ele>
        <time>2011-11-27T07:50:32Z</time>
      </trkpt>
      <trkpt lat="47.0177" lon="-1.11014">
        <ele>136.6</ele>
        <time>2011-11-27T07:50:33Z</time>
      </trkpt>
      <trkpt lat="47.01753" lon="-1.11014">
        <ele>134.6</ele>
        <time>2011-11-27T07:50:34Z</time>
      </trkpt>
      <trkpt lat="47.01746" lon="-1.11008">
        <ele>133.5</ele>
        <time>2011-11-27T07:50:35Z</time>
      </trkpt>
      <trkpt lat="47.01737" lon="-1.11009">
        <ele>132.5</ele>
        <time>2011-11-27T07:50:37Z</time>
      </trkpt>
      <trkpt lat="47.01731" lon="-1.1101">
        <ele>132.1</ele>
        <time>2011-11-27T07:50:38Z</time>
      </trkpt>
      <trkpt lat="47.01723" lon="-1.11008">
        <ele>131.9</ele>
        <time>2011-11-27T07:50:39Z</time>
      </trkpt>
      <trkpt lat="47.01714" lon="-1.11009">
        <ele>131.1</ele>
        <time>2011-11-27T07:50:41Z</time>
      </trkpt>
      <trkpt lat="47.01713" lon="-1.1102">
        <ele>131</ele>
        <time>2011-11-27T07:50:44Z</time>
      </trkpt>
      <trkpt lat="47.01704" lon="-1.11013">
        <ele>129.2</ele>
        <time>2011-11-27T07:50:45Z</time>
      </trkpt>
      <trkpt lat="47.01696" lon="-1.11013">
        <ele>128.9</ele>
        <time>2011-11-27T07:50:46Z</time>
      </trkpt>
      <trkpt lat="47.0169" lon="-1.11011">
        <ele>127.4</ele>
        <time>2011-11-27T07:50:48Z</time>
      </trkpt>
      <trkpt lat="47.01685" lon="-1.11012">
        <ele>126.8</ele>
        <time>2011-11-27T07:50:49Z</time>
      </trkpt>
      <trkpt lat="47.0168" lon="-1.11015">
        <ele>125.9</ele>
        <time>2011-11-27T07:50:50Z</time>
      </trkpt>
      <trkpt lat="47.01676" lon="-1.1102">
        <ele>125.4</ele>
        <time>2011-11-27T07:50:51Z</time>
      </trkpt>
      <trkpt lat="47.01673" lon="-1.1103">
        <ele>122.8</ele>
        <time>2011-11-27T07:50:53Z</time>
      </trkpt>
      <trkpt lat="47.01672" lon="-1.1104">
        <ele>120.2</ele>
        <time>2011-11-27T07:50:55Z</time>
      </trkpt>
      <trkpt lat="47.01669" lon="-1.11045">
        <ele>119.8</ele>
        <time>2011-11-27T07:50:57Z</time>
      </trkpt>
      <trkpt lat="47.01664" lon="-1.11045">
        <ele>118.8</ele>
        <time>2011-11-27T07:50:58Z</time>
      </trkpt>
      <trkpt lat="47.01659" lon="-1.11048">
        <ele>117.2</ele>
        <time>2011-11-27T07:50:59Z</time>
      </trkpt>
      <trkpt lat="47.01655" lon="-1.11052">
        <ele>116.7</ele>
        <time>2011-11-27T07:51:00Z</time>
      </trkpt>
      <trkpt lat="47.01652" lon="-1.1106">
        <ele>117.1</ele>
        <time>2011-11-27T07:51:02Z</time>
      </trkpt>
      <trkpt lat="47.01644" lon="-1.11064">
        <ele>115.7</ele>
        <time>2011-11-27T07:51:06Z</time>
      </trkpt>
      <trkpt lat="47.01638" lon="-1.11058">
        <ele>113.2</ele>
        <time>2011-11-27T07:51:08Z</time>
      </trkpt>
      <trkpt lat="47.01633" lon="-1.11047">
        <ele>113.4</ele>
        <time>2011-11-27T07:51:10Z</time>
      </trkpt>
      <trkpt lat="47.01629" lon="-1.11042">
        <ele>113.3</ele>
        <time>2011-11-27T07:51:11Z</time>
      </trkpt>
      <trkpt lat="47.01626" lon="-1.11036">
        <ele>113.3</ele>
        <time>2011-11-27T07:51:12Z</time>
      </trkpt>
      <trkpt lat="47.01621" lon="-1.11026">
        <ele>112.7</ele>
        <time>2011-11-27T07:51:14Z</time>
      </trkpt>
      <trkpt lat="47.01617" lon="-1.11017">
        <ele>112.1</ele>
        <time>2011-11-27T07:51:15Z</time>
      </trkpt>
      <trkpt lat="47.01611" lon="-1.11007">
        <ele>110.9</ele>
        <time>2011-11-27T07:51:16Z</time>
      </trkpt>
      <trkpt lat="47.01608" lon="-1.11">
        <ele>110.2</ele>
        <time>2011-11-27T07:51:17Z</time>
      </trkpt>
      <trkpt lat="47.01606" lon="-1.10986">
        <ele>109.4</ele>
        <time>2011-11-27T07:51:18Z</time>
      </trkpt>
      <trkpt lat="47.01606" lon="-1.10974">
        <ele>109.1</ele>
        <time>2011-11-27T07:51:19Z</time>
      </trkpt>
      <trkpt lat="47.01605" lon="-1.10963">
        <ele>107.9</ele>
        <time>2011-11-27T07:51:20Z</time>
      </trkpt>
      <trkpt lat="47.01604" lon="-1.10952">
        <ele>106.5</ele>
        <time>2011-11-27T07:51:21Z</time>
      </trkpt>
      <trkpt lat="47.01605" lon="-1.10942">
        <ele>105.2</ele>
        <time>2011-11-27T07:51:22Z</time>
      </trkpt>
      <trkpt lat="47.01605" lon="-1.10934">
        <ele>105.1</ele>
        <time>2011-11-27T07:51:23Z</time>
      </trkpt>
      <trkpt lat="47.01606" lon="-1.10926">
        <ele>105.1</ele>
        <time>2011-11-27T07:51:24Z</time>
      </trkpt>
      <trkpt lat="47.01609" lon="-1.1091">
        <ele>102.1</ele>
        <time>2011-11-27T07:51:25Z</time>
      </trkpt>
      <trkpt lat="47.01609" lon="-1.10896">
        <ele>101.3</ele>
        <time>2011-11-27T07:51:27Z</time>
      </trkpt>
      <trkpt lat="47.01609" lon="-1.10882">
        <ele>101.5</ele>
        <time>2011-11-27T07:51:30Z</time>
      </trkpt>
      <trkpt lat="47.01608" lon="-1.10875">
        <ele>101.4</ele>
        <time>2011-11-27T07:51:31Z</time>
      </trkpt>
      <trkpt lat="47.01608" lon="-1.10868">
        <ele>101.3</ele>
        <time>2011-11-27T07:51:32Z</time>
      </trkpt>
      <trkpt lat="47.01606" lon="-1.10857">
        <ele>102.7</ele>
        <time>2011-11-27T07:51:33Z</time>
      </trkpt>
      <trkpt lat="47.01604" lon="-1.10845">
        <ele>103.3</ele>
        <time>2011-11-27T07:51:35Z</time>
      </trkpt>
      <trkpt lat="47.016" lon="-1.10835">
        <ele>103.9</ele>
        <time>2011-11-27T07:51:37Z</time>
      </trkpt>
      <trkpt lat="47.01598" lon="-1.10819">
        <ele>103.2</ele>
        <time>2011-11-27T07:51:39Z</time>
      </trkpt>
      <trkpt lat="47.01594" lon="-1.10813">
        <ele>103.1</ele>
        <time>2011-11-27T07:51:40Z</time>
      </trkpt>
      <trkpt lat="47.01593" lon="-1.10802">
        <ele>102.3</ele>
        <time>2011-11-27T07:51:41Z</time>
      </trkpt>
      <trkpt lat="47.0159" lon="-1.10796">
        <ele>103.3</ele>
        <time>2011-11-27T07:51:42Z</time>
      </trkpt>
      <trkpt lat="47.0159" lon="-1.10785">
        <ele>103.3</ele>
        <time>2011-11-27T07:51:43Z</time>
      </trkpt>
      <trkpt lat="47.01588" lon="-1.10778">
        <ele>101.3</ele>
        <time>2011-11-27T07:51:44Z</time>
      </trkpt>
      <trkpt lat="47.01584" lon="-1.10767">
        <ele>100.5</ele>
        <time>2011-11-27T07:51:46Z</time>
      </trkpt>
      <trkpt lat="47.01581" lon="-1.10758">
        <ele>100.6</ele>
        <time>2011-11-27T07:51:47Z</time>
      </trkpt>
      <trkpt lat="47.01576" lon="-1.10743">
        <ele>101.9</ele>
        <time>2011-11-27T07:51:48Z</time>
      </trkpt>
      <trkpt lat="47.01574" lon="-1.10735">
        <ele>101.8</ele>
        <time>2011-11-27T07:51:49Z</time>
      </trkpt>
      <trkpt lat="47.01575" lon="-1.10726">
        <ele>101.5</ele>
        <time>2011-11-27T07:51:50Z</time>
      </trkpt>
      <trkpt lat="47.01573" lon="-1.10718">
        <ele>102.3</ele>
        <time>2011-11-27T07:51:51Z</time>
      </trkpt>
      <trkpt lat="47.01573" lon="-1.10708">
        <ele>101.6</ele>
        <time>2011-11-27T07:51:52Z</time>
      </trkpt>
      <trkpt lat="47.01572" lon="-1.10696">
        <ele>101.9</ele>
        <time>2011-11-27T07:51:54Z</time>
      </trkpt>
      <trkpt lat="47.01571" lon="-1.10683">
        <ele>101.8</ele>
        <time>2011-11-27T07:51:56Z</time>
      </trkpt>
      <trkpt lat="47.01569" lon="-1.10674">
        <ele>100</ele>
        <time>2011-11-27T07:51:57Z</time>
      </trkpt>
      <trkpt lat="47.01568" lon="-1.10667">
        <ele>100</ele>
        <time>2011-11-27T07:51:58Z</time>
      </trkpt>
      <trkpt lat="47.01561" lon="-1.10655">
        <ele>101</ele>
        <time>2011-11-27T07:52:01Z</time>
      </trkpt>
      <trkpt lat="47.01556" lon="-1.1065">
        <ele>100.7</ele>
        <time>2011-11-27T07:52:02Z</time>
      </trkpt>
      <trkpt lat="47.01552" lon="-1.10643">
        <ele>101.4</ele>
        <time>2011-11-27T07:52:04Z</time>
      </trkpt>
      <trkpt lat="47.01547" lon="-1.10633">
        <ele>103.5</ele>
        <time>2011-11-27T07:52:06Z</time>
      </trkpt>
      <trkpt lat="47.01543" lon="-1.10622">
        <ele>105.7</ele>
        <time>2011-11-27T07:52:07Z</time>
      </trkpt>
      <trkpt lat="47.01544" lon="-1.10613">
        <ele>104.4</ele>
        <time>2011-11-27T07:52:08Z</time>
      </trkpt>
      <trkpt lat="47.01539" lon="-1.1061">
        <ele>106.3</ele>
        <time>2011-11-27T07:52:09Z</time>
      </trkpt>
      <trkpt lat="47.01536" lon="-1.10602">
        <ele>106.7</ele>
        <time>2011-11-27T07:52:11Z</time>
      </trkpt>
      <trkpt lat="47.01534" lon="-1.10595">
        <ele>107.4</ele>
        <time>2011-11-27T07:52:12Z</time>
      </trkpt>
      <trkpt lat="47.01532" lon="-1.10585">
        <ele>107.8</ele>
        <time>2011-11-27T07:52:13Z</time>
      </trkpt>
      <trkpt lat="47.0153" lon="-1.10578">
        <ele>107.5</ele>
        <time>2011-11-27T07:52:14Z</time>
      </trkpt>
      <trkpt lat="47.0153" lon="-1.10571">
        <ele>107.5</ele>
        <time>2011-11-27T07:52:15Z</time>
      </trkpt>
      <trkpt lat="47.01527" lon="-1.10564">
        <ele>108.5</ele>
        <time>2011-11-27T07:52:16Z</time>
      </trkpt>
      <trkpt lat="47.01522" lon="-1.10558">
        <ele>108.9</ele>
        <time>2011-11-27T07:52:17Z</time>
      </trkpt>
      <trkpt lat="47.01524" lon="-1.10537">
        <ele>108.6</ele>
        <time>2011-11-27T07:52:20Z</time>
      </trkpt>
      <trkpt lat="47.01523" lon="-1.1053">
        <ele>108.1</ele>
        <time>2011-11-27T07:52:21Z</time>
      </trkpt>
      <trkpt lat="47.01522" lon="-1.10512">
        <ele>106.6</ele>
        <time>2011-11-27T07:52:22Z</time>
      </trkpt>
      <trkpt lat="47.01525" lon="-1.10503">
        <ele>107.5</ele>
        <time>2011-11-27T07:52:23Z</time>
      </trkpt>
      <trkpt lat="47.01525" lon="-1.10488">
        <ele>106.5</ele>
        <time>2011-11-27T07:52:26Z</time>
      </trkpt>
      <trkpt lat="47.01527" lon="-1.10477">
        <ele>106.4</ele>
        <time>2011-11-27T07:52:28Z</time>
      </trkpt>
      <trkpt lat="47.01528" lon="-1.10457">
        <ele>102.6</ele>
        <time>2011-11-27T07:52:30Z</time>
      </trkpt>
      <trkpt lat="47.01529" lon="-1.10442">
        <ele>104.6</ele>
        <time>2011-11-27T07:52:31Z</time>
      </trkpt>
      <trkpt lat="47.01532" lon="-1.1043">
        <ele>105.1</ele>
        <time>2011-11-27T07:52:34Z</time>
      </trkpt>
      <trkpt lat="47.01538" lon="-1.10418">
        <ele>104.2</ele>
        <time>2011-11-27T07:52:35Z</time>
      </trkpt>
      <trkpt lat="47.01542" lon="-1.1041">
        <ele>104.7</ele>
        <time>2011-11-27T07:52:37Z</time>
      </trkpt>
      <trkpt lat="47.01546" lon="-1.10404">
        <ele>100.9</ele>
        <time>2011-11-27T07:52:40Z</time>
      </trkpt>
      <trkpt lat="47.0155" lon="-1.10398">
        <ele>101.9</ele>
        <time>2011-11-27T07:52:43Z</time>
      </trkpt>
      <trkpt lat="47.01554" lon="-1.10389">
        <ele>102</ele>
        <time>2011-11-27T07:52:45Z</time>
      </trkpt>
      <trkpt lat="47.01556" lon="-1.10381">
        <ele>100.9</ele>
        <time>2011-11-27T07:52:47Z</time>
      </trkpt>
      <trkpt lat="47.01557" lon="-1.10372">
        <ele>101.8</ele>
        <time>2011-11-27T07:52:49Z</time>
      </trkpt>
      <trkpt lat="47.0156" lon="-1.10364">
        <ele>101.8</ele>
        <time>2011-11-27T07:52:51Z</time>
      </trkpt>
      <trkpt lat="47.01561" lon="-1.10356">
        <ele>104</ele>
        <time>2011-11-27T07:52:54Z</time>
      </trkpt>
      <trkpt lat="47.01558" lon="-1.10346">
        <ele>104.3</ele>
        <time>2011-11-27T07:52:57Z</time>
      </trkpt>
      <trkpt lat="47.0156" lon="-1.10335">
        <ele>105.1</ele>
        <time>2011-11-27T07:52:59Z</time>
      </trkpt>
      <trkpt lat="47.01555" lon="-1.10329">
        <ele>110.7</ele>
        <time>2011-11-27T07:53:00Z</time>
      </trkpt>
      <trkpt lat="47.01553" lon="-1.10323">
        <ele>111.8</ele>
        <time>2011-11-27T07:53:03Z</time>
      </trkpt>
      <trkpt lat="47.01558" lon="-1.10316">
        <ele>112.3</ele>
        <time>2011-11-27T07:53:05Z</time>
      </trkpt>
      <trkpt lat="47.01556" lon="-1.10309">
        <ele>115</ele>
        <time>2011-11-27T07:53:06Z</time>
      </trkpt>
      <trkpt lat="47.01555" lon="-1.10301">
        <ele>115.3</ele>
        <time>2011-11-27T07:53:09Z</time>
      </trkpt>
      <trkpt lat="47.01556" lon="-1.10291">
        <ele>116</ele>
        <time>2011-11-27T07:53:11Z</time>
      </trkpt>
      <trkpt lat="47.01557" lon="-1.10283">
        <ele>116.8</ele>
        <time>2011-11-27T07:53:13Z</time>
      </trkpt>
      <trkpt lat="47.01558" lon="-1.10275">
        <ele>116.5</ele>
        <time>2011-11-27T07:53:15Z</time>
      </trkpt>
      <trkpt lat="47.01554" lon="-1.10268">
        <ele>116.7</ele>
        <time>2011-11-27T07:53:23Z</time>
      </trkpt>
      <trkpt lat="47.01559" lon="-1.10265">
        <ele>116.7</ele>
        <time>2011-11-27T07:53:31Z</time>
      </trkpt>
      <trkpt lat="47.01559" lon="-1.10265">
        <ele>116.7</ele>
        <time>2011-11-27T07:53:31Z</time>
      </trkpt>
      <trkpt lat="47.01559" lon="-1.10265">
        <ele>116.7</ele>
        <time>2011-11-27T07:53:32Z</time>
      </trkpt>
      <trkpt lat="47.01563" lon="-1.10263">
        <ele>117.9</ele>
        <time>2011-11-27T07:53:35Z</time>
      </trkpt>
      <trkpt lat="47.01559" lon="-1.10258">
        <ele>119</ele>
        <time>2011-11-27T07:53:38Z</time>
      </trkpt>
      <trkpt lat="47.01557" lon="-1.1025">
        <ele>119.4</ele>
        <time>2011-11-27T07:53:43Z</time>
      </trkpt>
      <trkpt lat="47.01556" lon="-1.10239">
        <ele>116.2</ele>
        <time>2011-11-27T07:53:46Z</time>
      </trkpt>
      <trkpt lat="47.01554" lon="-1.1023">
        <ele>116.2</ele>
        <time>2011-11-27T07:53:48Z</time>
      </trkpt>
      <trkpt lat="47.0155" lon="-1.10221">
        <ele>114.8</ele>
        <time>2011-11-27T07:53:51Z</time>
      </trkpt>
      <trkpt lat="47.01547" lon="-1.10204">
        <ele>111.5</ele>
        <time>2011-11-27T07:53:53Z</time>
      </trkpt>
      <trkpt lat="47.01546" lon="-1.10197">
        <ele>111.8</ele>
        <time>2011-11-27T07:53:55Z</time>
      </trkpt>
      <trkpt lat="47.01548" lon="-1.10189">
        <ele>112.2</ele>
        <time>2011-11-27T07:53:57Z</time>
      </trkpt>
      <trkpt lat="47.01549" lon="-1.10182">
        <ele>111.9</ele>
        <time>2011-11-27T07:53:59Z</time>
      </trkpt>
      <trkpt lat="47.01549" lon="-1.10169">
        <ele>110.7</ele>
        <time>2011-11-27T07:54:01Z</time>
      </trkpt>
      <trkpt lat="47.01553" lon="-1.10166">
        <ele>109.1</ele>
        <time>2011-11-27T07:54:03Z</time>
      </trkpt>
      <trkpt lat="47.01557" lon="-1.10158">
        <ele>109.5</ele>
        <time>2011-11-27T07:54:05Z</time>
      </trkpt>
      <trkpt lat="47.01561" lon="-1.1015">
        <ele>111.2</ele>
        <time>2011-11-27T07:54:07Z</time>
      </trkpt>
      <trkpt lat="47.01566" lon="-1.10146">
        <ele>108.8</ele>
        <time>2011-11-27T07:54:09Z</time>
      </trkpt>
      <trkpt lat="47.01568" lon="-1.10137">
        <ele>108.2</ele>
        <time>2011-11-27T07:54:11Z</time>
      </trkpt>
      <trkpt lat="47.01572" lon="-1.1013">
        <ele>109.2</ele>
        <time>2011-11-27T07:54:15Z</time>
      </trkpt>
      <trkpt lat="47.01578" lon="-1.10121">
        <ele>110.7</ele>
        <time>2011-11-27T07:54:18Z</time>
      </trkpt>
      <trkpt lat="47.01579" lon="-1.10114">
        <ele>117.2</ele>
        <time>2011-11-27T07:54:23Z</time>
      </trkpt>
      <trkpt lat="47.01586" lon="-1.10111">
        <ele>116.9</ele>
        <time>2011-11-27T07:54:31Z</time>
      </trkpt>
      <trkpt lat="47.01593" lon="-1.10111">
        <ele>115.5</ele>
        <time>2011-11-27T07:54:44Z</time>
      </trkpt>
      <trkpt lat="47.01598" lon="-1.10104">
        <ele>118.7</ele>
        <time>2011-11-27T07:54:54Z</time>
      </trkpt>
      <trkpt lat="47.01601" lon="-1.10101">
        <ele>120.5</ele>
        <time>2011-11-27T07:55:08Z</time>
      </trkpt>
      <trkpt lat="47.01608" lon="-1.10098">
        <ele>123</ele>
        <time>2011-11-27T07:55:15Z</time>
      </trkpt>
      <trkpt lat="47.0162" lon="-1.10096">
        <ele>124.1</ele>
        <time>2011-11-27T07:55:24Z</time>
      </trkpt>
      <trkpt lat="47.01628" lon="-1.10097">
        <ele>126.4</ele>
        <time>2011-11-27T07:55:27Z</time>
      </trkpt>
      <trkpt lat="47.01633" lon="-1.10096">
        <ele>127.4</ele>
        <time>2011-11-27T07:55:35Z</time>
      </trkpt>
      <trkpt lat="47.0164" lon="-1.10096">
        <ele>128.4</ele>
        <time>2011-11-27T07:55:39Z</time>
      </trkpt>
      <trkpt lat="47.01646" lon="-1.10099">
        <ele>130.1</ele>
        <time>2011-11-27T07:55:40Z</time>
      </trkpt>
      <trkpt lat="47.01649" lon="-1.10093">
        <ele>137.2</ele>
        <time>2011-11-27T07:55:55Z</time>
      </trkpt>
      <trkpt lat="47.01653" lon="-1.10089">
        <ele>138.5</ele>
        <time>2011-11-27T07:56:00Z</time>
      </trkpt>
      <trkpt lat="47.01662" lon="-1.10085">
        <ele>137</ele>
        <time>2011-11-27T07:56:04Z</time>
      </trkpt>
      <trkpt lat="47.0167" lon="-1.10081">
        <ele>137.3</ele>
        <time>2011-11-27T07:56:09Z</time>
      </trkpt>
      <trkpt lat="47.01678" lon="-1.10082">
        <ele>136</ele>
        <time>2011-11-27T07:56:11Z</time>
      </trkpt>
      <trkpt lat="47.01688" lon="-1.1008">
        <ele>137.2</ele>
        <time>2011-11-27T07:56:13Z</time>
      </trkpt>
      <trkpt lat="47.01692" lon="-1.10076">
        <ele>137.9</ele>
        <time>2011-11-27T07:56:15Z</time>
      </trkpt>
      <trkpt lat="47.01705" lon="-1.10084">
        <ele>140.8</ele>
        <time>2011-11-27T07:56:21Z</time>
      </trkpt>
      <trkpt lat="47.01716" lon="-1.10086">
        <ele>145.8</ele>
        <time>2011-11-27T07:58:17Z</time>
      </trkpt>
      <trkpt lat="47.01721" lon="-1.10088">
        <ele>146.5</ele>
        <time>2011-11-27T07:58:18Z</time>
      </trkpt>
      <trkpt lat="47.01727" lon="-1.10091">
        <ele>146.2</ele>
        <time>2011-11-27T07:58:19Z</time>
      </trkpt>
      <trkpt lat="47.01736" lon="-1.10096">
        <ele>144.5</ele>
        <time>2011-11-27T07:58:21Z</time>
      </trkpt>
      <trkpt lat="47.01746" lon="-1.10104">
        <ele>142.2</ele>
        <time>2011-11-27T07:58:23Z</time>
      </trkpt>
      <trkpt lat="47.01753" lon="-1.10104">
        <ele>143.1</ele>
        <time>2011-11-27T07:58:25Z</time>
      </trkpt>
      <trkpt lat="47.01759" lon="-1.10104">
        <ele>143.4</ele>
        <time>2011-11-27T07:58:26Z</time>
      </trkpt>
      <trkpt lat="47.01763" lon="-1.1011">
        <ele>142.3</ele>
        <time>2011-11-27T07:58:28Z</time>
      </trkpt>
      <trkpt lat="47.01768" lon="-1.10109">
        <ele>145.3</ele>
        <time>2011-11-27T07:58:30Z</time>
      </trkpt>
      <trkpt lat="47.01774" lon="-1.10108">
        <ele>144.9</ele>
        <time>2011-11-27T07:58:32Z</time>
      </trkpt>
      <trkpt lat="47.01778" lon="-1.10107">
        <ele>144.8</ele>
        <time>2011-11-27T07:58:33Z</time>
      </trkpt>
      <trkpt lat="47.01787" lon="-1.10108">
        <ele>144.7</ele>
        <time>2011-11-27T07:58:36Z</time>
      </trkpt>
      <trkpt lat="47.01793" lon="-1.10117">
        <ele>144.8</ele>
        <time>2011-11-27T07:58:37Z</time>
      </trkpt>
      <trkpt lat="47.01799" lon="-1.10115">
        <ele>145.2</ele>
        <time>2011-11-27T07:58:39Z</time>
      </trkpt>
      <trkpt lat="47.01805" lon="-1.10113">
        <ele>145.8</ele>
        <time>2011-11-27T07:58:40Z</time>
      </trkpt>
      <trkpt lat="47.0181" lon="-1.10112">
        <ele>145.8</ele>
        <time>2011-11-27T07:58:42Z</time>
      </trkpt>
      <trkpt lat="47.0182" lon="-1.10108">
        <ele>145.4</ele>
        <time>2011-11-27T07:58:44Z</time>
      </trkpt>
      <trkpt lat="47.01818" lon="-1.10102">
        <ele>144.9</ele>
        <time>2011-11-27T07:58:46Z</time>
      </trkpt>
      <trkpt lat="47.01816" lon="-1.10095">
        <ele>145.2</ele>
        <time>2011-11-27T07:58:47Z</time>
      </trkpt>
      <trkpt lat="47.01812" lon="-1.1009">
        <ele>145.7</ele>
        <time>2011-11-27T07:58:48Z</time>
      </trkpt>
      <trkpt lat="47.01809" lon="-1.10084">
        <ele>146.1</ele>
        <time>2011-11-27T07:58:49Z</time>
      </trkpt>
      <trkpt lat="47.01805" lon="-1.10077">
        <ele>145.8</ele>
        <time>2011-11-27T07:58:50Z</time>
      </trkpt>
      <trkpt lat="47.01808" lon="-1.1007">
        <ele>146</ele>
        <time>2011-11-27T07:58:51Z</time>
      </trkpt>
      <trkpt lat="47.01809" lon="-1.10059">
        <ele>145.6</ele>
        <time>2011-11-27T07:58:53Z</time>
      </trkpt>
      <trkpt lat="47.01805" lon="-1.10044">
        <ele>145.7</ele>
        <time>2011-11-27T07:58:55Z</time>
      </trkpt>
      <trkpt lat="47.01803" lon="-1.10034">
        <ele>145</ele>
        <time>2011-11-27T07:58:56Z</time>
      </trkpt>
      <trkpt lat="47.01801" lon="-1.1002">
        <ele>144.7</ele>
        <time>2011-11-27T07:58:58Z</time>
      </trkpt>
      <trkpt lat="47.018" lon="-1.10011">
        <ele>145</ele>
        <time>2011-11-27T07:59:00Z</time>
      </trkpt>
      <trkpt lat="47.01798" lon="-1.10002">
        <ele>144.1</ele>
        <time>2011-11-27T07:59:01Z</time>
      </trkpt>
      <trkpt lat="47.01799" lon="-1.09993">
        <ele>142.5</ele>
        <time>2011-11-27T07:59:04Z</time>
      </trkpt>
      <trkpt lat="47.01794" lon="-1.09978">
        <ele>142.4</ele>
        <time>2011-11-27T07:59:05Z</time>
      </trkpt>
      <trkpt lat="47.01795" lon="-1.09971">
        <ele>142.6</ele>
        <time>2011-11-27T07:59:06Z</time>
      </trkpt>
      <trkpt lat="47.01791" lon="-1.09966">
        <ele>142.8</ele>
        <time>2011-11-27T07:59:07Z</time>
      </trkpt>
      <trkpt lat="47.01787" lon="-1.09956">
        <ele>142.9</ele>
        <time>2011-11-27T07:59:09Z</time>
      </trkpt>
      <trkpt lat="47.01788" lon="-1.09949">
        <ele>143</ele>
        <time>2011-11-27T07:59:10Z</time>
      </trkpt>
      <trkpt lat="47.01786" lon="-1.0994">
        <ele>142.5</ele>
        <time>2011-11-27T07:59:12Z</time>
      </trkpt>
      <trkpt lat="47.01786" lon="-1.09931">
        <ele>143.6</ele>
        <time>2011-11-27T07:59:13Z</time>
      </trkpt>
      <trkpt lat="47.01786" lon="-1.09921">
        <ele>144.2</ele>
        <time>2011-11-27T07:59:14Z</time>
      </trkpt>
      <trkpt lat="47.01785" lon="-1.0991">
        <ele>142.7</ele>
        <time>2011-11-27T07:59:15Z</time>
      </trkpt>
      <trkpt lat="47.01787" lon="-1.099">
        <ele>143.7</ele>
        <time>2011-11-27T07:59:16Z</time>
      </trkpt>
      <trkpt lat="47.01787" lon="-1.09886">
        <ele>142.9</ele>
        <time>2011-11-27T07:59:18Z</time>
      </trkpt>
      <trkpt lat="47.01784" lon="-1.09878">
        <ele>141.6</ele>
        <time>2011-11-27T07:59:19Z</time>
      </trkpt>
      <trkpt lat="47.0178" lon="-1.09868">
        <ele>141.2</ele>
        <time>2011-11-27T07:59:20Z</time>
      </trkpt>
      <trkpt lat="47.01779" lon="-1.09861">
        <ele>140.9</ele>
        <time>2011-11-27T07:59:21Z</time>
      </trkpt>
      <trkpt lat="47.01778" lon="-1.09844">
        <ele>140.3</ele>
        <time>2011-11-27T07:59:23Z</time>
      </trkpt>
      <trkpt lat="47.0178" lon="-1.09834">
        <ele>141.3</ele>
        <time>2011-11-27T07:59:25Z</time>
      </trkpt>
      <trkpt lat="47.0178" lon="-1.09827">
        <ele>141.2</ele>
        <time>2011-11-27T07:59:26Z</time>
      </trkpt>
      <trkpt lat="47.01787" lon="-1.09819">
        <ele>143.6</ele>
        <time>2011-11-27T07:59:27Z</time>
      </trkpt>
      <trkpt lat="47.01793" lon="-1.09812">
        <ele>144.7</ele>
        <time>2011-11-27T07:59:28Z</time>
      </trkpt>
      <trkpt lat="47.01798" lon="-1.0981">
        <ele>142.6</ele>
        <time>2011-11-27T07:59:32Z</time>
      </trkpt>
      <trkpt lat="47.0181" lon="-1.09804">
        <ele>143.4</ele>
        <time>2011-11-27T07:59:33Z</time>
      </trkpt>
      <trkpt lat="47.01811" lon="-1.09793">
        <ele>143.8</ele>
        <time>2011-11-27T07:59:35Z</time>
      </trkpt>
      <trkpt lat="47.01807" lon="-1.09789">
        <ele>145.4</ele>
        <time>2011-11-27T07:59:37Z</time>
      </trkpt>
      <trkpt lat="47.01803" lon="-1.09778">
        <ele>146.5</ele>
        <time>2011-11-27T07:59:39Z</time>
      </trkpt>
      <trkpt lat="47.01803" lon="-1.0977">
        <ele>146.5</ele>
        <time>2011-11-27T07:59:40Z</time>
      </trkpt>
      <trkpt lat="47.01799" lon="-1.09761">
        <ele>147.7</ele>
        <time>2011-11-27T07:59:41Z</time>
      </trkpt>
      <trkpt lat="47.01798" lon="-1.09753">
        <ele>147.7</ele>
        <time>2011-11-27T07:59:42Z</time>
      </trkpt>
      <trkpt lat="47.01797" lon="-1.09744">
        <ele>149</ele>
        <time>2011-11-27T07:59:43Z</time>
      </trkpt>
      <trkpt lat="47.01797" lon="-1.09733">
        <ele>150.2</ele>
        <time>2011-11-27T07:59:44Z</time>
      </trkpt>
      <trkpt lat="47.01796" lon="-1.09724">
        <ele>149.9</ele>
        <time>2011-11-27T07:59:45Z</time>
      </trkpt>
      <trkpt lat="47.01796" lon="-1.09709">
        <ele>149.3</ele>
        <time>2011-11-27T07:59:46Z</time>
      </trkpt>
      <trkpt lat="47.01792" lon="-1.09704">
        <ele>147.8</ele>
        <time>2011-11-27T07:59:47Z</time>
      </trkpt>
      <trkpt lat="47.01794" lon="-1.09694">
        <ele>148.3</ele>
        <time>2011-11-27T07:59:48Z</time>
      </trkpt>
      <trkpt lat="47.01792" lon="-1.09686">
        <ele>146.6</ele>
        <time>2011-11-27T07:59:49Z</time>
      </trkpt>
      <trkpt lat="47.01795" lon="-1.09672">
        <ele>145.2</ele>
        <time>2011-11-27T07:59:52Z</time>
      </trkpt>
      <trkpt lat="47.01793" lon="-1.09656">
        <ele>145.1</ele>
        <time>2011-11-27T07:59:53Z</time>
      </trkpt>
      <trkpt lat="47.01794" lon="-1.09646">
        <ele>146.2</ele>
        <time>2011-11-27T07:59:54Z</time>
      </trkpt>
      <trkpt lat="47.01796" lon="-1.09635">
        <ele>144.6</ele>
        <time>2011-11-27T07:59:55Z</time>
      </trkpt>
      <trkpt lat="47.01794" lon="-1.09628">
        <ele>144.8</ele>
        <time>2011-11-27T07:59:56Z</time>
      </trkpt>
      <trkpt lat="47.01786" lon="-1.09621">
        <ele>144.3</ele>
        <time>2011-11-27T07:59:58Z</time>
      </trkpt>
      <trkpt lat="47.01782" lon="-1.09614">
        <ele>144.7</ele>
        <time>2011-11-27T07:59:59Z</time>
      </trkpt>
      <trkpt lat="47.01784" lon="-1.09603">
        <ele>144.3</ele>
        <time>2011-11-27T08:00:00Z</time>
      </trkpt>
      <trkpt lat="47.01781" lon="-1.09596">
        <ele>143.9</ele>
        <time>2011-11-27T08:00:01Z</time>
      </trkpt>
      <trkpt lat="47.01783" lon="-1.0959">
        <ele>144</ele>
        <time>2011-11-27T08:00:02Z</time>
      </trkpt>
      <trkpt lat="47.0178" lon="-1.09579">
        <ele>142.4</ele>
        <time>2011-11-27T08:00:03Z</time>
      </trkpt>
      <trkpt lat="47.01778" lon="-1.09571">
        <ele>141.9</ele>
        <time>2011-11-27T08:00:04Z</time>
      </trkpt>
      <trkpt lat="47.01776" lon="-1.09564">
        <ele>142.3</ele>
        <time>2011-11-27T08:00:05Z</time>
      </trkpt>
      <trkpt lat="47.01775" lon="-1.09556">
        <ele>142.1</ele>
        <time>2011-11-27T08:00:06Z</time>
      </trkpt>
      <trkpt lat="47.01776" lon="-1.09545">
        <ele>142.1</ele>
        <time>2011-11-27T08:00:07Z</time>
      </trkpt>
      <trkpt lat="47.01773" lon="-1.09539">
        <ele>141.3</ele>
        <time>2011-11-27T08:00:08Z</time>
      </trkpt>
      <trkpt lat="47.01772" lon="-1.0953">
        <ele>141.5</ele>
        <time>2011-11-27T08:00:09Z</time>
      </trkpt>
      <trkpt lat="47.0177" lon="-1.09522">
        <ele>141.4</ele>
        <time>2011-11-27T08:00:10Z</time>
      </trkpt>
      <trkpt lat="47.01771" lon="-1.09513">
        <ele>141.1</ele>
        <time>2011-11-27T08:00:11Z</time>
      </trkpt>
      <trkpt lat="47.01772" lon="-1.09506">
        <ele>143.1</ele>
        <time>2011-11-27T08:00:12Z</time>
      </trkpt>
      <trkpt lat="47.01771" lon="-1.09493">
        <ele>142.7</ele>
        <time>2011-11-27T08:00:13Z</time>
      </trkpt>
      <trkpt lat="47.0177" lon="-1.09481">
        <ele>143.2</ele>
        <time>2011-11-27T08:00:14Z</time>
      </trkpt>
      <trkpt lat="47.01767" lon="-1.09473">
        <ele>144.3</ele>
        <time>2011-11-27T08:00:15Z</time>
      </trkpt>
      <trkpt lat="47.01762" lon="-1.09466">
        <ele>144.1</ele>
        <time>2011-11-27T08:00:16Z</time>
      </trkpt>
      <trkpt lat="47.01761" lon="-1.09451">
        <ele>143.5</ele>
        <time>2011-11-27T08:00:17Z</time>
      </trkpt>
      <trkpt lat="47.01761" lon="-1.09444">
        <ele>144.4</ele>
        <time>2011-11-27T08:00:18Z</time>
      </trkpt>
      <trkpt lat="47.0176" lon="-1.09429">
        <ele>142.8</ele>
        <time>2011-11-27T08:00:20Z</time>
      </trkpt>
      <trkpt lat="47.01761" lon="-1.09421">
        <ele>144.3</ele>
        <time>2011-11-27T08:00:22Z</time>
      </trkpt>
      <trkpt lat="47.01763" lon="-1.09414">
        <ele>143.6</ele>
        <time>2011-11-27T08:00:23Z</time>
      </trkpt>
      <trkpt lat="47.01767" lon="-1.0941">
        <ele>143.9</ele>
        <time>2011-11-27T08:00:25Z</time>
      </trkpt>
      <trkpt lat="47.01774" lon="-1.09401">
        <ele>142.3</ele>
        <time>2011-11-27T08:00:27Z</time>
      </trkpt>
      <trkpt lat="47.01782" lon="-1.09397">
        <ele>141.9</ele>
        <time>2011-11-27T08:00:28Z</time>
      </trkpt>
      <trkpt lat="47.01787" lon="-1.09395">
        <ele>141.8</ele>
        <time>2011-11-27T08:00:29Z</time>
      </trkpt>
      <trkpt lat="47.01794" lon="-1.09382">
        <ele>140.6</ele>
        <time>2011-11-27T08:00:33Z</time>
      </trkpt>
      <trkpt lat="47.01793" lon="-1.09375">
        <ele>141.2</ele>
        <time>2011-11-27T08:00:36Z</time>
      </trkpt>
      <trkpt lat="47.01789" lon="-1.09368">
        <ele>142.8</ele>
        <time>2011-11-27T08:00:38Z</time>
      </trkpt>
      <trkpt lat="47.01786" lon="-1.09361">
        <ele>143.7</ele>
        <time>2011-11-27T08:00:39Z</time>
      </trkpt>
      <trkpt lat="47.01781" lon="-1.09354">
        <ele>143.3</ele>
        <time>2011-11-27T08:00:40Z</time>
      </trkpt>
      <trkpt lat="47.01778" lon="-1.09349">
        <ele>143.6</ele>
        <time>2011-11-27T08:00:42Z</time>
      </trkpt>
      <trkpt lat="47.01772" lon="-1.0934">
        <ele>141.2</ele>
        <time>2011-11-27T08:00:43Z</time>
      </trkpt>
      <trkpt lat="47.01769" lon="-1.0933">
        <ele>141.8</ele>
        <time>2011-11-27T08:00:45Z</time>
      </trkpt>
      <trkpt lat="47.01768" lon="-1.09319">
        <ele>140.8</ele>
        <time>2011-11-27T08:00:47Z</time>
      </trkpt>
      <trkpt lat="47.01768" lon="-1.09304">
        <ele>140.5</ele>
        <time>2011-11-27T08:00:49Z</time>
      </trkpt>
      <trkpt lat="47.01767" lon="-1.09311">
        <ele>142.6</ele>
        <time>2011-11-27T08:00:50Z</time>
      </trkpt>
      <trkpt lat="47.01766" lon="-1.09303">
        <ele>142.2</ele>
        <time>2011-11-27T08:00:51Z</time>
      </trkpt>
      <trkpt lat="47.01762" lon="-1.09298">
        <ele>140.8</ele>
        <time>2011-11-27T08:00:53Z</time>
      </trkpt>
      <trkpt lat="47.01762" lon="-1.09288">
        <ele>140.6</ele>
        <time>2011-11-27T08:00:55Z</time>
      </trkpt>
      <trkpt lat="47.01764" lon="-1.09276">
        <ele>141.3</ele>
        <time>2011-11-27T08:00:58Z</time>
      </trkpt>
      <trkpt lat="47.01763" lon="-1.09267">
        <ele>142.6</ele>
        <time>2011-11-27T08:01:00Z</time>
      </trkpt>
      <trkpt lat="47.01762" lon="-1.0926">
        <ele>142.9</ele>
        <time>2011-11-27T08:01:01Z</time>
      </trkpt>
      <trkpt lat="47.01764" lon="-1.09252">
        <ele>145.3</ele>
        <time>2011-11-27T08:01:04Z</time>
      </trkpt>
      <trkpt lat="47.01763" lon="-1.09242">
        <ele>144.2</ele>
        <time>2011-11-27T08:01:06Z</time>
      </trkpt>
      <trkpt lat="47.01765" lon="-1.09228">
        <ele>146.9</ele>
        <time>2011-11-27T08:01:09Z</time>
      </trkpt>
      <trkpt lat="47.01765" lon="-1.09221">
        <ele>146.3</ele>
        <time>2011-11-27T08:01:10Z</time>
      </trkpt>
      <trkpt lat="47.01765" lon="-1.09211">
        <ele>147.9</ele>
        <time>2011-11-27T08:01:12Z</time>
      </trkpt>
      <trkpt lat="47.01765" lon="-1.09202">
        <ele>145.8</ele>
        <time>2011-11-27T08:01:13Z</time>
      </trkpt>
      <trkpt lat="47.01766" lon="-1.09194">
        <ele>147.1</ele>
        <time>2011-11-27T08:01:14Z</time>
      </trkpt>
      <trkpt lat="47.01767" lon="-1.09184">
        <ele>145.5</ele>
        <time>2011-11-27T08:01:15Z</time>
      </trkpt>
      <trkpt lat="47.01769" lon="-1.09172">
        <ele>145.2</ele>
        <time>2011-11-27T08:01:16Z</time>
      </trkpt>
      <trkpt lat="47.0177" lon="-1.09164">
        <ele>145.8</ele>
        <time>2011-11-27T08:01:17Z</time>
      </trkpt>
      <trkpt lat="47.01772" lon="-1.09157">
        <ele>145</ele>
        <time>2011-11-27T08:01:18Z</time>
      </trkpt>
      <trkpt lat="47.01777" lon="-1.09148">
        <ele>145</ele>
        <time>2011-11-27T08:01:20Z</time>
      </trkpt>
      <trkpt lat="47.0178" lon="-1.0914">
        <ele>145.3</ele>
        <time>2011-11-27T08:01:21Z</time>
      </trkpt>
      <trkpt lat="47.01781" lon="-1.09133">
        <ele>143.9</ele>
        <time>2011-11-27T08:01:22Z</time>
      </trkpt>
      <trkpt lat="47.01784" lon="-1.09126">
        <ele>144.1</ele>
        <time>2011-11-27T08:01:23Z</time>
      </trkpt>
      <trkpt lat="47.01786" lon="-1.09118">
        <ele>143</ele>
        <time>2011-11-27T08:01:24Z</time>
      </trkpt>
      <trkpt lat="47.01791" lon="-1.09111">
        <ele>143.6</ele>
        <time>2011-11-27T08:01:25Z</time>
      </trkpt>
      <trkpt lat="47.01791" lon="-1.09103">
        <ele>142.1</ele>
        <time>2011-11-27T08:01:27Z</time>
      </trkpt>
      <trkpt lat="47.01794" lon="-1.09091">
        <ele>141.3</ele>
        <time>2011-11-27T08:01:29Z</time>
      </trkpt>
      <trkpt lat="47.01797" lon="-1.09086">
        <ele>141.8</ele>
        <time>2011-11-27T08:01:30Z</time>
      </trkpt>
      <trkpt lat="47.01798" lon="-1.09079">
        <ele>142.7</ele>
        <time>2011-11-27T08:01:31Z</time>
      </trkpt>
      <trkpt lat="47.01801" lon="-1.09068">
        <ele>141.9</ele>
        <time>2011-11-27T08:01:33Z</time>
      </trkpt>
      <trkpt lat="47.01803" lon="-1.09058">
        <ele>141.8</ele>
        <time>2011-11-27T08:01:35Z</time>
      </trkpt>
      <trkpt lat="47.01815" lon="-1.09045">
        <ele>141.4</ele>
        <time>2011-11-27T08:01:37Z</time>
      </trkpt>
      <trkpt lat="47.0182" lon="-1.09039">
        <ele>141.4</ele>
        <time>2011-11-27T08:01:38Z</time>
      </trkpt>
      <trkpt lat="47.01828" lon="-1.0903">
        <ele>142.6</ele>
        <time>2011-11-27T08:01:39Z</time>
      </trkpt>
      <trkpt lat="47.01833" lon="-1.09025">
        <ele>141.7</ele>
        <time>2011-11-27T08:01:40Z</time>
      </trkpt>
      <trkpt lat="47.01838" lon="-1.09018">
        <ele>141.7</ele>
        <time>2011-11-27T08:01:41Z</time>
      </trkpt>
      <trkpt lat="47.01844" lon="-1.09011">
        <ele>140.6</ele>
        <time>2011-11-27T08:01:42Z</time>
      </trkpt>
      <trkpt lat="47.01854" lon="-1.0901">
        <ele>139.7</ele>
        <time>2011-11-27T08:01:43Z</time>
      </trkpt>
      <trkpt lat="47.01862" lon="-1.09007">
        <ele>139.7</ele>
        <time>2011-11-27T08:01:44Z</time>
      </trkpt>
      <trkpt lat="47.01868" lon="-1.09005">
        <ele>140</ele>
        <time>2011-11-27T08:01:45Z</time>
      </trkpt>
      <trkpt lat="47.01874" lon="-1.09006">
        <ele>138.3</ele>
        <time>2011-11-27T08:01:46Z</time>
      </trkpt>
      <trkpt lat="47.01879" lon="-1.09">
        <ele>139.5</ele>
        <time>2011-11-27T08:01:49Z</time>
      </trkpt>
      <trkpt lat="47.01876" lon="-1.08992">
        <ele>139.4</ele>
        <time>2011-11-27T08:01:51Z</time>
      </trkpt>
      <trkpt lat="47.01871" lon="-1.08988">
        <ele>139.2</ele>
        <time>2011-11-27T08:01:52Z</time>
      </trkpt>
      <trkpt lat="47.01865" lon="-1.08985">
        <ele>139.3</ele>
        <time>2011-11-27T08:01:53Z</time>
      </trkpt>
      <trkpt lat="47.0186" lon="-1.08982">
        <ele>138</ele>
        <time>2011-11-27T08:01:54Z</time>
      </trkpt>
      <trkpt lat="47.01855" lon="-1.0898">
        <ele>137</ele>
        <time>2011-11-27T08:01:55Z</time>
      </trkpt>
      <trkpt lat="47.01846" lon="-1.08978">
        <ele>136</ele>
        <time>2011-11-27T08:01:57Z</time>
      </trkpt>
      <trkpt lat="47.01839" lon="-1.08977">
        <ele>135.9</ele>
        <time>2011-11-27T08:01:58Z</time>
      </trkpt>
      <trkpt lat="47.01832" lon="-1.08978">
        <ele>135.7</ele>
        <time>2011-11-27T08:02:00Z</time>
      </trkpt>
      <trkpt lat="47.01826" lon="-1.08978">
        <ele>134.9</ele>
        <time>2011-11-27T08:02:01Z</time>
      </trkpt>
      <trkpt lat="47.0182" lon="-1.08976">
        <ele>134.8</ele>
        <time>2011-11-27T08:02:02Z</time>
      </trkpt>
      <trkpt lat="47.0181" lon="-1.08978">
        <ele>133.7</ele>
        <time>2011-11-27T08:02:03Z</time>
      </trkpt>
      <trkpt lat="47.01799" lon="-1.08976">
        <ele>132.3</ele>
        <time>2011-11-27T08:02:05Z</time>
      </trkpt>
      <trkpt lat="47.0179" lon="-1.08975">
        <ele>132.9</ele>
        <time>2011-11-27T08:02:06Z</time>
      </trkpt>
      <trkpt lat="47.01782" lon="-1.08975">
        <ele>132.9</ele>
        <time>2011-11-27T08:02:07Z</time>
      </trkpt>
      <trkpt lat="47.01773" lon="-1.08971">
        <ele>132.1</ele>
        <time>2011-11-27T08:02:08Z</time>
      </trkpt>
      <trkpt lat="47.01765" lon="-1.08969">
        <ele>132.4</ele>
        <time>2011-11-27T08:02:09Z</time>
      </trkpt>
      <trkpt lat="47.01758" lon="-1.08966">
        <ele>131.7</ele>
        <time>2011-11-27T08:02:10Z</time>
      </trkpt>
      <trkpt lat="47.01751" lon="-1.08966">
        <ele>131.4</ele>
        <time>2011-11-27T08:02:12Z</time>
      </trkpt>
      <trkpt lat="47.01744" lon="-1.08963">
        <ele>130.5</ele>
        <time>2011-11-27T08:02:13Z</time>
      </trkpt>
      <trkpt lat="47.01738" lon="-1.0896">
        <ele>130.5</ele>
        <time>2011-11-27T08:02:14Z</time>
      </trkpt>
      <trkpt lat="47.01734" lon="-1.08957">
        <ele>130.1</ele>
        <time>2011-11-27T08:02:15Z</time>
      </trkpt>
      <trkpt lat="47.01729" lon="-1.08954">
        <ele>129.8</ele>
        <time>2011-11-27T08:02:16Z</time>
      </trkpt>
      <trkpt lat="47.01721" lon="-1.08951">
        <ele>129.3</ele>
        <time>2011-11-27T08:02:18Z</time>
      </trkpt>
      <trkpt lat="47.01713" lon="-1.08952">
        <ele>127.2</ele>
        <time>2011-11-27T08:02:20Z</time>
      </trkpt>
      <trkpt lat="47.01704" lon="-1.08954">
        <ele>125.9</ele>
        <time>2011-11-27T08:02:22Z</time>
      </trkpt>
      <trkpt lat="47.01699" lon="-1.08952">
        <ele>125.6</ele>
        <time>2011-11-27T08:02:23Z</time>
      </trkpt>
      <trkpt lat="47.01694" lon="-1.08952">
        <ele>124.5</ele>
        <time>2011-11-27T08:02:24Z</time>
      </trkpt>
      <trkpt lat="47.01688" lon="-1.08951">
        <ele>123</ele>
        <time>2011-11-27T08:02:25Z</time>
      </trkpt>
      <trkpt lat="47.01682" lon="-1.08951">
        <ele>121.3</ele>
        <time>2011-11-27T08:02:26Z</time>
      </trkpt>
      <trkpt lat="47.01676" lon="-1.08956">
        <ele>119.6</ele>
        <time>2011-11-27T08:02:28Z</time>
      </trkpt>
      <trkpt lat="47.0167" lon="-1.08964">
        <ele>117.5</ele>
        <time>2011-11-27T08:02:30Z</time>
      </trkpt>
      <trkpt lat="47.01665" lon="-1.08968">
        <ele>117.1</ele>
        <time>2011-11-27T08:02:31Z</time>
      </trkpt>
      <trkpt lat="47.01658" lon="-1.08979">
        <ele>116.1</ele>
        <time>2011-11-27T08:02:33Z</time>
      </trkpt>
      <trkpt lat="47.01656" lon="-1.08986">
        <ele>115.5</ele>
        <time>2011-11-27T08:02:34Z</time>
      </trkpt>
      <trkpt lat="47.01652" lon="-1.08992">
        <ele>115.9</ele>
        <time>2011-11-27T08:02:35Z</time>
      </trkpt>
      <trkpt lat="47.01648" lon="-1.08998">
        <ele>116.7</ele>
        <time>2011-11-27T08:02:36Z</time>
      </trkpt>
      <trkpt lat="47.01644" lon="-1.09002">
        <ele>117.5</ele>
        <time>2011-11-27T08:02:37Z</time>
      </trkpt>
      <trkpt lat="47.0164" lon="-1.09007">
        <ele>117.7</ele>
        <time>2011-11-27T08:02:38Z</time>
      </trkpt>
      <trkpt lat="47.01637" lon="-1.09012">
        <ele>117.6</ele>
        <time>2011-11-27T08:02:39Z</time>
      </trkpt>
      <trkpt lat="47.01634" lon="-1.09024">
        <ele>117.5</ele>
        <time>2011-11-27T08:02:41Z</time>
      </trkpt>
      <trkpt lat="47.01632" lon="-1.09037">
        <ele>115.8</ele>
        <time>2011-11-27T08:02:43Z</time>
      </trkpt>
      <trkpt lat="47.0163" lon="-1.09044">
        <ele>114.5</ele>
        <time>2011-11-27T08:02:44Z</time>
      </trkpt>
      <trkpt lat="47.01627" lon="-1.09053">
        <ele>110</ele>
        <time>2011-11-27T08:02:45Z</time>
      </trkpt>
      <trkpt lat="47.0162" lon="-1.09059">
        <ele>108</ele>
        <time>2011-11-27T08:02:47Z</time>
      </trkpt>
      <trkpt lat="47.01614" lon="-1.09058">
        <ele>109</ele>
        <time>2011-11-27T08:02:49Z</time>
      </trkpt>
      <trkpt lat="47.01607" lon="-1.09057">
        <ele>109.6</ele>
        <time>2011-11-27T08:02:51Z</time>
      </trkpt>
      <trkpt lat="47.01601" lon="-1.09053">
        <ele>106.5</ele>
        <time>2011-11-27T08:02:53Z</time>
      </trkpt>
      <trkpt lat="47.01596" lon="-1.09055">
        <ele>104.5</ele>
        <time>2011-11-27T08:02:55Z</time>
      </trkpt>
      <trkpt lat="47.0159" lon="-1.09058">
        <ele>103.3</ele>
        <time>2011-11-27T08:02:56Z</time>
      </trkpt>
      <trkpt lat="47.01579" lon="-1.09059">
        <ele>104</ele>
        <time>2011-11-27T08:02:57Z</time>
      </trkpt>
      <trkpt lat="47.01573" lon="-1.0906">
        <ele>104.7</ele>
        <time>2011-11-27T08:02:58Z</time>
      </trkpt>
      <trkpt lat="47.01569" lon="-1.09064">
        <ele>106.5</ele>
        <time>2011-11-27T08:02:59Z</time>
      </trkpt>
      <trkpt lat="47.01567" lon="-1.09057">
        <ele>107.1</ele>
        <time>2011-11-27T08:03:00Z</time>
      </trkpt>
      <trkpt lat="47.01562" lon="-1.09049">
        <ele>108.5</ele>
        <time>2011-11-27T08:03:02Z</time>
      </trkpt>
      <trkpt lat="47.0156" lon="-1.0904">
        <ele>109.9</ele>
        <time>2011-11-27T08:03:04Z</time>
      </trkpt>
      <trkpt lat="47.01557" lon="-1.09033">
        <ele>111.3</ele>
        <time>2011-11-27T08:03:06Z</time>
      </trkpt>
      <trkpt lat="47.01551" lon="-1.09027">
        <ele>111.4</ele>
        <time>2011-11-27T08:03:08Z</time>
      </trkpt>
      <trkpt lat="47.01543" lon="-1.09019">
        <ele>111</ele>
        <time>2011-11-27T08:03:10Z</time>
      </trkpt>
      <trkpt lat="47.01538" lon="-1.09014">
        <ele>110.8</ele>
        <time>2011-11-27T08:03:11Z</time>
      </trkpt>
      <trkpt lat="47.01534" lon="-1.09006">
        <ele>110.2</ele>
        <time>2011-11-27T08:03:12Z</time>
      </trkpt>
      <trkpt lat="47.01529" lon="-1.08999">
        <ele>110.1</ele>
        <time>2011-11-27T08:03:13Z</time>
      </trkpt>
      <trkpt lat="47.01524" lon="-1.08992">
        <ele>110.3</ele>
        <time>2011-11-27T08:03:14Z</time>
      </trkpt>
      <trkpt lat="47.0152" lon="-1.08981">
        <ele>110.1</ele>
        <time>2011-11-27T08:03:15Z</time>
      </trkpt>
      <trkpt lat="47.01516" lon="-1.08973">
        <ele>110.1</ele>
        <time>2011-11-27T08:03:16Z</time>
      </trkpt>
      <trkpt lat="47.01513" lon="-1.08964">
        <ele>110.1</ele>
        <time>2011-11-27T08:03:17Z</time>
      </trkpt>
      <trkpt lat="47.01509" lon="-1.0896">
        <ele>110.4</ele>
        <time>2011-11-27T08:03:18Z</time>
      </trkpt>
      <trkpt lat="47.01504" lon="-1.08954">
        <ele>111.1</ele>
        <time>2011-11-27T08:03:19Z</time>
      </trkpt>
      <trkpt lat="47.015" lon="-1.08948">
        <ele>111.6</ele>
        <time>2011-11-27T08:03:20Z</time>
      </trkpt>
      <trkpt lat="47.01496" lon="-1.08942">
        <ele>111.6</ele>
        <time>2011-11-27T08:03:21Z</time>
      </trkpt>
      <trkpt lat="47.01492" lon="-1.08935">
        <ele>111.6</ele>
        <time>2011-11-27T08:03:22Z</time>
      </trkpt>
      <trkpt lat="47.01487" lon="-1.08928">
        <ele>111.2</ele>
        <time>2011-11-27T08:03:23Z</time>
      </trkpt>
      <trkpt lat="47.01483" lon="-1.08921">
        <ele>111</ele>
        <time>2011-11-27T08:03:24Z</time>
      </trkpt>
      <trkpt lat="47.0148" lon="-1.08913">
        <ele>110.2</ele>
        <time>2011-11-27T08:03:25Z</time>
      </trkpt>
      <trkpt lat="47.01477" lon="-1.08904">
        <ele>109.9</ele>
        <time>2011-11-27T08:03:26Z</time>
      </trkpt>
      <trkpt lat="47.01474" lon="-1.089">
        <ele>110.2</ele>
        <time>2011-11-27T08:03:27Z</time>
      </trkpt>
      <trkpt lat="47.01468" lon="-1.08891">
        <ele>110.8</ele>
        <time>2011-11-27T08:03:29Z</time>
      </trkpt>
      <trkpt lat="47.01464" lon="-1.08882">
        <ele>111.9</ele>
        <time>2011-11-27T08:03:31Z</time>
      </trkpt>
      <trkpt lat="47.0146" lon="-1.08876">
        <ele>112.9</ele>
        <time>2011-11-27T08:03:33Z</time>
      </trkpt>
      <trkpt lat="47.01453" lon="-1.0887">
        <ele>113.9</ele>
        <time>2011-11-27T08:03:35Z</time>
      </trkpt>
      <trkpt lat="47.01446" lon="-1.08865">
        <ele>114.7</ele>
        <time>2011-11-27T08:03:36Z</time>
      </trkpt>
      <trkpt lat="47.01441" lon="-1.0886">
        <ele>114.9</ele>
        <time>2011-11-27T08:03:37Z</time>
      </trkpt>
      <trkpt lat="47.01437" lon="-1.08854">
        <ele>115.2</ele>
        <time>2011-11-27T08:03:38Z</time>
      </trkpt>
      <trkpt lat="47.01433" lon="-1.08849">
        <ele>115</ele>
        <time>2011-11-27T08:03:39Z</time>
      </trkpt>
      <trkpt lat="47.01429" lon="-1.08843">
        <ele>114.7</ele>
        <time>2011-11-27T08:03:40Z</time>
      </trkpt>
      <trkpt lat="47.01426" lon="-1.08836">
        <ele>114.8</ele>
        <time>2011-11-27T08:03:41Z</time>
      </trkpt>
      <trkpt lat="47.0142" lon="-1.08829">
        <ele>114.8</ele>
        <time>2011-11-27T08:03:42Z</time>
      </trkpt>
      <trkpt lat="47.01416" lon="-1.08824">
        <ele>114.4</ele>
        <time>2011-11-27T08:03:43Z</time>
      </trkpt>
      <trkpt lat="47.01412" lon="-1.08817">
        <ele>114.5</ele>
        <time>2011-11-27T08:03:44Z</time>
      </trkpt>
      <trkpt lat="47.01408" lon="-1.08809">
        <ele>114.4</ele>
        <time>2011-11-27T08:03:46Z</time>
      </trkpt>
      <trkpt lat="47.01405" lon="-1.08803">
        <ele>113.9</ele>
        <time>2011-11-27T08:03:48Z</time>
      </trkpt>
      <trkpt lat="47.01401" lon="-1.08795">
        <ele>115</ele>
        <time>2011-11-27T08:03:52Z</time>
      </trkpt>
      <trkpt lat="47.01398" lon="-1.0879">
        <ele>115.4</ele>
        <time>2011-11-27T08:03:57Z</time>
      </trkpt>
      <trkpt lat="47.01398" lon="-1.08778">
        <ele>113.7</ele>
        <time>2011-11-27T08:04:01Z</time>
      </trkpt>
      <trkpt lat="47.01396" lon="-1.08772">
        <ele>115</ele>
        <time>2011-11-27T08:04:03Z</time>
      </trkpt>
      <trkpt lat="47.01393" lon="-1.08767">
        <ele>115.6</ele>
        <time>2011-11-27T08:04:04Z</time>
      </trkpt>
      <trkpt lat="47.0139" lon="-1.08759">
        <ele>114.7</ele>
        <time>2011-11-27T08:04:05Z</time>
      </trkpt>
      <trkpt lat="47.01387" lon="-1.08749">
        <ele>114.9</ele>
        <time>2011-11-27T08:04:07Z</time>
      </trkpt>
      <trkpt lat="47.01384" lon="-1.0874">
        <ele>115.2</ele>
        <time>2011-11-27T08:04:09Z</time>
      </trkpt>
      <trkpt lat="47.01381" lon="-1.08727">
        <ele>112.4</ele>
        <time>2011-11-27T08:04:11Z</time>
      </trkpt>
      <trkpt lat="47.01381" lon="-1.0872">
        <ele>111.8</ele>
        <time>2011-11-27T08:04:13Z</time>
      </trkpt>
      <trkpt lat="47.0138" lon="-1.08712">
        <ele>111.7</ele>
        <time>2011-11-27T08:04:16Z</time>
      </trkpt>
      <trkpt lat="47.01377" lon="-1.08707">
        <ele>111.4</ele>
        <time>2011-11-27T08:04:18Z</time>
      </trkpt>
      <trkpt lat="47.01372" lon="-1.08703">
        <ele>111.2</ele>
        <time>2011-11-27T08:04:21Z</time>
      </trkpt>
      <trkpt lat="47.01372" lon="-1.0871">
        <ele>113.2</ele>
        <time>2011-11-27T08:04:30Z</time>
      </trkpt>
      <trkpt lat="47.0137" lon="-1.08716">
        <ele>116.4</ele>
        <time>2011-11-27T08:04:36Z</time>
      </trkpt>
      <trkpt lat="47.01367" lon="-1.08712">
        <ele>119.3</ele>
        <time>2011-11-27T08:04:41Z</time>
      </trkpt>
      <trkpt lat="47.01362" lon="-1.08705">
        <ele>120.2</ele>
        <time>2011-11-27T08:04:44Z</time>
      </trkpt>
      <trkpt lat="47.0136" lon="-1.08698">
        <ele>119.3</ele>
        <time>2011-11-27T08:04:47Z</time>
      </trkpt>
      <trkpt lat="47.01356" lon="-1.08695">
        <ele>120.2</ele>
        <time>2011-11-27T08:04:51Z</time>
      </trkpt>
      <trkpt lat="47.01352" lon="-1.0869">
        <ele>118</ele>
        <time>2011-11-27T08:04:53Z</time>
      </trkpt>
      <trkpt lat="47.01348" lon="-1.08684">
        <ele>115.6</ele>
        <time>2011-11-27T08:04:56Z</time>
      </trkpt>
      <trkpt lat="47.01345" lon="-1.08678">
        <ele>114.7</ele>
        <time>2011-11-27T08:04:58Z</time>
      </trkpt>
      <trkpt lat="47.0134" lon="-1.08674">
        <ele>114.8</ele>
        <time>2011-11-27T08:05:03Z</time>
      </trkpt>
      <trkpt lat="47.01342" lon="-1.08663">
        <ele>114.3</ele>
        <time>2011-11-27T08:05:06Z</time>
      </trkpt>
      <trkpt lat="47.01341" lon="-1.08656">
        <ele>114.2</ele>
        <time>2011-11-27T08:05:13Z</time>
      </trkpt>
      <trkpt lat="47.01333" lon="-1.08656">
        <ele>113.1</ele>
        <time>2011-11-27T08:05:16Z</time>
      </trkpt>
      <trkpt lat="47.01324" lon="-1.08654">
        <ele>114.8</ele>
        <time>2011-11-27T08:05:21Z</time>
      </trkpt>
      <trkpt lat="47.01316" lon="-1.08652">
        <ele>117</ele>
        <time>2011-11-27T08:05:26Z</time>
      </trkpt>
      <trkpt lat="47.01321" lon="-1.0865">
        <ele>117.4</ele>
        <time>2011-11-27T08:05:28Z</time>
      </trkpt>
      <trkpt lat="47.01321" lon="-1.08643">
        <ele>121</ele>
        <time>2011-11-27T08:05:41Z</time>
      </trkpt>
      <trkpt lat="47.01318" lon="-1.08636">
        <ele>120.5</ele>
        <time>2011-11-27T08:05:47Z</time>
      </trkpt>
      <trkpt lat="47.01316" lon="-1.08628">
        <ele>118.6</ele>
        <time>2011-11-27T08:05:57Z</time>
      </trkpt>
      <trkpt lat="47.01314" lon="-1.08622">
        <ele>118.9</ele>
        <time>2011-11-27T08:06:07Z</time>
      </trkpt>
      <trkpt lat="47.0131" lon="-1.08615">
        <ele>116.6</ele>
        <time>2011-11-27T08:06:09Z</time>
      </trkpt>
      <trkpt lat="47.01305" lon="-1.08612">
        <ele>115.3</ele>
        <time>2011-11-27T08:06:12Z</time>
      </trkpt>
      <trkpt lat="47.01302" lon="-1.08605">
        <ele>112.1</ele>
        <time>2011-11-27T08:06:15Z</time>
      </trkpt>
      <trkpt lat="47.01297" lon="-1.08601">
        <ele>113.2</ele>
        <time>2011-11-27T08:06:19Z</time>
      </trkpt>
      <trkpt lat="47.01291" lon="-1.086">
        <ele>112.8</ele>
        <time>2011-11-27T08:06:23Z</time>
      </trkpt>
      <trkpt lat="47.01285" lon="-1.086">
        <ele>112</ele>
        <time>2011-11-27T08:06:24Z</time>
      </trkpt>
      <trkpt lat="47.01279" lon="-1.08598">
        <ele>111.8</ele>
        <time>2011-11-27T08:06:26Z</time>
      </trkpt>
      <trkpt lat="47.01273" lon="-1.08597">
        <ele>112.4</ele>
        <time>2011-11-27T08:06:28Z</time>
      </trkpt>
      <trkpt lat="47.01266" lon="-1.08592">
        <ele>113.4</ele>
        <time>2011-11-27T08:06:30Z</time>
      </trkpt>
      <trkpt lat="47.01263" lon="-1.08586">
        <ele>114.5</ele>
        <time>2011-11-27T08:06:32Z</time>
      </trkpt>
      <trkpt lat="47.01261" lon="-1.08579">
        <ele>114.9</ele>
        <time>2011-11-27T08:06:34Z</time>
      </trkpt>
      <trkpt lat="47.01256" lon="-1.08575">
        <ele>116.7</ele>
        <time>2011-11-27T08:06:36Z</time>
      </trkpt>
      <trkpt lat="47.01254" lon="-1.08561">
        <ele>114</ele>
        <time>2011-11-27T08:06:38Z</time>
      </trkpt>
      <trkpt lat="47.01251" lon="-1.08553">
        <ele>113.9</ele>
        <time>2011-11-27T08:06:40Z</time>
      </trkpt>
      <trkpt lat="47.01246" lon="-1.08545">
        <ele>114.2</ele>
        <time>2011-11-27T08:06:42Z</time>
      </trkpt>
      <trkpt lat="47.01239" lon="-1.08533">
        <ele>114.8</ele>
        <time>2011-11-27T08:06:44Z</time>
      </trkpt>
      <trkpt lat="47.01234" lon="-1.08526">
        <ele>115</ele>
        <time>2011-11-27T08:06:45Z</time>
      </trkpt>
      <trkpt lat="47.01228" lon="-1.08511">
        <ele>113.5</ele>
        <time>2011-11-27T08:06:46Z</time>
      </trkpt>
      <trkpt lat="47.01226" lon="-1.08497">
        <ele>112.6</ele>
        <time>2011-11-27T08:06:47Z</time>
      </trkpt>
      <trkpt lat="47.01223" lon="-1.08489">
        <ele>112</ele>
        <time>2011-11-27T08:06:48Z</time>
      </trkpt>
      <trkpt lat="47.01222" lon="-1.08478">
        <ele>110.8</ele>
        <time>2011-11-27T08:06:49Z</time>
      </trkpt>
      <trkpt lat="47.01221" lon="-1.08468">
        <ele>108.4</ele>
        <time>2011-11-27T08:06:50Z</time>
      </trkpt>
      <trkpt lat="47.01221" lon="-1.08457">
        <ele>107.6</ele>
        <time>2011-11-27T08:06:51Z</time>
      </trkpt>
      <trkpt lat="47.01225" lon="-1.0845">
        <ele>108.2</ele>
        <time>2011-11-27T08:06:52Z</time>
      </trkpt>
      <trkpt lat="47.01225" lon="-1.08441">
        <ele>106.4</ele>
        <time>2011-11-27T08:06:54Z</time>
      </trkpt>
      <trkpt lat="47.01227" lon="-1.08435">
        <ele>106.6</ele>
        <time>2011-11-27T08:06:58Z</time>
      </trkpt>
      <trkpt lat="47.01228" lon="-1.08428">
        <ele>106</ele>
        <time>2011-11-27T08:07:04Z</time>
      </trkpt>
      <trkpt lat="47.01228" lon="-1.08418">
        <ele>102.8</ele>
        <time>2011-11-27T08:07:26Z</time>
      </trkpt>
      <trkpt lat="47.01232" lon="-1.08413">
        <ele>102.4</ele>
        <time>2011-11-27T08:07:30Z</time>
      </trkpt>
      <trkpt lat="47.01229" lon="-1.08407">
        <ele>103.4</ele>
        <time>2011-11-27T08:07:38Z</time>
      </trkpt>
      <trkpt lat="47.01235" lon="-1.08401">
        <ele>102.1</ele>
        <time>2011-11-27T08:07:49Z</time>
      </trkpt>
      <trkpt lat="47.01239" lon="-1.08397">
        <ele>104.3</ele>
        <time>2011-11-27T08:07:55Z</time>
      </trkpt>
      <trkpt lat="47.01243" lon="-1.08392">
        <ele>104.5</ele>
        <time>2011-11-27T08:08:00Z</time>
      </trkpt>
      <trkpt lat="47.01246" lon="-1.08387">
        <ele>107.3</ele>
        <time>2011-11-27T08:08:10Z</time>
      </trkpt>
      <trkpt lat="47.0125" lon="-1.08383">
        <ele>106.5</ele>
        <time>2011-11-27T08:08:13Z</time>
      </trkpt>
      <trkpt lat="47.01254" lon="-1.08376">
        <ele>105.3</ele>
        <time>2011-11-27T08:08:17Z</time>
      </trkpt>
      <trkpt lat="47.01258" lon="-1.08371">
        <ele>107.1</ele>
        <time>2011-11-27T08:08:18Z</time>
      </trkpt>
      <trkpt lat="47.0126" lon="-1.08362">
        <ele>106.8</ele>
        <time>2011-11-27T08:08:24Z</time>
      </trkpt>
      <trkpt lat="47.01265" lon="-1.08358">
        <ele>107.4</ele>
        <time>2011-11-27T08:08:26Z</time>
      </trkpt>
      <trkpt lat="47.0127" lon="-1.08355">
        <ele>106.5</ele>
        <time>2011-11-27T08:08:28Z</time>
      </trkpt>
      <trkpt lat="47.01278" lon="-1.08351">
        <ele>106.3</ele>
        <time>2011-11-27T08:08:30Z</time>
      </trkpt>
      <trkpt lat="47.01284" lon="-1.08346">
        <ele>106.2</ele>
        <time>2011-11-27T08:08:32Z</time>
      </trkpt>
      <trkpt lat="47.01289" lon="-1.0834">
        <ele>105.9</ele>
        <time>2011-11-27T08:08:34Z</time>
      </trkpt>
      <trkpt lat="47.01296" lon="-1.08336">
        <ele>105.7</ele>
        <time>2011-11-27T08:08:36Z</time>
      </trkpt>
      <trkpt lat="47.01303" lon="-1.0832">
        <ele>105.3</ele>
        <time>2011-11-27T08:08:40Z</time>
      </trkpt>
      <trkpt lat="47.01305" lon="-1.08314">
        <ele>104.9</ele>
        <time>2011-11-27T08:08:41Z</time>
      </trkpt>
      <trkpt lat="47.0131" lon="-1.08309">
        <ele>104.6</ele>
        <time>2011-11-27T08:08:42Z</time>
      </trkpt>
      <trkpt lat="47.01314" lon="-1.08303">
        <ele>104.8</ele>
        <time>2011-11-27T08:08:43Z</time>
      </trkpt>
      <trkpt lat="47.01317" lon="-1.08298">
        <ele>104.1</ele>
        <time>2011-11-27T08:08:44Z</time>
      </trkpt>
      <trkpt lat="47.01323" lon="-1.08285">
        <ele>102.7</ele>
        <time>2011-11-27T08:08:45Z</time>
      </trkpt>
      <trkpt lat="47.01327" lon="-1.08281">
        <ele>102</ele>
        <time>2011-11-27T08:08:46Z</time>
      </trkpt>
      <trkpt lat="47.01332" lon="-1.08273">
        <ele>101.6</ele>
        <time>2011-11-27T08:08:48Z</time>
      </trkpt>
      <trkpt lat="47.01336" lon="-1.08261">
        <ele>101.3</ele>
        <time>2011-11-27T08:08:50Z</time>
      </trkpt>
      <trkpt lat="47.01338" lon="-1.08255">
        <ele>99.8</ele>
        <time>2011-11-27T08:08:51Z</time>
      </trkpt>
      <trkpt lat="47.01344" lon="-1.08246">
        <ele>99.7</ele>
        <time>2011-11-27T08:08:54Z</time>
      </trkpt>
      <trkpt lat="47.01347" lon="-1.08238">
        <ele>101.9</ele>
        <time>2011-11-27T08:08:55Z</time>
      </trkpt>
      <trkpt lat="47.01352" lon="-1.08234">
        <ele>104.6</ele>
        <time>2011-11-27T08:08:59Z</time>
      </trkpt>
      <trkpt lat="47.01355" lon="-1.08227">
        <ele>103.7</ele>
        <time>2011-11-27T08:09:03Z</time>
      </trkpt>
      <trkpt lat="47.0135" lon="-1.08223">
        <ele>105.5</ele>
        <time>2011-11-27T08:09:13Z</time>
      </trkpt>
      <trkpt lat="47.0135" lon="-1.08223">
        <ele>105.5</ele>
        <time>2011-11-27T08:09:13Z</time>
      </trkpt>
      <trkpt lat="47.0135" lon="-1.08223">
        <ele>105.5</ele>
        <time>2011-11-27T08:09:14Z</time>
      </trkpt>
      <trkpt lat="47.0135" lon="-1.08215">
        <ele>107.5</ele>
        <time>2011-11-27T08:09:18Z</time>
      </trkpt>
      <trkpt lat="47.01357" lon="-1.08209">
        <ele>110.2</ele>
        <time>2011-11-27T08:09:20Z</time>
      </trkpt>
      <trkpt lat="47.01359" lon="-1.08201">
        <ele>110.8</ele>
        <time>2011-11-27T08:09:23Z</time>
      </trkpt>
      <trkpt lat="47.01361" lon="-1.08195">
        <ele>112.1</ele>
        <time>2011-11-27T08:09:26Z</time>
      </trkpt>
      <trkpt lat="47.01358" lon="-1.08185">
        <ele>114.1</ele>
        <time>2011-11-27T08:09:30Z</time>
      </trkpt>
      <trkpt lat="47.01354" lon="-1.08178">
        <ele>113.3</ele>
        <time>2011-11-27T08:09:33Z</time>
      </trkpt>
      <trkpt lat="47.01349" lon="-1.08173">
        <ele>113.1</ele>
        <time>2011-11-27T08:09:34Z</time>
      </trkpt>
      <trkpt lat="47.01344" lon="-1.0817">
        <ele>114.2</ele>
        <time>2011-11-27T08:09:35Z</time>
      </trkpt>
      <trkpt lat="47.0135" lon="-1.08165">
        <ele>112.8</ele>
        <time>2011-11-27T08:09:38Z</time>
      </trkpt>
      <trkpt lat="47.0135" lon="-1.08158">
        <ele>113</ele>
        <time>2011-11-27T08:09:42Z</time>
      </trkpt>
      <trkpt lat="47.01354" lon="-1.08153">
        <ele>110.7</ele>
        <time>2011-11-27T08:09:48Z</time>
      </trkpt>
      <trkpt lat="47.01357" lon="-1.08148">
        <ele>109.9</ele>
        <time>2011-11-27T08:09:52Z</time>
      </trkpt>
      <trkpt lat="47.01357" lon="-1.08141">
        <ele>105.2</ele>
        <time>2011-11-27T08:10:05Z</time>
      </trkpt>
      <trkpt lat="47.01357" lon="-1.08141">
        <ele>105.2</ele>
        <time>2011-11-27T08:10:05Z</time>
      </trkpt>
      <trkpt lat="47.01357" lon="-1.08141">
        <ele>105.2</ele>
        <time>2011-11-27T08:10:06Z</time>
      </trkpt>
      <trkpt lat="47.01353" lon="-1.08136">
        <ele>101.1</ele>
        <time>2011-11-27T08:10:13Z</time>
      </trkpt>
      <trkpt lat="47.01351" lon="-1.08129">
        <ele>103.2</ele>
        <time>2011-11-27T08:10:16Z</time>
      </trkpt>
      <trkpt lat="47.01347" lon="-1.08123">
        <ele>102.8</ele>
        <time>2011-11-27T08:10:18Z</time>
      </trkpt>
      <trkpt lat="47.01341" lon="-1.08112">
        <ele>104.5</ele>
        <time>2011-11-27T08:10:22Z</time>
      </trkpt>
      <trkpt lat="47.01338" lon="-1.08102">
        <ele>104.5</ele>
        <time>2011-11-27T08:10:24Z</time>
      </trkpt>
      <trkpt lat="47.01334" lon="-1.08096">
        <ele>104</ele>
        <time>2011-11-27T08:10:25Z</time>
      </trkpt>
      <trkpt lat="47.0133" lon="-1.0809">
        <ele>104.9</ele>
        <time>2011-11-27T08:10:26Z</time>
      </trkpt>
      <trkpt lat="47.01324" lon="-1.0808">
        <ele>104.9</ele>
        <time>2011-11-27T08:10:27Z</time>
      </trkpt>
      <trkpt lat="47.01319" lon="-1.08069">
        <ele>105.6</ele>
        <time>2011-11-27T08:10:28Z</time>
      </trkpt>
      <trkpt lat="47.0131" lon="-1.08066">
        <ele>105.2</ele>
        <time>2011-11-27T08:10:29Z</time>
      </trkpt>
      <trkpt lat="47.01305" lon="-1.08062">
        <ele>105.2</ele>
        <time>2011-11-27T08:10:30Z</time>
      </trkpt>
      <trkpt lat="47.013" lon="-1.08055">
        <ele>103.7</ele>
        <time>2011-11-27T08:10:31Z</time>
      </trkpt>
      <trkpt lat="47.01294" lon="-1.08043">
        <ele>103.3</ele>
        <time>2011-11-27T08:10:32Z</time>
      </trkpt>
      <trkpt lat="47.01287" lon="-1.08035">
        <ele>101.9</ele>
        <time>2011-11-27T08:10:33Z</time>
      </trkpt>
      <trkpt lat="47.0128" lon="-1.08029">
        <ele>102.7</ele>
        <time>2011-11-27T08:10:34Z</time>
      </trkpt>
      <trkpt lat="47.01275" lon="-1.08021">
        <ele>103.2</ele>
        <time>2011-11-27T08:10:36Z</time>
      </trkpt>
      <trkpt lat="47.0127" lon="-1.08015">
        <ele>103.5</ele>
        <time>2011-11-27T08:10:37Z</time>
      </trkpt>
      <trkpt lat="47.01263" lon="-1.08001">
        <ele>104.1</ele>
        <time>2011-11-27T08:10:39Z</time>
      </trkpt>
      <trkpt lat="47.01259" lon="-1.07994">
        <ele>104.2</ele>
        <time>2011-11-27T08:10:40Z</time>
      </trkpt>
      <trkpt lat="47.01256" lon="-1.07988">
        <ele>104.2</ele>
        <time>2011-11-27T08:10:41Z</time>
      </trkpt>
      <trkpt lat="47.01246" lon="-1.07972">
        <ele>106.3</ele>
        <time>2011-11-27T08:10:43Z</time>
      </trkpt>
      <trkpt lat="47.01243" lon="-1.07966">
        <ele>106.4</ele>
        <time>2011-11-27T08:10:44Z</time>
      </trkpt>
      <trkpt lat="47.01232" lon="-1.0796">
        <ele>106.9</ele>
        <time>2011-11-27T08:10:45Z</time>
      </trkpt>
      <trkpt lat="47.0123" lon="-1.0795">
        <ele>106</ele>
        <time>2011-11-27T08:10:46Z</time>
      </trkpt>
      <trkpt lat="47.01227" lon="-1.0794">
        <ele>106.3</ele>
        <time>2011-11-27T08:10:48Z</time>
      </trkpt>
      <trkpt lat="47.01225" lon="-1.07932">
        <ele>105.8</ele>
        <time>2011-11-27T08:10:49Z</time>
      </trkpt>
      <trkpt lat="47.01222" lon="-1.07925">
        <ele>105.2</ele>
        <time>2011-11-27T08:10:50Z</time>
      </trkpt>
      <trkpt lat="47.0122" lon="-1.07918">
        <ele>105.8</ele>
        <time>2011-11-27T08:10:51Z</time>
      </trkpt>
      <trkpt lat="47.01216" lon="-1.07908">
        <ele>106.5</ele>
        <time>2011-11-27T08:10:53Z</time>
      </trkpt>
      <trkpt lat="47.01211" lon="-1.07897">
        <ele>107.4</ele>
        <time>2011-11-27T08:10:55Z</time>
      </trkpt>
      <trkpt lat="47.01212" lon="-1.0789">
        <ele>106.9</ele>
        <time>2011-11-27T08:10:57Z</time>
      </trkpt>
      <trkpt lat="47.01214" lon="-1.07883">
        <ele>106.3</ele>
        <time>2011-11-27T08:10:58Z</time>
      </trkpt>
      <trkpt lat="47.01216" lon="-1.07873">
        <ele>107</ele>
        <time>2011-11-27T08:11:00Z</time>
      </trkpt>
      <trkpt lat="47.01215" lon="-1.07859">
        <ele>107.7</ele>
        <time>2011-11-27T08:11:05Z</time>
      </trkpt>
      <trkpt lat="47.01213" lon="-1.07852">
        <ele>107.8</ele>
        <time>2011-11-27T08:11:07Z</time>
      </trkpt>
      <trkpt lat="47.0121" lon="-1.07847">
        <ele>109.1</ele>
        <time>2011-11-27T08:11:09Z</time>
      </trkpt>
      <trkpt lat="47.01206" lon="-1.07842">
        <ele>110.7</ele>
        <time>2011-11-27T08:11:11Z</time>
      </trkpt>
      <trkpt lat="47.01202" lon="-1.07837">
        <ele>112.3</ele>
        <time>2011-11-27T08:11:13Z</time>
      </trkpt>
      <trkpt lat="47.01199" lon="-1.07832">
        <ele>113.8</ele>
        <time>2011-11-27T08:11:15Z</time>
      </trkpt>
      <trkpt lat="47.01196" lon="-1.07826">
        <ele>114.6</ele>
        <time>2011-11-27T08:11:17Z</time>
      </trkpt>
      <trkpt lat="47.01192" lon="-1.07821">
        <ele>115.3</ele>
        <time>2011-11-27T08:11:19Z</time>
      </trkpt>
      <trkpt lat="47.01188" lon="-1.07816">
        <ele>115.8</ele>
        <time>2011-11-27T08:11:21Z</time>
      </trkpt>
      <trkpt lat="47.01185" lon="-1.07812">
        <ele>116.3</ele>
        <time>2011-11-27T08:11:23Z</time>
      </trkpt>
      <trkpt lat="47.01181" lon="-1.07806">
        <ele>117.5</ele>
        <time>2011-11-27T08:11:25Z</time>
      </trkpt>
      <trkpt lat="47.01177" lon="-1.078">
        <ele>120</ele>
        <time>2011-11-27T08:11:28Z</time>
      </trkpt>
      <trkpt lat="47.01176" lon="-1.07792">
        <ele>119.1</ele>
        <time>2011-11-27T08:11:31Z</time>
      </trkpt>
      <trkpt lat="47.01179" lon="-1.07785">
        <ele>119.1</ele>
        <time>2011-11-27T08:11:34Z</time>
      </trkpt>
      <trkpt lat="47.01182" lon="-1.0778">
        <ele>118.6</ele>
        <time>2011-11-27T08:11:39Z</time>
      </trkpt>
      <trkpt lat="47.01186" lon="-1.07777">
        <ele>120.9</ele>
        <time>2011-11-27T08:11:45Z</time>
      </trkpt>
      <trkpt lat="47.01182" lon="-1.0777">
        <ele>121</ele>
        <time>2011-11-27T08:11:55Z</time>
      </trkpt>
      <trkpt lat="47.01188" lon="-1.07769">
        <ele>122.5</ele>
        <time>2011-11-27T08:11:56Z</time>
      </trkpt>
      <trkpt lat="47.01194" lon="-1.07768">
        <ele>123.9</ele>
        <time>2011-11-27T08:12:48Z</time>
      </trkpt>
      <trkpt lat="47.0119" lon="-1.07765">
        <ele>124.5</ele>
        <time>2011-11-27T08:13:42Z</time>
      </trkpt>
      <trkpt lat="47.0119" lon="-1.07765">
        <ele>124.5</ele>
        <time>2011-11-27T08:13:42Z</time>
      </trkpt>
      <trkpt lat="47.0119" lon="-1.07765">
        <ele>124.5</ele>
        <time>2011-11-27T08:13:43Z</time>
      </trkpt>
      <trkpt lat="47.01185" lon="-1.07759">
        <ele>124.7</ele>
        <time>2011-11-27T08:13:49Z</time>
      </trkpt>
      <trkpt lat="47.01186" lon="-1.07751">
        <ele>123</ele>
        <time>2011-11-27T08:13:51Z</time>
      </trkpt>
      <trkpt lat="47.01188" lon="-1.07759">
        <ele>123.7</ele>
        <time>2011-11-27T08:13:56Z</time>
      </trkpt>
      <trkpt lat="47.01183" lon="-1.07756">
        <ele>125.6</ele>
        <time>2011-11-27T08:14:03Z</time>
      </trkpt>
      <trkpt lat="47.01181" lon="-1.07748">
        <ele>123.5</ele>
        <time>2011-11-27T08:14:44Z</time>
      </trkpt>
      <trkpt lat="47.01178" lon="-1.07742">
        <ele>122.1</ele>
        <time>2011-11-27T08:14:46Z</time>
      </trkpt>
      <trkpt lat="47.01175" lon="-1.07735">
        <ele>119.9</ele>
        <time>2011-11-27T08:14:49Z</time>
      </trkpt>
      <trkpt lat="47.01156" lon="-1.07717">
        <ele>120.8</ele>
        <time>2011-11-27T08:15:59Z</time>
      </trkpt>
      <trkpt lat="47.01152" lon="-1.07712">
        <ele>122.2</ele>
        <time>2011-11-27T08:16:00Z</time>
      </trkpt>
      <trkpt lat="47.01147" lon="-1.07705">
        <ele>124.3</ele>
        <time>2011-11-27T08:16:01Z</time>
      </trkpt>
      <trkpt lat="47.01145" lon="-1.07686">
        <ele>119.5</ele>
        <time>2011-11-27T08:16:02Z</time>
      </trkpt>
      <trkpt lat="47.01142" lon="-1.07674">
        <ele>118.7</ele>
        <time>2011-11-27T08:16:03Z</time>
      </trkpt>
      <trkpt lat="47.01138" lon="-1.07664">
        <ele>116.6</ele>
        <time>2011-11-27T08:16:05Z</time>
      </trkpt>
      <trkpt lat="47.01138" lon="-1.07654">
        <ele>116.8</ele>
        <time>2011-11-27T08:16:06Z</time>
      </trkpt>
      <trkpt lat="47.01138" lon="-1.07642">
        <ele>116.7</ele>
        <time>2011-11-27T08:16:08Z</time>
      </trkpt>
      <trkpt lat="47.01138" lon="-1.0763">
        <ele>117</ele>
        <time>2011-11-27T08:16:11Z</time>
      </trkpt>
      <trkpt lat="47.01136" lon="-1.07623">
        <ele>116.9</ele>
        <time>2011-11-27T08:16:13Z</time>
      </trkpt>
      <trkpt lat="47.01134" lon="-1.07616">
        <ele>117.3</ele>
        <time>2011-11-27T08:16:15Z</time>
      </trkpt>
      <trkpt lat="47.01137" lon="-1.07604">
        <ele>117.3</ele>
        <time>2011-11-27T08:16:18Z</time>
      </trkpt>
      <trkpt lat="47.01137" lon="-1.07594">
        <ele>116.8</ele>
        <time>2011-11-27T08:16:20Z</time>
      </trkpt>
      <trkpt lat="47.01137" lon="-1.07586">
        <ele>117.5</ele>
        <time>2011-11-27T08:16:22Z</time>
      </trkpt>
      <trkpt lat="47.01137" lon="-1.07579">
        <ele>118.8</ele>
        <time>2011-11-27T08:16:24Z</time>
      </trkpt>
      <trkpt lat="47.01136" lon="-1.0757">
        <ele>118.2</ele>
        <time>2011-11-27T08:16:26Z</time>
      </trkpt>
      <trkpt lat="47.01137" lon="-1.07563">
        <ele>117.6</ele>
        <time>2011-11-27T08:16:28Z</time>
      </trkpt>
      <trkpt lat="47.01136" lon="-1.07555">
        <ele>118.1</ele>
        <time>2011-11-27T08:16:30Z</time>
      </trkpt>
      <trkpt lat="47.01139" lon="-1.0755">
        <ele>120</ele>
        <time>2011-11-27T08:16:32Z</time>
      </trkpt>
      <trkpt lat="47.01136" lon="-1.07544">
        <ele>119.9</ele>
        <time>2011-11-27T08:16:34Z</time>
      </trkpt>
      <trkpt lat="47.0113" lon="-1.07537">
        <ele>119.2</ele>
        <time>2011-11-27T08:16:39Z</time>
      </trkpt>
      <trkpt lat="47.01134" lon="-1.07534">
        <ele>119.8</ele>
        <time>2011-11-27T08:16:43Z</time>
      </trkpt>
      <trkpt lat="47.01135" lon="-1.07525">
        <ele>121.7</ele>
        <time>2011-11-27T08:16:45Z</time>
      </trkpt>
      <trkpt lat="47.01137" lon="-1.07511">
        <ele>120.4</ele>
        <time>2011-11-27T08:16:48Z</time>
      </trkpt>
      <trkpt lat="47.01141" lon="-1.07504">
        <ele>121.5</ele>
        <time>2011-11-27T08:16:50Z</time>
      </trkpt>
      <trkpt lat="47.01144" lon="-1.07499">
        <ele>122.1</ele>
        <time>2011-11-27T08:16:55Z</time>
      </trkpt>
      <trkpt lat="47.0114" lon="-1.07493">
        <ele>121.8</ele>
        <time>2011-11-27T08:16:58Z</time>
      </trkpt>
      <trkpt lat="47.01135" lon="-1.07492">
        <ele>122.2</ele>
        <time>2011-11-27T08:16:59Z</time>
      </trkpt>
      <trkpt lat="47.01132" lon="-1.07483">
        <ele>123.8</ele>
        <time>2011-11-27T08:17:01Z</time>
      </trkpt>
      <trkpt lat="47.01125" lon="-1.07479">
        <ele>124.9</ele>
        <time>2011-11-27T08:17:04Z</time>
      </trkpt>
      <trkpt lat="47.01119" lon="-1.07472">
        <ele>125.5</ele>
        <time>2011-11-27T08:17:06Z</time>
      </trkpt>
      <trkpt lat="47.01114" lon="-1.07464">
        <ele>124.3</ele>
        <time>2011-11-27T08:17:08Z</time>
      </trkpt>
      <trkpt lat="47.01113" lon="-1.07456">
        <ele>123.7</ele>
        <time>2011-11-27T08:17:09Z</time>
      </trkpt>
      <trkpt lat="47.01113" lon="-1.07439">
        <ele>123.9</ele>
        <time>2011-11-27T08:17:10Z</time>
      </trkpt>
      <trkpt lat="47.0111" lon="-1.07422">
        <ele>125.2</ele>
        <time>2011-11-27T08:17:11Z</time>
      </trkpt>
      <trkpt lat="47.01108" lon="-1.07409">
        <ele>124.7</ele>
        <time>2011-11-27T08:17:12Z</time>
      </trkpt>
      <trkpt lat="47.01106" lon="-1.07395">
        <ele>124.5</ele>
        <time>2011-11-27T08:17:13Z</time>
      </trkpt>
      <trkpt lat="47.01102" lon="-1.07381">
        <ele>124.5</ele>
        <time>2011-11-27T08:17:14Z</time>
      </trkpt>
      <trkpt lat="47.01102" lon="-1.0737">
        <ele>123.8</ele>
        <time>2011-11-27T08:17:15Z</time>
      </trkpt>
      <trkpt lat="47.011" lon="-1.07356">
        <ele>123.3</ele>
        <time>2011-11-27T08:17:16Z</time>
      </trkpt>
      <trkpt lat="47.01098" lon="-1.07341">
        <ele>122.9</ele>
        <time>2011-11-27T08:17:17Z</time>
      </trkpt>
      <trkpt lat="47.01097" lon="-1.0733">
        <ele>122.7</ele>
        <time>2011-11-27T08:17:18Z</time>
      </trkpt>
      <trkpt lat="47.01096" lon="-1.07315">
        <ele>121.6</ele>
        <time>2011-11-27T08:17:19Z</time>
      </trkpt>
      <trkpt lat="47.01094" lon="-1.07308">
        <ele>122</ele>
        <time>2011-11-27T08:17:20Z</time>
      </trkpt>
      <trkpt lat="47.01091" lon="-1.07298">
        <ele>120.4</ele>
        <time>2011-11-27T08:17:21Z</time>
      </trkpt>
      <trkpt lat="47.0109" lon="-1.07282">
        <ele>119.5</ele>
        <time>2011-11-27T08:17:22Z</time>
      </trkpt>
      <trkpt lat="47.0109" lon="-1.07268">
        <ele>117.4</ele>
        <time>2011-11-27T08:17:23Z</time>
      </trkpt>
      <trkpt lat="47.01091" lon="-1.0726">
        <ele>118.7</ele>
        <time>2011-11-27T08:17:24Z</time>
      </trkpt>
      <trkpt lat="47.01094" lon="-1.07251">
        <ele>118.1</ele>
        <time>2011-11-27T08:17:25Z</time>
      </trkpt>
      <trkpt lat="47.01098" lon="-1.07244">
        <ele>117.3</ele>
        <time>2011-11-27T08:17:26Z</time>
      </trkpt>
      <trkpt lat="47.011" lon="-1.07235">
        <ele>116.8</ele>
        <time>2011-11-27T08:17:27Z</time>
      </trkpt>
      <trkpt lat="47.01106" lon="-1.07225">
        <ele>116.1</ele>
        <time>2011-11-27T08:17:28Z</time>
      </trkpt>
      <trkpt lat="47.01109" lon="-1.07217">
        <ele>114.9</ele>
        <time>2011-11-27T08:17:29Z</time>
      </trkpt>
      <trkpt lat="47.0111" lon="-1.07209">
        <ele>115.8</ele>
        <time>2011-11-27T08:17:30Z</time>
      </trkpt>
      <trkpt lat="47.01113" lon="-1.07199">
        <ele>113.9</ele>
        <time>2011-11-27T08:17:31Z</time>
      </trkpt>
      <trkpt lat="47.01116" lon="-1.07189">
        <ele>112.9</ele>
        <time>2011-11-27T08:17:32Z</time>
      </trkpt>
      <trkpt lat="47.0112" lon="-1.0718">
        <ele>112.7</ele>
        <time>2011-11-27T08:17:33Z</time>
      </trkpt>
      <trkpt lat="47.01124" lon="-1.07171">
        <ele>112.1</ele>
        <time>2011-11-27T08:17:34Z</time>
      </trkpt>
      <trkpt lat="47.01134" lon="-1.07165">
        <ele>112.3</ele>
        <time>2011-11-27T08:17:35Z</time>
      </trkpt>
      <trkpt lat="47.01141" lon="-1.0715">
        <ele>113</ele>
        <time>2011-11-27T08:17:37Z</time>
      </trkpt>
      <trkpt lat="47.01145" lon="-1.07135">
        <ele>111.4</ele>
        <time>2011-11-27T08:17:40Z</time>
      </trkpt>
      <trkpt lat="47.01151" lon="-1.07126">
        <ele>112.2</ele>
        <time>2011-11-27T08:17:41Z</time>
      </trkpt>
      <trkpt lat="47.01161" lon="-1.07112">
        <ele>115.1</ele>
        <time>2011-11-27T08:17:42Z</time>
      </trkpt>
      <trkpt lat="47.01166" lon="-1.07106">
        <ele>116</ele>
        <time>2011-11-27T08:17:43Z</time>
      </trkpt>
      <trkpt lat="47.01172" lon="-1.07099">
        <ele>114.7</ele>
        <time>2011-11-27T08:17:45Z</time>
      </trkpt>
      <trkpt lat="47.01177" lon="-1.07088">
        <ele>114.5</ele>
        <time>2011-11-27T08:17:47Z</time>
      </trkpt>
      <trkpt lat="47.01184" lon="-1.07073">
        <ele>113.6</ele>
        <time>2011-11-27T08:17:50Z</time>
      </trkpt>
      <trkpt lat="47.01202" lon="-1.07068">
        <ele>111.4</ele>
        <time>2011-11-27T08:17:52Z</time>
      </trkpt>
      <trkpt lat="47.01208" lon="-1.07065">
        <ele>110.2</ele>
        <time>2011-11-27T08:17:54Z</time>
      </trkpt>
      <trkpt lat="47.01212" lon="-1.07061">
        <ele>110.2</ele>
        <time>2011-11-27T08:17:55Z</time>
      </trkpt>
      <trkpt lat="47.01218" lon="-1.07059">
        <ele>110.2</ele>
        <time>2011-11-27T08:17:56Z</time>
      </trkpt>
      <trkpt lat="47.01223" lon="-1.0705">
        <ele>109.7</ele>
        <time>2011-11-27T08:17:59Z</time>
      </trkpt>
      <trkpt lat="47.01228" lon="-1.07045">
        <ele>109</ele>
        <time>2011-11-27T08:18:00Z</time>
      </trkpt>
      <trkpt lat="47.01228" lon="-1.07035">
        <ele>106.6</ele>
        <time>2011-11-27T08:18:02Z</time>
      </trkpt>
      <trkpt lat="47.0123" lon="-1.07024">
        <ele>105.3</ele>
        <time>2011-11-27T08:18:06Z</time>
      </trkpt>
      <trkpt lat="47.01237" lon="-1.07018">
        <ele>105.5</ele>
        <time>2011-11-27T08:18:07Z</time>
      </trkpt>
      <trkpt lat="47.01242" lon="-1.07012">
        <ele>105.7</ele>
        <time>2011-11-27T08:18:12Z</time>
      </trkpt>
      <trkpt lat="47.01244" lon="-1.07003">
        <ele>106.8</ele>
        <time>2011-11-27T08:18:15Z</time>
      </trkpt>
      <trkpt lat="47.01246" lon="-1.06993">
        <ele>105</ele>
        <time>2011-11-27T08:18:18Z</time>
      </trkpt>
      <trkpt lat="47.01249" lon="-1.06985">
        <ele>104.8</ele>
        <time>2011-11-27T08:18:20Z</time>
      </trkpt>
      <trkpt lat="47.01251" lon="-1.06976">
        <ele>104.7</ele>
        <time>2011-11-27T08:18:22Z</time>
      </trkpt>
      <trkpt lat="47.0125" lon="-1.06969">
        <ele>105.9</ele>
        <time>2011-11-27T08:18:23Z</time>
      </trkpt>
      <trkpt lat="47.01251" lon="-1.06957">
        <ele>107.4</ele>
        <time>2011-11-27T08:18:25Z</time>
      </trkpt>
      <trkpt lat="47.01255" lon="-1.06947">
        <ele>107.1</ele>
        <time>2011-11-27T08:18:27Z</time>
      </trkpt>
      <trkpt lat="47.01257" lon="-1.06938">
        <ele>106.2</ele>
        <time>2011-11-27T08:18:29Z</time>
      </trkpt>
      <trkpt lat="47.0126" lon="-1.06928">
        <ele>103.1</ele>
        <time>2011-11-27T08:18:31Z</time>
      </trkpt>
      <trkpt lat="47.01265" lon="-1.06918">
        <ele>106.2</ele>
        <time>2011-11-27T08:18:33Z</time>
      </trkpt>
      <trkpt lat="47.01272" lon="-1.0691">
        <ele>106.8</ele>
        <time>2011-11-27T08:18:36Z</time>
      </trkpt>
      <trkpt lat="47.01275" lon="-1.06902">
        <ele>108</ele>
        <time>2011-11-27T08:18:37Z</time>
      </trkpt>
      <trkpt lat="47.01278" lon="-1.06896">
        <ele>108.6</ele>
        <time>2011-11-27T08:18:38Z</time>
      </trkpt>
      <trkpt lat="47.01278" lon="-1.06882">
        <ele>107</ele>
        <time>2011-11-27T08:18:39Z</time>
      </trkpt>
      <trkpt lat="47.01285" lon="-1.06877">
        <ele>107</ele>
        <time>2011-11-27T08:18:40Z</time>
      </trkpt>
      <trkpt lat="47.01288" lon="-1.06868">
        <ele>105</ele>
        <time>2011-11-27T08:18:41Z</time>
      </trkpt>
      <trkpt lat="47.01294" lon="-1.06863">
        <ele>105.2</ele>
        <time>2011-11-27T08:18:42Z</time>
      </trkpt>
      <trkpt lat="47.01297" lon="-1.06852">
        <ele>104.3</ele>
        <time>2011-11-27T08:18:44Z</time>
      </trkpt>
      <trkpt lat="47.01301" lon="-1.06845">
        <ele>104</ele>
        <time>2011-11-27T08:18:45Z</time>
      </trkpt>
      <trkpt lat="47.01305" lon="-1.06838">
        <ele>105.1</ele>
        <time>2011-11-27T08:18:46Z</time>
      </trkpt>
      <trkpt lat="47.01309" lon="-1.06828">
        <ele>104.3</ele>
        <time>2011-11-27T08:18:47Z</time>
      </trkpt>
      <trkpt lat="47.01314" lon="-1.06819">
        <ele>105.9</ele>
        <time>2011-11-27T08:18:48Z</time>
      </trkpt>
      <trkpt lat="47.01317" lon="-1.06814">
        <ele>104.9</ele>
        <time>2011-11-27T08:18:49Z</time>
      </trkpt>
      <trkpt lat="47.01317" lon="-1.06807">
        <ele>105.1</ele>
        <time>2011-11-27T08:18:50Z</time>
      </trkpt>
      <trkpt lat="47.01321" lon="-1.068">
        <ele>105.6</ele>
        <time>2011-11-27T08:18:51Z</time>
      </trkpt>
      <trkpt lat="47.01322" lon="-1.06792">
        <ele>107.5</ele>
        <time>2011-11-27T08:18:52Z</time>
      </trkpt>
      <trkpt lat="47.01321" lon="-1.06782">
        <ele>107.9</ele>
        <time>2011-11-27T08:18:53Z</time>
      </trkpt>
      <trkpt lat="47.01321" lon="-1.06774">
        <ele>108.3</ele>
        <time>2011-11-27T08:18:54Z</time>
      </trkpt>
      <trkpt lat="47.0132" lon="-1.06763">
        <ele>108.5</ele>
        <time>2011-11-27T08:18:56Z</time>
      </trkpt>
      <trkpt lat="47.0132" lon="-1.06752">
        <ele>110</ele>
        <time>2011-11-27T08:18:58Z</time>
      </trkpt>
      <trkpt lat="47.0132" lon="-1.06741">
        <ele>108</ele>
        <time>2011-11-27T08:19:00Z</time>
      </trkpt>
      <trkpt lat="47.01321" lon="-1.06734">
        <ele>107.2</ele>
        <time>2011-11-27T08:19:01Z</time>
      </trkpt>
      <trkpt lat="47.01319" lon="-1.06725">
        <ele>107.9</ele>
        <time>2011-11-27T08:19:03Z</time>
      </trkpt>
      <trkpt lat="47.01318" lon="-1.06709">
        <ele>108.7</ele>
        <time>2011-11-27T08:19:05Z</time>
      </trkpt>
      <trkpt lat="47.01322" lon="-1.06695">
        <ele>110.2</ele>
        <time>2011-11-27T08:19:07Z</time>
      </trkpt>
      <trkpt lat="47.01328" lon="-1.06688">
        <ele>112.3</ele>
        <time>2011-11-27T08:19:09Z</time>
      </trkpt>
      <trkpt lat="47.01337" lon="-1.06677">
        <ele>114.4</ele>
        <time>2011-11-27T08:19:10Z</time>
      </trkpt>
      <trkpt lat="47.01342" lon="-1.0667">
        <ele>115.6</ele>
        <time>2011-11-27T08:19:12Z</time>
      </trkpt>
      <trkpt lat="47.01344" lon="-1.06663">
        <ele>118.5</ele>
        <time>2011-11-27T08:19:15Z</time>
      </trkpt>
      <trkpt lat="47.01348" lon="-1.06655">
        <ele>119.3</ele>
        <time>2011-11-27T08:19:17Z</time>
      </trkpt>
      <trkpt lat="47.01346" lon="-1.06647">
        <ele>122.2</ele>
        <time>2011-11-27T08:19:20Z</time>
      </trkpt>
      <trkpt lat="47.01345" lon="-1.06639">
        <ele>124</ele>
        <time>2011-11-27T08:19:22Z</time>
      </trkpt>
      <trkpt lat="47.01348" lon="-1.0663">
        <ele>123.7</ele>
        <time>2011-11-27T08:19:24Z</time>
      </trkpt>
      <trkpt lat="47.01352" lon="-1.06622">
        <ele>123.7</ele>
        <time>2011-11-27T08:19:28Z</time>
      </trkpt>
      <trkpt lat="47.01356" lon="-1.06613">
        <ele>123.8</ele>
        <time>2011-11-27T08:19:32Z</time>
      </trkpt>
      <trkpt lat="47.0136" lon="-1.06605">
        <ele>123.7</ele>
        <time>2011-11-27T08:19:36Z</time>
      </trkpt>
      <trkpt lat="47.01362" lon="-1.06593">
        <ele>123.7</ele>
        <time>2011-11-27T08:19:40Z</time>
      </trkpt>
      <trkpt lat="47.01359" lon="-1.06587">
        <ele>123.4</ele>
        <time>2011-11-27T08:19:43Z</time>
      </trkpt>
      <trkpt lat="47.01362" lon="-1.06593">
        <ele>127.9</ele>
        <time>2011-11-27T08:21:00Z</time>
      </trkpt>
      <trkpt lat="47.01364" lon="-1.06586">
        <ele>125.5</ele>
        <time>2011-11-27T08:21:11Z</time>
      </trkpt>
      <trkpt lat="47.0137" lon="-1.06585">
        <ele>124.8</ele>
        <time>2011-11-27T08:21:33Z</time>
      </trkpt>
      <trkpt lat="47.01374" lon="-1.06582">
        <ele>125.9</ele>
        <time>2011-11-27T08:21:43Z</time>
      </trkpt>
      <trkpt lat="47.01369" lon="-1.06588">
        <ele>124.7</ele>
        <time>2011-11-27T08:22:29Z</time>
      </trkpt>
      <trkpt lat="47.01364" lon="-1.06585">
        <ele>126.6</ele>
        <time>2011-11-27T08:22:31Z</time>
      </trkpt>
      <trkpt lat="47.0136" lon="-1.06588">
        <ele>126.6</ele>
        <time>2011-11-27T08:22:35Z</time>
      </trkpt>
      <trkpt lat="47.01366" lon="-1.06583">
        <ele>126.1</ele>
        <time>2011-11-27T08:24:27Z</time>
      </trkpt>
      <trkpt lat="47.0137" lon="-1.06578">
        <ele>126.5</ele>
        <time>2011-11-27T08:24:31Z</time>
      </trkpt>
      <trkpt lat="47.01372" lon="-1.06586">
        <ele>127.3</ele>
        <time>2011-11-27T08:27:34Z</time>
      </trkpt>
      <trkpt lat="47.01366" lon="-1.06586">
        <ele>128</ele>
        <time>2011-11-27T08:27:45Z</time>
      </trkpt>
      <trkpt lat="47.01365" lon="-1.0658">
        <ele>125.3</ele>
        <time>2011-11-27T08:29:41Z</time>
      </trkpt>
      <trkpt lat="47.01368" lon="-1.06576">
        <ele>122</ele>
        <time>2011-11-27T08:29:43Z</time>
      </trkpt>
      <trkpt lat="47.01372" lon="-1.06573">
        <ele>122.2</ele>
        <time>2011-11-27T08:29:48Z</time>
      </trkpt>
      <trkpt lat="47.01379" lon="-1.06569">
        <ele>121.2</ele>
        <time>2011-11-27T08:29:53Z</time>
      </trkpt>
      <trkpt lat="47.01384" lon="-1.06569">
        <ele>123.7</ele>
        <time>2011-11-27T08:29:58Z</time>
      </trkpt>
      <trkpt lat="47.0139" lon="-1.06572">
        <ele>124.5</ele>
        <time>2011-11-27T08:30:02Z</time>
      </trkpt>
      <trkpt lat="47.01394" lon="-1.06574">
        <ele>126.9</ele>
        <time>2011-11-27T08:30:04Z</time>
      </trkpt>
      <trkpt lat="47.01394" lon="-1.06565">
        <ele>127</ele>
        <time>2011-11-27T08:30:20Z</time>
      </trkpt>
      <trkpt lat="47.0139" lon="-1.06561">
        <ele>129.2</ele>
        <time>2011-11-27T08:30:22Z</time>
      </trkpt>
      <trkpt lat="47.01383" lon="-1.06562">
        <ele>130.3</ele>
        <time>2011-11-27T08:30:30Z</time>
      </trkpt>
      <trkpt lat="47.01377" lon="-1.0656">
        <ele>129</ele>
        <time>2011-11-27T08:30:35Z</time>
      </trkpt>
      <trkpt lat="47.01369" lon="-1.06564">
        <ele>129.9</ele>
        <time>2011-11-27T08:30:37Z</time>
      </trkpt>
      <trkpt lat="47.01363" lon="-1.06567">
        <ele>128.9</ele>
        <time>2011-11-27T08:30:39Z</time>
      </trkpt>
      <trkpt lat="47.01356" lon="-1.06567">
        <ele>127.5</ele>
        <time>2011-11-27T08:30:42Z</time>
      </trkpt>
      <trkpt lat="47.01349" lon="-1.0657">
        <ele>127.6</ele>
        <time>2011-11-27T08:30:45Z</time>
      </trkpt>
      <trkpt lat="47.01341" lon="-1.06568">
        <ele>127.8</ele>
        <time>2011-11-27T08:30:47Z</time>
      </trkpt>
      <trkpt lat="47.01337" lon="-1.06565">
        <ele>127.6</ele>
        <time>2011-11-27T08:30:48Z</time>
      </trkpt>
      <trkpt lat="47.01332" lon="-1.06563">
        <ele>128.5</ele>
        <time>2011-11-27T08:30:50Z</time>
      </trkpt>
      <trkpt lat="47.01326" lon="-1.06558">
        <ele>129.3</ele>
        <time>2011-11-27T08:30:52Z</time>
      </trkpt>
      <trkpt lat="47.01322" lon="-1.06552">
        <ele>129.7</ele>
        <time>2011-11-27T08:30:54Z</time>
      </trkpt>
      <trkpt lat="47.01318" lon="-1.06545">
        <ele>129.8</ele>
        <time>2011-11-27T08:30:56Z</time>
      </trkpt>
      <trkpt lat="47.01312" lon="-1.06522">
        <ele>130</ele>
        <time>2011-11-27T08:31:00Z</time>
      </trkpt>
      <trkpt lat="47.0131" lon="-1.06508">
        <ele>131</ele>
        <time>2011-11-27T08:31:02Z</time>
      </trkpt>
      <trkpt lat="47.01307" lon="-1.06499">
        <ele>131.7</ele>
        <time>2011-11-27T08:31:04Z</time>
      </trkpt>
      <trkpt lat="47.01304" lon="-1.06491">
        <ele>136.2</ele>
        <time>2011-11-27T08:31:07Z</time>
      </trkpt>
      <trkpt lat="47.013" lon="-1.06486">
        <ele>136.4</ele>
        <time>2011-11-27T08:31:10Z</time>
      </trkpt>
      <trkpt lat="47.01295" lon="-1.06477">
        <ele>137.2</ele>
        <time>2011-11-27T08:31:13Z</time>
      </trkpt>
      <trkpt lat="47.01292" lon="-1.06472">
        <ele>135.9</ele>
        <time>2011-11-27T08:31:14Z</time>
      </trkpt>
      <trkpt lat="47.01291" lon="-1.06464">
        <ele>137.6</ele>
        <time>2011-11-27T08:31:16Z</time>
      </trkpt>
      <trkpt lat="47.01286" lon="-1.06469">
        <ele>137.4</ele>
        <time>2011-11-27T08:31:18Z</time>
      </trkpt>
      <trkpt lat="47.0128" lon="-1.06459">
        <ele>140.7</ele>
        <time>2011-11-27T08:31:24Z</time>
      </trkpt>
      <trkpt lat="47.01276" lon="-1.06455">
        <ele>139.5</ele>
        <time>2011-11-27T08:31:28Z</time>
      </trkpt>
      <trkpt lat="47.01272" lon="-1.06449">
        <ele>138.9</ele>
        <time>2011-11-27T08:31:30Z</time>
      </trkpt>
      <trkpt lat="47.0127" lon="-1.06443">
        <ele>141.1</ele>
        <time>2011-11-27T08:31:32Z</time>
      </trkpt>
      <trkpt lat="47.01265" lon="-1.06438">
        <ele>140.5</ele>
        <time>2011-11-27T08:31:34Z</time>
      </trkpt>
      <trkpt lat="47.01264" lon="-1.06432">
        <ele>141.1</ele>
        <time>2011-11-27T08:31:35Z</time>
      </trkpt>
      <trkpt lat="47.01259" lon="-1.06427">
        <ele>142.5</ele>
        <time>2011-11-27T08:31:37Z</time>
      </trkpt>
      <trkpt lat="47.01256" lon="-1.0642">
        <ele>143.3</ele>
        <time>2011-11-27T08:31:38Z</time>
      </trkpt>
      <trkpt lat="47.01251" lon="-1.06414">
        <ele>142.4</ele>
        <time>2011-11-27T08:31:40Z</time>
      </trkpt>
      <trkpt lat="47.01246" lon="-1.06408">
        <ele>142.2</ele>
        <time>2011-11-27T08:31:41Z</time>
      </trkpt>
      <trkpt lat="47.0124" lon="-1.06399">
        <ele>142.3</ele>
        <time>2011-11-27T08:31:43Z</time>
      </trkpt>
      <trkpt lat="47.01236" lon="-1.06393">
        <ele>142.1</ele>
        <time>2011-11-27T08:31:44Z</time>
      </trkpt>
      <trkpt lat="47.01232" lon="-1.06387">
        <ele>142.3</ele>
        <time>2011-11-27T08:31:45Z</time>
      </trkpt>
      <trkpt lat="47.01229" lon="-1.06372">
        <ele>140.7</ele>
        <time>2011-11-27T08:31:46Z</time>
      </trkpt>
      <trkpt lat="47.01222" lon="-1.0637">
        <ele>142</ele>
        <time>2011-11-27T08:31:48Z</time>
      </trkpt>
      <trkpt lat="47.01214" lon="-1.06368">
        <ele>142.6</ele>
        <time>2011-11-27T08:31:49Z</time>
      </trkpt>
      <trkpt lat="47.01205" lon="-1.06364">
        <ele>141.8</ele>
        <time>2011-11-27T08:31:50Z</time>
      </trkpt>
      <trkpt lat="47.01195" lon="-1.06363">
        <ele>140.9</ele>
        <time>2011-11-27T08:31:51Z</time>
      </trkpt>
      <trkpt lat="47.01185" lon="-1.0636">
        <ele>139.9</ele>
        <time>2011-11-27T08:31:52Z</time>
      </trkpt>
      <trkpt lat="47.01176" lon="-1.06357">
        <ele>140.1</ele>
        <time>2011-11-27T08:31:53Z</time>
      </trkpt>
      <trkpt lat="47.01172" lon="-1.06346">
        <ele>137.7</ele>
        <time>2011-11-27T08:31:54Z</time>
      </trkpt>
      <trkpt lat="47.01166" lon="-1.0634">
        <ele>136.7</ele>
        <time>2011-11-27T08:31:55Z</time>
      </trkpt>
      <trkpt lat="47.0116" lon="-1.06337">
        <ele>136.6</ele>
        <time>2011-11-27T08:31:56Z</time>
      </trkpt>
      <trkpt lat="47.01153" lon="-1.06331">
        <ele>137.1</ele>
        <time>2011-11-27T08:31:57Z</time>
      </trkpt>
      <trkpt lat="47.01145" lon="-1.06328">
        <ele>136.8</ele>
        <time>2011-11-27T08:31:58Z</time>
      </trkpt>
      <trkpt lat="47.01137" lon="-1.06326">
        <ele>134.5</ele>
        <time>2011-11-27T08:31:59Z</time>
      </trkpt>
      <trkpt lat="47.0113" lon="-1.06321">
        <ele>134.8</ele>
        <time>2011-11-27T08:32:00Z</time>
      </trkpt>
      <trkpt lat="47.01123" lon="-1.06315">
        <ele>134.1</ele>
        <time>2011-11-27T08:32:01Z</time>
      </trkpt>
      <trkpt lat="47.01115" lon="-1.06309">
        <ele>133.4</ele>
        <time>2011-11-27T08:32:02Z</time>
      </trkpt>
      <trkpt lat="47.01105" lon="-1.06301">
        <ele>132.9</ele>
        <time>2011-11-27T08:32:03Z</time>
      </trkpt>
      <trkpt lat="47.01097" lon="-1.06299">
        <ele>132.5</ele>
        <time>2011-11-27T08:32:04Z</time>
      </trkpt>
      <trkpt lat="47.01094" lon="-1.06287">
        <ele>131.2</ele>
        <time>2011-11-27T08:32:05Z</time>
      </trkpt>
      <trkpt lat="47.01089" lon="-1.06277">
        <ele>130.7</ele>
        <time>2011-11-27T08:32:06Z</time>
      </trkpt>
      <trkpt lat="47.01087" lon="-1.0627">
        <ele>131.3</ele>
        <time>2011-11-27T08:32:07Z</time>
      </trkpt>
      <trkpt lat="47.01082" lon="-1.06263">
        <ele>132</ele>
        <time>2011-11-27T08:32:08Z</time>
      </trkpt>
      <trkpt lat="47.01077" lon="-1.06256">
        <ele>131.2</ele>
        <time>2011-11-27T08:32:09Z</time>
      </trkpt>
      <trkpt lat="47.01073" lon="-1.0625">
        <ele>131</ele>
        <time>2011-11-27T08:32:10Z</time>
      </trkpt>
      <trkpt lat="47.01068" lon="-1.06242">
        <ele>131.3</ele>
        <time>2011-11-27T08:32:11Z</time>
      </trkpt>
      <trkpt lat="47.01067" lon="-1.06227">
        <ele>128.9</ele>
        <time>2011-11-27T08:32:12Z</time>
      </trkpt>
      <trkpt lat="47.01062" lon="-1.06218">
        <ele>128.3</ele>
        <time>2011-11-27T08:32:14Z</time>
      </trkpt>
      <trkpt lat="47.01056" lon="-1.06207">
        <ele>128.3</ele>
        <time>2011-11-27T08:32:15Z</time>
      </trkpt>
      <trkpt lat="47.0105" lon="-1.062">
        <ele>127.8</ele>
        <time>2011-11-27T08:32:16Z</time>
      </trkpt>
      <trkpt lat="47.01045" lon="-1.06192">
        <ele>127</ele>
        <time>2011-11-27T08:32:18Z</time>
      </trkpt>
      <trkpt lat="47.01044" lon="-1.06184">
        <ele>125.8</ele>
        <time>2011-11-27T08:32:20Z</time>
      </trkpt>
      <trkpt lat="47.01043" lon="-1.06173">
        <ele>122.6</ele>
        <time>2011-11-27T08:32:33Z</time>
      </trkpt>
      <trkpt lat="47.01037" lon="-1.06173">
        <ele>122</ele>
        <time>2011-11-27T08:32:38Z</time>
      </trkpt>
      <trkpt lat="47.01033" lon="-1.06176">
        <ele>123.4</ele>
        <time>2011-11-27T08:32:40Z</time>
      </trkpt>
      <trkpt lat="47.01032" lon="-1.06168">
        <ele>125.5</ele>
        <time>2011-11-27T08:32:46Z</time>
      </trkpt>
      <trkpt lat="47.01032" lon="-1.0616">
        <ele>124.5</ele>
        <time>2011-11-27T08:32:53Z</time>
      </trkpt>
      <trkpt lat="47.0103" lon="-1.06153">
        <ele>120.9</ele>
        <time>2011-11-27T08:32:54Z</time>
      </trkpt>
      <trkpt lat="47.01024" lon="-1.06152">
        <ele>120.4</ele>
        <time>2011-11-27T08:32:57Z</time>
      </trkpt>
      <trkpt lat="47.01018" lon="-1.06153">
        <ele>121.2</ele>
        <time>2011-11-27T08:33:00Z</time>
      </trkpt>
      <trkpt lat="47.01022" lon="-1.0616">
        <ele>120.9</ele>
        <time>2011-11-27T08:33:03Z</time>
      </trkpt>
      <trkpt lat="47.01024" lon="-1.06166">
        <ele>121.4</ele>
        <time>2011-11-27T08:33:05Z</time>
      </trkpt>
      <trkpt lat="47.01023" lon="-1.06158">
        <ele>116.5</ele>
        <time>2011-11-27T08:35:14Z</time>
      </trkpt>
      <trkpt lat="47.01017" lon="-1.0616">
        <ele>115.6</ele>
        <time>2011-11-27T08:36:32Z</time>
      </trkpt>
      <trkpt lat="47.01014" lon="-1.06156">
        <ele>115.7</ele>
        <time>2011-11-27T08:36:35Z</time>
      </trkpt>
      <trkpt lat="47.01011" lon="-1.06161">
        <ele>115.1</ele>
        <time>2011-11-27T08:36:38Z</time>
      </trkpt>
      <trkpt lat="47.01" lon="-1.06158">
        <ele>117.8</ele>
        <time>2011-11-27T08:36:39Z</time>
      </trkpt>
      <trkpt lat="47.0099" lon="-1.06156">
        <ele>119.8</ele>
        <time>2011-11-27T08:36:41Z</time>
      </trkpt>
      <trkpt lat="47.0098" lon="-1.06157">
        <ele>120.4</ele>
        <time>2011-11-27T08:36:43Z</time>
      </trkpt>
      <trkpt lat="47.00972" lon="-1.06154">
        <ele>121.1</ele>
        <time>2011-11-27T08:36:44Z</time>
      </trkpt>
      <trkpt lat="47.00962" lon="-1.0615">
        <ele>122.3</ele>
        <time>2011-11-27T08:36:45Z</time>
      </trkpt>
      <trkpt lat="47.00955" lon="-1.06145">
        <ele>122.7</ele>
        <time>2011-11-27T08:36:46Z</time>
      </trkpt>
      <trkpt lat="47.00951" lon="-1.06141">
        <ele>123.1</ele>
        <time>2011-11-27T08:36:47Z</time>
      </trkpt>
      <trkpt lat="47.00946" lon="-1.06131">
        <ele>122.7</ele>
        <time>2011-11-27T08:36:48Z</time>
      </trkpt>
      <trkpt lat="47.00942" lon="-1.06127">
        <ele>123.2</ele>
        <time>2011-11-27T08:36:50Z</time>
      </trkpt>
      <trkpt lat="47.00939" lon="-1.06116">
        <ele>121.7</ele>
        <time>2011-11-27T08:36:53Z</time>
      </trkpt>
      <trkpt lat="47.00947" lon="-1.06109">
        <ele>120.1</ele>
        <time>2011-11-27T08:36:54Z</time>
      </trkpt>
      <trkpt lat="47.00942" lon="-1.06109">
        <ele>113.2</ele>
        <time>2011-11-27T08:37:18Z</time>
      </trkpt>
      <trkpt lat="47.00939" lon="-1.06097">
        <ele>112.8</ele>
        <time>2011-11-27T08:37:20Z</time>
      </trkpt>
      <trkpt lat="47.00938" lon="-1.06088">
        <ele>111.9</ele>
        <time>2011-11-27T08:37:22Z</time>
      </trkpt>
      <trkpt lat="47.00931" lon="-1.0607">
        <ele>111.4</ele>
        <time>2011-11-27T08:37:24Z</time>
      </trkpt>
      <trkpt lat="47.00925" lon="-1.06049">
        <ele>109.6</ele>
        <time>2011-11-27T08:37:25Z</time>
      </trkpt>
      <trkpt lat="47.00923" lon="-1.06037">
        <ele>109.2</ele>
        <time>2011-11-27T08:37:27Z</time>
      </trkpt>
      <trkpt lat="47.00922" lon="-1.06024">
        <ele>109.3</ele>
        <time>2011-11-27T08:37:29Z</time>
      </trkpt>
      <trkpt lat="47.00922" lon="-1.06017">
        <ele>109.7</ele>
        <time>2011-11-27T08:37:35Z</time>
      </trkpt>
      <trkpt lat="47.00916" lon="-1.06012">
        <ele>112.5</ele>
        <time>2011-11-27T08:37:41Z</time>
      </trkpt>
      <trkpt lat="47.0091" lon="-1.06008">
        <ele>113.4</ele>
        <time>2011-11-27T08:37:43Z</time>
      </trkpt>
      <trkpt lat="47.00902" lon="-1.05992">
        <ele>114.4</ele>
        <time>2011-11-27T08:37:46Z</time>
      </trkpt>
      <trkpt lat="47.009" lon="-1.05985">
        <ele>113.9</ele>
        <time>2011-11-27T08:37:47Z</time>
      </trkpt>
      <trkpt lat="47.00897" lon="-1.05974">
        <ele>114.4</ele>
        <time>2011-11-27T08:37:49Z</time>
      </trkpt>
      <trkpt lat="47.00899" lon="-1.05966">
        <ele>114.5</ele>
        <time>2011-11-27T08:37:50Z</time>
      </trkpt>
      <trkpt lat="47.00903" lon="-1.05956">
        <ele>115.9</ele>
        <time>2011-11-27T08:37:51Z</time>
      </trkpt>
      <trkpt lat="47.00907" lon="-1.05938">
        <ele>110</ele>
        <time>2011-11-27T08:37:52Z</time>
      </trkpt>
      <trkpt lat="47.0091" lon="-1.05932">
        <ele>108.2</ele>
        <time>2011-11-27T08:37:53Z</time>
      </trkpt>
      <trkpt lat="47.00916" lon="-1.05921">
        <ele>106.8</ele>
        <time>2011-11-27T08:37:57Z</time>
      </trkpt>
      <trkpt lat="47.00911" lon="-1.05922">
        <ele>103.4</ele>
        <time>2011-11-27T08:38:07Z</time>
      </trkpt>
      <trkpt lat="47.00907" lon="-1.0592">
        <ele>103.1</ele>
        <time>2011-11-27T08:38:08Z</time>
      </trkpt>
      <trkpt lat="47.00904" lon="-1.05913">
        <ele>103.9</ele>
        <time>2011-11-27T08:38:14Z</time>
      </trkpt>
      <trkpt lat="47.00898" lon="-1.05907">
        <ele>106</ele>
        <time>2011-11-27T08:38:18Z</time>
      </trkpt>
      <trkpt lat="47.00898" lon="-1.05898">
        <ele>107.4</ele>
        <time>2011-11-27T08:38:20Z</time>
      </trkpt>
      <trkpt lat="47.00896" lon="-1.0589">
        <ele>108.2</ele>
        <time>2011-11-27T08:38:22Z</time>
      </trkpt>
      <trkpt lat="47.00892" lon="-1.05883">
        <ele>109.8</ele>
        <time>2011-11-27T08:38:24Z</time>
      </trkpt>
      <trkpt lat="47.0089" lon="-1.05873">
        <ele>110.5</ele>
        <time>2011-11-27T08:38:26Z</time>
      </trkpt>
      <trkpt lat="47.00892" lon="-1.05863">
        <ele>110.9</ele>
        <time>2011-11-27T08:38:27Z</time>
      </trkpt>
      <trkpt lat="47.00892" lon="-1.05855">
        <ele>109.9</ele>
        <time>2011-11-27T08:38:29Z</time>
      </trkpt>
      <trkpt lat="47.00893" lon="-1.05848">
        <ele>109.7</ele>
        <time>2011-11-27T08:38:31Z</time>
      </trkpt>
      <trkpt lat="47.00894" lon="-1.05838">
        <ele>111.4</ele>
        <time>2011-11-27T08:38:32Z</time>
      </trkpt>
      <trkpt lat="47.00898" lon="-1.05831">
        <ele>110.5</ele>
        <time>2011-11-27T08:38:34Z</time>
      </trkpt>
      <trkpt lat="47.00897" lon="-1.05823">
        <ele>111.9</ele>
        <time>2011-11-27T08:38:36Z</time>
      </trkpt>
      <trkpt lat="47.00893" lon="-1.05823">
        <ele>111.2</ele>
        <time>2011-11-27T08:38:40Z</time>
      </trkpt>
      <trkpt lat="47.00893" lon="-1.05815">
        <ele>109.8</ele>
        <time>2011-11-27T08:38:44Z</time>
      </trkpt>
      <trkpt lat="47.00897" lon="-1.05805">
        <ele>111.3</ele>
        <time>2011-11-27T08:38:48Z</time>
      </trkpt>
      <trkpt lat="47.009" lon="-1.05797">
        <ele>113</ele>
        <time>2011-11-27T08:38:54Z</time>
      </trkpt>
      <trkpt lat="47.00903" lon="-1.05789">
        <ele>112.5</ele>
        <time>2011-11-27T08:38:56Z</time>
      </trkpt>
      <trkpt lat="47.00903" lon="-1.05781">
        <ele>113.4</ele>
        <time>2011-11-27T08:38:58Z</time>
      </trkpt>
      <trkpt lat="47.00905" lon="-1.05773">
        <ele>113.7</ele>
        <time>2011-11-27T08:39:00Z</time>
      </trkpt>
      <trkpt lat="47.00908" lon="-1.0576">
        <ele>117.5</ele>
        <time>2011-11-27T08:39:08Z</time>
      </trkpt>
      <trkpt lat="47.00909" lon="-1.05752">
        <ele>116.5</ele>
        <time>2011-11-27T08:39:11Z</time>
      </trkpt>
      <trkpt lat="47.00914" lon="-1.05747">
        <ele>115.9</ele>
        <time>2011-11-27T08:39:12Z</time>
      </trkpt>
      <trkpt lat="47.00919" lon="-1.05741">
        <ele>117.8</ele>
        <time>2011-11-27T08:39:17Z</time>
      </trkpt>
      <trkpt lat="47.00922" lon="-1.05735">
        <ele>121.3</ele>
        <time>2011-11-27T08:39:30Z</time>
      </trkpt>
      <trkpt lat="47.00926" lon="-1.05734">
        <ele>123.4</ele>
        <time>2011-11-27T08:39:40Z</time>
      </trkpt>
      <trkpt lat="47.0093" lon="-1.05726">
        <ele>125.4</ele>
        <time>2011-11-27T08:39:48Z</time>
      </trkpt>
      <trkpt lat="47.00934" lon="-1.05722">
        <ele>125.6</ele>
        <time>2011-11-27T08:39:51Z</time>
      </trkpt>
      <trkpt lat="47.0094" lon="-1.05716">
        <ele>123.1</ele>
        <time>2011-11-27T08:39:55Z</time>
      </trkpt>
      <trkpt lat="47.00947" lon="-1.05709">
        <ele>124.3</ele>
        <time>2011-11-27T08:39:58Z</time>
      </trkpt>
      <trkpt lat="47.00951" lon="-1.05704">
        <ele>127.7</ele>
        <time>2011-11-27T08:40:02Z</time>
      </trkpt>
      <trkpt lat="47.00956" lon="-1.05698">
        <ele>128.8</ele>
        <time>2011-11-27T08:40:06Z</time>
      </trkpt>
      <trkpt lat="47.0096" lon="-1.05695">
        <ele>127.3</ele>
        <time>2011-11-27T08:40:10Z</time>
      </trkpt>
      <trkpt lat="47.00964" lon="-1.05687">
        <ele>127.7</ele>
        <time>2011-11-27T08:40:15Z</time>
      </trkpt>
      <trkpt lat="47.00968" lon="-1.05678">
        <ele>125</ele>
        <time>2011-11-27T08:40:18Z</time>
      </trkpt>
      <trkpt lat="47.00969" lon="-1.05671">
        <ele>127.8</ele>
        <time>2011-11-27T08:40:25Z</time>
      </trkpt>
      <trkpt lat="47.00971" lon="-1.05664">
        <ele>128.6</ele>
        <time>2011-11-27T08:40:30Z</time>
      </trkpt>
      <trkpt lat="47.00975" lon="-1.05662">
        <ele>130</ele>
        <time>2011-11-27T08:40:31Z</time>
      </trkpt>
      <trkpt lat="47.00976" lon="-1.05653">
        <ele>128.3</ele>
        <time>2011-11-27T08:40:34Z</time>
      </trkpt>
      <trkpt lat="47.00983" lon="-1.05645">
        <ele>130</ele>
        <time>2011-11-27T08:40:40Z</time>
      </trkpt>
      <trkpt lat="47.00987" lon="-1.0564">
        <ele>133.2</ele>
        <time>2011-11-27T08:40:45Z</time>
      </trkpt>
      <trkpt lat="47.00988" lon="-1.05632">
        <ele>132.7</ele>
        <time>2011-11-27T08:40:49Z</time>
      </trkpt>
      <trkpt lat="47.00994" lon="-1.05632">
        <ele>133.1</ele>
        <time>2011-11-27T08:40:51Z</time>
      </trkpt>
      <trkpt lat="47.00995" lon="-1.05626">
        <ele>133.5</ele>
        <time>2011-11-27T08:40:53Z</time>
      </trkpt>
      <trkpt lat="47.0099" lon="-1.05616">
        <ele>134.9</ele>
        <time>2011-11-27T08:40:58Z</time>
      </trkpt>
      <trkpt lat="47.00993" lon="-1.05608">
        <ele>135.3</ele>
        <time>2011-11-27T08:41:01Z</time>
      </trkpt>
      <trkpt lat="47.00999" lon="-1.05609">
        <ele>138.3</ele>
        <time>2011-11-27T08:41:04Z</time>
      </trkpt>
      <trkpt lat="47.01003" lon="-1.05599">
        <ele>141.2</ele>
        <time>2011-11-27T08:41:09Z</time>
      </trkpt>
      <trkpt lat="47.01002" lon="-1.05593">
        <ele>140.4</ele>
        <time>2011-11-27T08:41:11Z</time>
      </trkpt>
      <trkpt lat="47.01002" lon="-1.05586">
        <ele>141</ele>
        <time>2011-11-27T08:41:14Z</time>
      </trkpt>
      <trkpt lat="47.01001" lon="-1.05579">
        <ele>145.8</ele>
        <time>2011-11-27T08:41:18Z</time>
      </trkpt>
      <trkpt lat="47.01004" lon="-1.0557">
        <ele>147.8</ele>
        <time>2011-11-27T08:41:22Z</time>
      </trkpt>
      <trkpt lat="47.01006" lon="-1.05562">
        <ele>151.2</ele>
        <time>2011-11-27T08:41:25Z</time>
      </trkpt>
      <trkpt lat="47.01007" lon="-1.05555">
        <ele>152.1</ele>
        <time>2011-11-27T08:41:29Z</time>
      </trkpt>
      <trkpt lat="47.01011" lon="-1.05548">
        <ele>151.1</ele>
        <time>2011-11-27T08:41:31Z</time>
      </trkpt>
      <trkpt lat="47.01013" lon="-1.05537">
        <ele>151.2</ele>
        <time>2011-11-27T08:41:36Z</time>
      </trkpt>
      <trkpt lat="47.01016" lon="-1.05528">
        <ele>152.1</ele>
        <time>2011-11-27T08:41:39Z</time>
      </trkpt>
      <trkpt lat="47.01019" lon="-1.0552">
        <ele>157.7</ele>
        <time>2011-11-27T08:41:44Z</time>
      </trkpt>
      <trkpt lat="47.0102" lon="-1.05512">
        <ele>157.9</ele>
        <time>2011-11-27T08:41:47Z</time>
      </trkpt>
      <trkpt lat="47.01022" lon="-1.05505">
        <ele>159.6</ele>
        <time>2011-11-27T08:41:50Z</time>
      </trkpt>
      <trkpt lat="47.01025" lon="-1.05493">
        <ele>163.1</ele>
        <time>2011-11-27T08:41:53Z</time>
      </trkpt>
      <trkpt lat="47.0102" lon="-1.05494">
        <ele>163</ele>
        <time>2011-11-27T08:41:56Z</time>
      </trkpt>
      <trkpt lat="47.01021" lon="-1.05485">
        <ele>164.3</ele>
        <time>2011-11-27T08:41:59Z</time>
      </trkpt>
      <trkpt lat="47.01016" lon="-1.05481">
        <ele>164.1</ele>
        <time>2011-11-27T08:42:04Z</time>
      </trkpt>
      <trkpt lat="47.01012" lon="-1.05479">
        <ele>166.1</ele>
        <time>2011-11-27T08:43:22Z</time>
      </trkpt>
      <trkpt lat="47.01006" lon="-1.05473">
        <ele>164.3</ele>
        <time>2011-11-27T08:43:24Z</time>
      </trkpt>
      <trkpt lat="47.01006" lon="-1.05465">
        <ele>163.7</ele>
        <time>2011-11-27T08:43:25Z</time>
      </trkpt>
      <trkpt lat="47.01001" lon="-1.05463">
        <ele>163.7</ele>
        <time>2011-11-27T08:43:27Z</time>
      </trkpt>
      <trkpt lat="47.01002" lon="-1.05455">
        <ele>162.7</ele>
        <time>2011-11-27T08:43:28Z</time>
      </trkpt>
      <trkpt lat="47.01" lon="-1.05449">
        <ele>163.3</ele>
        <time>2011-11-27T08:43:30Z</time>
      </trkpt>
      <trkpt lat="47.00991" lon="-1.05442">
        <ele>155.8</ele>
        <time>2011-11-27T08:46:13Z</time>
      </trkpt>
      <trkpt lat="47.00985" lon="-1.05424">
        <ele>155.3</ele>
        <time>2011-11-27T08:46:15Z</time>
      </trkpt>
      <trkpt lat="47.00983" lon="-1.05417">
        <ele>156.4</ele>
        <time>2011-11-27T08:46:16Z</time>
      </trkpt>
      <trkpt lat="47.0098" lon="-1.05409">
        <ele>156</ele>
        <time>2011-11-27T08:46:18Z</time>
      </trkpt>
      <trkpt lat="47.00975" lon="-1.05406">
        <ele>158.1</ele>
        <time>2011-11-27T08:46:21Z</time>
      </trkpt>
      <trkpt lat="47.0097" lon="-1.05402">
        <ele>157.6</ele>
        <time>2011-11-27T08:46:24Z</time>
      </trkpt>
      <trkpt lat="47.00965" lon="-1.05399">
        <ele>159.8</ele>
        <time>2011-11-27T08:46:27Z</time>
      </trkpt>
      <trkpt lat="47.00964" lon="-1.05388">
        <ele>158.3</ele>
        <time>2011-11-27T08:46:30Z</time>
      </trkpt>
      <trkpt lat="47.00962" lon="-1.05378">
        <ele>158.7</ele>
        <time>2011-11-27T08:46:32Z</time>
      </trkpt>
      <trkpt lat="47.00959" lon="-1.05372">
        <ele>160.9</ele>
        <time>2011-11-27T08:46:33Z</time>
      </trkpt>
      <trkpt lat="47.00954" lon="-1.05362">
        <ele>162.8</ele>
        <time>2011-11-27T08:46:38Z</time>
      </trkpt>
      <trkpt lat="47.00952" lon="-1.05346">
        <ele>162.4</ele>
        <time>2011-11-27T08:46:40Z</time>
      </trkpt>
      <trkpt lat="47.00955" lon="-1.0534">
        <ele>161.7</ele>
        <time>2011-11-27T08:46:44Z</time>
      </trkpt>
      <trkpt lat="47.0096" lon="-1.05337">
        <ele>162.1</ele>
        <time>2011-11-27T08:46:45Z</time>
      </trkpt>
      <trkpt lat="47.00964" lon="-1.05333">
        <ele>161.7</ele>
        <time>2011-11-27T08:46:47Z</time>
      </trkpt>
      <trkpt lat="47.0097" lon="-1.05327">
        <ele>160</ele>
        <time>2011-11-27T08:46:49Z</time>
      </trkpt>
      <trkpt lat="47.00974" lon="-1.05322">
        <ele>161.4</ele>
        <time>2011-11-27T08:46:51Z</time>
      </trkpt>
      <trkpt lat="47.00979" lon="-1.05317">
        <ele>162.5</ele>
        <time>2011-11-27T08:46:53Z</time>
      </trkpt>
      <trkpt lat="47.00986" lon="-1.05311">
        <ele>162.1</ele>
        <time>2011-11-27T08:46:55Z</time>
      </trkpt>
      <trkpt lat="47.0099" lon="-1.05305">
        <ele>158.8</ele>
        <time>2011-11-27T08:46:57Z</time>
      </trkpt>
      <trkpt lat="47.00995" lon="-1.05302">
        <ele>158.6</ele>
        <time>2011-11-27T08:46:58Z</time>
      </trkpt>
      <trkpt lat="47.00998" lon="-1.05297">
        <ele>159.6</ele>
        <time>2011-11-27T08:47:00Z</time>
      </trkpt>
      <trkpt lat="47.01003" lon="-1.0529">
        <ele>158.1</ele>
        <time>2011-11-27T08:47:02Z</time>
      </trkpt>
      <trkpt lat="47.01007" lon="-1.05284">
        <ele>158.2</ele>
        <time>2011-11-27T08:47:04Z</time>
      </trkpt>
      <trkpt lat="47.0101" lon="-1.05277">
        <ele>161</ele>
        <time>2011-11-27T08:47:07Z</time>
      </trkpt>
      <trkpt lat="47.01014" lon="-1.05269">
        <ele>162</ele>
        <time>2011-11-27T08:47:09Z</time>
      </trkpt>
      <trkpt lat="47.01019" lon="-1.05263">
        <ele>162</ele>
        <time>2011-11-27T08:47:11Z</time>
      </trkpt>
      <trkpt lat="47.01023" lon="-1.05259">
        <ele>162.1</ele>
        <time>2011-11-27T08:47:12Z</time>
      </trkpt>
      <trkpt lat="47.01032" lon="-1.05254">
        <ele>162.6</ele>
        <time>2011-11-27T08:47:14Z</time>
      </trkpt>
      <trkpt lat="47.01036" lon="-1.0525">
        <ele>161.6</ele>
        <time>2011-11-27T08:47:16Z</time>
      </trkpt>
      <trkpt lat="47.01043" lon="-1.05242">
        <ele>161.3</ele>
        <time>2011-11-27T08:47:18Z</time>
      </trkpt>
      <trkpt lat="47.01047" lon="-1.05234">
        <ele>161.3</ele>
        <time>2011-11-27T08:47:20Z</time>
      </trkpt>
      <trkpt lat="47.01045" lon="-1.05228">
        <ele>161.6</ele>
        <time>2011-11-27T08:47:23Z</time>
      </trkpt>
      <trkpt lat="47.01044" lon="-1.0522">
        <ele>160.4</ele>
        <time>2011-11-27T08:47:24Z</time>
      </trkpt>
      <trkpt lat="47.01042" lon="-1.05211">
        <ele>160.6</ele>
        <time>2011-11-27T08:47:26Z</time>
      </trkpt>
      <trkpt lat="47.01041" lon="-1.052">
        <ele>161.1</ele>
        <time>2011-11-27T08:47:28Z</time>
      </trkpt>
      <trkpt lat="47.01039" lon="-1.05194">
        <ele>161.9</ele>
        <time>2011-11-27T08:47:29Z</time>
      </trkpt>
      <trkpt lat="47.01038" lon="-1.05188">
        <ele>162.2</ele>
        <time>2011-11-27T08:47:30Z</time>
      </trkpt>
      <trkpt lat="47.01035" lon="-1.05175">
        <ele>162.6</ele>
        <time>2011-11-27T08:47:32Z</time>
      </trkpt>
      <trkpt lat="47.01034" lon="-1.05168">
        <ele>163.3</ele>
        <time>2011-11-27T08:47:33Z</time>
      </trkpt>
      <trkpt lat="47.01032" lon="-1.05159">
        <ele>163.7</ele>
        <time>2011-11-27T08:47:34Z</time>
      </trkpt>
      <trkpt lat="47.01032" lon="-1.0515">
        <ele>163.5</ele>
        <time>2011-11-27T08:47:35Z</time>
      </trkpt>
      <trkpt lat="47.01031" lon="-1.0514">
        <ele>163.8</ele>
        <time>2011-11-27T08:47:36Z</time>
      </trkpt>
      <trkpt lat="47.0103" lon="-1.05131">
        <ele>163.9</ele>
        <time>2011-11-27T08:47:37Z</time>
      </trkpt>
      <trkpt lat="47.0103" lon="-1.05121">
        <ele>164.2</ele>
        <time>2011-11-27T08:47:38Z</time>
      </trkpt>
      <trkpt lat="47.01029" lon="-1.05113">
        <ele>164</ele>
        <time>2011-11-27T08:47:39Z</time>
      </trkpt>
      <trkpt lat="47.01028" lon="-1.05104">
        <ele>163.8</ele>
        <time>2011-11-27T08:47:40Z</time>
      </trkpt>
      <trkpt lat="47.01026" lon="-1.05096">
        <ele>163.8</ele>
        <time>2011-11-27T08:47:41Z</time>
      </trkpt>
      <trkpt lat="47.01024" lon="-1.05087">
        <ele>163.3</ele>
        <time>2011-11-27T08:47:42Z</time>
      </trkpt>
      <trkpt lat="47.01022" lon="-1.05079">
        <ele>163.3</ele>
        <time>2011-11-27T08:47:43Z</time>
      </trkpt>
      <trkpt lat="47.0102" lon="-1.05072">
        <ele>163.4</ele>
        <time>2011-11-27T08:47:44Z</time>
      </trkpt>
      <trkpt lat="47.01018" lon="-1.05064">
        <ele>163.5</ele>
        <time>2011-11-27T08:47:45Z</time>
      </trkpt>
      <trkpt lat="47.01016" lon="-1.05055">
        <ele>163.2</ele>
        <time>2011-11-27T08:47:46Z</time>
      </trkpt>
      <trkpt lat="47.01014" lon="-1.05048">
        <ele>163</ele>
        <time>2011-11-27T08:47:47Z</time>
      </trkpt>
      <trkpt lat="47.01013" lon="-1.0504">
        <ele>162.8</ele>
        <time>2011-11-27T08:47:48Z</time>
      </trkpt>
      <trkpt lat="47.01011" lon="-1.05032">
        <ele>162.6</ele>
        <time>2011-11-27T08:47:49Z</time>
      </trkpt>
      <trkpt lat="47.01009" lon="-1.05025">
        <ele>162.8</ele>
        <time>2011-11-27T08:47:50Z</time>
      </trkpt>
      <trkpt lat="47.01006" lon="-1.05018">
        <ele>162.8</ele>
        <time>2011-11-27T08:47:51Z</time>
      </trkpt>
      <trkpt lat="47.01005" lon="-1.05012">
        <ele>162.7</ele>
        <time>2011-11-27T08:47:52Z</time>
      </trkpt>
      <trkpt lat="47.01003" lon="-1.05002">
        <ele>162.2</ele>
        <time>2011-11-27T08:47:53Z</time>
      </trkpt>
      <trkpt lat="47.01003" lon="-1.04993">
        <ele>161.9</ele>
        <time>2011-11-27T08:47:54Z</time>
      </trkpt>
      <trkpt lat="47.01001" lon="-1.04986">
        <ele>161.7</ele>
        <time>2011-11-27T08:47:55Z</time>
      </trkpt>
      <trkpt lat="47.01001" lon="-1.04977">
        <ele>161.6</ele>
        <time>2011-11-27T08:47:56Z</time>
      </trkpt>
      <trkpt lat="47.00997" lon="-1.04967">
        <ele>161.6</ele>
        <time>2011-11-27T08:47:57Z</time>
      </trkpt>
      <trkpt lat="47.00995" lon="-1.04957">
        <ele>161.1</ele>
        <time>2011-11-27T08:47:59Z</time>
      </trkpt>
      <trkpt lat="47.00994" lon="-1.04948">
        <ele>159.6</ele>
        <time>2011-11-27T08:48:00Z</time>
      </trkpt>
      <trkpt lat="47.0099" lon="-1.04938">
        <ele>160.7</ele>
        <time>2011-11-27T08:48:02Z</time>
      </trkpt>
      <trkpt lat="47.00989" lon="-1.04932">
        <ele>160.4</ele>
        <time>2011-11-27T08:48:03Z</time>
      </trkpt>
      <trkpt lat="47.00988" lon="-1.04922">
        <ele>159.7</ele>
        <time>2011-11-27T08:48:04Z</time>
      </trkpt>
      <trkpt lat="47.00987" lon="-1.04915">
        <ele>160</ele>
        <time>2011-11-27T08:48:05Z</time>
      </trkpt>
      <trkpt lat="47.00987" lon="-1.04906">
        <ele>159.6</ele>
        <time>2011-11-27T08:48:06Z</time>
      </trkpt>
      <trkpt lat="47.00987" lon="-1.04897">
        <ele>159.1</ele>
        <time>2011-11-27T08:48:07Z</time>
      </trkpt>
      <trkpt lat="47.00987" lon="-1.04888">
        <ele>158.9</ele>
        <time>2011-11-27T08:48:08Z</time>
      </trkpt>
      <trkpt lat="47.00986" lon="-1.04878">
        <ele>158.8</ele>
        <time>2011-11-27T08:48:09Z</time>
      </trkpt>
      <trkpt lat="47.00986" lon="-1.04868">
        <ele>158.6</ele>
        <time>2011-11-27T08:48:10Z</time>
      </trkpt>
      <trkpt lat="47.00985" lon="-1.04859">
        <ele>158.5</ele>
        <time>2011-11-27T08:48:11Z</time>
      </trkpt>
      <trkpt lat="47.00984" lon="-1.04849">
        <ele>158.2</ele>
        <time>2011-11-27T08:48:12Z</time>
      </trkpt>
      <trkpt lat="47.00981" lon="-1.04843">
        <ele>158.5</ele>
        <time>2011-11-27T08:48:13Z</time>
      </trkpt>
      <trkpt lat="47.00981" lon="-1.04834">
        <ele>158.3</ele>
        <time>2011-11-27T08:48:14Z</time>
      </trkpt>
      <trkpt lat="47.00982" lon="-1.04809">
        <ele>157.5</ele>
        <time>2011-11-27T08:48:17Z</time>
      </trkpt>
      <trkpt lat="47.00984" lon="-1.04802">
        <ele>156.8</ele>
        <time>2011-11-27T08:48:18Z</time>
      </trkpt>
      <trkpt lat="47.00989" lon="-1.04787">
        <ele>157.4</ele>
        <time>2011-11-27T08:48:20Z</time>
      </trkpt>
      <trkpt lat="47.00995" lon="-1.04782">
        <ele>157.3</ele>
        <time>2011-11-27T08:48:21Z</time>
      </trkpt>
      <trkpt lat="47.00999" lon="-1.04778">
        <ele>157.4</ele>
        <time>2011-11-27T08:48:22Z</time>
      </trkpt>
      <trkpt lat="47.01003" lon="-1.04776">
        <ele>157</ele>
        <time>2011-11-27T08:48:23Z</time>
      </trkpt>
      <trkpt lat="47.0101" lon="-1.04769">
        <ele>158.7</ele>
        <time>2011-11-27T08:48:25Z</time>
      </trkpt>
      <trkpt lat="47.01016" lon="-1.04766">
        <ele>158.6</ele>
        <time>2011-11-27T08:48:27Z</time>
      </trkpt>
      <trkpt lat="47.01022" lon="-1.0476">
        <ele>159.3</ele>
        <time>2011-11-27T08:48:29Z</time>
      </trkpt>
      <trkpt lat="47.01026" lon="-1.04755">
        <ele>159.2</ele>
        <time>2011-11-27T08:48:30Z</time>
      </trkpt>
      <trkpt lat="47.0103" lon="-1.0475">
        <ele>159.1</ele>
        <time>2011-11-27T08:48:31Z</time>
      </trkpt>
      <trkpt lat="47.01034" lon="-1.04746">
        <ele>159</ele>
        <time>2011-11-27T08:48:32Z</time>
      </trkpt>
      <trkpt lat="47.01038" lon="-1.04742">
        <ele>158.7</ele>
        <time>2011-11-27T08:48:33Z</time>
      </trkpt>
      <trkpt lat="47.01043" lon="-1.04738">
        <ele>158.2</ele>
        <time>2011-11-27T08:48:34Z</time>
      </trkpt>
      <trkpt lat="47.01047" lon="-1.04735">
        <ele>158.7</ele>
        <time>2011-11-27T08:48:35Z</time>
      </trkpt>
      <trkpt lat="47.01052" lon="-1.04732">
        <ele>158.7</ele>
        <time>2011-11-27T08:48:36Z</time>
      </trkpt>
      <trkpt lat="47.01057" lon="-1.04731">
        <ele>158.6</ele>
        <time>2011-11-27T08:48:37Z</time>
      </trkpt>
      <trkpt lat="47.01067" lon="-1.04732">
        <ele>159.1</ele>
        <time>2011-11-27T08:48:39Z</time>
      </trkpt>
      <trkpt lat="47.01081" lon="-1.04736">
        <ele>159.1</ele>
        <time>2011-11-27T08:48:42Z</time>
      </trkpt>
      <trkpt lat="47.01087" lon="-1.04739">
        <ele>158.9</ele>
        <time>2011-11-27T08:48:43Z</time>
      </trkpt>
      <trkpt lat="47.01092" lon="-1.04732">
        <ele>159.4</ele>
        <time>2011-11-27T08:48:45Z</time>
      </trkpt>
      <trkpt lat="47.011" lon="-1.0473">
        <ele>160.5</ele>
        <time>2011-11-27T08:48:47Z</time>
      </trkpt>
      <trkpt lat="47.01108" lon="-1.04729">
        <ele>161.3</ele>
        <time>2011-11-27T08:48:49Z</time>
      </trkpt>
      <trkpt lat="47.01116" lon="-1.04729">
        <ele>161.1</ele>
        <time>2011-11-27T08:48:51Z</time>
      </trkpt>
      <trkpt lat="47.01124" lon="-1.04726">
        <ele>161.4</ele>
        <time>2011-11-27T08:48:53Z</time>
      </trkpt>
      <trkpt lat="47.01129" lon="-1.04726">
        <ele>162.2</ele>
        <time>2011-11-27T08:48:54Z</time>
      </trkpt>
      <trkpt lat="47.01138" lon="-1.04724">
        <ele>162.7</ele>
        <time>2011-11-27T08:48:56Z</time>
      </trkpt>
      <trkpt lat="47.01147" lon="-1.04723">
        <ele>162</ele>
        <time>2011-11-27T08:48:58Z</time>
      </trkpt>
      <trkpt lat="47.01151" lon="-1.04722">
        <ele>161.9</ele>
        <time>2011-11-27T08:48:59Z</time>
      </trkpt>
      <trkpt lat="47.0116" lon="-1.0472">
        <ele>162</ele>
        <time>2011-11-27T08:49:01Z</time>
      </trkpt>
      <trkpt lat="47.01167" lon="-1.04718">
        <ele>161.9</ele>
        <time>2011-11-27T08:49:03Z</time>
      </trkpt>
      <trkpt lat="47.01172" lon="-1.04716">
        <ele>162.4</ele>
        <time>2011-11-27T08:49:04Z</time>
      </trkpt>
      <trkpt lat="47.01177" lon="-1.04716">
        <ele>162.4</ele>
        <time>2011-11-27T08:49:05Z</time>
      </trkpt>
      <trkpt lat="47.01185" lon="-1.04714">
        <ele>161.9</ele>
        <time>2011-11-27T08:49:07Z</time>
      </trkpt>
      <trkpt lat="47.01192" lon="-1.04713">
        <ele>161.4</ele>
        <time>2011-11-27T08:49:09Z</time>
      </trkpt>
      <trkpt lat="47.01205" lon="-1.04713">
        <ele>161</ele>
        <time>2011-11-27T08:49:12Z</time>
      </trkpt>
      <trkpt lat="47.01211" lon="-1.04717">
        <ele>162.7</ele>
        <time>2011-11-27T08:49:14Z</time>
      </trkpt>
      <trkpt lat="47.01217" lon="-1.04725">
        <ele>163.3</ele>
        <time>2011-11-27T08:49:16Z</time>
      </trkpt>
      <trkpt lat="47.0122" lon="-1.04733">
        <ele>163.7</ele>
        <time>2011-11-27T08:49:18Z</time>
      </trkpt>
      <trkpt lat="47.01224" lon="-1.04741">
        <ele>163.3</ele>
        <time>2011-11-27T08:49:20Z</time>
      </trkpt>
      <trkpt lat="47.01228" lon="-1.0475">
        <ele>163.5</ele>
        <time>2011-11-27T08:49:22Z</time>
      </trkpt>
      <trkpt lat="47.0123" lon="-1.04759">
        <ele>164.3</ele>
        <time>2011-11-27T08:49:24Z</time>
      </trkpt>
      <trkpt lat="47.01234" lon="-1.0477">
        <ele>165.3</ele>
        <time>2011-11-27T08:49:26Z</time>
      </trkpt>
      <trkpt lat="47.01237" lon="-1.0478">
        <ele>165.1</ele>
        <time>2011-11-27T08:49:28Z</time>
      </trkpt>
      <trkpt lat="47.01242" lon="-1.0479">
        <ele>166.2</ele>
        <time>2011-11-27T08:49:30Z</time>
      </trkpt>
      <trkpt lat="47.01246" lon="-1.04799">
        <ele>166.4</ele>
        <time>2011-11-27T08:49:32Z</time>
      </trkpt>
      <trkpt lat="47.01248" lon="-1.04805">
        <ele>166</ele>
        <time>2011-11-27T08:49:33Z</time>
      </trkpt>
      <trkpt lat="47.01252" lon="-1.04816">
        <ele>166.8</ele>
        <time>2011-11-27T08:49:35Z</time>
      </trkpt>
      <trkpt lat="47.01256" lon="-1.04826">
        <ele>167.3</ele>
        <time>2011-11-27T08:49:37Z</time>
      </trkpt>
      <trkpt lat="47.0126" lon="-1.04836">
        <ele>168.4</ele>
        <time>2011-11-27T08:49:39Z</time>
      </trkpt>
      <trkpt lat="47.01263" lon="-1.04845">
        <ele>168.9</ele>
        <time>2011-11-27T08:49:41Z</time>
      </trkpt>
      <trkpt lat="47.01266" lon="-1.04851">
        <ele>170.1</ele>
        <time>2011-11-27T08:49:42Z</time>
      </trkpt>
      <trkpt lat="47.01269" lon="-1.04858">
        <ele>168.8</ele>
        <time>2011-11-27T08:49:43Z</time>
      </trkpt>
      <trkpt lat="47.01273" lon="-1.04869">
        <ele>169.5</ele>
        <time>2011-11-27T08:49:45Z</time>
      </trkpt>
      <trkpt lat="47.01276" lon="-1.04874">
        <ele>170</ele>
        <time>2011-11-27T08:49:47Z</time>
      </trkpt>
      <trkpt lat="47.01279" lon="-1.04881">
        <ele>170.1</ele>
        <time>2011-11-27T08:49:49Z</time>
      </trkpt>
      <trkpt lat="47.01282" lon="-1.04886">
        <ele>169.9</ele>
        <time>2011-11-27T08:49:51Z</time>
      </trkpt>
      <trkpt lat="47.01289" lon="-1.04895">
        <ele>173.3</ele>
        <time>2011-11-27T08:49:56Z</time>
      </trkpt>
      <trkpt lat="47.01291" lon="-1.04901">
        <ele>173.1</ele>
        <time>2011-11-27T08:49:57Z</time>
      </trkpt>
      <trkpt lat="47.01294" lon="-1.04907">
        <ele>172.3</ele>
        <time>2011-11-27T08:49:59Z</time>
      </trkpt>
      <trkpt lat="47.01298" lon="-1.04913">
        <ele>172.2</ele>
        <time>2011-11-27T08:50:01Z</time>
      </trkpt>
      <trkpt lat="47.013" lon="-1.04921">
        <ele>171.6</ele>
        <time>2011-11-27T08:50:03Z</time>
      </trkpt>
      <trkpt lat="47.01302" lon="-1.04929">
        <ele>171.8</ele>
        <time>2011-11-27T08:50:04Z</time>
      </trkpt>
      <trkpt lat="47.01305" lon="-1.04937">
        <ele>172.6</ele>
        <time>2011-11-27T08:50:07Z</time>
      </trkpt>
      <trkpt lat="47.01308" lon="-1.04943">
        <ele>173.5</ele>
        <time>2011-11-27T08:50:09Z</time>
      </trkpt>
      <trkpt lat="47.01312" lon="-1.04951">
        <ele>173.3</ele>
        <time>2011-11-27T08:50:12Z</time>
      </trkpt>
      <trkpt lat="47.01319" lon="-1.04958">
        <ele>174.8</ele>
        <time>2011-11-27T08:50:14Z</time>
      </trkpt>
      <trkpt lat="47.01325" lon="-1.04956">
        <ele>173.4</ele>
        <time>2011-11-27T08:50:17Z</time>
      </trkpt>
      <trkpt lat="47.01331" lon="-1.04953">
        <ele>172.5</ele>
        <time>2011-11-27T08:50:19Z</time>
      </trkpt>
      <trkpt lat="47.01336" lon="-1.04952">
        <ele>172.7</ele>
        <time>2011-11-27T08:50:21Z</time>
      </trkpt>
      <trkpt lat="47.01344" lon="-1.04948">
        <ele>172.5</ele>
        <time>2011-11-27T08:50:24Z</time>
      </trkpt>
      <trkpt lat="47.01346" lon="-1.0494">
        <ele>175</ele>
        <time>2011-11-27T08:50:28Z</time>
      </trkpt>
      <trkpt lat="47.01352" lon="-1.04934">
        <ele>175.2</ele>
        <time>2011-11-27T08:50:31Z</time>
      </trkpt>
      <trkpt lat="47.01358" lon="-1.04931">
        <ele>174.6</ele>
        <time>2011-11-27T08:50:32Z</time>
      </trkpt>
      <trkpt lat="47.01363" lon="-1.04923">
        <ele>174.7</ele>
        <time>2011-11-27T08:50:34Z</time>
      </trkpt>
      <trkpt lat="47.01369" lon="-1.04918">
        <ele>175.8</ele>
        <time>2011-11-27T08:50:36Z</time>
      </trkpt>
      <trkpt lat="47.01376" lon="-1.04914">
        <ele>176.6</ele>
        <time>2011-11-27T08:50:38Z</time>
      </trkpt>
      <trkpt lat="47.01381" lon="-1.0491">
        <ele>177.4</ele>
        <time>2011-11-27T08:50:40Z</time>
      </trkpt>
      <trkpt lat="47.01385" lon="-1.04905">
        <ele>178.8</ele>
        <time>2011-11-27T08:50:41Z</time>
      </trkpt>
      <trkpt lat="47.0139" lon="-1.04898">
        <ele>180.2</ele>
        <time>2011-11-27T08:50:43Z</time>
      </trkpt>
      <trkpt lat="47.01396" lon="-1.04894">
        <ele>179.6</ele>
        <time>2011-11-27T08:50:45Z</time>
      </trkpt>
      <trkpt lat="47.01401" lon="-1.04887">
        <ele>179.6</ele>
        <time>2011-11-27T08:50:47Z</time>
      </trkpt>
      <trkpt lat="47.01408" lon="-1.04883">
        <ele>178.8</ele>
        <time>2011-11-27T08:50:49Z</time>
      </trkpt>
      <trkpt lat="47.01414" lon="-1.04875">
        <ele>180.7</ele>
        <time>2011-11-27T08:50:51Z</time>
      </trkpt>
      <trkpt lat="47.01422" lon="-1.04869">
        <ele>179.1</ele>
        <time>2011-11-27T08:50:53Z</time>
      </trkpt>
      <trkpt lat="47.01425" lon="-1.04864">
        <ele>177.5</ele>
        <time>2011-11-27T08:50:54Z</time>
      </trkpt>
      <trkpt lat="47.01432" lon="-1.0486">
        <ele>178.3</ele>
        <time>2011-11-27T08:50:56Z</time>
      </trkpt>
      <trkpt lat="47.01438" lon="-1.04852">
        <ele>178.1</ele>
        <time>2011-11-27T08:50:58Z</time>
      </trkpt>
      <trkpt lat="47.01443" lon="-1.04849">
        <ele>180.2</ele>
        <time>2011-11-27T08:50:59Z</time>
      </trkpt>
      <trkpt lat="47.01447" lon="-1.04846">
        <ele>179.2</ele>
        <time>2011-11-27T08:51:00Z</time>
      </trkpt>
      <trkpt lat="47.01453" lon="-1.04839">
        <ele>179.6</ele>
        <time>2011-11-27T08:51:02Z</time>
      </trkpt>
      <trkpt lat="47.01458" lon="-1.04836">
        <ele>179.1</ele>
        <time>2011-11-27T08:51:03Z</time>
      </trkpt>
      <trkpt lat="47.01463" lon="-1.04832">
        <ele>178.5</ele>
        <time>2011-11-27T08:51:05Z</time>
      </trkpt>
      <trkpt lat="47.01467" lon="-1.04827">
        <ele>178.7</ele>
        <time>2011-11-27T08:51:06Z</time>
      </trkpt>
      <trkpt lat="47.01474" lon="-1.04821">
        <ele>177.8</ele>
        <time>2011-11-27T08:51:08Z</time>
      </trkpt>
      <trkpt lat="47.0148" lon="-1.04815">
        <ele>178.1</ele>
        <time>2011-11-27T08:51:10Z</time>
      </trkpt>
      <trkpt lat="47.01485" lon="-1.0481">
        <ele>178.6</ele>
        <time>2011-11-27T08:51:11Z</time>
      </trkpt>
      <trkpt lat="47.01488" lon="-1.04806">
        <ele>179.8</ele>
        <time>2011-11-27T08:51:12Z</time>
      </trkpt>
      <trkpt lat="47.01492" lon="-1.04801">
        <ele>179.5</ele>
        <time>2011-11-27T08:51:14Z</time>
      </trkpt>
      <trkpt lat="47.01499" lon="-1.04793">
        <ele>180.9</ele>
        <time>2011-11-27T08:51:16Z</time>
      </trkpt>
      <trkpt lat="47.01505" lon="-1.04785">
        <ele>181</ele>
        <time>2011-11-27T08:51:18Z</time>
      </trkpt>
      <trkpt lat="47.0151" lon="-1.04784">
        <ele>181.2</ele>
        <time>2011-11-27T08:51:19Z</time>
      </trkpt>
      <trkpt lat="47.01517" lon="-1.04778">
        <ele>181.6</ele>
        <time>2011-11-27T08:51:21Z</time>
      </trkpt>
      <trkpt lat="47.01524" lon="-1.04772">
        <ele>184.5</ele>
        <time>2011-11-27T08:51:23Z</time>
      </trkpt>
      <trkpt lat="47.01528" lon="-1.04768">
        <ele>183.3</ele>
        <time>2011-11-27T08:51:24Z</time>
      </trkpt>
      <trkpt lat="47.01533" lon="-1.04765">
        <ele>182.2</ele>
        <time>2011-11-27T08:51:25Z</time>
      </trkpt>
      <trkpt lat="47.01538" lon="-1.04758">
        <ele>180.8</ele>
        <time>2011-11-27T08:51:27Z</time>
      </trkpt>
      <trkpt lat="47.01545" lon="-1.04753">
        <ele>180.3</ele>
        <time>2011-11-27T08:51:29Z</time>
      </trkpt>
      <trkpt lat="47.0155" lon="-1.04749">
        <ele>180.7</ele>
        <time>2011-11-27T08:51:31Z</time>
      </trkpt>
      <trkpt lat="47.01556" lon="-1.04741">
        <ele>182.7</ele>
        <time>2011-11-27T08:51:33Z</time>
      </trkpt>
      <trkpt lat="47.01562" lon="-1.04734">
        <ele>183.2</ele>
        <time>2011-11-27T08:51:35Z</time>
      </trkpt>
      <trkpt lat="47.01567" lon="-1.04729">
        <ele>181.5</ele>
        <time>2011-11-27T08:51:36Z</time>
      </trkpt>
      <trkpt lat="47.01574" lon="-1.04723">
        <ele>180.2</ele>
        <time>2011-11-27T08:51:38Z</time>
      </trkpt>
      <trkpt lat="47.01578" lon="-1.0472">
        <ele>179.3</ele>
        <time>2011-11-27T08:51:39Z</time>
      </trkpt>
      <trkpt lat="47.01583" lon="-1.04711">
        <ele>181.4</ele>
        <time>2011-11-27T08:51:42Z</time>
      </trkpt>
      <trkpt lat="47.01586" lon="-1.04703">
        <ele>182.7</ele>
        <time>2011-11-27T08:51:44Z</time>
      </trkpt>
      <trkpt lat="47.01584" lon="-1.04694">
        <ele>183.7</ele>
        <time>2011-11-27T08:51:46Z</time>
      </trkpt>
      <trkpt lat="47.01582" lon="-1.04685">
        <ele>183.9</ele>
        <time>2011-11-27T08:51:47Z</time>
      </trkpt>
      <trkpt lat="47.0158" lon="-1.04675">
        <ele>186.4</ele>
        <time>2011-11-27T08:51:49Z</time>
      </trkpt>
      <trkpt lat="47.0158" lon="-1.04667">
        <ele>186.3</ele>
        <time>2011-11-27T08:51:50Z</time>
      </trkpt>
      <trkpt lat="47.0158" lon="-1.04659">
        <ele>187</ele>
        <time>2011-11-27T08:51:51Z</time>
      </trkpt>
      <trkpt lat="47.01579" lon="-1.04649">
        <ele>186.3</ele>
        <time>2011-11-27T08:51:52Z</time>
      </trkpt>
      <trkpt lat="47.0158" lon="-1.04638">
        <ele>186</ele>
        <time>2011-11-27T08:51:53Z</time>
      </trkpt>
      <trkpt lat="47.0158" lon="-1.04627">
        <ele>185.2</ele>
        <time>2011-11-27T08:51:54Z</time>
      </trkpt>
      <trkpt lat="47.01579" lon="-1.0462">
        <ele>185.6</ele>
        <time>2011-11-27T08:51:55Z</time>
      </trkpt>
      <trkpt lat="47.01579" lon="-1.04612">
        <ele>185.2</ele>
        <time>2011-11-27T08:51:56Z</time>
      </trkpt>
      <trkpt lat="47.01579" lon="-1.04606">
        <ele>185.3</ele>
        <time>2011-11-27T08:51:57Z</time>
      </trkpt>
      <trkpt lat="47.01574" lon="-1.04594">
        <ele>186.3</ele>
        <time>2011-11-27T08:51:59Z</time>
      </trkpt>
      <trkpt lat="47.01574" lon="-1.04587">
        <ele>186.1</ele>
        <time>2011-11-27T08:52:00Z</time>
      </trkpt>
      <trkpt lat="47.01571" lon="-1.04577">
        <ele>187.3</ele>
        <time>2011-11-27T08:52:02Z</time>
      </trkpt>
      <trkpt lat="47.0157" lon="-1.04566">
        <ele>188.7</ele>
        <time>2011-11-27T08:52:04Z</time>
      </trkpt>
      <trkpt lat="47.01569" lon="-1.04553">
        <ele>188.6</ele>
        <time>2011-11-27T08:52:06Z</time>
      </trkpt>
      <trkpt lat="47.01569" lon="-1.04543">
        <ele>188.8</ele>
        <time>2011-11-27T08:52:07Z</time>
      </trkpt>
      <trkpt lat="47.01571" lon="-1.04532">
        <ele>187.7</ele>
        <time>2011-11-27T08:52:08Z</time>
      </trkpt>
      <trkpt lat="47.0157" lon="-1.04524">
        <ele>188.2</ele>
        <time>2011-11-27T08:52:09Z</time>
      </trkpt>
      <trkpt lat="47.01568" lon="-1.04514">
        <ele>188.8</ele>
        <time>2011-11-27T08:52:10Z</time>
      </trkpt>
      <trkpt lat="47.01566" lon="-1.04504">
        <ele>189.7</ele>
        <time>2011-11-27T08:52:11Z</time>
      </trkpt>
      <trkpt lat="47.01568" lon="-1.04497">
        <ele>188.9</ele>
        <time>2011-11-27T08:52:12Z</time>
      </trkpt>
      <trkpt lat="47.01571" lon="-1.04487">
        <ele>187.6</ele>
        <time>2011-11-27T08:52:13Z</time>
      </trkpt>
      <trkpt lat="47.01574" lon="-1.04473">
        <ele>187.3</ele>
        <time>2011-11-27T08:52:14Z</time>
      </trkpt>
      <trkpt lat="47.01574" lon="-1.04464">
        <ele>185.8</ele>
        <time>2011-11-27T08:52:15Z</time>
      </trkpt>
      <trkpt lat="47.01576" lon="-1.04456">
        <ele>186.2</ele>
        <time>2011-11-27T08:52:16Z</time>
      </trkpt>
      <trkpt lat="47.01574" lon="-1.04448">
        <ele>185.5</ele>
        <time>2011-11-27T08:52:17Z</time>
      </trkpt>
      <trkpt lat="47.01573" lon="-1.04441">
        <ele>185</ele>
        <time>2011-11-27T08:52:18Z</time>
      </trkpt>
      <trkpt lat="47.01576" lon="-1.04427">
        <ele>184.1</ele>
        <time>2011-11-27T08:52:19Z</time>
      </trkpt>
      <trkpt lat="47.01577" lon="-1.04417">
        <ele>183.9</ele>
        <time>2011-11-27T08:52:20Z</time>
      </trkpt>
      <trkpt lat="47.01575" lon="-1.0441">
        <ele>183.9</ele>
        <time>2011-11-27T08:52:21Z</time>
      </trkpt>
      <trkpt lat="47.01577" lon="-1.04402">
        <ele>185.1</ele>
        <time>2011-11-27T08:52:22Z</time>
      </trkpt>
      <trkpt lat="47.01578" lon="-1.04393">
        <ele>184.9</ele>
        <time>2011-11-27T08:52:23Z</time>
      </trkpt>
      <trkpt lat="47.0158" lon="-1.04384">
        <ele>184.3</ele>
        <time>2011-11-27T08:52:24Z</time>
      </trkpt>
      <trkpt lat="47.01579" lon="-1.04377">
        <ele>184.3</ele>
        <time>2011-11-27T08:52:25Z</time>
      </trkpt>
      <trkpt lat="47.01582" lon="-1.04369">
        <ele>184</ele>
        <time>2011-11-27T08:52:26Z</time>
      </trkpt>
      <trkpt lat="47.0158" lon="-1.04357">
        <ele>183.4</ele>
        <time>2011-11-27T08:52:27Z</time>
      </trkpt>
      <trkpt lat="47.01581" lon="-1.0435">
        <ele>183.7</ele>
        <time>2011-11-27T08:52:28Z</time>
      </trkpt>
      <trkpt lat="47.01583" lon="-1.04338">
        <ele>184</ele>
        <time>2011-11-27T08:52:29Z</time>
      </trkpt>
      <trkpt lat="47.01586" lon="-1.04328">
        <ele>184.4</ele>
        <time>2011-11-27T08:52:30Z</time>
      </trkpt>
      <trkpt lat="47.01589" lon="-1.0432">
        <ele>184.4</ele>
        <time>2011-11-27T08:52:31Z</time>
      </trkpt>
      <trkpt lat="47.01591" lon="-1.0431">
        <ele>183.6</ele>
        <time>2011-11-27T08:52:32Z</time>
      </trkpt>
      <trkpt lat="47.01592" lon="-1.04302">
        <ele>183.4</ele>
        <time>2011-11-27T08:52:33Z</time>
      </trkpt>
      <trkpt lat="47.01593" lon="-1.04295">
        <ele>182</ele>
        <time>2011-11-27T08:52:34Z</time>
      </trkpt>
      <trkpt lat="47.01596" lon="-1.04284">
        <ele>182.7</ele>
        <time>2011-11-27T08:52:35Z</time>
      </trkpt>
      <trkpt lat="47.01598" lon="-1.04275">
        <ele>182.7</ele>
        <time>2011-11-27T08:52:36Z</time>
      </trkpt>
      <trkpt lat="47.01599" lon="-1.04264">
        <ele>183.1</ele>
        <time>2011-11-27T08:52:37Z</time>
      </trkpt>
      <trkpt lat="47.016" lon="-1.04251">
        <ele>182.4</ele>
        <time>2011-11-27T08:52:38Z</time>
      </trkpt>
      <trkpt lat="47.016" lon="-1.04244">
        <ele>182.2</ele>
        <time>2011-11-27T08:52:39Z</time>
      </trkpt>
      <trkpt lat="47.01604" lon="-1.04226">
        <ele>181</ele>
        <time>2011-11-27T08:52:41Z</time>
      </trkpt>
      <trkpt lat="47.01604" lon="-1.04218">
        <ele>181.1</ele>
        <time>2011-11-27T08:52:42Z</time>
      </trkpt>
      <trkpt lat="47.01606" lon="-1.04208">
        <ele>181.4</ele>
        <time>2011-11-27T08:52:43Z</time>
      </trkpt>
      <trkpt lat="47.01607" lon="-1.042">
        <ele>181</ele>
        <time>2011-11-27T08:52:44Z</time>
      </trkpt>
      <trkpt lat="47.01606" lon="-1.0419">
        <ele>181.4</ele>
        <time>2011-11-27T08:52:45Z</time>
      </trkpt>
      <trkpt lat="47.01608" lon="-1.0418">
        <ele>181.9</ele>
        <time>2011-11-27T08:52:46Z</time>
      </trkpt>
      <trkpt lat="47.01608" lon="-1.04172">
        <ele>182</ele>
        <time>2011-11-27T08:52:47Z</time>
      </trkpt>
      <trkpt lat="47.0161" lon="-1.04163">
        <ele>181.5</ele>
        <time>2011-11-27T08:52:48Z</time>
      </trkpt>
      <trkpt lat="47.01611" lon="-1.0415">
        <ele>182.3</ele>
        <time>2011-11-27T08:52:50Z</time>
      </trkpt>
      <trkpt lat="47.0161" lon="-1.04141">
        <ele>181.9</ele>
        <time>2011-11-27T08:52:51Z</time>
      </trkpt>
      <trkpt lat="47.01612" lon="-1.04133">
        <ele>181.6</ele>
        <time>2011-11-27T08:52:52Z</time>
      </trkpt>
      <trkpt lat="47.01615" lon="-1.04117">
        <ele>180.3</ele>
        <time>2011-11-27T08:52:54Z</time>
      </trkpt>
      <trkpt lat="47.01618" lon="-1.04106">
        <ele>179.9</ele>
        <time>2011-11-27T08:52:55Z</time>
      </trkpt>
      <trkpt lat="47.01621" lon="-1.04096">
        <ele>181</ele>
        <time>2011-11-27T08:52:56Z</time>
      </trkpt>
      <trkpt lat="47.01619" lon="-1.04089">
        <ele>181</ele>
        <time>2011-11-27T08:52:57Z</time>
      </trkpt>
      <trkpt lat="47.01619" lon="-1.04082">
        <ele>180.9</ele>
        <time>2011-11-27T08:52:58Z</time>
      </trkpt>
      <trkpt lat="47.01618" lon="-1.04075">
        <ele>180.5</ele>
        <time>2011-11-27T08:52:59Z</time>
      </trkpt>
      <trkpt lat="47.01619" lon="-1.04067">
        <ele>181.5</ele>
        <time>2011-11-27T08:53:00Z</time>
      </trkpt>
      <trkpt lat="47.01621" lon="-1.04048">
        <ele>180.4</ele>
        <time>2011-11-27T08:53:02Z</time>
      </trkpt>
      <trkpt lat="47.0162" lon="-1.04036">
        <ele>180.8</ele>
        <time>2011-11-27T08:53:04Z</time>
      </trkpt>
      <trkpt lat="47.0162" lon="-1.04024">
        <ele>180.9</ele>
        <time>2011-11-27T08:53:06Z</time>
      </trkpt>
      <trkpt lat="47.0162" lon="-1.04017">
        <ele>181.2</ele>
        <time>2011-11-27T08:53:07Z</time>
      </trkpt>
      <trkpt lat="47.01622" lon="-1.0401">
        <ele>180.7</ele>
        <time>2011-11-27T08:53:08Z</time>
      </trkpt>
      <trkpt lat="47.01623" lon="-1.03999">
        <ele>181.3</ele>
        <time>2011-11-27T08:53:09Z</time>
      </trkpt>
      <trkpt lat="47.01623" lon="-1.0399">
        <ele>181.6</ele>
        <time>2011-11-27T08:53:10Z</time>
      </trkpt>
      <trkpt lat="47.01621" lon="-1.03982">
        <ele>181.5</ele>
        <time>2011-11-27T08:53:11Z</time>
      </trkpt>
      <trkpt lat="47.01623" lon="-1.03974">
        <ele>180.9</ele>
        <time>2011-11-27T08:53:12Z</time>
      </trkpt>
      <trkpt lat="47.01621" lon="-1.03966">
        <ele>181.9</ele>
        <time>2011-11-27T08:53:13Z</time>
      </trkpt>
      <trkpt lat="47.01617" lon="-1.03954">
        <ele>181.2</ele>
        <time>2011-11-27T08:53:15Z</time>
      </trkpt>
      <trkpt lat="47.01617" lon="-1.03944">
        <ele>181.4</ele>
        <time>2011-11-27T08:53:16Z</time>
      </trkpt>
      <trkpt lat="47.01614" lon="-1.0393">
        <ele>180.9</ele>
        <time>2011-11-27T08:53:18Z</time>
      </trkpt>
      <trkpt lat="47.01612" lon="-1.03916">
        <ele>181.2</ele>
        <time>2011-11-27T08:53:19Z</time>
      </trkpt>
      <trkpt lat="47.01606" lon="-1.03906">
        <ele>182.1</ele>
        <time>2011-11-27T08:53:21Z</time>
      </trkpt>
      <trkpt lat="47.016" lon="-1.03903">
        <ele>182</ele>
        <time>2011-11-27T08:53:22Z</time>
      </trkpt>
      <trkpt lat="47.01596" lon="-1.03898">
        <ele>183.3</ele>
        <time>2011-11-27T08:53:23Z</time>
      </trkpt>
      <trkpt lat="47.01594" lon="-1.03889">
        <ele>181.7</ele>
        <time>2011-11-27T08:53:24Z</time>
      </trkpt>
      <trkpt lat="47.01592" lon="-1.03878">
        <ele>181</ele>
        <time>2011-11-27T08:53:25Z</time>
      </trkpt>
      <trkpt lat="47.01589" lon="-1.03871">
        <ele>180.7</ele>
        <time>2011-11-27T08:53:26Z</time>
      </trkpt>
      <trkpt lat="47.01587" lon="-1.03864">
        <ele>181.3</ele>
        <time>2011-11-27T08:53:27Z</time>
      </trkpt>
      <trkpt lat="47.01583" lon="-1.03859">
        <ele>181.5</ele>
        <time>2011-11-27T08:53:28Z</time>
      </trkpt>
      <trkpt lat="47.0158" lon="-1.03849">
        <ele>181.7</ele>
        <time>2011-11-27T08:53:29Z</time>
      </trkpt>
      <trkpt lat="47.01576" lon="-1.0384">
        <ele>182</ele>
        <time>2011-11-27T08:53:30Z</time>
      </trkpt>
      <trkpt lat="47.01572" lon="-1.03834">
        <ele>182</ele>
        <time>2011-11-27T08:53:31Z</time>
      </trkpt>
      <trkpt lat="47.01571" lon="-1.03827">
        <ele>182.8</ele>
        <time>2011-11-27T08:53:32Z</time>
      </trkpt>
      <trkpt lat="47.01566" lon="-1.03815">
        <ele>182.3</ele>
        <time>2011-11-27T08:53:33Z</time>
      </trkpt>
      <trkpt lat="47.01561" lon="-1.03802">
        <ele>182.7</ele>
        <time>2011-11-27T08:53:35Z</time>
      </trkpt>
      <trkpt lat="47.01558" lon="-1.03796">
        <ele>182.4</ele>
        <time>2011-11-27T08:53:36Z</time>
      </trkpt>
      <trkpt lat="47.01553" lon="-1.03785">
        <ele>182.1</ele>
        <time>2011-11-27T08:53:37Z</time>
      </trkpt>
      <trkpt lat="47.01548" lon="-1.0378">
        <ele>183.3</ele>
        <time>2011-11-27T08:53:38Z</time>
      </trkpt>
      <trkpt lat="47.01542" lon="-1.03768">
        <ele>183.9</ele>
        <time>2011-11-27T08:53:40Z</time>
      </trkpt>
      <trkpt lat="47.01536" lon="-1.0376">
        <ele>183.8</ele>
        <time>2011-11-27T08:53:41Z</time>
      </trkpt>
      <trkpt lat="47.01533" lon="-1.03745">
        <ele>182.3</ele>
        <time>2011-11-27T08:53:42Z</time>
      </trkpt>
      <trkpt lat="47.0153" lon="-1.03738">
        <ele>181.2</ele>
        <time>2011-11-27T08:53:43Z</time>
      </trkpt>
      <trkpt lat="47.01526" lon="-1.03729">
        <ele>181.2</ele>
        <time>2011-11-27T08:53:44Z</time>
      </trkpt>
      <trkpt lat="47.01524" lon="-1.03717">
        <ele>181.2</ele>
        <time>2011-11-27T08:53:45Z</time>
      </trkpt>
      <trkpt lat="47.01521" lon="-1.0371">
        <ele>181.4</ele>
        <time>2011-11-27T08:53:46Z</time>
      </trkpt>
      <trkpt lat="47.01517" lon="-1.03701">
        <ele>180.9</ele>
        <time>2011-11-27T08:53:48Z</time>
      </trkpt>
      <trkpt lat="47.01509" lon="-1.03696">
        <ele>179.9</ele>
        <time>2011-11-27T08:53:50Z</time>
      </trkpt>
      <trkpt lat="47.01506" lon="-1.03689">
        <ele>180.1</ele>
        <time>2011-11-27T08:53:51Z</time>
      </trkpt>
      <trkpt lat="47.01503" lon="-1.03682">
        <ele>179.8</ele>
        <time>2011-11-27T08:53:52Z</time>
      </trkpt>
      <trkpt lat="47.015" lon="-1.03677">
        <ele>179.9</ele>
        <time>2011-11-27T08:53:53Z</time>
      </trkpt>
      <trkpt lat="47.01498" lon="-1.03667">
        <ele>178.7</ele>
        <time>2011-11-27T08:53:54Z</time>
      </trkpt>
      <trkpt lat="47.01492" lon="-1.03655">
        <ele>180.2</ele>
        <time>2011-11-27T08:53:55Z</time>
      </trkpt>
      <trkpt lat="47.0149" lon="-1.03648">
        <ele>180.6</ele>
        <time>2011-11-27T08:53:56Z</time>
      </trkpt>
      <trkpt lat="47.01487" lon="-1.0364">
        <ele>180.5</ele>
        <time>2011-11-27T08:53:57Z</time>
      </trkpt>
      <trkpt lat="47.01484" lon="-1.03633">
        <ele>181.1</ele>
        <time>2011-11-27T08:53:58Z</time>
      </trkpt>
      <trkpt lat="47.01478" lon="-1.03624">
        <ele>181.7</ele>
        <time>2011-11-27T08:54:00Z</time>
      </trkpt>
      <trkpt lat="47.01473" lon="-1.03611">
        <ele>182.8</ele>
        <time>2011-11-27T08:54:02Z</time>
      </trkpt>
      <trkpt lat="47.01471" lon="-1.03599">
        <ele>183</ele>
        <time>2011-11-27T08:54:03Z</time>
      </trkpt>
      <trkpt lat="47.01469" lon="-1.03592">
        <ele>183</ele>
        <time>2011-11-27T08:54:04Z</time>
      </trkpt>
      <trkpt lat="47.01468" lon="-1.03585">
        <ele>183.6</ele>
        <time>2011-11-27T08:54:05Z</time>
      </trkpt>
      <trkpt lat="47.01462" lon="-1.03579">
        <ele>184.7</ele>
        <time>2011-11-27T08:54:07Z</time>
      </trkpt>
      <trkpt lat="47.01461" lon="-1.03564">
        <ele>184.9</ele>
        <time>2011-11-27T08:54:08Z</time>
      </trkpt>
      <trkpt lat="47.01459" lon="-1.03556">
        <ele>186.1</ele>
        <time>2011-11-27T08:54:09Z</time>
      </trkpt>
      <trkpt lat="47.01457" lon="-1.03546">
        <ele>186.3</ele>
        <time>2011-11-27T08:54:10Z</time>
      </trkpt>
      <trkpt lat="47.01455" lon="-1.0354">
        <ele>186</ele>
        <time>2011-11-27T08:54:11Z</time>
      </trkpt>
      <trkpt lat="47.01454" lon="-1.03532">
        <ele>186.1</ele>
        <time>2011-11-27T08:54:12Z</time>
      </trkpt>
      <trkpt lat="47.01451" lon="-1.03524">
        <ele>186.5</ele>
        <time>2011-11-27T08:54:13Z</time>
      </trkpt>
      <trkpt lat="47.01446" lon="-1.03513">
        <ele>186.2</ele>
        <time>2011-11-27T08:54:15Z</time>
      </trkpt>
      <trkpt lat="47.01444" lon="-1.03504">
        <ele>185.3</ele>
        <time>2011-11-27T08:54:16Z</time>
      </trkpt>
      <trkpt lat="47.01442" lon="-1.03495">
        <ele>185.3</ele>
        <time>2011-11-27T08:54:17Z</time>
      </trkpt>
      <trkpt lat="47.0144" lon="-1.03486">
        <ele>186.1</ele>
        <time>2011-11-27T08:54:18Z</time>
      </trkpt>
      <trkpt lat="47.01439" lon="-1.03479">
        <ele>185.7</ele>
        <time>2011-11-27T08:54:19Z</time>
      </trkpt>
      <trkpt lat="47.01433" lon="-1.03469">
        <ele>184.7</ele>
        <time>2011-11-27T08:54:21Z</time>
      </trkpt>
      <trkpt lat="47.01428" lon="-1.03462">
        <ele>184.7</ele>
        <time>2011-11-27T08:54:22Z</time>
      </trkpt>
      <trkpt lat="47.01426" lon="-1.03455">
        <ele>184</ele>
        <time>2011-11-27T08:54:23Z</time>
      </trkpt>
      <trkpt lat="47.01422" lon="-1.0345">
        <ele>184</ele>
        <time>2011-11-27T08:54:24Z</time>
      </trkpt>
      <trkpt lat="47.01416" lon="-1.0344">
        <ele>183.8</ele>
        <time>2011-11-27T08:54:26Z</time>
      </trkpt>
      <trkpt lat="47.0141" lon="-1.03426">
        <ele>183.9</ele>
        <time>2011-11-27T08:54:28Z</time>
      </trkpt>
      <trkpt lat="47.01405" lon="-1.03412">
        <ele>184.1</ele>
        <time>2011-11-27T08:54:30Z</time>
      </trkpt>
      <trkpt lat="47.01402" lon="-1.03405">
        <ele>184</ele>
        <time>2011-11-27T08:54:31Z</time>
      </trkpt>
      <trkpt lat="47.01399" lon="-1.03399">
        <ele>184</ele>
        <time>2011-11-27T08:54:32Z</time>
      </trkpt>
      <trkpt lat="47.01396" lon="-1.03392">
        <ele>184.3</ele>
        <time>2011-11-27T08:54:33Z</time>
      </trkpt>
      <trkpt lat="47.01394" lon="-1.03385">
        <ele>183.2</ele>
        <time>2011-11-27T08:54:34Z</time>
      </trkpt>
      <trkpt lat="47.01389" lon="-1.0338">
        <ele>183.2</ele>
        <time>2011-11-27T08:54:35Z</time>
      </trkpt>
      <trkpt lat="47.01387" lon="-1.03373">
        <ele>183.4</ele>
        <time>2011-11-27T08:54:36Z</time>
      </trkpt>
      <trkpt lat="47.01386" lon="-1.03362">
        <ele>183.3</ele>
        <time>2011-11-27T08:54:37Z</time>
      </trkpt>
      <trkpt lat="47.01383" lon="-1.03354">
        <ele>183.6</ele>
        <time>2011-11-27T08:54:38Z</time>
      </trkpt>
      <trkpt lat="47.0138" lon="-1.03349">
        <ele>183.3</ele>
        <time>2011-11-27T08:54:39Z</time>
      </trkpt>
      <trkpt lat="47.01377" lon="-1.0334">
        <ele>184.3</ele>
        <time>2011-11-27T08:54:40Z</time>
      </trkpt>
      <trkpt lat="47.01375" lon="-1.03333">
        <ele>184.6</ele>
        <time>2011-11-27T08:54:41Z</time>
      </trkpt>
      <trkpt lat="47.01373" lon="-1.03323">
        <ele>184.3</ele>
        <time>2011-11-27T08:54:42Z</time>
      </trkpt>
      <trkpt lat="47.01371" lon="-1.03317">
        <ele>184.6</ele>
        <time>2011-11-27T08:54:43Z</time>
      </trkpt>
      <trkpt lat="47.01369" lon="-1.0331">
        <ele>184.7</ele>
        <time>2011-11-27T08:54:44Z</time>
      </trkpt>
      <trkpt lat="47.01367" lon="-1.033">
        <ele>185.2</ele>
        <time>2011-11-27T08:54:45Z</time>
      </trkpt>
      <trkpt lat="47.01367" lon="-1.0329">
        <ele>185.3</ele>
        <time>2011-11-27T08:54:46Z</time>
      </trkpt>
      <trkpt lat="47.01364" lon="-1.03285">
        <ele>185.7</ele>
        <time>2011-11-27T08:54:47Z</time>
      </trkpt>
      <trkpt lat="47.01362" lon="-1.03276">
        <ele>185.8</ele>
        <time>2011-11-27T08:54:48Z</time>
      </trkpt>
      <trkpt lat="47.01359" lon="-1.03266">
        <ele>185.7</ele>
        <time>2011-11-27T08:54:49Z</time>
      </trkpt>
      <trkpt lat="47.01357" lon="-1.03259">
        <ele>185.8</ele>
        <time>2011-11-27T08:54:50Z</time>
      </trkpt>
      <trkpt lat="47.01355" lon="-1.03245">
        <ele>186</ele>
        <time>2011-11-27T08:54:51Z</time>
      </trkpt>
      <trkpt lat="47.01354" lon="-1.03236">
        <ele>185.4</ele>
        <time>2011-11-27T08:54:52Z</time>
      </trkpt>
      <trkpt lat="47.01352" lon="-1.03223">
        <ele>185.2</ele>
        <time>2011-11-27T08:54:53Z</time>
      </trkpt>
      <trkpt lat="47.01351" lon="-1.03214">
        <ele>185.1</ele>
        <time>2011-11-27T08:54:54Z</time>
      </trkpt>
      <trkpt lat="47.01351" lon="-1.03202">
        <ele>184.6</ele>
        <time>2011-11-27T08:54:55Z</time>
      </trkpt>
      <trkpt lat="47.01348" lon="-1.03195">
        <ele>184.4</ele>
        <time>2011-11-27T08:54:56Z</time>
      </trkpt>
      <trkpt lat="47.01344" lon="-1.03179">
        <ele>185.5</ele>
        <time>2011-11-27T08:54:58Z</time>
      </trkpt>
      <trkpt lat="47.01343" lon="-1.03166">
        <ele>185.3</ele>
        <time>2011-11-27T08:54:59Z</time>
      </trkpt>
      <trkpt lat="47.0134" lon="-1.03155">
        <ele>184.7</ele>
        <time>2011-11-27T08:55:00Z</time>
      </trkpt>
      <trkpt lat="47.01338" lon="-1.03147">
        <ele>184.1</ele>
        <time>2011-11-27T08:55:01Z</time>
      </trkpt>
      <trkpt lat="47.01337" lon="-1.03135">
        <ele>183.3</ele>
        <time>2011-11-27T08:55:02Z</time>
      </trkpt>
      <trkpt lat="47.01329" lon="-1.03129">
        <ele>184.6</ele>
        <time>2011-11-27T08:55:04Z</time>
      </trkpt>
      <trkpt lat="47.01327" lon="-1.03118">
        <ele>185</ele>
        <time>2011-11-27T08:55:05Z</time>
      </trkpt>
      <trkpt lat="47.01325" lon="-1.03107">
        <ele>185</ele>
        <time>2011-11-27T08:55:06Z</time>
      </trkpt>
      <trkpt lat="47.01324" lon="-1.03096">
        <ele>183.9</ele>
        <time>2011-11-27T08:55:07Z</time>
      </trkpt>
      <trkpt lat="47.01323" lon="-1.03087">
        <ele>183.7</ele>
        <time>2011-11-27T08:55:08Z</time>
      </trkpt>
      <trkpt lat="47.01317" lon="-1.03072">
        <ele>184.4</ele>
        <time>2011-11-27T08:55:10Z</time>
      </trkpt>
      <trkpt lat="47.01315" lon="-1.03064">
        <ele>184.4</ele>
        <time>2011-11-27T08:55:11Z</time>
      </trkpt>
      <trkpt lat="47.01314" lon="-1.0305">
        <ele>183.8</ele>
        <time>2011-11-27T08:55:12Z</time>
      </trkpt>
      <trkpt lat="47.01313" lon="-1.03034">
        <ele>184.8</ele>
        <time>2011-11-27T08:55:14Z</time>
      </trkpt>
      <trkpt lat="47.01316" lon="-1.03008">
        <ele>179.5</ele>
        <time>2011-11-27T08:55:15Z</time>
      </trkpt>
      <trkpt lat="47.01319" lon="-1.02997">
        <ele>179.2</ele>
        <time>2011-11-27T08:55:16Z</time>
      </trkpt>
      <trkpt lat="47.0132" lon="-1.02984">
        <ele>179.2</ele>
        <time>2011-11-27T08:55:17Z</time>
      </trkpt>
      <trkpt lat="47.01321" lon="-1.02973">
        <ele>179.4</ele>
        <time>2011-11-27T08:55:18Z</time>
      </trkpt>
      <trkpt lat="47.01325" lon="-1.02962">
        <ele>179.9</ele>
        <time>2011-11-27T08:55:19Z</time>
      </trkpt>
      <trkpt lat="47.01325" lon="-1.0295">
        <ele>179.7</ele>
        <time>2011-11-27T08:55:20Z</time>
      </trkpt>
      <trkpt lat="47.01326" lon="-1.02936">
        <ele>180.5</ele>
        <time>2011-11-27T08:55:22Z</time>
      </trkpt>
      <trkpt lat="47.01322" lon="-1.0293">
        <ele>180.9</ele>
        <time>2011-11-27T08:55:23Z</time>
      </trkpt>
      <trkpt lat="47.01319" lon="-1.02923">
        <ele>181.8</ele>
        <time>2011-11-27T08:55:24Z</time>
      </trkpt>
      <trkpt lat="47.01316" lon="-1.02918">
        <ele>181.8</ele>
        <time>2011-11-27T08:55:25Z</time>
      </trkpt>
      <trkpt lat="47.01314" lon="-1.02909">
        <ele>182.6</ele>
        <time>2011-11-27T08:55:26Z</time>
      </trkpt>
      <trkpt lat="47.01313" lon="-1.02892">
        <ele>182.2</ele>
        <time>2011-11-27T08:55:28Z</time>
      </trkpt>
      <trkpt lat="47.01312" lon="-1.02882">
        <ele>181.9</ele>
        <time>2011-11-27T08:55:29Z</time>
      </trkpt>
      <trkpt lat="47.01311" lon="-1.02868">
        <ele>182.2</ele>
        <time>2011-11-27T08:55:30Z</time>
      </trkpt>
      <trkpt lat="47.01312" lon="-1.02856">
        <ele>182.7</ele>
        <time>2011-11-27T08:55:31Z</time>
      </trkpt>
      <trkpt lat="47.01312" lon="-1.02848">
        <ele>183</ele>
        <time>2011-11-27T08:55:32Z</time>
      </trkpt>
      <trkpt lat="47.0131" lon="-1.02838">
        <ele>183</ele>
        <time>2011-11-27T08:55:33Z</time>
      </trkpt>
      <trkpt lat="47.01305" lon="-1.02824">
        <ele>182.3</ele>
        <time>2011-11-27T08:55:35Z</time>
      </trkpt>
      <trkpt lat="47.01303" lon="-1.02815">
        <ele>182.7</ele>
        <time>2011-11-27T08:55:36Z</time>
      </trkpt>
      <trkpt lat="47.013" lon="-1.02803">
        <ele>181.7</ele>
        <time>2011-11-27T08:55:38Z</time>
      </trkpt>
      <trkpt lat="47.01296" lon="-1.02793">
        <ele>181.7</ele>
        <time>2011-11-27T08:55:39Z</time>
      </trkpt>
      <trkpt lat="47.01296" lon="-1.02784">
        <ele>180.9</ele>
        <time>2011-11-27T08:55:40Z</time>
      </trkpt>
      <trkpt lat="47.01294" lon="-1.02775">
        <ele>181.5</ele>
        <time>2011-11-27T08:55:41Z</time>
      </trkpt>
      <trkpt lat="47.01294" lon="-1.0276">
        <ele>181.2</ele>
        <time>2011-11-27T08:55:42Z</time>
      </trkpt>
      <trkpt lat="47.01291" lon="-1.02753">
        <ele>181.7</ele>
        <time>2011-11-27T08:55:43Z</time>
      </trkpt>
      <trkpt lat="47.0129" lon="-1.02745">
        <ele>181.8</ele>
        <time>2011-11-27T08:55:44Z</time>
      </trkpt>
      <trkpt lat="47.01287" lon="-1.02736">
        <ele>181.7</ele>
        <time>2011-11-27T08:55:45Z</time>
      </trkpt>
      <trkpt lat="47.01284" lon="-1.02727">
        <ele>182</ele>
        <time>2011-11-27T08:55:46Z</time>
      </trkpt>
      <trkpt lat="47.01284" lon="-1.02711">
        <ele>182</ele>
        <time>2011-11-27T08:55:48Z</time>
      </trkpt>
      <trkpt lat="47.01281" lon="-1.02704">
        <ele>181.5</ele>
        <time>2011-11-27T08:55:49Z</time>
      </trkpt>
      <trkpt lat="47.01279" lon="-1.02697">
        <ele>180.9</ele>
        <time>2011-11-27T08:55:50Z</time>
      </trkpt>
      <trkpt lat="47.01274" lon="-1.02686">
        <ele>181.4</ele>
        <time>2011-11-27T08:55:52Z</time>
      </trkpt>
      <trkpt lat="47.01273" lon="-1.02675">
        <ele>182.1</ele>
        <time>2011-11-27T08:55:53Z</time>
      </trkpt>
      <trkpt lat="47.0127" lon="-1.02668">
        <ele>182.5</ele>
        <time>2011-11-27T08:55:54Z</time>
      </trkpt>
      <trkpt lat="47.01267" lon="-1.02652">
        <ele>183.5</ele>
        <time>2011-11-27T08:55:56Z</time>
      </trkpt>
      <trkpt lat="47.01262" lon="-1.02641">
        <ele>183.6</ele>
        <time>2011-11-27T08:55:58Z</time>
      </trkpt>
      <trkpt lat="47.01255" lon="-1.02631">
        <ele>183.6</ele>
        <time>2011-11-27T08:56:00Z</time>
      </trkpt>
      <trkpt lat="47.01251" lon="-1.02616">
        <ele>183.8</ele>
        <time>2011-11-27T08:56:02Z</time>
      </trkpt>
      <trkpt lat="47.01247" lon="-1.02608">
        <ele>183.8</ele>
        <time>2011-11-27T08:56:03Z</time>
      </trkpt>
      <trkpt lat="47.01245" lon="-1.02601">
        <ele>184.2</ele>
        <time>2011-11-27T08:56:04Z</time>
      </trkpt>
      <trkpt lat="47.01242" lon="-1.02588">
        <ele>183.7</ele>
        <time>2011-11-27T08:56:05Z</time>
      </trkpt>
      <trkpt lat="47.01238" lon="-1.0258">
        <ele>184.6</ele>
        <time>2011-11-27T08:56:06Z</time>
      </trkpt>
      <trkpt lat="47.01233" lon="-1.02566">
        <ele>186.6</ele>
        <time>2011-11-27T08:56:08Z</time>
      </trkpt>
      <trkpt lat="47.01229" lon="-1.02561">
        <ele>188.1</ele>
        <time>2011-11-27T08:56:10Z</time>
      </trkpt>
      <trkpt lat="47.01228" lon="-1.0255">
        <ele>186.7</ele>
        <time>2011-11-27T08:56:11Z</time>
      </trkpt>
      <trkpt lat="47.01226" lon="-1.02541">
        <ele>186.6</ele>
        <time>2011-11-27T08:56:12Z</time>
      </trkpt>
      <trkpt lat="47.01227" lon="-1.02522">
        <ele>182.1</ele>
        <time>2011-11-27T08:56:13Z</time>
      </trkpt>
      <trkpt lat="47.01224" lon="-1.02515">
        <ele>181.1</ele>
        <time>2011-11-27T08:56:14Z</time>
      </trkpt>
      <trkpt lat="47.0122" lon="-1.0251">
        <ele>179.7</ele>
        <time>2011-11-27T08:56:15Z</time>
      </trkpt>
      <trkpt lat="47.01216" lon="-1.02497">
        <ele>180.6</ele>
        <time>2011-11-27T08:56:17Z</time>
      </trkpt>
      <trkpt lat="47.01211" lon="-1.02488">
        <ele>180.3</ele>
        <time>2011-11-27T08:56:18Z</time>
      </trkpt>
      <trkpt lat="47.01206" lon="-1.02479">
        <ele>180</ele>
        <time>2011-11-27T08:56:19Z</time>
      </trkpt>
      <trkpt lat="47.01204" lon="-1.0247">
        <ele>179.9</ele>
        <time>2011-11-27T08:56:20Z</time>
      </trkpt>
      <trkpt lat="47.01201" lon="-1.02462">
        <ele>180</ele>
        <time>2011-11-27T08:56:21Z</time>
      </trkpt>
      <trkpt lat="47.012" lon="-1.02455">
        <ele>180.8</ele>
        <time>2011-11-27T08:56:22Z</time>
      </trkpt>
      <trkpt lat="47.01197" lon="-1.02445">
        <ele>180.2</ele>
        <time>2011-11-27T08:56:23Z</time>
      </trkpt>
      <trkpt lat="47.01193" lon="-1.02438">
        <ele>178.9</ele>
        <time>2011-11-27T08:56:24Z</time>
      </trkpt>
      <trkpt lat="47.01191" lon="-1.02431">
        <ele>179.9</ele>
        <time>2011-11-27T08:56:25Z</time>
      </trkpt>
      <trkpt lat="47.01187" lon="-1.02424">
        <ele>180.1</ele>
        <time>2011-11-27T08:56:26Z</time>
      </trkpt>
      <trkpt lat="47.01182" lon="-1.02418">
        <ele>180.4</ele>
        <time>2011-11-27T08:56:27Z</time>
      </trkpt>
      <trkpt lat="47.01179" lon="-1.02412">
        <ele>180.2</ele>
        <time>2011-11-27T08:56:28Z</time>
      </trkpt>
      <trkpt lat="47.01178" lon="-1.02395">
        <ele>178.1</ele>
        <time>2011-11-27T08:56:29Z</time>
      </trkpt>
      <trkpt lat="47.01169" lon="-1.02388">
        <ele>176.9</ele>
        <time>2011-11-27T08:56:31Z</time>
      </trkpt>
      <trkpt lat="47.01161" lon="-1.02391">
        <ele>177.1</ele>
        <time>2011-11-27T08:56:33Z</time>
      </trkpt>
      <trkpt lat="47.01155" lon="-1.02391">
        <ele>177.2</ele>
        <time>2011-11-27T08:56:34Z</time>
      </trkpt>
      <trkpt lat="47.01149" lon="-1.02391">
        <ele>178</ele>
        <time>2011-11-27T08:56:35Z</time>
      </trkpt>
      <trkpt lat="47.01143" lon="-1.02391">
        <ele>176.7</ele>
        <time>2011-11-27T08:56:36Z</time>
      </trkpt>
      <trkpt lat="47.01135" lon="-1.02392">
        <ele>175.7</ele>
        <time>2011-11-27T08:56:37Z</time>
      </trkpt>
      <trkpt lat="47.01131" lon="-1.02396">
        <ele>175.9</ele>
        <time>2011-11-27T08:56:39Z</time>
      </trkpt>
      <trkpt lat="47.01123" lon="-1.024">
        <ele>175.3</ele>
        <time>2011-11-27T08:56:41Z</time>
      </trkpt>
      <trkpt lat="47.01119" lon="-1.02402">
        <ele>174.9</ele>
        <time>2011-11-27T08:56:43Z</time>
      </trkpt>
      <trkpt lat="47.01114" lon="-1.02403">
        <ele>174</ele>
        <time>2011-11-27T08:56:45Z</time>
      </trkpt>
      <trkpt lat="47.01105" lon="-1.02404">
        <ele>173.5</ele>
        <time>2011-11-27T08:56:47Z</time>
      </trkpt>
      <trkpt lat="47.011" lon="-1.02403">
        <ele>173.3</ele>
        <time>2011-11-27T08:56:48Z</time>
      </trkpt>
      <trkpt lat="47.01095" lon="-1.02403">
        <ele>172.6</ele>
        <time>2011-11-27T08:56:50Z</time>
      </trkpt>
      <trkpt lat="47.01089" lon="-1.02402">
        <ele>173.6</ele>
        <time>2011-11-27T08:56:52Z</time>
      </trkpt>
      <trkpt lat="47.01084" lon="-1.02402">
        <ele>172.1</ele>
        <time>2011-11-27T08:56:54Z</time>
      </trkpt>
      <trkpt lat="47.01078" lon="-1.02399">
        <ele>171.7</ele>
        <time>2011-11-27T08:56:57Z</time>
      </trkpt>
      <trkpt lat="47.01066" lon="-1.02398">
        <ele>172.3</ele>
        <time>2011-11-27T08:57:00Z</time>
      </trkpt>
      <trkpt lat="47.01058" lon="-1.02396">
        <ele>171.7</ele>
        <time>2011-11-27T08:57:02Z</time>
      </trkpt>
      <trkpt lat="47.01051" lon="-1.02395">
        <ele>171.2</ele>
        <time>2011-11-27T08:57:04Z</time>
      </trkpt>
      <trkpt lat="47.01042" lon="-1.02394">
        <ele>172.3</ele>
        <time>2011-11-27T08:57:06Z</time>
      </trkpt>
      <trkpt lat="47.01038" lon="-1.02391">
        <ele>173.9</ele>
        <time>2011-11-27T08:57:07Z</time>
      </trkpt>
      <trkpt lat="47.01032" lon="-1.02387">
        <ele>172.3</ele>
        <time>2011-11-27T08:57:09Z</time>
      </trkpt>
      <trkpt lat="47.01024" lon="-1.02385">
        <ele>171.6</ele>
        <time>2011-11-27T08:57:11Z</time>
      </trkpt>
      <trkpt lat="47.01019" lon="-1.02386">
        <ele>172.7</ele>
        <time>2011-11-27T08:57:12Z</time>
      </trkpt>
      <trkpt lat="47.01011" lon="-1.02387">
        <ele>173.6</ele>
        <time>2011-11-27T08:57:14Z</time>
      </trkpt>
      <trkpt lat="47.01006" lon="-1.02386">
        <ele>172.1</ele>
        <time>2011-11-27T08:57:15Z</time>
      </trkpt>
      <trkpt lat="47.00996" lon="-1.02383">
        <ele>171.9</ele>
        <time>2011-11-27T08:57:16Z</time>
      </trkpt>
      <trkpt lat="47.00988" lon="-1.02382">
        <ele>170.6</ele>
        <time>2011-11-27T08:57:18Z</time>
      </trkpt>
      <trkpt lat="47.00976" lon="-1.02377">
        <ele>168.5</ele>
        <time>2011-11-27T08:57:20Z</time>
      </trkpt>
      <trkpt lat="47.0097" lon="-1.02374">
        <ele>167.8</ele>
        <time>2011-11-27T08:57:21Z</time>
      </trkpt>
      <trkpt lat="47.00965" lon="-1.02372">
        <ele>167.2</ele>
        <time>2011-11-27T08:57:22Z</time>
      </trkpt>
      <trkpt lat="47.0096" lon="-1.02371">
        <ele>166.3</ele>
        <time>2011-11-27T08:57:23Z</time>
      </trkpt>
      <trkpt lat="47.00956" lon="-1.02368">
        <ele>166</ele>
        <time>2011-11-27T08:57:24Z</time>
      </trkpt>
      <trkpt lat="47.00951" lon="-1.02366">
        <ele>165.6</ele>
        <time>2011-11-27T08:57:25Z</time>
      </trkpt>
      <trkpt lat="47.00943" lon="-1.02363">
        <ele>165.8</ele>
        <time>2011-11-27T08:57:27Z</time>
      </trkpt>
      <trkpt lat="47.00931" lon="-1.02357">
        <ele>165.5</ele>
        <time>2011-11-27T08:57:29Z</time>
      </trkpt>
      <trkpt lat="47.00925" lon="-1.02355">
        <ele>165.5</ele>
        <time>2011-11-27T08:57:30Z</time>
      </trkpt>
      <trkpt lat="47.00917" lon="-1.02352">
        <ele>165.8</ele>
        <time>2011-11-27T08:57:31Z</time>
      </trkpt>
      <trkpt lat="47.00908" lon="-1.02352">
        <ele>165</ele>
        <time>2011-11-27T08:57:33Z</time>
      </trkpt>
      <trkpt lat="47.00903" lon="-1.02351">
        <ele>166.2</ele>
        <time>2011-11-27T08:57:34Z</time>
      </trkpt>
      <trkpt lat="47.00894" lon="-1.02348">
        <ele>166.8</ele>
        <time>2011-11-27T08:57:36Z</time>
      </trkpt>
      <trkpt lat="47.00886" lon="-1.02344">
        <ele>165</ele>
        <time>2011-11-27T08:57:37Z</time>
      </trkpt>
      <trkpt lat="47.00876" lon="-1.02341">
        <ele>165.1</ele>
        <time>2011-11-27T08:57:38Z</time>
      </trkpt>
      <trkpt lat="47.00872" lon="-1.02339">
        <ele>165.9</ele>
        <time>2011-11-27T08:57:39Z</time>
      </trkpt>
      <trkpt lat="47.00868" lon="-1.02333">
        <ele>165.9</ele>
        <time>2011-11-27T08:57:40Z</time>
      </trkpt>
      <trkpt lat="47.0086" lon="-1.0233">
        <ele>165.6</ele>
        <time>2011-11-27T08:57:42Z</time>
      </trkpt>
      <trkpt lat="47.00853" lon="-1.02329">
        <ele>167.9</ele>
        <time>2011-11-27T08:57:44Z</time>
      </trkpt>
      <trkpt lat="47.00844" lon="-1.02338">
        <ele>165.5</ele>
        <time>2011-11-27T08:57:46Z</time>
      </trkpt>
      <trkpt lat="47.00836" lon="-1.02344">
        <ele>165.3</ele>
        <time>2011-11-27T08:57:47Z</time>
      </trkpt>
      <trkpt lat="47.00829" lon="-1.02347">
        <ele>164.8</ele>
        <time>2011-11-27T08:57:48Z</time>
      </trkpt>
      <trkpt lat="47.00821" lon="-1.02352">
        <ele>164.6</ele>
        <time>2011-11-27T08:57:49Z</time>
      </trkpt>
      <trkpt lat="47.00813" lon="-1.0236">
        <ele>164.8</ele>
        <time>2011-11-27T08:57:50Z</time>
      </trkpt>
      <trkpt lat="47.00806" lon="-1.02365">
        <ele>163.8</ele>
        <time>2011-11-27T08:57:51Z</time>
      </trkpt>
      <trkpt lat="47.00794" lon="-1.02372">
        <ele>163.1</ele>
        <time>2011-11-27T08:57:52Z</time>
      </trkpt>
      <trkpt lat="47.00785" lon="-1.02375">
        <ele>162.9</ele>
        <time>2011-11-27T08:57:53Z</time>
      </trkpt>
      <trkpt lat="47.00782" lon="-1.02383">
        <ele>162.9</ele>
        <time>2011-11-27T08:57:54Z</time>
      </trkpt>
      <trkpt lat="47.00778" lon="-1.02391">
        <ele>163.5</ele>
        <time>2011-11-27T08:57:55Z</time>
      </trkpt>
      <trkpt lat="47.00772" lon="-1.024">
        <ele>162.8</ele>
        <time>2011-11-27T08:57:56Z</time>
      </trkpt>
      <trkpt lat="47.00771" lon="-1.0241">
        <ele>163.3</ele>
        <time>2011-11-27T08:57:57Z</time>
      </trkpt>
      <trkpt lat="47.00767" lon="-1.02421">
        <ele>162.1</ele>
        <time>2011-11-27T08:57:59Z</time>
      </trkpt>
      <trkpt lat="47.00761" lon="-1.02435">
        <ele>162.3</ele>
        <time>2011-11-27T08:58:00Z</time>
      </trkpt>
      <trkpt lat="47.00755" lon="-1.02444">
        <ele>161.9</ele>
        <time>2011-11-27T08:58:01Z</time>
      </trkpt>
      <trkpt lat="47.00748" lon="-1.02451">
        <ele>161.5</ele>
        <time>2011-11-27T08:58:02Z</time>
      </trkpt>
      <trkpt lat="47.0074" lon="-1.02458">
        <ele>161.5</ele>
        <time>2011-11-27T08:58:03Z</time>
      </trkpt>
      <trkpt lat="47.00732" lon="-1.02465">
        <ele>161.1</ele>
        <time>2011-11-27T08:58:04Z</time>
      </trkpt>
      <trkpt lat="47.00721" lon="-1.02468">
        <ele>160.7</ele>
        <time>2011-11-27T08:58:06Z</time>
      </trkpt>
      <trkpt lat="47.00713" lon="-1.0247">
        <ele>160.6</ele>
        <time>2011-11-27T08:58:07Z</time>
      </trkpt>
      <trkpt lat="47.00703" lon="-1.02472">
        <ele>161</ele>
        <time>2011-11-27T08:58:08Z</time>
      </trkpt>
      <trkpt lat="47.00693" lon="-1.02473">
        <ele>160.9</ele>
        <time>2011-11-27T08:58:09Z</time>
      </trkpt>
      <trkpt lat="47.00676" lon="-1.02477">
        <ele>160.4</ele>
        <time>2011-11-27T08:58:10Z</time>
      </trkpt>
      <trkpt lat="47.00666" lon="-1.02477">
        <ele>160.3</ele>
        <time>2011-11-27T08:58:11Z</time>
      </trkpt>
      <trkpt lat="47.00654" lon="-1.02479">
        <ele>160.2</ele>
        <time>2011-11-27T08:58:13Z</time>
      </trkpt>
      <trkpt lat="47.00646" lon="-1.02482">
        <ele>160</ele>
        <time>2011-11-27T08:58:14Z</time>
      </trkpt>
      <trkpt lat="47.00612" lon="-1.02487">
        <ele>156.8</ele>
        <time>2011-11-27T08:58:15Z</time>
      </trkpt>
      <trkpt lat="47.00605" lon="-1.02484">
        <ele>156.9</ele>
        <time>2011-11-27T08:58:16Z</time>
      </trkpt>
      <trkpt lat="47.00598" lon="-1.02482">
        <ele>156.4</ele>
        <time>2011-11-27T08:58:17Z</time>
      </trkpt>
      <trkpt lat="47.00591" lon="-1.02477">
        <ele>155.7</ele>
        <time>2011-11-27T08:58:18Z</time>
      </trkpt>
      <trkpt lat="47.00584" lon="-1.02476">
        <ele>155.3</ele>
        <time>2011-11-27T08:58:19Z</time>
      </trkpt>
      <trkpt lat="47.00576" lon="-1.02479">
        <ele>154.5</ele>
        <time>2011-11-27T08:58:20Z</time>
      </trkpt>
      <trkpt lat="47.00568" lon="-1.02475">
        <ele>153.2</ele>
        <time>2011-11-27T08:58:21Z</time>
      </trkpt>
      <trkpt lat="47.00561" lon="-1.02469">
        <ele>153.1</ele>
        <time>2011-11-27T08:58:23Z</time>
      </trkpt>
      <trkpt lat="47.00554" lon="-1.02457">
        <ele>151.4</ele>
        <time>2011-11-27T08:58:25Z</time>
      </trkpt>
      <trkpt lat="47.0055" lon="-1.02447">
        <ele>151.6</ele>
        <time>2011-11-27T08:58:26Z</time>
      </trkpt>
      <trkpt lat="47.0055" lon="-1.02438">
        <ele>151.3</ele>
        <time>2011-11-27T08:58:27Z</time>
      </trkpt>
      <trkpt lat="47.00546" lon="-1.02429">
        <ele>149.8</ele>
        <time>2011-11-27T08:58:29Z</time>
      </trkpt>
      <trkpt lat="47.00542" lon="-1.02423">
        <ele>150.5</ele>
        <time>2011-11-27T08:58:30Z</time>
      </trkpt>
      <trkpt lat="47.00541" lon="-1.02414">
        <ele>149</ele>
        <time>2011-11-27T08:58:31Z</time>
      </trkpt>
      <trkpt lat="47.00541" lon="-1.02399">
        <ele>148</ele>
        <time>2011-11-27T08:58:33Z</time>
      </trkpt>
      <trkpt lat="47.00541" lon="-1.02384">
        <ele>146.1</ele>
        <time>2011-11-27T08:58:35Z</time>
      </trkpt>
      <trkpt lat="47.0054" lon="-1.02376">
        <ele>144.2</ele>
        <time>2011-11-27T08:58:36Z</time>
      </trkpt>
      <trkpt lat="47.00542" lon="-1.02366">
        <ele>142.8</ele>
        <time>2011-11-27T08:58:37Z</time>
      </trkpt>
      <trkpt lat="47.00542" lon="-1.02355">
        <ele>140.3</ele>
        <time>2011-11-27T08:58:38Z</time>
      </trkpt>
      <trkpt lat="47.00541" lon="-1.02348">
        <ele>140.5</ele>
        <time>2011-11-27T08:58:40Z</time>
      </trkpt>
      <trkpt lat="47.00544" lon="-1.02341">
        <ele>139.4</ele>
        <time>2011-11-27T08:58:42Z</time>
      </trkpt>
      <trkpt lat="47.00548" lon="-1.02329">
        <ele>140.4</ele>
        <time>2011-11-27T08:58:44Z</time>
      </trkpt>
      <trkpt lat="47.00548" lon="-1.02321">
        <ele>140.9</ele>
        <time>2011-11-27T08:58:47Z</time>
      </trkpt>
      <trkpt lat="47.0055" lon="-1.02312">
        <ele>138.9</ele>
        <time>2011-11-27T08:58:49Z</time>
      </trkpt>
      <trkpt lat="47.00548" lon="-1.02304">
        <ele>138.8</ele>
        <time>2011-11-27T08:58:51Z</time>
      </trkpt>
      <trkpt lat="47.0055" lon="-1.02294">
        <ele>138.7</ele>
        <time>2011-11-27T08:58:55Z</time>
      </trkpt>
      <trkpt lat="47.00547" lon="-1.02283">
        <ele>139.6</ele>
        <time>2011-11-27T08:58:57Z</time>
      </trkpt>
      <trkpt lat="47.00544" lon="-1.02273">
        <ele>138.6</ele>
        <time>2011-11-27T08:58:58Z</time>
      </trkpt>
      <trkpt lat="47.00543" lon="-1.02265">
        <ele>138.7</ele>
        <time>2011-11-27T08:58:59Z</time>
      </trkpt>
      <trkpt lat="47.0054" lon="-1.02255">
        <ele>137.1</ele>
        <time>2011-11-27T08:59:00Z</time>
      </trkpt>
      <trkpt lat="47.00536" lon="-1.02246">
        <ele>136.5</ele>
        <time>2011-11-27T08:59:01Z</time>
      </trkpt>
      <trkpt lat="47.00534" lon="-1.02235">
        <ele>136.8</ele>
        <time>2011-11-27T08:59:02Z</time>
      </trkpt>
      <trkpt lat="47.00532" lon="-1.02225">
        <ele>136.5</ele>
        <time>2011-11-27T08:59:03Z</time>
      </trkpt>
      <trkpt lat="47.00528" lon="-1.02217">
        <ele>137</ele>
        <time>2011-11-27T08:59:04Z</time>
      </trkpt>
      <trkpt lat="47.00525" lon="-1.02201">
        <ele>135.5</ele>
        <time>2011-11-27T08:59:05Z</time>
      </trkpt>
      <trkpt lat="47.00527" lon="-1.02194">
        <ele>135.2</ele>
        <time>2011-11-27T08:59:06Z</time>
      </trkpt>
      <trkpt lat="47.00527" lon="-1.02184">
        <ele>134.6</ele>
        <time>2011-11-27T08:59:07Z</time>
      </trkpt>
      <trkpt lat="47.00524" lon="-1.02178">
        <ele>134.1</ele>
        <time>2011-11-27T08:59:08Z</time>
      </trkpt>
      <trkpt lat="47.00525" lon="-1.02168">
        <ele>132.5</ele>
        <time>2011-11-27T08:59:09Z</time>
      </trkpt>
      <trkpt lat="47.00524" lon="-1.02158">
        <ele>132</ele>
        <time>2011-11-27T08:59:10Z</time>
      </trkpt>
      <trkpt lat="47.00521" lon="-1.02149">
        <ele>131.4</ele>
        <time>2011-11-27T08:59:11Z</time>
      </trkpt>
      <trkpt lat="47.0052" lon="-1.02139">
        <ele>130.5</ele>
        <time>2011-11-27T08:59:12Z</time>
      </trkpt>
      <trkpt lat="47.00518" lon="-1.0213">
        <ele>130.2</ele>
        <time>2011-11-27T08:59:13Z</time>
      </trkpt>
      <trkpt lat="47.00521" lon="-1.02121">
        <ele>130.1</ele>
        <time>2011-11-27T08:59:14Z</time>
      </trkpt>
      <trkpt lat="47.00522" lon="-1.0211">
        <ele>125.6</ele>
        <time>2011-11-27T08:59:15Z</time>
      </trkpt>
      <trkpt lat="47.00524" lon="-1.02101">
        <ele>124.7</ele>
        <time>2011-11-27T08:59:16Z</time>
      </trkpt>
      <trkpt lat="47.00523" lon="-1.02091">
        <ele>123.9</ele>
        <time>2011-11-27T08:59:17Z</time>
      </trkpt>
      <trkpt lat="47.00526" lon="-1.02078">
        <ele>121.5</ele>
        <time>2011-11-27T08:59:18Z</time>
      </trkpt>
      <trkpt lat="47.00527" lon="-1.02069">
        <ele>119.7</ele>
        <time>2011-11-27T08:59:19Z</time>
      </trkpt>
      <trkpt lat="47.00527" lon="-1.02061">
        <ele>118.1</ele>
        <time>2011-11-27T08:59:20Z</time>
      </trkpt>
      <trkpt lat="47.00526" lon="-1.02054">
        <ele>117.4</ele>
        <time>2011-11-27T08:59:21Z</time>
      </trkpt>
      <trkpt lat="47.00526" lon="-1.02047">
        <ele>117.6</ele>
        <time>2011-11-27T08:59:22Z</time>
      </trkpt>
      <trkpt lat="47.00527" lon="-1.02034">
        <ele>117.1</ele>
        <time>2011-11-27T08:59:24Z</time>
      </trkpt>
      <trkpt lat="47.00524" lon="-1.02018">
        <ele>115.2</ele>
        <time>2011-11-27T08:59:27Z</time>
      </trkpt>
      <trkpt lat="47.00526" lon="-1.02004">
        <ele>113.9</ele>
        <time>2011-11-27T08:59:29Z</time>
      </trkpt>
      <trkpt lat="47.00527" lon="-1.01995">
        <ele>115</ele>
        <time>2011-11-27T08:59:30Z</time>
      </trkpt>
      <trkpt lat="47.00532" lon="-1.01981">
        <ele>112.9</ele>
        <time>2011-11-27T08:59:32Z</time>
      </trkpt>
      <trkpt lat="47.00536" lon="-1.01975">
        <ele>112.3</ele>
        <time>2011-11-27T08:59:36Z</time>
      </trkpt>
      <trkpt lat="47.00539" lon="-1.01969">
        <ele>111.8</ele>
        <time>2011-11-27T09:00:01Z</time>
      </trkpt>
      <trkpt lat="47.0054" lon="-1.01961">
        <ele>109.7</ele>
        <time>2011-11-27T09:00:04Z</time>
      </trkpt>
      <trkpt lat="47.00545" lon="-1.01958">
        <ele>108</ele>
        <time>2011-11-27T09:00:08Z</time>
      </trkpt>
      <trkpt lat="47.0054" lon="-1.01956">
        <ele>111.8</ele>
        <time>2011-11-27T09:00:17Z</time>
      </trkpt>
      <trkpt lat="47.00543" lon="-1.01949">
        <ele>110.2</ele>
        <time>2011-11-27T09:00:47Z</time>
      </trkpt>
      <trkpt lat="47.00543" lon="-1.01942">
        <ele>107.7</ele>
        <time>2011-11-27T09:00:58Z</time>
      </trkpt>
      <trkpt lat="47.00546" lon="-1.01936">
        <ele>105.2</ele>
        <time>2011-11-27T09:01:05Z</time>
      </trkpt>
      <trkpt lat="47.00544" lon="-1.01927">
        <ele>107.9</ele>
        <time>2011-11-27T09:01:37Z</time>
      </trkpt>
      <trkpt lat="47.00547" lon="-1.01918">
        <ele>103.2</ele>
        <time>2011-11-27T09:01:39Z</time>
      </trkpt>
      <trkpt lat="47.0055" lon="-1.01911">
        <ele>98.8</ele>
        <time>2011-11-27T09:01:41Z</time>
      </trkpt>
      <trkpt lat="47.00547" lon="-1.01905">
        <ele>103.9</ele>
        <time>2011-11-27T09:01:51Z</time>
      </trkpt>
      <trkpt lat="47.00546" lon="-1.01898">
        <ele>107.3</ele>
        <time>2011-11-27T09:01:56Z</time>
      </trkpt>
      <trkpt lat="47.00547" lon="-1.01891">
        <ele>107.7</ele>
        <time>2011-11-27T09:01:58Z</time>
      </trkpt>
      <trkpt lat="47.00546" lon="-1.0188">
        <ele>106.5</ele>
        <time>2011-11-27T09:02:01Z</time>
      </trkpt>
      <trkpt lat="47.00544" lon="-1.01872">
        <ele>106.5</ele>
        <time>2011-11-27T09:02:03Z</time>
      </trkpt>
      <trkpt lat="47.00542" lon="-1.01865">
        <ele>107</ele>
        <time>2011-11-27T09:02:05Z</time>
      </trkpt>
      <trkpt lat="47.00541" lon="-1.01851">
        <ele>108.7</ele>
        <time>2011-11-27T09:02:07Z</time>
      </trkpt>
      <trkpt lat="47.00539" lon="-1.01841">
        <ele>109.2</ele>
        <time>2011-11-27T09:02:09Z</time>
      </trkpt>
      <trkpt lat="47.00534" lon="-1.01838">
        <ele>110.1</ele>
        <time>2011-11-27T09:02:11Z</time>
      </trkpt>
      <trkpt lat="47.00529" lon="-1.01829">
        <ele>110.4</ele>
        <time>2011-11-27T09:02:13Z</time>
      </trkpt>
      <trkpt lat="47.00527" lon="-1.01823">
        <ele>108.7</ele>
        <time>2011-11-27T09:02:14Z</time>
      </trkpt>
      <trkpt lat="47.00524" lon="-1.01815">
        <ele>108.6</ele>
        <time>2011-11-27T09:02:16Z</time>
      </trkpt>
      <trkpt lat="47.00521" lon="-1.01806">
        <ele>108.6</ele>
        <time>2011-11-27T09:02:18Z</time>
      </trkpt>
      <trkpt lat="47.00518" lon="-1.01798">
        <ele>108.1</ele>
        <time>2011-11-27T09:02:20Z</time>
      </trkpt>
      <trkpt lat="47.00515" lon="-1.01788">
        <ele>108.7</ele>
        <time>2011-11-27T09:02:22Z</time>
      </trkpt>
      <trkpt lat="47.00509" lon="-1.01782">
        <ele>108.1</ele>
        <time>2011-11-27T09:02:24Z</time>
      </trkpt>
      <trkpt lat="47.00507" lon="-1.01772">
        <ele>109.9</ele>
        <time>2011-11-27T09:02:26Z</time>
      </trkpt>
      <trkpt lat="47.00505" lon="-1.01763">
        <ele>109.6</ele>
        <time>2011-11-27T09:02:27Z</time>
      </trkpt>
      <trkpt lat="47.005" lon="-1.01752">
        <ele>107.8</ele>
        <time>2011-11-27T09:02:29Z</time>
      </trkpt>
      <trkpt lat="47.00498" lon="-1.0174">
        <ele>108.7</ele>
        <time>2011-11-27T09:02:32Z</time>
      </trkpt>
      <trkpt lat="47.00494" lon="-1.01732">
        <ele>108.8</ele>
        <time>2011-11-27T09:02:34Z</time>
      </trkpt>
      <trkpt lat="47.00489" lon="-1.01722">
        <ele>109.7</ele>
        <time>2011-11-27T09:02:36Z</time>
      </trkpt>
      <trkpt lat="47.00484" lon="-1.01722">
        <ele>111.8</ele>
        <time>2011-11-27T09:02:37Z</time>
      </trkpt>
      <trkpt lat="47.0048" lon="-1.01719">
        <ele>112</ele>
        <time>2011-11-27T09:02:38Z</time>
      </trkpt>
      <trkpt lat="47.00474" lon="-1.01717">
        <ele>112.3</ele>
        <time>2011-11-27T09:02:40Z</time>
      </trkpt>
      <trkpt lat="47.0047" lon="-1.01711">
        <ele>113.7</ele>
        <time>2011-11-27T09:02:41Z</time>
      </trkpt>
      <trkpt lat="47.00468" lon="-1.01701">
        <ele>114.3</ele>
        <time>2011-11-27T09:02:43Z</time>
      </trkpt>
      <trkpt lat="47.00463" lon="-1.01693">
        <ele>114.8</ele>
        <time>2011-11-27T09:02:45Z</time>
      </trkpt>
      <trkpt lat="47.00457" lon="-1.01695">
        <ele>114.7</ele>
        <time>2011-11-27T09:02:47Z</time>
      </trkpt>
      <trkpt lat="47.0045" lon="-1.01691">
        <ele>112.9</ele>
        <time>2011-11-27T09:02:49Z</time>
      </trkpt>
      <trkpt lat="47.00447" lon="-1.01686">
        <ele>113.8</ele>
        <time>2011-11-27T09:02:50Z</time>
      </trkpt>
      <trkpt lat="47.00447" lon="-1.01679">
        <ele>113.2</ele>
        <time>2011-11-27T09:02:51Z</time>
      </trkpt>
      <trkpt lat="47.00443" lon="-1.01672">
        <ele>113.9</ele>
        <time>2011-11-27T09:02:53Z</time>
      </trkpt>
      <trkpt lat="47.00438" lon="-1.01666">
        <ele>116.2</ele>
        <time>2011-11-27T09:02:55Z</time>
      </trkpt>
      <trkpt lat="47.00432" lon="-1.01661">
        <ele>117.6</ele>
        <time>2011-11-27T09:02:57Z</time>
      </trkpt>
      <trkpt lat="47.0043" lon="-1.01651">
        <ele>117.4</ele>
        <time>2011-11-27T09:03:00Z</time>
      </trkpt>
      <trkpt lat="47.00425" lon="-1.01649">
        <ele>118.6</ele>
        <time>2011-11-27T09:03:02Z</time>
      </trkpt>
      <trkpt lat="47.00423" lon="-1.01642">
        <ele>117.3</ele>
        <time>2011-11-27T09:03:04Z</time>
      </trkpt>
      <trkpt lat="47.00419" lon="-1.01635">
        <ele>119.2</ele>
        <time>2011-11-27T09:03:07Z</time>
      </trkpt>
      <trkpt lat="47.00417" lon="-1.01626">
        <ele>119.6</ele>
        <time>2011-11-27T09:03:10Z</time>
      </trkpt>
      <trkpt lat="47.00417" lon="-1.01618">
        <ele>117.8</ele>
        <time>2011-11-27T09:03:16Z</time>
      </trkpt>
      <trkpt lat="47.00411" lon="-1.0161">
        <ele>115.9</ele>
        <time>2011-11-27T09:04:54Z</time>
      </trkpt>
      <trkpt lat="47.00406" lon="-1.01608">
        <ele>115</ele>
        <time>2011-11-27T09:04:56Z</time>
      </trkpt>
      <trkpt lat="47.0041" lon="-1.01611">
        <ele>117.3</ele>
        <time>2011-11-27T09:05:21Z</time>
      </trkpt>
      <trkpt lat="47.00403" lon="-1.01615">
        <ele>114.3</ele>
        <time>2011-11-27T09:05:37Z</time>
      </trkpt>
      <trkpt lat="47.00398" lon="-1.01619">
        <ele>110.8</ele>
        <time>2011-11-27T09:05:39Z</time>
      </trkpt>
      <trkpt lat="47.00392" lon="-1.01623">
        <ele>110.3</ele>
        <time>2011-11-27T09:05:41Z</time>
      </trkpt>
      <trkpt lat="47.00384" lon="-1.01623">
        <ele>110.2</ele>
        <time>2011-11-27T09:05:42Z</time>
      </trkpt>
      <trkpt lat="47.00374" lon="-1.0162">
        <ele>111.1</ele>
        <time>2011-11-27T09:05:43Z</time>
      </trkpt>
      <trkpt lat="47.00369" lon="-1.01619">
        <ele>111.7</ele>
        <time>2011-11-27T09:05:44Z</time>
      </trkpt>
      <trkpt lat="47.00362" lon="-1.01619">
        <ele>111.9</ele>
        <time>2011-11-27T09:05:45Z</time>
      </trkpt>
      <trkpt lat="47.00358" lon="-1.01621">
        <ele>110.9</ele>
        <time>2011-11-27T09:05:46Z</time>
      </trkpt>
      <trkpt lat="47.00351" lon="-1.01619">
        <ele>112.9</ele>
        <time>2011-11-27T09:05:49Z</time>
      </trkpt>
      <trkpt lat="47.00347" lon="-1.01616">
        <ele>112.7</ele>
        <time>2011-11-27T09:05:50Z</time>
      </trkpt>
      <trkpt lat="47.00344" lon="-1.01611">
        <ele>113.3</ele>
        <time>2011-11-27T09:05:51Z</time>
      </trkpt>
      <trkpt lat="47.0034" lon="-1.01599">
        <ele>113.9</ele>
        <time>2011-11-27T09:05:53Z</time>
      </trkpt>
      <trkpt lat="47.00338" lon="-1.0159">
        <ele>113.7</ele>
        <time>2011-11-27T09:05:54Z</time>
      </trkpt>
      <trkpt lat="47.00334" lon="-1.01581">
        <ele>113.8</ele>
        <time>2011-11-27T09:05:55Z</time>
      </trkpt>
      <trkpt lat="47.0033" lon="-1.01572">
        <ele>113.8</ele>
        <time>2011-11-27T09:05:56Z</time>
      </trkpt>
      <trkpt lat="47.00324" lon="-1.01579">
        <ele>113.6</ele>
        <time>2011-11-27T09:05:58Z</time>
      </trkpt>
      <trkpt lat="47.0032" lon="-1.01573">
        <ele>112.7</ele>
        <time>2011-11-27T09:06:00Z</time>
      </trkpt>
      <trkpt lat="47.00315" lon="-1.01573">
        <ele>112.9</ele>
        <time>2011-11-27T09:06:01Z</time>
      </trkpt>
      <trkpt lat="47.00309" lon="-1.01574">
        <ele>113.5</ele>
        <time>2011-11-27T09:06:02Z</time>
      </trkpt>
      <trkpt lat="47.00302" lon="-1.01572">
        <ele>115.9</ele>
        <time>2011-11-27T09:06:04Z</time>
      </trkpt>
      <trkpt lat="47.00292" lon="-1.0157">
        <ele>118.2</ele>
        <time>2011-11-27T09:06:06Z</time>
      </trkpt>
      <trkpt lat="47.00288" lon="-1.0156">
        <ele>119.2</ele>
        <time>2011-11-27T09:06:08Z</time>
      </trkpt>
      <trkpt lat="47.00286" lon="-1.01553">
        <ele>116.8</ele>
        <time>2011-11-27T09:06:10Z</time>
      </trkpt>
      <trkpt lat="47.00291" lon="-1.01537">
        <ele>108.9</ele>
        <time>2011-11-27T09:06:11Z</time>
      </trkpt>
      <trkpt lat="47.00289" lon="-1.01544">
        <ele>109.6</ele>
        <time>2011-11-27T09:06:22Z</time>
      </trkpt>
      <trkpt lat="47.00287" lon="-1.01551">
        <ele>111.2</ele>
        <time>2011-11-27T09:06:35Z</time>
      </trkpt>
      <trkpt lat="47.00271" lon="-1.01564">
        <ele>112.4</ele>
        <time>2011-11-27T09:06:51Z</time>
      </trkpt>
      <trkpt lat="47.00264" lon="-1.01566">
        <ele>111.3</ele>
        <time>2011-11-27T09:06:52Z</time>
      </trkpt>
      <trkpt lat="47.0026" lon="-1.01572">
        <ele>110.1</ele>
        <time>2011-11-27T09:06:56Z</time>
      </trkpt>
      <trkpt lat="47.00264" lon="-1.0157">
        <ele>107.3</ele>
        <time>2011-11-27T09:06:57Z</time>
      </trkpt>
      <trkpt lat="47.00261" lon="-1.01574">
        <ele>107.7</ele>
        <time>2011-11-27T09:07:03Z</time>
      </trkpt>
      <trkpt lat="47.00264" lon="-1.01579">
        <ele>112</ele>
        <time>2011-11-27T09:07:14Z</time>
      </trkpt>
      <trkpt lat="47.0027" lon="-1.01585">
        <ele>112.8</ele>
        <time>2011-11-27T09:07:18Z</time>
      </trkpt>
      <trkpt lat="47.00273" lon="-1.01596">
        <ele>113.3</ele>
        <time>2011-11-27T09:07:19Z</time>
      </trkpt>
      <trkpt lat="47.00279" lon="-1.01604">
        <ele>114.3</ele>
        <time>2011-11-27T09:07:21Z</time>
      </trkpt>
      <trkpt lat="47.00282" lon="-1.01616">
        <ele>114.6</ele>
        <time>2011-11-27T09:07:23Z</time>
      </trkpt>
      <trkpt lat="47.00286" lon="-1.01622">
        <ele>112.7</ele>
        <time>2011-11-27T09:07:24Z</time>
      </trkpt>
      <trkpt lat="47.00289" lon="-1.01627">
        <ele>112.8</ele>
        <time>2011-11-27T09:07:25Z</time>
      </trkpt>
      <trkpt lat="47.00294" lon="-1.01634">
        <ele>113.3</ele>
        <time>2011-11-27T09:07:26Z</time>
      </trkpt>
      <trkpt lat="47.00298" lon="-1.0164">
        <ele>114.3</ele>
        <time>2011-11-27T09:07:28Z</time>
      </trkpt>
      <trkpt lat="47.00306" lon="-1.01643">
        <ele>111.8</ele>
        <time>2011-11-27T09:07:30Z</time>
      </trkpt>
      <trkpt lat="47.00311" lon="-1.01647">
        <ele>112.7</ele>
        <time>2011-11-27T09:07:31Z</time>
      </trkpt>
      <trkpt lat="47.00319" lon="-1.01659">
        <ele>113.1</ele>
        <time>2011-11-27T09:07:33Z</time>
      </trkpt>
      <trkpt lat="47.00324" lon="-1.01662">
        <ele>113.2</ele>
        <time>2011-11-27T09:07:34Z</time>
      </trkpt>
      <trkpt lat="47.00328" lon="-1.01667">
        <ele>114.9</ele>
        <time>2011-11-27T09:07:35Z</time>
      </trkpt>
      <trkpt lat="47.00335" lon="-1.01673">
        <ele>115.6</ele>
        <time>2011-11-27T09:07:36Z</time>
      </trkpt>
      <trkpt lat="47.0034" lon="-1.01676">
        <ele>114.7</ele>
        <time>2011-11-27T09:07:37Z</time>
      </trkpt>
      <trkpt lat="47.00344" lon="-1.01682">
        <ele>114.7</ele>
        <time>2011-11-27T09:07:38Z</time>
      </trkpt>
      <trkpt lat="47.0035" lon="-1.01686">
        <ele>114.4</ele>
        <time>2011-11-27T09:07:39Z</time>
      </trkpt>
      <trkpt lat="47.00354" lon="-1.01687">
        <ele>114.6</ele>
        <time>2011-11-27T09:07:40Z</time>
      </trkpt>
      <trkpt lat="47.0036" lon="-1.01694">
        <ele>114.1</ele>
        <time>2011-11-27T09:07:41Z</time>
      </trkpt>
      <trkpt lat="47.00365" lon="-1.01699">
        <ele>113.8</ele>
        <time>2011-11-27T09:07:42Z</time>
      </trkpt>
      <trkpt lat="47.0037" lon="-1.01701">
        <ele>113.1</ele>
        <time>2011-11-27T09:07:43Z</time>
      </trkpt>
      <trkpt lat="47.00375" lon="-1.01705">
        <ele>113.8</ele>
        <time>2011-11-27T09:07:44Z</time>
      </trkpt>
      <trkpt lat="47.00381" lon="-1.0171">
        <ele>114.2</ele>
        <time>2011-11-27T09:07:46Z</time>
      </trkpt>
      <trkpt lat="47.00388" lon="-1.0172">
        <ele>114.5</ele>
        <time>2011-11-27T09:07:49Z</time>
      </trkpt>
      <trkpt lat="47.00397" lon="-1.01728">
        <ele>112</ele>
        <time>2011-11-27T09:07:51Z</time>
      </trkpt>
      <trkpt lat="47.00404" lon="-1.0173">
        <ele>115.3</ele>
        <time>2011-11-27T09:07:54Z</time>
      </trkpt>
      <trkpt lat="47.00411" lon="-1.01736">
        <ele>114.2</ele>
        <time>2011-11-27T09:07:56Z</time>
      </trkpt>
      <trkpt lat="47.00416" lon="-1.01741">
        <ele>114</ele>
        <time>2011-11-27T09:07:58Z</time>
      </trkpt>
      <trkpt lat="47.0042" lon="-1.01748">
        <ele>115.9</ele>
        <time>2011-11-27T09:08:00Z</time>
      </trkpt>
      <trkpt lat="47.00426" lon="-1.01752">
        <ele>116.4</ele>
        <time>2011-11-27T09:08:02Z</time>
      </trkpt>
      <trkpt lat="47.00432" lon="-1.01755">
        <ele>115.4</ele>
        <time>2011-11-27T09:08:03Z</time>
      </trkpt>
      <trkpt lat="47.00439" lon="-1.01765">
        <ele>114.6</ele>
        <time>2011-11-27T09:08:05Z</time>
      </trkpt>
      <trkpt lat="47.00443" lon="-1.01766">
        <ele>114</ele>
        <time>2011-11-27T09:08:06Z</time>
      </trkpt>
      <trkpt lat="47.00447" lon="-1.01769">
        <ele>114</ele>
        <time>2011-11-27T09:08:07Z</time>
      </trkpt>
      <trkpt lat="47.00452" lon="-1.01776">
        <ele>113.6</ele>
        <time>2011-11-27T09:08:08Z</time>
      </trkpt>
      <trkpt lat="47.00457" lon="-1.01781">
        <ele>114.1</ele>
        <time>2011-11-27T09:08:09Z</time>
      </trkpt>
      <trkpt lat="47.00462" lon="-1.01786">
        <ele>114.9</ele>
        <time>2011-11-27T09:08:10Z</time>
      </trkpt>
      <trkpt lat="47.00466" lon="-1.01791">
        <ele>115.1</ele>
        <time>2011-11-27T09:08:11Z</time>
      </trkpt>
      <trkpt lat="47.00471" lon="-1.01794">
        <ele>115</ele>
        <time>2011-11-27T09:08:12Z</time>
      </trkpt>
      <trkpt lat="47.00474" lon="-1.01802">
        <ele>115.7</ele>
        <time>2011-11-27T09:08:13Z</time>
      </trkpt>
      <trkpt lat="47.00479" lon="-1.01809">
        <ele>115.5</ele>
        <time>2011-11-27T09:08:14Z</time>
      </trkpt>
      <trkpt lat="47.00483" lon="-1.01814">
        <ele>116.6</ele>
        <time>2011-11-27T09:08:15Z</time>
      </trkpt>
      <trkpt lat="47.00483" lon="-1.01822">
        <ele>117.3</ele>
        <time>2011-11-27T09:08:16Z</time>
      </trkpt>
      <trkpt lat="47.00486" lon="-1.01828">
        <ele>117.9</ele>
        <time>2011-11-27T09:08:17Z</time>
      </trkpt>
      <trkpt lat="47.0049" lon="-1.01832">
        <ele>119.1</ele>
        <time>2011-11-27T09:08:18Z</time>
      </trkpt>
      <trkpt lat="47.00493" lon="-1.01836">
        <ele>119.3</ele>
        <time>2011-11-27T09:08:19Z</time>
      </trkpt>
      <trkpt lat="47.00497" lon="-1.01848">
        <ele>118.3</ele>
        <time>2011-11-27T09:08:20Z</time>
      </trkpt>
      <trkpt lat="47.00495" lon="-1.01859">
        <ele>116.7</ele>
        <time>2011-11-27T09:08:22Z</time>
      </trkpt>
      <trkpt lat="47.00497" lon="-1.01867">
        <ele>115.3</ele>
        <time>2011-11-27T09:08:23Z</time>
      </trkpt>
      <trkpt lat="47.00499" lon="-1.01878">
        <ele>115</ele>
        <time>2011-11-27T09:08:24Z</time>
      </trkpt>
      <trkpt lat="47.00502" lon="-1.01883">
        <ele>114.1</ele>
        <time>2011-11-27T09:08:25Z</time>
      </trkpt>
      <trkpt lat="47.00507" lon="-1.01895">
        <ele>114.5</ele>
        <time>2011-11-27T09:08:27Z</time>
      </trkpt>
      <trkpt lat="47.00508" lon="-1.01903">
        <ele>114.5</ele>
        <time>2011-11-27T09:08:29Z</time>
      </trkpt>
      <trkpt lat="47.00508" lon="-1.0191">
        <ele>113.9</ele>
        <time>2011-11-27T09:08:30Z</time>
      </trkpt>
      <trkpt lat="47.00506" lon="-1.01923">
        <ele>115.7</ele>
        <time>2011-11-27T09:08:31Z</time>
      </trkpt>
      <trkpt lat="47.00505" lon="-1.0193">
        <ele>115.8</ele>
        <time>2011-11-27T09:08:32Z</time>
      </trkpt>
      <trkpt lat="47.00509" lon="-1.01939">
        <ele>115.2</ele>
        <time>2011-11-27T09:08:33Z</time>
      </trkpt>
      <trkpt lat="47.00508" lon="-1.01948">
        <ele>115.5</ele>
        <time>2011-11-27T09:08:34Z</time>
      </trkpt>
      <trkpt lat="47.00512" lon="-1.01957">
        <ele>114.2</ele>
        <time>2011-11-27T09:08:35Z</time>
      </trkpt>
      <trkpt lat="47.00512" lon="-1.01972">
        <ele>113.3</ele>
        <time>2011-11-27T09:08:37Z</time>
      </trkpt>
      <trkpt lat="47.00511" lon="-1.01979">
        <ele>113.8</ele>
        <time>2011-11-27T09:08:38Z</time>
      </trkpt>
      <trkpt lat="47.00508" lon="-1.0199">
        <ele>113.9</ele>
        <time>2011-11-27T09:08:40Z</time>
      </trkpt>
      <trkpt lat="47.00505" lon="-1.01998">
        <ele>113.3</ele>
        <time>2011-11-27T09:08:41Z</time>
      </trkpt>
      <trkpt lat="47.00506" lon="-1.02004">
        <ele>112.8</ele>
        <time>2011-11-27T09:08:42Z</time>
      </trkpt>
      <trkpt lat="47.00503" lon="-1.02013">
        <ele>110.9</ele>
        <time>2011-11-27T09:08:43Z</time>
      </trkpt>
      <trkpt lat="47.00504" lon="-1.02021">
        <ele>110.7</ele>
        <time>2011-11-27T09:08:44Z</time>
      </trkpt>
      <trkpt lat="47.00502" lon="-1.02029">
        <ele>110</ele>
        <time>2011-11-27T09:08:45Z</time>
      </trkpt>
      <trkpt lat="47.00502" lon="-1.02039">
        <ele>110.9</ele>
        <time>2011-11-27T09:08:46Z</time>
      </trkpt>
      <trkpt lat="47.00501" lon="-1.02047">
        <ele>111.6</ele>
        <time>2011-11-27T09:08:47Z</time>
      </trkpt>
      <trkpt lat="47.00496" lon="-1.02059">
        <ele>111.4</ele>
        <time>2011-11-27T09:08:49Z</time>
      </trkpt>
      <trkpt lat="47.00495" lon="-1.02069">
        <ele>111.9</ele>
        <time>2011-11-27T09:08:51Z</time>
      </trkpt>
      <trkpt lat="47.00496" lon="-1.02084">
        <ele>113.4</ele>
        <time>2011-11-27T09:08:53Z</time>
      </trkpt>
      <trkpt lat="47.0049" lon="-1.02092">
        <ele>112.4</ele>
        <time>2011-11-27T09:08:55Z</time>
      </trkpt>
      <trkpt lat="47.00488" lon="-1.021">
        <ele>112.2</ele>
        <time>2011-11-27T09:08:57Z</time>
      </trkpt>
      <trkpt lat="47.00488" lon="-1.02111">
        <ele>113.1</ele>
        <time>2011-11-27T09:08:59Z</time>
      </trkpt>
      <trkpt lat="47.00486" lon="-1.02117">
        <ele>114.2</ele>
        <time>2011-11-27T09:09:00Z</time>
      </trkpt>
      <trkpt lat="47.00484" lon="-1.02131">
        <ele>113.2</ele>
        <time>2011-11-27T09:09:02Z</time>
      </trkpt>
      <trkpt lat="47.00484" lon="-1.02142">
        <ele>112.8</ele>
        <time>2011-11-27T09:09:03Z</time>
      </trkpt>
      <trkpt lat="47.00482" lon="-1.02153">
        <ele>113</ele>
        <time>2011-11-27T09:09:05Z</time>
      </trkpt>
      <trkpt lat="47.00485" lon="-1.02166">
        <ele>112.5</ele>
        <time>2011-11-27T09:09:07Z</time>
      </trkpt>
      <trkpt lat="47.00478" lon="-1.02176">
        <ele>112.5</ele>
        <time>2011-11-27T09:09:09Z</time>
      </trkpt>
      <trkpt lat="47.00473" lon="-1.02183">
        <ele>110.4</ele>
        <time>2011-11-27T09:09:10Z</time>
      </trkpt>
      <trkpt lat="47.00468" lon="-1.02191">
        <ele>108.6</ele>
        <time>2011-11-27T09:09:12Z</time>
      </trkpt>
      <trkpt lat="47.00463" lon="-1.02198">
        <ele>106.1</ele>
        <time>2011-11-27T09:09:15Z</time>
      </trkpt>
      <trkpt lat="47.00457" lon="-1.02207">
        <ele>106.2</ele>
        <time>2011-11-27T09:09:17Z</time>
      </trkpt>
      <trkpt lat="47.00451" lon="-1.02216">
        <ele>106.1</ele>
        <time>2011-11-27T09:09:19Z</time>
      </trkpt>
      <trkpt lat="47.00442" lon="-1.02224">
        <ele>104.6</ele>
        <time>2011-11-27T09:09:21Z</time>
      </trkpt>
      <trkpt lat="47.00434" lon="-1.02226">
        <ele>103.7</ele>
        <time>2011-11-27T09:09:22Z</time>
      </trkpt>
      <trkpt lat="47.00429" lon="-1.02234">
        <ele>103.6</ele>
        <time>2011-11-27T09:09:23Z</time>
      </trkpt>
      <trkpt lat="47.00428" lon="-1.02241">
        <ele>101.9</ele>
        <time>2011-11-27T09:09:24Z</time>
      </trkpt>
      <trkpt lat="47.00425" lon="-1.02248">
        <ele>101.7</ele>
        <time>2011-11-27T09:09:25Z</time>
      </trkpt>
      <trkpt lat="47.00421" lon="-1.02256">
        <ele>101.5</ele>
        <time>2011-11-27T09:09:28Z</time>
      </trkpt>
      <trkpt lat="47.0042" lon="-1.02264">
        <ele>101.5</ele>
        <time>2011-11-27T09:09:30Z</time>
      </trkpt>
      <trkpt lat="47.00414" lon="-1.02275">
        <ele>104.7</ele>
        <time>2011-11-27T09:09:31Z</time>
      </trkpt>
      <trkpt lat="47.00404" lon="-1.0228">
        <ele>107.5</ele>
        <time>2011-11-27T09:09:32Z</time>
      </trkpt>
      <trkpt lat="47.00396" lon="-1.02286">
        <ele>107.5</ele>
        <time>2011-11-27T09:09:35Z</time>
      </trkpt>
      <trkpt lat="47.00403" lon="-1.02295">
        <ele>110.4</ele>
        <time>2011-11-27T09:09:41Z</time>
      </trkpt>
      <trkpt lat="47.00408" lon="-1.023">
        <ele>109.4</ele>
        <time>2011-11-27T09:09:43Z</time>
      </trkpt>
      <trkpt lat="47.00407" lon="-1.0231">
        <ele>111.1</ele>
        <time>2011-11-27T09:09:47Z</time>
      </trkpt>
      <trkpt lat="47.00408" lon="-1.02318">
        <ele>113.7</ele>
        <time>2011-11-27T09:09:50Z</time>
      </trkpt>
      <trkpt lat="47.00406" lon="-1.02324">
        <ele>113.7</ele>
        <time>2011-11-27T09:09:52Z</time>
      </trkpt>
      <trkpt lat="47.00405" lon="-1.02334">
        <ele>115.7</ele>
        <time>2011-11-27T09:09:55Z</time>
      </trkpt>
      <trkpt lat="47.00405" lon="-1.02343">
        <ele>114.7</ele>
        <time>2011-11-27T09:09:57Z</time>
      </trkpt>
      <trkpt lat="47.00398" lon="-1.02347">
        <ele>116</ele>
        <time>2011-11-27T09:09:59Z</time>
      </trkpt>
      <trkpt lat="47.00393" lon="-1.02348">
        <ele>117.1</ele>
        <time>2011-11-27T09:10:00Z</time>
      </trkpt>
      <trkpt lat="47.00396" lon="-1.02361">
        <ele>117.7</ele>
        <time>2011-11-27T09:10:03Z</time>
      </trkpt>
      <trkpt lat="47.004" lon="-1.02367">
        <ele>118.2</ele>
        <time>2011-11-27T09:10:04Z</time>
      </trkpt>
      <trkpt lat="47.00406" lon="-1.02369">
        <ele>118.1</ele>
        <time>2011-11-27T09:10:05Z</time>
      </trkpt>
      <trkpt lat="47.00409" lon="-1.02377">
        <ele>118.5</ele>
        <time>2011-11-27T09:10:08Z</time>
      </trkpt>
      <trkpt lat="47.00408" lon="-1.02384">
        <ele>116.9</ele>
        <time>2011-11-27T09:10:11Z</time>
      </trkpt>
      <trkpt lat="47.00412" lon="-1.02392">
        <ele>117.7</ele>
        <time>2011-11-27T09:10:19Z</time>
      </trkpt>
      <trkpt lat="47.00409" lon="-1.024">
        <ele>119.7</ele>
        <time>2011-11-27T09:10:21Z</time>
      </trkpt>
      <trkpt lat="47.00394" lon="-1.02411">
        <ele>118</ele>
        <time>2011-11-27T09:10:25Z</time>
      </trkpt>
      <trkpt lat="47.00394" lon="-1.02423">
        <ele>118.4</ele>
        <time>2011-11-27T09:10:26Z</time>
      </trkpt>
      <trkpt lat="47.0039" lon="-1.02433">
        <ele>115.2</ele>
        <time>2011-11-27T09:10:27Z</time>
      </trkpt>
      <trkpt lat="47.00385" lon="-1.02432">
        <ele>116.2</ele>
        <time>2011-11-27T09:10:28Z</time>
      </trkpt>
      <trkpt lat="47.0038" lon="-1.0243">
        <ele>117.1</ele>
        <time>2011-11-27T09:10:30Z</time>
      </trkpt>
      <trkpt lat="47.00376" lon="-1.0243">
        <ele>120.8</ele>
        <time>2011-11-27T09:10:53Z</time>
      </trkpt>
      <trkpt lat="47.00371" lon="-1.02433">
        <ele>120.5</ele>
        <time>2011-11-27T09:10:54Z</time>
      </trkpt>
      <trkpt lat="47.00377" lon="-1.02437">
        <ele>123.4</ele>
        <time>2011-11-27T09:10:58Z</time>
      </trkpt>
      <trkpt lat="47.00389" lon="-1.02437">
        <ele>129.5</ele>
        <time>2011-11-27T09:11:00Z</time>
      </trkpt>
      <trkpt lat="47.00388" lon="-1.02446">
        <ele>125.1</ele>
        <time>2011-11-27T09:11:02Z</time>
      </trkpt>
      <trkpt lat="47.0039" lon="-1.02452">
        <ele>121.2</ele>
        <time>2011-11-27T09:11:08Z</time>
      </trkpt>
      <trkpt lat="47.00394" lon="-1.02452">
        <ele>122.9</ele>
        <time>2011-11-27T09:11:13Z</time>
      </trkpt>
      <trkpt lat="47.00387" lon="-1.02451">
        <ele>120.6</ele>
        <time>2011-11-27T09:11:42Z</time>
      </trkpt>
      <trkpt lat="47.00381" lon="-1.02449">
        <ele>121.9</ele>
        <time>2011-11-27T09:11:44Z</time>
      </trkpt>
      <trkpt lat="47.00375" lon="-1.02447">
        <ele>121.5</ele>
        <time>2011-11-27T09:11:45Z</time>
      </trkpt>
      <trkpt lat="47.0037" lon="-1.02444">
        <ele>122.1</ele>
        <time>2011-11-27T09:11:47Z</time>
      </trkpt>
      <trkpt lat="47.00362" lon="-1.02442">
        <ele>120.9</ele>
        <time>2011-11-27T09:11:49Z</time>
      </trkpt>
      <trkpt lat="47.00368" lon="-1.02432">
        <ele>121.6</ele>
        <time>2011-11-27T09:11:52Z</time>
      </trkpt>
      <trkpt lat="47.00361" lon="-1.02435">
        <ele>119.2</ele>
        <time>2011-11-27T09:12:01Z</time>
      </trkpt>
      <trkpt lat="47.00356" lon="-1.02433">
        <ele>120.3</ele>
        <time>2011-11-27T09:12:04Z</time>
      </trkpt>
      <trkpt lat="47.00351" lon="-1.02432">
        <ele>120.9</ele>
        <time>2011-11-27T09:12:07Z</time>
      </trkpt>
      <trkpt lat="47.00345" lon="-1.02433">
        <ele>121.2</ele>
        <time>2011-11-27T09:12:09Z</time>
      </trkpt>
      <trkpt lat="47.00339" lon="-1.02437">
        <ele>124.7</ele>
        <time>2011-11-27T09:12:13Z</time>
      </trkpt>
      <trkpt lat="47.00335" lon="-1.0244">
        <ele>126</ele>
        <time>2011-11-27T09:12:16Z</time>
      </trkpt>
      <trkpt lat="47.00329" lon="-1.02444">
        <ele>129.5</ele>
        <time>2011-11-27T09:12:27Z</time>
      </trkpt>
      <trkpt lat="47.00322" lon="-1.0245">
        <ele>133.3</ele>
        <time>2011-11-27T09:12:31Z</time>
      </trkpt>
      <trkpt lat="47.00318" lon="-1.02456">
        <ele>133.5</ele>
        <time>2011-11-27T09:12:35Z</time>
      </trkpt>
      <trkpt lat="47.00312" lon="-1.02458">
        <ele>133.6</ele>
        <time>2011-11-27T09:12:37Z</time>
      </trkpt>
      <trkpt lat="47.00307" lon="-1.02457">
        <ele>134.8</ele>
        <time>2011-11-27T09:12:38Z</time>
      </trkpt>
      <trkpt lat="47.00292" lon="-1.02453">
        <ele>132</ele>
        <time>2011-11-27T09:12:39Z</time>
      </trkpt>
      <trkpt lat="47.00288" lon="-1.02448">
        <ele>131.7</ele>
        <time>2011-11-27T09:12:42Z</time>
      </trkpt>
      <trkpt lat="47.00293" lon="-1.02444">
        <ele>134.8</ele>
        <time>2011-11-27T09:12:57Z</time>
      </trkpt>
      <trkpt lat="47.00289" lon="-1.0245">
        <ele>134.4</ele>
        <time>2011-11-27T09:13:00Z</time>
      </trkpt>
      <trkpt lat="47.00282" lon="-1.02455">
        <ele>135.1</ele>
        <time>2011-11-27T09:13:02Z</time>
      </trkpt>
      <trkpt lat="47.00278" lon="-1.02462">
        <ele>135.9</ele>
        <time>2011-11-27T09:13:05Z</time>
      </trkpt>
      <trkpt lat="47.00272" lon="-1.02465">
        <ele>137.3</ele>
        <time>2011-11-27T09:13:09Z</time>
      </trkpt>
      <trkpt lat="47.00266" lon="-1.02466">
        <ele>135.4</ele>
        <time>2011-11-27T09:13:12Z</time>
      </trkpt>
      <trkpt lat="47.00262" lon="-1.02468">
        <ele>136.4</ele>
        <time>2011-11-27T09:13:16Z</time>
      </trkpt>
      <trkpt lat="47.00257" lon="-1.02467">
        <ele>136.8</ele>
        <time>2011-11-27T09:13:18Z</time>
      </trkpt>
      <trkpt lat="47.0025" lon="-1.02468">
        <ele>137.3</ele>
        <time>2011-11-27T09:13:21Z</time>
      </trkpt>
      <trkpt lat="47.00242" lon="-1.02466">
        <ele>146.5</ele>
        <time>2011-11-27T09:14:42Z</time>
      </trkpt>
      <trkpt lat="47.00241" lon="-1.02473">
        <ele>142.7</ele>
        <time>2011-11-27T09:14:55Z</time>
      </trkpt>
      <trkpt lat="47.00238" lon="-1.02477">
        <ele>142.5</ele>
        <time>2011-11-27T09:14:58Z</time>
      </trkpt>
      <trkpt lat="47.00233" lon="-1.02478">
        <ele>142.4</ele>
        <time>2011-11-27T09:15:01Z</time>
      </trkpt>
      <trkpt lat="47.00226" lon="-1.0248">
        <ele>141.2</ele>
        <time>2011-11-27T09:15:03Z</time>
      </trkpt>
      <trkpt lat="47.00217" lon="-1.02482">
        <ele>142.8</ele>
        <time>2011-11-27T09:15:05Z</time>
      </trkpt>
      <trkpt lat="47.0021" lon="-1.02485">
        <ele>142.6</ele>
        <time>2011-11-27T09:15:08Z</time>
      </trkpt>
      <trkpt lat="47.002" lon="-1.02486">
        <ele>143.8</ele>
        <time>2011-11-27T09:15:10Z</time>
      </trkpt>
      <trkpt lat="47.00194" lon="-1.02493">
        <ele>146.1</ele>
        <time>2011-11-27T09:15:19Z</time>
      </trkpt>
      <trkpt lat="47.00186" lon="-1.025">
        <ele>147.8</ele>
        <time>2011-11-27T09:15:23Z</time>
      </trkpt>
      <trkpt lat="47.00182" lon="-1.02503">
        <ele>146.3</ele>
        <time>2011-11-27T09:15:27Z</time>
      </trkpt>
      <trkpt lat="47.00172" lon="-1.02505">
        <ele>145.8</ele>
        <time>2011-11-27T09:15:29Z</time>
      </trkpt>
      <trkpt lat="47.00165" lon="-1.02506">
        <ele>146.3</ele>
        <time>2011-11-27T09:15:31Z</time>
      </trkpt>
      <trkpt lat="47.0016" lon="-1.02511">
        <ele>147.8</ele>
        <time>2011-11-27T09:15:33Z</time>
      </trkpt>
      <trkpt lat="47.00155" lon="-1.02512">
        <ele>149.8</ele>
        <time>2011-11-27T09:15:37Z</time>
      </trkpt>
      <trkpt lat="47.00148" lon="-1.02516">
        <ele>150.7</ele>
        <time>2011-11-27T09:15:40Z</time>
      </trkpt>
      <trkpt lat="47.00141" lon="-1.02514">
        <ele>151</ele>
        <time>2011-11-27T09:15:42Z</time>
      </trkpt>
      <trkpt lat="47.00137" lon="-1.02508">
        <ele>149.6</ele>
        <time>2011-11-27T09:15:44Z</time>
      </trkpt>
      <trkpt lat="47.00131" lon="-1.02506">
        <ele>149.5</ele>
        <time>2011-11-27T09:15:46Z</time>
      </trkpt>
      <trkpt lat="47.00123" lon="-1.02511">
        <ele>151.2</ele>
        <time>2011-11-27T09:15:48Z</time>
      </trkpt>
      <trkpt lat="47.00117" lon="-1.02512">
        <ele>151.8</ele>
        <time>2011-11-27T09:15:51Z</time>
      </trkpt>
      <trkpt lat="47.00111" lon="-1.02512">
        <ele>152</ele>
        <time>2011-11-27T09:15:53Z</time>
      </trkpt>
      <trkpt lat="47.00106" lon="-1.0251">
        <ele>152.8</ele>
        <time>2011-11-27T09:15:54Z</time>
      </trkpt>
      <trkpt lat="47.001" lon="-1.02509">
        <ele>152.6</ele>
        <time>2011-11-27T09:15:56Z</time>
      </trkpt>
      <trkpt lat="47.0009" lon="-1.02504">
        <ele>154.6</ele>
        <time>2011-11-27T09:16:01Z</time>
      </trkpt>
      <trkpt lat="47.00083" lon="-1.02502">
        <ele>154.3</ele>
        <time>2011-11-27T09:16:04Z</time>
      </trkpt>
      <trkpt lat="47.00072" lon="-1.02502">
        <ele>157.1</ele>
        <time>2011-11-27T09:16:07Z</time>
      </trkpt>
      <trkpt lat="47.00066" lon="-1.02504">
        <ele>155.7</ele>
        <time>2011-11-27T09:16:11Z</time>
      </trkpt>
      <trkpt lat="47.00059" lon="-1.02508">
        <ele>155.8</ele>
        <time>2011-11-27T09:16:13Z</time>
      </trkpt>
      <trkpt lat="47.00052" lon="-1.02506">
        <ele>153.8</ele>
        <time>2011-11-27T09:16:15Z</time>
      </trkpt>
      <trkpt lat="47.00047" lon="-1.02509">
        <ele>154.5</ele>
        <time>2011-11-27T09:16:17Z</time>
      </trkpt>
      <trkpt lat="47.00043" lon="-1.0251">
        <ele>154.8</ele>
        <time>2011-11-27T09:16:20Z</time>
      </trkpt>
      <trkpt lat="47.00036" lon="-1.02512">
        <ele>155.2</ele>
        <time>2011-11-27T09:16:23Z</time>
      </trkpt>
      <trkpt lat="47.00031" lon="-1.02511">
        <ele>155.3</ele>
        <time>2011-11-27T09:16:26Z</time>
      </trkpt>
      <trkpt lat="47.00025" lon="-1.02513">
        <ele>155.9</ele>
        <time>2011-11-27T09:16:29Z</time>
      </trkpt>
      <trkpt lat="47.00018" lon="-1.02514">
        <ele>157.9</ele>
        <time>2011-11-27T09:16:34Z</time>
      </trkpt>
      <trkpt lat="47.00028" lon="-1.02515">
        <ele>154</ele>
        <time>2011-11-27T09:16:38Z</time>
      </trkpt>
      <trkpt lat="47.00023" lon="-1.02513">
        <ele>154.6</ele>
        <time>2011-11-27T09:17:42Z</time>
      </trkpt>
      <trkpt lat="47.00018" lon="-1.02513">
        <ele>153</ele>
        <time>2011-11-27T09:18:14Z</time>
      </trkpt>
      <trkpt lat="47.00011" lon="-1.02518">
        <ele>151.2</ele>
        <time>2011-11-27T09:18:16Z</time>
      </trkpt>
      <trkpt lat="47.00004" lon="-1.02529">
        <ele>153</ele>
        <time>2011-11-27T09:18:21Z</time>
      </trkpt>
      <trkpt lat="46.99996" lon="-1.02523">
        <ele>151.4</ele>
        <time>2011-11-27T09:18:24Z</time>
      </trkpt>
      <trkpt lat="46.9999" lon="-1.02523">
        <ele>152.4</ele>
        <time>2011-11-27T09:18:25Z</time>
      </trkpt>
      <trkpt lat="46.99983" lon="-1.02523">
        <ele>152.4</ele>
        <time>2011-11-27T09:18:26Z</time>
      </trkpt>
      <trkpt lat="46.99979" lon="-1.02526">
        <ele>154.1</ele>
        <time>2011-11-27T09:18:28Z</time>
      </trkpt>
      <trkpt lat="46.99976" lon="-1.02532">
        <ele>154</ele>
        <time>2011-11-27T09:18:31Z</time>
      </trkpt>
      <trkpt lat="46.9997" lon="-1.02536">
        <ele>154.6</ele>
        <time>2011-11-27T09:18:33Z</time>
      </trkpt>
      <trkpt lat="46.99965" lon="-1.02539">
        <ele>154.8</ele>
        <time>2011-11-27T09:18:35Z</time>
      </trkpt>
      <trkpt lat="46.9996" lon="-1.0254">
        <ele>156.3</ele>
        <time>2011-11-27T09:18:38Z</time>
      </trkpt>
      <trkpt lat="46.99952" lon="-1.02539">
        <ele>157.3</ele>
        <time>2011-11-27T09:18:40Z</time>
      </trkpt>
      <trkpt lat="46.99948" lon="-1.02541">
        <ele>158.4</ele>
        <time>2011-11-27T09:18:41Z</time>
      </trkpt>
      <trkpt lat="46.99943" lon="-1.02546">
        <ele>157.7</ele>
        <time>2011-11-27T09:18:43Z</time>
      </trkpt>
      <trkpt lat="46.99935" lon="-1.02549">
        <ele>156.1</ele>
        <time>2011-11-27T09:18:45Z</time>
      </trkpt>
      <trkpt lat="46.9993" lon="-1.02554">
        <ele>154.6</ele>
        <time>2011-11-27T09:18:48Z</time>
      </trkpt>
      <trkpt lat="46.99926" lon="-1.02557">
        <ele>154.7</ele>
        <time>2011-11-27T09:18:49Z</time>
      </trkpt>
      <trkpt lat="46.9992" lon="-1.02559">
        <ele>154.8</ele>
        <time>2011-11-27T09:18:50Z</time>
      </trkpt>
      <trkpt lat="46.99911" lon="-1.02563">
        <ele>155.2</ele>
        <time>2011-11-27T09:18:52Z</time>
      </trkpt>
      <trkpt lat="46.9991" lon="-1.0257">
        <ele>156.5</ele>
        <time>2011-11-27T09:18:54Z</time>
      </trkpt>
      <trkpt lat="46.99908" lon="-1.02577">
        <ele>155.8</ele>
        <time>2011-11-27T09:18:56Z</time>
      </trkpt>
      <trkpt lat="46.99905" lon="-1.02582">
        <ele>155.9</ele>
        <time>2011-11-27T09:18:59Z</time>
      </trkpt>
      <trkpt lat="46.99901" lon="-1.02588">
        <ele>156.5</ele>
        <time>2011-11-27T09:19:01Z</time>
      </trkpt>
      <trkpt lat="46.99895" lon="-1.02591">
        <ele>156.6</ele>
        <time>2011-11-27T09:19:03Z</time>
      </trkpt>
      <trkpt lat="46.99888" lon="-1.02593">
        <ele>156</ele>
        <time>2011-11-27T09:19:05Z</time>
      </trkpt>
      <trkpt lat="46.9988" lon="-1.02593">
        <ele>155.9</ele>
        <time>2011-11-27T09:19:06Z</time>
      </trkpt>
      <trkpt lat="46.99874" lon="-1.02591">
        <ele>156.6</ele>
        <time>2011-11-27T09:19:08Z</time>
      </trkpt>
      <trkpt lat="46.99869" lon="-1.02585">
        <ele>157.2</ele>
        <time>2011-11-27T09:19:10Z</time>
      </trkpt>
      <trkpt lat="46.99863" lon="-1.02581">
        <ele>157.3</ele>
        <time>2011-11-27T09:19:12Z</time>
      </trkpt>
      <trkpt lat="46.99857" lon="-1.02579">
        <ele>158</ele>
        <time>2011-11-27T09:19:14Z</time>
      </trkpt>
      <trkpt lat="46.99852" lon="-1.02578">
        <ele>158.7</ele>
        <time>2011-11-27T09:19:16Z</time>
      </trkpt>
      <trkpt lat="46.99844" lon="-1.02581">
        <ele>159.9</ele>
        <time>2011-11-27T09:19:19Z</time>
      </trkpt>
      <trkpt lat="46.9985" lon="-1.02584">
        <ele>159.3</ele>
        <time>2011-11-27T09:19:20Z</time>
      </trkpt>
      <trkpt lat="46.99844" lon="-1.02586">
        <ele>160.5</ele>
        <time>2011-11-27T09:19:22Z</time>
      </trkpt>
      <trkpt lat="46.99837" lon="-1.02592">
        <ele>160.1</ele>
        <time>2011-11-27T09:19:24Z</time>
      </trkpt>
      <trkpt lat="46.99832" lon="-1.02595">
        <ele>161.1</ele>
        <time>2011-11-27T09:19:25Z</time>
      </trkpt>
      <trkpt lat="46.99827" lon="-1.026">
        <ele>161.1</ele>
        <time>2011-11-27T09:19:27Z</time>
      </trkpt>
      <trkpt lat="46.9982" lon="-1.02601">
        <ele>161.5</ele>
        <time>2011-11-27T09:19:29Z</time>
      </trkpt>
      <trkpt lat="46.99817" lon="-1.0261">
        <ele>161.6</ele>
        <time>2011-11-27T09:19:31Z</time>
      </trkpt>
      <trkpt lat="46.99812" lon="-1.02616">
        <ele>161.7</ele>
        <time>2011-11-27T09:19:33Z</time>
      </trkpt>
      <trkpt lat="46.99811" lon="-1.02628">
        <ele>162.5</ele>
        <time>2011-11-27T09:19:34Z</time>
      </trkpt>
      <trkpt lat="46.99806" lon="-1.0263">
        <ele>161.3</ele>
        <time>2011-11-27T09:19:36Z</time>
      </trkpt>
      <trkpt lat="46.99802" lon="-1.02631">
        <ele>161.7</ele>
        <time>2011-11-27T09:19:38Z</time>
      </trkpt>
      <trkpt lat="46.9979" lon="-1.02635">
        <ele>163.8</ele>
        <time>2011-11-27T09:19:42Z</time>
      </trkpt>
      <trkpt lat="46.99788" lon="-1.02642">
        <ele>165.2</ele>
        <time>2011-11-27T09:19:45Z</time>
      </trkpt>
      <trkpt lat="46.99784" lon="-1.02649">
        <ele>164.7</ele>
        <time>2011-11-27T09:19:48Z</time>
      </trkpt>
      <trkpt lat="46.99781" lon="-1.02658">
        <ele>164.3</ele>
        <time>2011-11-27T09:19:51Z</time>
      </trkpt>
      <trkpt lat="46.99773" lon="-1.02666">
        <ele>164.1</ele>
        <time>2011-11-27T09:19:53Z</time>
      </trkpt>
      <trkpt lat="46.99772" lon="-1.02673">
        <ele>165</ele>
        <time>2011-11-27T09:19:54Z</time>
      </trkpt>
      <trkpt lat="46.99764" lon="-1.02673">
        <ele>165.6</ele>
        <time>2011-11-27T09:19:55Z</time>
      </trkpt>
      <trkpt lat="46.99759" lon="-1.02674">
        <ele>165.7</ele>
        <time>2011-11-27T09:19:56Z</time>
      </trkpt>
      <trkpt lat="46.99752" lon="-1.02675">
        <ele>166.5</ele>
        <time>2011-11-27T09:19:58Z</time>
      </trkpt>
      <trkpt lat="46.99748" lon="-1.02681">
        <ele>166.1</ele>
        <time>2011-11-27T09:20:01Z</time>
      </trkpt>
      <trkpt lat="46.99744" lon="-1.02687">
        <ele>166.5</ele>
        <time>2011-11-27T09:20:03Z</time>
      </trkpt>
      <trkpt lat="46.99738" lon="-1.02688">
        <ele>167.5</ele>
        <time>2011-11-27T09:20:04Z</time>
      </trkpt>
      <trkpt lat="46.99733" lon="-1.02693">
        <ele>167.4</ele>
        <time>2011-11-27T09:20:06Z</time>
      </trkpt>
      <trkpt lat="46.99729" lon="-1.02698">
        <ele>167.2</ele>
        <time>2011-11-27T09:20:08Z</time>
      </trkpt>
      <trkpt lat="46.99722" lon="-1.02701">
        <ele>167.9</ele>
        <time>2011-11-27T09:20:10Z</time>
      </trkpt>
      <trkpt lat="46.99719" lon="-1.02707">
        <ele>166.9</ele>
        <time>2011-11-27T09:20:13Z</time>
      </trkpt>
      <trkpt lat="46.99715" lon="-1.02709">
        <ele>167.8</ele>
        <time>2011-11-27T09:20:14Z</time>
      </trkpt>
      <trkpt lat="46.99707" lon="-1.02712">
        <ele>168.6</ele>
        <time>2011-11-27T09:20:16Z</time>
      </trkpt>
      <trkpt lat="46.99702" lon="-1.02714">
        <ele>168.8</ele>
        <time>2011-11-27T09:20:17Z</time>
      </trkpt>
      <trkpt lat="46.99697" lon="-1.02719">
        <ele>169.2</ele>
        <time>2011-11-27T09:20:19Z</time>
      </trkpt>
      <trkpt lat="46.9969" lon="-1.02723">
        <ele>169.7</ele>
        <time>2011-11-27T09:20:21Z</time>
      </trkpt>
      <trkpt lat="46.99685" lon="-1.02726">
        <ele>169</ele>
        <time>2011-11-27T09:20:23Z</time>
      </trkpt>
      <trkpt lat="46.9968" lon="-1.0273">
        <ele>169</ele>
        <time>2011-11-27T09:20:25Z</time>
      </trkpt>
      <trkpt lat="46.99676" lon="-1.02735">
        <ele>170</ele>
        <time>2011-11-27T09:20:27Z</time>
      </trkpt>
      <trkpt lat="46.99669" lon="-1.02739">
        <ele>170.9</ele>
        <time>2011-11-27T09:20:29Z</time>
      </trkpt>
      <trkpt lat="46.99668" lon="-1.02745">
        <ele>171.6</ele>
        <time>2011-11-27T09:20:31Z</time>
      </trkpt>
      <trkpt lat="46.9966" lon="-1.02748">
        <ele>172.2</ele>
        <time>2011-11-27T09:20:33Z</time>
      </trkpt>
      <trkpt lat="46.99654" lon="-1.02748">
        <ele>172.6</ele>
        <time>2011-11-27T09:20:35Z</time>
      </trkpt>
      <trkpt lat="46.9965" lon="-1.02753">
        <ele>172.6</ele>
        <time>2011-11-27T09:20:37Z</time>
      </trkpt>
      <trkpt lat="46.99646" lon="-1.02756">
        <ele>172.8</ele>
        <time>2011-11-27T09:20:39Z</time>
      </trkpt>
      <trkpt lat="46.99636" lon="-1.02758">
        <ele>172.7</ele>
        <time>2011-11-27T09:20:41Z</time>
      </trkpt>
      <trkpt lat="46.9963" lon="-1.02759">
        <ele>173.4</ele>
        <time>2011-11-27T09:20:44Z</time>
      </trkpt>
      <trkpt lat="46.99625" lon="-1.02763">
        <ele>174.9</ele>
        <time>2011-11-27T09:20:49Z</time>
      </trkpt>
      <trkpt lat="46.99622" lon="-1.02768">
        <ele>175.7</ele>
        <time>2011-11-27T09:20:53Z</time>
      </trkpt>
      <trkpt lat="46.99616" lon="-1.02772">
        <ele>175.8</ele>
        <time>2011-11-27T09:20:56Z</time>
      </trkpt>
      <trkpt lat="46.9961" lon="-1.02774">
        <ele>175.4</ele>
        <time>2011-11-27T09:20:59Z</time>
      </trkpt>
      <trkpt lat="46.99605" lon="-1.02773">
        <ele>173.9</ele>
        <time>2011-11-27T09:21:01Z</time>
      </trkpt>
      <trkpt lat="46.99601" lon="-1.02777">
        <ele>174.4</ele>
        <time>2011-11-27T09:21:03Z</time>
      </trkpt>
      <trkpt lat="46.99597" lon="-1.0278">
        <ele>174.5</ele>
        <time>2011-11-27T09:21:05Z</time>
      </trkpt>
      <trkpt lat="46.99591" lon="-1.02784">
        <ele>176.2</ele>
        <time>2011-11-27T09:21:08Z</time>
      </trkpt>
      <trkpt lat="46.99584" lon="-1.02788">
        <ele>177.2</ele>
        <time>2011-11-27T09:21:10Z</time>
      </trkpt>
      <trkpt lat="46.9958" lon="-1.02793">
        <ele>177.8</ele>
        <time>2011-11-27T09:21:14Z</time>
      </trkpt>
      <trkpt lat="46.99574" lon="-1.02796">
        <ele>178.1</ele>
        <time>2011-11-27T09:21:16Z</time>
      </trkpt>
      <trkpt lat="46.99569" lon="-1.028">
        <ele>178.5</ele>
        <time>2011-11-27T09:21:18Z</time>
      </trkpt>
      <trkpt lat="46.99564" lon="-1.02802">
        <ele>179.6</ele>
        <time>2011-11-27T09:21:20Z</time>
      </trkpt>
      <trkpt lat="46.99558" lon="-1.02802">
        <ele>178.8</ele>
        <time>2011-11-27T09:21:22Z</time>
      </trkpt>
      <trkpt lat="46.99547" lon="-1.02805">
        <ele>177.9</ele>
        <time>2011-11-27T09:21:24Z</time>
      </trkpt>
      <trkpt lat="46.99542" lon="-1.02808">
        <ele>177.8</ele>
        <time>2011-11-27T09:21:27Z</time>
      </trkpt>
      <trkpt lat="46.99535" lon="-1.02808">
        <ele>177.2</ele>
        <time>2011-11-27T09:21:30Z</time>
      </trkpt>
      <trkpt lat="46.99533" lon="-1.02815">
        <ele>178.1</ele>
        <time>2011-11-27T09:21:32Z</time>
      </trkpt>
      <trkpt lat="46.99527" lon="-1.02812">
        <ele>179.2</ele>
        <time>2011-11-27T09:21:35Z</time>
      </trkpt>
      <trkpt lat="46.99524" lon="-1.02818">
        <ele>178.7</ele>
        <time>2011-11-27T09:21:40Z</time>
      </trkpt>
      <trkpt lat="46.9952" lon="-1.0282">
        <ele>180.5</ele>
        <time>2011-11-27T09:21:47Z</time>
      </trkpt>
      <trkpt lat="46.99518" lon="-1.02827">
        <ele>180.1</ele>
        <time>2011-11-27T09:21:52Z</time>
      </trkpt>
      <trkpt lat="46.99518" lon="-1.02836">
        <ele>179.6</ele>
        <time>2011-11-27T09:21:54Z</time>
      </trkpt>
      <trkpt lat="46.99513" lon="-1.0284">
        <ele>179.3</ele>
        <time>2011-11-27T09:21:59Z</time>
      </trkpt>
      <trkpt lat="46.9951" lon="-1.02846">
        <ele>178.6</ele>
        <time>2011-11-27T09:22:05Z</time>
      </trkpt>
      <trkpt lat="46.99509" lon="-1.02853">
        <ele>178.9</ele>
        <time>2011-11-27T09:22:09Z</time>
      </trkpt>
      <trkpt lat="46.99508" lon="-1.0286">
        <ele>178.7</ele>
        <time>2011-11-27T09:22:13Z</time>
      </trkpt>
      <trkpt lat="46.99508" lon="-1.0287">
        <ele>179.7</ele>
        <time>2011-11-27T09:22:16Z</time>
      </trkpt>
      <trkpt lat="46.99505" lon="-1.02876">
        <ele>180</ele>
        <time>2011-11-27T09:22:20Z</time>
      </trkpt>
      <trkpt lat="46.99507" lon="-1.02883">
        <ele>179.5</ele>
        <time>2011-11-27T09:22:22Z</time>
      </trkpt>
      <trkpt lat="46.99505" lon="-1.02891">
        <ele>178.9</ele>
        <time>2011-11-27T09:22:25Z</time>
      </trkpt>
      <trkpt lat="46.99503" lon="-1.02897">
        <ele>178.9</ele>
        <time>2011-11-27T09:22:27Z</time>
      </trkpt>
      <trkpt lat="46.995" lon="-1.02906">
        <ele>179</ele>
        <time>2011-11-27T09:22:30Z</time>
      </trkpt>
      <trkpt lat="46.99496" lon="-1.02911">
        <ele>180.8</ele>
        <time>2011-11-27T09:22:32Z</time>
      </trkpt>
      <trkpt lat="46.99496" lon="-1.0292">
        <ele>182.8</ele>
        <time>2011-11-27T09:22:33Z</time>
      </trkpt>
      <trkpt lat="46.99495" lon="-1.02926">
        <ele>183</ele>
        <time>2011-11-27T09:22:36Z</time>
      </trkpt>
      <trkpt lat="46.99495" lon="-1.02934">
        <ele>183.5</ele>
        <time>2011-11-27T09:22:38Z</time>
      </trkpt>
      <trkpt lat="46.99494" lon="-1.02945">
        <ele>184.9</ele>
        <time>2011-11-27T09:22:40Z</time>
      </trkpt>
      <trkpt lat="46.99494" lon="-1.02952">
        <ele>184.2</ele>
        <time>2011-11-27T09:22:43Z</time>
      </trkpt>
      <trkpt lat="46.99493" lon="-1.0297">
        <ele>184.4</ele>
        <time>2011-11-27T09:22:45Z</time>
      </trkpt>
      <trkpt lat="46.9949" lon="-1.0298">
        <ele>185</ele>
        <time>2011-11-27T09:22:48Z</time>
      </trkpt>
      <trkpt lat="46.9949" lon="-1.02991">
        <ele>182.8</ele>
        <time>2011-11-27T09:22:50Z</time>
      </trkpt>
      <trkpt lat="46.99488" lon="-1.03003">
        <ele>181.7</ele>
        <time>2011-11-27T09:22:53Z</time>
      </trkpt>
      <trkpt lat="46.99486" lon="-1.03012">
        <ele>181.1</ele>
        <time>2011-11-27T09:22:55Z</time>
      </trkpt>
      <trkpt lat="46.99485" lon="-1.0302">
        <ele>180.1</ele>
        <time>2011-11-27T09:22:56Z</time>
      </trkpt>
      <trkpt lat="46.99482" lon="-1.03029">
        <ele>179.7</ele>
        <time>2011-11-27T09:22:59Z</time>
      </trkpt>
      <trkpt lat="46.99481" lon="-1.03037">
        <ele>179.8</ele>
        <time>2011-11-27T09:23:00Z</time>
      </trkpt>
      <trkpt lat="46.99478" lon="-1.03045">
        <ele>180.9</ele>
        <time>2011-11-27T09:23:02Z</time>
      </trkpt>
      <trkpt lat="46.99468" lon="-1.03057">
        <ele>181.5</ele>
        <time>2011-11-27T09:23:06Z</time>
      </trkpt>
      <trkpt lat="46.99463" lon="-1.03064">
        <ele>182</ele>
        <time>2011-11-27T09:23:08Z</time>
      </trkpt>
      <trkpt lat="46.99456" lon="-1.03074">
        <ele>180.8</ele>
        <time>2011-11-27T09:23:10Z</time>
      </trkpt>
      <trkpt lat="46.99452" lon="-1.03078">
        <ele>181.1</ele>
        <time>2011-11-27T09:23:12Z</time>
      </trkpt>
      <trkpt lat="46.99448" lon="-1.03085">
        <ele>181.4</ele>
        <time>2011-11-27T09:23:14Z</time>
      </trkpt>
      <trkpt lat="46.99443" lon="-1.03092">
        <ele>182.9</ele>
        <time>2011-11-27T09:23:16Z</time>
      </trkpt>
      <trkpt lat="46.99438" lon="-1.03097">
        <ele>183.3</ele>
        <time>2011-11-27T09:23:18Z</time>
      </trkpt>
      <trkpt lat="46.99431" lon="-1.03104">
        <ele>183.7</ele>
        <time>2011-11-27T09:23:20Z</time>
      </trkpt>
      <trkpt lat="46.99427" lon="-1.0311">
        <ele>184.8</ele>
        <time>2011-11-27T09:23:22Z</time>
      </trkpt>
      <trkpt lat="46.99421" lon="-1.03117">
        <ele>186.2</ele>
        <time>2011-11-27T09:23:24Z</time>
      </trkpt>
      <trkpt lat="46.99416" lon="-1.03124">
        <ele>186.5</ele>
        <time>2011-11-27T09:23:26Z</time>
      </trkpt>
      <trkpt lat="46.99409" lon="-1.03134">
        <ele>186.8</ele>
        <time>2011-11-27T09:23:28Z</time>
      </trkpt>
      <trkpt lat="46.99407" lon="-1.0314">
        <ele>186.4</ele>
        <time>2011-11-27T09:23:30Z</time>
      </trkpt>
      <trkpt lat="46.99402" lon="-1.0315">
        <ele>186.6</ele>
        <time>2011-11-27T09:23:33Z</time>
      </trkpt>
      <trkpt lat="46.99399" lon="-1.03156">
        <ele>186.8</ele>
        <time>2011-11-27T09:23:34Z</time>
      </trkpt>
      <trkpt lat="46.99392" lon="-1.03165">
        <ele>186.6</ele>
        <time>2011-11-27T09:23:35Z</time>
      </trkpt>
      <trkpt lat="46.9939" lon="-1.03171">
        <ele>186.5</ele>
        <time>2011-11-27T09:23:37Z</time>
      </trkpt>
      <trkpt lat="46.99386" lon="-1.03177">
        <ele>186.3</ele>
        <time>2011-11-27T09:23:38Z</time>
      </trkpt>
      <trkpt lat="46.99386" lon="-1.03189">
        <ele>187.7</ele>
        <time>2011-11-27T09:23:40Z</time>
      </trkpt>
      <trkpt lat="46.9938" lon="-1.03201">
        <ele>186.4</ele>
        <time>2011-11-27T09:23:43Z</time>
      </trkpt>
      <trkpt lat="46.99374" lon="-1.03212">
        <ele>185.9</ele>
        <time>2011-11-27T09:23:46Z</time>
      </trkpt>
      <trkpt lat="46.99373" lon="-1.03226">
        <ele>186</ele>
        <time>2011-11-27T09:23:49Z</time>
      </trkpt>
      <trkpt lat="46.99372" lon="-1.03233">
        <ele>188.3</ele>
        <time>2011-11-27T09:23:51Z</time>
      </trkpt>
      <trkpt lat="46.99371" lon="-1.03244">
        <ele>187.5</ele>
        <time>2011-11-27T09:23:53Z</time>
      </trkpt>
      <trkpt lat="46.99367" lon="-1.03251">
        <ele>188</ele>
        <time>2011-11-27T09:23:55Z</time>
      </trkpt>
      <trkpt lat="46.99366" lon="-1.03259">
        <ele>188.2</ele>
        <time>2011-11-27T09:23:57Z</time>
      </trkpt>
      <trkpt lat="46.9936" lon="-1.03266">
        <ele>187.7</ele>
        <time>2011-11-27T09:24:00Z</time>
      </trkpt>
      <trkpt lat="46.99354" lon="-1.03271">
        <ele>188.3</ele>
        <time>2011-11-27T09:24:01Z</time>
      </trkpt>
      <trkpt lat="46.99351" lon="-1.03282">
        <ele>188</ele>
        <time>2011-11-27T09:24:02Z</time>
      </trkpt>
      <trkpt lat="46.99348" lon="-1.03287">
        <ele>188.2</ele>
        <time>2011-11-27T09:24:04Z</time>
      </trkpt>
      <trkpt lat="46.99345" lon="-1.03298">
        <ele>190</ele>
        <time>2011-11-27T09:24:05Z</time>
      </trkpt>
      <trkpt lat="46.9934" lon="-1.03307">
        <ele>191</ele>
        <time>2011-11-27T09:24:07Z</time>
      </trkpt>
      <trkpt lat="46.99336" lon="-1.03312">
        <ele>190.1</ele>
        <time>2011-11-27T09:24:08Z</time>
      </trkpt>
      <trkpt lat="46.99333" lon="-1.03317">
        <ele>190.1</ele>
        <time>2011-11-27T09:24:09Z</time>
      </trkpt>
      <trkpt lat="46.99327" lon="-1.03326">
        <ele>189.9</ele>
        <time>2011-11-27T09:24:12Z</time>
      </trkpt>
      <trkpt lat="46.99323" lon="-1.03334">
        <ele>190.4</ele>
        <time>2011-11-27T09:24:14Z</time>
      </trkpt>
      <trkpt lat="46.99326" lon="-1.03341">
        <ele>190.8</ele>
        <time>2011-11-27T09:24:15Z</time>
      </trkpt>
      <trkpt lat="46.99323" lon="-1.03349">
        <ele>190.2</ele>
        <time>2011-11-27T09:24:16Z</time>
      </trkpt>
      <trkpt lat="46.99322" lon="-1.03358">
        <ele>189.2</ele>
        <time>2011-11-27T09:24:18Z</time>
      </trkpt>
      <trkpt lat="46.99318" lon="-1.03365">
        <ele>191</ele>
        <time>2011-11-27T09:24:21Z</time>
      </trkpt>
      <trkpt lat="46.99306" lon="-1.03369">
        <ele>189.6</ele>
        <time>2011-11-27T09:24:22Z</time>
      </trkpt>
      <trkpt lat="46.99297" lon="-1.03377">
        <ele>187.9</ele>
        <time>2011-11-27T09:24:23Z</time>
      </trkpt>
      <trkpt lat="46.9929" lon="-1.03385">
        <ele>186.6</ele>
        <time>2011-11-27T09:24:26Z</time>
      </trkpt>
      <trkpt lat="46.99285" lon="-1.03395">
        <ele>186.8</ele>
        <time>2011-11-27T09:24:27Z</time>
      </trkpt>
      <trkpt lat="46.9928" lon="-1.03401">
        <ele>187</ele>
        <time>2011-11-27T09:24:28Z</time>
      </trkpt>
      <trkpt lat="46.99276" lon="-1.03406">
        <ele>186.9</ele>
        <time>2011-11-27T09:24:29Z</time>
      </trkpt>
      <trkpt lat="46.99279" lon="-1.03416">
        <ele>186.7</ele>
        <time>2011-11-27T09:24:31Z</time>
      </trkpt>
      <trkpt lat="46.99281" lon="-1.03424">
        <ele>187.3</ele>
        <time>2011-11-27T09:24:33Z</time>
      </trkpt>
      <trkpt lat="46.99282" lon="-1.03436">
        <ele>186.3</ele>
        <time>2011-11-27T09:24:35Z</time>
      </trkpt>
      <trkpt lat="46.99281" lon="-1.03448">
        <ele>186</ele>
        <time>2011-11-27T09:24:37Z</time>
      </trkpt>
      <trkpt lat="46.99277" lon="-1.03452">
        <ele>186.1</ele>
        <time>2011-11-27T09:24:38Z</time>
      </trkpt>
      <trkpt lat="46.99276" lon="-1.0346">
        <ele>186.7</ele>
        <time>2011-11-27T09:24:39Z</time>
      </trkpt>
      <trkpt lat="46.99276" lon="-1.03469">
        <ele>186.6</ele>
        <time>2011-11-27T09:24:41Z</time>
      </trkpt>
      <trkpt lat="46.99278" lon="-1.03479">
        <ele>186.8</ele>
        <time>2011-11-27T09:24:43Z</time>
      </trkpt>
      <trkpt lat="46.99275" lon="-1.0349">
        <ele>186.7</ele>
        <time>2011-11-27T09:24:45Z</time>
      </trkpt>
      <trkpt lat="46.99274" lon="-1.03502">
        <ele>187.1</ele>
        <time>2011-11-27T09:24:47Z</time>
      </trkpt>
      <trkpt lat="46.99273" lon="-1.03512">
        <ele>186.6</ele>
        <time>2011-11-27T09:24:48Z</time>
      </trkpt>
      <trkpt lat="46.99272" lon="-1.03521">
        <ele>187</ele>
        <time>2011-11-27T09:24:50Z</time>
      </trkpt>
      <trkpt lat="46.9927" lon="-1.03535">
        <ele>187.9</ele>
        <time>2011-11-27T09:24:52Z</time>
      </trkpt>
      <trkpt lat="46.99269" lon="-1.03555">
        <ele>188.2</ele>
        <time>2011-11-27T09:24:55Z</time>
      </trkpt>
      <trkpt lat="46.99268" lon="-1.03567">
        <ele>188</ele>
        <time>2011-11-27T09:24:57Z</time>
      </trkpt>
      <trkpt lat="46.99266" lon="-1.03575">
        <ele>186.3</ele>
        <time>2011-11-27T09:24:58Z</time>
      </trkpt>
      <trkpt lat="46.99267" lon="-1.03584">
        <ele>186.1</ele>
        <time>2011-11-27T09:25:00Z</time>
      </trkpt>
      <trkpt lat="46.99266" lon="-1.03592">
        <ele>186.5</ele>
        <time>2011-11-27T09:25:01Z</time>
      </trkpt>
      <trkpt lat="46.99266" lon="-1.03612">
        <ele>188.6</ele>
        <time>2011-11-27T09:25:03Z</time>
      </trkpt>
      <trkpt lat="46.99265" lon="-1.03622">
        <ele>188.7</ele>
        <time>2011-11-27T09:25:04Z</time>
      </trkpt>
      <trkpt lat="46.99263" lon="-1.03638">
        <ele>188.5</ele>
        <time>2011-11-27T09:25:06Z</time>
      </trkpt>
      <trkpt lat="46.99262" lon="-1.03646">
        <ele>188.5</ele>
        <time>2011-11-27T09:25:07Z</time>
      </trkpt>
      <trkpt lat="46.99261" lon="-1.03658">
        <ele>188.6</ele>
        <time>2011-11-27T09:25:09Z</time>
      </trkpt>
      <trkpt lat="46.9926" lon="-1.03668">
        <ele>187.6</ele>
        <time>2011-11-27T09:25:12Z</time>
      </trkpt>
      <trkpt lat="46.99258" lon="-1.03675">
        <ele>186.3</ele>
        <time>2011-11-27T09:25:13Z</time>
      </trkpt>
      <trkpt lat="46.99256" lon="-1.03691">
        <ele>185.8</ele>
        <time>2011-11-27T09:25:15Z</time>
      </trkpt>
      <trkpt lat="46.99255" lon="-1.03699">
        <ele>186.1</ele>
        <time>2011-11-27T09:25:17Z</time>
      </trkpt>
      <trkpt lat="46.99252" lon="-1.03707">
        <ele>187.5</ele>
        <time>2011-11-27T09:25:18Z</time>
      </trkpt>
      <trkpt lat="46.9925" lon="-1.03714">
        <ele>188.1</ele>
        <time>2011-11-27T09:25:19Z</time>
      </trkpt>
      <trkpt lat="46.99253" lon="-1.03729">
        <ele>188.3</ele>
        <time>2011-11-27T09:25:20Z</time>
      </trkpt>
      <trkpt lat="46.99251" lon="-1.03744">
        <ele>188.8</ele>
        <time>2011-11-27T09:25:22Z</time>
      </trkpt>
      <trkpt lat="46.99249" lon="-1.0375">
        <ele>188.5</ele>
        <time>2011-11-27T09:25:23Z</time>
      </trkpt>
      <trkpt lat="46.99247" lon="-1.03759">
        <ele>188.5</ele>
        <time>2011-11-27T09:25:24Z</time>
      </trkpt>
      <trkpt lat="46.99246" lon="-1.0377">
        <ele>189.3</ele>
        <time>2011-11-27T09:25:26Z</time>
      </trkpt>
      <trkpt lat="46.99244" lon="-1.03777">
        <ele>189.6</ele>
        <time>2011-11-27T09:25:28Z</time>
      </trkpt>
      <trkpt lat="46.99241" lon="-1.03794">
        <ele>187.9</ele>
        <time>2011-11-27T09:25:30Z</time>
      </trkpt>
      <trkpt lat="46.99242" lon="-1.03801">
        <ele>187.1</ele>
        <time>2011-11-27T09:25:31Z</time>
      </trkpt>
      <trkpt lat="46.99242" lon="-1.03808">
        <ele>188.3</ele>
        <time>2011-11-27T09:25:33Z</time>
      </trkpt>
      <trkpt lat="46.99241" lon="-1.03818">
        <ele>188.4</ele>
        <time>2011-11-27T09:25:35Z</time>
      </trkpt>
      <trkpt lat="46.99235" lon="-1.03828">
        <ele>188.8</ele>
        <time>2011-11-27T09:25:38Z</time>
      </trkpt>
      <trkpt lat="46.99235" lon="-1.03845">
        <ele>188.1</ele>
        <time>2011-11-27T09:25:40Z</time>
      </trkpt>
      <trkpt lat="46.99235" lon="-1.03852">
        <ele>188</ele>
        <time>2011-11-27T09:25:41Z</time>
      </trkpt>
      <trkpt lat="46.99234" lon="-1.03861">
        <ele>187.5</ele>
        <time>2011-11-27T09:25:42Z</time>
      </trkpt>
      <trkpt lat="46.99232" lon="-1.0387">
        <ele>186.8</ele>
        <time>2011-11-27T09:25:43Z</time>
      </trkpt>
      <trkpt lat="46.99234" lon="-1.0388">
        <ele>185.7</ele>
        <time>2011-11-27T09:25:45Z</time>
      </trkpt>
      <trkpt lat="46.99236" lon="-1.03888">
        <ele>185.6</ele>
        <time>2011-11-27T09:25:46Z</time>
      </trkpt>
      <trkpt lat="46.99234" lon="-1.03903">
        <ele>184.9</ele>
        <time>2011-11-27T09:25:47Z</time>
      </trkpt>
      <trkpt lat="46.99232" lon="-1.03918">
        <ele>185.2</ele>
        <time>2011-11-27T09:25:49Z</time>
      </trkpt>
      <trkpt lat="46.99228" lon="-1.03932">
        <ele>186.8</ele>
        <time>2011-11-27T09:25:52Z</time>
      </trkpt>
      <trkpt lat="46.99223" lon="-1.03936">
        <ele>185.4</ele>
        <time>2011-11-27T09:25:53Z</time>
      </trkpt>
      <trkpt lat="46.99222" lon="-1.03944">
        <ele>185.6</ele>
        <time>2011-11-27T09:25:58Z</time>
      </trkpt>
      <trkpt lat="46.99223" lon="-1.03958">
        <ele>182.9</ele>
        <time>2011-11-27T09:26:02Z</time>
      </trkpt>
      <trkpt lat="46.99223" lon="-1.03964">
        <ele>183.1</ele>
        <time>2011-11-27T09:26:03Z</time>
      </trkpt>
      <trkpt lat="46.99222" lon="-1.03971">
        <ele>182.8</ele>
        <time>2011-11-27T09:26:04Z</time>
      </trkpt>
      <trkpt lat="46.99222" lon="-1.0398">
        <ele>182.9</ele>
        <time>2011-11-27T09:26:06Z</time>
      </trkpt>
      <trkpt lat="46.99221" lon="-1.03992">
        <ele>181.9</ele>
        <time>2011-11-27T09:26:08Z</time>
      </trkpt>
      <trkpt lat="46.9922" lon="-1.04">
        <ele>182.2</ele>
        <time>2011-11-27T09:26:09Z</time>
      </trkpt>
      <trkpt lat="46.99216" lon="-1.04012">
        <ele>182.7</ele>
        <time>2011-11-27T09:26:11Z</time>
      </trkpt>
      <trkpt lat="46.99216" lon="-1.04019">
        <ele>182.8</ele>
        <time>2011-11-27T09:26:12Z</time>
      </trkpt>
      <trkpt lat="46.99216" lon="-1.04033">
        <ele>184</ele>
        <time>2011-11-27T09:26:14Z</time>
      </trkpt>
      <trkpt lat="46.99217" lon="-1.04041">
        <ele>184</ele>
        <time>2011-11-27T09:26:18Z</time>
      </trkpt>
      <trkpt lat="46.99217" lon="-1.04049">
        <ele>185.4</ele>
        <time>2011-11-27T09:26:20Z</time>
      </trkpt>
      <trkpt lat="46.99217" lon="-1.0406">
        <ele>185</ele>
        <time>2011-11-27T09:26:23Z</time>
      </trkpt>
      <trkpt lat="46.99214" lon="-1.04066">
        <ele>186.5</ele>
        <time>2011-11-27T09:26:25Z</time>
      </trkpt>
      <trkpt lat="46.99213" lon="-1.0408">
        <ele>184.9</ele>
        <time>2011-11-27T09:26:28Z</time>
      </trkpt>
      <trkpt lat="46.99213" lon="-1.0409">
        <ele>183.5</ele>
        <time>2011-11-27T09:26:29Z</time>
      </trkpt>
      <trkpt lat="46.99206" lon="-1.04097">
        <ele>182.8</ele>
        <time>2011-11-27T09:26:31Z</time>
      </trkpt>
      <trkpt lat="46.99201" lon="-1.04108">
        <ele>183.7</ele>
        <time>2011-11-27T09:26:33Z</time>
      </trkpt>
      <trkpt lat="46.99199" lon="-1.04114">
        <ele>183</ele>
        <time>2011-11-27T09:26:34Z</time>
      </trkpt>
      <trkpt lat="46.99197" lon="-1.04128">
        <ele>182.8</ele>
        <time>2011-11-27T09:26:36Z</time>
      </trkpt>
      <trkpt lat="46.99198" lon="-1.04136">
        <ele>183.8</ele>
        <time>2011-11-27T09:26:38Z</time>
      </trkpt>
      <trkpt lat="46.99203" lon="-1.04148">
        <ele>183.7</ele>
        <time>2011-11-27T09:26:41Z</time>
      </trkpt>
      <trkpt lat="46.99211" lon="-1.04156">
        <ele>184.3</ele>
        <time>2011-11-27T09:26:44Z</time>
      </trkpt>
      <trkpt lat="46.99214" lon="-1.04164">
        <ele>184</ele>
        <time>2011-11-27T09:26:45Z</time>
      </trkpt>
      <trkpt lat="46.99219" lon="-1.0417">
        <ele>182.4</ele>
        <time>2011-11-27T09:26:50Z</time>
      </trkpt>
      <trkpt lat="46.99222" lon="-1.04176">
        <ele>183</ele>
        <time>2011-11-27T09:26:53Z</time>
      </trkpt>
      <trkpt lat="46.99225" lon="-1.04182">
        <ele>182.2</ele>
        <time>2011-11-27T09:26:56Z</time>
      </trkpt>
      <trkpt lat="46.99227" lon="-1.04188">
        <ele>181.7</ele>
        <time>2011-11-27T09:26:59Z</time>
      </trkpt>
      <trkpt lat="46.99229" lon="-1.04198">
        <ele>181</ele>
        <time>2011-11-27T09:27:01Z</time>
      </trkpt>
      <trkpt lat="46.99231" lon="-1.04204">
        <ele>181.3</ele>
        <time>2011-11-27T09:27:03Z</time>
      </trkpt>
      <trkpt lat="46.99235" lon="-1.0421">
        <ele>182.8</ele>
        <time>2011-11-27T09:27:05Z</time>
      </trkpt>
      <trkpt lat="46.99237" lon="-1.04218">
        <ele>183.7</ele>
        <time>2011-11-27T09:27:07Z</time>
      </trkpt>
      <trkpt lat="46.99242" lon="-1.04226">
        <ele>184</ele>
        <time>2011-11-27T09:27:09Z</time>
      </trkpt>
      <trkpt lat="46.9925" lon="-1.04235">
        <ele>183.8</ele>
        <time>2011-11-27T09:27:11Z</time>
      </trkpt>
      <trkpt lat="46.99255" lon="-1.04243">
        <ele>183</ele>
        <time>2011-11-27T09:27:13Z</time>
      </trkpt>
      <trkpt lat="46.99263" lon="-1.04247">
        <ele>181.7</ele>
        <time>2011-11-27T09:27:15Z</time>
      </trkpt>
      <trkpt lat="46.99269" lon="-1.04247">
        <ele>180.6</ele>
        <time>2011-11-27T09:27:17Z</time>
      </trkpt>
      <trkpt lat="46.99275" lon="-1.04247">
        <ele>181.9</ele>
        <time>2011-11-27T09:27:19Z</time>
      </trkpt>
      <trkpt lat="46.9928" lon="-1.04248">
        <ele>181.8</ele>
        <time>2011-11-27T09:27:21Z</time>
      </trkpt>
      <trkpt lat="46.99288" lon="-1.04255">
        <ele>182.9</ele>
        <time>2011-11-27T09:27:24Z</time>
      </trkpt>
      <trkpt lat="46.99292" lon="-1.0426">
        <ele>183.5</ele>
        <time>2011-11-27T09:27:25Z</time>
      </trkpt>
      <trkpt lat="46.99296" lon="-1.04269">
        <ele>182.4</ele>
        <time>2011-11-27T09:27:27Z</time>
      </trkpt>
      <trkpt lat="46.99298" lon="-1.04275">
        <ele>182.1</ele>
        <time>2011-11-27T09:27:28Z</time>
      </trkpt>
      <trkpt lat="46.99296" lon="-1.04288">
        <ele>182.2</ele>
        <time>2011-11-27T09:27:31Z</time>
      </trkpt>
      <trkpt lat="46.99284" lon="-1.04298">
        <ele>182.3</ele>
        <time>2011-11-27T09:27:33Z</time>
      </trkpt>
      <trkpt lat="46.9928" lon="-1.04304">
        <ele>180.9</ele>
        <time>2011-11-27T09:27:35Z</time>
      </trkpt>
      <trkpt lat="46.99278" lon="-1.04313">
        <ele>180.5</ele>
        <time>2011-11-27T09:27:37Z</time>
      </trkpt>
      <trkpt lat="46.99275" lon="-1.04318">
        <ele>181.1</ele>
        <time>2011-11-27T09:27:38Z</time>
      </trkpt>
      <trkpt lat="46.99275" lon="-1.0433">
        <ele>181.4</ele>
        <time>2011-11-27T09:27:39Z</time>
      </trkpt>
      <trkpt lat="46.99273" lon="-1.04338">
        <ele>182</ele>
        <time>2011-11-27T09:27:41Z</time>
      </trkpt>
      <trkpt lat="46.99271" lon="-1.04346">
        <ele>181.8</ele>
        <time>2011-11-27T09:27:43Z</time>
      </trkpt>
      <trkpt lat="46.99266" lon="-1.04354">
        <ele>182.2</ele>
        <time>2011-11-27T09:27:44Z</time>
      </trkpt>
      <trkpt lat="46.99262" lon="-1.0437">
        <ele>180.7</ele>
        <time>2011-11-27T09:27:46Z</time>
      </trkpt>
      <trkpt lat="46.99258" lon="-1.04379">
        <ele>181</ele>
        <time>2011-11-27T09:27:47Z</time>
      </trkpt>
      <trkpt lat="46.99252" lon="-1.0438">
        <ele>181.5</ele>
        <time>2011-11-27T09:27:49Z</time>
      </trkpt>
      <trkpt lat="46.99245" lon="-1.04382">
        <ele>184</ele>
        <time>2011-11-27T09:27:51Z</time>
      </trkpt>
      <trkpt lat="46.99239" lon="-1.04385">
        <ele>185</ele>
        <time>2011-11-27T09:27:52Z</time>
      </trkpt>
      <trkpt lat="46.99233" lon="-1.04388">
        <ele>184.6</ele>
        <time>2011-11-27T09:27:54Z</time>
      </trkpt>
      <trkpt lat="46.99225" lon="-1.0439">
        <ele>184.7</ele>
        <time>2011-11-27T09:27:56Z</time>
      </trkpt>
      <trkpt lat="46.99221" lon="-1.04394">
        <ele>184.3</ele>
        <time>2011-11-27T09:27:57Z</time>
      </trkpt>
      <trkpt lat="46.99211" lon="-1.04399">
        <ele>184.5</ele>
        <time>2011-11-27T09:28:00Z</time>
      </trkpt>
      <trkpt lat="46.99208" lon="-1.04408">
        <ele>183.9</ele>
        <time>2011-11-27T09:28:02Z</time>
      </trkpt>
      <trkpt lat="46.99204" lon="-1.04412">
        <ele>185.1</ele>
        <time>2011-11-27T09:28:03Z</time>
      </trkpt>
      <trkpt lat="46.99204" lon="-1.0442">
        <ele>185.4</ele>
        <time>2011-11-27T09:28:05Z</time>
      </trkpt>
      <trkpt lat="46.99206" lon="-1.04426">
        <ele>185.1</ele>
        <time>2011-11-27T09:28:06Z</time>
      </trkpt>
      <trkpt lat="46.99207" lon="-1.04433">
        <ele>184.5</ele>
        <time>2011-11-27T09:28:07Z</time>
      </trkpt>
      <trkpt lat="46.99206" lon="-1.04444">
        <ele>184.6</ele>
        <time>2011-11-27T09:28:10Z</time>
      </trkpt>
      <trkpt lat="46.99208" lon="-1.04453">
        <ele>189.8</ele>
        <time>2011-11-27T09:28:14Z</time>
      </trkpt>
      <trkpt lat="46.99202" lon="-1.04462">
        <ele>190.5</ele>
        <time>2011-11-27T09:28:17Z</time>
      </trkpt>
      <trkpt lat="46.99187" lon="-1.04469">
        <ele>190.5</ele>
        <time>2011-11-27T09:28:18Z</time>
      </trkpt>
      <trkpt lat="46.99182" lon="-1.04474">
        <ele>190.5</ele>
        <time>2011-11-27T09:28:19Z</time>
      </trkpt>
      <trkpt lat="46.99181" lon="-1.04481">
        <ele>191.7</ele>
        <time>2011-11-27T09:28:20Z</time>
      </trkpt>
      <trkpt lat="46.99178" lon="-1.04486">
        <ele>191.8</ele>
        <time>2011-11-27T09:28:21Z</time>
      </trkpt>
      <trkpt lat="46.99175" lon="-1.04494">
        <ele>191.4</ele>
        <time>2011-11-27T09:28:23Z</time>
      </trkpt>
      <trkpt lat="46.99172" lon="-1.04504">
        <ele>191.4</ele>
        <time>2011-11-27T09:28:25Z</time>
      </trkpt>
      <trkpt lat="46.99168" lon="-1.04511">
        <ele>192</ele>
        <time>2011-11-27T09:28:26Z</time>
      </trkpt>
      <trkpt lat="46.99166" lon="-1.04522">
        <ele>189.4</ele>
        <time>2011-11-27T09:28:27Z</time>
      </trkpt>
      <trkpt lat="46.99166" lon="-1.04529">
        <ele>188</ele>
        <time>2011-11-27T09:28:28Z</time>
      </trkpt>
      <trkpt lat="46.99163" lon="-1.04541">
        <ele>187.9</ele>
        <time>2011-11-27T09:28:30Z</time>
      </trkpt>
      <trkpt lat="46.99158" lon="-1.04553">
        <ele>188</ele>
        <time>2011-11-27T09:28:33Z</time>
      </trkpt>
      <trkpt lat="46.99155" lon="-1.04559">
        <ele>187.9</ele>
        <time>2011-11-27T09:28:35Z</time>
      </trkpt>
      <trkpt lat="46.99152" lon="-1.0457">
        <ele>188</ele>
        <time>2011-11-27T09:28:37Z</time>
      </trkpt>
      <trkpt lat="46.99156" lon="-1.04589">
        <ele>188.4</ele>
        <time>2011-11-27T09:28:38Z</time>
      </trkpt>
      <trkpt lat="46.99157" lon="-1.04595">
        <ele>188.9</ele>
        <time>2011-11-27T09:28:39Z</time>
      </trkpt>
      <trkpt lat="46.99157" lon="-1.04603">
        <ele>187.9</ele>
        <time>2011-11-27T09:28:40Z</time>
      </trkpt>
      <trkpt lat="46.99158" lon="-1.0461">
        <ele>187.5</ele>
        <time>2011-11-27T09:28:41Z</time>
      </trkpt>
      <trkpt lat="46.9916" lon="-1.04617">
        <ele>187.6</ele>
        <time>2011-11-27T09:28:42Z</time>
      </trkpt>
      <trkpt lat="46.99161" lon="-1.0463">
        <ele>186.9</ele>
        <time>2011-11-27T09:28:44Z</time>
      </trkpt>
      <trkpt lat="46.99164" lon="-1.04641">
        <ele>187.3</ele>
        <time>2011-11-27T09:28:46Z</time>
      </trkpt>
      <trkpt lat="46.99163" lon="-1.04657">
        <ele>186.9</ele>
        <time>2011-11-27T09:28:49Z</time>
      </trkpt>
      <trkpt lat="46.99165" lon="-1.04667">
        <ele>186.9</ele>
        <time>2011-11-27T09:28:50Z</time>
      </trkpt>
      <trkpt lat="46.99165" lon="-1.04675">
        <ele>187.7</ele>
        <time>2011-11-27T09:28:52Z</time>
      </trkpt>
      <trkpt lat="46.99163" lon="-1.04686">
        <ele>190.2</ele>
        <time>2011-11-27T09:28:54Z</time>
      </trkpt>
      <trkpt lat="46.99164" lon="-1.047">
        <ele>191.3</ele>
        <time>2011-11-27T09:28:56Z</time>
      </trkpt>
      <trkpt lat="46.99166" lon="-1.04712">
        <ele>190.5</ele>
        <time>2011-11-27T09:28:57Z</time>
      </trkpt>
      <trkpt lat="46.9917" lon="-1.04728">
        <ele>189.1</ele>
        <time>2011-11-27T09:28:58Z</time>
      </trkpt>
      <trkpt lat="46.99172" lon="-1.04741">
        <ele>188.4</ele>
        <time>2011-11-27T09:28:59Z</time>
      </trkpt>
      <trkpt lat="46.99174" lon="-1.04753">
        <ele>188.3</ele>
        <time>2011-11-27T09:29:00Z</time>
      </trkpt>
      <trkpt lat="46.99177" lon="-1.04766">
        <ele>189.3</ele>
        <time>2011-11-27T09:29:01Z</time>
      </trkpt>
      <trkpt lat="46.99182" lon="-1.04782">
        <ele>188.6</ele>
        <time>2011-11-27T09:29:02Z</time>
      </trkpt>
      <trkpt lat="46.99182" lon="-1.04801">
        <ele>185.7</ele>
        <time>2011-11-27T09:29:03Z</time>
      </trkpt>
      <trkpt lat="46.99188" lon="-1.04822">
        <ele>184.6</ele>
        <time>2011-11-27T09:29:04Z</time>
      </trkpt>
      <trkpt lat="46.99193" lon="-1.04847">
        <ele>181.8</ele>
        <time>2011-11-27T09:29:06Z</time>
      </trkpt>
      <trkpt lat="46.99192" lon="-1.04862">
        <ele>180.2</ele>
        <time>2011-11-27T09:29:07Z</time>
      </trkpt>
      <trkpt lat="46.99187" lon="-1.04873">
        <ele>180.5</ele>
        <time>2011-11-27T09:29:08Z</time>
      </trkpt>
      <trkpt lat="46.99188" lon="-1.04881">
        <ele>181</ele>
        <time>2011-11-27T09:29:09Z</time>
      </trkpt>
      <trkpt lat="46.99189" lon="-1.0489">
        <ele>180.7</ele>
        <time>2011-11-27T09:29:10Z</time>
      </trkpt>
      <trkpt lat="46.99193" lon="-1.04896">
        <ele>180.5</ele>
        <time>2011-11-27T09:29:11Z</time>
      </trkpt>
      <trkpt lat="46.99198" lon="-1.04903">
        <ele>179.6</ele>
        <time>2011-11-27T09:29:13Z</time>
      </trkpt>
      <trkpt lat="46.99205" lon="-1.04899">
        <ele>179.5</ele>
        <time>2011-11-27T09:29:15Z</time>
      </trkpt>
      <trkpt lat="46.99211" lon="-1.04897">
        <ele>179.1</ele>
        <time>2011-11-27T09:29:17Z</time>
      </trkpt>
      <trkpt lat="46.99216" lon="-1.04896">
        <ele>178.8</ele>
        <time>2011-11-27T09:29:18Z</time>
      </trkpt>
      <trkpt lat="46.99225" lon="-1.04892">
        <ele>179</ele>
        <time>2011-11-27T09:29:20Z</time>
      </trkpt>
      <trkpt lat="46.9923" lon="-1.04891">
        <ele>178.8</ele>
        <time>2011-11-27T09:29:21Z</time>
      </trkpt>
      <trkpt lat="46.99236" lon="-1.04887">
        <ele>177.7</ele>
        <time>2011-11-27T09:29:22Z</time>
      </trkpt>
      <trkpt lat="46.9924" lon="-1.04897">
        <ele>176.4</ele>
        <time>2011-11-27T09:29:25Z</time>
      </trkpt>
      <trkpt lat="46.99247" lon="-1.04889">
        <ele>176.1</ele>
        <time>2011-11-27T09:29:28Z</time>
      </trkpt>
      <trkpt lat="46.99253" lon="-1.04887">
        <ele>175.4</ele>
        <time>2011-11-27T09:29:31Z</time>
      </trkpt>
      <trkpt lat="46.9926" lon="-1.04883">
        <ele>174.8</ele>
        <time>2011-11-27T09:29:32Z</time>
      </trkpt>
      <trkpt lat="46.99264" lon="-1.04885">
        <ele>173.1</ele>
        <time>2011-11-27T09:29:34Z</time>
      </trkpt>
      <trkpt lat="46.9927" lon="-1.04883">
        <ele>172.5</ele>
        <time>2011-11-27T09:29:36Z</time>
      </trkpt>
      <trkpt lat="46.99275" lon="-1.04881">
        <ele>172.7</ele>
        <time>2011-11-27T09:29:37Z</time>
      </trkpt>
      <trkpt lat="46.99282" lon="-1.04877">
        <ele>172.9</ele>
        <time>2011-11-27T09:29:39Z</time>
      </trkpt>
      <trkpt lat="46.9929" lon="-1.04875">
        <ele>172.4</ele>
        <time>2011-11-27T09:29:40Z</time>
      </trkpt>
      <trkpt lat="46.99299" lon="-1.04872">
        <ele>172.8</ele>
        <time>2011-11-27T09:29:42Z</time>
      </trkpt>
      <trkpt lat="46.99306" lon="-1.04863">
        <ele>173</ele>
        <time>2011-11-27T09:29:45Z</time>
      </trkpt>
      <trkpt lat="46.99311" lon="-1.04854">
        <ele>172.8</ele>
        <time>2011-11-27T09:29:47Z</time>
      </trkpt>
      <trkpt lat="46.99316" lon="-1.0485">
        <ele>173.6</ele>
        <time>2011-11-27T09:29:48Z</time>
      </trkpt>
      <trkpt lat="46.99321" lon="-1.04849">
        <ele>174.7</ele>
        <time>2011-11-27T09:29:49Z</time>
      </trkpt>
      <trkpt lat="46.99329" lon="-1.04845">
        <ele>176.8</ele>
        <time>2011-11-27T09:29:51Z</time>
      </trkpt>
      <trkpt lat="46.99333" lon="-1.04841">
        <ele>177.2</ele>
        <time>2011-11-27T09:29:52Z</time>
      </trkpt>
      <trkpt lat="46.9934" lon="-1.04848">
        <ele>177.4</ele>
        <time>2011-11-27T09:29:54Z</time>
      </trkpt>
      <trkpt lat="46.99347" lon="-1.04852">
        <ele>177</ele>
        <time>2011-11-27T09:29:56Z</time>
      </trkpt>
      <trkpt lat="46.99355" lon="-1.04853">
        <ele>177.3</ele>
        <time>2011-11-27T09:29:58Z</time>
      </trkpt>
      <trkpt lat="46.99362" lon="-1.04851">
        <ele>177.9</ele>
        <time>2011-11-27T09:30:00Z</time>
      </trkpt>
      <trkpt lat="46.99368" lon="-1.04854">
        <ele>178.8</ele>
        <time>2011-11-27T09:30:02Z</time>
      </trkpt>
      <trkpt lat="46.99375" lon="-1.04854">
        <ele>177.8</ele>
        <time>2011-11-27T09:30:05Z</time>
      </trkpt>
      <trkpt lat="46.9938" lon="-1.04857">
        <ele>178.2</ele>
        <time>2011-11-27T09:30:08Z</time>
      </trkpt>
      <trkpt lat="46.99386" lon="-1.04858">
        <ele>179.2</ele>
        <time>2011-11-27T09:30:11Z</time>
      </trkpt>
      <trkpt lat="46.99391" lon="-1.0486">
        <ele>180.1</ele>
        <time>2011-11-27T09:30:13Z</time>
      </trkpt>
      <trkpt lat="46.99396" lon="-1.04862">
        <ele>179.4</ele>
        <time>2011-11-27T09:30:15Z</time>
      </trkpt>
      <trkpt lat="46.994" lon="-1.04864">
        <ele>179.2</ele>
        <time>2011-11-27T09:30:17Z</time>
      </trkpt>
      <trkpt lat="46.99406" lon="-1.04864">
        <ele>178.8</ele>
        <time>2011-11-27T09:30:19Z</time>
      </trkpt>
      <trkpt lat="46.99412" lon="-1.04863">
        <ele>178.9</ele>
        <time>2011-11-27T09:30:20Z</time>
      </trkpt>
      <trkpt lat="46.99419" lon="-1.04865">
        <ele>177.9</ele>
        <time>2011-11-27T09:30:22Z</time>
      </trkpt>
      <trkpt lat="46.99424" lon="-1.04866">
        <ele>177.7</ele>
        <time>2011-11-27T09:30:24Z</time>
      </trkpt>
      <trkpt lat="46.9943" lon="-1.04864">
        <ele>177.8</ele>
        <time>2011-11-27T09:30:26Z</time>
      </trkpt>
      <trkpt lat="46.99438" lon="-1.04864">
        <ele>176.8</ele>
        <time>2011-11-27T09:30:28Z</time>
      </trkpt>
      <trkpt lat="46.99447" lon="-1.04869">
        <ele>175.7</ele>
        <time>2011-11-27T09:30:31Z</time>
      </trkpt>
      <trkpt lat="46.99452" lon="-1.04869">
        <ele>175.8</ele>
        <time>2011-11-27T09:30:32Z</time>
      </trkpt>
      <trkpt lat="46.99459" lon="-1.04871">
        <ele>176.3</ele>
        <time>2011-11-27T09:30:33Z</time>
      </trkpt>
      <trkpt lat="46.99465" lon="-1.04868">
        <ele>177</ele>
        <time>2011-11-27T09:30:34Z</time>
      </trkpt>
      <trkpt lat="46.99471" lon="-1.04868">
        <ele>176.7</ele>
        <time>2011-11-27T09:30:35Z</time>
      </trkpt>
      <trkpt lat="46.99479" lon="-1.04872">
        <ele>175.4</ele>
        <time>2011-11-27T09:30:36Z</time>
      </trkpt>
      <trkpt lat="46.99488" lon="-1.0488">
        <ele>174.5</ele>
        <time>2011-11-27T09:30:37Z</time>
      </trkpt>
      <trkpt lat="46.99495" lon="-1.04883">
        <ele>173.6</ele>
        <time>2011-11-27T09:30:38Z</time>
      </trkpt>
      <trkpt lat="46.99503" lon="-1.04887">
        <ele>172.6</ele>
        <time>2011-11-27T09:30:39Z</time>
      </trkpt>
      <trkpt lat="46.99509" lon="-1.04888">
        <ele>171.9</ele>
        <time>2011-11-27T09:30:40Z</time>
      </trkpt>
      <trkpt lat="46.99514" lon="-1.04891">
        <ele>170.7</ele>
        <time>2011-11-27T09:30:42Z</time>
      </trkpt>
      <trkpt lat="46.99521" lon="-1.04893">
        <ele>170.9</ele>
        <time>2011-11-27T09:30:43Z</time>
      </trkpt>
      <trkpt lat="46.99528" lon="-1.04895">
        <ele>172.3</ele>
        <time>2011-11-27T09:30:44Z</time>
      </trkpt>
      <trkpt lat="46.99532" lon="-1.04894">
        <ele>171.1</ele>
        <time>2011-11-27T09:30:45Z</time>
      </trkpt>
      <trkpt lat="46.99538" lon="-1.04899">
        <ele>169.9</ele>
        <time>2011-11-27T09:30:46Z</time>
      </trkpt>
      <trkpt lat="46.99543" lon="-1.04901">
        <ele>170.2</ele>
        <time>2011-11-27T09:30:47Z</time>
      </trkpt>
      <trkpt lat="46.99553" lon="-1.04901">
        <ele>172.5</ele>
        <time>2011-11-27T09:30:50Z</time>
      </trkpt>
      <trkpt lat="46.99565" lon="-1.04904">
        <ele>172.2</ele>
        <time>2011-11-27T09:30:53Z</time>
      </trkpt>
      <trkpt lat="46.99572" lon="-1.04905">
        <ele>172</ele>
        <time>2011-11-27T09:30:54Z</time>
      </trkpt>
      <trkpt lat="46.99576" lon="-1.04905">
        <ele>172.3</ele>
        <time>2011-11-27T09:30:55Z</time>
      </trkpt>
      <trkpt lat="46.99581" lon="-1.04906">
        <ele>172.1</ele>
        <time>2011-11-27T09:30:56Z</time>
      </trkpt>
      <trkpt lat="46.99594" lon="-1.04906">
        <ele>172</ele>
        <time>2011-11-27T09:30:58Z</time>
      </trkpt>
      <trkpt lat="46.99599" lon="-1.04905">
        <ele>172.1</ele>
        <time>2011-11-27T09:30:59Z</time>
      </trkpt>
      <trkpt lat="46.99612" lon="-1.04908">
        <ele>174.8</ele>
        <time>2011-11-27T09:31:00Z</time>
      </trkpt>
      <trkpt lat="46.99618" lon="-1.04906">
        <ele>175.1</ele>
        <time>2011-11-27T09:31:01Z</time>
      </trkpt>
      <trkpt lat="46.99626" lon="-1.04905">
        <ele>174.4</ele>
        <time>2011-11-27T09:31:03Z</time>
      </trkpt>
      <trkpt lat="46.99632" lon="-1.04905">
        <ele>174.3</ele>
        <time>2011-11-27T09:31:04Z</time>
      </trkpt>
      <trkpt lat="46.99639" lon="-1.04905">
        <ele>174.2</ele>
        <time>2011-11-27T09:31:05Z</time>
      </trkpt>
      <trkpt lat="46.99647" lon="-1.04906">
        <ele>173.9</ele>
        <time>2011-11-27T09:31:07Z</time>
      </trkpt>
      <trkpt lat="46.99655" lon="-1.04909">
        <ele>175.1</ele>
        <time>2011-11-27T09:31:09Z</time>
      </trkpt>
      <trkpt lat="46.9966" lon="-1.04911">
        <ele>174.7</ele>
        <time>2011-11-27T09:31:10Z</time>
      </trkpt>
      <trkpt lat="46.99665" lon="-1.04911">
        <ele>175.3</ele>
        <time>2011-11-27T09:31:11Z</time>
      </trkpt>
      <trkpt lat="46.99672" lon="-1.04912">
        <ele>175.8</ele>
        <time>2011-11-27T09:31:12Z</time>
      </trkpt>
      <trkpt lat="46.99678" lon="-1.04913">
        <ele>175.3</ele>
        <time>2011-11-27T09:31:13Z</time>
      </trkpt>
      <trkpt lat="46.99684" lon="-1.04912">
        <ele>174.3</ele>
        <time>2011-11-27T09:31:14Z</time>
      </trkpt>
      <trkpt lat="46.99697" lon="-1.04915">
        <ele>173</ele>
        <time>2011-11-27T09:31:16Z</time>
      </trkpt>
      <trkpt lat="46.99703" lon="-1.04914">
        <ele>173</ele>
        <time>2011-11-27T09:31:17Z</time>
      </trkpt>
      <trkpt lat="46.9971" lon="-1.04914">
        <ele>173.5</ele>
        <time>2011-11-27T09:31:18Z</time>
      </trkpt>
      <trkpt lat="46.99718" lon="-1.04922">
        <ele>173.2</ele>
        <time>2011-11-27T09:31:19Z</time>
      </trkpt>
      <trkpt lat="46.99724" lon="-1.04927">
        <ele>172.6</ele>
        <time>2011-11-27T09:31:20Z</time>
      </trkpt>
      <trkpt lat="46.9973" lon="-1.04932">
        <ele>172.8</ele>
        <time>2011-11-27T09:31:21Z</time>
      </trkpt>
      <trkpt lat="46.99734" lon="-1.04939">
        <ele>172</ele>
        <time>2011-11-27T09:31:22Z</time>
      </trkpt>
      <trkpt lat="46.99739" lon="-1.04946">
        <ele>171.8</ele>
        <time>2011-11-27T09:31:23Z</time>
      </trkpt>
      <trkpt lat="46.99743" lon="-1.04952">
        <ele>172.2</ele>
        <time>2011-11-27T09:31:24Z</time>
      </trkpt>
      <trkpt lat="46.99749" lon="-1.04961">
        <ele>170.9</ele>
        <time>2011-11-27T09:31:25Z</time>
      </trkpt>
      <trkpt lat="46.99756" lon="-1.04973">
        <ele>170.4</ele>
        <time>2011-11-27T09:31:26Z</time>
      </trkpt>
      <trkpt lat="46.99754" lon="-1.04979">
        <ele>170.1</ele>
        <time>2011-11-27T09:31:28Z</time>
      </trkpt>
      <trkpt lat="46.99752" lon="-1.04986">
        <ele>170</ele>
        <time>2011-11-27T09:31:29Z</time>
      </trkpt>
      <trkpt lat="46.99753" lon="-1.05004">
        <ele>169.5</ele>
        <time>2011-11-27T09:31:31Z</time>
      </trkpt>
      <trkpt lat="46.99754" lon="-1.05012">
        <ele>168.8</ele>
        <time>2011-11-27T09:31:32Z</time>
      </trkpt>
      <trkpt lat="46.99756" lon="-1.05019">
        <ele>168.4</ele>
        <time>2011-11-27T09:31:33Z</time>
      </trkpt>
      <trkpt lat="46.99755" lon="-1.05027">
        <ele>168.3</ele>
        <time>2011-11-27T09:31:35Z</time>
      </trkpt>
      <trkpt lat="46.99761" lon="-1.05043">
        <ele>167.8</ele>
        <time>2011-11-27T09:31:37Z</time>
      </trkpt>
      <trkpt lat="46.99768" lon="-1.05055">
        <ele>167.9</ele>
        <time>2011-11-27T09:31:39Z</time>
      </trkpt>
      <trkpt lat="46.99767" lon="-1.05067">
        <ele>166.8</ele>
        <time>2011-11-27T09:31:41Z</time>
      </trkpt>
      <trkpt lat="46.99769" lon="-1.05074">
        <ele>167.6</ele>
        <time>2011-11-27T09:31:42Z</time>
      </trkpt>
      <trkpt lat="46.99772" lon="-1.05084">
        <ele>168.6</ele>
        <time>2011-11-27T09:31:44Z</time>
      </trkpt>
      <trkpt lat="46.99771" lon="-1.05098">
        <ele>169.2</ele>
        <time>2011-11-27T09:31:46Z</time>
      </trkpt>
      <trkpt lat="46.99771" lon="-1.05112">
        <ele>170.7</ele>
        <time>2011-11-27T09:31:48Z</time>
      </trkpt>
      <trkpt lat="46.99768" lon="-1.05118">
        <ele>171</ele>
        <time>2011-11-27T09:31:49Z</time>
      </trkpt>
      <trkpt lat="46.99766" lon="-1.05126">
        <ele>170.1</ele>
        <time>2011-11-27T09:31:51Z</time>
      </trkpt>
      <trkpt lat="46.99766" lon="-1.05136">
        <ele>170.4</ele>
        <time>2011-11-27T09:31:53Z</time>
      </trkpt>
      <trkpt lat="46.99772" lon="-1.05147">
        <ele>170.7</ele>
        <time>2011-11-27T09:31:54Z</time>
      </trkpt>
      <trkpt lat="46.99775" lon="-1.05153">
        <ele>171.1</ele>
        <time>2011-11-27T09:31:55Z</time>
      </trkpt>
      <trkpt lat="46.99778" lon="-1.05164">
        <ele>171.2</ele>
        <time>2011-11-27T09:31:57Z</time>
      </trkpt>
      <trkpt lat="46.9978" lon="-1.05178">
        <ele>172.1</ele>
        <time>2011-11-27T09:31:59Z</time>
      </trkpt>
      <trkpt lat="46.9978" lon="-1.05185">
        <ele>173</ele>
        <time>2011-11-27T09:32:01Z</time>
      </trkpt>
      <trkpt lat="46.99784" lon="-1.05194">
        <ele>173.1</ele>
        <time>2011-11-27T09:32:03Z</time>
      </trkpt>
      <trkpt lat="46.99786" lon="-1.05208">
        <ele>173.5</ele>
        <time>2011-11-27T09:32:05Z</time>
      </trkpt>
      <trkpt lat="46.9979" lon="-1.05216">
        <ele>173.3</ele>
        <time>2011-11-27T09:32:06Z</time>
      </trkpt>
      <trkpt lat="46.99788" lon="-1.05228">
        <ele>173.4</ele>
        <time>2011-11-27T09:32:09Z</time>
      </trkpt>
      <trkpt lat="46.99791" lon="-1.05239">
        <ele>172.9</ele>
        <time>2011-11-27T09:32:11Z</time>
      </trkpt>
      <trkpt lat="46.9979" lon="-1.05249">
        <ele>173.3</ele>
        <time>2011-11-27T09:32:12Z</time>
      </trkpt>
      <trkpt lat="46.99794" lon="-1.0526">
        <ele>173.5</ele>
        <time>2011-11-27T09:32:13Z</time>
      </trkpt>
      <trkpt lat="46.99796" lon="-1.05273">
        <ele>174.9</ele>
        <time>2011-11-27T09:32:14Z</time>
      </trkpt>
      <trkpt lat="46.99799" lon="-1.05285">
        <ele>172.8</ele>
        <time>2011-11-27T09:32:15Z</time>
      </trkpt>
      <trkpt lat="46.99801" lon="-1.05293">
        <ele>172.8</ele>
        <time>2011-11-27T09:32:16Z</time>
      </trkpt>
      <trkpt lat="46.99801" lon="-1.05309">
        <ele>171.2</ele>
        <time>2011-11-27T09:32:17Z</time>
      </trkpt>
      <trkpt lat="46.99803" lon="-1.05323">
        <ele>171.4</ele>
        <time>2011-11-27T09:32:18Z</time>
      </trkpt>
      <trkpt lat="46.99807" lon="-1.05337">
        <ele>171.1</ele>
        <time>2011-11-27T09:32:19Z</time>
      </trkpt>
      <trkpt lat="46.99807" lon="-1.05353">
        <ele>172</ele>
        <time>2011-11-27T09:32:20Z</time>
      </trkpt>
      <trkpt lat="46.99809" lon="-1.05375">
        <ele>170</ele>
        <time>2011-11-27T09:32:21Z</time>
      </trkpt>
      <trkpt lat="46.9981" lon="-1.05384">
        <ele>170</ele>
        <time>2011-11-27T09:32:22Z</time>
      </trkpt>
      <trkpt lat="46.99812" lon="-1.05399">
        <ele>169.9</ele>
        <time>2011-11-27T09:32:23Z</time>
      </trkpt>
      <trkpt lat="46.99813" lon="-1.0541">
        <ele>169.3</ele>
        <time>2011-11-27T09:32:24Z</time>
      </trkpt>
      <trkpt lat="46.99809" lon="-1.05418">
        <ele>168.2</ele>
        <time>2011-11-27T09:32:25Z</time>
      </trkpt>
      <trkpt lat="46.99811" lon="-1.05429">
        <ele>168.9</ele>
        <time>2011-11-27T09:32:26Z</time>
      </trkpt>
      <trkpt lat="46.99811" lon="-1.05439">
        <ele>169</ele>
        <time>2011-11-27T09:32:27Z</time>
      </trkpt>
      <trkpt lat="46.99807" lon="-1.05452">
        <ele>167</ele>
        <time>2011-11-27T09:32:28Z</time>
      </trkpt>
      <trkpt lat="46.99804" lon="-1.05465">
        <ele>167.8</ele>
        <time>2011-11-27T09:32:29Z</time>
      </trkpt>
      <trkpt lat="46.99801" lon="-1.05476">
        <ele>167.9</ele>
        <time>2011-11-27T09:32:30Z</time>
      </trkpt>
      <trkpt lat="46.99801" lon="-1.05491">
        <ele>166.8</ele>
        <time>2011-11-27T09:32:32Z</time>
      </trkpt>
      <trkpt lat="46.99801" lon="-1.055">
        <ele>166.7</ele>
        <time>2011-11-27T09:32:33Z</time>
      </trkpt>
      <trkpt lat="46.99799" lon="-1.05513">
        <ele>166.3</ele>
        <time>2011-11-27T09:32:35Z</time>
      </trkpt>
      <trkpt lat="46.998" lon="-1.05532">
        <ele>165.1</ele>
        <time>2011-11-27T09:32:36Z</time>
      </trkpt>
      <trkpt lat="46.99798" lon="-1.05544">
        <ele>166.1</ele>
        <time>2011-11-27T09:32:37Z</time>
      </trkpt>
      <trkpt lat="46.99797" lon="-1.05555">
        <ele>164.4</ele>
        <time>2011-11-27T09:32:39Z</time>
      </trkpt>
      <trkpt lat="46.99791" lon="-1.0557">
        <ele>163.2</ele>
        <time>2011-11-27T09:32:41Z</time>
      </trkpt>
      <trkpt lat="46.99787" lon="-1.05578">
        <ele>163.8</ele>
        <time>2011-11-27T09:32:42Z</time>
      </trkpt>
      <trkpt lat="46.99779" lon="-1.05594">
        <ele>165.2</ele>
        <time>2011-11-27T09:32:43Z</time>
      </trkpt>
      <trkpt lat="46.99775" lon="-1.05602">
        <ele>165.4</ele>
        <time>2011-11-27T09:32:44Z</time>
      </trkpt>
      <trkpt lat="46.99772" lon="-1.05616">
        <ele>166.5</ele>
        <time>2011-11-27T09:32:45Z</time>
      </trkpt>
      <trkpt lat="46.99769" lon="-1.05624">
        <ele>166.5</ele>
        <time>2011-11-27T09:32:46Z</time>
      </trkpt>
      <trkpt lat="46.99767" lon="-1.05639">
        <ele>165.7</ele>
        <time>2011-11-27T09:32:47Z</time>
      </trkpt>
      <trkpt lat="46.99767" lon="-1.0565">
        <ele>165.4</ele>
        <time>2011-11-27T09:32:48Z</time>
      </trkpt>
      <trkpt lat="46.99763" lon="-1.05658">
        <ele>165.6</ele>
        <time>2011-11-27T09:32:49Z</time>
      </trkpt>
      <trkpt lat="46.99761" lon="-1.05675">
        <ele>164.5</ele>
        <time>2011-11-27T09:32:50Z</time>
      </trkpt>
      <trkpt lat="46.99759" lon="-1.0569">
        <ele>162.9</ele>
        <time>2011-11-27T09:32:51Z</time>
      </trkpt>
      <trkpt lat="46.99752" lon="-1.05698">
        <ele>163</ele>
        <time>2011-11-27T09:32:53Z</time>
      </trkpt>
      <trkpt lat="46.99752" lon="-1.05706">
        <ele>162.2</ele>
        <time>2011-11-27T09:32:54Z</time>
      </trkpt>
      <trkpt lat="46.9975" lon="-1.05713">
        <ele>161.6</ele>
        <time>2011-11-27T09:32:55Z</time>
      </trkpt>
      <trkpt lat="46.99746" lon="-1.05725">
        <ele>160.3</ele>
        <time>2011-11-27T09:32:56Z</time>
      </trkpt>
      <trkpt lat="46.99744" lon="-1.05733">
        <ele>159.7</ele>
        <time>2011-11-27T09:32:57Z</time>
      </trkpt>
      <trkpt lat="46.99742" lon="-1.0574">
        <ele>158.8</ele>
        <time>2011-11-27T09:32:58Z</time>
      </trkpt>
      <trkpt lat="46.99747" lon="-1.05745">
        <ele>158</ele>
        <time>2011-11-27T09:33:00Z</time>
      </trkpt>
      <trkpt lat="46.99752" lon="-1.0575">
        <ele>159.5</ele>
        <time>2011-11-27T09:33:01Z</time>
      </trkpt>
      <trkpt lat="46.99756" lon="-1.05754">
        <ele>159.5</ele>
        <time>2011-11-27T09:33:02Z</time>
      </trkpt>
      <trkpt lat="46.99757" lon="-1.05765">
        <ele>159.9</ele>
        <time>2011-11-27T09:33:03Z</time>
      </trkpt>
      <trkpt lat="46.99758" lon="-1.05776">
        <ele>160.4</ele>
        <time>2011-11-27T09:33:04Z</time>
      </trkpt>
      <trkpt lat="46.99761" lon="-1.05788">
        <ele>160.1</ele>
        <time>2011-11-27T09:33:07Z</time>
      </trkpt>
      <trkpt lat="46.99767" lon="-1.0579">
        <ele>159.7</ele>
        <time>2011-11-27T09:33:08Z</time>
      </trkpt>
      <trkpt lat="46.99772" lon="-1.05796">
        <ele>159.8</ele>
        <time>2011-11-27T09:33:09Z</time>
      </trkpt>
      <trkpt lat="46.99776" lon="-1.05801">
        <ele>161</ele>
        <time>2011-11-27T09:33:10Z</time>
      </trkpt>
      <trkpt lat="46.99779" lon="-1.05807">
        <ele>161.8</ele>
        <time>2011-11-27T09:33:11Z</time>
      </trkpt>
      <trkpt lat="46.99782" lon="-1.05814">
        <ele>161.7</ele>
        <time>2011-11-27T09:33:12Z</time>
      </trkpt>
      <trkpt lat="46.99786" lon="-1.05819">
        <ele>162.4</ele>
        <time>2011-11-27T09:33:13Z</time>
      </trkpt>
      <trkpt lat="46.99789" lon="-1.05826">
        <ele>164.3</ele>
        <time>2011-11-27T09:33:15Z</time>
      </trkpt>
      <trkpt lat="46.99793" lon="-1.05843">
        <ele>163</ele>
        <time>2011-11-27T09:33:18Z</time>
      </trkpt>
      <trkpt lat="46.99799" lon="-1.0585">
        <ele>163.1</ele>
        <time>2011-11-27T09:33:20Z</time>
      </trkpt>
      <trkpt lat="46.99803" lon="-1.05855">
        <ele>164</ele>
        <time>2011-11-27T09:33:21Z</time>
      </trkpt>
      <trkpt lat="46.99808" lon="-1.05865">
        <ele>163.8</ele>
        <time>2011-11-27T09:33:23Z</time>
      </trkpt>
      <trkpt lat="46.9981" lon="-1.05871">
        <ele>164.2</ele>
        <time>2011-11-27T09:33:24Z</time>
      </trkpt>
      <trkpt lat="46.99816" lon="-1.05882">
        <ele>164.2</ele>
        <time>2011-11-27T09:33:26Z</time>
      </trkpt>
      <trkpt lat="46.99816" lon="-1.05888">
        <ele>164</ele>
        <time>2011-11-27T09:33:27Z</time>
      </trkpt>
      <trkpt lat="46.99815" lon="-1.05896">
        <ele>163.1</ele>
        <time>2011-11-27T09:33:28Z</time>
      </trkpt>
      <trkpt lat="46.9982" lon="-1.05901">
        <ele>162.2</ele>
        <time>2011-11-27T09:33:29Z</time>
      </trkpt>
      <trkpt lat="46.99826" lon="-1.05913">
        <ele>162.6</ele>
        <time>2011-11-27T09:33:30Z</time>
      </trkpt>
      <trkpt lat="46.99827" lon="-1.05922">
        <ele>164.7</ele>
        <time>2011-11-27T09:33:32Z</time>
      </trkpt>
      <trkpt lat="46.99832" lon="-1.05932">
        <ele>164.3</ele>
        <time>2011-11-27T09:33:33Z</time>
      </trkpt>
      <trkpt lat="46.99835" lon="-1.05942">
        <ele>163.4</ele>
        <time>2011-11-27T09:33:35Z</time>
      </trkpt>
      <trkpt lat="46.99835" lon="-1.05952">
        <ele>162.8</ele>
        <time>2011-11-27T09:33:37Z</time>
      </trkpt>
      <trkpt lat="46.99836" lon="-1.0596">
        <ele>162.2</ele>
        <time>2011-11-27T09:33:38Z</time>
      </trkpt>
      <trkpt lat="46.9984" lon="-1.05967">
        <ele>161.2</ele>
        <time>2011-11-27T09:33:39Z</time>
      </trkpt>
      <trkpt lat="46.99844" lon="-1.05975">
        <ele>161.8</ele>
        <time>2011-11-27T09:33:40Z</time>
      </trkpt>
      <trkpt lat="46.99846" lon="-1.05982">
        <ele>160.5</ele>
        <time>2011-11-27T09:33:41Z</time>
      </trkpt>
      <trkpt lat="46.9985" lon="-1.05991">
        <ele>160.2</ele>
        <time>2011-11-27T09:33:42Z</time>
      </trkpt>
      <trkpt lat="46.99854" lon="-1.06001">
        <ele>160.6</ele>
        <time>2011-11-27T09:33:44Z</time>
      </trkpt>
      <trkpt lat="46.99857" lon="-1.06012">
        <ele>160.6</ele>
        <time>2011-11-27T09:33:45Z</time>
      </trkpt>
      <trkpt lat="46.9986" lon="-1.06018">
        <ele>160.6</ele>
        <time>2011-11-27T09:33:46Z</time>
      </trkpt>
      <trkpt lat="46.99862" lon="-1.06026">
        <ele>159.8</ele>
        <time>2011-11-27T09:33:47Z</time>
      </trkpt>
      <trkpt lat="46.99869" lon="-1.06036">
        <ele>160</ele>
        <time>2011-11-27T09:33:49Z</time>
      </trkpt>
      <trkpt lat="46.99872" lon="-1.06042">
        <ele>159.7</ele>
        <time>2011-11-27T09:33:50Z</time>
      </trkpt>
      <trkpt lat="46.99878" lon="-1.06053">
        <ele>160.5</ele>
        <time>2011-11-27T09:33:52Z</time>
      </trkpt>
      <trkpt lat="46.99883" lon="-1.06057">
        <ele>160.6</ele>
        <time>2011-11-27T09:33:54Z</time>
      </trkpt>
      <trkpt lat="46.99885" lon="-1.06066">
        <ele>159.7</ele>
        <time>2011-11-27T09:33:55Z</time>
      </trkpt>
      <trkpt lat="46.9989" lon="-1.06072">
        <ele>159.6</ele>
        <time>2011-11-27T09:33:56Z</time>
      </trkpt>
      <trkpt lat="46.999" lon="-1.06082">
        <ele>158.7</ele>
        <time>2011-11-27T09:33:58Z</time>
      </trkpt>
      <trkpt lat="46.99905" lon="-1.06086">
        <ele>157.9</ele>
        <time>2011-11-27T09:33:59Z</time>
      </trkpt>
      <trkpt lat="46.99912" lon="-1.06097">
        <ele>157.7</ele>
        <time>2011-11-27T09:34:01Z</time>
      </trkpt>
      <trkpt lat="46.99915" lon="-1.06105">
        <ele>157.8</ele>
        <time>2011-11-27T09:34:02Z</time>
      </trkpt>
      <trkpt lat="46.99922" lon="-1.06125">
        <ele>158.5</ele>
        <time>2011-11-27T09:34:03Z</time>
      </trkpt>
      <trkpt lat="46.99924" lon="-1.06137">
        <ele>158.7</ele>
        <time>2011-11-27T09:34:04Z</time>
      </trkpt>
      <trkpt lat="46.99928" lon="-1.06145">
        <ele>159.4</ele>
        <time>2011-11-27T09:34:05Z</time>
      </trkpt>
      <trkpt lat="46.99929" lon="-1.06153">
        <ele>159.6</ele>
        <time>2011-11-27T09:34:06Z</time>
      </trkpt>
      <trkpt lat="46.99933" lon="-1.06165">
        <ele>160.3</ele>
        <time>2011-11-27T09:34:07Z</time>
      </trkpt>
      <trkpt lat="46.99939" lon="-1.06174">
        <ele>159.5</ele>
        <time>2011-11-27T09:34:08Z</time>
      </trkpt>
      <trkpt lat="46.99941" lon="-1.06183">
        <ele>160.2</ele>
        <time>2011-11-27T09:34:09Z</time>
      </trkpt>
      <trkpt lat="46.99946" lon="-1.06191">
        <ele>160.7</ele>
        <time>2011-11-27T09:34:10Z</time>
      </trkpt>
      <trkpt lat="46.9995" lon="-1.06198">
        <ele>161.3</ele>
        <time>2011-11-27T09:34:11Z</time>
      </trkpt>
      <trkpt lat="46.99954" lon="-1.06207">
        <ele>159.4</ele>
        <time>2011-11-27T09:34:12Z</time>
      </trkpt>
      <trkpt lat="46.99958" lon="-1.06217">
        <ele>158</ele>
        <time>2011-11-27T09:34:13Z</time>
      </trkpt>
      <trkpt lat="46.99961" lon="-1.06228">
        <ele>157.7</ele>
        <time>2011-11-27T09:34:14Z</time>
      </trkpt>
      <trkpt lat="46.99967" lon="-1.06234">
        <ele>158</ele>
        <time>2011-11-27T09:34:15Z</time>
      </trkpt>
      <trkpt lat="46.99972" lon="-1.06243">
        <ele>158</ele>
        <time>2011-11-27T09:34:16Z</time>
      </trkpt>
      <trkpt lat="46.99976" lon="-1.06252">
        <ele>158.4</ele>
        <time>2011-11-27T09:34:17Z</time>
      </trkpt>
      <trkpt lat="46.99982" lon="-1.06264">
        <ele>158.8</ele>
        <time>2011-11-27T09:34:18Z</time>
      </trkpt>
      <trkpt lat="46.99985" lon="-1.06275">
        <ele>160.3</ele>
        <time>2011-11-27T09:34:19Z</time>
      </trkpt>
      <trkpt lat="46.99988" lon="-1.06285">
        <ele>158.2</ele>
        <time>2011-11-27T09:34:20Z</time>
      </trkpt>
      <trkpt lat="46.9999" lon="-1.06295">
        <ele>157.9</ele>
        <time>2011-11-27T09:34:21Z</time>
      </trkpt>
      <trkpt lat="46.99994" lon="-1.06307">
        <ele>157.7</ele>
        <time>2011-11-27T09:34:22Z</time>
      </trkpt>
      <trkpt lat="46.99994" lon="-1.06315">
        <ele>157.1</ele>
        <time>2011-11-27T09:34:23Z</time>
      </trkpt>
      <trkpt lat="46.99994" lon="-1.06324">
        <ele>158.2</ele>
        <time>2011-11-27T09:34:24Z</time>
      </trkpt>
      <trkpt lat="46.99996" lon="-1.06336">
        <ele>157.7</ele>
        <time>2011-11-27T09:34:25Z</time>
      </trkpt>
      <trkpt lat="46.99997" lon="-1.0635">
        <ele>156.5</ele>
        <time>2011-11-27T09:34:26Z</time>
      </trkpt>
      <trkpt lat="47" lon="-1.06359">
        <ele>156.5</ele>
        <time>2011-11-27T09:34:27Z</time>
      </trkpt>
      <trkpt lat="47.00002" lon="-1.06368">
        <ele>156.5</ele>
        <time>2011-11-27T09:34:28Z</time>
      </trkpt>
      <trkpt lat="47.00001" lon="-1.06379">
        <ele>156.5</ele>
        <time>2011-11-27T09:34:29Z</time>
      </trkpt>
      <trkpt lat="47.00002" lon="-1.0639">
        <ele>155.9</ele>
        <time>2011-11-27T09:34:30Z</time>
      </trkpt>
      <trkpt lat="47.00002" lon="-1.06399">
        <ele>155.8</ele>
        <time>2011-11-27T09:34:31Z</time>
      </trkpt>
      <trkpt lat="47" lon="-1.06407">
        <ele>154.9</ele>
        <time>2011-11-27T09:34:32Z</time>
      </trkpt>
      <trkpt lat="47.00001" lon="-1.06417">
        <ele>155.8</ele>
        <time>2011-11-27T09:34:34Z</time>
      </trkpt>
      <trkpt lat="47.00009" lon="-1.06444">
        <ele>148.9</ele>
        <time>2011-11-27T09:34:36Z</time>
      </trkpt>
      <trkpt lat="47.00004" lon="-1.06462">
        <ele>147.2</ele>
        <time>2011-11-27T09:34:40Z</time>
      </trkpt>
      <trkpt lat="47.00001" lon="-1.06471">
        <ele>147.8</ele>
        <time>2011-11-27T09:34:41Z</time>
      </trkpt>
      <trkpt lat="46.99999" lon="-1.06483">
        <ele>146.9</ele>
        <time>2011-11-27T09:34:42Z</time>
      </trkpt>
      <trkpt lat="46.99996" lon="-1.06495">
        <ele>146.3</ele>
        <time>2011-11-27T09:34:43Z</time>
      </trkpt>
      <trkpt lat="47" lon="-1.06505">
        <ele>147</ele>
        <time>2011-11-27T09:34:44Z</time>
      </trkpt>
      <trkpt lat="46.99994" lon="-1.06517">
        <ele>147.1</ele>
        <time>2011-11-27T09:34:45Z</time>
      </trkpt>
      <trkpt lat="46.9999" lon="-1.06528">
        <ele>145</ele>
        <time>2011-11-27T09:34:46Z</time>
      </trkpt>
      <trkpt lat="46.99985" lon="-1.06541">
        <ele>144.4</ele>
        <time>2011-11-27T09:34:48Z</time>
      </trkpt>
      <trkpt lat="46.99978" lon="-1.06557">
        <ele>144.5</ele>
        <time>2011-11-27T09:34:49Z</time>
      </trkpt>
      <trkpt lat="46.99974" lon="-1.06568">
        <ele>144.1</ele>
        <time>2011-11-27T09:34:50Z</time>
      </trkpt>
      <trkpt lat="46.99969" lon="-1.06576">
        <ele>144.2</ele>
        <time>2011-11-27T09:34:51Z</time>
      </trkpt>
      <trkpt lat="46.99961" lon="-1.06587">
        <ele>144.1</ele>
        <time>2011-11-27T09:34:52Z</time>
      </trkpt>
      <trkpt lat="46.99954" lon="-1.06597">
        <ele>143.8</ele>
        <time>2011-11-27T09:34:53Z</time>
      </trkpt>
      <trkpt lat="46.99948" lon="-1.06606">
        <ele>144</ele>
        <time>2011-11-27T09:34:54Z</time>
      </trkpt>
      <trkpt lat="46.99943" lon="-1.06615">
        <ele>144.2</ele>
        <time>2011-11-27T09:34:55Z</time>
      </trkpt>
      <trkpt lat="46.99936" lon="-1.06625">
        <ele>143.9</ele>
        <time>2011-11-27T09:34:56Z</time>
      </trkpt>
      <trkpt lat="46.9993" lon="-1.06634">
        <ele>143.8</ele>
        <time>2011-11-27T09:34:57Z</time>
      </trkpt>
      <trkpt lat="46.99925" lon="-1.06644">
        <ele>144.1</ele>
        <time>2011-11-27T09:34:58Z</time>
      </trkpt>
      <trkpt lat="46.9992" lon="-1.06654">
        <ele>143.8</ele>
        <time>2011-11-27T09:34:59Z</time>
      </trkpt>
      <trkpt lat="46.99916" lon="-1.06665">
        <ele>143.3</ele>
        <time>2011-11-27T09:35:00Z</time>
      </trkpt>
      <trkpt lat="46.99908" lon="-1.06684">
        <ele>142.4</ele>
        <time>2011-11-27T09:35:02Z</time>
      </trkpt>
      <trkpt lat="46.99904" lon="-1.06694">
        <ele>142.3</ele>
        <time>2011-11-27T09:35:03Z</time>
      </trkpt>
      <trkpt lat="46.99901" lon="-1.06714">
        <ele>142.5</ele>
        <time>2011-11-27T09:35:04Z</time>
      </trkpt>
      <trkpt lat="46.99898" lon="-1.06724">
        <ele>140.2</ele>
        <time>2011-11-27T09:35:05Z</time>
      </trkpt>
      <trkpt lat="46.99899" lon="-1.06734">
        <ele>141.9</ele>
        <time>2011-11-27T09:35:06Z</time>
      </trkpt>
      <trkpt lat="46.99898" lon="-1.06742">
        <ele>142.3</ele>
        <time>2011-11-27T09:35:07Z</time>
      </trkpt>
      <trkpt lat="46.99896" lon="-1.06754">
        <ele>141.8</ele>
        <time>2011-11-27T09:35:08Z</time>
      </trkpt>
      <trkpt lat="46.99895" lon="-1.06766">
        <ele>142.3</ele>
        <time>2011-11-27T09:35:09Z</time>
      </trkpt>
      <trkpt lat="46.99894" lon="-1.06779">
        <ele>141.8</ele>
        <time>2011-11-27T09:35:10Z</time>
      </trkpt>
      <trkpt lat="46.99893" lon="-1.06791">
        <ele>141.8</ele>
        <time>2011-11-27T09:35:11Z</time>
      </trkpt>
      <trkpt lat="46.9989" lon="-1.06804">
        <ele>140.4</ele>
        <time>2011-11-27T09:35:12Z</time>
      </trkpt>
      <trkpt lat="46.9989" lon="-1.06813">
        <ele>141.9</ele>
        <time>2011-11-27T09:35:13Z</time>
      </trkpt>
      <trkpt lat="46.9989" lon="-1.06823">
        <ele>141.7</ele>
        <time>2011-11-27T09:35:14Z</time>
      </trkpt>
      <trkpt lat="46.99888" lon="-1.0683">
        <ele>142</ele>
        <time>2011-11-27T09:35:15Z</time>
      </trkpt>
      <trkpt lat="46.99884" lon="-1.0684">
        <ele>141.9</ele>
        <time>2011-11-27T09:35:16Z</time>
      </trkpt>
      <trkpt lat="46.99878" lon="-1.06847">
        <ele>142.6</ele>
        <time>2011-11-27T09:35:17Z</time>
      </trkpt>
      <trkpt lat="46.99872" lon="-1.06852">
        <ele>141.5</ele>
        <time>2011-11-27T09:35:18Z</time>
      </trkpt>
      <trkpt lat="46.99868" lon="-1.06856">
        <ele>141.6</ele>
        <time>2011-11-27T09:35:20Z</time>
      </trkpt>
      <trkpt lat="46.99858" lon="-1.06869">
        <ele>142.9</ele>
        <time>2011-11-27T09:35:22Z</time>
      </trkpt>
      <trkpt lat="46.99855" lon="-1.06875">
        <ele>143.5</ele>
        <time>2011-11-27T09:35:23Z</time>
      </trkpt>
      <trkpt lat="46.99851" lon="-1.0688">
        <ele>143.3</ele>
        <time>2011-11-27T09:35:25Z</time>
      </trkpt>
      <trkpt lat="46.99847" lon="-1.06889">
        <ele>143.7</ele>
        <time>2011-11-27T09:35:26Z</time>
      </trkpt>
      <trkpt lat="46.99842" lon="-1.06899">
        <ele>144.5</ele>
        <time>2011-11-27T09:35:27Z</time>
      </trkpt>
      <trkpt lat="46.99838" lon="-1.06905">
        <ele>144.9</ele>
        <time>2011-11-27T09:35:28Z</time>
      </trkpt>
      <trkpt lat="46.99825" lon="-1.06907">
        <ele>142.6</ele>
        <time>2011-11-27T09:35:29Z</time>
      </trkpt>
      <trkpt lat="46.99817" lon="-1.06907">
        <ele>142.3</ele>
        <time>2011-11-27T09:35:30Z</time>
      </trkpt>
      <trkpt lat="46.99808" lon="-1.06902">
        <ele>142.2</ele>
        <time>2011-11-27T09:35:32Z</time>
      </trkpt>
      <trkpt lat="46.99801" lon="-1.06895">
        <ele>141.6</ele>
        <time>2011-11-27T09:35:33Z</time>
      </trkpt>
      <trkpt lat="46.99794" lon="-1.06889">
        <ele>141.6</ele>
        <time>2011-11-27T09:35:34Z</time>
      </trkpt>
      <trkpt lat="46.99789" lon="-1.06885">
        <ele>141.8</ele>
        <time>2011-11-27T09:35:35Z</time>
      </trkpt>
      <trkpt lat="46.99784" lon="-1.06881">
        <ele>142</ele>
        <time>2011-11-27T09:35:36Z</time>
      </trkpt>
      <trkpt lat="46.99788" lon="-1.0688">
        <ele>141.7</ele>
        <time>2011-11-27T09:35:37Z</time>
      </trkpt>
      <trkpt lat="46.99785" lon="-1.06874">
        <ele>141.5</ele>
        <time>2011-11-27T09:35:39Z</time>
      </trkpt>
      <trkpt lat="46.99778" lon="-1.06871">
        <ele>141.4</ele>
        <time>2011-11-27T09:35:41Z</time>
      </trkpt>
      <trkpt lat="46.9977" lon="-1.06867">
        <ele>141.3</ele>
        <time>2011-11-27T09:35:43Z</time>
      </trkpt>
      <trkpt lat="46.99764" lon="-1.06866">
        <ele>140.1</ele>
        <time>2011-11-27T09:35:45Z</time>
      </trkpt>
      <trkpt lat="46.99758" lon="-1.06872">
        <ele>138.6</ele>
        <time>2011-11-27T09:35:47Z</time>
      </trkpt>
      <trkpt lat="46.99759" lon="-1.06884">
        <ele>138.8</ele>
        <time>2011-11-27T09:35:49Z</time>
      </trkpt>
      <trkpt lat="46.99761" lon="-1.06893">
        <ele>138.9</ele>
        <time>2011-11-27T09:35:50Z</time>
      </trkpt>
      <trkpt lat="46.99761" lon="-1.06899">
        <ele>138.5</ele>
        <time>2011-11-27T09:35:51Z</time>
      </trkpt>
      <trkpt lat="46.9976" lon="-1.06906">
        <ele>138.3</ele>
        <time>2011-11-27T09:35:52Z</time>
      </trkpt>
      <trkpt lat="46.9976" lon="-1.06912">
        <ele>138.4</ele>
        <time>2011-11-27T09:35:53Z</time>
      </trkpt>
      <trkpt lat="46.99762" lon="-1.06924">
        <ele>138.9</ele>
        <time>2011-11-27T09:35:55Z</time>
      </trkpt>
      <trkpt lat="46.99762" lon="-1.06933">
        <ele>137.5</ele>
        <time>2011-11-27T09:35:56Z</time>
      </trkpt>
      <trkpt lat="46.99762" lon="-1.06946">
        <ele>136.6</ele>
        <time>2011-11-27T09:35:58Z</time>
      </trkpt>
      <trkpt lat="46.99763" lon="-1.06959">
        <ele>136.7</ele>
        <time>2011-11-27T09:36:00Z</time>
      </trkpt>
      <trkpt lat="46.99765" lon="-1.06966">
        <ele>136.9</ele>
        <time>2011-11-27T09:36:01Z</time>
      </trkpt>
      <trkpt lat="46.99766" lon="-1.06978">
        <ele>136.3</ele>
        <time>2011-11-27T09:36:02Z</time>
      </trkpt>
      <trkpt lat="46.9977" lon="-1.06982">
        <ele>136.1</ele>
        <time>2011-11-27T09:36:03Z</time>
      </trkpt>
      <trkpt lat="46.99774" lon="-1.06994">
        <ele>135.5</ele>
        <time>2011-11-27T09:36:05Z</time>
      </trkpt>
      <trkpt lat="46.99778" lon="-1.06998">
        <ele>135.1</ele>
        <time>2011-11-27T09:36:06Z</time>
      </trkpt>
      <trkpt lat="46.99782" lon="-1.07002">
        <ele>135.1</ele>
        <time>2011-11-27T09:36:07Z</time>
      </trkpt>
      <trkpt lat="46.99787" lon="-1.07005">
        <ele>135.6</ele>
        <time>2011-11-27T09:36:08Z</time>
      </trkpt>
      <trkpt lat="46.99791" lon="-1.07007">
        <ele>135.4</ele>
        <time>2011-11-27T09:36:09Z</time>
      </trkpt>
      <trkpt lat="46.99796" lon="-1.07009">
        <ele>135.4</ele>
        <time>2011-11-27T09:36:10Z</time>
      </trkpt>
      <trkpt lat="46.99802" lon="-1.07011">
        <ele>135.3</ele>
        <time>2011-11-27T09:36:11Z</time>
      </trkpt>
      <trkpt lat="46.99807" lon="-1.07013">
        <ele>135.2</ele>
        <time>2011-11-27T09:36:12Z</time>
      </trkpt>
      <trkpt lat="46.99812" lon="-1.07014">
        <ele>135.3</ele>
        <time>2011-11-27T09:36:13Z</time>
      </trkpt>
      <trkpt lat="46.99817" lon="-1.07016">
        <ele>134.8</ele>
        <time>2011-11-27T09:36:14Z</time>
      </trkpt>
      <trkpt lat="46.99823" lon="-1.07017">
        <ele>134.3</ele>
        <time>2011-11-27T09:36:15Z</time>
      </trkpt>
      <trkpt lat="46.99829" lon="-1.07019">
        <ele>134</ele>
        <time>2011-11-27T09:36:16Z</time>
      </trkpt>
      <trkpt lat="46.99835" lon="-1.07021">
        <ele>134.2</ele>
        <time>2011-11-27T09:36:17Z</time>
      </trkpt>
      <trkpt lat="46.99841" lon="-1.07022">
        <ele>134.2</ele>
        <time>2011-11-27T09:36:18Z</time>
      </trkpt>
      <trkpt lat="46.99848" lon="-1.07023">
        <ele>134.2</ele>
        <time>2011-11-27T09:36:19Z</time>
      </trkpt>
      <trkpt lat="46.99859" lon="-1.07027">
        <ele>134.8</ele>
        <time>2011-11-27T09:36:20Z</time>
      </trkpt>
      <trkpt lat="46.99866" lon="-1.0703">
        <ele>134.9</ele>
        <time>2011-11-27T09:36:21Z</time>
      </trkpt>
      <trkpt lat="46.99872" lon="-1.07035">
        <ele>134.6</ele>
        <time>2011-11-27T09:36:22Z</time>
      </trkpt>
      <trkpt lat="46.9988" lon="-1.0704">
        <ele>134.5</ele>
        <time>2011-11-27T09:36:23Z</time>
      </trkpt>
      <trkpt lat="46.99885" lon="-1.07044">
        <ele>135</ele>
        <time>2011-11-27T09:36:24Z</time>
      </trkpt>
      <trkpt lat="46.9989" lon="-1.07049">
        <ele>135</ele>
        <time>2011-11-27T09:36:25Z</time>
      </trkpt>
      <trkpt lat="46.99894" lon="-1.07056">
        <ele>134.4</ele>
        <time>2011-11-27T09:36:26Z</time>
      </trkpt>
      <trkpt lat="46.99897" lon="-1.07069">
        <ele>134.8</ele>
        <time>2011-11-27T09:36:28Z</time>
      </trkpt>
      <trkpt lat="46.999" lon="-1.07078">
        <ele>135.1</ele>
        <time>2011-11-27T09:36:29Z</time>
      </trkpt>
      <trkpt lat="46.99902" lon="-1.07089">
        <ele>135.3</ele>
        <time>2011-11-27T09:36:30Z</time>
      </trkpt>
      <trkpt lat="46.99904" lon="-1.07099">
        <ele>135.4</ele>
        <time>2011-11-27T09:36:31Z</time>
      </trkpt>
      <trkpt lat="46.99906" lon="-1.07109">
        <ele>136</ele>
        <time>2011-11-27T09:36:32Z</time>
      </trkpt>
      <trkpt lat="46.99909" lon="-1.07132">
        <ele>133.3</ele>
        <time>2011-11-27T09:36:33Z</time>
      </trkpt>
      <trkpt lat="46.99914" lon="-1.07148">
        <ele>132.9</ele>
        <time>2011-11-27T09:36:34Z</time>
      </trkpt>
      <trkpt lat="46.99918" lon="-1.07172">
        <ele>130.5</ele>
        <time>2011-11-27T09:36:35Z</time>
      </trkpt>
      <trkpt lat="46.99918" lon="-1.07182">
        <ele>130.1</ele>
        <time>2011-11-27T09:36:36Z</time>
      </trkpt>
      <trkpt lat="46.99918" lon="-1.07197">
        <ele>129.9</ele>
        <time>2011-11-27T09:36:37Z</time>
      </trkpt>
      <trkpt lat="46.99916" lon="-1.07213">
        <ele>128.3</ele>
        <time>2011-11-27T09:36:38Z</time>
      </trkpt>
      <trkpt lat="46.99914" lon="-1.0723">
        <ele>128.4</ele>
        <time>2011-11-27T09:36:39Z</time>
      </trkpt>
      <trkpt lat="46.99915" lon="-1.07245">
        <ele>129.8</ele>
        <time>2011-11-27T09:36:40Z</time>
      </trkpt>
      <trkpt lat="46.99921" lon="-1.07261">
        <ele>127.5</ele>
        <time>2011-11-27T09:36:41Z</time>
      </trkpt>
      <trkpt lat="46.99925" lon="-1.07277">
        <ele>124.7</ele>
        <time>2011-11-27T09:36:42Z</time>
      </trkpt>
      <trkpt lat="46.99925" lon="-1.07291">
        <ele>125.5</ele>
        <time>2011-11-27T09:36:43Z</time>
      </trkpt>
      <trkpt lat="46.99925" lon="-1.07305">
        <ele>125.9</ele>
        <time>2011-11-27T09:36:44Z</time>
      </trkpt>
      <trkpt lat="46.99923" lon="-1.07318">
        <ele>125.1</ele>
        <time>2011-11-27T09:36:45Z</time>
      </trkpt>
      <trkpt lat="46.99921" lon="-1.07331">
        <ele>126.1</ele>
        <time>2011-11-27T09:36:46Z</time>
      </trkpt>
      <trkpt lat="46.99918" lon="-1.07347">
        <ele>125.1</ele>
        <time>2011-11-27T09:36:47Z</time>
      </trkpt>
      <trkpt lat="46.99915" lon="-1.07356">
        <ele>123.7</ele>
        <time>2011-11-27T09:36:48Z</time>
      </trkpt>
      <trkpt lat="46.99909" lon="-1.07372">
        <ele>123.4</ele>
        <time>2011-11-27T09:36:49Z</time>
      </trkpt>
      <trkpt lat="46.99905" lon="-1.07383">
        <ele>124.1</ele>
        <time>2011-11-27T09:36:50Z</time>
      </trkpt>
      <trkpt lat="46.99902" lon="-1.07389">
        <ele>123.9</ele>
        <time>2011-11-27T09:36:51Z</time>
      </trkpt>
      <trkpt lat="46.99895" lon="-1.07397">
        <ele>123.8</ele>
        <time>2011-11-27T09:36:52Z</time>
      </trkpt>
      <trkpt lat="46.99894" lon="-1.07406">
        <ele>123.7</ele>
        <time>2011-11-27T09:36:53Z</time>
      </trkpt>
      <trkpt lat="46.99894" lon="-1.07415">
        <ele>123.5</ele>
        <time>2011-11-27T09:36:54Z</time>
      </trkpt>
      <trkpt lat="46.99901" lon="-1.07412">
        <ele>123</ele>
        <time>2011-11-27T09:36:55Z</time>
      </trkpt>
      <trkpt lat="46.99908" lon="-1.07414">
        <ele>121.9</ele>
        <time>2011-11-27T09:36:57Z</time>
      </trkpt>
      <trkpt lat="46.99914" lon="-1.07414">
        <ele>121.6</ele>
        <time>2011-11-27T09:36:58Z</time>
      </trkpt>
      <trkpt lat="46.99922" lon="-1.07419">
        <ele>120.3</ele>
        <time>2011-11-27T09:36:59Z</time>
      </trkpt>
      <trkpt lat="46.9993" lon="-1.07421">
        <ele>119.5</ele>
        <time>2011-11-27T09:37:00Z</time>
      </trkpt>
      <trkpt lat="46.99939" lon="-1.07421">
        <ele>118.3</ele>
        <time>2011-11-27T09:37:01Z</time>
      </trkpt>
      <trkpt lat="46.99947" lon="-1.07421">
        <ele>118.6</ele>
        <time>2011-11-27T09:37:02Z</time>
      </trkpt>
      <trkpt lat="46.99954" lon="-1.07419">
        <ele>118.4</ele>
        <time>2011-11-27T09:37:03Z</time>
      </trkpt>
      <trkpt lat="46.99962" lon="-1.07418">
        <ele>117.7</ele>
        <time>2011-11-27T09:37:04Z</time>
      </trkpt>
      <trkpt lat="46.99968" lon="-1.07417">
        <ele>118.2</ele>
        <time>2011-11-27T09:37:05Z</time>
      </trkpt>
      <trkpt lat="46.99976" lon="-1.07417">
        <ele>118.8</ele>
        <time>2011-11-27T09:37:06Z</time>
      </trkpt>
      <trkpt lat="46.99983" lon="-1.07418">
        <ele>118.8</ele>
        <time>2011-11-27T09:37:07Z</time>
      </trkpt>
      <trkpt lat="46.99987" lon="-1.07414">
        <ele>118.6</ele>
        <time>2011-11-27T09:37:08Z</time>
      </trkpt>
      <trkpt lat="46.99993" lon="-1.0741">
        <ele>119</ele>
        <time>2011-11-27T09:37:10Z</time>
      </trkpt>
      <trkpt lat="46.99997" lon="-1.07404">
        <ele>119</ele>
        <time>2011-11-27T09:37:11Z</time>
      </trkpt>
      <trkpt lat="47.00006" lon="-1.07396">
        <ele>118.5</ele>
        <time>2011-11-27T09:37:12Z</time>
      </trkpt>
      <trkpt lat="47.00014" lon="-1.07392">
        <ele>118.3</ele>
        <time>2011-11-27T09:37:14Z</time>
      </trkpt>
      <trkpt lat="47.00022" lon="-1.07389">
        <ele>117.8</ele>
        <time>2011-11-27T09:37:16Z</time>
      </trkpt>
      <trkpt lat="47.00027" lon="-1.07384">
        <ele>119.3</ele>
        <time>2011-11-27T09:37:18Z</time>
      </trkpt>
      <trkpt lat="47.00034" lon="-1.07379">
        <ele>119.8</ele>
        <time>2011-11-27T09:37:20Z</time>
      </trkpt>
      <trkpt lat="47.00039" lon="-1.07377">
        <ele>120.4</ele>
        <time>2011-11-27T09:37:21Z</time>
      </trkpt>
      <trkpt lat="47.00044" lon="-1.07375">
        <ele>120.8</ele>
        <time>2011-11-27T09:37:22Z</time>
      </trkpt>
      <trkpt lat="47.00049" lon="-1.07375">
        <ele>120.9</ele>
        <time>2011-11-27T09:37:23Z</time>
      </trkpt>
      <trkpt lat="47.00054" lon="-1.07372">
        <ele>121.3</ele>
        <time>2011-11-27T09:37:24Z</time>
      </trkpt>
      <trkpt lat="47.0006" lon="-1.07366">
        <ele>120.8</ele>
        <time>2011-11-27T09:37:26Z</time>
      </trkpt>
      <trkpt lat="47.00066" lon="-1.0736">
        <ele>122.4</ele>
        <time>2011-11-27T09:37:28Z</time>
      </trkpt>
      <trkpt lat="47.00071" lon="-1.07356">
        <ele>123.2</ele>
        <time>2011-11-27T09:37:30Z</time>
      </trkpt>
      <trkpt lat="47.00079" lon="-1.0735">
        <ele>124.1</ele>
        <time>2011-11-27T09:37:32Z</time>
      </trkpt>
      <trkpt lat="47.00083" lon="-1.07347">
        <ele>124.3</ele>
        <time>2011-11-27T09:37:33Z</time>
      </trkpt>
      <trkpt lat="47.00088" lon="-1.07341">
        <ele>124.9</ele>
        <time>2011-11-27T09:37:35Z</time>
      </trkpt>
      <trkpt lat="47.00096" lon="-1.07339">
        <ele>124.4</ele>
        <time>2011-11-27T09:37:37Z</time>
      </trkpt>
      <trkpt lat="47.00103" lon="-1.07339">
        <ele>123.8</ele>
        <time>2011-11-27T09:37:39Z</time>
      </trkpt>
      <trkpt lat="47.00107" lon="-1.07336">
        <ele>123.8</ele>
        <time>2011-11-27T09:37:41Z</time>
      </trkpt>
      <trkpt lat="47.00113" lon="-1.07332">
        <ele>124</ele>
        <time>2011-11-27T09:37:42Z</time>
      </trkpt>
      <trkpt lat="47.00119" lon="-1.07329">
        <ele>122.9</ele>
        <time>2011-11-27T09:37:44Z</time>
      </trkpt>
      <trkpt lat="47.00125" lon="-1.07323">
        <ele>122.4</ele>
        <time>2011-11-27T09:37:46Z</time>
      </trkpt>
      <trkpt lat="47.00131" lon="-1.07319">
        <ele>122.8</ele>
        <time>2011-11-27T09:37:48Z</time>
      </trkpt>
      <trkpt lat="47.00136" lon="-1.07316">
        <ele>123.9</ele>
        <time>2011-11-27T09:37:51Z</time>
      </trkpt>
      <trkpt lat="47.00148" lon="-1.07312">
        <ele>123.2</ele>
        <time>2011-11-27T09:37:53Z</time>
      </trkpt>
      <trkpt lat="47.00154" lon="-1.07313">
        <ele>125.6</ele>
        <time>2011-11-27T09:37:55Z</time>
      </trkpt>
      <trkpt lat="47.00158" lon="-1.07308">
        <ele>127.9</ele>
        <time>2011-11-27T09:37:57Z</time>
      </trkpt>
      <trkpt lat="47.00162" lon="-1.07304">
        <ele>127.5</ele>
        <time>2011-11-27T09:37:59Z</time>
      </trkpt>
      <trkpt lat="47.0017" lon="-1.07303">
        <ele>127.1</ele>
        <time>2011-11-27T09:38:01Z</time>
      </trkpt>
      <trkpt lat="47.00178" lon="-1.07303">
        <ele>128.8</ele>
        <time>2011-11-27T09:38:03Z</time>
      </trkpt>
      <trkpt lat="47.00185" lon="-1.07298">
        <ele>129.6</ele>
        <time>2011-11-27T09:38:05Z</time>
      </trkpt>
      <trkpt lat="47.00193" lon="-1.07296">
        <ele>130.5</ele>
        <time>2011-11-27T09:38:07Z</time>
      </trkpt>
      <trkpt lat="47.00197" lon="-1.07293">
        <ele>130.3</ele>
        <time>2011-11-27T09:38:08Z</time>
      </trkpt>
      <trkpt lat="47.00206" lon="-1.07292">
        <ele>131</ele>
        <time>2011-11-27T09:38:10Z</time>
      </trkpt>
      <trkpt lat="47.00215" lon="-1.07291">
        <ele>130.6</ele>
        <time>2011-11-27T09:38:12Z</time>
      </trkpt>
      <trkpt lat="47.00217" lon="-1.07285">
        <ele>130.9</ele>
        <time>2011-11-27T09:38:14Z</time>
      </trkpt>
      <trkpt lat="47.00223" lon="-1.07283">
        <ele>131.1</ele>
        <time>2011-11-27T09:38:16Z</time>
      </trkpt>
      <trkpt lat="47.00229" lon="-1.07284">
        <ele>130.7</ele>
        <time>2011-11-27T09:38:18Z</time>
      </trkpt>
      <trkpt lat="47.00229" lon="-1.07278">
        <ele>134.5</ele>
        <time>2011-11-27T09:38:23Z</time>
      </trkpt>
      <trkpt lat="47.00233" lon="-1.0728">
        <ele>133</ele>
        <time>2011-11-27T09:38:24Z</time>
      </trkpt>
      <trkpt lat="47.00237" lon="-1.07275">
        <ele>132.6</ele>
        <time>2011-11-27T09:38:28Z</time>
      </trkpt>
      <trkpt lat="47.00246" lon="-1.07274">
        <ele>134</ele>
        <time>2011-11-27T09:38:30Z</time>
      </trkpt>
      <trkpt lat="47.00251" lon="-1.07274">
        <ele>132.9</ele>
        <time>2011-11-27T09:38:34Z</time>
      </trkpt>
      <trkpt lat="47.00254" lon="-1.07268">
        <ele>133.6</ele>
        <time>2011-11-27T09:38:37Z</time>
      </trkpt>
      <trkpt lat="47.00259" lon="-1.07266">
        <ele>134.6</ele>
        <time>2011-11-27T09:38:40Z</time>
      </trkpt>
      <trkpt lat="47.00264" lon="-1.07266">
        <ele>134.6</ele>
        <time>2011-11-27T09:38:42Z</time>
      </trkpt>
      <trkpt lat="47.0027" lon="-1.07266">
        <ele>133.2</ele>
        <time>2011-11-27T09:38:44Z</time>
      </trkpt>
      <trkpt lat="47.00275" lon="-1.07264">
        <ele>131.6</ele>
        <time>2011-11-27T09:38:48Z</time>
      </trkpt>
      <trkpt lat="47.00281" lon="-1.07264">
        <ele>133.1</ele>
        <time>2011-11-27T09:38:51Z</time>
      </trkpt>
      <trkpt lat="47.00288" lon="-1.07265">
        <ele>134</ele>
        <time>2011-11-27T09:38:54Z</time>
      </trkpt>
      <trkpt lat="47.00294" lon="-1.07262">
        <ele>133.6</ele>
        <time>2011-11-27T09:38:56Z</time>
      </trkpt>
      <trkpt lat="47.00304" lon="-1.07267">
        <ele>133</ele>
        <time>2011-11-27T09:38:59Z</time>
      </trkpt>
      <trkpt lat="47.00309" lon="-1.0727">
        <ele>131.4</ele>
        <time>2011-11-27T09:39:01Z</time>
      </trkpt>
      <trkpt lat="47.00313" lon="-1.07266">
        <ele>131.4</ele>
        <time>2011-11-27T09:39:03Z</time>
      </trkpt>
      <trkpt lat="47.00318" lon="-1.07267">
        <ele>132.7</ele>
        <time>2011-11-27T09:39:05Z</time>
      </trkpt>
      <trkpt lat="47.00323" lon="-1.07269">
        <ele>133.3</ele>
        <time>2011-11-27T09:39:06Z</time>
      </trkpt>
      <trkpt lat="47.00327" lon="-1.07264">
        <ele>131.6</ele>
        <time>2011-11-27T09:39:09Z</time>
      </trkpt>
      <trkpt lat="47.00333" lon="-1.07259">
        <ele>131.1</ele>
        <time>2011-11-27T09:39:11Z</time>
      </trkpt>
      <trkpt lat="47.00338" lon="-1.07257">
        <ele>131.7</ele>
        <time>2011-11-27T09:39:13Z</time>
      </trkpt>
      <trkpt lat="47.00343" lon="-1.07257">
        <ele>130.1</ele>
        <time>2011-11-27T09:39:14Z</time>
      </trkpt>
      <trkpt lat="47.00349" lon="-1.07257">
        <ele>131.6</ele>
        <time>2011-11-27T09:39:16Z</time>
      </trkpt>
      <trkpt lat="47.00357" lon="-1.07254">
        <ele>132.4</ele>
        <time>2011-11-27T09:39:18Z</time>
      </trkpt>
      <trkpt lat="47.00362" lon="-1.07254">
        <ele>132.6</ele>
        <time>2011-11-27T09:39:19Z</time>
      </trkpt>
      <trkpt lat="47.00368" lon="-1.07251">
        <ele>133.3</ele>
        <time>2011-11-27T09:39:21Z</time>
      </trkpt>
      <trkpt lat="47.00373" lon="-1.07249">
        <ele>133.8</ele>
        <time>2011-11-27T09:39:22Z</time>
      </trkpt>
      <trkpt lat="47.00379" lon="-1.07251">
        <ele>133.6</ele>
        <time>2011-11-27T09:39:23Z</time>
      </trkpt>
      <trkpt lat="47.00388" lon="-1.07252">
        <ele>133.6</ele>
        <time>2011-11-27T09:39:25Z</time>
      </trkpt>
      <trkpt lat="47.00392" lon="-1.07256">
        <ele>133.5</ele>
        <time>2011-11-27T09:39:26Z</time>
      </trkpt>
      <trkpt lat="47.00396" lon="-1.07255">
        <ele>133.4</ele>
        <time>2011-11-27T09:39:28Z</time>
      </trkpt>
      <trkpt lat="47.00402" lon="-1.07256">
        <ele>133.3</ele>
        <time>2011-11-27T09:39:29Z</time>
      </trkpt>
      <trkpt lat="47.00412" lon="-1.07252">
        <ele>133.5</ele>
        <time>2011-11-27T09:39:31Z</time>
      </trkpt>
      <trkpt lat="47.00416" lon="-1.07249">
        <ele>133.8</ele>
        <time>2011-11-27T09:39:32Z</time>
      </trkpt>
      <trkpt lat="47.00423" lon="-1.07249">
        <ele>133.2</ele>
        <time>2011-11-27T09:39:35Z</time>
      </trkpt>
      <trkpt lat="47.00427" lon="-1.07249">
        <ele>133.1</ele>
        <time>2011-11-27T09:39:36Z</time>
      </trkpt>
      <trkpt lat="47.00436" lon="-1.07245">
        <ele>134.3</ele>
        <time>2011-11-27T09:39:38Z</time>
      </trkpt>
      <trkpt lat="47.00441" lon="-1.07242">
        <ele>135.5</ele>
        <time>2011-11-27T09:39:39Z</time>
      </trkpt>
      <trkpt lat="47.00445" lon="-1.07235">
        <ele>135.4</ele>
        <time>2011-11-27T09:39:41Z</time>
      </trkpt>
      <trkpt lat="47.00449" lon="-1.07231">
        <ele>136.5</ele>
        <time>2011-11-27T09:39:42Z</time>
      </trkpt>
      <trkpt lat="47.00452" lon="-1.07225">
        <ele>136.5</ele>
        <time>2011-11-27T09:39:44Z</time>
      </trkpt>
      <trkpt lat="47.0046" lon="-1.07218">
        <ele>137.4</ele>
        <time>2011-11-27T09:39:46Z</time>
      </trkpt>
      <trkpt lat="47.00465" lon="-1.07211">
        <ele>137.6</ele>
        <time>2011-11-27T09:39:48Z</time>
      </trkpt>
      <trkpt lat="47.0047" lon="-1.07208">
        <ele>137.1</ele>
        <time>2011-11-27T09:39:50Z</time>
      </trkpt>
      <trkpt lat="47.00474" lon="-1.07201">
        <ele>136.7</ele>
        <time>2011-11-27T09:39:52Z</time>
      </trkpt>
      <trkpt lat="47.00482" lon="-1.07198">
        <ele>134.3</ele>
        <time>2011-11-27T09:39:54Z</time>
      </trkpt>
      <trkpt lat="47.00488" lon="-1.07193">
        <ele>134</ele>
        <time>2011-11-27T09:39:55Z</time>
      </trkpt>
      <trkpt lat="47.00496" lon="-1.07185">
        <ele>134.1</ele>
        <time>2011-11-27T09:39:57Z</time>
      </trkpt>
      <trkpt lat="47.00499" lon="-1.0718">
        <ele>133.5</ele>
        <time>2011-11-27T09:39:58Z</time>
      </trkpt>
      <trkpt lat="47.00507" lon="-1.07172">
        <ele>132.9</ele>
        <time>2011-11-27T09:40:00Z</time>
      </trkpt>
      <trkpt lat="47.00513" lon="-1.07166">
        <ele>130</ele>
        <time>2011-11-27T09:40:03Z</time>
      </trkpt>
      <trkpt lat="47.00518" lon="-1.0716">
        <ele>131.6</ele>
        <time>2011-11-27T09:40:05Z</time>
      </trkpt>
      <trkpt lat="47.00522" lon="-1.07156">
        <ele>131.5</ele>
        <time>2011-11-27T09:40:06Z</time>
      </trkpt>
      <trkpt lat="47.00526" lon="-1.0715">
        <ele>131.3</ele>
        <time>2011-11-27T09:40:08Z</time>
      </trkpt>
      <trkpt lat="47.0053" lon="-1.07146">
        <ele>133.6</ele>
        <time>2011-11-27T09:40:10Z</time>
      </trkpt>
      <trkpt lat="47.00534" lon="-1.0714">
        <ele>134.8</ele>
        <time>2011-11-27T09:40:12Z</time>
      </trkpt>
      <trkpt lat="47.00538" lon="-1.07134">
        <ele>134.4</ele>
        <time>2011-11-27T09:40:13Z</time>
      </trkpt>
      <trkpt lat="47.00541" lon="-1.07128">
        <ele>134.8</ele>
        <time>2011-11-27T09:40:14Z</time>
      </trkpt>
      <trkpt lat="47.00545" lon="-1.07126">
        <ele>135.4</ele>
        <time>2011-11-27T09:40:15Z</time>
      </trkpt>
      <trkpt lat="47.0055" lon="-1.0712">
        <ele>137.2</ele>
        <time>2011-11-27T09:40:17Z</time>
      </trkpt>
      <trkpt lat="47.00554" lon="-1.07115">
        <ele>137.3</ele>
        <time>2011-11-27T09:40:18Z</time>
      </trkpt>
      <trkpt lat="47.00556" lon="-1.07109">
        <ele>139.5</ele>
        <time>2011-11-27T09:40:20Z</time>
      </trkpt>
      <trkpt lat="47.00562" lon="-1.07104">
        <ele>137.8</ele>
        <time>2011-11-27T09:40:23Z</time>
      </trkpt>
      <trkpt lat="47.00569" lon="-1.07099">
        <ele>136.2</ele>
        <time>2011-11-27T09:40:26Z</time>
      </trkpt>
      <trkpt lat="47.00576" lon="-1.07091">
        <ele>138.2</ele>
        <time>2011-11-27T09:40:28Z</time>
      </trkpt>
      <trkpt lat="47.00582" lon="-1.07086">
        <ele>137.2</ele>
        <time>2011-11-27T09:40:30Z</time>
      </trkpt>
      <trkpt lat="47.00586" lon="-1.0708">
        <ele>138.3</ele>
        <time>2011-11-27T09:40:32Z</time>
      </trkpt>
      <trkpt lat="47.00592" lon="-1.07078">
        <ele>140.3</ele>
        <time>2011-11-27T09:40:34Z</time>
      </trkpt>
      <trkpt lat="47.00596" lon="-1.07073">
        <ele>141</ele>
        <time>2011-11-27T09:40:37Z</time>
      </trkpt>
      <trkpt lat="47.00598" lon="-1.07065">
        <ele>142.3</ele>
        <time>2011-11-27T09:40:40Z</time>
      </trkpt>
      <trkpt lat="47.00598" lon="-1.07058">
        <ele>142.7</ele>
        <time>2011-11-27T09:40:43Z</time>
      </trkpt>
      <trkpt lat="47.00603" lon="-1.0706">
        <ele>142.2</ele>
        <time>2011-11-27T09:40:45Z</time>
      </trkpt>
      <trkpt lat="47.00608" lon="-1.07053">
        <ele>142.8</ele>
        <time>2011-11-27T09:40:48Z</time>
      </trkpt>
      <trkpt lat="47.00613" lon="-1.07048">
        <ele>142.7</ele>
        <time>2011-11-27T09:40:50Z</time>
      </trkpt>
      <trkpt lat="47.00618" lon="-1.07044">
        <ele>141.6</ele>
        <time>2011-11-27T09:40:52Z</time>
      </trkpt>
      <trkpt lat="47.00623" lon="-1.07036">
        <ele>143.1</ele>
        <time>2011-11-27T09:40:55Z</time>
      </trkpt>
      <trkpt lat="47.00628" lon="-1.07028">
        <ele>143.1</ele>
        <time>2011-11-27T09:40:58Z</time>
      </trkpt>
      <trkpt lat="47.00633" lon="-1.07022">
        <ele>143.6</ele>
        <time>2011-11-27T09:41:01Z</time>
      </trkpt>
      <trkpt lat="47.00639" lon="-1.07014">
        <ele>144.7</ele>
        <time>2011-11-27T09:41:03Z</time>
      </trkpt>
      <trkpt lat="47.00644" lon="-1.07009">
        <ele>144</ele>
        <time>2011-11-27T09:41:05Z</time>
      </trkpt>
      <trkpt lat="47.00649" lon="-1.07004">
        <ele>145</ele>
        <time>2011-11-27T09:41:07Z</time>
      </trkpt>
      <trkpt lat="47.00649" lon="-1.06992">
        <ele>146.7</ele>
        <time>2011-11-27T09:41:12Z</time>
      </trkpt>
      <trkpt lat="47.00652" lon="-1.06986">
        <ele>146.9</ele>
        <time>2011-11-27T09:41:16Z</time>
      </trkpt>
      <trkpt lat="47.00656" lon="-1.0698">
        <ele>146.8</ele>
        <time>2011-11-27T09:41:21Z</time>
      </trkpt>
      <trkpt lat="47.0066" lon="-1.06986">
        <ele>144.5</ele>
        <time>2011-11-27T09:41:54Z</time>
      </trkpt>
      <trkpt lat="47.00666" lon="-1.07002">
        <ele>140.3</ele>
        <time>2011-11-27T09:41:56Z</time>
      </trkpt>
      <trkpt lat="47.00667" lon="-1.0701">
        <ele>141.5</ele>
        <time>2011-11-27T09:41:57Z</time>
      </trkpt>
      <trkpt lat="47.00668" lon="-1.07017">
        <ele>141.9</ele>
        <time>2011-11-27T09:41:59Z</time>
      </trkpt>
      <trkpt lat="47.00669" lon="-1.07026">
        <ele>141.6</ele>
        <time>2011-11-27T09:42:01Z</time>
      </trkpt>
      <trkpt lat="47.00666" lon="-1.07036">
        <ele>141.8</ele>
        <time>2011-11-27T09:42:04Z</time>
      </trkpt>
      <trkpt lat="47.00665" lon="-1.07044">
        <ele>141.6</ele>
        <time>2011-11-27T09:42:08Z</time>
      </trkpt>
      <trkpt lat="47.00664" lon="-1.07052">
        <ele>140.9</ele>
        <time>2011-11-27T09:42:10Z</time>
      </trkpt>
      <trkpt lat="47.00666" lon="-1.07065">
        <ele>139.8</ele>
        <time>2011-11-27T09:42:12Z</time>
      </trkpt>
      <trkpt lat="47.00668" lon="-1.07074">
        <ele>141.8</ele>
        <time>2011-11-27T09:42:14Z</time>
      </trkpt>
      <trkpt lat="47.00669" lon="-1.07081">
        <ele>142.3</ele>
        <time>2011-11-27T09:42:15Z</time>
      </trkpt>
      <trkpt lat="47.0067" lon="-1.07095">
        <ele>143.5</ele>
        <time>2011-11-27T09:42:17Z</time>
      </trkpt>
      <trkpt lat="47.0067" lon="-1.07103">
        <ele>143.7</ele>
        <time>2011-11-27T09:42:18Z</time>
      </trkpt>
      <trkpt lat="47.00671" lon="-1.07114">
        <ele>143.5</ele>
        <time>2011-11-27T09:42:20Z</time>
      </trkpt>
      <trkpt lat="47.00674" lon="-1.07126">
        <ele>144.4</ele>
        <time>2011-11-27T09:42:22Z</time>
      </trkpt>
      <trkpt lat="47.00676" lon="-1.07136">
        <ele>143.8</ele>
        <time>2011-11-27T09:42:24Z</time>
      </trkpt>
      <trkpt lat="47.00674" lon="-1.07142">
        <ele>144.4</ele>
        <time>2011-11-27T09:42:25Z</time>
      </trkpt>
      <trkpt lat="47.00675" lon="-1.07151">
        <ele>144</ele>
        <time>2011-11-27T09:42:26Z</time>
      </trkpt>
      <trkpt lat="47.00678" lon="-1.07159">
        <ele>143.8</ele>
        <time>2011-11-27T09:42:27Z</time>
      </trkpt>
      <trkpt lat="47.00676" lon="-1.07166">
        <ele>144.5</ele>
        <time>2011-11-27T09:42:28Z</time>
      </trkpt>
      <trkpt lat="47.00678" lon="-1.07178">
        <ele>143.1</ele>
        <time>2011-11-27T09:42:30Z</time>
      </trkpt>
      <trkpt lat="47.00682" lon="-1.07184">
        <ele>143.5</ele>
        <time>2011-11-27T09:42:32Z</time>
      </trkpt>
      <trkpt lat="47.00684" lon="-1.07189">
        <ele>142.2</ele>
        <time>2011-11-27T09:42:34Z</time>
      </trkpt>
      <trkpt lat="47.00687" lon="-1.07196">
        <ele>141.7</ele>
        <time>2011-11-27T09:42:35Z</time>
      </trkpt>
      <trkpt lat="47.00689" lon="-1.07204">
        <ele>141.5</ele>
        <time>2011-11-27T09:42:36Z</time>
      </trkpt>
      <trkpt lat="47.00692" lon="-1.07215">
        <ele>142.6</ele>
        <time>2011-11-27T09:42:38Z</time>
      </trkpt>
      <trkpt lat="47.00692" lon="-1.07222">
        <ele>143.1</ele>
        <time>2011-11-27T09:42:39Z</time>
      </trkpt>
      <trkpt lat="47.00692" lon="-1.07231">
        <ele>143.4</ele>
        <time>2011-11-27T09:42:40Z</time>
      </trkpt>
      <trkpt lat="47.00693" lon="-1.07241">
        <ele>143.9</ele>
        <time>2011-11-27T09:42:41Z</time>
      </trkpt>
      <trkpt lat="47.00696" lon="-1.0725">
        <ele>143.2</ele>
        <time>2011-11-27T09:42:42Z</time>
      </trkpt>
      <trkpt lat="47.00696" lon="-1.07259">
        <ele>142.4</ele>
        <time>2011-11-27T09:42:44Z</time>
      </trkpt>
      <trkpt lat="47.00701" lon="-1.07269">
        <ele>142.3</ele>
        <time>2011-11-27T09:42:46Z</time>
      </trkpt>
      <trkpt lat="47.00705" lon="-1.07276">
        <ele>142.2</ele>
        <time>2011-11-27T09:42:47Z</time>
      </trkpt>
      <trkpt lat="47.00709" lon="-1.07287">
        <ele>142.7</ele>
        <time>2011-11-27T09:42:49Z</time>
      </trkpt>
      <trkpt lat="47.00712" lon="-1.07296">
        <ele>143.3</ele>
        <time>2011-11-27T09:42:51Z</time>
      </trkpt>
      <trkpt lat="47.00715" lon="-1.07312">
        <ele>145.2</ele>
        <time>2011-11-27T09:42:53Z</time>
      </trkpt>
      <trkpt lat="47.00721" lon="-1.07329">
        <ele>143.2</ele>
        <time>2011-11-27T09:42:55Z</time>
      </trkpt>
      <trkpt lat="47.00725" lon="-1.0734">
        <ele>143.9</ele>
        <time>2011-11-27T09:42:57Z</time>
      </trkpt>
      <trkpt lat="47.00728" lon="-1.07345">
        <ele>144.3</ele>
        <time>2011-11-27T09:42:58Z</time>
      </trkpt>
      <trkpt lat="47.00731" lon="-1.07351">
        <ele>145.1</ele>
        <time>2011-11-27T09:42:59Z</time>
      </trkpt>
      <trkpt lat="47.00735" lon="-1.07355">
        <ele>145.1</ele>
        <time>2011-11-27T09:43:00Z</time>
      </trkpt>
      <trkpt lat="47.00738" lon="-1.07363">
        <ele>146.1</ele>
        <time>2011-11-27T09:43:01Z</time>
      </trkpt>
      <trkpt lat="47.00746" lon="-1.07371">
        <ele>145.7</ele>
        <time>2011-11-27T09:43:03Z</time>
      </trkpt>
      <trkpt lat="47.00748" lon="-1.0738">
        <ele>145.8</ele>
        <time>2011-11-27T09:43:04Z</time>
      </trkpt>
      <trkpt lat="47.00751" lon="-1.07386">
        <ele>146.1</ele>
        <time>2011-11-27T09:43:06Z</time>
      </trkpt>
      <trkpt lat="47.00754" lon="-1.07392">
        <ele>146.9</ele>
        <time>2011-11-27T09:43:07Z</time>
      </trkpt>
      <trkpt lat="47.00756" lon="-1.07406">
        <ele>148.2</ele>
        <time>2011-11-27T09:43:10Z</time>
      </trkpt>
      <trkpt lat="47.00762" lon="-1.07416">
        <ele>148.7</ele>
        <time>2011-11-27T09:43:11Z</time>
      </trkpt>
      <trkpt lat="47.00767" lon="-1.07427">
        <ele>148.4</ele>
        <time>2011-11-27T09:43:12Z</time>
      </trkpt>
      <trkpt lat="47.00767" lon="-1.07435">
        <ele>148.6</ele>
        <time>2011-11-27T09:43:13Z</time>
      </trkpt>
      <trkpt lat="47.00772" lon="-1.07447">
        <ele>147.2</ele>
        <time>2011-11-27T09:43:15Z</time>
      </trkpt>
      <trkpt lat="47.00772" lon="-1.07459">
        <ele>145.7</ele>
        <time>2011-11-27T09:43:17Z</time>
      </trkpt>
      <trkpt lat="47.00775" lon="-1.07467">
        <ele>145.5</ele>
        <time>2011-11-27T09:43:18Z</time>
      </trkpt>
      <trkpt lat="47.00777" lon="-1.07472">
        <ele>145.6</ele>
        <time>2011-11-27T09:43:19Z</time>
      </trkpt>
      <trkpt lat="47.00778" lon="-1.07479">
        <ele>146.1</ele>
        <time>2011-11-27T09:43:20Z</time>
      </trkpt>
      <trkpt lat="47.0078" lon="-1.07487">
        <ele>147.4</ele>
        <time>2011-11-27T09:43:23Z</time>
      </trkpt>
      <trkpt lat="47.00788" lon="-1.07496">
        <ele>146.4</ele>
        <time>2011-11-27T09:43:24Z</time>
      </trkpt>
      <trkpt lat="47.00787" lon="-1.07506">
        <ele>146.3</ele>
        <time>2011-11-27T09:43:25Z</time>
      </trkpt>
      <trkpt lat="47.0079" lon="-1.07511">
        <ele>146.9</ele>
        <time>2011-11-27T09:43:26Z</time>
      </trkpt>
      <trkpt lat="47.00794" lon="-1.07522">
        <ele>145.9</ele>
        <time>2011-11-27T09:43:28Z</time>
      </trkpt>
      <trkpt lat="47.008" lon="-1.07534">
        <ele>145.9</ele>
        <time>2011-11-27T09:43:30Z</time>
      </trkpt>
      <trkpt lat="47.00804" lon="-1.07547">
        <ele>147</ele>
        <time>2011-11-27T09:43:32Z</time>
      </trkpt>
      <trkpt lat="47.00807" lon="-1.07553">
        <ele>147.9</ele>
        <time>2011-11-27T09:43:33Z</time>
      </trkpt>
      <trkpt lat="47.00808" lon="-1.07562">
        <ele>147.9</ele>
        <time>2011-11-27T09:43:34Z</time>
      </trkpt>
      <trkpt lat="47.00812" lon="-1.0757">
        <ele>148.2</ele>
        <time>2011-11-27T09:43:35Z</time>
      </trkpt>
      <trkpt lat="47.00815" lon="-1.07576">
        <ele>148.5</ele>
        <time>2011-11-27T09:43:36Z</time>
      </trkpt>
      <trkpt lat="47.00817" lon="-1.07582">
        <ele>148.8</ele>
        <time>2011-11-27T09:43:37Z</time>
      </trkpt>
      <trkpt lat="47.00822" lon="-1.07591">
        <ele>148.3</ele>
        <time>2011-11-27T09:43:39Z</time>
      </trkpt>
      <trkpt lat="47.00827" lon="-1.07598">
        <ele>147.3</ele>
        <time>2011-11-27T09:43:40Z</time>
      </trkpt>
      <trkpt lat="47.00836" lon="-1.07605">
        <ele>147.4</ele>
        <time>2011-11-27T09:43:42Z</time>
      </trkpt>
      <trkpt lat="47.00843" lon="-1.07608">
        <ele>147.6</ele>
        <time>2011-11-27T09:43:43Z</time>
      </trkpt>
      <trkpt lat="47.0085" lon="-1.07613">
        <ele>148</ele>
        <time>2011-11-27T09:43:45Z</time>
      </trkpt>
      <trkpt lat="47.00856" lon="-1.0762">
        <ele>147.5</ele>
        <time>2011-11-27T09:43:46Z</time>
      </trkpt>
      <trkpt lat="47.00862" lon="-1.07626">
        <ele>147.7</ele>
        <time>2011-11-27T09:43:48Z</time>
      </trkpt>
      <trkpt lat="47.00867" lon="-1.07629">
        <ele>148.4</ele>
        <time>2011-11-27T09:43:49Z</time>
      </trkpt>
      <trkpt lat="47.00871" lon="-1.07633">
        <ele>150</ele>
        <time>2011-11-27T09:43:51Z</time>
      </trkpt>
      <trkpt lat="47.00874" lon="-1.07638">
        <ele>151.2</ele>
        <time>2011-11-27T09:43:52Z</time>
      </trkpt>
      <trkpt lat="47.00874" lon="-1.07648">
        <ele>148.5</ele>
        <time>2011-11-27T09:43:53Z</time>
      </trkpt>
      <trkpt lat="47.00879" lon="-1.0766">
        <ele>148.4</ele>
        <time>2011-11-27T09:43:55Z</time>
      </trkpt>
      <trkpt lat="47.00881" lon="-1.07667">
        <ele>147.2</ele>
        <time>2011-11-27T09:43:56Z</time>
      </trkpt>
      <trkpt lat="47.00884" lon="-1.07675">
        <ele>147</ele>
        <time>2011-11-27T09:43:57Z</time>
      </trkpt>
      <trkpt lat="47.00888" lon="-1.07686">
        <ele>146.8</ele>
        <time>2011-11-27T09:43:58Z</time>
      </trkpt>
      <trkpt lat="47.0089" lon="-1.07692">
        <ele>146.9</ele>
        <time>2011-11-27T09:43:59Z</time>
      </trkpt>
      <trkpt lat="47.00894" lon="-1.07705">
        <ele>146</ele>
        <time>2011-11-27T09:44:00Z</time>
      </trkpt>
      <trkpt lat="47.00899" lon="-1.07716">
        <ele>145.3</ele>
        <time>2011-11-27T09:44:02Z</time>
      </trkpt>
      <trkpt lat="47.00906" lon="-1.07723">
        <ele>145.8</ele>
        <time>2011-11-27T09:44:03Z</time>
      </trkpt>
      <trkpt lat="47.00911" lon="-1.07728">
        <ele>145.6</ele>
        <time>2011-11-27T09:44:04Z</time>
      </trkpt>
      <trkpt lat="47.00915" lon="-1.07729">
        <ele>145.2</ele>
        <time>2011-11-27T09:44:05Z</time>
      </trkpt>
      <trkpt lat="47.0092" lon="-1.07735">
        <ele>144.7</ele>
        <time>2011-11-27T09:44:06Z</time>
      </trkpt>
      <trkpt lat="47.00927" lon="-1.07745">
        <ele>144.3</ele>
        <time>2011-11-27T09:44:07Z</time>
      </trkpt>
      <trkpt lat="47.0093" lon="-1.07752">
        <ele>145</ele>
        <time>2011-11-27T09:44:08Z</time>
      </trkpt>
      <trkpt lat="47.00934" lon="-1.07757">
        <ele>144.5</ele>
        <time>2011-11-27T09:44:09Z</time>
      </trkpt>
      <trkpt lat="47.00935" lon="-1.07766">
        <ele>143.9</ele>
        <time>2011-11-27T09:44:10Z</time>
      </trkpt>
      <trkpt lat="47.00938" lon="-1.07772">
        <ele>143.7</ele>
        <time>2011-11-27T09:44:11Z</time>
      </trkpt>
      <trkpt lat="47.00941" lon="-1.07782">
        <ele>143.2</ele>
        <time>2011-11-27T09:44:12Z</time>
      </trkpt>
      <trkpt lat="47.00945" lon="-1.07795">
        <ele>140</ele>
        <time>2011-11-27T09:44:13Z</time>
      </trkpt>
      <trkpt lat="47.00948" lon="-1.07803">
        <ele>139.5</ele>
        <time>2011-11-27T09:44:14Z</time>
      </trkpt>
      <trkpt lat="47.0095" lon="-1.07814">
        <ele>138</ele>
        <time>2011-11-27T09:44:15Z</time>
      </trkpt>
      <trkpt lat="47.00954" lon="-1.07823">
        <ele>139.5</ele>
        <time>2011-11-27T09:44:16Z</time>
      </trkpt>
      <trkpt lat="47.00955" lon="-1.07836">
        <ele>140</ele>
        <time>2011-11-27T09:44:17Z</time>
      </trkpt>
      <trkpt lat="47.00957" lon="-1.07844">
        <ele>139.7</ele>
        <time>2011-11-27T09:44:18Z</time>
      </trkpt>
      <trkpt lat="47.00962" lon="-1.07845">
        <ele>138</ele>
        <time>2011-11-27T09:44:19Z</time>
      </trkpt>
      <trkpt lat="47.00965" lon="-1.07855">
        <ele>137.7</ele>
        <time>2011-11-27T09:44:20Z</time>
      </trkpt>
      <trkpt lat="47.00967" lon="-1.07872">
        <ele>137.9</ele>
        <time>2011-11-27T09:44:21Z</time>
      </trkpt>
      <trkpt lat="47.00972" lon="-1.07885">
        <ele>135.7</ele>
        <time>2011-11-27T09:44:22Z</time>
      </trkpt>
      <trkpt lat="47.00974" lon="-1.07896">
        <ele>136.6</ele>
        <time>2011-11-27T09:44:23Z</time>
      </trkpt>
      <trkpt lat="47.00977" lon="-1.07908">
        <ele>135.3</ele>
        <time>2011-11-27T09:44:24Z</time>
      </trkpt>
      <trkpt lat="47.00978" lon="-1.07918">
        <ele>135</ele>
        <time>2011-11-27T09:44:25Z</time>
      </trkpt>
      <trkpt lat="47.0098" lon="-1.07927">
        <ele>134.5</ele>
        <time>2011-11-27T09:44:26Z</time>
      </trkpt>
      <trkpt lat="47.00981" lon="-1.07936">
        <ele>133.7</ele>
        <time>2011-11-27T09:44:27Z</time>
      </trkpt>
      <trkpt lat="47.00991" lon="-1.07949">
        <ele>131.2</ele>
        <time>2011-11-27T09:44:28Z</time>
      </trkpt>
      <trkpt lat="47.00997" lon="-1.07961">
        <ele>130.2</ele>
        <time>2011-11-27T09:44:29Z</time>
      </trkpt>
      <trkpt lat="47.00997" lon="-1.07975">
        <ele>128.4</ele>
        <time>2011-11-27T09:44:30Z</time>
      </trkpt>
      <trkpt lat="47.01001" lon="-1.07986">
        <ele>127.6</ele>
        <time>2011-11-27T09:44:31Z</time>
      </trkpt>
      <trkpt lat="47.01005" lon="-1.07998">
        <ele>127.5</ele>
        <time>2011-11-27T09:44:32Z</time>
      </trkpt>
      <trkpt lat="47.01015" lon="-1.08008">
        <ele>122.8</ele>
        <time>2011-11-27T09:44:33Z</time>
      </trkpt>
      <trkpt lat="47.01018" lon="-1.08026">
        <ele>121.5</ele>
        <time>2011-11-27T09:44:34Z</time>
      </trkpt>
      <trkpt lat="47.01022" lon="-1.08042">
        <ele>120.5</ele>
        <time>2011-11-27T09:44:35Z</time>
      </trkpt>
      <trkpt lat="47.01023" lon="-1.08052">
        <ele>117.8</ele>
        <time>2011-11-27T09:44:36Z</time>
      </trkpt>
      <trkpt lat="47.01022" lon="-1.0807">
        <ele>117.2</ele>
        <time>2011-11-27T09:44:37Z</time>
      </trkpt>
      <trkpt lat="47.01022" lon="-1.08081">
        <ele>115.7</ele>
        <time>2011-11-27T09:44:38Z</time>
      </trkpt>
      <trkpt lat="47.0102" lon="-1.08095">
        <ele>114.8</ele>
        <time>2011-11-27T09:44:39Z</time>
      </trkpt>
      <trkpt lat="47.01018" lon="-1.08106">
        <ele>114</ele>
        <time>2011-11-27T09:44:40Z</time>
      </trkpt>
      <trkpt lat="47.01015" lon="-1.0812">
        <ele>112.1</ele>
        <time>2011-11-27T09:44:41Z</time>
      </trkpt>
      <trkpt lat="47.01015" lon="-1.08129">
        <ele>112.6</ele>
        <time>2011-11-27T09:44:42Z</time>
      </trkpt>
      <trkpt lat="47.01011" lon="-1.08139">
        <ele>112.1</ele>
        <time>2011-11-27T09:44:43Z</time>
      </trkpt>
      <trkpt lat="47.01009" lon="-1.0815">
        <ele>111.6</ele>
        <time>2011-11-27T09:44:46Z</time>
      </trkpt>
      <trkpt lat="47.0101" lon="-1.08163">
        <ele>110.3</ele>
        <time>2011-11-27T09:44:48Z</time>
      </trkpt>
      <trkpt lat="47.01015" lon="-1.08174">
        <ele>110.3</ele>
        <time>2011-11-27T09:44:50Z</time>
      </trkpt>
      <trkpt lat="47.01017" lon="-1.0818">
        <ele>110</ele>
        <time>2011-11-27T09:44:51Z</time>
      </trkpt>
      <trkpt lat="47.01022" lon="-1.08185">
        <ele>110.3</ele>
        <time>2011-11-27T09:44:52Z</time>
      </trkpt>
      <trkpt lat="47.01027" lon="-1.08193">
        <ele>109.4</ele>
        <time>2011-11-27T09:44:53Z</time>
      </trkpt>
      <trkpt lat="47.01032" lon="-1.08199">
        <ele>110.5</ele>
        <time>2011-11-27T09:44:54Z</time>
      </trkpt>
      <trkpt lat="47.01038" lon="-1.08204">
        <ele>111.5</ele>
        <time>2011-11-27T09:44:55Z</time>
      </trkpt>
      <trkpt lat="47.01042" lon="-1.08216">
        <ele>111.4</ele>
        <time>2011-11-27T09:44:56Z</time>
      </trkpt>
      <trkpt lat="47.01047" lon="-1.08227">
        <ele>110.6</ele>
        <time>2011-11-27T09:44:57Z</time>
      </trkpt>
      <trkpt lat="47.01049" lon="-1.08236">
        <ele>108.7</ele>
        <time>2011-11-27T09:44:58Z</time>
      </trkpt>
      <trkpt lat="47.01049" lon="-1.08249">
        <ele>108.7</ele>
        <time>2011-11-27T09:45:00Z</time>
      </trkpt>
      <trkpt lat="47.01048" lon="-1.08258">
        <ele>108</ele>
        <time>2011-11-27T09:45:01Z</time>
      </trkpt>
      <trkpt lat="47.01048" lon="-1.08266">
        <ele>107.6</ele>
        <time>2011-11-27T09:45:02Z</time>
      </trkpt>
      <trkpt lat="47.01048" lon="-1.08274">
        <ele>108.1</ele>
        <time>2011-11-27T09:45:03Z</time>
      </trkpt>
      <trkpt lat="47.01052" lon="-1.08279">
        <ele>110.5</ele>
        <time>2011-11-27T09:45:04Z</time>
      </trkpt>
      <trkpt lat="47.01055" lon="-1.0829">
        <ele>110.4</ele>
        <time>2011-11-27T09:45:06Z</time>
      </trkpt>
      <trkpt lat="47.01055" lon="-1.08297">
        <ele>110.1</ele>
        <time>2011-11-27T09:45:07Z</time>
      </trkpt>
      <trkpt lat="47.01056" lon="-1.08306">
        <ele>111.3</ele>
        <time>2011-11-27T09:45:09Z</time>
      </trkpt>
      <trkpt lat="47.0106" lon="-1.08314">
        <ele>113.2</ele>
        <time>2011-11-27T09:45:11Z</time>
      </trkpt>
      <trkpt lat="47.01062" lon="-1.08324">
        <ele>113.8</ele>
        <time>2011-11-27T09:45:13Z</time>
      </trkpt>
      <trkpt lat="47.01056" lon="-1.08321">
        <ele>116.7</ele>
        <time>2011-11-27T09:45:16Z</time>
      </trkpt>
      <trkpt lat="47.01061" lon="-1.0833">
        <ele>117.2</ele>
        <time>2011-11-27T09:45:18Z</time>
      </trkpt>
      <trkpt lat="47.01062" lon="-1.08336">
        <ele>118.6</ele>
        <time>2011-11-27T09:45:20Z</time>
      </trkpt>
      <trkpt lat="47.01063" lon="-1.08344">
        <ele>118</ele>
        <time>2011-11-27T09:45:22Z</time>
      </trkpt>
      <trkpt lat="47.01069" lon="-1.08353">
        <ele>120.9</ele>
        <time>2011-11-27T09:45:25Z</time>
      </trkpt>
      <trkpt lat="47.01069" lon="-1.08362">
        <ele>121.9</ele>
        <time>2011-11-27T09:45:27Z</time>
      </trkpt>
      <trkpt lat="47.01071" lon="-1.08372">
        <ele>122.8</ele>
        <time>2011-11-27T09:45:32Z</time>
      </trkpt>
      <trkpt lat="47.01072" lon="-1.0838">
        <ele>124.7</ele>
        <time>2011-11-27T09:45:34Z</time>
      </trkpt>
      <trkpt lat="47.01072" lon="-1.08387">
        <ele>125.4</ele>
        <time>2011-11-27T09:45:36Z</time>
      </trkpt>
      <trkpt lat="47.01074" lon="-1.08393">
        <ele>127.6</ele>
        <time>2011-11-27T09:45:38Z</time>
      </trkpt>
      <trkpt lat="47.01079" lon="-1.08398">
        <ele>128.6</ele>
        <time>2011-11-27T09:45:40Z</time>
      </trkpt>
      <trkpt lat="47.01082" lon="-1.08409">
        <ele>127.1</ele>
        <time>2011-11-27T09:45:42Z</time>
      </trkpt>
      <trkpt lat="47.01083" lon="-1.08416">
        <ele>127.9</ele>
        <time>2011-11-27T09:45:45Z</time>
      </trkpt>
      <trkpt lat="47.01079" lon="-1.08421">
        <ele>127.5</ele>
        <time>2011-11-27T09:45:46Z</time>
      </trkpt>
      <trkpt lat="47.01069" lon="-1.08421">
        <ele>125.6</ele>
        <time>2011-11-27T09:45:48Z</time>
      </trkpt>
      <trkpt lat="47.01069" lon="-1.08413">
        <ele>130.3</ele>
        <time>2011-11-27T09:46:02Z</time>
      </trkpt>
      <trkpt lat="47.01064" lon="-1.08408">
        <ele>132.6</ele>
        <time>2011-11-27T09:46:06Z</time>
      </trkpt>
      <trkpt lat="47.0106" lon="-1.08404">
        <ele>132.5</ele>
        <time>2011-11-27T09:46:12Z</time>
      </trkpt>
      <trkpt lat="47.01064" lon="-1.084">
        <ele>129.4</ele>
        <time>2011-11-27T09:46:14Z</time>
      </trkpt>
      <trkpt lat="47.01069" lon="-1.08406">
        <ele>128.8</ele>
        <time>2011-11-27T09:46:17Z</time>
      </trkpt>
      <trkpt lat="47.01072" lon="-1.08412">
        <ele>127.4</ele>
        <time>2011-11-27T09:46:18Z</time>
      </trkpt>
      <trkpt lat="47.0107" lon="-1.08418">
        <ele>127.9</ele>
        <time>2011-11-27T09:46:21Z</time>
      </trkpt>
      <trkpt lat="47.01064" lon="-1.08413">
        <ele>128.6</ele>
        <time>2011-11-27T09:46:24Z</time>
      </trkpt>
      <trkpt lat="47.0106" lon="-1.08406">
        <ele>127.6</ele>
        <time>2011-11-27T09:46:27Z</time>
      </trkpt>
      <trkpt lat="47.01064" lon="-1.08402">
        <ele>126.1</ele>
        <time>2011-11-27T09:46:31Z</time>
      </trkpt>
      <trkpt lat="47.01071" lon="-1.0841">
        <ele>122.6</ele>
        <time>2011-11-27T09:46:41Z</time>
      </trkpt>
      <trkpt lat="47.01076" lon="-1.08415">
        <ele>121.6</ele>
        <time>2011-11-27T09:46:44Z</time>
      </trkpt>
      <trkpt lat="47.01072" lon="-1.08421">
        <ele>124.6</ele>
        <time>2011-11-27T09:46:47Z</time>
      </trkpt>
      <trkpt lat="47.01072" lon="-1.08429">
        <ele>123.8</ele>
        <time>2011-11-27T09:46:50Z</time>
      </trkpt>
      <trkpt lat="47.01067" lon="-1.08435">
        <ele>125.3</ele>
        <time>2011-11-27T09:46:53Z</time>
      </trkpt>
      <trkpt lat="47.01071" lon="-1.0844">
        <ele>126.5</ele>
        <time>2011-11-27T09:46:57Z</time>
      </trkpt>
      <trkpt lat="47.01071" lon="-1.08449">
        <ele>125.4</ele>
        <time>2011-11-27T09:47:00Z</time>
      </trkpt>
      <trkpt lat="47.01069" lon="-1.08459">
        <ele>125.1</ele>
        <time>2011-11-27T09:47:02Z</time>
      </trkpt>
      <trkpt lat="47.01066" lon="-1.08467">
        <ele>126.5</ele>
        <time>2011-11-27T09:47:04Z</time>
      </trkpt>
      <trkpt lat="47.01067" lon="-1.08476">
        <ele>124.6</ele>
        <time>2011-11-27T09:47:07Z</time>
      </trkpt>
      <trkpt lat="47.01062" lon="-1.08483">
        <ele>125.9</ele>
        <time>2011-11-27T09:47:08Z</time>
      </trkpt>
      <trkpt lat="47.01058" lon="-1.08495">
        <ele>125.8</ele>
        <time>2011-11-27T09:47:10Z</time>
      </trkpt>
      <trkpt lat="47.01052" lon="-1.08504">
        <ele>124.2</ele>
        <time>2011-11-27T09:47:12Z</time>
      </trkpt>
      <trkpt lat="47.01053" lon="-1.08514">
        <ele>125.8</ele>
        <time>2011-11-27T09:47:14Z</time>
      </trkpt>
      <trkpt lat="47.0105" lon="-1.08523">
        <ele>125.3</ele>
        <time>2011-11-27T09:47:16Z</time>
      </trkpt>
      <trkpt lat="47.01052" lon="-1.0853">
        <ele>126</ele>
        <time>2011-11-27T09:47:19Z</time>
      </trkpt>
      <trkpt lat="47.01054" lon="-1.08538">
        <ele>127.5</ele>
        <time>2011-11-27T09:47:22Z</time>
      </trkpt>
      <trkpt lat="47.01052" lon="-1.08548">
        <ele>128.3</ele>
        <time>2011-11-27T09:47:24Z</time>
      </trkpt>
      <trkpt lat="47.01051" lon="-1.08556">
        <ele>129</ele>
        <time>2011-11-27T09:47:26Z</time>
      </trkpt>
      <trkpt lat="47.01051" lon="-1.08565">
        <ele>130.8</ele>
        <time>2011-11-27T09:47:28Z</time>
      </trkpt>
      <trkpt lat="47.01051" lon="-1.08572">
        <ele>132.2</ele>
        <time>2011-11-27T09:47:30Z</time>
      </trkpt>
      <trkpt lat="47.0105" lon="-1.08582">
        <ele>134.3</ele>
        <time>2011-11-27T09:47:32Z</time>
      </trkpt>
      <trkpt lat="47.01048" lon="-1.08589">
        <ele>134.2</ele>
        <time>2011-11-27T09:47:33Z</time>
      </trkpt>
      <trkpt lat="47.01046" lon="-1.08597">
        <ele>132.9</ele>
        <time>2011-11-27T09:47:35Z</time>
      </trkpt>
      <trkpt lat="47.01042" lon="-1.08605">
        <ele>131.6</ele>
        <time>2011-11-27T09:47:37Z</time>
      </trkpt>
      <trkpt lat="47.0104" lon="-1.08615">
        <ele>134</ele>
        <time>2011-11-27T09:47:40Z</time>
      </trkpt>
      <trkpt lat="47.01038" lon="-1.08623">
        <ele>134.3</ele>
        <time>2011-11-27T09:47:41Z</time>
      </trkpt>
      <trkpt lat="47.01038" lon="-1.08629">
        <ele>136.9</ele>
        <time>2011-11-27T09:47:43Z</time>
      </trkpt>
      <trkpt lat="47.01039" lon="-1.08636">
        <ele>135.5</ele>
        <time>2011-11-27T09:47:45Z</time>
      </trkpt>
      <trkpt lat="47.01038" lon="-1.08642">
        <ele>136.3</ele>
        <time>2011-11-27T09:47:47Z</time>
      </trkpt>
      <trkpt lat="47.0104" lon="-1.08652">
        <ele>135.8</ele>
        <time>2011-11-27T09:47:50Z</time>
      </trkpt>
      <trkpt lat="47.01039" lon="-1.08661">
        <ele>137.3</ele>
        <time>2011-11-27T09:47:53Z</time>
      </trkpt>
      <trkpt lat="47.01038" lon="-1.08672">
        <ele>139</ele>
        <time>2011-11-27T09:47:55Z</time>
      </trkpt>
      <trkpt lat="47.01034" lon="-1.08676">
        <ele>139.5</ele>
        <time>2011-11-27T09:47:59Z</time>
      </trkpt>
      <trkpt lat="47.01037" lon="-1.08682">
        <ele>140.4</ele>
        <time>2011-11-27T09:48:02Z</time>
      </trkpt>
      <trkpt lat="47.01039" lon="-1.08689">
        <ele>141.2</ele>
        <time>2011-11-27T09:48:03Z</time>
      </trkpt>
      <trkpt lat="47.01039" lon="-1.08698">
        <ele>142.5</ele>
        <time>2011-11-27T09:48:05Z</time>
      </trkpt>
      <trkpt lat="47.01035" lon="-1.08705">
        <ele>144.1</ele>
        <time>2011-11-27T09:48:07Z</time>
      </trkpt>
      <trkpt lat="47.01036" lon="-1.08713">
        <ele>142.2</ele>
        <time>2011-11-27T09:48:08Z</time>
      </trkpt>
      <trkpt lat="47.01032" lon="-1.08721">
        <ele>141.7</ele>
        <time>2011-11-27T09:48:10Z</time>
      </trkpt>
      <trkpt lat="47.01031" lon="-1.08729">
        <ele>141.3</ele>
        <time>2011-11-27T09:48:12Z</time>
      </trkpt>
      <trkpt lat="47.01027" lon="-1.08734">
        <ele>142.7</ele>
        <time>2011-11-27T09:48:13Z</time>
      </trkpt>
      <trkpt lat="47.01028" lon="-1.08742">
        <ele>143.8</ele>
        <time>2011-11-27T09:48:16Z</time>
      </trkpt>
      <trkpt lat="47.01026" lon="-1.08751">
        <ele>144.1</ele>
        <time>2011-11-27T09:48:19Z</time>
      </trkpt>
      <trkpt lat="47.01026" lon="-1.08759">
        <ele>146.8</ele>
        <time>2011-11-27T09:48:23Z</time>
      </trkpt>
      <trkpt lat="47.01025" lon="-1.08767">
        <ele>148.6</ele>
        <time>2011-11-27T09:48:26Z</time>
      </trkpt>
      <trkpt lat="47.01028" lon="-1.08783">
        <ele>143</ele>
        <time>2011-11-27T09:48:27Z</time>
      </trkpt>
      <trkpt lat="47.01026" lon="-1.08791">
        <ele>142.9</ele>
        <time>2011-11-27T09:48:29Z</time>
      </trkpt>
      <trkpt lat="47.01029" lon="-1.08796">
        <ele>143.8</ele>
        <time>2011-11-27T09:48:31Z</time>
      </trkpt>
      <trkpt lat="47.01026" lon="-1.08802">
        <ele>144.6</ele>
        <time>2011-11-27T09:48:33Z</time>
      </trkpt>
      <trkpt lat="47.01025" lon="-1.08812">
        <ele>144.5</ele>
        <time>2011-11-27T09:48:36Z</time>
      </trkpt>
      <trkpt lat="47.01022" lon="-1.08817">
        <ele>144.5</ele>
        <time>2011-11-27T09:48:38Z</time>
      </trkpt>
      <trkpt lat="47.01021" lon="-1.08826">
        <ele>147.1</ele>
        <time>2011-11-27T09:48:40Z</time>
      </trkpt>
      <trkpt lat="47.01017" lon="-1.08835">
        <ele>145</ele>
        <time>2011-11-27T09:48:42Z</time>
      </trkpt>
      <trkpt lat="47.01016" lon="-1.08841">
        <ele>146.2</ele>
        <time>2011-11-27T09:48:43Z</time>
      </trkpt>
      <trkpt lat="47.01013" lon="-1.08851">
        <ele>144.6</ele>
        <time>2011-11-27T09:48:47Z</time>
      </trkpt>
      <trkpt lat="47.01011" lon="-1.08858">
        <ele>144.4</ele>
        <time>2011-11-27T09:48:49Z</time>
      </trkpt>
      <trkpt lat="47.01009" lon="-1.08866">
        <ele>144</ele>
        <time>2011-11-27T09:48:51Z</time>
      </trkpt>
      <trkpt lat="47.01007" lon="-1.08872">
        <ele>147.1</ele>
        <time>2011-11-27T09:48:55Z</time>
      </trkpt>
      <trkpt lat="47.01004" lon="-1.08879">
        <ele>148.5</ele>
        <time>2011-11-27T09:48:58Z</time>
      </trkpt>
      <trkpt lat="47.01001" lon="-1.08888">
        <ele>147.5</ele>
        <time>2011-11-27T09:49:02Z</time>
      </trkpt>
      <trkpt lat="47.00998" lon="-1.08897">
        <ele>148.1</ele>
        <time>2011-11-27T09:49:04Z</time>
      </trkpt>
      <trkpt lat="47.00996" lon="-1.08908">
        <ele>146.2</ele>
        <time>2011-11-27T09:49:06Z</time>
      </trkpt>
      <trkpt lat="47.00994" lon="-1.08914">
        <ele>146.3</ele>
        <time>2011-11-27T09:49:09Z</time>
      </trkpt>
      <trkpt lat="47.00992" lon="-1.08921">
        <ele>146.2</ele>
        <time>2011-11-27T09:49:11Z</time>
      </trkpt>
      <trkpt lat="47.00987" lon="-1.0893">
        <ele>146.4</ele>
        <time>2011-11-27T09:49:15Z</time>
      </trkpt>
      <trkpt lat="47.00985" lon="-1.08943">
        <ele>146.5</ele>
        <time>2011-11-27T09:49:17Z</time>
      </trkpt>
      <trkpt lat="47.00983" lon="-1.08951">
        <ele>146.5</ele>
        <time>2011-11-27T09:49:22Z</time>
      </trkpt>
      <trkpt lat="47.00986" lon="-1.08957">
        <ele>149.7</ele>
        <time>2011-11-27T09:49:26Z</time>
      </trkpt>
      <trkpt lat="47.00988" lon="-1.08963">
        <ele>150.5</ele>
        <time>2011-11-27T09:49:29Z</time>
      </trkpt>
      <trkpt lat="47.00987" lon="-1.0897">
        <ele>149.3</ele>
        <time>2011-11-27T09:49:31Z</time>
      </trkpt>
      <trkpt lat="47.00983" lon="-1.08977">
        <ele>148.8</ele>
        <time>2011-11-27T09:49:33Z</time>
      </trkpt>
      <trkpt lat="47.0098" lon="-1.08985">
        <ele>146.3</ele>
        <time>2011-11-27T09:49:35Z</time>
      </trkpt>
      <trkpt lat="47.00975" lon="-1.08992">
        <ele>147.5</ele>
        <time>2011-11-27T09:49:37Z</time>
      </trkpt>
      <trkpt lat="47.00974" lon="-1.08999">
        <ele>149.6</ele>
        <time>2011-11-27T09:49:41Z</time>
      </trkpt>
      <trkpt lat="47.00972" lon="-1.09007">
        <ele>148.6</ele>
        <time>2011-11-27T09:49:45Z</time>
      </trkpt>
      <trkpt lat="47.00977" lon="-1.09008">
        <ele>151.4</ele>
        <time>2011-11-27T09:49:48Z</time>
      </trkpt>
      <trkpt lat="47.00976" lon="-1.09017">
        <ele>149.5</ele>
        <time>2011-11-27T09:49:51Z</time>
      </trkpt>
      <trkpt lat="47.00969" lon="-1.09022">
        <ele>149.3</ele>
        <time>2011-11-27T09:49:53Z</time>
      </trkpt>
      <trkpt lat="47.00963" lon="-1.09028">
        <ele>149.1</ele>
        <time>2011-11-27T09:49:56Z</time>
      </trkpt>
      <trkpt lat="47.00967" lon="-1.09035">
        <ele>152.2</ele>
        <time>2011-11-27T09:50:01Z</time>
      </trkpt>
      <trkpt lat="47.00972" lon="-1.09034">
        <ele>151.8</ele>
        <time>2011-11-27T09:50:04Z</time>
      </trkpt>
      <trkpt lat="47.00967" lon="-1.0904">
        <ele>153</ele>
        <time>2011-11-27T09:50:07Z</time>
      </trkpt>
      <trkpt lat="47.00964" lon="-1.09046">
        <ele>152.9</ele>
        <time>2011-11-27T09:50:08Z</time>
      </trkpt>
      <trkpt lat="47.00961" lon="-1.09056">
        <ele>152.1</ele>
        <time>2011-11-27T09:50:11Z</time>
      </trkpt>
      <trkpt lat="47.00957" lon="-1.09063">
        <ele>150.8</ele>
        <time>2011-11-27T09:50:13Z</time>
      </trkpt>
      <trkpt lat="47.00954" lon="-1.09068">
        <ele>151.8</ele>
        <time>2011-11-27T09:50:14Z</time>
      </trkpt>
      <trkpt lat="47.00955" lon="-1.09076">
        <ele>152.6</ele>
        <time>2011-11-27T09:50:19Z</time>
      </trkpt>
      <trkpt lat="47.00957" lon="-1.09084">
        <ele>150.4</ele>
        <time>2011-11-27T09:50:22Z</time>
      </trkpt>
      <trkpt lat="47.00956" lon="-1.09091">
        <ele>151.1</ele>
        <time>2011-11-27T09:50:26Z</time>
      </trkpt>
      <trkpt lat="47.00957" lon="-1.09099">
        <ele>148.8</ele>
        <time>2011-11-27T09:50:32Z</time>
      </trkpt>
      <trkpt lat="47.00958" lon="-1.09106">
        <ele>150.1</ele>
        <time>2011-11-27T09:50:34Z</time>
      </trkpt>
      <trkpt lat="47.00956" lon="-1.09112">
        <ele>150.7</ele>
        <time>2011-11-27T09:50:36Z</time>
      </trkpt>
      <trkpt lat="47.00953" lon="-1.0912">
        <ele>147.8</ele>
        <time>2011-11-27T09:50:40Z</time>
      </trkpt>
      <trkpt lat="47.00947" lon="-1.09132">
        <ele>145.8</ele>
        <time>2011-11-27T09:50:45Z</time>
      </trkpt>
      <trkpt lat="47.00943" lon="-1.0914">
        <ele>148.7</ele>
        <time>2011-11-27T09:50:46Z</time>
      </trkpt>
      <trkpt lat="47.0094" lon="-1.09146">
        <ele>150.3</ele>
        <time>2011-11-27T09:50:48Z</time>
      </trkpt>
      <trkpt lat="47.00938" lon="-1.09152">
        <ele>149.7</ele>
        <time>2011-11-27T09:50:49Z</time>
      </trkpt>
      <trkpt lat="47.00933" lon="-1.09162">
        <ele>149.6</ele>
        <time>2011-11-27T09:50:51Z</time>
      </trkpt>
      <trkpt lat="47.00931" lon="-1.09169">
        <ele>147.4</ele>
        <time>2011-11-27T09:50:54Z</time>
      </trkpt>
      <trkpt lat="47.00938" lon="-1.09168">
        <ele>149.5</ele>
        <time>2011-11-27T09:50:56Z</time>
      </trkpt>
      <trkpt lat="47.00938" lon="-1.09175">
        <ele>147.3</ele>
        <time>2011-11-27T09:51:00Z</time>
      </trkpt>
      <trkpt lat="47.00939" lon="-1.09181">
        <ele>148</ele>
        <time>2011-11-27T09:51:02Z</time>
      </trkpt>
      <trkpt lat="47.00934" lon="-1.09187">
        <ele>149.2</ele>
        <time>2011-11-27T09:51:05Z</time>
      </trkpt>
      <trkpt lat="47.00932" lon="-1.09193">
        <ele>148</ele>
        <time>2011-11-27T09:51:07Z</time>
      </trkpt>
      <trkpt lat="47.00928" lon="-1.09202">
        <ele>148.9</ele>
        <time>2011-11-27T09:51:13Z</time>
      </trkpt>
      <trkpt lat="47.00927" lon="-1.09212">
        <ele>147.8</ele>
        <time>2011-11-27T09:51:17Z</time>
      </trkpt>
      <trkpt lat="47.00932" lon="-1.09211">
        <ele>148.4</ele>
        <time>2011-11-27T09:51:18Z</time>
      </trkpt>
      <trkpt lat="47.00926" lon="-1.09212">
        <ele>150.2</ele>
        <time>2011-11-27T09:51:21Z</time>
      </trkpt>
      <trkpt lat="47.00927" lon="-1.09219">
        <ele>150.2</ele>
        <time>2011-11-27T09:51:23Z</time>
      </trkpt>
      <trkpt lat="47.00923" lon="-1.0923">
        <ele>153.1</ele>
        <time>2011-11-27T09:51:26Z</time>
      </trkpt>
      <trkpt lat="47.00921" lon="-1.09238">
        <ele>152</ele>
        <time>2011-11-27T09:51:29Z</time>
      </trkpt>
      <trkpt lat="47.00921" lon="-1.09245">
        <ele>149.4</ele>
        <time>2011-11-27T09:51:35Z</time>
      </trkpt>
      <trkpt lat="47.00921" lon="-1.09254">
        <ele>150.4</ele>
        <time>2011-11-27T09:51:37Z</time>
      </trkpt>
      <trkpt lat="47.00917" lon="-1.09267">
        <ele>149.8</ele>
        <time>2011-11-27T09:51:39Z</time>
      </trkpt>
      <trkpt lat="47.00912" lon="-1.09275">
        <ele>150.7</ele>
        <time>2011-11-27T09:51:40Z</time>
      </trkpt>
      <trkpt lat="47.00913" lon="-1.09282">
        <ele>151.8</ele>
        <time>2011-11-27T09:51:41Z</time>
      </trkpt>
      <trkpt lat="47.00909" lon="-1.09288">
        <ele>151.5</ele>
        <time>2011-11-27T09:51:43Z</time>
      </trkpt>
      <trkpt lat="47.00905" lon="-1.09296">
        <ele>153.9</ele>
        <time>2011-11-27T09:51:46Z</time>
      </trkpt>
      <trkpt lat="47.00908" lon="-1.09302">
        <ele>153.5</ele>
        <time>2011-11-27T09:51:47Z</time>
      </trkpt>
      <trkpt lat="47.00904" lon="-1.09308">
        <ele>153.3</ele>
        <time>2011-11-27T09:51:48Z</time>
      </trkpt>
      <trkpt lat="47.00904" lon="-1.09317">
        <ele>153.7</ele>
        <time>2011-11-27T09:51:50Z</time>
      </trkpt>
      <trkpt lat="47.00906" lon="-1.0933">
        <ele>153.5</ele>
        <time>2011-11-27T09:51:52Z</time>
      </trkpt>
      <trkpt lat="47.00903" lon="-1.0934">
        <ele>151.8</ele>
        <time>2011-11-27T09:51:54Z</time>
      </trkpt>
      <trkpt lat="47.00904" lon="-1.09349">
        <ele>154</ele>
        <time>2011-11-27T09:51:56Z</time>
      </trkpt>
      <trkpt lat="47.00906" lon="-1.09359">
        <ele>154.2</ele>
        <time>2011-11-27T09:51:58Z</time>
      </trkpt>
      <trkpt lat="47.00907" lon="-1.09367">
        <ele>155.8</ele>
        <time>2011-11-27T09:52:01Z</time>
      </trkpt>
      <trkpt lat="47.0091" lon="-1.09373">
        <ele>157</ele>
        <time>2011-11-27T09:52:04Z</time>
      </trkpt>
      <trkpt lat="47.00912" lon="-1.0938">
        <ele>156.6</ele>
        <time>2011-11-27T09:52:06Z</time>
      </trkpt>
      <trkpt lat="47.00917" lon="-1.09391">
        <ele>159.3</ele>
        <time>2011-11-27T09:52:08Z</time>
      </trkpt>
      <trkpt lat="47.00919" lon="-1.09397">
        <ele>161.3</ele>
        <time>2011-11-27T09:52:12Z</time>
      </trkpt>
      <trkpt lat="47.00925" lon="-1.09408">
        <ele>161.3</ele>
        <time>2011-11-27T09:52:14Z</time>
      </trkpt>
      <trkpt lat="47.00932" lon="-1.09421">
        <ele>155.5</ele>
        <time>2011-11-27T09:52:17Z</time>
      </trkpt>
      <trkpt lat="47.00937" lon="-1.09427">
        <ele>156.5</ele>
        <time>2011-11-27T09:52:19Z</time>
      </trkpt>
      <trkpt lat="47.00939" lon="-1.09434">
        <ele>156.7</ele>
        <time>2011-11-27T09:52:21Z</time>
      </trkpt>
      <trkpt lat="47.00942" lon="-1.09444">
        <ele>157.7</ele>
        <time>2011-11-27T09:52:23Z</time>
      </trkpt>
      <trkpt lat="47.00946" lon="-1.0945">
        <ele>158.8</ele>
        <time>2011-11-27T09:52:24Z</time>
      </trkpt>
      <trkpt lat="47.0095" lon="-1.09454">
        <ele>158</ele>
        <time>2011-11-27T09:52:26Z</time>
      </trkpt>
      <trkpt lat="47.00953" lon="-1.09461">
        <ele>158.9</ele>
        <time>2011-11-27T09:52:28Z</time>
      </trkpt>
      <trkpt lat="47.00959" lon="-1.09474">
        <ele>157.3</ele>
        <time>2011-11-27T09:52:30Z</time>
      </trkpt>
      <trkpt lat="47.00963" lon="-1.09483">
        <ele>158.2</ele>
        <time>2011-11-27T09:52:32Z</time>
      </trkpt>
      <trkpt lat="47.00967" lon="-1.0949">
        <ele>157.8</ele>
        <time>2011-11-27T09:52:33Z</time>
      </trkpt>
      <trkpt lat="47.0097" lon="-1.09495">
        <ele>158.6</ele>
        <time>2011-11-27T09:52:35Z</time>
      </trkpt>
      <trkpt lat="47.00973" lon="-1.09501">
        <ele>158.5</ele>
        <time>2011-11-27T09:52:36Z</time>
      </trkpt>
      <trkpt lat="47.00976" lon="-1.09507">
        <ele>157.8</ele>
        <time>2011-11-27T09:52:37Z</time>
      </trkpt>
      <trkpt lat="47.00978" lon="-1.09518">
        <ele>158.2</ele>
        <time>2011-11-27T09:52:39Z</time>
      </trkpt>
      <trkpt lat="47.0098" lon="-1.09525">
        <ele>158.2</ele>
        <time>2011-11-27T09:52:41Z</time>
      </trkpt>
      <trkpt lat="47.00982" lon="-1.09535">
        <ele>158.4</ele>
        <time>2011-11-27T09:52:43Z</time>
      </trkpt>
      <trkpt lat="47.00987" lon="-1.09542">
        <ele>156.1</ele>
        <time>2011-11-27T09:52:44Z</time>
      </trkpt>
      <trkpt lat="47.00991" lon="-1.09549">
        <ele>155.9</ele>
        <time>2011-11-27T09:52:46Z</time>
      </trkpt>
      <trkpt lat="47.00994" lon="-1.09554">
        <ele>153.4</ele>
        <time>2011-11-27T09:52:47Z</time>
      </trkpt>
      <trkpt lat="47.00996" lon="-1.09562">
        <ele>152.6</ele>
        <time>2011-11-27T09:52:48Z</time>
      </trkpt>
      <trkpt lat="47.00994" lon="-1.0957">
        <ele>155.1</ele>
        <time>2011-11-27T09:52:53Z</time>
      </trkpt>
      <trkpt lat="47.0099" lon="-1.09575">
        <ele>153.7</ele>
        <time>2011-11-27T09:52:57Z</time>
      </trkpt>
      <trkpt lat="47.00985" lon="-1.09569">
        <ele>158.6</ele>
        <time>2011-11-27T09:53:02Z</time>
      </trkpt>
      <trkpt lat="47.00982" lon="-1.09574">
        <ele>153.4</ele>
        <time>2011-11-27T09:54:01Z</time>
      </trkpt>
      <trkpt lat="47.00977" lon="-1.09581">
        <ele>155.4</ele>
        <time>2011-11-27T09:57:14Z</time>
      </trkpt>
      <trkpt lat="47.00979" lon="-1.09575">
        <ele>159.7</ele>
        <time>2011-11-27T10:00:08Z</time>
      </trkpt>
      <trkpt lat="47.00984" lon="-1.09576">
        <ele>159</ele>
        <time>2011-11-27T10:02:35Z</time>
      </trkpt>
      <trkpt lat="47.00994" lon="-1.09579">
        <ele>158.1</ele>
        <time>2011-11-27T10:02:37Z</time>
      </trkpt>
      <trkpt lat="47.01004" lon="-1.09586">
        <ele>157.4</ele>
        <time>2011-11-27T10:02:39Z</time>
      </trkpt>
      <trkpt lat="47.0101" lon="-1.09596">
        <ele>157.3</ele>
        <time>2011-11-27T10:02:41Z</time>
      </trkpt>
      <trkpt lat="47.01016" lon="-1.09602">
        <ele>156.8</ele>
        <time>2011-11-27T10:02:43Z</time>
      </trkpt>
      <trkpt lat="47.01021" lon="-1.09598">
        <ele>157.5</ele>
        <time>2011-11-27T10:02:45Z</time>
      </trkpt>
      <trkpt lat="47.01028" lon="-1.09593">
        <ele>155.7</ele>
        <time>2011-11-27T10:02:47Z</time>
      </trkpt>
      <trkpt lat="47.01038" lon="-1.09583">
        <ele>154.1</ele>
        <time>2011-11-27T10:02:49Z</time>
      </trkpt>
      <trkpt lat="47.01054" lon="-1.09577">
        <ele>154.4</ele>
        <time>2011-11-27T10:02:51Z</time>
      </trkpt>
      <trkpt lat="47.01069" lon="-1.09573">
        <ele>154.7</ele>
        <time>2011-11-27T10:02:53Z</time>
      </trkpt>
      <trkpt lat="47.01083" lon="-1.0958">
        <ele>153.1</ele>
        <time>2011-11-27T10:02:55Z</time>
      </trkpt>
      <trkpt lat="47.01092" lon="-1.09583">
        <ele>152.6</ele>
        <time>2011-11-27T10:02:57Z</time>
      </trkpt>
      <trkpt lat="47.01096" lon="-1.09586">
        <ele>151.6</ele>
        <time>2011-11-27T10:02:59Z</time>
      </trkpt>
      <trkpt lat="47.01097" lon="-1.09594">
        <ele>149.4</ele>
        <time>2011-11-27T10:03:01Z</time>
      </trkpt>
      <trkpt lat="47.01098" lon="-1.09601">
        <ele>148.5</ele>
        <time>2011-11-27T10:03:03Z</time>
      </trkpt>
      <trkpt lat="47.01094" lon="-1.09607">
        <ele>146.7</ele>
        <time>2011-11-27T10:03:05Z</time>
      </trkpt>
      <trkpt lat="47.01086" lon="-1.0961">
        <ele>144.5</ele>
        <time>2011-11-27T10:03:07Z</time>
      </trkpt>
      <trkpt lat="47.01082" lon="-1.09615">
        <ele>145</ele>
        <time>2011-11-27T10:03:17Z</time>
      </trkpt>
      <trkpt lat="47.01081" lon="-1.09624">
        <ele>143.1</ele>
        <time>2011-11-27T10:03:23Z</time>
      </trkpt>
      <trkpt lat="47.01079" lon="-1.09631">
        <ele>140.9</ele>
        <time>2011-11-27T10:03:25Z</time>
      </trkpt>
      <trkpt lat="47.0108" lon="-1.09639">
        <ele>137.4</ele>
        <time>2011-11-27T10:03:29Z</time>
      </trkpt>
      <trkpt lat="47.01079" lon="-1.09649">
        <ele>139.2</ele>
        <time>2011-11-27T10:03:33Z</time>
      </trkpt>
      <trkpt lat="47.01085" lon="-1.09654">
        <ele>137.6</ele>
        <time>2011-11-27T10:03:35Z</time>
      </trkpt>
      <trkpt lat="47.0109" lon="-1.09661">
        <ele>137.1</ele>
        <time>2011-11-27T10:03:39Z</time>
      </trkpt>
      <trkpt lat="47.01095" lon="-1.09664">
        <ele>136.2</ele>
        <time>2011-11-27T10:03:41Z</time>
      </trkpt>
      <trkpt lat="47.011" lon="-1.09669">
        <ele>137.5</ele>
        <time>2011-11-27T10:03:43Z</time>
      </trkpt>
      <trkpt lat="47.01106" lon="-1.09672">
        <ele>138</ele>
        <time>2011-11-27T10:03:45Z</time>
      </trkpt>
      <trkpt lat="47.01114" lon="-1.09674">
        <ele>136.2</ele>
        <time>2011-11-27T10:03:47Z</time>
      </trkpt>
      <trkpt lat="47.01119" lon="-1.09682">
        <ele>132.5</ele>
        <time>2011-11-27T10:03:49Z</time>
      </trkpt>
      <trkpt lat="47.01126" lon="-1.09686">
        <ele>133</ele>
        <time>2011-11-27T10:03:51Z</time>
      </trkpt>
      <trkpt lat="47.01134" lon="-1.09683">
        <ele>133.9</ele>
        <time>2011-11-27T10:03:53Z</time>
      </trkpt>
      <trkpt lat="47.01137" lon="-1.09687">
        <ele>134.2</ele>
        <time>2011-11-27T10:03:59Z</time>
      </trkpt>
      <trkpt lat="47.01142" lon="-1.09688">
        <ele>133.6</ele>
        <time>2011-11-27T10:04:01Z</time>
      </trkpt>
      <trkpt lat="47.01147" lon="-1.09683">
        <ele>134.7</ele>
        <time>2011-11-27T10:04:07Z</time>
      </trkpt>
      <trkpt lat="47.01152" lon="-1.09681">
        <ele>135.2</ele>
        <time>2011-11-27T10:04:09Z</time>
      </trkpt>
      <trkpt lat="47.01157" lon="-1.09674">
        <ele>134.7</ele>
        <time>2011-11-27T10:04:11Z</time>
      </trkpt>
      <trkpt lat="47.01163" lon="-1.09668">
        <ele>132.4</ele>
        <time>2011-11-27T10:04:15Z</time>
      </trkpt>
      <trkpt lat="47.01168" lon="-1.09662">
        <ele>135.9</ele>
        <time>2011-11-27T10:04:25Z</time>
      </trkpt>
      <trkpt lat="47.01173" lon="-1.09656">
        <ele>135</ele>
        <time>2011-11-27T10:04:27Z</time>
      </trkpt>
      <trkpt lat="47.01178" lon="-1.09659">
        <ele>133.3</ele>
        <time>2011-11-27T10:04:31Z</time>
      </trkpt>
      <trkpt lat="47.01183" lon="-1.09652">
        <ele>131.5</ele>
        <time>2011-11-27T10:04:33Z</time>
      </trkpt>
      <trkpt lat="47.01188" lon="-1.09648">
        <ele>131.4</ele>
        <time>2011-11-27T10:04:35Z</time>
      </trkpt>
      <trkpt lat="47.01192" lon="-1.09639">
        <ele>133.4</ele>
        <time>2011-11-27T10:04:41Z</time>
      </trkpt>
      <trkpt lat="47.01199" lon="-1.09634">
        <ele>131.2</ele>
        <time>2011-11-27T10:04:47Z</time>
      </trkpt>
      <trkpt lat="47.01206" lon="-1.09628">
        <ele>130.3</ele>
        <time>2011-11-27T10:04:57Z</time>
      </trkpt>
      <trkpt lat="47.01211" lon="-1.09629">
        <ele>131.4</ele>
        <time>2011-11-27T10:04:59Z</time>
      </trkpt>
      <trkpt lat="47.01216" lon="-1.09621">
        <ele>131</ele>
        <time>2011-11-27T10:05:01Z</time>
      </trkpt>
      <trkpt lat="47.01225" lon="-1.09614">
        <ele>131</ele>
        <time>2011-11-27T10:05:05Z</time>
      </trkpt>
      <trkpt lat="47.01232" lon="-1.09612">
        <ele>129</ele>
        <time>2011-11-27T10:05:07Z</time>
      </trkpt>
      <trkpt lat="47.01239" lon="-1.09607">
        <ele>129.1</ele>
        <time>2011-11-27T10:05:11Z</time>
      </trkpt>
      <trkpt lat="47.01245" lon="-1.09602">
        <ele>130.7</ele>
        <time>2011-11-27T10:05:13Z</time>
      </trkpt>
      <trkpt lat="47.01253" lon="-1.09593">
        <ele>129.7</ele>
        <time>2011-11-27T10:05:17Z</time>
      </trkpt>
      <trkpt lat="47.01263" lon="-1.09593">
        <ele>129.3</ele>
        <time>2011-11-27T10:05:21Z</time>
      </trkpt>
      <trkpt lat="47.0127" lon="-1.09588">
        <ele>128.2</ele>
        <time>2011-11-27T10:05:23Z</time>
      </trkpt>
      <trkpt lat="47.01273" lon="-1.09583">
        <ele>132.8</ele>
        <time>2011-11-27T10:05:27Z</time>
      </trkpt>
      <trkpt lat="47.01274" lon="-1.09576">
        <ele>134.3</ele>
        <time>2011-11-27T10:05:39Z</time>
      </trkpt>
      <trkpt lat="47.01273" lon="-1.09585">
        <ele>130.4</ele>
        <time>2011-11-27T10:05:55Z</time>
      </trkpt>
      <trkpt lat="47.01276" lon="-1.09592">
        <ele>130.5</ele>
        <time>2011-11-27T10:05:57Z</time>
      </trkpt>
      <trkpt lat="47.0128" lon="-1.09589">
        <ele>128.4</ele>
        <time>2011-11-27T10:06:01Z</time>
      </trkpt>
      <trkpt lat="47.01285" lon="-1.09586">
        <ele>128.5</ele>
        <time>2011-11-27T10:06:04Z</time>
      </trkpt>
      <trkpt lat="47.01293" lon="-1.0958">
        <ele>128.9</ele>
        <time>2011-11-27T10:06:08Z</time>
      </trkpt>
      <trkpt lat="47.013" lon="-1.09579">
        <ele>126.8</ele>
        <time>2011-11-27T10:06:10Z</time>
      </trkpt>
      <trkpt lat="47.01307" lon="-1.09595">
        <ele>120.8</ele>
        <time>2011-11-27T10:06:13Z</time>
      </trkpt>
      <trkpt lat="47.01306" lon="-1.09603">
        <ele>119.6</ele>
        <time>2011-11-27T10:06:14Z</time>
      </trkpt>
      <trkpt lat="47.0131" lon="-1.09612">
        <ele>115.6</ele>
        <time>2011-11-27T10:06:15Z</time>
      </trkpt>
      <trkpt lat="47.0131" lon="-1.09626">
        <ele>115.1</ele>
        <time>2011-11-27T10:06:17Z</time>
      </trkpt>
      <trkpt lat="47.01306" lon="-1.09644">
        <ele>114.1</ele>
        <time>2011-11-27T10:06:20Z</time>
      </trkpt>
      <trkpt lat="47.01304" lon="-1.09651">
        <ele>113.9</ele>
        <time>2011-11-27T10:06:21Z</time>
      </trkpt>
      <trkpt lat="47.01305" lon="-1.09659">
        <ele>114</ele>
        <time>2011-11-27T10:06:22Z</time>
      </trkpt>
      <trkpt lat="47.01307" lon="-1.09669">
        <ele>115</ele>
        <time>2011-11-27T10:06:24Z</time>
      </trkpt>
      <trkpt lat="47.01306" lon="-1.09678">
        <ele>116.6</ele>
        <time>2011-11-27T10:06:25Z</time>
      </trkpt>
      <trkpt lat="47.01307" lon="-1.09686">
        <ele>116.3</ele>
        <time>2011-11-27T10:06:26Z</time>
      </trkpt>
      <trkpt lat="47.01309" lon="-1.09705">
        <ele>117.4</ele>
        <time>2011-11-27T10:06:28Z</time>
      </trkpt>
      <trkpt lat="47.01313" lon="-1.09713">
        <ele>117.6</ele>
        <time>2011-11-27T10:06:29Z</time>
      </trkpt>
      <trkpt lat="47.0132" lon="-1.09727">
        <ele>118.6</ele>
        <time>2011-11-27T10:06:31Z</time>
      </trkpt>
      <trkpt lat="47.01324" lon="-1.09741">
        <ele>116.2</ele>
        <time>2011-11-27T10:06:32Z</time>
      </trkpt>
      <trkpt lat="47.01323" lon="-1.09753">
        <ele>117.2</ele>
        <time>2011-11-27T10:06:33Z</time>
      </trkpt>
      <trkpt lat="47.0133" lon="-1.0976">
        <ele>120.3</ele>
        <time>2011-11-27T10:06:36Z</time>
      </trkpt>
      <trkpt lat="47.0133" lon="-1.09767">
        <ele>121.7</ele>
        <time>2011-11-27T10:06:38Z</time>
      </trkpt>
      <trkpt lat="47.01333" lon="-1.09776">
        <ele>122.2</ele>
        <time>2011-11-27T10:06:40Z</time>
      </trkpt>
      <trkpt lat="47.01338" lon="-1.09788">
        <ele>121.5</ele>
        <time>2011-11-27T10:06:42Z</time>
      </trkpt>
      <trkpt lat="47.01339" lon="-1.09799">
        <ele>121.7</ele>
        <time>2011-11-27T10:06:44Z</time>
      </trkpt>
      <trkpt lat="47.01337" lon="-1.09812">
        <ele>121.6</ele>
        <time>2011-11-27T10:06:46Z</time>
      </trkpt>
      <trkpt lat="47.01337" lon="-1.09824">
        <ele>120.5</ele>
        <time>2011-11-27T10:06:48Z</time>
      </trkpt>
      <trkpt lat="47.01339" lon="-1.09832">
        <ele>120</ele>
        <time>2011-11-27T10:06:49Z</time>
      </trkpt>
      <trkpt lat="47.0134" lon="-1.09842">
        <ele>117.2</ele>
        <time>2011-11-27T10:06:50Z</time>
      </trkpt>
      <trkpt lat="47.01343" lon="-1.0985">
        <ele>116.2</ele>
        <time>2011-11-27T10:06:51Z</time>
      </trkpt>
      <trkpt lat="47.01349" lon="-1.09857">
        <ele>115.2</ele>
        <time>2011-11-27T10:06:52Z</time>
      </trkpt>
      <trkpt lat="47.01353" lon="-1.09866">
        <ele>114.7</ele>
        <time>2011-11-27T10:06:54Z</time>
      </trkpt>
      <trkpt lat="47.01358" lon="-1.09873">
        <ele>112.5</ele>
        <time>2011-11-27T10:06:56Z</time>
      </trkpt>
      <trkpt lat="47.01366" lon="-1.09879">
        <ele>109.5</ele>
        <time>2011-11-27T10:06:58Z</time>
      </trkpt>
      <trkpt lat="47.01368" lon="-1.09887">
        <ele>109.3</ele>
        <time>2011-11-27T10:06:59Z</time>
      </trkpt>
      <trkpt lat="47.01373" lon="-1.0989">
        <ele>110.1</ele>
        <time>2011-11-27T10:07:00Z</time>
      </trkpt>
      <trkpt lat="47.01375" lon="-1.09896">
        <ele>109.6</ele>
        <time>2011-11-27T10:07:01Z</time>
      </trkpt>
      <trkpt lat="47.01378" lon="-1.09902">
        <ele>109.1</ele>
        <time>2011-11-27T10:07:03Z</time>
      </trkpt>
      <trkpt lat="47.01382" lon="-1.09908">
        <ele>110.1</ele>
        <time>2011-11-27T10:07:06Z</time>
      </trkpt>
      <trkpt lat="47.01378" lon="-1.09912">
        <ele>109.2</ele>
        <time>2011-11-27T10:07:10Z</time>
      </trkpt>
      <trkpt lat="47.01376" lon="-1.09919">
        <ele>109.5</ele>
        <time>2011-11-27T10:07:14Z</time>
      </trkpt>
      <trkpt lat="47.0138" lon="-1.09913">
        <ele>112.3</ele>
        <time>2011-11-27T10:07:19Z</time>
      </trkpt>
      <trkpt lat="47.01383" lon="-1.09931">
        <ele>113.4</ele>
        <time>2011-11-27T10:07:56Z</time>
      </trkpt>
      <trkpt lat="47.01386" lon="-1.09939">
        <ele>117.5</ele>
        <time>2011-11-27T10:07:57Z</time>
      </trkpt>
      <trkpt lat="47.0139" lon="-1.09947">
        <ele>117.1</ele>
        <time>2011-11-27T10:07:58Z</time>
      </trkpt>
      <trkpt lat="47.01393" lon="-1.09955">
        <ele>119.1</ele>
        <time>2011-11-27T10:07:59Z</time>
      </trkpt>
      <trkpt lat="47.01396" lon="-1.09961">
        <ele>119.5</ele>
        <time>2011-11-27T10:08:00Z</time>
      </trkpt>
      <trkpt lat="47.01404" lon="-1.09968">
        <ele>120.5</ele>
        <time>2011-11-27T10:08:02Z</time>
      </trkpt>
      <trkpt lat="47.01406" lon="-1.09977">
        <ele>124.3</ele>
        <time>2011-11-27T10:08:03Z</time>
      </trkpt>
      <trkpt lat="47.0141" lon="-1.09983">
        <ele>123.2</ele>
        <time>2011-11-27T10:08:04Z</time>
      </trkpt>
      <trkpt lat="47.01411" lon="-1.09993">
        <ele>123.3</ele>
        <time>2011-11-27T10:08:05Z</time>
      </trkpt>
      <trkpt lat="47.01415" lon="-1.09999">
        <ele>124.3</ele>
        <time>2011-11-27T10:08:06Z</time>
      </trkpt>
      <trkpt lat="47.01421" lon="-1.10006">
        <ele>125.9</ele>
        <time>2011-11-27T10:08:07Z</time>
      </trkpt>
      <trkpt lat="47.01422" lon="-1.10013">
        <ele>125.5</ele>
        <time>2011-11-27T10:08:08Z</time>
      </trkpt>
      <trkpt lat="47.01421" lon="-1.10026">
        <ele>124.3</ele>
        <time>2011-11-27T10:08:10Z</time>
      </trkpt>
      <trkpt lat="47.01424" lon="-1.10031">
        <ele>124.3</ele>
        <time>2011-11-27T10:08:11Z</time>
      </trkpt>
      <trkpt lat="47.01429" lon="-1.10043">
        <ele>123.3</ele>
        <time>2011-11-27T10:08:13Z</time>
      </trkpt>
      <trkpt lat="47.0143" lon="-1.10053">
        <ele>121.2</ele>
        <time>2011-11-27T10:08:14Z</time>
      </trkpt>
      <trkpt lat="47.01432" lon="-1.10062">
        <ele>119.9</ele>
        <time>2011-11-27T10:08:15Z</time>
      </trkpt>
      <trkpt lat="47.01432" lon="-1.1007">
        <ele>118.8</ele>
        <time>2011-11-27T10:08:16Z</time>
      </trkpt>
      <trkpt lat="47.01434" lon="-1.10079">
        <ele>116.5</ele>
        <time>2011-11-27T10:08:17Z</time>
      </trkpt>
      <trkpt lat="47.01437" lon="-1.10087">
        <ele>116.1</ele>
        <time>2011-11-27T10:08:18Z</time>
      </trkpt>
      <trkpt lat="47.01439" lon="-1.10094">
        <ele>115.8</ele>
        <time>2011-11-27T10:08:19Z</time>
      </trkpt>
      <trkpt lat="47.01442" lon="-1.10102">
        <ele>113.3</ele>
        <time>2011-11-27T10:08:20Z</time>
      </trkpt>
      <trkpt lat="47.0144" lon="-1.10111">
        <ele>112.8</ele>
        <time>2011-11-27T10:08:21Z</time>
      </trkpt>
      <trkpt lat="47.01441" lon="-1.10122">
        <ele>112.2</ele>
        <time>2011-11-27T10:08:22Z</time>
      </trkpt>
      <trkpt lat="47.01446" lon="-1.10127">
        <ele>111.9</ele>
        <time>2011-11-27T10:08:23Z</time>
      </trkpt>
      <trkpt lat="47.01449" lon="-1.10136">
        <ele>112.9</ele>
        <time>2011-11-27T10:08:26Z</time>
      </trkpt>
      <trkpt lat="47.01447" lon="-1.10146">
        <ele>112.6</ele>
        <time>2011-11-27T10:08:28Z</time>
      </trkpt>
      <trkpt lat="47.01448" lon="-1.10158">
        <ele>112</ele>
        <time>2011-11-27T10:08:30Z</time>
      </trkpt>
      <trkpt lat="47.01452" lon="-1.10169">
        <ele>111.6</ele>
        <time>2011-11-27T10:08:32Z</time>
      </trkpt>
      <trkpt lat="47.01456" lon="-1.1018">
        <ele>110.4</ele>
        <time>2011-11-27T10:08:34Z</time>
      </trkpt>
      <trkpt lat="47.01457" lon="-1.1019">
        <ele>109.7</ele>
        <time>2011-11-27T10:08:35Z</time>
      </trkpt>
      <trkpt lat="47.01458" lon="-1.10204">
        <ele>109.9</ele>
        <time>2011-11-27T10:08:37Z</time>
      </trkpt>
      <trkpt lat="47.01456" lon="-1.1021">
        <ele>110.7</ele>
        <time>2011-11-27T10:08:38Z</time>
      </trkpt>
      <trkpt lat="47.01458" lon="-1.10219">
        <ele>111.1</ele>
        <time>2011-11-27T10:08:39Z</time>
      </trkpt>
      <trkpt lat="47.01458" lon="-1.10228">
        <ele>108.3</ele>
        <time>2011-11-27T10:08:46Z</time>
      </trkpt>
      <trkpt lat="47.01458" lon="-1.10236">
        <ele>112.9</ele>
        <time>2011-11-27T10:08:52Z</time>
      </trkpt>
      <trkpt lat="47.01464" lon="-1.10238">
        <ele>114.7</ele>
        <time>2011-11-27T10:08:56Z</time>
      </trkpt>
      <trkpt lat="47.01464" lon="-1.10246">
        <ele>113.5</ele>
        <time>2011-11-27T10:08:58Z</time>
      </trkpt>
      <trkpt lat="47.01464" lon="-1.10256">
        <ele>113.9</ele>
        <time>2011-11-27T10:09:00Z</time>
      </trkpt>
      <trkpt lat="47.01461" lon="-1.10265">
        <ele>113.8</ele>
        <time>2011-11-27T10:09:01Z</time>
      </trkpt>
      <trkpt lat="47.01462" lon="-1.10274">
        <ele>115.6</ele>
        <time>2011-11-27T10:09:03Z</time>
      </trkpt>
      <trkpt lat="47.01464" lon="-1.1028">
        <ele>116.4</ele>
        <time>2011-11-27T10:09:04Z</time>
      </trkpt>
      <trkpt lat="47.01465" lon="-1.10294">
        <ele>115.2</ele>
        <time>2011-11-27T10:09:06Z</time>
      </trkpt>
      <trkpt lat="47.01463" lon="-1.10302">
        <ele>115.4</ele>
        <time>2011-11-27T10:09:07Z</time>
      </trkpt>
      <trkpt lat="47.01461" lon="-1.10309">
        <ele>115.6</ele>
        <time>2011-11-27T10:09:08Z</time>
      </trkpt>
      <trkpt lat="47.01458" lon="-1.10322">
        <ele>115.3</ele>
        <time>2011-11-27T10:09:10Z</time>
      </trkpt>
      <trkpt lat="47.01459" lon="-1.10328">
        <ele>116.6</ele>
        <time>2011-11-27T10:09:11Z</time>
      </trkpt>
      <trkpt lat="47.0146" lon="-1.10335">
        <ele>117.1</ele>
        <time>2011-11-27T10:09:12Z</time>
      </trkpt>
      <trkpt lat="47.01462" lon="-1.10346">
        <ele>120.7</ele>
        <time>2011-11-27T10:09:14Z</time>
      </trkpt>
      <trkpt lat="47.01465" lon="-1.10351">
        <ele>118.9</ele>
        <time>2011-11-27T10:09:16Z</time>
      </trkpt>
      <trkpt lat="47.01459" lon="-1.10355">
        <ele>118.6</ele>
        <time>2011-11-27T10:09:20Z</time>
      </trkpt>
      <trkpt lat="47.01461" lon="-1.10362">
        <ele>116.3</ele>
        <time>2011-11-27T10:09:23Z</time>
      </trkpt>
      <trkpt lat="47.01463" lon="-1.10369">
        <ele>116</ele>
        <time>2011-11-27T10:09:30Z</time>
      </trkpt>
      <trkpt lat="47.01468" lon="-1.10372">
        <ele>119.9</ele>
        <time>2011-11-27T10:09:36Z</time>
      </trkpt>
      <trkpt lat="47.01466" lon="-1.10379">
        <ele>119.6</ele>
        <time>2011-11-27T10:09:42Z</time>
      </trkpt>
      <trkpt lat="47.0146" lon="-1.10387">
        <ele>119.4</ele>
        <time>2011-11-27T10:09:44Z</time>
      </trkpt>
      <trkpt lat="47.01455" lon="-1.10389">
        <ele>119.9</ele>
        <time>2011-11-27T10:09:46Z</time>
      </trkpt>
      <trkpt lat="47.01451" lon="-1.1039">
        <ele>120.5</ele>
        <time>2011-11-27T10:09:48Z</time>
      </trkpt>
      <trkpt lat="47.01453" lon="-1.10397">
        <ele>121.9</ele>
        <time>2011-11-27T10:09:59Z</time>
      </trkpt>
      <trkpt lat="47.01447" lon="-1.10404">
        <ele>122.1</ele>
        <time>2011-11-27T10:10:02Z</time>
      </trkpt>
      <trkpt lat="47.01445" lon="-1.10396">
        <ele>120.4</ele>
        <time>2011-11-27T10:10:06Z</time>
      </trkpt>
      <trkpt lat="47.0144" lon="-1.1041">
        <ele>123.5</ele>
        <time>2011-11-27T10:10:41Z</time>
      </trkpt>
      <trkpt lat="47.01443" lon="-1.10415">
        <ele>123.5</ele>
        <time>2011-11-27T10:10:44Z</time>
      </trkpt>
      <trkpt lat="47.01438" lon="-1.10417">
        <ele>125.8</ele>
        <time>2011-11-27T10:10:48Z</time>
      </trkpt>
      <trkpt lat="47.01432" lon="-1.10423">
        <ele>124.6</ele>
        <time>2011-11-27T10:10:50Z</time>
      </trkpt>
      <trkpt lat="47.01433" lon="-1.10431">
        <ele>129.1</ele>
        <time>2011-11-27T10:10:54Z</time>
      </trkpt>
      <trkpt lat="47.01431" lon="-1.10437">
        <ele>131</ele>
        <time>2011-11-27T10:11:01Z</time>
      </trkpt>
      <trkpt lat="47.01426" lon="-1.10438">
        <ele>132.5</ele>
        <time>2011-11-27T10:11:07Z</time>
      </trkpt>
      <trkpt lat="47.01427" lon="-1.10446">
        <ele>134.7</ele>
        <time>2011-11-27T10:11:44Z</time>
      </trkpt>
      <trkpt lat="47.01422" lon="-1.10445">
        <ele>133.3</ele>
        <time>2011-11-27T10:11:45Z</time>
      </trkpt>
      <trkpt lat="47.01417" lon="-1.10448">
        <ele>136</ele>
        <time>2011-11-27T10:11:49Z</time>
      </trkpt>
      <trkpt lat="47.01412" lon="-1.10448">
        <ele>137.5</ele>
        <time>2011-11-27T10:11:56Z</time>
      </trkpt>
      <trkpt lat="47.0141" lon="-1.10441">
        <ele>140.1</ele>
        <time>2011-11-27T10:12:24Z</time>
      </trkpt>
      <trkpt lat="47.01403" lon="-1.10445">
        <ele>142.7</ele>
        <time>2011-11-27T10:13:07Z</time>
      </trkpt>
      <trkpt lat="47.01399" lon="-1.10451">
        <ele>144.3</ele>
        <time>2011-11-27T10:13:11Z</time>
      </trkpt>
      <trkpt lat="47.01392" lon="-1.10454">
        <ele>144.3</ele>
        <time>2011-11-27T10:13:13Z</time>
      </trkpt>
      <trkpt lat="47.01387" lon="-1.10456">
        <ele>144.7</ele>
        <time>2011-11-27T10:13:14Z</time>
      </trkpt>
      <trkpt lat="47.01381" lon="-1.1046">
        <ele>145.8</ele>
        <time>2011-11-27T10:13:16Z</time>
      </trkpt>
      <trkpt lat="47.01376" lon="-1.10465">
        <ele>147.2</ele>
        <time>2011-11-27T10:13:19Z</time>
      </trkpt>
      <trkpt lat="47.01372" lon="-1.10466">
        <ele>147.2</ele>
        <time>2011-11-27T10:13:22Z</time>
      </trkpt>
      <trkpt lat="47.01367" lon="-1.10473">
        <ele>148.5</ele>
        <time>2011-11-27T10:13:28Z</time>
      </trkpt>
      <trkpt lat="47.01363" lon="-1.1048">
        <ele>149.2</ele>
        <time>2011-11-27T10:13:32Z</time>
      </trkpt>
      <trkpt lat="47.01362" lon="-1.10488">
        <ele>144.2</ele>
        <time>2011-11-27T10:13:36Z</time>
      </trkpt>
      <trkpt lat="47.01359" lon="-1.10494">
        <ele>144.1</ele>
        <time>2011-11-27T10:13:39Z</time>
      </trkpt>
      <trkpt lat="47.01356" lon="-1.10499">
        <ele>145.2</ele>
        <time>2011-11-27T10:13:42Z</time>
      </trkpt>
      <trkpt lat="47.01355" lon="-1.10506">
        <ele>144.9</ele>
        <time>2011-11-27T10:13:47Z</time>
      </trkpt>
      <trkpt lat="47.0135" lon="-1.10509">
        <ele>151</ele>
        <time>2011-11-27T10:13:52Z</time>
      </trkpt>
      <trkpt lat="47.01346" lon="-1.10514">
        <ele>150.6</ele>
        <time>2011-11-27T10:13:58Z</time>
      </trkpt>
      <trkpt lat="47.0134" lon="-1.10518">
        <ele>149</ele>
        <time>2011-11-27T10:14:01Z</time>
      </trkpt>
      <trkpt lat="47.01336" lon="-1.10521">
        <ele>148.1</ele>
        <time>2011-11-27T10:14:05Z</time>
      </trkpt>
      <trkpt lat="47.01331" lon="-1.10527">
        <ele>152.1</ele>
        <time>2011-11-27T10:14:14Z</time>
      </trkpt>
      <trkpt lat="47.01326" lon="-1.1053">
        <ele>152.7</ele>
        <time>2011-11-27T10:14:18Z</time>
      </trkpt>
      <trkpt lat="47.01322" lon="-1.10535">
        <ele>155.8</ele>
        <time>2011-11-27T10:14:21Z</time>
      </trkpt>
      <trkpt lat="47.01318" lon="-1.10538">
        <ele>155.4</ele>
        <time>2011-11-27T10:14:25Z</time>
      </trkpt>
      <trkpt lat="47.01315" lon="-1.10544">
        <ele>150.5</ele>
        <time>2011-11-27T10:14:32Z</time>
      </trkpt>
      <trkpt lat="47.01312" lon="-1.1055">
        <ele>150.4</ele>
        <time>2011-11-27T10:14:37Z</time>
      </trkpt>
      <trkpt lat="47.01309" lon="-1.10556">
        <ele>150.1</ele>
        <time>2011-11-27T10:14:41Z</time>
      </trkpt>
      <trkpt lat="47.01306" lon="-1.10562">
        <ele>150.8</ele>
        <time>2011-11-27T10:14:46Z</time>
      </trkpt>
      <trkpt lat="47.01303" lon="-1.10568">
        <ele>150.3</ele>
        <time>2011-11-27T10:14:50Z</time>
      </trkpt>
      <trkpt lat="47.013" lon="-1.10573">
        <ele>149.1</ele>
        <time>2011-11-27T10:14:55Z</time>
      </trkpt>
      <trkpt lat="47.01297" lon="-1.10568">
        <ele>148.2</ele>
        <time>2011-11-27T10:15:02Z</time>
      </trkpt>
      <trkpt lat="47.01298" lon="-1.10574">
        <ele>148.8</ele>
        <time>2011-11-27T10:15:47Z</time>
      </trkpt>
      <trkpt lat="47.01298" lon="-1.10574">
        <ele>148.8</ele>
        <time>2011-11-27T10:15:47Z</time>
      </trkpt>
      <trkpt lat="47.01298" lon="-1.10574">
        <ele>148.8</ele>
        <time>2011-11-27T10:15:48Z</time>
      </trkpt>
      <trkpt lat="47.01296" lon="-1.1058">
        <ele>147.6</ele>
        <time>2011-11-27T10:15:55Z</time>
      </trkpt>
      <trkpt lat="47.01295" lon="-1.10572">
        <ele>146.7</ele>
        <time>2011-11-27T10:16:09Z</time>
      </trkpt>
      <trkpt lat="47.01295" lon="-1.10579">
        <ele>148.1</ele>
        <time>2011-11-27T10:16:25Z</time>
      </trkpt>
      <trkpt lat="47.01295" lon="-1.10587">
        <ele>148.4</ele>
        <time>2011-11-27T10:16:28Z</time>
      </trkpt>
      <trkpt lat="47.01295" lon="-1.10595">
        <ele>148.6</ele>
        <time>2011-11-27T10:16:31Z</time>
      </trkpt>
      <trkpt lat="47.01294" lon="-1.10602">
        <ele>149.1</ele>
        <time>2011-11-27T10:16:34Z</time>
      </trkpt>
      <trkpt lat="47.01294" lon="-1.1061">
        <ele>149.3</ele>
        <time>2011-11-27T10:16:37Z</time>
      </trkpt>
      <trkpt lat="47.01294" lon="-1.10617">
        <ele>150</ele>
        <time>2011-11-27T10:16:40Z</time>
      </trkpt>
      <trkpt lat="47.01294" lon="-1.10625">
        <ele>150</ele>
        <time>2011-11-27T10:16:43Z</time>
      </trkpt>
      <trkpt lat="47.01293" lon="-1.10633">
        <ele>150</ele>
        <time>2011-11-27T10:16:46Z</time>
      </trkpt>
      <trkpt lat="47.01293" lon="-1.1064">
        <ele>150.7</ele>
        <time>2011-11-27T10:16:49Z</time>
      </trkpt>
      <trkpt lat="47.01293" lon="-1.10648">
        <ele>151</ele>
        <time>2011-11-27T10:16:51Z</time>
      </trkpt>
      <trkpt lat="47.0129" lon="-1.10657">
        <ele>151.8</ele>
        <time>2011-11-27T10:16:54Z</time>
      </trkpt>
      <trkpt lat="47.0129" lon="-1.10667">
        <ele>151.8</ele>
        <time>2011-11-27T10:16:57Z</time>
      </trkpt>
      <trkpt lat="47.0129" lon="-1.10676">
        <ele>152.2</ele>
        <time>2011-11-27T10:17:00Z</time>
      </trkpt>
      <trkpt lat="47.01289" lon="-1.10685">
        <ele>152.8</ele>
        <time>2011-11-27T10:17:03Z</time>
      </trkpt>
      <trkpt lat="47.01288" lon="-1.10695">
        <ele>152.7</ele>
        <time>2011-11-27T10:17:06Z</time>
      </trkpt>
      <trkpt lat="47.01288" lon="-1.10702">
        <ele>153.4</ele>
        <time>2011-11-27T10:17:08Z</time>
      </trkpt>
      <trkpt lat="47.01288" lon="-1.10709">
        <ele>153.4</ele>
        <time>2011-11-27T10:17:10Z</time>
      </trkpt>
      <trkpt lat="47.01288" lon="-1.10718">
        <ele>153.4</ele>
        <time>2011-11-27T10:17:13Z</time>
      </trkpt>
      <trkpt lat="47.01288" lon="-1.10725">
        <ele>153.4</ele>
        <time>2011-11-27T10:17:16Z</time>
      </trkpt>
      <trkpt lat="47.0129" lon="-1.10733">
        <ele>153.1</ele>
        <time>2011-11-27T10:17:21Z</time>
      </trkpt>
      <trkpt lat="47.01291" lon="-1.10742">
        <ele>153</ele>
        <time>2011-11-27T10:17:24Z</time>
      </trkpt>
      <trkpt lat="47.01291" lon="-1.10749">
        <ele>153.1</ele>
        <time>2011-11-27T10:17:26Z</time>
      </trkpt>
      <trkpt lat="47.01292" lon="-1.10759">
        <ele>152.8</ele>
        <time>2011-11-27T10:17:28Z</time>
      </trkpt>
      <trkpt lat="47.01292" lon="-1.10768">
        <ele>152.7</ele>
        <time>2011-11-27T10:17:30Z</time>
      </trkpt>
      <trkpt lat="47.01294" lon="-1.10776">
        <ele>152.1</ele>
        <time>2011-11-27T10:17:32Z</time>
      </trkpt>
      <trkpt lat="47.01296" lon="-1.10785">
        <ele>151.8</ele>
        <time>2011-11-27T10:17:34Z</time>
      </trkpt>
      <trkpt lat="47.01298" lon="-1.10794">
        <ele>151.5</ele>
        <time>2011-11-27T10:17:36Z</time>
      </trkpt>
      <trkpt lat="47.013" lon="-1.10805">
        <ele>150.6</ele>
        <time>2011-11-27T10:17:38Z</time>
      </trkpt>
      <trkpt lat="47.01303" lon="-1.10817">
        <ele>150.4</ele>
        <time>2011-11-27T10:17:40Z</time>
      </trkpt>
      <trkpt lat="47.01304" lon="-1.10824">
        <ele>150</ele>
        <time>2011-11-27T10:17:41Z</time>
      </trkpt>
      <trkpt lat="47.01306" lon="-1.1083">
        <ele>149.6</ele>
        <time>2011-11-27T10:17:42Z</time>
      </trkpt>
      <trkpt lat="47.01308" lon="-1.10837">
        <ele>149.5</ele>
        <time>2011-11-27T10:17:43Z</time>
      </trkpt>
      <trkpt lat="47.0131" lon="-1.10844">
        <ele>149.1</ele>
        <time>2011-11-27T10:17:44Z</time>
      </trkpt>
      <trkpt lat="47.01312" lon="-1.10852">
        <ele>148.9</ele>
        <time>2011-11-27T10:17:45Z</time>
      </trkpt>
      <trkpt lat="47.01314" lon="-1.10859">
        <ele>148.6</ele>
        <time>2011-11-27T10:17:46Z</time>
      </trkpt>
      <trkpt lat="47.01316" lon="-1.10867">
        <ele>148.2</ele>
        <time>2011-11-27T10:17:47Z</time>
      </trkpt>
      <trkpt lat="47.01317" lon="-1.10875">
        <ele>148.3</ele>
        <time>2011-11-27T10:17:48Z</time>
      </trkpt>
      <trkpt lat="47.01319" lon="-1.10884">
        <ele>148.3</ele>
        <time>2011-11-27T10:17:49Z</time>
      </trkpt>
      <trkpt lat="47.0132" lon="-1.10893">
        <ele>148</ele>
        <time>2011-11-27T10:17:50Z</time>
      </trkpt>
      <trkpt lat="47.01321" lon="-1.10901">
        <ele>148.1</ele>
        <time>2011-11-27T10:17:51Z</time>
      </trkpt>
      <trkpt lat="47.01323" lon="-1.1091">
        <ele>147.8</ele>
        <time>2011-11-27T10:17:52Z</time>
      </trkpt>
      <trkpt lat="47.01324" lon="-1.10918">
        <ele>147</ele>
        <time>2011-11-27T10:17:53Z</time>
      </trkpt>
      <trkpt lat="47.01326" lon="-1.10926">
        <ele>146.2</ele>
        <time>2011-11-27T10:17:54Z</time>
      </trkpt>
      <trkpt lat="47.01327" lon="-1.10933">
        <ele>145.8</ele>
        <time>2011-11-27T10:17:55Z</time>
      </trkpt>
      <trkpt lat="47.01329" lon="-1.1094">
        <ele>145.8</ele>
        <time>2011-11-27T10:17:56Z</time>
      </trkpt>
      <trkpt lat="47.01329" lon="-1.10948">
        <ele>145.8</ele>
        <time>2011-11-27T10:17:57Z</time>
      </trkpt>
      <trkpt lat="47.01331" lon="-1.10959">
        <ele>146.4</ele>
        <time>2011-11-27T10:17:58Z</time>
      </trkpt>
      <trkpt lat="47.01332" lon="-1.10968">
        <ele>146.8</ele>
        <time>2011-11-27T10:18:00Z</time>
      </trkpt>
      <trkpt lat="47.01336" lon="-1.1098">
        <ele>146.1</ele>
        <time>2011-11-27T10:18:01Z</time>
      </trkpt>
      <trkpt lat="47.01336" lon="-1.10988">
        <ele>145.7</ele>
        <time>2011-11-27T10:18:02Z</time>
      </trkpt>
      <trkpt lat="47.01336" lon="-1.10998">
        <ele>145.6</ele>
        <time>2011-11-27T10:18:03Z</time>
      </trkpt>
      <trkpt lat="47.0134" lon="-1.11013">
        <ele>145.6</ele>
        <time>2011-11-27T10:18:05Z</time>
      </trkpt>
      <trkpt lat="47.0134" lon="-1.11021">
        <ele>145.3</ele>
        <time>2011-11-27T10:18:07Z</time>
      </trkpt>
      <trkpt lat="47.01342" lon="-1.11029">
        <ele>144.2</ele>
        <time>2011-11-27T10:18:08Z</time>
      </trkpt>
      <trkpt lat="47.01344" lon="-1.11036">
        <ele>144.4</ele>
        <time>2011-11-27T10:18:09Z</time>
      </trkpt>
      <trkpt lat="47.01345" lon="-1.11044">
        <ele>143.9</ele>
        <time>2011-11-27T10:18:10Z</time>
      </trkpt>
      <trkpt lat="47.01347" lon="-1.11052">
        <ele>144.4</ele>
        <time>2011-11-27T10:18:11Z</time>
      </trkpt>
      <trkpt lat="47.01349" lon="-1.1106">
        <ele>144.3</ele>
        <time>2011-11-27T10:18:12Z</time>
      </trkpt>
      <trkpt lat="47.01351" lon="-1.11067">
        <ele>144.3</ele>
        <time>2011-11-27T10:18:13Z</time>
      </trkpt>
      <trkpt lat="47.01353" lon="-1.11075">
        <ele>143.7</ele>
        <time>2011-11-27T10:18:14Z</time>
      </trkpt>
      <trkpt lat="47.01354" lon="-1.11083">
        <ele>143.8</ele>
        <time>2011-11-27T10:18:15Z</time>
      </trkpt>
      <trkpt lat="47.01353" lon="-1.11091">
        <ele>143.5</ele>
        <time>2011-11-27T10:18:16Z</time>
      </trkpt>
      <trkpt lat="47.01351" lon="-1.11098">
        <ele>143.2</ele>
        <time>2011-11-27T10:18:17Z</time>
      </trkpt>
      <trkpt lat="47.01343" lon="-1.11107">
        <ele>144.4</ele>
        <time>2011-11-27T10:18:19Z</time>
      </trkpt>
      <trkpt lat="47.01339" lon="-1.11111">
        <ele>145.2</ele>
        <time>2011-11-27T10:18:20Z</time>
      </trkpt>
      <trkpt lat="47.01336" lon="-1.11116">
        <ele>145.3</ele>
        <time>2011-11-27T10:18:21Z</time>
      </trkpt>
      <trkpt lat="47.01334" lon="-1.11122">
        <ele>144.9</ele>
        <time>2011-11-27T10:18:22Z</time>
      </trkpt>
      <trkpt lat="47.0133" lon="-1.11134">
        <ele>145.8</ele>
        <time>2011-11-27T10:18:24Z</time>
      </trkpt>
      <trkpt lat="47.01328" lon="-1.11143">
        <ele>146.1</ele>
        <time>2011-11-27T10:18:25Z</time>
      </trkpt>
      <trkpt lat="47.01325" lon="-1.1115">
        <ele>146.2</ele>
        <time>2011-11-27T10:18:26Z</time>
      </trkpt>
      <trkpt lat="47.01322" lon="-1.11156">
        <ele>145.5</ele>
        <time>2011-11-27T10:18:27Z</time>
      </trkpt>
      <trkpt lat="47.01318" lon="-1.11162">
        <ele>145.4</ele>
        <time>2011-11-27T10:18:28Z</time>
      </trkpt>
      <trkpt lat="47.01312" lon="-1.1117">
        <ele>145.5</ele>
        <time>2011-11-27T10:18:30Z</time>
      </trkpt>
      <trkpt lat="47.01306" lon="-1.11176">
        <ele>145.3</ele>
        <time>2011-11-27T10:18:32Z</time>
      </trkpt>
      <trkpt lat="47.01298" lon="-1.11176">
        <ele>145.5</ele>
        <time>2011-11-27T10:18:34Z</time>
      </trkpt>
      <trkpt lat="47.01292" lon="-1.11176">
        <ele>146.1</ele>
        <time>2011-11-27T10:18:36Z</time>
      </trkpt>
      <trkpt lat="47.01286" lon="-1.11178">
        <ele>145.8</ele>
        <time>2011-11-27T10:18:37Z</time>
      </trkpt>
      <trkpt lat="47.0128" lon="-1.11178">
        <ele>145.6</ele>
        <time>2011-11-27T10:18:39Z</time>
      </trkpt>
      <trkpt lat="47.01272" lon="-1.1118">
        <ele>146.2</ele>
        <time>2011-11-27T10:18:41Z</time>
      </trkpt>
      <trkpt lat="47.01266" lon="-1.11177">
        <ele>146.9</ele>
        <time>2011-11-27T10:18:44Z</time>
      </trkpt>
      <trkpt lat="47.01262" lon="-1.11181">
        <ele>147.6</ele>
        <time>2011-11-27T10:18:46Z</time>
      </trkpt>
      <trkpt lat="47.01258" lon="-1.11188">
        <ele>147.9</ele>
        <time>2011-11-27T10:18:47Z</time>
      </trkpt>
      <trkpt lat="47.01256" lon="-1.11197">
        <ele>149.5</ele>
        <time>2011-11-27T10:18:48Z</time>
      </trkpt>
      <trkpt lat="47.01248" lon="-1.11198">
        <ele>150.3</ele>
        <time>2011-11-27T10:18:50Z</time>
      </trkpt>
      <trkpt lat="47.01243" lon="-1.11202">
        <ele>147.3</ele>
        <time>2011-11-27T10:18:52Z</time>
      </trkpt>
      <trkpt lat="47.01237" lon="-1.11204">
        <ele>145.8</ele>
        <time>2011-11-27T10:18:54Z</time>
      </trkpt>
      <trkpt lat="47.0123" lon="-1.11206">
        <ele>146.5</ele>
        <time>2011-11-27T10:18:56Z</time>
      </trkpt>
      <trkpt lat="47.01222" lon="-1.1121">
        <ele>144.4</ele>
        <time>2011-11-27T10:18:58Z</time>
      </trkpt>
      <trkpt lat="47.01218" lon="-1.11216">
        <ele>144.4</ele>
        <time>2011-11-27T10:19:00Z</time>
      </trkpt>
      <trkpt lat="47.01213" lon="-1.11219">
        <ele>146</ele>
        <time>2011-11-27T10:19:01Z</time>
      </trkpt>
      <trkpt lat="47.0121" lon="-1.11224">
        <ele>145</ele>
        <time>2011-11-27T10:19:02Z</time>
      </trkpt>
      <trkpt lat="47.01205" lon="-1.11229">
        <ele>146.2</ele>
        <time>2011-11-27T10:19:03Z</time>
      </trkpt>
      <trkpt lat="47.01202" lon="-1.11235">
        <ele>145.7</ele>
        <time>2011-11-27T10:19:04Z</time>
      </trkpt>
      <trkpt lat="47.01202" lon="-1.11245">
        <ele>145.1</ele>
        <time>2011-11-27T10:19:06Z</time>
      </trkpt>
      <trkpt lat="47.012" lon="-1.11254">
        <ele>143.7</ele>
        <time>2011-11-27T10:19:08Z</time>
      </trkpt>
      <trkpt lat="47.01198" lon="-1.11263">
        <ele>146</ele>
        <time>2011-11-27T10:19:10Z</time>
      </trkpt>
      <trkpt lat="47.01196" lon="-1.11273">
        <ele>147.1</ele>
        <time>2011-11-27T10:19:12Z</time>
      </trkpt>
      <trkpt lat="47.01192" lon="-1.11282">
        <ele>148.2</ele>
        <time>2011-11-27T10:19:14Z</time>
      </trkpt>
      <trkpt lat="47.0119" lon="-1.11293">
        <ele>148.5</ele>
        <time>2011-11-27T10:19:16Z</time>
      </trkpt>
      <trkpt lat="47.01189" lon="-1.113">
        <ele>148.6</ele>
        <time>2011-11-27T10:19:17Z</time>
      </trkpt>
      <trkpt lat="47.01187" lon="-1.11312">
        <ele>148</ele>
        <time>2011-11-27T10:19:19Z</time>
      </trkpt>
      <trkpt lat="47.01182" lon="-1.11318">
        <ele>146.8</ele>
        <time>2011-11-27T10:19:20Z</time>
      </trkpt>
      <trkpt lat="47.01181" lon="-1.11325">
        <ele>146</ele>
        <time>2011-11-27T10:19:21Z</time>
      </trkpt>
      <trkpt lat="47.01182" lon="-1.11336">
        <ele>146.5</ele>
        <time>2011-11-27T10:19:23Z</time>
      </trkpt>
      <trkpt lat="47.01179" lon="-1.11342">
        <ele>145.4</ele>
        <time>2011-11-27T10:19:24Z</time>
      </trkpt>
      <trkpt lat="47.01174" lon="-1.11349">
        <ele>146</ele>
        <time>2011-11-27T10:19:26Z</time>
      </trkpt>
      <trkpt lat="47.01169" lon="-1.11355">
        <ele>146.7</ele>
        <time>2011-11-27T10:19:27Z</time>
      </trkpt>
      <trkpt lat="47.01164" lon="-1.11359">
        <ele>147.3</ele>
        <time>2011-11-27T10:19:28Z</time>
      </trkpt>
      <trkpt lat="47.01158" lon="-1.11362">
        <ele>148.4</ele>
        <time>2011-11-27T10:19:29Z</time>
      </trkpt>
      <trkpt lat="47.01153" lon="-1.1136">
        <ele>149.6</ele>
        <time>2011-11-27T10:19:30Z</time>
      </trkpt>
      <trkpt lat="47.01148" lon="-1.11353">
        <ele>147.8</ele>
        <time>2011-11-27T10:19:31Z</time>
      </trkpt>
      <trkpt lat="47.01144" lon="-1.11347">
        <ele>148.1</ele>
        <time>2011-11-27T10:19:32Z</time>
      </trkpt>
      <trkpt lat="47.01139" lon="-1.11343">
        <ele>147.7</ele>
        <time>2011-11-27T10:19:33Z</time>
      </trkpt>
      <trkpt lat="47.01131" lon="-1.1134">
        <ele>147.9</ele>
        <time>2011-11-27T10:19:34Z</time>
      </trkpt>
      <trkpt lat="47.01122" lon="-1.11332">
        <ele>145.6</ele>
        <time>2011-11-27T10:19:36Z</time>
      </trkpt>
      <trkpt lat="47.01115" lon="-1.11333">
        <ele>145.2</ele>
        <time>2011-11-27T10:19:37Z</time>
      </trkpt>
      <trkpt lat="47.0111" lon="-1.11336">
        <ele>145</ele>
        <time>2011-11-27T10:19:38Z</time>
      </trkpt>
      <trkpt lat="47.01106" lon="-1.11327">
        <ele>144.7</ele>
        <time>2011-11-27T10:19:40Z</time>
      </trkpt>
      <trkpt lat="47.01103" lon="-1.1132">
        <ele>145.3</ele>
        <time>2011-11-27T10:19:42Z</time>
      </trkpt>
      <trkpt lat="47.01097" lon="-1.11319">
        <ele>145.4</ele>
        <time>2011-11-27T10:19:44Z</time>
      </trkpt>
      <trkpt lat="47.01089" lon="-1.11318">
        <ele>145.9</ele>
        <time>2011-11-27T10:19:46Z</time>
      </trkpt>
      <trkpt lat="47.0108" lon="-1.11321">
        <ele>146.5</ele>
        <time>2011-11-27T10:19:48Z</time>
      </trkpt>
      <trkpt lat="47.01071" lon="-1.11322">
        <ele>146.2</ele>
        <time>2011-11-27T10:19:50Z</time>
      </trkpt>
      <trkpt lat="47.01066" lon="-1.11322">
        <ele>146.9</ele>
        <time>2011-11-27T10:19:53Z</time>
      </trkpt>
      <trkpt lat="47.0106" lon="-1.11318">
        <ele>146.9</ele>
        <time>2011-11-27T10:19:55Z</time>
      </trkpt>
      <trkpt lat="47.01054" lon="-1.11319">
        <ele>146.5</ele>
        <time>2011-11-27T10:19:57Z</time>
      </trkpt>
      <trkpt lat="47.01046" lon="-1.1132">
        <ele>147.7</ele>
        <time>2011-11-27T10:19:59Z</time>
      </trkpt>
      <trkpt lat="47.01042" lon="-1.11321">
        <ele>148.2</ele>
        <time>2011-11-27T10:20:00Z</time>
      </trkpt>
      <trkpt lat="47.01038" lon="-1.11318">
        <ele>150</ele>
        <time>2011-11-27T10:20:01Z</time>
      </trkpt>
      <trkpt lat="47.01032" lon="-1.11319">
        <ele>149.3</ele>
        <time>2011-11-27T10:20:02Z</time>
      </trkpt>
      <trkpt lat="47.01026" lon="-1.11323">
        <ele>149.3</ele>
        <time>2011-11-27T10:20:03Z</time>
      </trkpt>
      <trkpt lat="47.0102" lon="-1.11326">
        <ele>148.9</ele>
        <time>2011-11-27T10:20:05Z</time>
      </trkpt>
      <trkpt lat="47.01014" lon="-1.11328">
        <ele>148.5</ele>
        <time>2011-11-27T10:20:06Z</time>
      </trkpt>
      <trkpt lat="47.01008" lon="-1.1133">
        <ele>148.6</ele>
        <time>2011-11-27T10:20:07Z</time>
      </trkpt>
      <trkpt lat="47.01003" lon="-1.11335">
        <ele>148</ele>
        <time>2011-11-27T10:20:08Z</time>
      </trkpt>
      <trkpt lat="47.00999" lon="-1.1134">
        <ele>148.5</ele>
        <time>2011-11-27T10:20:09Z</time>
      </trkpt>
      <trkpt lat="47.00993" lon="-1.11342">
        <ele>147.3</ele>
        <time>2011-11-27T10:20:10Z</time>
      </trkpt>
      <trkpt lat="47.00987" lon="-1.11345">
        <ele>146.9</ele>
        <time>2011-11-27T10:20:11Z</time>
      </trkpt>
      <trkpt lat="47.0098" lon="-1.1135">
        <ele>146.9</ele>
        <time>2011-11-27T10:20:12Z</time>
      </trkpt>
      <trkpt lat="47.00971" lon="-1.11353">
        <ele>147.4</ele>
        <time>2011-11-27T10:20:13Z</time>
      </trkpt>
      <trkpt lat="47.00964" lon="-1.11352">
        <ele>147</ele>
        <time>2011-11-27T10:20:14Z</time>
      </trkpt>
      <trkpt lat="47.00958" lon="-1.11358">
        <ele>146.8</ele>
        <time>2011-11-27T10:20:15Z</time>
      </trkpt>
      <trkpt lat="47.00954" lon="-1.11365">
        <ele>146.2</ele>
        <time>2011-11-27T10:20:16Z</time>
      </trkpt>
      <trkpt lat="47.00946" lon="-1.1137">
        <ele>146.3</ele>
        <time>2011-11-27T10:20:17Z</time>
      </trkpt>
      <trkpt lat="47.00935" lon="-1.11378">
        <ele>145.7</ele>
        <time>2011-11-27T10:20:19Z</time>
      </trkpt>
      <trkpt lat="47.0093" lon="-1.11386">
        <ele>145.3</ele>
        <time>2011-11-27T10:20:20Z</time>
      </trkpt>
      <trkpt lat="47.00923" lon="-1.11392">
        <ele>145</ele>
        <time>2011-11-27T10:20:21Z</time>
      </trkpt>
      <trkpt lat="47.00917" lon="-1.11401">
        <ele>145.8</ele>
        <time>2011-11-27T10:20:22Z</time>
      </trkpt>
      <trkpt lat="47.00913" lon="-1.11408">
        <ele>145</ele>
        <time>2011-11-27T10:20:23Z</time>
      </trkpt>
      <trkpt lat="47.00906" lon="-1.11414">
        <ele>143.6</ele>
        <time>2011-11-27T10:20:24Z</time>
      </trkpt>
      <trkpt lat="47.00902" lon="-1.11422">
        <ele>142</ele>
        <time>2011-11-27T10:20:25Z</time>
      </trkpt>
      <trkpt lat="47.00895" lon="-1.1143">
        <ele>142.3</ele>
        <time>2011-11-27T10:20:26Z</time>
      </trkpt>
      <trkpt lat="47.00895" lon="-1.11441">
        <ele>143</ele>
        <time>2011-11-27T10:20:28Z</time>
      </trkpt>
      <trkpt lat="47.00892" lon="-1.11452">
        <ele>142.1</ele>
        <time>2011-11-27T10:20:30Z</time>
      </trkpt>
      <trkpt lat="47.00895" lon="-1.11458">
        <ele>142.4</ele>
        <time>2011-11-27T10:20:32Z</time>
      </trkpt>
      <trkpt lat="47.00899" lon="-1.1146">
        <ele>142.5</ele>
        <time>2011-11-27T10:20:33Z</time>
      </trkpt>
      <trkpt lat="47.00906" lon="-1.11471">
        <ele>141</ele>
        <time>2011-11-27T10:20:35Z</time>
      </trkpt>
      <trkpt lat="47.0091" lon="-1.11474">
        <ele>141.5</ele>
        <time>2011-11-27T10:20:36Z</time>
      </trkpt>
      <trkpt lat="47.00916" lon="-1.11479">
        <ele>141</ele>
        <time>2011-11-27T10:20:38Z</time>
      </trkpt>
      <trkpt lat="47.00918" lon="-1.11484">
        <ele>141.4</ele>
        <time>2011-11-27T10:20:39Z</time>
      </trkpt>
      <trkpt lat="47.00927" lon="-1.11491">
        <ele>141.6</ele>
        <time>2011-11-27T10:20:41Z</time>
      </trkpt>
      <trkpt lat="47.00935" lon="-1.11495">
        <ele>139.7</ele>
        <time>2011-11-27T10:20:43Z</time>
      </trkpt>
      <trkpt lat="47.00941" lon="-1.11502">
        <ele>140.6</ele>
        <time>2011-11-27T10:20:45Z</time>
      </trkpt>
      <trkpt lat="47.00946" lon="-1.11504">
        <ele>140.2</ele>
        <time>2011-11-27T10:20:46Z</time>
      </trkpt>
      <trkpt lat="47.0095" lon="-1.11508">
        <ele>140.6</ele>
        <time>2011-11-27T10:20:47Z</time>
      </trkpt>
      <trkpt lat="47.00957" lon="-1.11509">
        <ele>140</ele>
        <time>2011-11-27T10:20:48Z</time>
      </trkpt>
      <trkpt lat="47.00961" lon="-1.11515">
        <ele>140.1</ele>
        <time>2011-11-27T10:20:49Z</time>
      </trkpt>
      <trkpt lat="47.00965" lon="-1.11518">
        <ele>140.1</ele>
        <time>2011-11-27T10:20:50Z</time>
      </trkpt>
      <trkpt lat="47.00972" lon="-1.11526">
        <ele>141.5</ele>
        <time>2011-11-27T10:20:52Z</time>
      </trkpt>
      <trkpt lat="47.00976" lon="-1.11529">
        <ele>141.6</ele>
        <time>2011-11-27T10:20:53Z</time>
      </trkpt>
      <trkpt lat="47.00982" lon="-1.11532">
        <ele>140.9</ele>
        <time>2011-11-27T10:20:54Z</time>
      </trkpt>
      <trkpt lat="47.00989" lon="-1.11534">
        <ele>140.9</ele>
        <time>2011-11-27T10:20:55Z</time>
      </trkpt>
      <trkpt lat="47.00993" lon="-1.11536">
        <ele>140.5</ele>
        <time>2011-11-27T10:20:56Z</time>
      </trkpt>
      <trkpt lat="47.00998" lon="-1.11538">
        <ele>140.4</ele>
        <time>2011-11-27T10:20:57Z</time>
      </trkpt>
      <trkpt lat="47.01003" lon="-1.1154">
        <ele>140.3</ele>
        <time>2011-11-27T10:20:58Z</time>
      </trkpt>
      <trkpt lat="47.01009" lon="-1.11541">
        <ele>139.5</ele>
        <time>2011-11-27T10:20:59Z</time>
      </trkpt>
      <trkpt lat="47.01016" lon="-1.11545">
        <ele>139.5</ele>
        <time>2011-11-27T10:21:00Z</time>
      </trkpt>
      <trkpt lat="47.0102" lon="-1.11547">
        <ele>139.9</ele>
        <time>2011-11-27T10:21:01Z</time>
      </trkpt>
      <trkpt lat="47.01028" lon="-1.11549">
        <ele>139.1</ele>
        <time>2011-11-27T10:21:02Z</time>
      </trkpt>
      <trkpt lat="47.01035" lon="-1.11546">
        <ele>139.1</ele>
        <time>2011-11-27T10:21:03Z</time>
      </trkpt>
      <trkpt lat="47.0104" lon="-1.11546">
        <ele>138.4</ele>
        <time>2011-11-27T10:21:04Z</time>
      </trkpt>
      <trkpt lat="47.01046" lon="-1.11543">
        <ele>139.2</ele>
        <time>2011-11-27T10:21:05Z</time>
      </trkpt>
      <trkpt lat="47.01054" lon="-1.11543">
        <ele>138.2</ele>
        <time>2011-11-27T10:21:06Z</time>
      </trkpt>
      <trkpt lat="47.01061" lon="-1.11542">
        <ele>137.7</ele>
        <time>2011-11-27T10:21:07Z</time>
      </trkpt>
      <trkpt lat="47.01066" lon="-1.11542">
        <ele>137.4</ele>
        <time>2011-11-27T10:21:08Z</time>
      </trkpt>
      <trkpt lat="47.01076" lon="-1.11541">
        <ele>136.8</ele>
        <time>2011-11-27T10:21:09Z</time>
      </trkpt>
      <trkpt lat="47.01082" lon="-1.11539">
        <ele>136.1</ele>
        <time>2011-11-27T10:21:10Z</time>
      </trkpt>
      <trkpt lat="47.01087" lon="-1.1154">
        <ele>136.8</ele>
        <time>2011-11-27T10:21:11Z</time>
      </trkpt>
      <trkpt lat="47.01094" lon="-1.11537">
        <ele>137.4</ele>
        <time>2011-11-27T10:21:12Z</time>
      </trkpt>
      <trkpt lat="47.01101" lon="-1.11539">
        <ele>137</ele>
        <time>2011-11-27T10:21:14Z</time>
      </trkpt>
      <trkpt lat="47.01107" lon="-1.11541">
        <ele>135.8</ele>
        <time>2011-11-27T10:21:15Z</time>
      </trkpt>
      <trkpt lat="47.01111" lon="-1.11546">
        <ele>135.1</ele>
        <time>2011-11-27T10:21:16Z</time>
      </trkpt>
      <trkpt lat="47.01114" lon="-1.11555">
        <ele>134.4</ele>
        <time>2011-11-27T10:21:18Z</time>
      </trkpt>
      <trkpt lat="47.01118" lon="-1.11561">
        <ele>133.3</ele>
        <time>2011-11-27T10:21:19Z</time>
      </trkpt>
      <trkpt lat="47.01122" lon="-1.1157">
        <ele>131.1</ele>
        <time>2011-11-27T10:21:20Z</time>
      </trkpt>
      <trkpt lat="47.01126" lon="-1.11578">
        <ele>129.2</ele>
        <time>2011-11-27T10:21:21Z</time>
      </trkpt>
      <trkpt lat="47.01128" lon="-1.11586">
        <ele>128.8</ele>
        <time>2011-11-27T10:21:22Z</time>
      </trkpt>
      <trkpt lat="47.0113" lon="-1.11594">
        <ele>128.5</ele>
        <time>2011-11-27T10:21:23Z</time>
      </trkpt>
      <trkpt lat="47.0113" lon="-1.11602">
        <ele>128.4</ele>
        <time>2011-11-27T10:21:24Z</time>
      </trkpt>
      <trkpt lat="47.01128" lon="-1.11616">
        <ele>127.5</ele>
        <time>2011-11-27T10:21:25Z</time>
      </trkpt>
      <trkpt lat="47.01126" lon="-1.11624">
        <ele>127</ele>
        <time>2011-11-27T10:21:26Z</time>
      </trkpt>
      <trkpt lat="47.01118" lon="-1.11631">
        <ele>127.4</ele>
        <time>2011-11-27T10:21:27Z</time>
      </trkpt>
      <trkpt lat="47.01113" lon="-1.1164">
        <ele>127.2</ele>
        <time>2011-11-27T10:21:28Z</time>
      </trkpt>
      <trkpt lat="47.01107" lon="-1.11649">
        <ele>128.7</ele>
        <time>2011-11-27T10:21:29Z</time>
      </trkpt>
      <trkpt lat="47.01103" lon="-1.1166">
        <ele>128.2</ele>
        <time>2011-11-27T10:21:30Z</time>
      </trkpt>
      <trkpt lat="47.01099" lon="-1.11668">
        <ele>129.8</ele>
        <time>2011-11-27T10:21:31Z</time>
      </trkpt>
      <trkpt lat="47.01097" lon="-1.11676">
        <ele>129.7</ele>
        <time>2011-11-27T10:21:32Z</time>
      </trkpt>
      <trkpt lat="47.01091" lon="-1.11685">
        <ele>128.5</ele>
        <time>2011-11-27T10:21:33Z</time>
      </trkpt>
      <trkpt lat="47.01087" lon="-1.11689">
        <ele>127.8</ele>
        <time>2011-11-27T10:21:34Z</time>
      </trkpt>
      <trkpt lat="47.0108" lon="-1.11696">
        <ele>127.5</ele>
        <time>2011-11-27T10:21:35Z</time>
      </trkpt>
      <trkpt lat="47.01075" lon="-1.11703">
        <ele>127.5</ele>
        <time>2011-11-27T10:21:36Z</time>
      </trkpt>
      <trkpt lat="47.01071" lon="-1.1171">
        <ele>125.7</ele>
        <time>2011-11-27T10:21:37Z</time>
      </trkpt>
      <trkpt lat="47.01069" lon="-1.1172">
        <ele>124</ele>
        <time>2011-11-27T10:21:38Z</time>
      </trkpt>
      <trkpt lat="47.01068" lon="-1.1173">
        <ele>124.4</ele>
        <time>2011-11-27T10:21:40Z</time>
      </trkpt>
      <trkpt lat="47.01066" lon="-1.11739">
        <ele>124.1</ele>
        <time>2011-11-27T10:21:41Z</time>
      </trkpt>
      <trkpt lat="47.01066" lon="-1.11747">
        <ele>124</ele>
        <time>2011-11-27T10:21:42Z</time>
      </trkpt>
      <trkpt lat="47.01062" lon="-1.11754">
        <ele>123</ele>
        <time>2011-11-27T10:21:43Z</time>
      </trkpt>
      <trkpt lat="47.01058" lon="-1.11761">
        <ele>122.6</ele>
        <time>2011-11-27T10:21:44Z</time>
      </trkpt>
      <trkpt lat="47.0105" lon="-1.11769">
        <ele>122.4</ele>
        <time>2011-11-27T10:21:45Z</time>
      </trkpt>
      <trkpt lat="47.01043" lon="-1.11775">
        <ele>122</ele>
        <time>2011-11-27T10:21:46Z</time>
      </trkpt>
      <trkpt lat="47.01039" lon="-1.11779">
        <ele>121.1</ele>
        <time>2011-11-27T10:21:47Z</time>
      </trkpt>
      <trkpt lat="47.01034" lon="-1.11787">
        <ele>121.6</ele>
        <time>2011-11-27T10:21:48Z</time>
      </trkpt>
      <trkpt lat="47.01028" lon="-1.11792">
        <ele>120.1</ele>
        <time>2011-11-27T10:21:51Z</time>
      </trkpt>
      <trkpt lat="47.01023" lon="-1.11794">
        <ele>120.1</ele>
        <time>2011-11-27T10:21:52Z</time>
      </trkpt>
      <trkpt lat="47.0102" lon="-1.11782">
        <ele>117.9</ele>
        <time>2011-11-27T10:21:54Z</time>
      </trkpt>
      <trkpt lat="47.01015" lon="-1.11777">
        <ele>117.2</ele>
        <time>2011-11-27T10:21:56Z</time>
      </trkpt>
      <trkpt lat="47.01017" lon="-1.11784">
        <ele>116.9</ele>
        <time>2011-11-27T10:21:58Z</time>
      </trkpt>
      <trkpt lat="47.01016" lon="-1.11796">
        <ele>117.3</ele>
        <time>2011-11-27T10:21:59Z</time>
      </trkpt>
      <trkpt lat="47.01013" lon="-1.11804">
        <ele>114.8</ele>
        <time>2011-11-27T10:22:00Z</time>
      </trkpt>
      <trkpt lat="47.01013" lon="-1.11814">
        <ele>113.2</ele>
        <time>2011-11-27T10:22:02Z</time>
      </trkpt>
      <trkpt lat="47.01015" lon="-1.11821">
        <ele>113.9</ele>
        <time>2011-11-27T10:22:03Z</time>
      </trkpt>
      <trkpt lat="47.01017" lon="-1.11827">
        <ele>113.4</ele>
        <time>2011-11-27T10:22:04Z</time>
      </trkpt>
      <trkpt lat="47.01022" lon="-1.11836">
        <ele>113.3</ele>
        <time>2011-11-27T10:22:06Z</time>
      </trkpt>
      <trkpt lat="47.01025" lon="-1.11844">
        <ele>113.2</ele>
        <time>2011-11-27T10:22:07Z</time>
      </trkpt>
      <trkpt lat="47.0103" lon="-1.1185">
        <ele>112.9</ele>
        <time>2011-11-27T10:22:08Z</time>
      </trkpt>
      <trkpt lat="47.01036" lon="-1.11853">
        <ele>112.4</ele>
        <time>2011-11-27T10:22:09Z</time>
      </trkpt>
      <trkpt lat="47.01042" lon="-1.11857">
        <ele>112.9</ele>
        <time>2011-11-27T10:22:10Z</time>
      </trkpt>
      <trkpt lat="47.01048" lon="-1.11861">
        <ele>112.7</ele>
        <time>2011-11-27T10:22:11Z</time>
      </trkpt>
      <trkpt lat="47.01053" lon="-1.11864">
        <ele>112.5</ele>
        <time>2011-11-27T10:22:12Z</time>
      </trkpt>
      <trkpt lat="47.01058" lon="-1.11868">
        <ele>112.6</ele>
        <time>2011-11-27T10:22:13Z</time>
      </trkpt>
      <trkpt lat="47.01063" lon="-1.11875">
        <ele>111.5</ele>
        <time>2011-11-27T10:22:14Z</time>
      </trkpt>
      <trkpt lat="47.01071" lon="-1.11878">
        <ele>111.6</ele>
        <time>2011-11-27T10:22:16Z</time>
      </trkpt>
      <trkpt lat="47.01076" lon="-1.11881">
        <ele>111.3</ele>
        <time>2011-11-27T10:22:17Z</time>
      </trkpt>
      <trkpt lat="47.01081" lon="-1.1189">
        <ele>110.9</ele>
        <time>2011-11-27T10:22:18Z</time>
      </trkpt>
      <trkpt lat="47.01085" lon="-1.11894">
        <ele>111.5</ele>
        <time>2011-11-27T10:22:19Z</time>
      </trkpt>
      <trkpt lat="47.01094" lon="-1.11902">
        <ele>111.6</ele>
        <time>2011-11-27T10:22:21Z</time>
      </trkpt>
      <trkpt lat="47.01102" lon="-1.11905">
        <ele>111.1</ele>
        <time>2011-11-27T10:22:23Z</time>
      </trkpt>
      <trkpt lat="47.01107" lon="-1.11907">
        <ele>111.5</ele>
        <time>2011-11-27T10:22:24Z</time>
      </trkpt>
      <trkpt lat="47.01116" lon="-1.11907">
        <ele>112.9</ele>
        <time>2011-11-27T10:22:26Z</time>
      </trkpt>
      <trkpt lat="47.01124" lon="-1.11912">
        <ele>113.5</ele>
        <time>2011-11-27T10:22:28Z</time>
      </trkpt>
      <trkpt lat="47.01132" lon="-1.11916">
        <ele>115</ele>
        <time>2011-11-27T10:22:30Z</time>
      </trkpt>
      <trkpt lat="47.01138" lon="-1.11924">
        <ele>116.1</ele>
        <time>2011-11-27T10:22:32Z</time>
      </trkpt>
      <trkpt lat="47.01142" lon="-1.11925">
        <ele>116.6</ele>
        <time>2011-11-27T10:22:33Z</time>
      </trkpt>
      <trkpt lat="47.01148" lon="-1.11925">
        <ele>116.1</ele>
        <time>2011-11-27T10:22:34Z</time>
      </trkpt>
      <trkpt lat="47.01154" lon="-1.11926">
        <ele>117.2</ele>
        <time>2011-11-27T10:22:35Z</time>
      </trkpt>
      <trkpt lat="47.01165" lon="-1.11925">
        <ele>117.9</ele>
        <time>2011-11-27T10:22:37Z</time>
      </trkpt>
      <trkpt lat="47.0117" lon="-1.11925">
        <ele>117.7</ele>
        <time>2011-11-27T10:22:38Z</time>
      </trkpt>
      <trkpt lat="47.01174" lon="-1.11924">
        <ele>118.8</ele>
        <time>2011-11-27T10:22:39Z</time>
      </trkpt>
      <trkpt lat="47.01181" lon="-1.11929">
        <ele>119.7</ele>
        <time>2011-11-27T10:22:41Z</time>
      </trkpt>
      <trkpt lat="47.01186" lon="-1.11927">
        <ele>119.8</ele>
        <time>2011-11-27T10:22:42Z</time>
      </trkpt>
      <trkpt lat="47.01193" lon="-1.11928">
        <ele>120.5</ele>
        <time>2011-11-27T10:22:43Z</time>
      </trkpt>
      <trkpt lat="47.01203" lon="-1.11925">
        <ele>119.9</ele>
        <time>2011-11-27T10:22:45Z</time>
      </trkpt>
      <trkpt lat="47.01208" lon="-1.11924">
        <ele>121.7</ele>
        <time>2011-11-27T10:22:46Z</time>
      </trkpt>
      <trkpt lat="47.01216" lon="-1.11928">
        <ele>123.2</ele>
        <time>2011-11-27T10:22:48Z</time>
      </trkpt>
      <trkpt lat="47.01221" lon="-1.11928">
        <ele>124.3</ele>
        <time>2011-11-27T10:22:49Z</time>
      </trkpt>
      <trkpt lat="47.01227" lon="-1.11926">
        <ele>125.3</ele>
        <time>2011-11-27T10:22:50Z</time>
      </trkpt>
      <trkpt lat="47.01231" lon="-1.11928">
        <ele>123.9</ele>
        <time>2011-11-27T10:22:51Z</time>
      </trkpt>
      <trkpt lat="47.01238" lon="-1.11928">
        <ele>123</ele>
        <time>2011-11-27T10:22:53Z</time>
      </trkpt>
      <trkpt lat="47.01243" lon="-1.11929">
        <ele>123.3</ele>
        <time>2011-11-27T10:22:54Z</time>
      </trkpt>
      <trkpt lat="47.0125" lon="-1.11926">
        <ele>122.2</ele>
        <time>2011-11-27T10:22:55Z</time>
      </trkpt>
      <trkpt lat="47.01256" lon="-1.11922">
        <ele>121.7</ele>
        <time>2011-11-27T10:22:56Z</time>
      </trkpt>
      <trkpt lat="47.0126" lon="-1.11919">
        <ele>121.9</ele>
        <time>2011-11-27T10:22:57Z</time>
      </trkpt>
      <trkpt lat="47.01266" lon="-1.1192">
        <ele>121.5</ele>
        <time>2011-11-27T10:22:58Z</time>
      </trkpt>
      <trkpt lat="47.01272" lon="-1.11915">
        <ele>120.4</ele>
        <time>2011-11-27T10:23:00Z</time>
      </trkpt>
      <trkpt lat="47.01278" lon="-1.11915">
        <ele>118.5</ele>
        <time>2011-11-27T10:23:02Z</time>
      </trkpt>
      <trkpt lat="47.01283" lon="-1.11911">
        <ele>118.7</ele>
        <time>2011-11-27T10:23:03Z</time>
      </trkpt>
      <trkpt lat="47.01287" lon="-1.11912">
        <ele>119</ele>
        <time>2011-11-27T10:23:05Z</time>
      </trkpt>
      <trkpt lat="47.01292" lon="-1.11909">
        <ele>119.4</ele>
        <time>2011-11-27T10:23:06Z</time>
      </trkpt>
      <trkpt lat="47.01296" lon="-1.11904">
        <ele>118.2</ele>
        <time>2011-11-27T10:23:08Z</time>
      </trkpt>
      <trkpt lat="47.01303" lon="-1.11906">
        <ele>116.5</ele>
        <time>2011-11-27T10:23:10Z</time>
      </trkpt>
      <trkpt lat="47.01308" lon="-1.11908">
        <ele>114.5</ele>
        <time>2011-11-27T10:23:12Z</time>
      </trkpt>
      <trkpt lat="47.01312" lon="-1.11903">
        <ele>110.6</ele>
        <time>2011-11-27T10:23:14Z</time>
      </trkpt>
      <trkpt lat="47.01311" lon="-1.11893">
        <ele>109.5</ele>
        <time>2011-11-27T10:23:17Z</time>
      </trkpt>
      <trkpt lat="47.01309" lon="-1.11886">
        <ele>107.7</ele>
        <time>2011-11-27T10:23:19Z</time>
      </trkpt>
      <trkpt lat="47.01304" lon="-1.1188">
        <ele>107.4</ele>
        <time>2011-11-27T10:23:21Z</time>
      </trkpt>
      <trkpt lat="47.01305" lon="-1.11871">
        <ele>107.9</ele>
        <time>2011-11-27T10:23:23Z</time>
      </trkpt>
      <trkpt lat="47.01306" lon="-1.1186">
        <ele>106.3</ele>
        <time>2011-11-27T10:23:25Z</time>
      </trkpt>
      <trkpt lat="47.01306" lon="-1.11851">
        <ele>107</ele>
        <time>2011-11-27T10:23:27Z</time>
      </trkpt>
      <trkpt lat="47.01304" lon="-1.11844">
        <ele>107.7</ele>
        <time>2011-11-27T10:23:29Z</time>
      </trkpt>
      <trkpt lat="47.01305" lon="-1.11837">
        <ele>107.9</ele>
        <time>2011-11-27T10:23:30Z</time>
      </trkpt>
      <trkpt lat="47.01308" lon="-1.11828">
        <ele>108.6</ele>
        <time>2011-11-27T10:23:33Z</time>
      </trkpt>
      <trkpt lat="47.01312" lon="-1.11822">
        <ele>107.7</ele>
        <time>2011-11-27T10:23:35Z</time>
      </trkpt>
      <trkpt lat="47.01318" lon="-1.11817">
        <ele>107.2</ele>
        <time>2011-11-27T10:23:37Z</time>
      </trkpt>
      <trkpt lat="47.01325" lon="-1.11811">
        <ele>106.9</ele>
        <time>2011-11-27T10:23:39Z</time>
      </trkpt>
      <trkpt lat="47.01334" lon="-1.1181">
        <ele>107</ele>
        <time>2011-11-27T10:23:41Z</time>
      </trkpt>
      <trkpt lat="47.01338" lon="-1.11815">
        <ele>107.6</ele>
        <time>2011-11-27T10:23:43Z</time>
      </trkpt>
      <trkpt lat="47.01343" lon="-1.11814">
        <ele>107.2</ele>
        <time>2011-11-27T10:23:44Z</time>
      </trkpt>
      <trkpt lat="47.01349" lon="-1.11812">
        <ele>106.5</ele>
        <time>2011-11-27T10:23:45Z</time>
      </trkpt>
      <trkpt lat="47.01355" lon="-1.11819">
        <ele>106.7</ele>
        <time>2011-11-27T10:23:47Z</time>
      </trkpt>
      <trkpt lat="47.01362" lon="-1.1182">
        <ele>105.9</ele>
        <time>2011-11-27T10:23:49Z</time>
      </trkpt>
      <trkpt lat="47.01367" lon="-1.11818">
        <ele>105.1</ele>
        <time>2011-11-27T10:23:50Z</time>
      </trkpt>
      <trkpt lat="47.01372" lon="-1.11819">
        <ele>103.8</ele>
        <time>2011-11-27T10:23:51Z</time>
      </trkpt>
      <trkpt lat="47.01377" lon="-1.11819">
        <ele>103.3</ele>
        <time>2011-11-27T10:23:52Z</time>
      </trkpt>
      <trkpt lat="47.01381" lon="-1.11815">
        <ele>105.2</ele>
        <time>2011-11-27T10:23:53Z</time>
      </trkpt>
      <trkpt lat="47.01388" lon="-1.11815">
        <ele>106.8</ele>
        <time>2011-11-27T10:23:55Z</time>
      </trkpt>
      <trkpt lat="47.01392" lon="-1.11811">
        <ele>107.1</ele>
        <time>2011-11-27T10:23:56Z</time>
      </trkpt>
      <trkpt lat="47.01397" lon="-1.11811">
        <ele>108.4</ele>
        <time>2011-11-27T10:23:58Z</time>
      </trkpt>
      <trkpt lat="47.01402" lon="-1.11811">
        <ele>109.5</ele>
        <time>2011-11-27T10:24:00Z</time>
      </trkpt>
      <trkpt lat="47.01407" lon="-1.1181">
        <ele>108.7</ele>
        <time>2011-11-27T10:24:02Z</time>
      </trkpt>
      <trkpt lat="47.01413" lon="-1.11818">
        <ele>109.8</ele>
        <time>2011-11-27T10:24:04Z</time>
      </trkpt>
      <trkpt lat="47.01417" lon="-1.11824">
        <ele>111</ele>
        <time>2011-11-27T10:24:06Z</time>
      </trkpt>
      <trkpt lat="47.01417" lon="-1.11837">
        <ele>111.4</ele>
        <time>2011-11-27T10:24:08Z</time>
      </trkpt>
      <trkpt lat="47.01416" lon="-1.11844">
        <ele>112.6</ele>
        <time>2011-11-27T10:24:09Z</time>
      </trkpt>
      <trkpt lat="47.01421" lon="-1.1185">
        <ele>111</ele>
        <time>2011-11-27T10:24:12Z</time>
      </trkpt>
      <trkpt lat="47.01426" lon="-1.1185">
        <ele>110.7</ele>
        <time>2011-11-27T10:24:14Z</time>
      </trkpt>
      <trkpt lat="47.0143" lon="-1.11846">
        <ele>110.7</ele>
        <time>2011-11-27T10:24:16Z</time>
      </trkpt>
      <trkpt lat="47.01432" lon="-1.11839">
        <ele>113.5</ele>
        <time>2011-11-27T10:24:18Z</time>
      </trkpt>
      <trkpt lat="47.01437" lon="-1.11834">
        <ele>114.4</ele>
        <time>2011-11-27T10:24:22Z</time>
      </trkpt>
      <trkpt lat="47.01443" lon="-1.11822">
        <ele>115.5</ele>
        <time>2011-11-27T10:24:24Z</time>
      </trkpt>
      <trkpt lat="47.01448" lon="-1.11813">
        <ele>115.1</ele>
        <time>2011-11-27T10:24:26Z</time>
      </trkpt>
      <trkpt lat="47.01454" lon="-1.11806">
        <ele>114.1</ele>
        <time>2011-11-27T10:24:28Z</time>
      </trkpt>
      <trkpt lat="47.01462" lon="-1.11795">
        <ele>112.4</ele>
        <time>2011-11-27T10:24:31Z</time>
      </trkpt>
      <trkpt lat="47.01464" lon="-1.11786">
        <ele>113.9</ele>
        <time>2011-11-27T10:24:33Z</time>
      </trkpt>
      <trkpt lat="47.01466" lon="-1.11779">
        <ele>112.1</ele>
        <time>2011-11-27T10:24:34Z</time>
      </trkpt>
      <trkpt lat="47.01472" lon="-1.1177">
        <ele>111.5</ele>
        <time>2011-11-27T10:24:35Z</time>
      </trkpt>
      <trkpt lat="47.01475" lon="-1.11764">
        <ele>112</ele>
        <time>2011-11-27T10:24:36Z</time>
      </trkpt>
      <trkpt lat="47.01478" lon="-1.11758">
        <ele>110.6</ele>
        <time>2011-11-27T10:24:37Z</time>
      </trkpt>
      <trkpt lat="47.01482" lon="-1.11753">
        <ele>108.8</ele>
        <time>2011-11-27T10:24:38Z</time>
      </trkpt>
      <trkpt lat="47.01484" lon="-1.11741">
        <ele>110.4</ele>
        <time>2011-11-27T10:24:40Z</time>
      </trkpt>
      <trkpt lat="47.01487" lon="-1.11735">
        <ele>110.1</ele>
        <time>2011-11-27T10:24:41Z</time>
      </trkpt>
      <trkpt lat="47.0149" lon="-1.11731">
        <ele>109.8</ele>
        <time>2011-11-27T10:24:42Z</time>
      </trkpt>
      <trkpt lat="47.01494" lon="-1.11726">
        <ele>109.8</ele>
        <time>2011-11-27T10:24:43Z</time>
      </trkpt>
      <trkpt lat="47.01497" lon="-1.11719">
        <ele>109.7</ele>
        <time>2011-11-27T10:24:44Z</time>
      </trkpt>
      <trkpt lat="47.01498" lon="-1.11713">
        <ele>110</ele>
        <time>2011-11-27T10:24:45Z</time>
      </trkpt>
      <trkpt lat="47.01504" lon="-1.117">
        <ele>109.4</ele>
        <time>2011-11-27T10:24:48Z</time>
      </trkpt>
      <trkpt lat="47.01508" lon="-1.11694">
        <ele>108.1</ele>
        <time>2011-11-27T10:24:49Z</time>
      </trkpt>
      <trkpt lat="47.01511" lon="-1.11687">
        <ele>108.3</ele>
        <time>2011-11-27T10:24:50Z</time>
      </trkpt>
      <trkpt lat="47.01517" lon="-1.11676">
        <ele>107.7</ele>
        <time>2011-11-27T10:24:52Z</time>
      </trkpt>
      <trkpt lat="47.0152" lon="-1.11671">
        <ele>107.3</ele>
        <time>2011-11-27T10:24:53Z</time>
      </trkpt>
      <trkpt lat="47.01523" lon="-1.11666">
        <ele>107.6</ele>
        <time>2011-11-27T10:24:54Z</time>
      </trkpt>
      <trkpt lat="47.0153" lon="-1.11657">
        <ele>108.4</ele>
        <time>2011-11-27T10:24:56Z</time>
      </trkpt>
      <trkpt lat="47.01533" lon="-1.11653">
        <ele>108.3</ele>
        <time>2011-11-27T10:24:57Z</time>
      </trkpt>
      <trkpt lat="47.01537" lon="-1.11648">
        <ele>108</ele>
        <time>2011-11-27T10:24:58Z</time>
      </trkpt>
      <trkpt lat="47.01542" lon="-1.11645">
        <ele>107.7</ele>
        <time>2011-11-27T10:24:59Z</time>
      </trkpt>
      <trkpt lat="47.01552" lon="-1.11639">
        <ele>106.6</ele>
        <time>2011-11-27T10:25:01Z</time>
      </trkpt>
      <trkpt lat="47.01559" lon="-1.11638">
        <ele>106.2</ele>
        <time>2011-11-27T10:25:03Z</time>
      </trkpt>
      <trkpt lat="47.01567" lon="-1.11635">
        <ele>105.7</ele>
        <time>2011-11-27T10:25:05Z</time>
      </trkpt>
      <trkpt lat="47.01578" lon="-1.11633">
        <ele>106.1</ele>
        <time>2011-11-27T10:25:07Z</time>
      </trkpt>
      <trkpt lat="47.01583" lon="-1.11632">
        <ele>106.7</ele>
        <time>2011-11-27T10:25:08Z</time>
      </trkpt>
      <trkpt lat="47.0159" lon="-1.11636">
        <ele>105.9</ele>
        <time>2011-11-27T10:25:09Z</time>
      </trkpt>
      <trkpt lat="47.01595" lon="-1.11636">
        <ele>105.9</ele>
        <time>2011-11-27T10:25:10Z</time>
      </trkpt>
      <trkpt lat="47.01598" lon="-1.11644">
        <ele>107.6</ele>
        <time>2011-11-27T10:25:11Z</time>
      </trkpt>
      <trkpt lat="47.01603" lon="-1.11646">
        <ele>107.9</ele>
        <time>2011-11-27T10:25:12Z</time>
      </trkpt>
      <trkpt lat="47.01607" lon="-1.11651">
        <ele>107.7</ele>
        <time>2011-11-27T10:25:13Z</time>
      </trkpt>
      <trkpt lat="47.01613" lon="-1.11659">
        <ele>107.9</ele>
        <time>2011-11-27T10:25:15Z</time>
      </trkpt>
      <trkpt lat="47.01615" lon="-1.11666">
        <ele>107.4</ele>
        <time>2011-11-27T10:25:16Z</time>
      </trkpt>
      <trkpt lat="47.0162" lon="-1.11668">
        <ele>108.3</ele>
        <time>2011-11-27T10:25:17Z</time>
      </trkpt>
      <trkpt lat="47.01622" lon="-1.11674">
        <ele>108</ele>
        <time>2011-11-27T10:25:18Z</time>
      </trkpt>
      <trkpt lat="47.01626" lon="-1.11679">
        <ele>106.8</ele>
        <time>2011-11-27T10:25:19Z</time>
      </trkpt>
      <trkpt lat="47.01633" lon="-1.11685">
        <ele>108.1</ele>
        <time>2011-11-27T10:25:21Z</time>
      </trkpt>
      <trkpt lat="47.01638" lon="-1.11689">
        <ele>108.1</ele>
        <time>2011-11-27T10:25:22Z</time>
      </trkpt>
      <trkpt lat="47.01644" lon="-1.11692">
        <ele>108.7</ele>
        <time>2011-11-27T10:25:24Z</time>
      </trkpt>
      <trkpt lat="47.01649" lon="-1.11691">
        <ele>109.3</ele>
        <time>2011-11-27T10:25:25Z</time>
      </trkpt>
      <trkpt lat="47.01655" lon="-1.11694">
        <ele>110.5</ele>
        <time>2011-11-27T10:25:27Z</time>
      </trkpt>
      <trkpt lat="47.01659" lon="-1.11695">
        <ele>110.4</ele>
        <time>2011-11-27T10:25:28Z</time>
      </trkpt>
      <trkpt lat="47.01667" lon="-1.11696">
        <ele>109.4</ele>
        <time>2011-11-27T10:25:29Z</time>
      </trkpt>
      <trkpt lat="47.01673" lon="-1.11696">
        <ele>110.7</ele>
        <time>2011-11-27T10:25:30Z</time>
      </trkpt>
      <trkpt lat="47.0168" lon="-1.11698">
        <ele>110.7</ele>
        <time>2011-11-27T10:25:32Z</time>
      </trkpt>
      <trkpt lat="47.01686" lon="-1.11704">
        <ele>112</ele>
        <time>2011-11-27T10:25:34Z</time>
      </trkpt>
      <trkpt lat="47.01692" lon="-1.117">
        <ele>112.1</ele>
        <time>2011-11-27T10:25:35Z</time>
      </trkpt>
      <trkpt lat="47.01698" lon="-1.11699">
        <ele>110.1</ele>
        <time>2011-11-27T10:25:36Z</time>
      </trkpt>
      <trkpt lat="47.01707" lon="-1.11698">
        <ele>111.6</ele>
        <time>2011-11-27T10:25:38Z</time>
      </trkpt>
      <trkpt lat="47.01715" lon="-1.11696">
        <ele>111.8</ele>
        <time>2011-11-27T10:25:40Z</time>
      </trkpt>
      <trkpt lat="47.0172" lon="-1.11699">
        <ele>110.7</ele>
        <time>2011-11-27T10:25:41Z</time>
      </trkpt>
      <trkpt lat="47.0173" lon="-1.11698">
        <ele>111.9</ele>
        <time>2011-11-27T10:25:43Z</time>
      </trkpt>
      <trkpt lat="47.01734" lon="-1.11699">
        <ele>111</ele>
        <time>2011-11-27T10:25:44Z</time>
      </trkpt>
      <trkpt lat="47.01739" lon="-1.11696">
        <ele>110.7</ele>
        <time>2011-11-27T10:25:45Z</time>
      </trkpt>
      <trkpt lat="47.01745" lon="-1.11697">
        <ele>110.3</ele>
        <time>2011-11-27T10:25:47Z</time>
      </trkpt>
      <trkpt lat="47.01751" lon="-1.11697">
        <ele>109</ele>
        <time>2011-11-27T10:25:49Z</time>
      </trkpt>
      <trkpt lat="47.01758" lon="-1.11697">
        <ele>108.2</ele>
        <time>2011-11-27T10:25:51Z</time>
      </trkpt>
      <trkpt lat="47.01764" lon="-1.11699">
        <ele>108.5</ele>
        <time>2011-11-27T10:25:53Z</time>
      </trkpt>
      <trkpt lat="47.01768" lon="-1.11691">
        <ele>111.2</ele>
        <time>2011-11-27T10:25:55Z</time>
      </trkpt>
      <trkpt lat="47.01772" lon="-1.11688">
        <ele>114.6</ele>
        <time>2011-11-27T10:26:00Z</time>
      </trkpt>
      <trkpt lat="47.01772" lon="-1.11695">
        <ele>113</ele>
        <time>2011-11-27T10:26:05Z</time>
      </trkpt>
      <trkpt lat="47.01777" lon="-1.11692">
        <ele>112.9</ele>
        <time>2011-11-27T10:26:10Z</time>
      </trkpt>
      <trkpt lat="47.01775" lon="-1.11698">
        <ele>111</ele>
        <time>2011-11-27T10:26:13Z</time>
      </trkpt>
      <trkpt lat="47.01779" lon="-1.11696">
        <ele>108.7</ele>
        <time>2011-11-27T10:26:15Z</time>
      </trkpt>
      <trkpt lat="47.01783" lon="-1.11699">
        <ele>110.2</ele>
        <time>2011-11-27T10:26:24Z</time>
      </trkpt>
      <trkpt lat="47.0179" lon="-1.11701">
        <ele>110.2</ele>
        <time>2011-11-27T10:26:27Z</time>
      </trkpt>
      <trkpt lat="47.01793" lon="-1.11695">
        <ele>110</ele>
        <time>2011-11-27T10:26:33Z</time>
      </trkpt>
      <trkpt lat="47.01797" lon="-1.117">
        <ele>108.1</ele>
        <time>2011-11-27T10:26:39Z</time>
      </trkpt>
      <trkpt lat="47.01799" lon="-1.11706">
        <ele>109.3</ele>
        <time>2011-11-27T10:26:56Z</time>
      </trkpt>
      <trkpt lat="47.01802" lon="-1.11701">
        <ele>108.4</ele>
        <time>2011-11-27T10:26:58Z</time>
      </trkpt>
      <trkpt lat="47.01799" lon="-1.11706">
        <ele>108.7</ele>
        <time>2011-11-27T10:27:01Z</time>
      </trkpt>
      <trkpt lat="47.01796" lon="-1.11712">
        <ele>108.1</ele>
        <time>2011-11-27T10:27:04Z</time>
      </trkpt>
      <trkpt lat="47.01792" lon="-1.11711">
        <ele>114.3</ele>
        <time>2011-11-27T10:27:15Z</time>
      </trkpt>
      <trkpt lat="47.01787" lon="-1.11709">
        <ele>115.3</ele>
        <time>2011-11-27T10:27:32Z</time>
      </trkpt>
      <trkpt lat="47.01774" lon="-1.11715">
        <ele>119.7</ele>
        <time>2011-11-27T10:27:53Z</time>
      </trkpt>
      <trkpt lat="47.01769" lon="-1.11719">
        <ele>117.9</ele>
        <time>2011-11-27T10:27:55Z</time>
      </trkpt>
      <trkpt lat="47.01764" lon="-1.11719">
        <ele>117.7</ele>
        <time>2011-11-27T10:27:56Z</time>
      </trkpt>
      <trkpt lat="47.01757" lon="-1.11719">
        <ele>118.9</ele>
        <time>2011-11-27T10:27:57Z</time>
      </trkpt>
      <trkpt lat="47.01751" lon="-1.11717">
        <ele>116.3</ele>
        <time>2011-11-27T10:27:59Z</time>
      </trkpt>
      <trkpt lat="47.01746" lon="-1.11716">
        <ele>115.6</ele>
        <time>2011-11-27T10:28:00Z</time>
      </trkpt>
      <trkpt lat="47.01742" lon="-1.11721">
        <ele>117.7</ele>
        <time>2011-11-27T10:28:04Z</time>
      </trkpt>
      <trkpt lat="47.01746" lon="-1.11715">
        <ele>117.9</ele>
        <time>2011-11-27T10:28:08Z</time>
      </trkpt>
      <trkpt lat="47.01739" lon="-1.11716">
        <ele>116.2</ele>
        <time>2011-11-27T10:28:55Z</time>
      </trkpt>
      <trkpt lat="47.01732" lon="-1.11716">
        <ele>112.7</ele>
        <time>2011-11-27T10:28:57Z</time>
      </trkpt>
      <trkpt lat="47.01724" lon="-1.11716">
        <ele>113.6</ele>
        <time>2011-11-27T10:28:59Z</time>
      </trkpt>
      <trkpt lat="47.01716" lon="-1.11712">
        <ele>111.9</ele>
        <time>2011-11-27T10:29:02Z</time>
      </trkpt>
      <trkpt lat="47.01712" lon="-1.11716">
        <ele>112.5</ele>
        <time>2011-11-27T10:29:05Z</time>
      </trkpt>
      <trkpt lat="47.01705" lon="-1.11719">
        <ele>113.2</ele>
        <time>2011-11-27T10:29:07Z</time>
      </trkpt>
      <trkpt lat="47.017" lon="-1.11722">
        <ele>113.5</ele>
        <time>2011-11-27T10:29:08Z</time>
      </trkpt>
      <trkpt lat="47.01695" lon="-1.11724">
        <ele>115.1</ele>
        <time>2011-11-27T10:29:10Z</time>
      </trkpt>
      <trkpt lat="47.0169" lon="-1.11721">
        <ele>115.3</ele>
        <time>2011-11-27T10:29:11Z</time>
      </trkpt>
      <trkpt lat="47.01686" lon="-1.11716">
        <ele>117.9</ele>
        <time>2011-11-27T10:29:14Z</time>
      </trkpt>
      <trkpt lat="47.01679" lon="-1.11715">
        <ele>112.5</ele>
        <time>2011-11-27T10:29:19Z</time>
      </trkpt>
      <trkpt lat="47.01674" lon="-1.11718">
        <ele>114.3</ele>
        <time>2011-11-27T10:29:21Z</time>
      </trkpt>
      <trkpt lat="47.01669" lon="-1.11717">
        <ele>114.9</ele>
        <time>2011-11-27T10:29:24Z</time>
      </trkpt>
      <trkpt lat="47.01666" lon="-1.11724">
        <ele>115.7</ele>
        <time>2011-11-27T10:29:27Z</time>
      </trkpt>
      <trkpt lat="47.01656" lon="-1.11721">
        <ele>119.6</ele>
        <time>2011-11-27T10:29:30Z</time>
      </trkpt>
      <trkpt lat="47.01646" lon="-1.1172">
        <ele>121.2</ele>
        <time>2011-11-27T10:29:32Z</time>
      </trkpt>
      <trkpt lat="47.01636" lon="-1.11719">
        <ele>122.5</ele>
        <time>2011-11-27T10:29:33Z</time>
      </trkpt>
      <trkpt lat="47.01628" lon="-1.11716">
        <ele>124.2</ele>
        <time>2011-11-27T10:29:34Z</time>
      </trkpt>
      <trkpt lat="47.01622" lon="-1.11711">
        <ele>124.6</ele>
        <time>2011-11-27T10:29:36Z</time>
      </trkpt>
      <trkpt lat="47.01622" lon="-1.11692">
        <ele>123.4</ele>
        <time>2011-11-27T10:29:37Z</time>
      </trkpt>
      <trkpt lat="47.01617" lon="-1.11685">
        <ele>121.9</ele>
        <time>2011-11-27T10:29:38Z</time>
      </trkpt>
      <trkpt lat="47.01612" lon="-1.11679">
        <ele>123.6</ele>
        <time>2011-11-27T10:29:39Z</time>
      </trkpt>
      <trkpt lat="47.01606" lon="-1.11677">
        <ele>122.3</ele>
        <time>2011-11-27T10:29:40Z</time>
      </trkpt>
      <trkpt lat="47.01602" lon="-1.11673">
        <ele>122</ele>
        <time>2011-11-27T10:29:43Z</time>
      </trkpt>
      <trkpt lat="47.01601" lon="-1.11665">
        <ele>120.7</ele>
        <time>2011-11-27T10:29:44Z</time>
      </trkpt>
      <trkpt lat="47.016" lon="-1.11658">
        <ele>116.9</ele>
        <time>2011-11-27T10:29:46Z</time>
      </trkpt>
      <trkpt lat="47.01594" lon="-1.11657">
        <ele>119.3</ele>
        <time>2011-11-27T10:29:49Z</time>
      </trkpt>
      <trkpt lat="47.01592" lon="-1.11648">
        <ele>118.5</ele>
        <time>2011-11-27T10:29:56Z</time>
      </trkpt>
      <trkpt lat="47.01587" lon="-1.11653">
        <ele>119.7</ele>
        <time>2011-11-27T10:30:03Z</time>
      </trkpt>
      <trkpt lat="47.0158" lon="-1.1166">
        <ele>120</ele>
        <time>2011-11-27T10:30:12Z</time>
      </trkpt>
      <trkpt lat="47.01573" lon="-1.11664">
        <ele>119.7</ele>
        <time>2011-11-27T10:30:14Z</time>
      </trkpt>
      <trkpt lat="47.01569" lon="-1.11672">
        <ele>118.4</ele>
        <time>2011-11-27T10:30:16Z</time>
      </trkpt>
      <trkpt lat="47.01564" lon="-1.11675">
        <ele>117.1</ele>
        <time>2011-11-27T10:30:18Z</time>
      </trkpt>
      <trkpt lat="47.0156" lon="-1.11682">
        <ele>116.4</ele>
        <time>2011-11-27T10:30:20Z</time>
      </trkpt>
      <trkpt lat="47.01558" lon="-1.11693">
        <ele>116.4</ele>
        <time>2011-11-27T10:30:22Z</time>
      </trkpt>
      <trkpt lat="47.01559" lon="-1.11701">
        <ele>114.6</ele>
        <time>2011-11-27T10:30:24Z</time>
      </trkpt>
      <trkpt lat="47.01553" lon="-1.11704">
        <ele>119.1</ele>
        <time>2011-11-27T10:30:26Z</time>
      </trkpt>
      <trkpt lat="47.01548" lon="-1.11707">
        <ele>119.2</ele>
        <time>2011-11-27T10:30:29Z</time>
      </trkpt>
      <trkpt lat="47.01541" lon="-1.11712">
        <ele>118.4</ele>
        <time>2011-11-27T10:30:31Z</time>
      </trkpt>
      <trkpt lat="47.01543" lon="-1.1172">
        <ele>119.2</ele>
        <time>2011-11-27T10:30:36Z</time>
      </trkpt>
      <trkpt lat="47.01541" lon="-1.11728">
        <ele>118.5</ele>
        <time>2011-11-27T10:30:38Z</time>
      </trkpt>
      <trkpt lat="47.01536" lon="-1.11735">
        <ele>116.8</ele>
        <time>2011-11-27T10:30:41Z</time>
      </trkpt>
      <trkpt lat="47.01532" lon="-1.11738">
        <ele>116.4</ele>
        <time>2011-11-27T10:30:42Z</time>
      </trkpt>
      <trkpt lat="47.01527" lon="-1.11744">
        <ele>116.7</ele>
        <time>2011-11-27T10:30:43Z</time>
      </trkpt>
      <trkpt lat="47.01529" lon="-1.11753">
        <ele>116.8</ele>
        <time>2011-11-27T10:30:46Z</time>
      </trkpt>
      <trkpt lat="47.01526" lon="-1.11758">
        <ele>119</ele>
        <time>2011-11-27T10:30:48Z</time>
      </trkpt>
      <trkpt lat="47.01526" lon="-1.11766">
        <ele>120.3</ele>
        <time>2011-11-27T10:30:50Z</time>
      </trkpt>
      <trkpt lat="47.01523" lon="-1.11772">
        <ele>119.5</ele>
        <time>2011-11-27T10:30:52Z</time>
      </trkpt>
      <trkpt lat="47.0152" lon="-1.1178">
        <ele>120.5</ele>
        <time>2011-11-27T10:30:56Z</time>
      </trkpt>
      <trkpt lat="47.01521" lon="-1.11787">
        <ele>118.6</ele>
        <time>2011-11-27T10:30:57Z</time>
      </trkpt>
      <trkpt lat="47.01522" lon="-1.11795">
        <ele>121.9</ele>
        <time>2011-11-27T10:31:01Z</time>
      </trkpt>
      <trkpt lat="47.01517" lon="-1.11813">
        <ele>123.5</ele>
        <time>2011-11-27T10:31:49Z</time>
      </trkpt>
      <trkpt lat="47.01514" lon="-1.11818">
        <ele>122.8</ele>
        <time>2011-11-27T10:31:50Z</time>
      </trkpt>
      <trkpt lat="47.01509" lon="-1.11823">
        <ele>122.2</ele>
        <time>2011-11-27T10:31:51Z</time>
      </trkpt>
      <trkpt lat="47.01506" lon="-1.1183">
        <ele>124.9</ele>
        <time>2011-11-27T10:31:52Z</time>
      </trkpt>
      <trkpt lat="47.01503" lon="-1.11837">
        <ele>124.7</ele>
        <time>2011-11-27T10:31:53Z</time>
      </trkpt>
      <trkpt lat="47.01501" lon="-1.11844">
        <ele>124.5</ele>
        <time>2011-11-27T10:31:54Z</time>
      </trkpt>
      <trkpt lat="47.015" lon="-1.11852">
        <ele>121.4</ele>
        <time>2011-11-27T10:31:56Z</time>
      </trkpt>
      <trkpt lat="47.01506" lon="-1.11854">
        <ele>120.3</ele>
        <time>2011-11-27T10:32:05Z</time>
      </trkpt>
      <trkpt lat="47.01511" lon="-1.11859">
        <ele>120.1</ele>
        <time>2011-11-27T10:32:06Z</time>
      </trkpt>
      <trkpt lat="47.01517" lon="-1.11863">
        <ele>120.8</ele>
        <time>2011-11-27T10:32:07Z</time>
      </trkpt>
      <trkpt lat="47.01522" lon="-1.11867">
        <ele>121.3</ele>
        <time>2011-11-27T10:32:09Z</time>
      </trkpt>
      <trkpt lat="47.01529" lon="-1.11872">
        <ele>120.8</ele>
        <time>2011-11-27T10:32:11Z</time>
      </trkpt>
      <trkpt lat="47.01537" lon="-1.11872">
        <ele>120.7</ele>
        <time>2011-11-27T10:32:13Z</time>
      </trkpt>
      <trkpt lat="47.01541" lon="-1.11875">
        <ele>121.3</ele>
        <time>2011-11-27T10:32:15Z</time>
      </trkpt>
      <trkpt lat="47.01547" lon="-1.11873">
        <ele>122.2</ele>
        <time>2011-11-27T10:32:16Z</time>
      </trkpt>
      <trkpt lat="47.01553" lon="-1.11879">
        <ele>122</ele>
        <time>2011-11-27T10:32:18Z</time>
      </trkpt>
      <trkpt lat="47.01557" lon="-1.11885">
        <ele>122.1</ele>
        <time>2011-11-27T10:32:19Z</time>
      </trkpt>
      <trkpt lat="47.01562" lon="-1.11894">
        <ele>123.2</ele>
        <time>2011-11-27T10:32:21Z</time>
      </trkpt>
      <trkpt lat="47.01567" lon="-1.11896">
        <ele>123.4</ele>
        <time>2011-11-27T10:32:23Z</time>
      </trkpt>
      <trkpt lat="47.01574" lon="-1.11898">
        <ele>124.5</ele>
        <time>2011-11-27T10:32:26Z</time>
      </trkpt>
      <trkpt lat="47.01577" lon="-1.11904">
        <ele>123.6</ele>
        <time>2011-11-27T10:32:28Z</time>
      </trkpt>
      <trkpt lat="47.01583" lon="-1.11907">
        <ele>126.2</ele>
        <time>2011-11-27T10:32:31Z</time>
      </trkpt>
      <trkpt lat="47.01588" lon="-1.11903">
        <ele>127.8</ele>
        <time>2011-11-27T10:32:33Z</time>
      </trkpt>
      <trkpt lat="47.0159" lon="-1.11892">
        <ele>126.4</ele>
        <time>2011-11-27T10:32:38Z</time>
      </trkpt>
      <trkpt lat="47.01588" lon="-1.11885">
        <ele>127.3</ele>
        <time>2011-11-27T10:32:40Z</time>
      </trkpt>
      <trkpt lat="47.01586" lon="-1.11872">
        <ele>128.4</ele>
        <time>2011-11-27T10:32:43Z</time>
      </trkpt>
      <trkpt lat="47.01588" lon="-1.1186">
        <ele>129.9</ele>
        <time>2011-11-27T10:32:46Z</time>
      </trkpt>
      <trkpt lat="47.0159" lon="-1.11847">
        <ele>129.9</ele>
        <time>2011-11-27T10:32:48Z</time>
      </trkpt>
      <trkpt lat="47.01591" lon="-1.11832">
        <ele>128.8</ele>
        <time>2011-11-27T10:32:50Z</time>
      </trkpt>
      <trkpt lat="47.01593" lon="-1.11819">
        <ele>127.5</ele>
        <time>2011-11-27T10:32:53Z</time>
      </trkpt>
      <trkpt lat="47.01594" lon="-1.11803">
        <ele>129.2</ele>
        <time>2011-11-27T10:32:56Z</time>
      </trkpt>
      <trkpt lat="47.01597" lon="-1.11796">
        <ele>129.7</ele>
        <time>2011-11-27T10:32:57Z</time>
      </trkpt>
      <trkpt lat="47.01603" lon="-1.11785">
        <ele>129.8</ele>
        <time>2011-11-27T10:32:58Z</time>
      </trkpt>
      <trkpt lat="47.01608" lon="-1.1178">
        <ele>129.5</ele>
        <time>2011-11-27T10:32:59Z</time>
      </trkpt>
      <trkpt lat="47.01614" lon="-1.11774">
        <ele>129.1</ele>
        <time>2011-11-27T10:33:00Z</time>
      </trkpt>
      <trkpt lat="47.01617" lon="-1.11768">
        <ele>128.9</ele>
        <time>2011-11-27T10:33:01Z</time>
      </trkpt>
      <trkpt lat="47.01624" lon="-1.11767">
        <ele>128.1</ele>
        <time>2011-11-27T10:33:02Z</time>
      </trkpt>
      <trkpt lat="47.0163" lon="-1.11764">
        <ele>128.3</ele>
        <time>2011-11-27T10:33:03Z</time>
      </trkpt>
      <trkpt lat="47.01636" lon="-1.11763">
        <ele>128.3</ele>
        <time>2011-11-27T10:33:04Z</time>
      </trkpt>
      <trkpt lat="47.01643" lon="-1.11766">
        <ele>129.7</ele>
        <time>2011-11-27T10:33:05Z</time>
      </trkpt>
      <trkpt lat="47.01652" lon="-1.11762">
        <ele>130.8</ele>
        <time>2011-11-27T10:33:07Z</time>
      </trkpt>
      <trkpt lat="47.01658" lon="-1.11764">
        <ele>131.4</ele>
        <time>2011-11-27T10:33:08Z</time>
      </trkpt>
      <trkpt lat="47.01662" lon="-1.11767">
        <ele>131.7</ele>
        <time>2011-11-27T10:33:09Z</time>
      </trkpt>
      <trkpt lat="47.01669" lon="-1.11769">
        <ele>133.3</ele>
        <time>2011-11-27T10:33:10Z</time>
      </trkpt>
      <trkpt lat="47.01674" lon="-1.1177">
        <ele>133.5</ele>
        <time>2011-11-27T10:33:11Z</time>
      </trkpt>
      <trkpt lat="47.01681" lon="-1.11766">
        <ele>133.7</ele>
        <time>2011-11-27T10:33:12Z</time>
      </trkpt>
      <trkpt lat="47.01686" lon="-1.11767">
        <ele>134.2</ele>
        <time>2011-11-27T10:33:13Z</time>
      </trkpt>
      <trkpt lat="47.01691" lon="-1.11767">
        <ele>133.4</ele>
        <time>2011-11-27T10:33:14Z</time>
      </trkpt>
      <trkpt lat="47.01697" lon="-1.11763">
        <ele>134.3</ele>
        <time>2011-11-27T10:33:16Z</time>
      </trkpt>
      <trkpt lat="47.01702" lon="-1.11765">
        <ele>133.8</ele>
        <time>2011-11-27T10:33:17Z</time>
      </trkpt>
      <trkpt lat="47.01706" lon="-1.11761">
        <ele>132.8</ele>
        <time>2011-11-27T10:33:18Z</time>
      </trkpt>
      <trkpt lat="47.01712" lon="-1.1176">
        <ele>131.2</ele>
        <time>2011-11-27T10:33:20Z</time>
      </trkpt>
      <trkpt lat="47.01717" lon="-1.11757">
        <ele>128.3</ele>
        <time>2011-11-27T10:33:23Z</time>
      </trkpt>
      <trkpt lat="47.01722" lon="-1.11752">
        <ele>127.2</ele>
        <time>2011-11-27T10:33:26Z</time>
      </trkpt>
      <trkpt lat="47.01729" lon="-1.1175">
        <ele>127.2</ele>
        <time>2011-11-27T10:33:32Z</time>
      </trkpt>
      <trkpt lat="47.01734" lon="-1.1175">
        <ele>127.1</ele>
        <time>2011-11-27T10:33:34Z</time>
      </trkpt>
      <trkpt lat="47.0174" lon="-1.11745">
        <ele>128.4</ele>
        <time>2011-11-27T10:33:36Z</time>
      </trkpt>
      <trkpt lat="47.01745" lon="-1.11745">
        <ele>130.3</ele>
        <time>2011-11-27T10:33:37Z</time>
      </trkpt>
      <trkpt lat="47.0175" lon="-1.11742">
        <ele>130.9</ele>
        <time>2011-11-27T10:33:38Z</time>
      </trkpt>
      <trkpt lat="47.01756" lon="-1.11739">
        <ele>129.8</ele>
        <time>2011-11-27T10:33:40Z</time>
      </trkpt>
      <trkpt lat="47.01763" lon="-1.11733">
        <ele>130.1</ele>
        <time>2011-11-27T10:33:43Z</time>
      </trkpt>
      <trkpt lat="47.01768" lon="-1.11731">
        <ele>129.5</ele>
        <time>2011-11-27T10:33:46Z</time>
      </trkpt>
      <trkpt lat="47.01772" lon="-1.11727">
        <ele>127.9</ele>
        <time>2011-11-27T10:33:50Z</time>
      </trkpt>
      <trkpt lat="47.01777" lon="-1.11727">
        <ele>126.3</ele>
        <time>2011-11-27T10:33:53Z</time>
      </trkpt>
      <trkpt lat="47.01783" lon="-1.11718">
        <ele>126</ele>
        <time>2011-11-27T10:33:56Z</time>
      </trkpt>
      <trkpt lat="47.01788" lon="-1.11713">
        <ele>125.4</ele>
        <time>2011-11-27T10:33:59Z</time>
      </trkpt>
      <trkpt lat="47.01792" lon="-1.11706">
        <ele>123.6</ele>
        <time>2011-11-27T10:34:01Z</time>
      </trkpt>
      <trkpt lat="47.01797" lon="-1.11708">
        <ele>120</ele>
        <time>2011-11-27T10:34:03Z</time>
      </trkpt>
      <trkpt lat="47.01795" lon="-1.11701">
        <ele>119.1</ele>
        <time>2011-11-27T10:34:06Z</time>
      </trkpt>
      <trkpt lat="47.01796" lon="-1.11694">
        <ele>119.3</ele>
        <time>2011-11-27T10:34:09Z</time>
      </trkpt>
      <trkpt lat="47.01794" lon="-1.11685">
        <ele>118.1</ele>
        <time>2011-11-27T10:34:11Z</time>
      </trkpt>
      <trkpt lat="47.01799" lon="-1.11682">
        <ele>116.5</ele>
        <time>2011-11-27T10:34:13Z</time>
      </trkpt>
      <trkpt lat="47.01802" lon="-1.11678">
        <ele>114.9</ele>
        <time>2011-11-27T10:34:16Z</time>
      </trkpt>
      <trkpt lat="47.01807" lon="-1.11671">
        <ele>112.8</ele>
        <time>2011-11-27T10:34:18Z</time>
      </trkpt>
      <trkpt lat="47.01808" lon="-1.11663">
        <ele>109.2</ele>
        <time>2011-11-27T10:34:20Z</time>
      </trkpt>
      <trkpt lat="47.0181" lon="-1.11657">
        <ele>108.3</ele>
        <time>2011-11-27T10:34:21Z</time>
      </trkpt>
      <trkpt lat="47.01812" lon="-1.11649">
        <ele>105.4</ele>
        <time>2011-11-27T10:34:24Z</time>
      </trkpt>
      <trkpt lat="47.01815" lon="-1.11642">
        <ele>104.6</ele>
        <time>2011-11-27T10:34:25Z</time>
      </trkpt>
      <trkpt lat="47.01817" lon="-1.11635">
        <ele>105</ele>
        <time>2011-11-27T10:34:26Z</time>
      </trkpt>
      <trkpt lat="47.01818" lon="-1.11626">
        <ele>104</ele>
        <time>2011-11-27T10:34:27Z</time>
      </trkpt>
      <trkpt lat="47.01821" lon="-1.11616">
        <ele>103.6</ele>
        <time>2011-11-27T10:34:28Z</time>
      </trkpt>
      <trkpt lat="47.01825" lon="-1.11607">
        <ele>103.2</ele>
        <time>2011-11-27T10:34:29Z</time>
      </trkpt>
      <trkpt lat="47.01829" lon="-1.11599">
        <ele>104.6</ele>
        <time>2011-11-27T10:34:30Z</time>
      </trkpt>
      <trkpt lat="47.01832" lon="-1.11593">
        <ele>104.9</ele>
        <time>2011-11-27T10:34:31Z</time>
      </trkpt>
      <trkpt lat="47.01837" lon="-1.11587">
        <ele>104.9</ele>
        <time>2011-11-27T10:34:32Z</time>
      </trkpt>
      <trkpt lat="47.0184" lon="-1.11583">
        <ele>105.2</ele>
        <time>2011-11-27T10:34:33Z</time>
      </trkpt>
      <trkpt lat="47.01846" lon="-1.11577">
        <ele>106.1</ele>
        <time>2011-11-27T10:34:35Z</time>
      </trkpt>
      <trkpt lat="47.01852" lon="-1.11565">
        <ele>104.6</ele>
        <time>2011-11-27T10:34:36Z</time>
      </trkpt>
      <trkpt lat="47.0186" lon="-1.11559">
        <ele>100.4</ele>
        <time>2011-11-27T10:34:40Z</time>
      </trkpt>
      <trkpt lat="47.01866" lon="-1.11557">
        <ele>99.7</ele>
        <time>2011-11-27T10:34:44Z</time>
      </trkpt>
      <trkpt lat="47.01864" lon="-1.11563">
        <ele>101.1</ele>
        <time>2011-11-27T10:34:51Z</time>
      </trkpt>
      <trkpt lat="47.01858" lon="-1.11553">
        <ele>103.2</ele>
        <time>2011-11-27T10:36:05Z</time>
      </trkpt>
      <trkpt lat="47.01858" lon="-1.11546">
        <ele>105.5</ele>
        <time>2011-11-27T10:36:06Z</time>
      </trkpt>
      <trkpt lat="47.01854" lon="-1.1154">
        <ele>106.8</ele>
        <time>2011-11-27T10:36:07Z</time>
      </trkpt>
      <trkpt lat="47.01851" lon="-1.11533">
        <ele>106.7</ele>
        <time>2011-11-27T10:36:08Z</time>
      </trkpt>
      <trkpt lat="47.01851" lon="-1.11524">
        <ele>107.1</ele>
        <time>2011-11-27T10:36:09Z</time>
      </trkpt>
      <trkpt lat="47.01848" lon="-1.11512">
        <ele>108.1</ele>
        <time>2011-11-27T10:36:11Z</time>
      </trkpt>
      <trkpt lat="47.01847" lon="-1.11504">
        <ele>107.5</ele>
        <time>2011-11-27T10:36:12Z</time>
      </trkpt>
      <trkpt lat="47.01846" lon="-1.11497">
        <ele>106.3</ele>
        <time>2011-11-27T10:36:13Z</time>
      </trkpt>
      <trkpt lat="47.01844" lon="-1.11484">
        <ele>107.4</ele>
        <time>2011-11-27T10:36:15Z</time>
      </trkpt>
      <trkpt lat="47.01842" lon="-1.11478">
        <ele>107.8</ele>
        <time>2011-11-27T10:36:16Z</time>
      </trkpt>
      <trkpt lat="47.01844" lon="-1.11468">
        <ele>108</ele>
        <time>2011-11-27T10:36:17Z</time>
      </trkpt>
      <trkpt lat="47.01843" lon="-1.11456">
        <ele>107.4</ele>
        <time>2011-11-27T10:36:19Z</time>
      </trkpt>
      <trkpt lat="47.01844" lon="-1.11446">
        <ele>108</ele>
        <time>2011-11-27T10:36:20Z</time>
      </trkpt>
      <trkpt lat="47.01838" lon="-1.11445">
        <ele>108.7</ele>
        <time>2011-11-27T10:36:21Z</time>
      </trkpt>
      <trkpt lat="47.01834" lon="-1.11438">
        <ele>109.2</ele>
        <time>2011-11-27T10:36:22Z</time>
      </trkpt>
      <trkpt lat="47.01832" lon="-1.11427">
        <ele>109.1</ele>
        <time>2011-11-27T10:36:24Z</time>
      </trkpt>
      <trkpt lat="47.01825" lon="-1.11424">
        <ele>109.9</ele>
        <time>2011-11-27T10:36:26Z</time>
      </trkpt>
      <trkpt lat="47.01816" lon="-1.11416">
        <ele>109</ele>
        <time>2011-11-27T10:36:28Z</time>
      </trkpt>
      <trkpt lat="47.01812" lon="-1.11406">
        <ele>109</ele>
        <time>2011-11-27T10:36:30Z</time>
      </trkpt>
      <trkpt lat="47.01805" lon="-1.114">
        <ele>108.7</ele>
        <time>2011-11-27T10:36:32Z</time>
      </trkpt>
      <trkpt lat="47.01799" lon="-1.11395">
        <ele>108</ele>
        <time>2011-11-27T10:36:33Z</time>
      </trkpt>
      <trkpt lat="47.01793" lon="-1.11394">
        <ele>109.4</ele>
        <time>2011-11-27T10:36:34Z</time>
      </trkpt>
      <trkpt lat="47.0179" lon="-1.11387">
        <ele>107.7</ele>
        <time>2011-11-27T10:36:35Z</time>
      </trkpt>
      <trkpt lat="47.01786" lon="-1.1138">
        <ele>107</ele>
        <time>2011-11-27T10:36:37Z</time>
      </trkpt>
      <trkpt lat="47.01784" lon="-1.11373">
        <ele>105.8</ele>
        <time>2011-11-27T10:36:39Z</time>
      </trkpt>
      <trkpt lat="47.0178" lon="-1.11367">
        <ele>105.3</ele>
        <time>2011-11-27T10:36:41Z</time>
      </trkpt>
      <trkpt lat="47.01774" lon="-1.11366">
        <ele>105.4</ele>
        <time>2011-11-27T10:36:42Z</time>
      </trkpt>
      <trkpt lat="47.01768" lon="-1.11364">
        <ele>105</ele>
        <time>2011-11-27T10:36:43Z</time>
      </trkpt>
      <trkpt lat="47.01763" lon="-1.11366">
        <ele>104</ele>
        <time>2011-11-27T10:36:44Z</time>
      </trkpt>
      <trkpt lat="47.01756" lon="-1.11364">
        <ele>104.5</ele>
        <time>2011-11-27T10:36:47Z</time>
      </trkpt>
      <trkpt lat="47.01746" lon="-1.11356">
        <ele>105.7</ele>
        <time>2011-11-27T10:36:49Z</time>
      </trkpt>
      <trkpt lat="47.01739" lon="-1.11355">
        <ele>105.6</ele>
        <time>2011-11-27T10:36:51Z</time>
      </trkpt>
      <trkpt lat="47.01735" lon="-1.1135">
        <ele>105</ele>
        <time>2011-11-27T10:36:52Z</time>
      </trkpt>
      <trkpt lat="47.0173" lon="-1.11346">
        <ele>104.2</ele>
        <time>2011-11-27T10:36:54Z</time>
      </trkpt>
      <trkpt lat="47.01722" lon="-1.11342">
        <ele>105.2</ele>
        <time>2011-11-27T10:36:56Z</time>
      </trkpt>
      <trkpt lat="47.01717" lon="-1.11338">
        <ele>104.9</ele>
        <time>2011-11-27T10:36:57Z</time>
      </trkpt>
      <trkpt lat="47.01713" lon="-1.11336">
        <ele>105</ele>
        <time>2011-11-27T10:36:59Z</time>
      </trkpt>
      <trkpt lat="47.01707" lon="-1.11335">
        <ele>104.8</ele>
        <time>2011-11-27T10:37:00Z</time>
      </trkpt>
      <trkpt lat="47.01702" lon="-1.11333">
        <ele>105</ele>
        <time>2011-11-27T10:37:01Z</time>
      </trkpt>
      <trkpt lat="47.01695" lon="-1.11332">
        <ele>105</ele>
        <time>2011-11-27T10:37:02Z</time>
      </trkpt>
      <trkpt lat="47.01689" lon="-1.11331">
        <ele>105.1</ele>
        <time>2011-11-27T10:37:03Z</time>
      </trkpt>
      <trkpt lat="47.01686" lon="-1.11325">
        <ele>105.7</ele>
        <time>2011-11-27T10:37:04Z</time>
      </trkpt>
      <trkpt lat="47.01682" lon="-1.1132">
        <ele>106.2</ele>
        <time>2011-11-27T10:37:05Z</time>
      </trkpt>
      <trkpt lat="47.01677" lon="-1.11316">
        <ele>106.4</ele>
        <time>2011-11-27T10:37:06Z</time>
      </trkpt>
      <trkpt lat="47.01669" lon="-1.1131">
        <ele>106.1</ele>
        <time>2011-11-27T10:37:08Z</time>
      </trkpt>
      <trkpt lat="47.01666" lon="-1.11313">
        <ele>106.7</ele>
        <time>2011-11-27T10:37:09Z</time>
      </trkpt>
      <trkpt lat="47.01651" lon="-1.11315">
        <ele>103.5</ele>
        <time>2011-11-27T10:37:11Z</time>
      </trkpt>
      <trkpt lat="47.01647" lon="-1.11317">
        <ele>104.3</ele>
        <time>2011-11-27T10:37:13Z</time>
      </trkpt>
      <trkpt lat="47.01639" lon="-1.11318">
        <ele>104.6</ele>
        <time>2011-11-27T10:37:15Z</time>
      </trkpt>
      <trkpt lat="47.01631" lon="-1.11323">
        <ele>104.5</ele>
        <time>2011-11-27T10:37:18Z</time>
      </trkpt>
      <trkpt lat="47.01627" lon="-1.11326">
        <ele>105.6</ele>
        <time>2011-11-27T10:37:19Z</time>
      </trkpt>
      <trkpt lat="47.01622" lon="-1.11327">
        <ele>106.6</ele>
        <time>2011-11-27T10:37:20Z</time>
      </trkpt>
      <trkpt lat="47.01617" lon="-1.11328">
        <ele>107.3</ele>
        <time>2011-11-27T10:37:21Z</time>
      </trkpt>
      <trkpt lat="47.0161" lon="-1.11328">
        <ele>107.6</ele>
        <time>2011-11-27T10:37:23Z</time>
      </trkpt>
      <trkpt lat="47.01604" lon="-1.11328">
        <ele>107.7</ele>
        <time>2011-11-27T10:37:25Z</time>
      </trkpt>
      <trkpt lat="47.01597" lon="-1.11327">
        <ele>107.8</ele>
        <time>2011-11-27T10:37:27Z</time>
      </trkpt>
      <trkpt lat="47.01591" lon="-1.11322">
        <ele>107.8</ele>
        <time>2011-11-27T10:37:29Z</time>
      </trkpt>
      <trkpt lat="47.01584" lon="-1.1132">
        <ele>107.5</ele>
        <time>2011-11-27T10:37:31Z</time>
      </trkpt>
      <trkpt lat="47.01578" lon="-1.1132">
        <ele>106.7</ele>
        <time>2011-11-27T10:37:32Z</time>
      </trkpt>
      <trkpt lat="47.01579" lon="-1.11309">
        <ele>107.1</ele>
        <time>2011-11-27T10:37:38Z</time>
      </trkpt>
      <trkpt lat="47.0158" lon="-1.11303">
        <ele>107.2</ele>
        <time>2011-11-27T10:37:39Z</time>
      </trkpt>
      <trkpt lat="47.01577" lon="-1.11294">
        <ele>106.3</ele>
        <time>2011-11-27T10:37:40Z</time>
      </trkpt>
      <trkpt lat="47.01579" lon="-1.11281">
        <ele>105.4</ele>
        <time>2011-11-27T10:37:42Z</time>
      </trkpt>
      <trkpt lat="47.01579" lon="-1.11273">
        <ele>102.2</ele>
        <time>2011-11-27T10:37:43Z</time>
      </trkpt>
      <trkpt lat="47.0158" lon="-1.11264">
        <ele>102.7</ele>
        <time>2011-11-27T10:37:45Z</time>
      </trkpt>
      <trkpt lat="47.01581" lon="-1.11257">
        <ele>103.2</ele>
        <time>2011-11-27T10:37:46Z</time>
      </trkpt>
      <trkpt lat="47.01583" lon="-1.11251">
        <ele>104.1</ele>
        <time>2011-11-27T10:37:47Z</time>
      </trkpt>
      <trkpt lat="47.01583" lon="-1.11241">
        <ele>103.7</ele>
        <time>2011-11-27T10:37:49Z</time>
      </trkpt>
      <trkpt lat="47.01584" lon="-1.1123">
        <ele>103.6</ele>
        <time>2011-11-27T10:37:50Z</time>
      </trkpt>
      <trkpt lat="47.01585" lon="-1.11217">
        <ele>105.4</ele>
        <time>2011-11-27T10:37:52Z</time>
      </trkpt>
      <trkpt lat="47.01588" lon="-1.11208">
        <ele>104.7</ele>
        <time>2011-11-27T10:37:53Z</time>
      </trkpt>
      <trkpt lat="47.01594" lon="-1.11196">
        <ele>104.8</ele>
        <time>2011-11-27T10:37:55Z</time>
      </trkpt>
      <trkpt lat="47.01594" lon="-1.11186">
        <ele>103.5</ele>
        <time>2011-11-27T10:37:56Z</time>
      </trkpt>
      <trkpt lat="47.01596" lon="-1.11179">
        <ele>102.8</ele>
        <time>2011-11-27T10:37:57Z</time>
      </trkpt>
      <trkpt lat="47.016" lon="-1.11166">
        <ele>102.5</ele>
        <time>2011-11-27T10:37:58Z</time>
      </trkpt>
      <trkpt lat="47.01604" lon="-1.11152">
        <ele>102.8</ele>
        <time>2011-11-27T10:37:59Z</time>
      </trkpt>
      <trkpt lat="47.01602" lon="-1.11145">
        <ele>103.3</ele>
        <time>2011-11-27T10:38:00Z</time>
      </trkpt>
      <trkpt lat="47.01604" lon="-1.11136">
        <ele>101</ele>
        <time>2011-11-27T10:38:01Z</time>
      </trkpt>
      <trkpt lat="47.01607" lon="-1.11122">
        <ele>99.7</ele>
        <time>2011-11-27T10:38:04Z</time>
      </trkpt>
      <trkpt lat="47.01608" lon="-1.1111">
        <ele>100.6</ele>
        <time>2011-11-27T10:38:05Z</time>
      </trkpt>
      <trkpt lat="47.0161" lon="-1.11102">
        <ele>99.7</ele>
        <time>2011-11-27T10:38:06Z</time>
      </trkpt>
      <trkpt lat="47.01609" lon="-1.11092">
        <ele>100.2</ele>
        <time>2011-11-27T10:38:08Z</time>
      </trkpt>
      <trkpt lat="47.01611" lon="-1.11082">
        <ele>100.3</ele>
        <time>2011-11-27T10:38:09Z</time>
      </trkpt>
      <trkpt lat="47.01613" lon="-1.11066">
        <ele>101.2</ele>
        <time>2011-11-27T10:38:11Z</time>
      </trkpt>
      <trkpt lat="47.0161" lon="-1.11056">
        <ele>101.6</ele>
        <time>2011-11-27T10:38:13Z</time>
      </trkpt>
      <trkpt lat="47.01613" lon="-1.11048">
        <ele>102.6</ele>
        <time>2011-11-27T10:38:15Z</time>
      </trkpt>
      <trkpt lat="47.01614" lon="-1.11042">
        <ele>101.9</ele>
        <time>2011-11-27T10:38:16Z</time>
      </trkpt>
      <trkpt lat="47.01618" lon="-1.11036">
        <ele>101.9</ele>
        <time>2011-11-27T10:38:17Z</time>
      </trkpt>
      <trkpt lat="47.01618" lon="-1.11029">
        <ele>102.4</ele>
        <time>2011-11-27T10:38:18Z</time>
      </trkpt>
      <trkpt lat="47.01619" lon="-1.1102">
        <ele>102.7</ele>
        <time>2011-11-27T10:38:21Z</time>
      </trkpt>
      <trkpt lat="47.0162" lon="-1.11011">
        <ele>103.1</ele>
        <time>2011-11-27T10:38:23Z</time>
      </trkpt>
      <trkpt lat="47.01622" lon="-1.11004">
        <ele>102.2</ele>
        <time>2011-11-27T10:38:24Z</time>
      </trkpt>
      <trkpt lat="47.01626" lon="-1.10996">
        <ele>101.9</ele>
        <time>2011-11-27T10:38:26Z</time>
      </trkpt>
      <trkpt lat="47.01626" lon="-1.10988">
        <ele>103.3</ele>
        <time>2011-11-27T10:38:28Z</time>
      </trkpt>
      <trkpt lat="47.01626" lon="-1.10981">
        <ele>103.3</ele>
        <time>2011-11-27T10:38:30Z</time>
      </trkpt>
      <trkpt lat="47.01622" lon="-1.10974">
        <ele>103.4</ele>
        <time>2011-11-27T10:38:31Z</time>
      </trkpt>
      <trkpt lat="47.01618" lon="-1.10966">
        <ele>103.1</ele>
        <time>2011-11-27T10:38:32Z</time>
      </trkpt>
      <trkpt lat="47.01617" lon="-1.10956">
        <ele>101.9</ele>
        <time>2011-11-27T10:38:33Z</time>
      </trkpt>
      <trkpt lat="47.01615" lon="-1.10949">
        <ele>102.3</ele>
        <time>2011-11-27T10:38:34Z</time>
      </trkpt>
      <trkpt lat="47.01615" lon="-1.1094">
        <ele>102.4</ele>
        <time>2011-11-27T10:38:35Z</time>
      </trkpt>
      <trkpt lat="47.01614" lon="-1.10929">
        <ele>101.7</ele>
        <time>2011-11-27T10:38:37Z</time>
      </trkpt>
      <trkpt lat="47.01607" lon="-1.10934">
        <ele>102.4</ele>
        <time>2011-11-27T10:38:40Z</time>
      </trkpt>
      <trkpt lat="47.01607" lon="-1.10944">
        <ele>102.1</ele>
        <time>2011-11-27T10:38:43Z</time>
      </trkpt>
      <trkpt lat="47.01607" lon="-1.10951">
        <ele>101.7</ele>
        <time>2011-11-27T10:38:44Z</time>
      </trkpt>
      <trkpt lat="47.01609" lon="-1.10963">
        <ele>102.1</ele>
        <time>2011-11-27T10:38:46Z</time>
      </trkpt>
      <trkpt lat="47.01611" lon="-1.1097">
        <ele>102.2</ele>
        <time>2011-11-27T10:38:47Z</time>
      </trkpt>
      <trkpt lat="47.01615" lon="-1.10982">
        <ele>102.9</ele>
        <time>2011-11-27T10:38:49Z</time>
      </trkpt>
      <trkpt lat="47.01616" lon="-1.10993">
        <ele>102.5</ele>
        <time>2011-11-27T10:38:51Z</time>
      </trkpt>
      <trkpt lat="47.01616" lon="-1.11005">
        <ele>102.7</ele>
        <time>2011-11-27T10:38:53Z</time>
      </trkpt>
      <trkpt lat="47.01618" lon="-1.11012">
        <ele>102.7</ele>
        <time>2011-11-27T10:38:55Z</time>
      </trkpt>
      <trkpt lat="47.01627" lon="-1.11023">
        <ele>101</ele>
        <time>2011-11-27T10:38:57Z</time>
      </trkpt>
      <trkpt lat="47.01634" lon="-1.11035">
        <ele>98.9</ele>
        <time>2011-11-27T10:38:58Z</time>
      </trkpt>
      <trkpt lat="47.01637" lon="-1.11041">
        <ele>97.8</ele>
        <time>2011-11-27T10:38:59Z</time>
      </trkpt>
      <trkpt lat="47.01643" lon="-1.11047">
        <ele>97.6</ele>
        <time>2011-11-27T10:39:01Z</time>
      </trkpt>
      <trkpt lat="47.01647" lon="-1.11052">
        <ele>97.8</ele>
        <time>2011-11-27T10:39:02Z</time>
      </trkpt>
      <trkpt lat="47.01649" lon="-1.1106">
        <ele>98.3</ele>
        <time>2011-11-27T10:39:04Z</time>
      </trkpt>
      <trkpt lat="47.01648" lon="-1.11066">
        <ele>99.1</ele>
        <time>2011-11-27T10:39:06Z</time>
      </trkpt>
      <trkpt lat="47.01648" lon="-1.11078">
        <ele>101.1</ele>
        <time>2011-11-27T10:39:08Z</time>
      </trkpt>
      <trkpt lat="47.01652" lon="-1.11089">
        <ele>102.5</ele>
        <time>2011-11-27T10:39:10Z</time>
      </trkpt>
      <trkpt lat="47.01655" lon="-1.11103">
        <ele>103</ele>
        <time>2011-11-27T10:39:12Z</time>
      </trkpt>
      <trkpt lat="47.01658" lon="-1.11111">
        <ele>103.8</ele>
        <time>2011-11-27T10:39:13Z</time>
      </trkpt>
      <trkpt lat="47.01662" lon="-1.11117">
        <ele>102.5</ele>
        <time>2011-11-27T10:39:14Z</time>
      </trkpt>
      <trkpt lat="47.01666" lon="-1.11122">
        <ele>101.8</ele>
        <time>2011-11-27T10:39:15Z</time>
      </trkpt>
      <trkpt lat="47.0167" lon="-1.11131">
        <ele>101.4</ele>
        <time>2011-11-27T10:39:17Z</time>
      </trkpt>
      <trkpt lat="47.01671" lon="-1.1114">
        <ele>101.5</ele>
        <time>2011-11-27T10:39:18Z</time>
      </trkpt>
      <trkpt lat="47.01674" lon="-1.1115">
        <ele>101</ele>
        <time>2011-11-27T10:39:19Z</time>
      </trkpt>
      <trkpt lat="47.01676" lon="-1.11157">
        <ele>101</ele>
        <time>2011-11-27T10:39:20Z</time>
      </trkpt>
      <trkpt lat="47.0168" lon="-1.11168">
        <ele>100.5</ele>
        <time>2011-11-27T10:39:22Z</time>
      </trkpt>
      <trkpt lat="47.01686" lon="-1.11178">
        <ele>101.1</ele>
        <time>2011-11-27T10:39:24Z</time>
      </trkpt>
      <trkpt lat="47.01688" lon="-1.11186">
        <ele>101</ele>
        <time>2011-11-27T10:39:25Z</time>
      </trkpt>
      <trkpt lat="47.01692" lon="-1.11191">
        <ele>101.4</ele>
        <time>2011-11-27T10:39:26Z</time>
      </trkpt>
      <trkpt lat="47.01696" lon="-1.11194">
        <ele>101.8</ele>
        <time>2011-11-27T10:39:27Z</time>
      </trkpt>
      <trkpt lat="47.01699" lon="-1.11201">
        <ele>102</ele>
        <time>2011-11-27T10:39:28Z</time>
      </trkpt>
      <trkpt lat="47.01707" lon="-1.11206">
        <ele>100.1</ele>
        <time>2011-11-27T10:39:30Z</time>
      </trkpt>
      <trkpt lat="47.01711" lon="-1.11212">
        <ele>100.7</ele>
        <time>2011-11-27T10:39:31Z</time>
      </trkpt>
      <trkpt lat="47.0172" lon="-1.11218">
        <ele>101.4</ele>
        <time>2011-11-27T10:39:33Z</time>
      </trkpt>
      <trkpt lat="47.01726" lon="-1.11222">
        <ele>98.9</ele>
        <time>2011-11-27T10:39:34Z</time>
      </trkpt>
      <trkpt lat="47.01734" lon="-1.11229">
        <ele>98</ele>
        <time>2011-11-27T10:39:36Z</time>
      </trkpt>
      <trkpt lat="47.01737" lon="-1.11233">
        <ele>99.9</ele>
        <time>2011-11-27T10:39:37Z</time>
      </trkpt>
      <trkpt lat="47.01746" lon="-1.11242">
        <ele>100.5</ele>
        <time>2011-11-27T10:39:39Z</time>
      </trkpt>
      <trkpt lat="47.01753" lon="-1.11251">
        <ele>99.2</ele>
        <time>2011-11-27T10:39:41Z</time>
      </trkpt>
      <trkpt lat="47.01758" lon="-1.11252">
        <ele>99.1</ele>
        <time>2011-11-27T10:39:42Z</time>
      </trkpt>
      <trkpt lat="47.01763" lon="-1.11255">
        <ele>99.2</ele>
        <time>2011-11-27T10:39:43Z</time>
      </trkpt>
      <trkpt lat="47.01768" lon="-1.11257">
        <ele>98.1</ele>
        <time>2011-11-27T10:39:44Z</time>
      </trkpt>
      <trkpt lat="47.01773" lon="-1.11262">
        <ele>99.1</ele>
        <time>2011-11-27T10:39:45Z</time>
      </trkpt>
      <trkpt lat="47.01777" lon="-1.1126">
        <ele>100.9</ele>
        <time>2011-11-27T10:39:46Z</time>
      </trkpt>
      <trkpt lat="47.01787" lon="-1.11265">
        <ele>98.7</ele>
        <time>2011-11-27T10:39:48Z</time>
      </trkpt>
      <trkpt lat="47.01792" lon="-1.11271">
        <ele>98.9</ele>
        <time>2011-11-27T10:39:50Z</time>
      </trkpt>
      <trkpt lat="47.01798" lon="-1.11273">
        <ele>99.1</ele>
        <time>2011-11-27T10:39:52Z</time>
      </trkpt>
      <trkpt lat="47.01806" lon="-1.11278">
        <ele>99.5</ele>
        <time>2011-11-27T10:39:53Z</time>
      </trkpt>
      <trkpt lat="47.0181" lon="-1.1128">
        <ele>99.5</ele>
        <time>2011-11-27T10:39:54Z</time>
      </trkpt>
      <trkpt lat="47.01815" lon="-1.11281">
        <ele>99.4</ele>
        <time>2011-11-27T10:39:55Z</time>
      </trkpt>
      <trkpt lat="47.0182" lon="-1.11281">
        <ele>99.6</ele>
        <time>2011-11-27T10:39:57Z</time>
      </trkpt>
      <trkpt lat="47.01828" lon="-1.11286">
        <ele>99.1</ele>
        <time>2011-11-27T10:39:59Z</time>
      </trkpt>
      <trkpt lat="47.01835" lon="-1.11289">
        <ele>98.3</ele>
        <time>2011-11-27T10:40:01Z</time>
      </trkpt>
      <trkpt lat="47.01842" lon="-1.1129">
        <ele>98.1</ele>
        <time>2011-11-27T10:40:02Z</time>
      </trkpt>
      <trkpt lat="47.01847" lon="-1.11297">
        <ele>100.5</ele>
        <time>2011-11-27T10:40:04Z</time>
      </trkpt>
      <trkpt lat="47.01853" lon="-1.11297">
        <ele>99.7</ele>
        <time>2011-11-27T10:40:06Z</time>
      </trkpt>
      <trkpt lat="47.0186" lon="-1.11301">
        <ele>100.6</ele>
        <time>2011-11-27T10:40:08Z</time>
      </trkpt>
      <trkpt lat="47.01863" lon="-1.11309">
        <ele>99.7</ele>
        <time>2011-11-27T10:40:09Z</time>
      </trkpt>
      <trkpt lat="47.01867" lon="-1.11319">
        <ele>99</ele>
        <time>2011-11-27T10:40:11Z</time>
      </trkpt>
      <trkpt lat="47.0187" lon="-1.11323">
        <ele>99.1</ele>
        <time>2011-11-27T10:40:12Z</time>
      </trkpt>
      <trkpt lat="47.01872" lon="-1.11331">
        <ele>100.5</ele>
        <time>2011-11-27T10:40:13Z</time>
      </trkpt>
      <trkpt lat="47.01878" lon="-1.11341">
        <ele>99.5</ele>
        <time>2011-11-27T10:40:15Z</time>
      </trkpt>
      <trkpt lat="47.01882" lon="-1.11348">
        <ele>100</ele>
        <time>2011-11-27T10:40:16Z</time>
      </trkpt>
      <trkpt lat="47.01884" lon="-1.11357">
        <ele>100.4</ele>
        <time>2011-11-27T10:40:17Z</time>
      </trkpt>
      <trkpt lat="47.01884" lon="-1.11372">
        <ele>100.6</ele>
        <time>2011-11-27T10:40:19Z</time>
      </trkpt>
      <trkpt lat="47.01885" lon="-1.11382">
        <ele>100.3</ele>
        <time>2011-11-27T10:40:20Z</time>
      </trkpt>
      <trkpt lat="47.01888" lon="-1.11387">
        <ele>99.5</ele>
        <time>2011-11-27T10:40:21Z</time>
      </trkpt>
      <trkpt lat="47.01891" lon="-1.11394">
        <ele>99.8</ele>
        <time>2011-11-27T10:40:22Z</time>
      </trkpt>
      <trkpt lat="47.01895" lon="-1.11401">
        <ele>98.9</ele>
        <time>2011-11-27T10:40:23Z</time>
      </trkpt>
      <trkpt lat="47.01897" lon="-1.11408">
        <ele>98.9</ele>
        <time>2011-11-27T10:40:24Z</time>
      </trkpt>
      <trkpt lat="47.01899" lon="-1.11415">
        <ele>99.1</ele>
        <time>2011-11-27T10:40:25Z</time>
      </trkpt>
      <trkpt lat="47.01903" lon="-1.1142">
        <ele>99.5</ele>
        <time>2011-11-27T10:40:26Z</time>
      </trkpt>
      <trkpt lat="47.01907" lon="-1.1143">
        <ele>99.3</ele>
        <time>2011-11-27T10:40:28Z</time>
      </trkpt>
      <trkpt lat="47.01912" lon="-1.11437">
        <ele>98.4</ele>
        <time>2011-11-27T10:40:30Z</time>
      </trkpt>
      <trkpt lat="47.01916" lon="-1.11443">
        <ele>98.9</ele>
        <time>2011-11-27T10:40:31Z</time>
      </trkpt>
      <trkpt lat="47.01921" lon="-1.11448">
        <ele>100</ele>
        <time>2011-11-27T10:40:32Z</time>
      </trkpt>
      <trkpt lat="47.01924" lon="-1.11453">
        <ele>101.1</ele>
        <time>2011-11-27T10:40:33Z</time>
      </trkpt>
      <trkpt lat="47.01928" lon="-1.11459">
        <ele>100.8</ele>
        <time>2011-11-27T10:40:34Z</time>
      </trkpt>
      <trkpt lat="47.01934" lon="-1.11461">
        <ele>99.6</ele>
        <time>2011-11-27T10:40:35Z</time>
      </trkpt>
      <trkpt lat="47.01938" lon="-1.11465">
        <ele>98.9</ele>
        <time>2011-11-27T10:40:36Z</time>
      </trkpt>
      <trkpt lat="47.01943" lon="-1.11469">
        <ele>98.2</ele>
        <time>2011-11-27T10:40:37Z</time>
      </trkpt>
      <trkpt lat="47.01952" lon="-1.11475">
        <ele>97.7</ele>
        <time>2011-11-27T10:40:39Z</time>
      </trkpt>
      <trkpt lat="47.01956" lon="-1.11485">
        <ele>98.4</ele>
        <time>2011-11-27T10:40:41Z</time>
      </trkpt>
      <trkpt lat="47.01958" lon="-1.11494">
        <ele>99.1</ele>
        <time>2011-11-27T10:40:42Z</time>
      </trkpt>
      <trkpt lat="47.01964" lon="-1.115">
        <ele>99.1</ele>
        <time>2011-11-27T10:40:44Z</time>
      </trkpt>
      <trkpt lat="47.01967" lon="-1.11507">
        <ele>97.7</ele>
        <time>2011-11-27T10:40:45Z</time>
      </trkpt>
      <trkpt lat="47.01969" lon="-1.11514">
        <ele>97.3</ele>
        <time>2011-11-27T10:40:46Z</time>
      </trkpt>
      <trkpt lat="47.01974" lon="-1.11522">
        <ele>99</ele>
        <time>2011-11-27T10:40:48Z</time>
      </trkpt>
      <trkpt lat="47.01977" lon="-1.11532">
        <ele>100.4</ele>
        <time>2011-11-27T10:40:50Z</time>
      </trkpt>
      <trkpt lat="47.01984" lon="-1.11538">
        <ele>101</ele>
        <time>2011-11-27T10:40:52Z</time>
      </trkpt>
      <trkpt lat="47.01988" lon="-1.11548">
        <ele>102.6</ele>
        <time>2011-11-27T10:40:54Z</time>
      </trkpt>
      <trkpt lat="47.01992" lon="-1.11553">
        <ele>101.8</ele>
        <time>2011-11-27T10:40:55Z</time>
      </trkpt>
      <trkpt lat="47.01999" lon="-1.11562">
        <ele>103.1</ele>
        <time>2011-11-27T10:40:56Z</time>
      </trkpt>
      <trkpt lat="47.02002" lon="-1.11568">
        <ele>105.2</ele>
        <time>2011-11-27T10:40:57Z</time>
      </trkpt>
      <trkpt lat="47.02008" lon="-1.11575">
        <ele>105</ele>
        <time>2011-11-27T10:40:59Z</time>
      </trkpt>
      <trkpt lat="47.02013" lon="-1.1158">
        <ele>104.4</ele>
        <time>2011-11-27T10:41:00Z</time>
      </trkpt>
      <trkpt lat="47.02017" lon="-1.11583">
        <ele>105.5</ele>
        <time>2011-11-27T10:41:01Z</time>
      </trkpt>
      <trkpt lat="47.02022" lon="-1.11589">
        <ele>103.3</ele>
        <time>2011-11-27T10:41:03Z</time>
      </trkpt>
      <trkpt lat="47.02027" lon="-1.11598">
        <ele>104</ele>
        <time>2011-11-27T10:41:05Z</time>
      </trkpt>
      <trkpt lat="47.02033" lon="-1.11602">
        <ele>103</ele>
        <time>2011-11-27T10:41:07Z</time>
      </trkpt>
      <trkpt lat="47.02041" lon="-1.1161">
        <ele>102.5</ele>
        <time>2011-11-27T10:41:10Z</time>
      </trkpt>
      <trkpt lat="47.02047" lon="-1.11617">
        <ele>101.1</ele>
        <time>2011-11-27T10:41:11Z</time>
      </trkpt>
      <trkpt lat="47.02055" lon="-1.11623">
        <ele>101.6</ele>
        <time>2011-11-27T10:41:13Z</time>
      </trkpt>
      <trkpt lat="47.02062" lon="-1.11633">
        <ele>101.2</ele>
        <time>2011-11-27T10:41:15Z</time>
      </trkpt>
      <trkpt lat="47.02065" lon="-1.11639">
        <ele>102.1</ele>
        <time>2011-11-27T10:41:17Z</time>
      </trkpt>
      <trkpt lat="47.0207" lon="-1.11643">
        <ele>102.4</ele>
        <time>2011-11-27T10:41:18Z</time>
      </trkpt>
      <trkpt lat="47.02077" lon="-1.11647">
        <ele>102.3</ele>
        <time>2011-11-27T10:41:20Z</time>
      </trkpt>
      <trkpt lat="47.02079" lon="-1.11653">
        <ele>100.5</ele>
        <time>2011-11-27T10:41:21Z</time>
      </trkpt>
      <trkpt lat="47.02085" lon="-1.11656">
        <ele>101.4</ele>
        <time>2011-11-27T10:41:23Z</time>
      </trkpt>
      <trkpt lat="47.02092" lon="-1.11663">
        <ele>102.6</ele>
        <time>2011-11-27T10:41:25Z</time>
      </trkpt>
      <trkpt lat="47.02096" lon="-1.11667">
        <ele>103.2</ele>
        <time>2011-11-27T10:41:26Z</time>
      </trkpt>
      <trkpt lat="47.02101" lon="-1.11674">
        <ele>104.5</ele>
        <time>2011-11-27T10:41:28Z</time>
      </trkpt>
      <trkpt lat="47.02105" lon="-1.11681">
        <ele>102.7</ele>
        <time>2011-11-27T10:41:30Z</time>
      </trkpt>
      <trkpt lat="47.0211" lon="-1.11684">
        <ele>101.9</ele>
        <time>2011-11-27T10:41:32Z</time>
      </trkpt>
      <trkpt lat="47.02115" lon="-1.11689">
        <ele>102</ele>
        <time>2011-11-27T10:41:34Z</time>
      </trkpt>
      <trkpt lat="47.02121" lon="-1.11686">
        <ele>101.2</ele>
        <time>2011-11-27T10:41:35Z</time>
      </trkpt>
      <trkpt lat="47.02124" lon="-1.11693">
        <ele>101.4</ele>
        <time>2011-11-27T10:41:37Z</time>
      </trkpt>
      <trkpt lat="47.02127" lon="-1.11699">
        <ele>102.4</ele>
        <time>2011-11-27T10:41:38Z</time>
      </trkpt>
      <trkpt lat="47.02132" lon="-1.117">
        <ele>102.7</ele>
        <time>2011-11-27T10:41:41Z</time>
      </trkpt>
      <trkpt lat="47.02137" lon="-1.11705">
        <ele>101.8</ele>
        <time>2011-11-27T10:41:43Z</time>
      </trkpt>
      <trkpt lat="47.02141" lon="-1.11708">
        <ele>104.2</ele>
        <time>2011-11-27T10:41:45Z</time>
      </trkpt>
      <trkpt lat="47.02146" lon="-1.11714">
        <ele>105.5</ele>
        <time>2011-11-27T10:41:48Z</time>
      </trkpt>
      <trkpt lat="47.02149" lon="-1.11719">
        <ele>109.7</ele>
        <time>2011-11-27T10:41:50Z</time>
      </trkpt>
      <trkpt lat="47.02154" lon="-1.11726">
        <ele>111.3</ele>
        <time>2011-11-27T10:41:52Z</time>
      </trkpt>
      <trkpt lat="47.02158" lon="-1.11728">
        <ele>112.8</ele>
        <time>2011-11-27T10:41:54Z</time>
      </trkpt>
      <trkpt lat="47.02164" lon="-1.11738">
        <ele>112.5</ele>
        <time>2011-11-27T10:41:56Z</time>
      </trkpt>
      <trkpt lat="47.02168" lon="-1.11742">
        <ele>112.2</ele>
        <time>2011-11-27T10:41:58Z</time>
      </trkpt>
      <trkpt lat="47.02174" lon="-1.11745">
        <ele>113.1</ele>
        <time>2011-11-27T10:42:01Z</time>
      </trkpt>
      <trkpt lat="47.02181" lon="-1.11746">
        <ele>114.5</ele>
        <time>2011-11-27T10:42:05Z</time>
      </trkpt>
      <trkpt lat="47.02186" lon="-1.11752">
        <ele>114.3</ele>
        <time>2011-11-27T10:42:08Z</time>
      </trkpt>
      <trkpt lat="47.02192" lon="-1.11758">
        <ele>114.1</ele>
        <time>2011-11-27T10:42:10Z</time>
      </trkpt>
      <trkpt lat="47.022" lon="-1.11757">
        <ele>114.9</ele>
        <time>2011-11-27T10:42:14Z</time>
      </trkpt>
      <trkpt lat="47.02206" lon="-1.11759">
        <ele>114.6</ele>
        <time>2011-11-27T10:42:16Z</time>
      </trkpt>
      <trkpt lat="47.0221" lon="-1.11756">
        <ele>114.8</ele>
        <time>2011-11-27T10:42:17Z</time>
      </trkpt>
      <trkpt lat="47.02214" lon="-1.11754">
        <ele>114.5</ele>
        <time>2011-11-27T10:42:18Z</time>
      </trkpt>
      <trkpt lat="47.02219" lon="-1.11755">
        <ele>116.4</ele>
        <time>2011-11-27T10:42:23Z</time>
      </trkpt>
      <trkpt lat="47.02224" lon="-1.11754">
        <ele>115.6</ele>
        <time>2011-11-27T10:42:25Z</time>
      </trkpt>
      <trkpt lat="47.02228" lon="-1.11757">
        <ele>117.1</ele>
        <time>2011-11-27T10:42:30Z</time>
      </trkpt>
      <trkpt lat="47.02232" lon="-1.11754">
        <ele>119.9</ele>
        <time>2011-11-27T10:42:33Z</time>
      </trkpt>
      <trkpt lat="47.02238" lon="-1.11756">
        <ele>118.5</ele>
        <time>2011-11-27T10:42:36Z</time>
      </trkpt>
      <trkpt lat="47.02241" lon="-1.11762">
        <ele>118.8</ele>
        <time>2011-11-27T10:42:38Z</time>
      </trkpt>
      <trkpt lat="47.02246" lon="-1.11757">
        <ele>119.2</ele>
        <time>2011-11-27T10:42:40Z</time>
      </trkpt>
      <trkpt lat="47.0225" lon="-1.11757">
        <ele>121.2</ele>
        <time>2011-11-27T10:42:42Z</time>
      </trkpt>
      <trkpt lat="47.02255" lon="-1.11757">
        <ele>122.6</ele>
        <time>2011-11-27T10:42:46Z</time>
      </trkpt>
      <trkpt lat="47.02261" lon="-1.11756">
        <ele>123.6</ele>
        <time>2011-11-27T10:42:48Z</time>
      </trkpt>
      <trkpt lat="47.02268" lon="-1.11748">
        <ele>121.8</ele>
        <time>2011-11-27T10:42:51Z</time>
      </trkpt>
      <trkpt lat="47.02274" lon="-1.11741">
        <ele>123.7</ele>
        <time>2011-11-27T10:42:54Z</time>
      </trkpt>
      <trkpt lat="47.02278" lon="-1.11738">
        <ele>125</ele>
        <time>2011-11-27T10:42:55Z</time>
      </trkpt>
      <trkpt lat="47.02284" lon="-1.11742">
        <ele>126.4</ele>
        <time>2011-11-27T10:42:59Z</time>
      </trkpt>
      <trkpt lat="47.02291" lon="-1.11739">
        <ele>127.2</ele>
        <time>2011-11-27T10:43:03Z</time>
      </trkpt>
      <trkpt lat="47.02295" lon="-1.11741">
        <ele>129</ele>
        <time>2011-11-27T10:43:06Z</time>
      </trkpt>
      <trkpt lat="47.02301" lon="-1.11738">
        <ele>129.3</ele>
        <time>2011-11-27T10:43:08Z</time>
      </trkpt>
      <trkpt lat="47.02304" lon="-1.11744">
        <ele>129</ele>
        <time>2011-11-27T10:43:10Z</time>
      </trkpt>
      <trkpt lat="47.02308" lon="-1.11739">
        <ele>128.3</ele>
        <time>2011-11-27T10:43:12Z</time>
      </trkpt>
      <trkpt lat="47.02314" lon="-1.1174">
        <ele>128</ele>
        <time>2011-11-27T10:43:14Z</time>
      </trkpt>
      <trkpt lat="47.0232" lon="-1.1174">
        <ele>127.1</ele>
        <time>2011-11-27T10:43:16Z</time>
      </trkpt>
      <trkpt lat="47.02328" lon="-1.11741">
        <ele>127.7</ele>
        <time>2011-11-27T10:43:19Z</time>
      </trkpt>
      <trkpt lat="47.02333" lon="-1.11742">
        <ele>127.8</ele>
        <time>2011-11-27T10:43:23Z</time>
      </trkpt>
      <trkpt lat="47.02339" lon="-1.11744">
        <ele>126.3</ele>
        <time>2011-11-27T10:43:27Z</time>
      </trkpt>
      <trkpt lat="47.02346" lon="-1.11744">
        <ele>125.4</ele>
        <time>2011-11-27T10:43:30Z</time>
      </trkpt>
      <trkpt lat="47.02352" lon="-1.11744">
        <ele>124.8</ele>
        <time>2011-11-27T10:43:34Z</time>
      </trkpt>
      <trkpt lat="47.02356" lon="-1.1174">
        <ele>127.1</ele>
        <time>2011-11-27T10:43:36Z</time>
      </trkpt>
      <trkpt lat="47.02361" lon="-1.11738">
        <ele>127.4</ele>
        <time>2011-11-27T10:43:38Z</time>
      </trkpt>
      <trkpt lat="47.02367" lon="-1.11735">
        <ele>128.2</ele>
        <time>2011-11-27T10:43:43Z</time>
      </trkpt>
      <trkpt lat="47.02373" lon="-1.11735">
        <ele>128.3</ele>
        <time>2011-11-27T10:43:45Z</time>
      </trkpt>
      <trkpt lat="47.02379" lon="-1.11736">
        <ele>130.8</ele>
        <time>2011-11-27T10:43:48Z</time>
      </trkpt>
      <trkpt lat="47.02384" lon="-1.11731">
        <ele>132</ele>
        <time>2011-11-27T10:43:51Z</time>
      </trkpt>
      <trkpt lat="47.0239" lon="-1.1173">
        <ele>131.3</ele>
        <time>2011-11-27T10:43:53Z</time>
      </trkpt>
      <trkpt lat="47.02393" lon="-1.11739">
        <ele>131.4</ele>
        <time>2011-11-27T10:43:55Z</time>
      </trkpt>
      <trkpt lat="47.02399" lon="-1.1174">
        <ele>131</ele>
        <time>2011-11-27T10:43:58Z</time>
      </trkpt>
      <trkpt lat="47.02404" lon="-1.11739">
        <ele>131.2</ele>
        <time>2011-11-27T10:44:02Z</time>
      </trkpt>
      <trkpt lat="47.02409" lon="-1.1174">
        <ele>128.3</ele>
        <time>2011-11-27T10:44:05Z</time>
      </trkpt>
      <trkpt lat="47.02417" lon="-1.11739">
        <ele>132.3</ele>
        <time>2011-11-27T10:44:09Z</time>
      </trkpt>
      <trkpt lat="47.02421" lon="-1.11744">
        <ele>132.7</ele>
        <time>2011-11-27T10:44:11Z</time>
      </trkpt>
      <trkpt lat="47.02426" lon="-1.11746">
        <ele>131.9</ele>
        <time>2011-11-27T10:44:14Z</time>
      </trkpt>
      <trkpt lat="47.0243" lon="-1.11742">
        <ele>135.8</ele>
        <time>2011-11-27T10:44:18Z</time>
      </trkpt>
      <trkpt lat="47.02437" lon="-1.11745">
        <ele>135.5</ele>
        <time>2011-11-27T10:44:20Z</time>
      </trkpt>
      <trkpt lat="47.02443" lon="-1.1175">
        <ele>134.4</ele>
        <time>2011-11-27T10:44:23Z</time>
      </trkpt>
      <trkpt lat="47.02448" lon="-1.11744">
        <ele>136.8</ele>
        <time>2011-11-27T10:44:26Z</time>
      </trkpt>
      <trkpt lat="47.02453" lon="-1.11742">
        <ele>138</ele>
        <time>2011-11-27T10:44:30Z</time>
      </trkpt>
      <trkpt lat="47.02458" lon="-1.11739">
        <ele>138.8</ele>
        <time>2011-11-27T10:44:32Z</time>
      </trkpt>
      <trkpt lat="47.02465" lon="-1.11734">
        <ele>138.2</ele>
        <time>2011-11-27T10:44:37Z</time>
      </trkpt>
      <trkpt lat="47.0247" lon="-1.11733">
        <ele>137.3</ele>
        <time>2011-11-27T10:44:40Z</time>
      </trkpt>
      <trkpt lat="47.02476" lon="-1.11729">
        <ele>137.2</ele>
        <time>2011-11-27T10:44:43Z</time>
      </trkpt>
      <trkpt lat="47.02482" lon="-1.11728">
        <ele>136.8</ele>
        <time>2011-11-27T10:44:47Z</time>
      </trkpt>
      <trkpt lat="47.02488" lon="-1.11725">
        <ele>138.3</ele>
        <time>2011-11-27T10:44:51Z</time>
      </trkpt>
      <trkpt lat="47.02493" lon="-1.1172">
        <ele>139.5</ele>
        <time>2011-11-27T10:44:55Z</time>
      </trkpt>
      <trkpt lat="47.02498" lon="-1.11721">
        <ele>140.1</ele>
        <time>2011-11-27T10:44:58Z</time>
      </trkpt>
      <trkpt lat="47.02504" lon="-1.11721">
        <ele>139.4</ele>
        <time>2011-11-27T10:45:02Z</time>
      </trkpt>
      <trkpt lat="47.02509" lon="-1.11718">
        <ele>140.8</ele>
        <time>2011-11-27T10:45:05Z</time>
      </trkpt>
      <trkpt lat="47.02514" lon="-1.11718">
        <ele>140.4</ele>
        <time>2011-11-27T10:45:10Z</time>
      </trkpt>
      <trkpt lat="47.0252" lon="-1.11716">
        <ele>142.9</ele>
        <time>2011-11-27T10:46:55Z</time>
      </trkpt>
      <trkpt lat="47.02525" lon="-1.11712">
        <ele>143.6</ele>
        <time>2011-11-27T10:49:26Z</time>
      </trkpt>
      <trkpt lat="47.0253" lon="-1.11712">
        <ele>143.7</ele>
        <time>2011-11-27T10:49:28Z</time>
      </trkpt>
      <trkpt lat="47.02536" lon="-1.11713">
        <ele>143.4</ele>
        <time>2011-11-27T10:49:29Z</time>
      </trkpt>
      <trkpt lat="47.02543" lon="-1.11712">
        <ele>142.5</ele>
        <time>2011-11-27T10:49:31Z</time>
      </trkpt>
      <trkpt lat="47.02551" lon="-1.11707">
        <ele>142.8</ele>
        <time>2011-11-27T10:49:33Z</time>
      </trkpt>
      <trkpt lat="47.02556" lon="-1.11709">
        <ele>142.5</ele>
        <time>2011-11-27T10:49:35Z</time>
      </trkpt>
      <trkpt lat="47.02562" lon="-1.11709">
        <ele>142.5</ele>
        <time>2011-11-27T10:49:37Z</time>
      </trkpt>
      <trkpt lat="47.02569" lon="-1.1171">
        <ele>143.6</ele>
        <time>2011-11-27T10:49:39Z</time>
      </trkpt>
      <trkpt lat="47.02575" lon="-1.1171">
        <ele>143.4</ele>
        <time>2011-11-27T10:49:40Z</time>
      </trkpt>
      <trkpt lat="47.02584" lon="-1.1171">
        <ele>143.2</ele>
        <time>2011-11-27T10:49:42Z</time>
      </trkpt>
      <trkpt lat="47.0259" lon="-1.11713">
        <ele>142.6</ele>
        <time>2011-11-27T10:49:43Z</time>
      </trkpt>
      <trkpt lat="47.02594" lon="-1.11715">
        <ele>142.4</ele>
        <time>2011-11-27T10:49:44Z</time>
      </trkpt>
      <trkpt lat="47.02599" lon="-1.11716">
        <ele>143.1</ele>
        <time>2011-11-27T10:49:45Z</time>
      </trkpt>
      <trkpt lat="47.0261" lon="-1.11715">
        <ele>142.9</ele>
        <time>2011-11-27T10:49:48Z</time>
      </trkpt>
      <trkpt lat="47.02616" lon="-1.11714">
        <ele>141.8</ele>
        <time>2011-11-27T10:49:49Z</time>
      </trkpt>
      <trkpt lat="47.02622" lon="-1.11714">
        <ele>141.8</ele>
        <time>2011-11-27T10:49:50Z</time>
      </trkpt>
      <trkpt lat="47.02627" lon="-1.11715">
        <ele>141.6</ele>
        <time>2011-11-27T10:49:51Z</time>
      </trkpt>
      <trkpt lat="47.02633" lon="-1.11713">
        <ele>141.8</ele>
        <time>2011-11-27T10:49:52Z</time>
      </trkpt>
      <trkpt lat="47.02638" lon="-1.11713">
        <ele>142.5</ele>
        <time>2011-11-27T10:49:53Z</time>
      </trkpt>
      <trkpt lat="47.02644" lon="-1.11712">
        <ele>142.7</ele>
        <time>2011-11-27T10:49:54Z</time>
      </trkpt>
      <trkpt lat="47.0265" lon="-1.11713">
        <ele>142.5</ele>
        <time>2011-11-27T10:49:55Z</time>
      </trkpt>
      <trkpt lat="47.02656" lon="-1.11714">
        <ele>142.3</ele>
        <time>2011-11-27T10:49:56Z</time>
      </trkpt>
      <trkpt lat="47.02661" lon="-1.11715">
        <ele>142</ele>
        <time>2011-11-27T10:49:57Z</time>
      </trkpt>
      <trkpt lat="47.02667" lon="-1.11716">
        <ele>141.5</ele>
        <time>2011-11-27T10:49:58Z</time>
      </trkpt>
      <trkpt lat="47.02672" lon="-1.11717">
        <ele>141.7</ele>
        <time>2011-11-27T10:49:59Z</time>
      </trkpt>
      <trkpt lat="47.02678" lon="-1.11716">
        <ele>142.1</ele>
        <time>2011-11-27T10:50:00Z</time>
      </trkpt>
      <trkpt lat="47.02683" lon="-1.11716">
        <ele>141.8</ele>
        <time>2011-11-27T10:50:01Z</time>
      </trkpt>
      <trkpt lat="47.02688" lon="-1.11716">
        <ele>141.6</ele>
        <time>2011-11-27T10:50:02Z</time>
      </trkpt>
      <trkpt lat="47.02693" lon="-1.11715">
        <ele>141.8</ele>
        <time>2011-11-27T10:50:03Z</time>
      </trkpt>
      <trkpt lat="47.02703" lon="-1.11713">
        <ele>141.6</ele>
        <time>2011-11-27T10:50:05Z</time>
      </trkpt>
      <trkpt lat="47.0271" lon="-1.11711">
        <ele>141.4</ele>
        <time>2011-11-27T10:50:06Z</time>
      </trkpt>
      <trkpt lat="47.02715" lon="-1.1171">
        <ele>141.6</ele>
        <time>2011-11-27T10:50:07Z</time>
      </trkpt>
      <trkpt lat="47.02721" lon="-1.11707">
        <ele>141.7</ele>
        <time>2011-11-27T10:50:09Z</time>
      </trkpt>
      <trkpt lat="47.02726" lon="-1.11707">
        <ele>141</ele>
        <time>2011-11-27T10:50:11Z</time>
      </trkpt>
      <trkpt lat="47.02734" lon="-1.11705">
        <ele>141</ele>
        <time>2011-11-27T10:50:13Z</time>
      </trkpt>
      <trkpt lat="47.0274" lon="-1.11705">
        <ele>141.2</ele>
        <time>2011-11-27T10:50:14Z</time>
      </trkpt>
      <trkpt lat="47.02747" lon="-1.11702">
        <ele>142.3</ele>
        <time>2011-11-27T10:50:15Z</time>
      </trkpt>
      <trkpt lat="47.02752" lon="-1.11699">
        <ele>141.7</ele>
        <time>2011-11-27T10:50:16Z</time>
      </trkpt>
      <trkpt lat="47.0276" lon="-1.11696">
        <ele>141.3</ele>
        <time>2011-11-27T10:50:17Z</time>
      </trkpt>
      <trkpt lat="47.02766" lon="-1.11696">
        <ele>140.8</ele>
        <time>2011-11-27T10:50:19Z</time>
      </trkpt>
      <trkpt lat="47.02774" lon="-1.11694">
        <ele>140.3</ele>
        <time>2011-11-27T10:50:21Z</time>
      </trkpt>
      <trkpt lat="47.02782" lon="-1.11691">
        <ele>140.8</ele>
        <time>2011-11-27T10:50:23Z</time>
      </trkpt>
      <trkpt lat="47.02786" lon="-1.11689">
        <ele>140.9</ele>
        <time>2011-11-27T10:50:24Z</time>
      </trkpt>
      <trkpt lat="47.02796" lon="-1.11686">
        <ele>141</ele>
        <time>2011-11-27T10:50:26Z</time>
      </trkpt>
      <trkpt lat="47.02806" lon="-1.11681">
        <ele>141.9</ele>
        <time>2011-11-27T10:50:27Z</time>
      </trkpt>
      <trkpt lat="47.02811" lon="-1.1168">
        <ele>142</ele>
        <time>2011-11-27T10:50:28Z</time>
      </trkpt>
      <trkpt lat="47.0282" lon="-1.11681">
        <ele>141.1</ele>
        <time>2011-11-27T10:50:30Z</time>
      </trkpt>
      <trkpt lat="47.02832" lon="-1.1168">
        <ele>141.4</ele>
        <time>2011-11-27T10:50:32Z</time>
      </trkpt>
      <trkpt lat="47.02844" lon="-1.11679">
        <ele>141.9</ele>
        <time>2011-11-27T10:50:34Z</time>
      </trkpt>
      <trkpt lat="47.0285" lon="-1.11678">
        <ele>141.6</ele>
        <time>2011-11-27T10:50:35Z</time>
      </trkpt>
      <trkpt lat="47.02856" lon="-1.11678">
        <ele>141.6</ele>
        <time>2011-11-27T10:50:36Z</time>
      </trkpt>
      <trkpt lat="47.02862" lon="-1.11678">
        <ele>141.3</ele>
        <time>2011-11-27T10:50:37Z</time>
      </trkpt>
      <trkpt lat="47.02867" lon="-1.11678">
        <ele>141</ele>
        <time>2011-11-27T10:50:38Z</time>
      </trkpt>
      <trkpt lat="47.02873" lon="-1.11676">
        <ele>141.5</ele>
        <time>2011-11-27T10:50:39Z</time>
      </trkpt>
      <trkpt lat="47.02883" lon="-1.11674">
        <ele>142.3</ele>
        <time>2011-11-27T10:50:40Z</time>
      </trkpt>
      <trkpt lat="47.02891" lon="-1.11675">
        <ele>141.6</ele>
        <time>2011-11-27T10:50:41Z</time>
      </trkpt>
      <trkpt lat="47.02897" lon="-1.11676">
        <ele>141.4</ele>
        <time>2011-11-27T10:50:42Z</time>
      </trkpt>
      <trkpt lat="47.02904" lon="-1.11674">
        <ele>140.9</ele>
        <time>2011-11-27T10:50:43Z</time>
      </trkpt>
      <trkpt lat="47.02912" lon="-1.11672">
        <ele>141.3</ele>
        <time>2011-11-27T10:50:44Z</time>
      </trkpt>
      <trkpt lat="47.02923" lon="-1.11676">
        <ele>140</ele>
        <time>2011-11-27T10:50:45Z</time>
      </trkpt>
      <trkpt lat="47.02931" lon="-1.11674">
        <ele>139.2</ele>
        <time>2011-11-27T10:50:46Z</time>
      </trkpt>
      <trkpt lat="47.02938" lon="-1.11673">
        <ele>139.2</ele>
        <time>2011-11-27T10:50:47Z</time>
      </trkpt>
      <trkpt lat="47.02945" lon="-1.11673">
        <ele>139.4</ele>
        <time>2011-11-27T10:50:48Z</time>
      </trkpt>
      <trkpt lat="47.02954" lon="-1.11673">
        <ele>140.1</ele>
        <time>2011-11-27T10:50:49Z</time>
      </trkpt>
      <trkpt lat="47.02962" lon="-1.11669">
        <ele>140.9</ele>
        <time>2011-11-27T10:50:50Z</time>
      </trkpt>
      <trkpt lat="47.02973" lon="-1.1167">
        <ele>141.7</ele>
        <time>2011-11-27T10:50:51Z</time>
      </trkpt>
      <trkpt lat="47.02983" lon="-1.11672">
        <ele>141.6</ele>
        <time>2011-11-27T10:50:52Z</time>
      </trkpt>
      <trkpt lat="47.02993" lon="-1.11672">
        <ele>140.4</ele>
        <time>2011-11-27T10:50:53Z</time>
      </trkpt>
      <trkpt lat="47.03004" lon="-1.11672">
        <ele>140.6</ele>
        <time>2011-11-27T10:50:54Z</time>
      </trkpt>
      <trkpt lat="47.03015" lon="-1.11667">
        <ele>141.5</ele>
        <time>2011-11-27T10:50:55Z</time>
      </trkpt>
      <trkpt lat="47.03026" lon="-1.11668">
        <ele>141.1</ele>
        <time>2011-11-27T10:50:56Z</time>
      </trkpt>
      <trkpt lat="47.03037" lon="-1.11668">
        <ele>141</ele>
        <time>2011-11-27T10:50:57Z</time>
      </trkpt>
      <trkpt lat="47.03046" lon="-1.11669">
        <ele>141.5</ele>
        <time>2011-11-27T10:50:58Z</time>
      </trkpt>
      <trkpt lat="47.03055" lon="-1.1167">
        <ele>142.1</ele>
        <time>2011-11-27T10:50:59Z</time>
      </trkpt>
      <trkpt lat="47.03063" lon="-1.11674">
        <ele>142.1</ele>
        <time>2011-11-27T10:51:00Z</time>
      </trkpt>
      <trkpt lat="47.03072" lon="-1.11676">
        <ele>140.6</ele>
        <time>2011-11-27T10:51:01Z</time>
      </trkpt>
      <trkpt lat="47.03082" lon="-1.1168">
        <ele>139.9</ele>
        <time>2011-11-27T10:51:02Z</time>
      </trkpt>
      <trkpt lat="47.03087" lon="-1.11681">
        <ele>140.8</ele>
        <time>2011-11-27T10:51:03Z</time>
      </trkpt>
      <trkpt lat="47.03095" lon="-1.11682">
        <ele>140.3</ele>
        <time>2011-11-27T10:51:04Z</time>
      </trkpt>
      <trkpt lat="47.03102" lon="-1.11683">
        <ele>140.5</ele>
        <time>2011-11-27T10:51:05Z</time>
      </trkpt>
      <trkpt lat="47.03108" lon="-1.11683">
        <ele>140.1</ele>
        <time>2011-11-27T10:51:06Z</time>
      </trkpt>
      <trkpt lat="47.03114" lon="-1.11682">
        <ele>140.2</ele>
        <time>2011-11-27T10:51:07Z</time>
      </trkpt>
      <trkpt lat="47.0312" lon="-1.11683">
        <ele>140.4</ele>
        <time>2011-11-27T10:51:08Z</time>
      </trkpt>
      <trkpt lat="47.03126" lon="-1.11686">
        <ele>140.7</ele>
        <time>2011-11-27T10:51:09Z</time>
      </trkpt>
      <trkpt lat="47.03136" lon="-1.11691">
        <ele>139.8</ele>
        <time>2011-11-27T10:51:11Z</time>
      </trkpt>
      <trkpt lat="47.03146" lon="-1.11696">
        <ele>140.7</ele>
        <time>2011-11-27T10:51:12Z</time>
      </trkpt>
      <trkpt lat="47.03151" lon="-1.11698">
        <ele>141.7</ele>
        <time>2011-11-27T10:51:13Z</time>
      </trkpt>
      <trkpt lat="47.03158" lon="-1.11703">
        <ele>141.7</ele>
        <time>2011-11-27T10:51:15Z</time>
      </trkpt>
      <trkpt lat="47.03165" lon="-1.11708">
        <ele>139.6</ele>
        <time>2011-11-27T10:51:16Z</time>
      </trkpt>
      <trkpt lat="47.0317" lon="-1.1171">
        <ele>139.5</ele>
        <time>2011-11-27T10:51:17Z</time>
      </trkpt>
      <trkpt lat="47.03174" lon="-1.11716">
        <ele>138.7</ele>
        <time>2011-11-27T10:51:18Z</time>
      </trkpt>
      <trkpt lat="47.0318" lon="-1.11717">
        <ele>138.9</ele>
        <time>2011-11-27T10:51:19Z</time>
      </trkpt>
      <trkpt lat="47.03184" lon="-1.1172">
        <ele>139.8</ele>
        <time>2011-11-27T10:51:20Z</time>
      </trkpt>
      <trkpt lat="47.03189" lon="-1.11724">
        <ele>141</ele>
        <time>2011-11-27T10:51:22Z</time>
      </trkpt>
      <trkpt lat="47.03197" lon="-1.11731">
        <ele>142.5</ele>
        <time>2011-11-27T10:51:23Z</time>
      </trkpt>
      <trkpt lat="47.03204" lon="-1.11732">
        <ele>144.1</ele>
        <time>2011-11-27T10:51:25Z</time>
      </trkpt>
      <trkpt lat="47.0321" lon="-1.11735">
        <ele>145.3</ele>
        <time>2011-11-27T10:51:26Z</time>
      </trkpt>
      <trkpt lat="47.03215" lon="-1.11739">
        <ele>146.3</ele>
        <time>2011-11-27T10:51:28Z</time>
      </trkpt>
      <trkpt lat="47.03222" lon="-1.1174">
        <ele>145.7</ele>
        <time>2011-11-27T10:51:30Z</time>
      </trkpt>
      <trkpt lat="47.03227" lon="-1.11741">
        <ele>145</ele>
        <time>2011-11-27T10:51:31Z</time>
      </trkpt>
      <trkpt lat="47.03233" lon="-1.11739">
        <ele>145.7</ele>
        <time>2011-11-27T10:51:34Z</time>
      </trkpt>
      <trkpt lat="47.03238" lon="-1.11741">
        <ele>146.5</ele>
        <time>2011-11-27T10:51:35Z</time>
      </trkpt>
      <trkpt lat="47.03243" lon="-1.11741">
        <ele>146.3</ele>
        <time>2011-11-27T10:51:37Z</time>
      </trkpt>
      <trkpt lat="47.0325" lon="-1.11745">
        <ele>147.3</ele>
        <time>2011-11-27T10:51:39Z</time>
      </trkpt>
      <trkpt lat="47.03258" lon="-1.11749">
        <ele>146</ele>
        <time>2011-11-27T10:51:41Z</time>
      </trkpt>
      <trkpt lat="47.03263" lon="-1.11755">
        <ele>147.3</ele>
        <time>2011-11-27T10:51:44Z</time>
      </trkpt>
      <trkpt lat="47.03268" lon="-1.11758">
        <ele>148.3</ele>
        <time>2011-11-27T10:51:45Z</time>
      </trkpt>
      <trkpt lat="47.03273" lon="-1.11758">
        <ele>149.8</ele>
        <time>2011-11-27T10:51:49Z</time>
      </trkpt>
      <trkpt lat="47.0328" lon="-1.11761">
        <ele>149.2</ele>
        <time>2011-11-27T10:51:51Z</time>
      </trkpt>
      <trkpt lat="47.03285" lon="-1.11756">
        <ele>149.6</ele>
        <time>2011-11-27T10:51:53Z</time>
      </trkpt>
      <trkpt lat="47.03288" lon="-1.11762">
        <ele>149.1</ele>
        <time>2011-11-27T10:51:56Z</time>
      </trkpt>
      <trkpt lat="47.03295" lon="-1.1176">
        <ele>151.5</ele>
        <time>2011-11-27T10:51:58Z</time>
      </trkpt>
      <trkpt lat="47.03299" lon="-1.11756">
        <ele>153.9</ele>
        <time>2011-11-27T10:52:00Z</time>
      </trkpt>
      <trkpt lat="47.03304" lon="-1.11755">
        <ele>152.9</ele>
        <time>2011-11-27T10:52:03Z</time>
      </trkpt>
      <trkpt lat="47.03307" lon="-1.11746">
        <ele>156.5</ele>
        <time>2011-11-27T10:52:06Z</time>
      </trkpt>
      <trkpt lat="47.03312" lon="-1.11743">
        <ele>156.4</ele>
        <time>2011-11-27T10:52:08Z</time>
      </trkpt>
      <trkpt lat="47.03319" lon="-1.11742">
        <ele>156.2</ele>
        <time>2011-11-27T10:52:11Z</time>
      </trkpt>
      <trkpt lat="47.03324" lon="-1.11739">
        <ele>156.2</ele>
        <time>2011-11-27T10:52:12Z</time>
      </trkpt>
      <trkpt lat="47.0333" lon="-1.11736">
        <ele>155.3</ele>
        <time>2011-11-27T10:52:14Z</time>
      </trkpt>
      <trkpt lat="47.03337" lon="-1.11734">
        <ele>154.4</ele>
        <time>2011-11-27T10:52:16Z</time>
      </trkpt>
      <trkpt lat="47.03342" lon="-1.11734">
        <ele>154.4</ele>
        <time>2011-11-27T10:52:19Z</time>
      </trkpt>
      <trkpt lat="47.03348" lon="-1.11737">
        <ele>153.7</ele>
        <time>2011-11-27T10:52:20Z</time>
      </trkpt>
      <trkpt lat="47.03355" lon="-1.11731">
        <ele>154.3</ele>
        <time>2011-11-27T10:52:23Z</time>
      </trkpt>
      <trkpt lat="47.03361" lon="-1.11728">
        <ele>156.3</ele>
        <time>2011-11-27T10:52:26Z</time>
      </trkpt>
      <trkpt lat="47.03365" lon="-1.11724">
        <ele>156.9</ele>
        <time>2011-11-27T10:52:28Z</time>
      </trkpt>
      <trkpt lat="47.03371" lon="-1.11718">
        <ele>158.5</ele>
        <time>2011-11-27T10:52:30Z</time>
      </trkpt>
      <trkpt lat="47.03377" lon="-1.11717">
        <ele>158.1</ele>
        <time>2011-11-27T10:52:33Z</time>
      </trkpt>
      <trkpt lat="47.03384" lon="-1.11712">
        <ele>154.7</ele>
        <time>2011-11-27T10:52:34Z</time>
      </trkpt>
      <trkpt lat="47.03392" lon="-1.1171">
        <ele>157.1</ele>
        <time>2011-11-27T10:52:38Z</time>
      </trkpt>
      <trkpt lat="47.03396" lon="-1.11707">
        <ele>156.2</ele>
        <time>2011-11-27T10:52:40Z</time>
      </trkpt>
      <trkpt lat="47.03401" lon="-1.11707">
        <ele>156.3</ele>
        <time>2011-11-27T10:52:43Z</time>
      </trkpt>
      <trkpt lat="47.03408" lon="-1.11702">
        <ele>155.8</ele>
        <time>2011-11-27T10:52:46Z</time>
      </trkpt>
      <trkpt lat="47.03415" lon="-1.11696">
        <ele>155.1</ele>
        <time>2011-11-27T10:52:49Z</time>
      </trkpt>
      <trkpt lat="47.03421" lon="-1.11692">
        <ele>154.6</ele>
        <time>2011-11-27T10:52:51Z</time>
      </trkpt>
      <trkpt lat="47.03427" lon="-1.11687">
        <ele>154.3</ele>
        <time>2011-11-27T10:52:52Z</time>
      </trkpt>
      <trkpt lat="47.03432" lon="-1.11683">
        <ele>154.8</ele>
        <time>2011-11-27T10:52:55Z</time>
      </trkpt>
      <trkpt lat="47.0344" lon="-1.1168">
        <ele>153</ele>
        <time>2011-11-27T10:52:57Z</time>
      </trkpt>
      <trkpt lat="47.03446" lon="-1.11677">
        <ele>152.6</ele>
        <time>2011-11-27T10:53:00Z</time>
      </trkpt>
      <trkpt lat="47.03451" lon="-1.11676">
        <ele>153</ele>
        <time>2011-11-27T10:53:03Z</time>
      </trkpt>
      <trkpt lat="47.03455" lon="-1.11672">
        <ele>153.7</ele>
        <time>2011-11-27T10:53:07Z</time>
      </trkpt>
      <trkpt lat="47.0346" lon="-1.1167">
        <ele>151.7</ele>
        <time>2011-11-27T10:53:09Z</time>
      </trkpt>
      <trkpt lat="47.03465" lon="-1.11666">
        <ele>152.1</ele>
        <time>2011-11-27T10:53:11Z</time>
      </trkpt>
      <trkpt lat="47.03471" lon="-1.11658">
        <ele>152.2</ele>
        <time>2011-11-27T10:53:13Z</time>
      </trkpt>
      <trkpt lat="47.03476" lon="-1.11649">
        <ele>151.6</ele>
        <time>2011-11-27T10:53:15Z</time>
      </trkpt>
      <trkpt lat="47.03485" lon="-1.11649">
        <ele>153.4</ele>
        <time>2011-11-27T10:53:17Z</time>
      </trkpt>
      <trkpt lat="47.0349" lon="-1.11645">
        <ele>152.5</ele>
        <time>2011-11-27T10:53:18Z</time>
      </trkpt>
      <trkpt lat="47.03498" lon="-1.11639">
        <ele>151</ele>
        <time>2011-11-27T10:53:22Z</time>
      </trkpt>
      <trkpt lat="47.03504" lon="-1.11635">
        <ele>152.4</ele>
        <time>2011-11-27T10:53:25Z</time>
      </trkpt>
      <trkpt lat="47.03511" lon="-1.11634">
        <ele>153.4</ele>
        <time>2011-11-27T10:53:27Z</time>
      </trkpt>
      <trkpt lat="47.03519" lon="-1.11629">
        <ele>152.8</ele>
        <time>2011-11-27T10:53:30Z</time>
      </trkpt>
      <trkpt lat="47.03524" lon="-1.11627">
        <ele>153</ele>
        <time>2011-11-27T10:53:31Z</time>
      </trkpt>
      <trkpt lat="47.03533" lon="-1.11624">
        <ele>150.3</ele>
        <time>2011-11-27T10:53:33Z</time>
      </trkpt>
      <trkpt lat="47.0354" lon="-1.1162">
        <ele>152.3</ele>
        <time>2011-11-27T10:53:35Z</time>
      </trkpt>
      <trkpt lat="47.03545" lon="-1.1162">
        <ele>152.8</ele>
        <time>2011-11-27T10:53:37Z</time>
      </trkpt>
      <trkpt lat="47.03553" lon="-1.1162">
        <ele>152.4</ele>
        <time>2011-11-27T10:53:39Z</time>
      </trkpt>
      <trkpt lat="47.03561" lon="-1.11616">
        <ele>151.1</ele>
        <time>2011-11-27T10:53:40Z</time>
      </trkpt>
      <trkpt lat="47.03565" lon="-1.11611">
        <ele>151.9</ele>
        <time>2011-11-27T10:53:41Z</time>
      </trkpt>
      <trkpt lat="47.03569" lon="-1.11608">
        <ele>152.3</ele>
        <time>2011-11-27T10:53:42Z</time>
      </trkpt>
      <trkpt lat="47.03579" lon="-1.11607">
        <ele>150.7</ele>
        <time>2011-11-27T10:53:44Z</time>
      </trkpt>
      <trkpt lat="47.03585" lon="-1.11612">
        <ele>149.3</ele>
        <time>2011-11-27T10:53:46Z</time>
      </trkpt>
      <trkpt lat="47.03591" lon="-1.1161">
        <ele>149.5</ele>
        <time>2011-11-27T10:53:47Z</time>
      </trkpt>
      <trkpt lat="47.03596" lon="-1.1161">
        <ele>149.4</ele>
        <time>2011-11-27T10:53:49Z</time>
      </trkpt>
      <trkpt lat="47.03603" lon="-1.11608">
        <ele>148.9</ele>
        <time>2011-11-27T10:53:51Z</time>
      </trkpt>
      <trkpt lat="47.03609" lon="-1.11611">
        <ele>147.9</ele>
        <time>2011-11-27T10:53:52Z</time>
      </trkpt>
      <trkpt lat="47.03616" lon="-1.11609">
        <ele>147.6</ele>
        <time>2011-11-27T10:53:54Z</time>
      </trkpt>
      <trkpt lat="47.03625" lon="-1.1161">
        <ele>149.1</ele>
        <time>2011-11-27T10:53:56Z</time>
      </trkpt>
      <trkpt lat="47.03635" lon="-1.11613">
        <ele>150.3</ele>
        <time>2011-11-27T10:53:58Z</time>
      </trkpt>
      <trkpt lat="47.03644" lon="-1.11617">
        <ele>150.5</ele>
        <time>2011-11-27T10:54:00Z</time>
      </trkpt>
      <trkpt lat="47.03651" lon="-1.1162">
        <ele>150.9</ele>
        <time>2011-11-27T10:54:02Z</time>
      </trkpt>
      <trkpt lat="47.0366" lon="-1.1162">
        <ele>150.8</ele>
        <time>2011-11-27T10:54:04Z</time>
      </trkpt>
      <trkpt lat="47.03664" lon="-1.11619">
        <ele>153.8</ele>
        <time>2011-11-27T10:54:06Z</time>
      </trkpt>
      <trkpt lat="47.03671" lon="-1.1162">
        <ele>152.8</ele>
        <time>2011-11-27T10:54:08Z</time>
      </trkpt>
      <trkpt lat="47.03677" lon="-1.11625">
        <ele>153</ele>
        <time>2011-11-27T10:54:11Z</time>
      </trkpt>
      <trkpt lat="47.03684" lon="-1.11641">
        <ele>153.6</ele>
        <time>2011-11-27T10:54:15Z</time>
      </trkpt>
      <trkpt lat="47.03681" lon="-1.11646">
        <ele>154.8</ele>
        <time>2011-11-27T10:54:16Z</time>
      </trkpt>
      <trkpt lat="47.03676" lon="-1.11654">
        <ele>152.1</ele>
        <time>2011-11-27T10:54:17Z</time>
      </trkpt>
      <trkpt lat="47.03674" lon="-1.11662">
        <ele>152</ele>
        <time>2011-11-27T10:54:18Z</time>
      </trkpt>
      <trkpt lat="47.03671" lon="-1.11669">
        <ele>154.5</ele>
        <time>2011-11-27T10:54:20Z</time>
      </trkpt>
      <trkpt lat="47.03667" lon="-1.11685">
        <ele>154</ele>
        <time>2011-11-27T10:54:23Z</time>
      </trkpt>
      <trkpt lat="47.03664" lon="-1.11698">
        <ele>153.7</ele>
        <time>2011-11-27T10:54:26Z</time>
      </trkpt>
      <trkpt lat="47.03659" lon="-1.11713">
        <ele>153.1</ele>
        <time>2011-11-27T10:54:29Z</time>
      </trkpt>
      <trkpt lat="47.03659" lon="-1.11724">
        <ele>153.6</ele>
        <time>2011-11-27T10:54:31Z</time>
      </trkpt>
      <trkpt lat="47.03662" lon="-1.11731">
        <ele>153.4</ele>
        <time>2011-11-27T10:54:34Z</time>
      </trkpt>
      <trkpt lat="47.03664" lon="-1.11737">
        <ele>152.9</ele>
        <time>2011-11-27T10:54:35Z</time>
      </trkpt>
      <trkpt lat="47.03668" lon="-1.11742">
        <ele>153</ele>
        <time>2011-11-27T10:54:37Z</time>
      </trkpt>
      <trkpt lat="47.03673" lon="-1.11753">
        <ele>154.2</ele>
        <time>2011-11-27T10:54:40Z</time>
      </trkpt>
      <trkpt lat="47.03679" lon="-1.11759">
        <ele>155.6</ele>
        <time>2011-11-27T10:54:43Z</time>
      </trkpt>
      <trkpt lat="47.03684" lon="-1.11764">
        <ele>156.5</ele>
        <time>2011-11-27T10:54:45Z</time>
      </trkpt>
      <trkpt lat="47.03685" lon="-1.11771">
        <ele>157.7</ele>
        <time>2011-11-27T10:54:47Z</time>
      </trkpt>
      <trkpt lat="47.03686" lon="-1.11764">
        <ele>160.8</ele>
        <time>2011-11-27T10:54:50Z</time>
      </trkpt>
      <trkpt lat="47.03689" lon="-1.11774">
        <ele>158.9</ele>
        <time>2011-11-27T10:54:58Z</time>
      </trkpt>
      <trkpt lat="47.03691" lon="-1.11782">
        <ele>158.6</ele>
        <time>2011-11-27T10:55:01Z</time>
      </trkpt>
      <trkpt lat="47.03696" lon="-1.11782">
        <ele>160.7</ele>
        <time>2011-11-27T10:55:04Z</time>
      </trkpt>
      <trkpt lat="47.037" lon="-1.11785">
        <ele>159.3</ele>
        <time>2011-11-27T10:55:07Z</time>
      </trkpt>
      <trkpt lat="47.03697" lon="-1.11779">
        <ele>158</ele>
        <time>2011-11-27T10:55:10Z</time>
      </trkpt>
    </trkseg>
  </trk>
</gpx>